﻿<?xml version="1.0" encoding="UTF-8" standalone="no" ?><gpx xmlns="http://www.topografix.com/GPX/1/1" xmlns:gpxx="http://www.garmin.com/xmlschemas/GpxExtensions/v3" xmlns:gpxtrkx="http://www.garmin.com/xmlschemas/TrackStatsExtension/v1" xmlns:wptx1="http://www.garmin.com/xmlschemas/WaypointExtension/v1" xmlns:gpxtpx="http://www.garmin.com/xmlschemas/TrackPointExtension/v1" creator="GPSMAP 66sr" version="1.1" xmlns:xsi="http://www.w3.org/2001/XMLSchema-instance" xsi:schemaLocation="http://www.topografix.com/GPX/1/1 http://www.topografix.com/GPX/1/1/gpx.xsd http://www.garmin.com/xmlschemas/GpxExtensions/v3 http://www8.garmin.com/xmlschemas/GpxExtensionsv3.xsd http://www.garmin.com/xmlschemas/TrackStatsExtension/v1 http://www8.garmin.com/xmlschemas/TrackStatsExtension.xsd http://www.garmin.com/xmlschemas/WaypointExtension/v1 http://www8.garmin.com/xmlschemas/WaypointExtensionv1.xsd http://www.garmin.com/xmlschemas/TrackPointExtension/v1 http://www.garmin.com/xmlschemas/TrackPointExtensionv1.xsd"><metadata><link href="http://www.garmin.com"><text>Garmin International</text></link><time>2026-03-11T09:59:45Z</time></metadata><trk><name>2026-03-11 17:52:15</name><trkseg><trkpt lat="42.2294036240" lon="13.4185992329"><ele>1552.06</ele><time>2026-3-11T10:0:13Z</time></trkpt><trkpt lat="42.2293201519" lon="13.4187244001"><ele>1553.53</ele><time>2026-3-11T10:0:49Z</time></trkpt><trkpt lat="42.2292101822" lon="13.4187842952"><ele>1553.07</ele><time>2026-3-11T10:1:2Z</time></trkpt><trkpt lat="42.2290652871" lon="13.4188195092"><ele>1552.72</ele><time>2026-3-11T10:1:20Z</time></trkpt><trkpt lat="42.2289404869" lon="13.4188579191"><ele>1553.39</ele><time>2026-3-11T10:1:38Z</time></trkpt><trkpt lat="42.2288032593" lon="13.4188688783"><ele>1553.96</ele><time>2026-3-11T10:1:52Z</time></trkpt><trkpt lat="42.2286693379" lon="13.4188780133"><ele>1554.71</ele><time>2026-3-11T10:2:6Z</time></trkpt><trkpt lat="42.2285377141" lon="13.4188568462"><ele>1555.66</ele><time>2026-3-11T10:2:21Z</time></trkpt><trkpt lat="42.2284051962" lon="13.4188230503"><ele>1557.02</ele><time>2026-3-11T10:2:36Z</time></trkpt><trkpt lat="42.2282742447" lon="13.4187735664"><ele>1558.74</ele><time>2026-3-11T10:2:51Z</time></trkpt><trkpt lat="42.2281509731" lon="13.4187205089"><ele>1560.77</ele><time>2026-3-11T10:3:8Z</time></trkpt><trkpt lat="42.2280486845" lon="13.4186116070"><ele>1563.00</ele><time>2026-3-11T10:3:27Z</time></trkpt><trkpt lat="42.2279516112" lon="13.4184767582"><ele>1566.29</ele><time>2026-3-11T10:3:50Z</time></trkpt><trkpt lat="42.2279012291" lon="13.4183268843"><ele>1569.17</ele><time>2026-3-11T10:4:10Z</time></trkpt><trkpt lat="42.2278733166" lon="13.4181504737"><ele>1570.68</ele><time>2026-3-11T10:4:25Z</time></trkpt><trkpt lat="42.2278312293" lon="13.4179716020"><ele>1571.55</ele><time>2026-3-11T10:4:39Z</time></trkpt><trkpt lat="42.2277844841" lon="13.4178111208"><ele>1572.56</ele><time>2026-3-11T10:4:52Z</time></trkpt><trkpt lat="42.2277223046" lon="13.4176516367"><ele>1573.37</ele><time>2026-3-11T10:5:5Z</time></trkpt><trkpt lat="42.2276873765" lon="13.4174781465"><ele>1573.94</ele><time>2026-3-11T10:5:19Z</time></trkpt><trkpt lat="42.2277027688" lon="13.4173004768"><ele>1574.87</ele><time>2026-3-11T10:5:32Z</time></trkpt><trkpt lat="42.2276959067" lon="13.4171195300"><ele>1575.88</ele><time>2026-3-11T10:5:46Z</time></trkpt><trkpt lat="42.2276535610" lon="13.4169478921"><ele>1576.63</ele><time>2026-3-11T10:5:59Z</time></trkpt><trkpt lat="42.2275904633" lon="13.4167897375"><ele>1577.87</ele><time>2026-3-11T10:6:13Z</time></trkpt><trkpt lat="42.2274928440" lon="13.4166675473"><ele>1579.08</ele><time>2026-3-11T10:6:27Z</time></trkpt><trkpt lat="42.2273732945" lon="13.4165796451"><ele>1580.22</ele><time>2026-3-11T10:6:42Z</time></trkpt><trkpt lat="42.2272478845" lon="13.4165229499"><ele>1581.29</ele><time>2026-3-11T10:6:57Z</time></trkpt><trkpt lat="42.2271146024" lon="13.4164914417"><ele>1582.11</ele><time>2026-3-11T10:7:11Z</time></trkpt><trkpt lat="42.2269876348" lon="13.4164522542"><ele>1582.51</ele><time>2026-3-11T10:7:23Z</time></trkpt><trkpt lat="42.2268541131" lon="13.4164789366"><ele>1582.84</ele><time>2026-3-11T10:7:36Z</time></trkpt><trkpt lat="42.2267170100" lon="13.4164696939"><ele>1583.18</ele><time>2026-3-11T10:7:50Z</time></trkpt><trkpt lat="42.2265889732" lon="13.4164261918"><ele>1583.56</ele><time>2026-3-11T10:8:3Z</time></trkpt><trkpt lat="42.2264749976" lon="13.4163357387"><ele>1583.25</ele><time>2026-3-11T10:8:15Z</time></trkpt><trkpt lat="42.2263467427" lon="13.4163017915"><ele>1583.47</ele><time>2026-3-11T10:8:28Z</time></trkpt><trkpt lat="42.2262164718" lon="13.4163517726"><ele>1584.87</ele><time>2026-3-11T10:8:42Z</time></trkpt><trkpt lat="42.2260956634" lon="13.4163954053"><ele>1586.02</ele><time>2026-3-11T10:8:58Z</time></trkpt><trkpt lat="42.2259789928" lon="13.4162955601"><ele>1586.31</ele><time>2026-3-11T10:9:45Z</time></trkpt><trkpt lat="42.2258767225" lon="13.4163361844"><ele>1587.10</ele><time>2026-3-11T10:10:32Z</time></trkpt><trkpt lat="42.2257433109" lon="13.4163780949"><ele>1588.72</ele><time>2026-3-11T10:10:48Z</time></trkpt><trkpt lat="42.2256005276" lon="13.4163116829"><ele>1591.75</ele><time>2026-3-11T10:11:25Z</time></trkpt><trkpt lat="42.2255308444" lon="13.4162623802"><ele>1592.43</ele><time>2026-3-11T10:12:3Z</time></trkpt><trkpt lat="42.2254068795" lon="13.4161806718"><ele>1593.97</ele><time>2026-3-11T10:12:19Z</time></trkpt><trkpt lat="42.2252788825" lon="13.4161443205"><ele>1595.96</ele><time>2026-3-11T10:12:35Z</time></trkpt><trkpt lat="42.2251439435" lon="13.4161513007"><ele>1596.57</ele><time>2026-3-11T10:12:55Z</time></trkpt><trkpt lat="42.2250038313" lon="13.4161547017"><ele>1596.01</ele><time>2026-3-11T10:13:17Z</time></trkpt><trkpt lat="42.2248732299" lon="13.4161213286"><ele>1595.00</ele><time>2026-3-11T10:13:35Z</time></trkpt><trkpt lat="42.2247458636" lon="13.4160771242"><ele>1594.41</ele><time>2026-3-11T10:13:49Z</time></trkpt><trkpt lat="42.2246120562" lon="13.4160769308"><ele>1593.99</ele><time>2026-3-11T10:14:2Z</time></trkpt><trkpt lat="42.2244942393" lon="13.4159911573"><ele>1593.66</ele><time>2026-3-11T10:14:16Z</time></trkpt><trkpt lat="42.2243799549" lon="13.4159147668"><ele>1594.08</ele><time>2026-3-11T10:14:30Z</time></trkpt><trkpt lat="42.2242524102" lon="13.4158465359"><ele>1593.11</ele><time>2026-3-11T10:14:42Z</time></trkpt><trkpt lat="42.2241247020" lon="13.4157834901"><ele>1592.34</ele><time>2026-3-11T10:14:55Z</time></trkpt><trkpt lat="42.2239731345" lon="13.4157973807"><ele>1592.47</ele><time>2026-3-11T10:15:11Z</time></trkpt><trkpt lat="42.2239048429" lon="13.4158086728"><ele>1592.85</ele><time>2026-3-11T10:16:29Z</time></trkpt><trkpt lat="42.2237650884" lon="13.4158140421"><ele>1594.05</ele><time>2026-3-11T10:17:44Z</time></trkpt><trkpt lat="42.2236329596" lon="13.4158457450"><ele>1594.19</ele><time>2026-3-11T10:17:58Z</time></trkpt><trkpt lat="42.2234982804" lon="13.4158863420"><ele>1595.00</ele><time>2026-3-11T10:18:11Z</time></trkpt><trkpt lat="42.2233615895" lon="13.4159030040"><ele>1595.65</ele><time>2026-3-11T10:18:25Z</time></trkpt><trkpt lat="42.2232267791" lon="13.4158611613"><ele>1595.63</ele><time>2026-3-11T10:18:39Z</time></trkpt><trkpt lat="42.2230950390" lon="13.4158291714"><ele>1595.66</ele><time>2026-3-11T10:18:52Z</time></trkpt><trkpt lat="42.2229517512" lon="13.4158269614"><ele>1596.20</ele><time>2026-3-11T10:19:7Z</time></trkpt><trkpt lat="42.2228124358" lon="13.4158067369"><ele>1596.42</ele><time>2026-3-11T10:19:21Z</time></trkpt><trkpt lat="42.2226858368" lon="13.4157455555"><ele>1596.02</ele><time>2026-3-11T10:19:34Z</time></trkpt><trkpt lat="42.2225658476" lon="13.4156856194"><ele>1595.83</ele><time>2026-3-11T10:19:47Z</time></trkpt><trkpt lat="42.2224474168" lon="13.4155873567"><ele>1595.70</ele><time>2026-3-11T10:20:1Z</time></trkpt><trkpt lat="42.2223328168" lon="13.4154957038"><ele>1594.98</ele><time>2026-3-11T10:20:14Z</time></trkpt><trkpt lat="42.2222198933" lon="13.4153960495"><ele>1594.25</ele><time>2026-3-11T10:20:27Z</time></trkpt><trkpt lat="42.2221205430" lon="13.4152729972"><ele>1593.60</ele><time>2026-3-11T10:20:39Z</time></trkpt><trkpt lat="42.2220197716" lon="13.4151664632"><ele>1593.58</ele><time>2026-3-11T10:20:51Z</time></trkpt><trkpt lat="42.2219015164" lon="13.4150985822"><ele>1593.52</ele><time>2026-3-11T10:21:4Z</time></trkpt><trkpt lat="42.2217505399" lon="13.4150756723"><ele>1593.69</ele><time>2026-3-11T10:21:21Z</time></trkpt><trkpt lat="42.2215935644" lon="13.4150750041"><ele>1593.65</ele><time>2026-3-11T10:21:39Z</time></trkpt><trkpt lat="42.2214581125" lon="13.4150907834"><ele>1593.62</ele><time>2026-3-11T10:21:54Z</time></trkpt><trkpt lat="42.2213522408" lon="13.4150988218"><ele>1593.76</ele><time>2026-3-11T10:22:30Z</time></trkpt><trkpt lat="42.2212231363" lon="13.4150286735"><ele>1593.75</ele><time>2026-3-11T10:23:6Z</time></trkpt><trkpt lat="42.2211090481" lon="13.4149350686"><ele>1594.41</ele><time>2026-3-11T10:23:22Z</time></trkpt><trkpt lat="42.2209696211" lon="13.4148088228"><ele>1595.46</ele><time>2026-3-11T10:23:53Z</time></trkpt><trkpt lat="42.2208895683" lon="13.4147407562"><ele>1595.61</ele><time>2026-3-11T10:24:23Z</time></trkpt><trkpt lat="42.2207757309" lon="13.4146438111"><ele>1596.09</ele><time>2026-3-11T10:24:38Z</time></trkpt><trkpt lat="42.2206587922" lon="13.4145557843"><ele>1596.78</ele><time>2026-3-11T10:24:53Z</time></trkpt><trkpt lat="42.2205534345" lon="13.4144606581"><ele>1597.38</ele><time>2026-3-11T10:25:9Z</time></trkpt><trkpt lat="42.2204323928" lon="13.4143782168"><ele>1597.67</ele><time>2026-3-11T10:25:26Z</time></trkpt><trkpt lat="42.2203098062" lon="13.4142983130"><ele>1598.24</ele><time>2026-3-11T10:25:43Z</time></trkpt><trkpt lat="42.2201794479" lon="13.4142285999"><ele>1598.75</ele><time>2026-3-11T10:25:59Z</time></trkpt><trkpt lat="42.2200547140" lon="13.4141658302"><ele>1599.15</ele><time>2026-3-11T10:26:15Z</time></trkpt><trkpt lat="42.2199330088" lon="13.4140949249"><ele>1599.44</ele><time>2026-3-11T10:26:30Z</time></trkpt><trkpt lat="42.2198015861" lon="13.4140309822"><ele>1599.97</ele><time>2026-3-11T10:26:45Z</time></trkpt><trkpt lat="42.2196741477" lon="13.4139898214"><ele>1600.71</ele><time>2026-3-11T10:27:0Z</time></trkpt><trkpt lat="42.2195449526" lon="13.4139614443"><ele>1601.69</ele><time>2026-3-11T10:27:16Z</time></trkpt><trkpt lat="42.2194022459" lon="13.4139647268"><ele>1603.18</ele><time>2026-3-11T10:27:35Z</time></trkpt><trkpt lat="42.2192896499" lon="13.4139992788"><ele>1604.68</ele><time>2026-3-11T10:30:27Z</time></trkpt><trkpt lat="42.2192696679" lon="13.4140016544"><ele>1604.99</ele><time>2026-3-11T10:34:0Z</time></trkpt><trkpt lat="42.2191167902" lon="13.4140766412"><ele>1604.98</ele><time>2026-3-11T10:34:59Z</time></trkpt><trkpt lat="42.2189936234" lon="13.4141475154"><ele>1605.99</ele><time>2026-3-11T10:35:15Z</time></trkpt><trkpt lat="42.2188688088" lon="13.4142195415"><ele>1605.97</ele><time>2026-3-11T10:35:31Z</time></trkpt><trkpt lat="42.2187440732" lon="13.4142908512"><ele>1605.62</ele><time>2026-3-11T10:35:46Z</time></trkpt><trkpt lat="42.2186248340" lon="13.4143689349"><ele>1605.31</ele><time>2026-3-11T10:36:2Z</time></trkpt><trkpt lat="42.2184982320" lon="13.4144352871"><ele>1605.76</ele><time>2026-3-11T10:36:17Z</time></trkpt><trkpt lat="42.2183533274" lon="13.4145210665"><ele>1606.28</ele><time>2026-3-11T10:36:40Z</time></trkpt><trkpt lat="42.2182505026" lon="13.4145759991"><ele>1607.48</ele><time>2026-3-11T10:37:2Z</time></trkpt><trkpt lat="42.2181250040" lon="13.4146439876"><ele>1607.62</ele><time>2026-3-11T10:37:18Z</time></trkpt><trkpt lat="42.2179986197" lon="13.4147178814"><ele>1608.40</ele><time>2026-3-11T10:37:35Z</time></trkpt><trkpt lat="42.2178806271" lon="13.4147976772"><ele>1609.15</ele><time>2026-3-11T10:37:52Z</time></trkpt><trkpt lat="42.2177640675" lon="13.4148836229"><ele>1610.19</ele><time>2026-3-11T10:38:9Z</time></trkpt><trkpt lat="42.2176514054" lon="13.4149850812"><ele>1611.89</ele><time>2026-3-11T10:38:27Z</time></trkpt><trkpt lat="42.2175394669" lon="13.4150792286"><ele>1612.93</ele><time>2026-3-11T10:38:44Z</time></trkpt><trkpt lat="42.2174147498" lon="13.4151404724"><ele>1612.84</ele><time>2026-3-11T10:38:59Z</time></trkpt><trkpt lat="42.2172860935" lon="13.4151938651"><ele>1612.65</ele><time>2026-3-11T10:39:14Z</time></trkpt><trkpt lat="42.2171605546" lon="13.4152557068"><ele>1612.28</ele><time>2026-3-11T10:39:30Z</time></trkpt><trkpt lat="42.2170286800" lon="13.4153174877"><ele>1612.47</ele><time>2026-3-11T10:39:45Z</time></trkpt><trkpt lat="42.2168987095" lon="13.4153774679"><ele>1612.79</ele><time>2026-3-11T10:40:1Z</time></trkpt><trkpt lat="42.2167754792" lon="13.4154330846"><ele>1613.27</ele><time>2026-3-11T10:40:15Z</time></trkpt><trkpt lat="42.2166486550" lon="13.4155007370"><ele>1613.53</ele><time>2026-3-11T10:40:30Z</time></trkpt><trkpt lat="42.2165329987" lon="13.4155614441"><ele>1613.70</ele><time>2026-3-11T10:40:47Z</time></trkpt><trkpt lat="42.2163926661" lon="13.4156256560"><ele>1613.83</ele><time>2026-3-11T10:41:4Z</time></trkpt><trkpt lat="42.2162662127" lon="13.4156815841"><ele>1614.71</ele><time>2026-3-11T10:41:18Z</time></trkpt><trkpt lat="42.2161420648" lon="13.4157428857"><ele>1615.29</ele><time>2026-3-11T10:41:32Z</time></trkpt><trkpt lat="42.2160189953" lon="13.4158090297"><ele>1615.51</ele><time>2026-3-11T10:41:47Z</time></trkpt><trkpt lat="42.2158896866" lon="13.4158808845"><ele>1615.68</ele><time>2026-3-11T10:42:1Z</time></trkpt><trkpt lat="42.2157639064" lon="13.4159515827"><ele>1615.19</ele><time>2026-3-11T10:42:14Z</time></trkpt><trkpt lat="42.2156512394" lon="13.4160199634"><ele>1614.63</ele><time>2026-3-11T10:42:30Z</time></trkpt><trkpt lat="42.2155211279" lon="13.4160995168"><ele>1614.26</ele><time>2026-3-11T10:42:46Z</time></trkpt><trkpt lat="42.2153954168" lon="13.4161750327"><ele>1614.04</ele><time>2026-3-11T10:42:59Z</time></trkpt><trkpt lat="42.2152614693" lon="13.4162555092"><ele>1614.49</ele><time>2026-3-11T10:44:1Z</time></trkpt><trkpt lat="42.2152504418" lon="13.4162716862"><ele>1614.94</ele><time>2026-3-11T10:45:22Z</time></trkpt><trkpt lat="42.2150834313" lon="13.4163386848"><ele>1614.54</ele><time>2026-3-11T10:45:56Z</time></trkpt><trkpt lat="42.2149620764" lon="13.4163847435"><ele>1614.58</ele><time>2026-3-11T10:46:10Z</time></trkpt><trkpt lat="42.2148326706" lon="13.4164309953"><ele>1615.30</ele><time>2026-3-11T10:46:24Z</time></trkpt><trkpt lat="42.2147055562" lon="13.4164833011"><ele>1615.79</ele><time>2026-3-11T10:46:37Z</time></trkpt><trkpt lat="42.2145702993" lon="13.4165129112"><ele>1616.27</ele><time>2026-3-11T10:46:50Z</time></trkpt><trkpt lat="42.2144867532" lon="13.4165450826"><ele>1617.46</ele><time>2026-3-11T10:48:46Z</time></trkpt><trkpt lat="42.2143999441" lon="13.4165749606"><ele>1616.97</ele><time>2026-3-11T10:50:44Z</time></trkpt><trkpt lat="42.2142691704" lon="13.4166194532"><ele>1617.85</ele><time>2026-3-11T10:51:0Z</time></trkpt><trkpt lat="42.2141391731" lon="13.4166510350"><ele>1618.07</ele><time>2026-3-11T10:51:14Z</time></trkpt><trkpt lat="42.2140044789" lon="13.4166782006"><ele>1618.32</ele><time>2026-3-11T10:51:29Z</time></trkpt><trkpt lat="42.2138731255" lon="13.4167142166"><ele>1618.47</ele><time>2026-3-11T10:51:44Z</time></trkpt><trkpt lat="42.2137427609" lon="13.4167373814"><ele>1619.25</ele><time>2026-3-11T10:51:59Z</time></trkpt><trkpt lat="42.2136023062" lon="13.4167626341"><ele>1620.30</ele><time>2026-3-11T10:52:13Z</time></trkpt><trkpt lat="42.2134697473" lon="13.4167868974"><ele>1620.34</ele><time>2026-3-11T10:52:27Z</time></trkpt><trkpt lat="42.2133419703" lon="13.4168087405"><ele>1620.88</ele><time>2026-3-11T10:52:40Z</time></trkpt><trkpt lat="42.2132062577" lon="13.4168380369"><ele>1621.08</ele><time>2026-3-11T10:52:55Z</time></trkpt><trkpt lat="42.2130716419" lon="13.4168692878"><ele>1621.32</ele><time>2026-3-11T10:53:9Z</time></trkpt><trkpt lat="42.2129375897" lon="13.4169000015"><ele>1622.23</ele><time>2026-3-11T10:53:24Z</time></trkpt><trkpt lat="42.2128017973" lon="13.4169228114"><ele>1622.51</ele><time>2026-3-11T10:53:39Z</time></trkpt><trkpt lat="42.2126696203" lon="13.4169366416"><ele>1622.49</ele><time>2026-3-11T10:53:54Z</time></trkpt><trkpt lat="42.2125262720" lon="13.4169433732"><ele>1622.65</ele><time>2026-3-11T10:54:10Z</time></trkpt><trkpt lat="42.2123776365" lon="13.4169380602"><ele>1623.26</ele><time>2026-3-11T10:54:28Z</time></trkpt><trkpt lat="42.2122363269" lon="13.4169295058"><ele>1624.04</ele><time>2026-3-11T10:54:44Z</time></trkpt><trkpt lat="42.2120986339" lon="13.4169219509"><ele>1624.32</ele><time>2026-3-11T10:55:0Z</time></trkpt><trkpt lat="42.2119580730" lon="13.4169121749"><ele>1624.70</ele><time>2026-3-11T10:55:16Z</time></trkpt><trkpt lat="42.2118078638" lon="13.4169111028"><ele>1625.50</ele><time>2026-3-11T10:55:33Z</time></trkpt><trkpt lat="42.2116648872" lon="13.4168943185"><ele>1626.19</ele><time>2026-3-11T10:55:50Z</time></trkpt><trkpt lat="42.2115352436" lon="13.4168480546"><ele>1626.93</ele><time>2026-3-11T10:56:5Z</time></trkpt><trkpt lat="42.2114110664" lon="13.4167803582"><ele>1628.05</ele><time>2026-3-11T10:56:21Z</time></trkpt><trkpt lat="42.2112751374" lon="13.4167330863"><ele>1630.04</ele><time>2026-3-11T10:56:36Z</time></trkpt><trkpt lat="42.2111382410" lon="13.4167442657"><ele>1629.82</ele><time>2026-3-11T10:56:52Z</time></trkpt><trkpt lat="42.2110236565" lon="13.4168195416"><ele>1630.02</ele><time>2026-3-11T10:57:6Z</time></trkpt><trkpt lat="42.2109121836" lon="13.4169328585"><ele>1629.73</ele><time>2026-3-11T10:57:19Z</time></trkpt><trkpt lat="42.2108083577" lon="13.4170448021"><ele>1629.32</ele><time>2026-3-11T10:57:32Z</time></trkpt><trkpt lat="42.2106971814" lon="13.4171473192"><ele>1628.95</ele><time>2026-3-11T10:57:45Z</time></trkpt><trkpt lat="42.2105825041" lon="13.4172487948"><ele>1628.54</ele><time>2026-3-11T10:57:59Z</time></trkpt><trkpt lat="42.2104636966" lon="13.4173312384"><ele>1629.15</ele><time>2026-3-11T10:58:13Z</time></trkpt><trkpt lat="42.2103412785" lon="13.4173961543"><ele>1630.29</ele><time>2026-3-11T10:58:28Z</time></trkpt><trkpt lat="42.2102213614" lon="13.4174827114"><ele>1631.08</ele><time>2026-3-11T10:58:43Z</time></trkpt><trkpt lat="42.2101156216" lon="13.4176037408"><ele>1631.42</ele><time>2026-3-11T10:58:58Z</time></trkpt><trkpt lat="42.2100264276" lon="13.4177426604"><ele>1631.20</ele><time>2026-3-11T10:59:14Z</time></trkpt><trkpt lat="42.2099420847" lon="13.4178755083"><ele>1632.91</ele><time>2026-3-11T10:59:30Z</time></trkpt><trkpt lat="42.2098435387" lon="13.4179978129"><ele>1633.37</ele><time>2026-3-11T10:59:46Z</time></trkpt><trkpt lat="42.2097409924" lon="13.4181098820"><ele>1633.71</ele><time>2026-3-11T11:0:1Z</time></trkpt><trkpt lat="42.2096495144" lon="13.4182431910"><ele>1634.19</ele><time>2026-3-11T11:0:17Z</time></trkpt><trkpt lat="42.2095843178" lon="13.4184162039"><ele>1635.94</ele><time>2026-3-11T11:0:37Z</time></trkpt><trkpt lat="42.2095192547" lon="13.4185507828"><ele>1636.52</ele><time>2026-3-11T11:0:57Z</time></trkpt><trkpt lat="42.2094409776" lon="13.4184802811"><ele>1637.03</ele><time>2026-3-11T11:1:14Z</time></trkpt><trkpt lat="42.2093926584" lon="13.4183068497"><ele>1638.35</ele><time>2026-3-11T11:1:31Z</time></trkpt><trkpt lat="42.2093326785" lon="13.4181462490"><ele>1639.10</ele><time>2026-3-11T11:1:47Z</time></trkpt><trkpt lat="42.2092679642" lon="13.4179908104"><ele>1640.14</ele><time>2026-3-11T11:2:2Z</time></trkpt><trkpt lat="42.2091900604" lon="13.4178388899"><ele>1640.23</ele><time>2026-3-11T11:2:17Z</time></trkpt><trkpt lat="42.2091014776" lon="13.4176971428"><ele>1641.14</ele><time>2026-3-11T11:2:33Z</time></trkpt><trkpt lat="42.2090134285" lon="13.4175694026"><ele>1642.04</ele><time>2026-3-11T11:2:48Z</time></trkpt><trkpt lat="42.2089432699" lon="13.4174606691"><ele>1643.40</ele><time>2026-3-11T11:3:15Z</time></trkpt><trkpt lat="42.2088135453" lon="13.4173559665"><ele>1643.45</ele><time>2026-3-11T11:3:43Z</time></trkpt><trkpt lat="42.2086858156" lon="13.4172991896"><ele>1643.48</ele><time>2026-3-11T11:3:59Z</time></trkpt><trkpt lat="42.2085912273" lon="13.4172920650"><ele>1643.64</ele><time>2026-3-11T11:4:21Z</time></trkpt><trkpt lat="42.2084650230" lon="13.4173104297"><ele>1643.48</ele><time>2026-3-11T11:4:43Z</time></trkpt><trkpt lat="42.2083410552" lon="13.4174138871"><ele>1643.31</ele><time>2026-3-11T11:5:0Z</time></trkpt><trkpt lat="42.2082272731" lon="13.4173914172"><ele>1642.48</ele><time>2026-3-11T11:5:20Z</time></trkpt><trkpt lat="42.2081086430" lon="13.4173620539"><ele>1642.63</ele><time>2026-3-11T11:5:39Z</time></trkpt><trkpt lat="42.2079891041" lon="13.4172928948"><ele>1642.97</ele><time>2026-3-11T11:5:55Z</time></trkpt><trkpt lat="42.2078820749" lon="13.4171730943"><ele>1643.54</ele><time>2026-3-11T11:6:10Z</time></trkpt><trkpt lat="42.2077707434" lon="13.4170852695"><ele>1644.34</ele><time>2026-3-11T11:6:27Z</time></trkpt><trkpt lat="42.2076435835" lon="13.4170227073"><ele>1645.44</ele><time>2026-3-11T11:6:44Z</time></trkpt><trkpt lat="42.2075149743" lon="13.4169650311"><ele>1645.76</ele><time>2026-3-11T11:7:1Z</time></trkpt><trkpt lat="42.2073810361" lon="13.4169840766"><ele>1646.77</ele><time>2026-3-11T11:7:19Z</time></trkpt><trkpt lat="42.2073011199" lon="13.4171177423"><ele>1647.95</ele><time>2026-3-11T11:7:36Z</time></trkpt><trkpt lat="42.2072275931" lon="13.4172722418"><ele>1648.95</ele><time>2026-3-11T11:7:53Z</time></trkpt><trkpt lat="42.2071164614" lon="13.4173562369"><ele>1650.47</ele><time>2026-3-11T11:8:11Z</time></trkpt><trkpt lat="42.2069788253" lon="13.4173522313"><ele>1652.58</ele><time>2026-3-11T11:8:29Z</time></trkpt><trkpt lat="42.2068359018" lon="13.4173472401"><ele>1653.57</ele><time>2026-3-11T11:8:46Z</time></trkpt><trkpt lat="42.2066947352" lon="13.4173758747"><ele>1654.79</ele><time>2026-3-11T11:9:3Z</time></trkpt><trkpt lat="42.2065591539" lon="13.4173864557"><ele>1655.60</ele><time>2026-3-11T11:9:20Z</time></trkpt><trkpt lat="42.2064306695" lon="13.4174020951"><ele>1656.61</ele><time>2026-3-11T11:9:38Z</time></trkpt><trkpt lat="42.2063058814" lon="13.4174727209"><ele>1658.93</ele><time>2026-3-11T11:9:58Z</time></trkpt><trkpt lat="42.2061725380" lon="13.4174747532"><ele>1660.98</ele><time>2026-3-11T11:10:17Z</time></trkpt><trkpt lat="42.2060358863" lon="13.4174552408"><ele>1662.94</ele><time>2026-3-11T11:10:36Z</time></trkpt><trkpt lat="42.2059013107" lon="13.4174405085"><ele>1665.45</ele><time>2026-3-11T11:10:53Z</time></trkpt><trkpt lat="42.2057659132" lon="13.4174196189"><ele>1666.46</ele><time>2026-3-11T11:11:10Z</time></trkpt><trkpt lat="42.2056329210" lon="13.4173751898"><ele>1668.68</ele><time>2026-3-11T11:11:31Z</time></trkpt><trkpt lat="42.2055019392" lon="13.4173305684"><ele>1671.94</ele><time>2026-3-11T11:11:53Z</time></trkpt><trkpt lat="42.2053766681" lon="13.4172855620"><ele>1675.26</ele><time>2026-3-11T11:12:16Z</time></trkpt><trkpt lat="42.2052555188" lon="13.4172102386"><ele>1678.73</ele><time>2026-3-11T11:12:39Z</time></trkpt><trkpt lat="42.2051473847" lon="13.4171571672"><ele>1679.97</ele><time>2026-3-11T11:13:4Z</time></trkpt><trkpt lat="42.2050147805" lon="13.4170871053"><ele>1680.57</ele><time>2026-3-11T11:13:27Z</time></trkpt><trkpt lat="42.2048850483" lon="13.4170385346"><ele>1680.88</ele><time>2026-3-11T11:13:44Z</time></trkpt><trkpt lat="42.2047476985" lon="13.4170185660"><ele>1680.89</ele><time>2026-3-11T11:14:1Z</time></trkpt><trkpt lat="42.2046207235" lon="13.4170631500"><ele>1682.33</ele><time>2026-3-11T11:14:17Z</time></trkpt><trkpt lat="42.2045159916" lon="13.4171460418"><ele>1684.07</ele><time>2026-3-11T11:14:33Z</time></trkpt><trkpt lat="42.2043762309" lon="13.4172110586"><ele>1685.50</ele><time>2026-3-11T11:14:50Z</time></trkpt><trkpt lat="42.2042617268" lon="13.4171868222"><ele>1687.97</ele><time>2026-3-11T11:15:10Z</time></trkpt><trkpt lat="42.2041304988" lon="13.4171562054"><ele>1689.72</ele><time>2026-3-11T11:15:30Z</time></trkpt><trkpt lat="42.2039901484" lon="13.4171528779"><ele>1691.07</ele><time>2026-3-11T11:15:47Z</time></trkpt><trkpt lat="42.2038676064" lon="13.4171818220"><ele>1692.93</ele><time>2026-3-11T11:16:4Z</time></trkpt><trkpt lat="42.2037498406" lon="13.4172668480"><ele>1694.64</ele><time>2026-3-11T11:16:24Z</time></trkpt><trkpt lat="42.2036534920" lon="13.4173910748"><ele>1695.00</ele><time>2026-3-11T11:16:42Z</time></trkpt><trkpt lat="42.2035590035" lon="13.4175228869"><ele>1695.61</ele><time>2026-3-11T11:16:57Z</time></trkpt><trkpt lat="42.2034506276" lon="13.4176221192"><ele>1696.71</ele><time>2026-3-11T11:17:13Z</time></trkpt><trkpt lat="42.2033387743" lon="13.4177193011"><ele>1697.36</ele><time>2026-3-11T11:17:28Z</time></trkpt><trkpt lat="42.2032110760" lon="13.4177822334"><ele>1697.09</ele><time>2026-3-11T11:17:44Z</time></trkpt><trkpt lat="42.2030869767" lon="13.4178280406"><ele>1698.09</ele><time>2026-3-11T11:18:0Z</time></trkpt><trkpt lat="42.2029542377" lon="13.4178521657"><ele>1699.93</ele><time>2026-3-11T11:18:19Z</time></trkpt><trkpt lat="42.2028052171" lon="13.4178745999"><ele>1700.95</ele><time>2026-3-11T11:18:38Z</time></trkpt><trkpt lat="42.2026884772" lon="13.4178846084"><ele>1701.95</ele><time>2026-3-11T11:18:57Z</time></trkpt><trkpt lat="42.2025435511" lon="13.4179462306"><ele>1702.76</ele><time>2026-3-11T11:19:17Z</time></trkpt><trkpt lat="42.2024402714" lon="13.4180243936"><ele>1704.83</ele><time>2026-3-11T11:20:2Z</time></trkpt><trkpt lat="42.2024123902" lon="13.4180497153"><ele>1705.26</ele><time>2026-3-11T11:21:46Z</time></trkpt><trkpt lat="42.2023510225" lon="13.4180633132"><ele>1705.78</ele><time>2026-3-11T11:23:4Z</time></trkpt><trkpt lat="42.2022090107" lon="13.4180731326"><ele>1707.44</ele><time>2026-3-11T11:23:23Z</time></trkpt><trkpt lat="42.2020769284" lon="13.4180647113"><ele>1709.59</ele><time>2026-3-11T11:23:41Z</time></trkpt><trkpt lat="42.2019424895" lon="13.4180703014"><ele>1711.42</ele><time>2026-3-11T11:23:58Z</time></trkpt><trkpt lat="42.2018178930" lon="13.4180184728"><ele>1713.08</ele><time>2026-3-11T11:24:16Z</time></trkpt><trkpt lat="42.2016796935" lon="13.4179817047"><ele>1713.58</ele><time>2026-3-11T11:24:33Z</time></trkpt><trkpt lat="42.2015458110" lon="13.4179787568"><ele>1713.85</ele><time>2026-3-11T11:24:52Z</time></trkpt><trkpt lat="42.2014081925" lon="13.4179297853"><ele>1713.48</ele><time>2026-3-11T11:25:9Z</time></trkpt><trkpt lat="42.2012809856" lon="13.4178561252"><ele>1712.44</ele><time>2026-3-11T11:25:24Z</time></trkpt><trkpt lat="42.2011649825" lon="13.4177698639"><ele>1712.11</ele><time>2026-3-11T11:25:43Z</time></trkpt><trkpt lat="42.2010441138" lon="13.4176973480"><ele>1712.35</ele><time>2026-3-11T11:26:1Z</time></trkpt><trkpt lat="42.2009227991" lon="13.4176115283"><ele>1712.30</ele><time>2026-3-11T11:26:15Z</time></trkpt><trkpt lat="42.2008179715" lon="13.4175141336"><ele>1711.95</ele><time>2026-3-11T11:26:30Z</time></trkpt><trkpt lat="42.2007109511" lon="13.4173882473"><ele>1712.05</ele><time>2026-3-11T11:26:45Z</time></trkpt><trkpt lat="42.2006054688" lon="13.4172807541"><ele>1712.33</ele><time>2026-3-11T11:27:1Z</time></trkpt><trkpt lat="42.2004997765" lon="13.4171657392"><ele>1713.13</ele><time>2026-3-11T11:27:18Z</time></trkpt><trkpt lat="42.2004005080" lon="13.4170423681"><ele>1713.78</ele><time>2026-3-11T11:27:35Z</time></trkpt><trkpt lat="42.2003137140" lon="13.4169104736"><ele>1715.06</ele><time>2026-3-11T11:27:52Z</time></trkpt><trkpt lat="42.2002187396" lon="13.4167866120"><ele>1716.20</ele><time>2026-3-11T11:28:10Z</time></trkpt><trkpt lat="42.2001158583" lon="13.4166728607"><ele>1716.80</ele><time>2026-3-11T11:28:29Z</time></trkpt><trkpt lat="42.2000222104" lon="13.4165398840"><ele>1718.94</ele><time>2026-3-11T11:28:48Z</time></trkpt><trkpt lat="42.1999231285" lon="13.4164273204"><ele>1720.87</ele><time>2026-3-11T11:29:9Z</time></trkpt><trkpt lat="42.1998318436" lon="13.4162899700"><ele>1723.76</ele><time>2026-3-11T11:29:32Z</time></trkpt><trkpt lat="42.1997374819" lon="13.4161680872"><ele>1726.35</ele><time>2026-3-11T11:29:51Z</time></trkpt><trkpt lat="42.1996298913" lon="13.4160594273"><ele>1729.07</ele><time>2026-3-11T11:30:10Z</time></trkpt><trkpt lat="42.1995499404" lon="13.4159179963"><ele>1731.80</ele><time>2026-3-11T11:30:31Z</time></trkpt><trkpt lat="42.1995039564" lon="13.4157692781"><ele>1734.01</ele><time>2026-3-11T11:30:49Z</time></trkpt><trkpt lat="42.1994342185" lon="13.4155964860"><ele>1736.50</ele><time>2026-3-11T11:31:9Z</time></trkpt><trkpt lat="42.1993624279" lon="13.4154807031"><ele>1738.58</ele><time>2026-3-11T11:31:29Z</time></trkpt><trkpt lat="42.1992756897" lon="13.4153347272"><ele>1740.68</ele><time>2026-3-11T11:31:48Z</time></trkpt><trkpt lat="42.1991827962" lon="13.4152247000"><ele>1742.44</ele><time>2026-3-11T11:32:6Z</time></trkpt><trkpt lat="42.1990858253" lon="13.4150555760"><ele>1744.52</ele><time>2026-3-11T11:32:48Z</time></trkpt><trkpt lat="42.1990588820" lon="13.4149637818"><ele>1745.26</ele><time>2026-3-11T11:33:31Z</time></trkpt><trkpt lat="42.1990051032" lon="13.4148045181"><ele>1747.34</ele><time>2026-3-11T11:33:51Z</time></trkpt><trkpt lat="42.1989108715" lon="13.4146657764"><ele>1750.30</ele><time>2026-3-11T11:34:36Z</time></trkpt><trkpt lat="42.1988313342" lon="13.4145795135"><ele>1752.66</ele><time>2026-3-11T11:35:21Z</time></trkpt><trkpt lat="42.1987303845" lon="13.4144490738"><ele>1755.44</ele><time>2026-3-11T11:35:42Z</time></trkpt><trkpt lat="42.1986107550" lon="13.4143671777"><ele>1757.52</ele><time>2026-3-11T11:35:59Z</time></trkpt><trkpt lat="42.1984847620" lon="13.4143058951"><ele>1759.25</ele><time>2026-3-11T11:36:17Z</time></trkpt><trkpt lat="42.1984154234" lon="13.4142313300"><ele>1761.11</ele><time>2026-3-11T11:37:20Z</time></trkpt><trkpt lat="42.1984117006" lon="13.4142162503"><ele>1761.65</ele><time>2026-3-11T11:39:48Z</time></trkpt><trkpt lat="42.1983931731" lon="13.4142021337"><ele>1761.75</ele><time>2026-3-11T11:41:52Z</time></trkpt><trkpt lat="42.1982879075" lon="13.4140397713"><ele>1763.05</ele><time>2026-3-11T11:42:30Z</time></trkpt><trkpt lat="42.1982027983" lon="13.4139065784"><ele>1764.40</ele><time>2026-3-11T11:42:45Z</time></trkpt><trkpt lat="42.1980791353" lon="13.4138303585"><ele>1765.38</ele><time>2026-3-11T11:43:0Z</time></trkpt><trkpt lat="42.1979770996" lon="13.4137245119"><ele>1766.83</ele><time>2026-3-11T11:43:15Z</time></trkpt><trkpt lat="42.1979370494" lon="13.4136511954"><ele>1768.78</ele><time>2026-3-11T11:43:52Z</time></trkpt><trkpt lat="42.1978824567" lon="13.4134514071"><ele>1771.12</ele><time>2026-3-11T11:44:30Z</time></trkpt><trkpt lat="42.1978488784" lon="13.4132984893"><ele>1773.35</ele><time>2026-3-11T11:44:44Z</time></trkpt><trkpt lat="42.1977707199" lon="13.4131563340"><ele>1774.14</ele><time>2026-3-11T11:44:58Z</time></trkpt><trkpt lat="42.1976605500" lon="13.4130541398"><ele>1775.04</ele><time>2026-3-11T11:45:10Z</time></trkpt><trkpt lat="42.1975387112" lon="13.4129594840"><ele>1778.15</ele><time>2026-3-11T11:45:41Z</time></trkpt><trkpt lat="42.1975340811" lon="13.4129609108"><ele>1777.10</ele><time>2026-3-11T11:49:23Z</time></trkpt><trkpt lat="42.1975193222" lon="13.4129456397"><ele>1776.22</ele><time>2026-3-11T11:53:10Z</time></trkpt><trkpt lat="42.1974042701" lon="13.4128540378"><ele>1776.53</ele><time>2026-3-11T11:53:50Z</time></trkpt><trkpt lat="42.1972716872" lon="13.4127590769"><ele>1776.45</ele><time>2026-3-11T11:54:8Z</time></trkpt><trkpt lat="42.1971513037" lon="13.4126832787"><ele>1775.59</ele><time>2026-3-11T11:54:21Z</time></trkpt><trkpt lat="42.1970271150" lon="13.4126115607"><ele>1773.72</ele><time>2026-3-11T11:54:33Z</time></trkpt><trkpt lat="42.1969253178" lon="13.4125137736"><ele>1772.46</ele><time>2026-3-11T11:54:48Z</time></trkpt><trkpt lat="42.1968356261" lon="13.4123743126"><ele>1771.65</ele><time>2026-3-11T11:55:4Z</time></trkpt><trkpt lat="42.1967674319" lon="13.4122228931"><ele>1771.44</ele><time>2026-3-11T11:55:18Z</time></trkpt><trkpt lat="42.1967036597" lon="13.4120618989"><ele>1771.69</ele><time>2026-3-11T11:55:32Z</time></trkpt><trkpt lat="42.1966294013" lon="13.4119099515"><ele>1771.73</ele><time>2026-3-11T11:55:47Z</time></trkpt><trkpt lat="42.1965882772" lon="13.4117944197"><ele>1772.39</ele><time>2026-3-11T11:56:7Z</time></trkpt><trkpt lat="42.1965095102" lon="13.4116166065"><ele>1772.39</ele><time>2026-3-11T11:56:27Z</time></trkpt><trkpt lat="42.1964383934" lon="13.4114634834"><ele>1772.86</ele><time>2026-3-11T11:56:42Z</time></trkpt><trkpt lat="42.1963885630" lon="13.4112897579"><ele>1773.48</ele><time>2026-3-11T11:56:58Z</time></trkpt><trkpt lat="42.1963397699" lon="13.4111279715"><ele>1774.25</ele><time>2026-3-11T11:57:14Z</time></trkpt><trkpt lat="42.1962992437" lon="13.4109626692"><ele>1774.84</ele><time>2026-3-11T11:57:30Z</time></trkpt><trkpt lat="42.1962562045" lon="13.4108029731"><ele>1775.98</ele><time>2026-3-11T11:57:54Z</time></trkpt><trkpt lat="42.1961928456" lon="13.4106507688"><ele>1775.86</ele><time>2026-3-11T11:58:19Z</time></trkpt><trkpt lat="42.1961266390" lon="13.4104969504"><ele>1776.44</ele><time>2026-3-11T11:58:35Z</time></trkpt><trkpt lat="42.1960692230" lon="13.4103365207"><ele>1776.99</ele><time>2026-3-11T11:58:51Z</time></trkpt><trkpt lat="42.1960050892" lon="13.4101721775"><ele>1777.69</ele><time>2026-3-11T11:59:7Z</time></trkpt><trkpt lat="42.1959394671" lon="13.4100125522"><ele>1777.99</ele><time>2026-3-11T11:59:23Z</time></trkpt><trkpt lat="42.1958713587" lon="13.4098528717"><ele>1779.03</ele><time>2026-3-11T11:59:39Z</time></trkpt><trkpt lat="42.1958163958" lon="13.4096929841"><ele>1780.01</ele><time>2026-3-11T11:59:54Z</time></trkpt><trkpt lat="42.1957781719" lon="13.4095180332"><ele>1780.69</ele><time>2026-3-11T12:0:9Z</time></trkpt><trkpt lat="42.1957259800" lon="13.4093576445"><ele>1781.68</ele><time>2026-3-11T12:0:26Z</time></trkpt><trkpt lat="42.1956528886" lon="13.4091895057"><ele>1784.10</ele><time>2026-3-11T12:1:16Z</time></trkpt><trkpt lat="42.1956529320" lon="13.4092037308"><ele>1783.63</ele><time>2026-3-11T12:8:8Z</time></trkpt><trkpt lat="42.1956525121" lon="13.4091822271"><ele>1783.80</ele><time>2026-3-11T12:15:4Z</time></trkpt><trkpt lat="42.1955832739" lon="13.4090748542"><ele>1783.54</ele><time>2026-3-11T12:15:57Z</time></trkpt><trkpt lat="42.1955209185" lon="13.4089206871"><ele>1784.52</ele><time>2026-3-11T12:16:11Z</time></trkpt><trkpt lat="42.1954459324" lon="13.4087657067"><ele>1784.49</ele><time>2026-3-11T12:16:24Z</time></trkpt><trkpt lat="42.1953770779" lon="13.4086156525"><ele>1784.74</ele><time>2026-3-11T12:16:38Z</time></trkpt><trkpt lat="42.1953086369" lon="13.4084589556"><ele>1785.07</ele><time>2026-3-11T12:16:53Z</time></trkpt><trkpt lat="42.1952402093" lon="13.4083124310"><ele>1785.70</ele><time>2026-3-11T12:17:9Z</time></trkpt><trkpt lat="42.1951680305" lon="13.4081837218"><ele>1786.72</ele><time>2026-3-11T12:17:32Z</time></trkpt><trkpt lat="42.1950900105" lon="13.4080308188"><ele>1787.06</ele><time>2026-3-11T12:17:56Z</time></trkpt><trkpt lat="42.1950237954" lon="13.4078750754"><ele>1787.96</ele><time>2026-3-11T12:18:12Z</time></trkpt><trkpt lat="42.1949365083" lon="13.4077266162"><ele>1788.51</ele><time>2026-3-11T12:18:28Z</time></trkpt><trkpt lat="42.1948553715" lon="13.4075857233"><ele>1788.77</ele><time>2026-3-11T12:18:45Z</time></trkpt><trkpt lat="42.1947804708" lon="13.4074440021"><ele>1789.29</ele><time>2026-3-11T12:19:2Z</time></trkpt><trkpt lat="42.1946887309" lon="13.4072966371"><ele>1789.48</ele><time>2026-3-11T12:19:19Z</time></trkpt><trkpt lat="42.1946671140" lon="13.4072555043"><ele>1790.79</ele><time>2026-3-11T12:19:53Z</time></trkpt><trkpt lat="42.1946354423" lon="13.4071455317"><ele>1789.73</ele><time>2026-3-11T12:20:24Z</time></trkpt><trkpt lat="42.1945596213" lon="13.4069943469"><ele>1789.94</ele><time>2026-3-11T12:20:39Z</time></trkpt><trkpt lat="42.1944825602" lon="13.4068524936"><ele>1790.38</ele><time>2026-3-11T12:20:55Z</time></trkpt><trkpt lat="42.1943868351" lon="13.4067183181"><ele>1790.52</ele><time>2026-3-11T12:21:10Z</time></trkpt><trkpt lat="42.1942972260" lon="13.4065754895"><ele>1791.11</ele><time>2026-3-11T12:21:33Z</time></trkpt><trkpt lat="42.1942326553" lon="13.4064663908"><ele>1791.36</ele><time>2026-3-11T12:21:57Z</time></trkpt><trkpt lat="42.1941577289" lon="13.4063229170"><ele>1792.31</ele><time>2026-3-11T12:22:13Z</time></trkpt><trkpt lat="42.1940717753" lon="13.4061726509"><ele>1794.21</ele><time>2026-3-11T12:22:29Z</time></trkpt><trkpt lat="42.1940021962" lon="13.4060304426"><ele>1796.50</ele><time>2026-3-11T12:22:47Z</time></trkpt><trkpt lat="42.1939127101" lon="13.4058839828"><ele>1798.38</ele><time>2026-3-11T12:23:5Z</time></trkpt><trkpt lat="42.1938299976" lon="13.4057623538"><ele>1800.44</ele><time>2026-3-11T12:23:22Z</time></trkpt><trkpt lat="42.1937432239" lon="13.4056175983"><ele>1802.06</ele><time>2026-3-11T12:23:38Z</time></trkpt><trkpt lat="42.1936507177" lon="13.4054882381"><ele>1804.08</ele><time>2026-3-11T12:23:59Z</time></trkpt><trkpt lat="42.1935800440" lon="13.4054145855"><ele>1805.30</ele><time>2026-3-11T12:24:21Z</time></trkpt><trkpt lat="42.1935199843" lon="13.4052811882"><ele>1805.79</ele><time>2026-3-11T12:24:41Z</time></trkpt><trkpt lat="42.1934973033" lon="13.4051368270"><ele>1806.83</ele><time>2026-3-11T12:25:23Z</time></trkpt><trkpt lat="42.1934594912" lon="13.4049803275"><ele>1806.65</ele><time>2026-3-11T12:26:3Z</time></trkpt><trkpt lat="42.1934028961" lon="13.4048260080"><ele>1806.97</ele><time>2026-3-11T12:26:20Z</time></trkpt><trkpt lat="42.1933292587" lon="13.4046704350"><ele>1807.76</ele><time>2026-3-11T12:26:37Z</time></trkpt><trkpt lat="42.1932914131" lon="13.4045038267"><ele>1808.91</ele><time>2026-3-11T12:26:53Z</time></trkpt><trkpt lat="42.1932694456" lon="13.4043324832"><ele>1809.76</ele><time>2026-3-11T12:27:10Z</time></trkpt><trkpt lat="42.1932432465" lon="13.4041474555"><ele>1810.26</ele><time>2026-3-11T12:27:27Z</time></trkpt><trkpt lat="42.1932461252" lon="13.4039705480"><ele>1810.98</ele><time>2026-3-11T12:27:43Z</time></trkpt><trkpt lat="42.1932641091" lon="13.4037962044"><ele>1812.72</ele><time>2026-3-11T12:28:1Z</time></trkpt><trkpt lat="42.1932327493" lon="13.4036342948"><ele>1814.03</ele><time>2026-3-11T12:28:21Z</time></trkpt><trkpt lat="42.1931544412" lon="13.4034792380"><ele>1814.61</ele><time>2026-3-11T12:28:41Z</time></trkpt><trkpt lat="42.1930749714" lon="13.4033267014"><ele>1815.74</ele><time>2026-3-11T12:28:59Z</time></trkpt><trkpt lat="42.1930124005" lon="13.4031900403"><ele>1817.54</ele><time>2026-3-11T12:29:20Z</time></trkpt><trkpt lat="42.1929389684" lon="13.4030285737"><ele>1819.47</ele><time>2026-3-11T12:29:42Z</time></trkpt><trkpt lat="42.1928531150" lon="13.4028943148"><ele>1821.30</ele><time>2026-3-11T12:30:1Z</time></trkpt><trkpt lat="42.1927685423" lon="13.4027565898"><ele>1823.08</ele><time>2026-3-11T12:30:21Z</time></trkpt><trkpt lat="42.1926899906" lon="13.4026072600"><ele>1825.09</ele><time>2026-3-11T12:30:41Z</time></trkpt><trkpt lat="42.1926260316" lon="13.4024907759"><ele>1827.01</ele><time>2026-3-11T12:31:8Z</time></trkpt><trkpt lat="42.1925442168" lon="13.4023280670"><ele>1829.62</ele><time>2026-3-11T12:31:34Z</time></trkpt><trkpt lat="42.1925041312" lon="13.4021573886"><ele>1831.07</ele><time>2026-3-11T12:31:53Z</time></trkpt><trkpt lat="42.1924585222" lon="13.4019842768"><ele>1832.82</ele><time>2026-3-11T12:32:12Z</time></trkpt><trkpt lat="42.1923770355" lon="13.4018179485"><ele>1835.26</ele><time>2026-3-11T12:32:36Z</time></trkpt><trkpt lat="42.1923018163" lon="13.4016867410"><ele>1837.52</ele><time>2026-3-11T12:33:6Z</time></trkpt><trkpt lat="42.1922465600" lon="13.4015942791"><ele>1838.36</ele><time>2026-3-11T12:33:32Z</time></trkpt><trkpt lat="42.1921524636" lon="13.4014522069"><ele>1839.77</ele><time>2026-3-11T12:33:52Z</time></trkpt><trkpt lat="42.1920681108" lon="13.4013052059"><ele>1842.05</ele><time>2026-3-11T12:34:11Z</time></trkpt><trkpt lat="42.1920039681" lon="13.4011762421"><ele>1844.71</ele><time>2026-3-11T12:34:39Z</time></trkpt><trkpt lat="42.1919451968" lon="13.4010231019"><ele>1846.34</ele><time>2026-3-11T12:35:7Z</time></trkpt><trkpt lat="42.1918776090" lon="13.4008657026"><ele>1848.17</ele><time>2026-3-11T12:35:27Z</time></trkpt><trkpt lat="42.1918142530" lon="13.4007051332"><ele>1851.20</ele><time>2026-3-11T12:35:50Z</time></trkpt><trkpt lat="42.1917575587" lon="13.4005453932"><ele>1855.02</ele><time>2026-3-11T12:36:14Z</time></trkpt><trkpt lat="42.1917270552" lon="13.4003958190"><ele>1858.36</ele><time>2026-3-11T12:36:42Z</time></trkpt><trkpt lat="42.1916829422" lon="13.4002437000"><ele>1860.69</ele><time>2026-3-11T12:37:15Z</time></trkpt><trkpt lat="42.1915968114" lon="13.4000839187"><ele>1862.81</ele><time>2026-3-11T12:37:44Z</time></trkpt><trkpt lat="42.1914827580" lon="13.3999712737"><ele>1867.45</ele><time>2026-3-11T12:38:15Z</time></trkpt><trkpt lat="42.1914132232" lon="13.3998619113"><ele>1870.27</ele><time>2026-3-11T12:38:45Z</time></trkpt><trkpt lat="42.1912873485" lon="13.3997376559"><ele>1872.71</ele><time>2026-3-11T12:39:10Z</time></trkpt><trkpt lat="42.1912197436" lon="13.3996713130"><ele>1874.38</ele><time>2026-3-11T12:40:14Z</time></trkpt><trkpt lat="42.1911339199" lon="13.3995708062"><ele>1874.40</ele><time>2026-3-11T12:41:13Z</time></trkpt><trkpt lat="42.1910286284" lon="13.3994605595"><ele>1874.19</ele><time>2026-3-11T12:41:30Z</time></trkpt><trkpt lat="42.1909171343" lon="13.3993660659"><ele>1873.60</ele><time>2026-3-11T12:41:47Z</time></trkpt><trkpt lat="42.1907959418" lon="13.3992722970"><ele>1872.80</ele><time>2026-3-11T12:42:4Z</time></trkpt><trkpt lat="42.1906873724" lon="13.3991736360"><ele>1872.32</ele><time>2026-3-11T12:42:21Z</time></trkpt><trkpt lat="42.1905854315" lon="13.3990569104"><ele>1872.29</ele><time>2026-3-11T12:42:40Z</time></trkpt><trkpt lat="42.1904710587" lon="13.3989699232"><ele>1873.00</ele><time>2026-3-11T12:42:58Z</time></trkpt><trkpt lat="42.1903624444" lon="13.3988990623"><ele>1874.48</ele><time>2026-3-11T12:43:40Z</time></trkpt><trkpt lat="42.1902870826" lon="13.3987630997"><ele>1875.50</ele><time>2026-3-11T12:44:23Z</time></trkpt><trkpt lat="42.1902084772" lon="13.3986245298"><ele>1878.10</ele><time>2026-3-11T12:44:45Z</time></trkpt><trkpt lat="42.1901245061" lon="13.3984863980"><ele>1881.66</ele><time>2026-3-11T12:45:9Z</time></trkpt><trkpt lat="42.1900458967" lon="13.3983348371"><ele>1885.67</ele><time>2026-3-11T12:45:35Z</time></trkpt><trkpt lat="42.1899868599" lon="13.3982239918"><ele>1889.28</ele><time>2026-3-11T12:46:7Z</time></trkpt><trkpt lat="42.1899008520" lon="13.3980400119"><ele>1892.31</ele><time>2026-3-11T12:46:39Z</time></trkpt><trkpt lat="42.1898701787" lon="13.3979424616"><ele>1894.89</ele><time>2026-3-11T12:47:26Z</time></trkpt><trkpt lat="42.1898062606" lon="13.3977890527"><ele>1897.27</ele><time>2026-3-11T12:48:23Z</time></trkpt><trkpt lat="42.1897330123" lon="13.3976309490"><ele>1899.07</ele><time>2026-3-11T12:48:54Z</time></trkpt><trkpt lat="42.1896615731" lon="13.3974857775"><ele>1900.99</ele><time>2026-3-11T12:49:13Z</time></trkpt><trkpt lat="42.1895916872" lon="13.3973270170"><ele>1902.94</ele><time>2026-3-11T12:49:33Z</time></trkpt><trkpt lat="42.1895056684" lon="13.3971935185"><ele>1904.77</ele><time>2026-3-11T12:49:52Z</time></trkpt><trkpt lat="42.1894127860" lon="13.3970595570"><ele>1907.37</ele><time>2026-3-11T12:50:28Z</time></trkpt><trkpt lat="42.1893138929" lon="13.3969354284"><ele>1908.23</ele><time>2026-3-11T12:51:16Z</time></trkpt><trkpt lat="42.1892685347" lon="13.3969052574"><ele>1908.80</ele><time>2026-3-11T12:51:53Z</time></trkpt><trkpt lat="42.1890949460" lon="13.3968026233"><ele>1910.74</ele><time>2026-3-11T12:53:7Z</time></trkpt><trkpt lat="42.1890293411" lon="13.3967551952"><ele>1911.63</ele><time>2026-3-11T12:54:14Z</time></trkpt><trkpt lat="42.1889104187" lon="13.3967747879"><ele>1914.21</ele><time>2026-3-11T12:54:34Z</time></trkpt><trkpt lat="42.1888030545" lon="13.3968366056"><ele>1916.04</ele><time>2026-3-11T12:55:6Z</time></trkpt><trkpt lat="42.1886772645" lon="13.3968555916"><ele>1914.79</ele><time>2026-3-11T12:55:36Z</time></trkpt><trkpt lat="42.1885296749" lon="13.3968446637"><ele>1912.48</ele><time>2026-3-11T12:55:51Z</time></trkpt><trkpt lat="42.1884011923" lon="13.3967819730"><ele>1910.78</ele><time>2026-3-11T12:56:5Z</time></trkpt><trkpt lat="42.1882970299" lon="13.3966682665"><ele>1909.67</ele><time>2026-3-11T12:56:20Z</time></trkpt><trkpt lat="42.1881954958" lon="13.3965439974"><ele>1909.82</ele><time>2026-3-11T12:56:37Z</time></trkpt><trkpt lat="42.1881062817" lon="13.3964073146"><ele>1910.43</ele><time>2026-3-11T12:56:54Z</time></trkpt><trkpt lat="42.1880112476" lon="13.3963116077"><ele>1911.62</ele><time>2026-3-11T12:57:13Z</time></trkpt><trkpt lat="42.1878990850" lon="13.3962823798"><ele>1914.43</ele><time>2026-3-11T12:57:35Z</time></trkpt><trkpt lat="42.1878559904" lon="13.3961204217"><ele>1917.65</ele><time>2026-3-11T12:58:0Z</time></trkpt><trkpt lat="42.1878179080" lon="13.3959770831"><ele>1921.03</ele><time>2026-3-11T12:58:33Z</time></trkpt><trkpt lat="42.1877129575" lon="13.3958512291"><ele>1924.00</ele><time>2026-3-11T12:59:5Z</time></trkpt><trkpt lat="42.1875829367" lon="13.3958033776"><ele>1926.63</ele><time>2026-3-11T12:59:26Z</time></trkpt><trkpt lat="42.1874492454" lon="13.3957909018"><ele>1926.31</ele><time>2026-3-11T12:59:45Z</time></trkpt><trkpt lat="42.1873132019" lon="13.3957921210"><ele>1925.09</ele><time>2026-3-11T13:0:3Z</time></trkpt><trkpt lat="42.1871780962" lon="13.3957885664"><ele>1923.37</ele><time>2026-3-11T13:0:18Z</time></trkpt><trkpt lat="42.1870303467" lon="13.3956942551"><ele>1920.95</ele><time>2026-3-11T13:0:35Z</time></trkpt><trkpt lat="42.1869487269" lon="13.3956283238"><ele>1920.60</ele><time>2026-3-11T13:0:55Z</time></trkpt><trkpt lat="42.1868284335" lon="13.3955488256"><ele>1921.95</ele><time>2026-3-11T13:1:14Z</time></trkpt><trkpt lat="42.1867094309" lon="13.3954698579"><ele>1924.88</ele><time>2026-3-11T13:1:35Z</time></trkpt><trkpt lat="42.1865925165" lon="13.3953900849"><ele>1927.49</ele><time>2026-3-11T13:1:55Z</time></trkpt><trkpt lat="42.1864577606" lon="13.3953604940"><ele>1928.13</ele><time>2026-3-11T13:2:13Z</time></trkpt><trkpt lat="42.1863224757" lon="13.3953530325"><ele>1927.45</ele><time>2026-3-11T13:2:29Z</time></trkpt><trkpt lat="42.1861994830" lon="13.3952897292"><ele>1928.66</ele><time>2026-3-11T13:2:48Z</time></trkpt><trkpt lat="42.1860886590" lon="13.3951998180"><ele>1932.48</ele><time>2026-3-11T13:3:10Z</time></trkpt><trkpt lat="42.1859660359" lon="13.3951203445"><ele>1935.70</ele><time>2026-3-11T13:3:32Z</time></trkpt><trkpt lat="42.1858479772" lon="13.3950492349"><ele>1936.65</ele><time>2026-3-11T13:3:50Z</time></trkpt><trkpt lat="42.1857149117" lon="13.3949847110"><ele>1936.16</ele><time>2026-3-11T13:4:5Z</time></trkpt><trkpt lat="42.1856018664" lon="13.3948896138"><ele>1934.89</ele><time>2026-3-11T13:4:19Z</time></trkpt><trkpt lat="42.1854898258" lon="13.3947921399"><ele>1933.64</ele><time>2026-3-11T13:4:33Z</time></trkpt><trkpt lat="42.1853836114" lon="13.3946848672"><ele>1933.71</ele><time>2026-3-11T13:4:49Z</time></trkpt><trkpt lat="42.1852388159" lon="13.3945866041"><ele>1933.35</ele><time>2026-3-11T13:5:20Z</time></trkpt><trkpt lat="42.1851611556" lon="13.3945430578"><ele>1934.46</ele><time>2026-3-11T13:5:53Z</time></trkpt><trkpt lat="42.1850421546" lon="13.3944729104"><ele>1936.92</ele><time>2026-3-11T13:6:15Z</time></trkpt><trkpt lat="42.1849163203" lon="13.3944178964"><ele>1938.50</ele><time>2026-3-11T13:6:38Z</time></trkpt><trkpt lat="42.1847898986" lon="13.3943752035"><ele>1940.65</ele><time>2026-3-11T13:7:4Z</time></trkpt><trkpt lat="42.1846866080" lon="13.3942591772"><ele>1943.70</ele><time>2026-3-11T13:7:31Z</time></trkpt><trkpt lat="42.1846127179" lon="13.3941148306"><ele>1947.56</ele><time>2026-3-11T13:8:1Z</time></trkpt><trkpt lat="42.1845359721" lon="13.3939871987"><ele>1952.12</ele><time>2026-3-11T13:8:38Z</time></trkpt><trkpt lat="42.1844345661" lon="13.3940546021"><ele>1955.46</ele><time>2026-3-11T13:9:36Z</time></trkpt><trkpt lat="42.1843503811" lon="13.3941462671"><ele>1956.08</ele><time>2026-3-11T13:10:27Z</time></trkpt><trkpt lat="42.1842534808" lon="13.3942511077"><ele>1959.67</ele><time>2026-3-11T13:10:54Z</time></trkpt><trkpt lat="42.1841713726" lon="13.3943921128"><ele>1963.70</ele><time>2026-3-11T13:11:22Z</time></trkpt><trkpt lat="42.1840747937" lon="13.3945192202"><ele>1967.93</ele><time>2026-3-11T13:11:53Z</time></trkpt><trkpt lat="42.1839902788" lon="13.3944910048"><ele>1971.76</ele><time>2026-3-11T13:12:52Z</time></trkpt><trkpt lat="42.1839114907" lon="13.3944380726"><ele>1973.44</ele><time>2026-3-11T13:13:47Z</time></trkpt><trkpt lat="42.1837878614" lon="13.3943934105"><ele>1977.81</ele><time>2026-3-11T13:14:38Z</time></trkpt><trkpt lat="42.1837022874" lon="13.3943730340"><ele>1979.03</ele><time>2026-3-11T13:15:28Z</time></trkpt><trkpt lat="42.1836238727" lon="13.3942286739"><ele>1980.13</ele><time>2026-3-11T13:15:48Z</time></trkpt><trkpt lat="42.1835239499" lon="13.3941121458"><ele>1982.50</ele><time>2026-3-11T13:16:9Z</time></trkpt><trkpt lat="42.1834332742" lon="13.3940156496"><ele>1984.31</ele><time>2026-3-11T13:16:42Z</time></trkpt><trkpt lat="42.1833015550" lon="13.3938988153"><ele>1986.44</ele><time>2026-3-11T13:17:16Z</time></trkpt><trkpt lat="42.1831947402" lon="13.3937962877"><ele>1989.21</ele><time>2026-3-11T13:17:40Z</time></trkpt><trkpt lat="42.1830964989" lon="13.3936822818"><ele>1992.18</ele><time>2026-3-11T13:18:6Z</time></trkpt><trkpt lat="42.1830103987" lon="13.3935393440"><ele>1996.53</ele><time>2026-3-11T13:18:36Z</time></trkpt><trkpt lat="42.1829193737" lon="13.3934094012"><ele>2000.24</ele><time>2026-3-11T13:19:7Z</time></trkpt><trkpt lat="42.1828553143" lon="13.3932611626"><ele>2003.39</ele><time>2026-3-11T13:19:34Z</time></trkpt><trkpt lat="42.1828269213" lon="13.3930865560"><ele>2005.02</ele><time>2026-3-11T13:19:56Z</time></trkpt><trkpt lat="42.1828277847" lon="13.3929056763"><ele>2006.03</ele><time>2026-3-11T13:20:14Z</time></trkpt><trkpt lat="42.1828079724" lon="13.3927086322"><ele>2008.32</ele><time>2026-3-11T13:21:0Z</time></trkpt><trkpt lat="42.1827412038" lon="13.3926145392"><ele>2008.77</ele><time>2026-3-11T13:21:46Z</time></trkpt><trkpt lat="42.1826583503" lon="13.3924659957"><ele>2011.94</ele><time>2026-3-11T13:22:8Z</time></trkpt><trkpt lat="42.1825964609" lon="13.3923102566"><ele>2015.37</ele><time>2026-3-11T13:22:31Z</time></trkpt><trkpt lat="42.1825004121" lon="13.3921943481"><ele>2019.10</ele><time>2026-3-11T13:22:57Z</time></trkpt><trkpt lat="42.1824009553" lon="13.3921206347"><ele>2022.65</ele><time>2026-3-11T13:23:28Z</time></trkpt><trkpt lat="42.1822630610" lon="13.3921461201"><ele>2025.09</ele><time>2026-3-11T13:23:59Z</time></trkpt><trkpt lat="42.1821651701" lon="13.3921749502"><ele>2028.14</ele><time>2026-3-11T13:24:31Z</time></trkpt><trkpt lat="42.1820409655" lon="13.3922854303"><ele>2031.09</ele><time>2026-3-11T13:25:0Z</time></trkpt><trkpt lat="42.1819126478" lon="13.3923355909"><ele>2033.64</ele><time>2026-3-11T13:25:23Z</time></trkpt><trkpt lat="42.1817998309" lon="13.3924163855"><ele>2036.71</ele><time>2026-3-11T13:25:47Z</time></trkpt><trkpt lat="42.1817316690" lon="13.3925736120"><ele>2040.06</ele><time>2026-3-11T13:26:11Z</time></trkpt><trkpt lat="42.1816785157" lon="13.3926739466"><ele>2042.64</ele><time>2026-3-11T13:27:0Z</time></trkpt><trkpt lat="42.1815694313" lon="13.3926349215"><ele>2045.35</ele><time>2026-3-11T13:27:51Z</time></trkpt><trkpt lat="42.1814461168" lon="13.3925851263"><ele>2049.86</ele><time>2026-3-11T13:28:16Z</time></trkpt><trkpt lat="42.1813296494" lon="13.3926817852"><ele>2054.23</ele><time>2026-3-11T13:28:48Z</time></trkpt><trkpt lat="42.1812133321" lon="13.3926692569"><ele>2055.61</ele><time>2026-3-11T13:29:20Z</time></trkpt><trkpt lat="42.1810719384" lon="13.3926597969"><ele>2057.11</ele><time>2026-3-11T13:29:42Z</time></trkpt><trkpt lat="42.1809492270" lon="13.3926126488"><ele>2059.66</ele><time>2026-3-11T13:30:16Z</time></trkpt><trkpt lat="42.1808598381" lon="13.3924904381"><ele>2062.13</ele><time>2026-3-11T13:30:51Z</time></trkpt><trkpt lat="42.1807698213" lon="13.3924077049"><ele>2065.17</ele><time>2026-3-11T13:31:15Z</time></trkpt><trkpt lat="42.1806846520" lon="13.3924858194"><ele>2069.30</ele><time>2026-3-11T13:32:1Z</time></trkpt><trkpt lat="42.1805882415" lon="13.3925034812"><ele>2072.17</ele><time>2026-3-11T13:33:3Z</time></trkpt><trkpt lat="42.1804639523" lon="13.3926469608"><ele>2075.24</ele><time>2026-3-11T13:33:42Z</time></trkpt><trkpt lat="42.1803343110" lon="13.3926363691"><ele>2076.58</ele><time>2026-3-11T13:34:4Z</time></trkpt><trkpt lat="42.1802543262" lon="13.3925844142"><ele>2078.84</ele><time>2026-3-11T13:34:39Z</time></trkpt><trkpt lat="42.1801136093" lon="13.3924862692"><ele>2082.80</ele><time>2026-3-11T13:35:23Z</time></trkpt><trkpt lat="42.1800045920" lon="13.3924045935"><ele>2083.11</ele><time>2026-3-11T13:35:53Z</time></trkpt><trkpt lat="42.1799170015" lon="13.3922639481"><ele>2085.52</ele><time>2026-3-11T13:36:15Z</time></trkpt><trkpt lat="42.1798179150" lon="13.3921409465"><ele>2090.60</ele><time>2026-3-11T13:36:42Z</time></trkpt><trkpt lat="42.1797098685" lon="13.3921231609"><ele>2094.59</ele><time>2026-3-11T13:37:12Z</time></trkpt><trkpt lat="42.1795816189" lon="13.3921846552"><ele>2098.85</ele><time>2026-3-11T13:37:40Z</time></trkpt><trkpt lat="42.1794681069" lon="13.3922540465"><ele>2101.69</ele><time>2026-3-11T13:38:7Z</time></trkpt><trkpt lat="42.1793428611" lon="13.3923120063"><ele>2104.60</ele><time>2026-3-11T13:38:30Z</time></trkpt><trkpt lat="42.1792475680" lon="13.3923871627"><ele>2106.72</ele><time>2026-3-11T13:39:4Z</time></trkpt><trkpt lat="42.1791894879" lon="13.3925462596"><ele>2105.48</ele><time>2026-3-11T13:39:49Z</time></trkpt><trkpt lat="42.1790849883" lon="13.3925384316"><ele>2104.58</ele><time>2026-3-11T13:40:23Z</time></trkpt><trkpt lat="42.1789727789" lon="13.3924546393"><ele>2106.02</ele><time>2026-3-11T13:41:46Z</time></trkpt><trkpt lat="42.1790024247" lon="13.3924576203"><ele>2105.25</ele><time>2026-3-11T13:43:42Z</time></trkpt><trkpt lat="42.1790272553" lon="13.3923730624"><ele>2103.53</ele><time>2026-3-11T13:44:42Z</time></trkpt><trkpt lat="42.1789502583" lon="13.3924592428"><ele>2103.41</ele><time>2026-3-11T13:45:10Z</time></trkpt><trkpt lat="42.1788871317" lon="13.3924786743"><ele>2103.61</ele><time>2026-3-11T13:45:33Z</time></trkpt><trkpt lat="42.1790294330" lon="13.3923638575"><ele>2103.52</ele><time>2026-3-11T13:45:47Z</time></trkpt><trkpt lat="42.1789689763" lon="13.3923189485"><ele>2103.37</ele><time>2026-3-11T13:45:56Z</time></trkpt><trkpt lat="42.1789353333" lon="13.3924514148"><ele>2104.02</ele><time>2026-3-11T13:46:8Z</time></trkpt><trkpt lat="42.1789165240" lon="13.3925534465"><ele>2103.90</ele><time>2026-3-11T13:46:20Z</time></trkpt><trkpt lat="42.1789761654" lon="13.3925526747"><ele>2101.29</ele><time>2026-3-11T13:46:34Z</time></trkpt><trkpt lat="42.1789929301" lon="13.3924538841"><ele>2103.28</ele><time>2026-3-11T13:46:59Z</time></trkpt><trkpt lat="42.1789369256" lon="13.3924402645"><ele>2102.85</ele><time>2026-3-11T13:47:35Z</time></trkpt><trkpt lat="42.1788388444" lon="13.3925201744"><ele>2103.31</ele><time>2026-3-11T13:48:1Z</time></trkpt><trkpt lat="42.1787659321" lon="13.3926531412"><ele>2103.40</ele><time>2026-3-11T13:48:33Z</time></trkpt><trkpt lat="42.1787822791" lon="13.3926437838"><ele>2103.10</ele><time>2026-3-11T13:49:15Z</time></trkpt><trkpt lat="42.1786804624" lon="13.3926736343"><ele>2103.13</ele><time>2026-3-11T13:49:40Z</time></trkpt><trkpt lat="42.1785794199" lon="13.3926652512"><ele>2102.78</ele><time>2026-3-11T13:49:48Z</time></trkpt><trkpt lat="42.1786751598" lon="13.3925301488"><ele>2102.83</ele><time>2026-3-11T13:49:56Z</time></trkpt><trkpt lat="42.1786380652" lon="13.3923802704"><ele>2102.76</ele><time>2026-3-11T13:50:7Z</time></trkpt><trkpt lat="42.1785533841" lon="13.3922553681"><ele>2103.00</ele><time>2026-3-11T13:50:21Z</time></trkpt><trkpt lat="42.1784609661" lon="13.3921954210"><ele>2103.02</ele><time>2026-3-11T13:50:32Z</time></trkpt><trkpt lat="42.1787193697" lon="13.3924065717"><ele>2103.00</ele><time>2026-3-11T13:50:37Z</time></trkpt><trkpt lat="42.1787703088" lon="13.3924234421"><ele>2102.88</ele><time>2026-3-11T13:50:43Z</time></trkpt><trkpt lat="42.1788969089" lon="13.3923355665"><ele>2102.83</ele><time>2026-3-11T13:50:52Z</time></trkpt><trkpt lat="42.1790255671" lon="13.3922879000"><ele>2102.74</ele><time>2026-3-11T13:51:9Z</time></trkpt><trkpt lat="42.1790125780" lon="13.3923910093"><ele>2102.77</ele><time>2026-3-11T13:51:31Z</time></trkpt><trkpt lat="42.1789301161" lon="13.3924949423"><ele>2102.75</ele><time>2026-3-11T13:52:2Z</time></trkpt><trkpt lat="42.1789570901" lon="13.3924565197"><ele>2102.68</ele><time>2026-3-11T13:52:49Z</time></trkpt><trkpt lat="42.1789667482" lon="13.3923586892"><ele>2102.30</ele><time>2026-3-11T13:53:40Z</time></trkpt><trkpt lat="42.1789767779" lon="13.3923500702"><ele>2102.23</ele><time>2026-3-11T13:54:22Z</time></trkpt><trkpt lat="42.1789180990" lon="13.3924496714"><ele>2102.22</ele><time>2026-3-11T13:54:47Z</time></trkpt><trkpt lat="42.1788515178" lon="13.3923977756"><ele>2102.00</ele><time>2026-3-11T13:55:3Z</time></trkpt><trkpt lat="42.1787734288" lon="13.3923734380"><ele>2102.16</ele><time>2026-3-11T13:55:21Z</time></trkpt><trkpt lat="42.1788564243" lon="13.3922845346"><ele>2102.35</ele><time>2026-3-11T13:55:43Z</time></trkpt><trkpt lat="42.1788672531" lon="13.3922792810"><ele>2102.56</ele><time>2026-3-11T13:56:6Z</time></trkpt><trkpt lat="42.1788949003" lon="13.3922365006"><ele>2102.52</ele><time>2026-3-11T13:56:36Z</time></trkpt><trkpt lat="42.1788700005" lon="13.3923194198"><ele>2102.64</ele><time>2026-3-11T13:57:5Z</time></trkpt><trkpt lat="42.1788370684" lon="13.3924449273"><ele>2102.41</ele><time>2026-3-11T13:57:18Z</time></trkpt><trkpt lat="42.1788092153" lon="13.3925113455"><ele>2102.39</ele><time>2026-3-11T13:57:25Z</time></trkpt><trkpt lat="42.1788304658" lon="13.3923839445"><ele>2102.41</ele><time>2026-3-11T13:57:41Z</time></trkpt><trkpt lat="42.1788084414" lon="13.3923597378"><ele>2102.46</ele><time>2026-3-11T13:57:57Z</time></trkpt><trkpt lat="42.1787080960" lon="13.3922720212"><ele>2102.48</ele><time>2026-3-11T13:58:11Z</time></trkpt><trkpt lat="42.1787654841" lon="13.3921288233"><ele>2102.49</ele><time>2026-3-11T13:58:22Z</time></trkpt><trkpt lat="42.1788226347" lon="13.3920110995"><ele>2102.47</ele><time>2026-3-11T13:58:31Z</time></trkpt><trkpt lat="42.1787460242" lon="13.3920326922"><ele>2102.28</ele><time>2026-3-11T13:58:42Z</time></trkpt><trkpt lat="42.1788348910" lon="13.3919043187"><ele>2102.38</ele><time>2026-3-11T13:58:51Z</time></trkpt><trkpt lat="42.1789083670" lon="13.3918312451"><ele>2102.53</ele><time>2026-3-11T13:59:7Z</time></trkpt><trkpt lat="42.1789191703" lon="13.3919080113"><ele>2102.46</ele><time>2026-3-11T13:59:36Z</time></trkpt><trkpt lat="42.1789077887" lon="13.3920180398"><ele>2102.12</ele><time>2026-3-11T14:0:14Z</time></trkpt><trkpt lat="42.1788838646" lon="13.3921215450"><ele>2102.19</ele><time>2026-3-11T14:0:36Z</time></trkpt><trkpt lat="42.1788276244" lon="13.3923075567"><ele>2102.30</ele><time>2026-3-11T14:0:47Z</time></trkpt><trkpt lat="42.1787916401" lon="13.3923850199"><ele>2102.68</ele><time>2026-3-11T14:1:16Z</time></trkpt><trkpt lat="42.1787629702" lon="13.3923992685"><ele>2102.79</ele><time>2026-3-11T14:1:48Z</time></trkpt><trkpt lat="42.1787450183" lon="13.3924842320"><ele>2102.30</ele><time>2026-3-11T14:2:10Z</time></trkpt><trkpt lat="42.1786148474" lon="13.3925412828"><ele>2102.20</ele><time>2026-3-11T14:2:23Z</time></trkpt><trkpt lat="42.1785670090" lon="13.3926561065"><ele>2102.21</ele><time>2026-3-11T14:2:34Z</time></trkpt><trkpt lat="42.1785349958" lon="13.3926024428"><ele>2102.28</ele><time>2026-3-11T14:2:47Z</time></trkpt><trkpt lat="42.1784161963" lon="13.3925827174"><ele>2102.50</ele><time>2026-3-11T14:2:56Z</time></trkpt><trkpt lat="42.1783617837" lon="13.3924815687"><ele>2102.62</ele><time>2026-3-11T14:3:5Z</time></trkpt><trkpt lat="42.1782531124" lon="13.3924291749"><ele>2102.40</ele><time>2026-3-11T14:3:14Z</time></trkpt><trkpt lat="42.1781075187" lon="13.3924437733"><ele>2102.40</ele><time>2026-3-11T14:3:20Z</time></trkpt><trkpt lat="42.1779761044" lon="13.3924499340"><ele>2102.45</ele><time>2026-3-11T14:3:26Z</time></trkpt><trkpt lat="42.1778503220" lon="13.3924487207"><ele>2102.70</ele><time>2026-3-11T14:3:33Z</time></trkpt><trkpt lat="42.1777181993" lon="13.3924471401"><ele>2102.81</ele><time>2026-3-11T14:3:40Z</time></trkpt><trkpt lat="42.1775848791" lon="13.3924455715"><ele>2102.89</ele><time>2026-3-11T14:3:47Z</time></trkpt><trkpt lat="42.1773979660" lon="13.3924433329"><ele>2103.24</ele><time>2026-3-11T14:4:41Z</time></trkpt><trkpt lat="42.1789932065" lon="13.3924774826"><ele>2102.79</ele><time>2026-3-11T14:5:36Z</time></trkpt><trkpt lat="42.1790023294" lon="13.3924358511"><ele>2102.91</ele><time>2026-3-11T14:6:9Z</time></trkpt><trkpt lat="42.1790083765" lon="13.3924200555"><ele>2103.29</ele><time>2026-3-11T14:7:49Z</time></trkpt><trkpt lat="42.1790072580" lon="13.3923983488"><ele>2103.88</ele><time>2026-3-11T14:9:17Z</time></trkpt><trkpt lat="42.1790752485" lon="13.3922943003"><ele>2103.81</ele><time>2026-3-11T14:9:46Z</time></trkpt><trkpt lat="42.1791235902" lon="13.3921974690"><ele>2103.39</ele><time>2026-3-11T14:10:2Z</time></trkpt><trkpt lat="42.1790891546" lon="13.3922906721"><ele>2103.93</ele><time>2026-3-11T14:10:25Z</time></trkpt><trkpt lat="42.1790210367" lon="13.3924459507"><ele>2104.52</ele><time>2026-3-11T14:11:1Z</time></trkpt><trkpt lat="42.1790007883" lon="13.3924732535"><ele>2105.15</ele><time>2026-3-11T14:12:32Z</time></trkpt><trkpt lat="42.1790106219" lon="13.3924736690"><ele>2105.23</ele><time>2026-3-11T14:15:24Z</time></trkpt><trkpt lat="42.1790148047" lon="13.3924643772"><ele>2105.14</ele><time>2026-3-11T14:18:11Z</time></trkpt><trkpt lat="42.1790108444" lon="13.3924646978"><ele>2105.41</ele><time>2026-3-11T14:20:40Z</time></trkpt><trkpt lat="42.1789994658" lon="13.3923315980"><ele>2105.58</ele><time>2026-3-11T14:22:17Z</time></trkpt><trkpt lat="42.1790605790" lon="13.3921986406"><ele>2105.13</ele><time>2026-3-11T14:22:41Z</time></trkpt><trkpt lat="42.1791509539" lon="13.3920286372"><ele>2104.35</ele><time>2026-3-11T14:22:56Z</time></trkpt><trkpt lat="42.1792569012" lon="13.3919667941"><ele>2103.41</ele><time>2026-3-11T14:23:9Z</time></trkpt><trkpt lat="42.1793840546" lon="13.3919414347"><ele>2102.48</ele><time>2026-3-11T14:23:20Z</time></trkpt><trkpt lat="42.1794799750" lon="13.3918492170"><ele>2100.20</ele><time>2026-3-11T14:23:29Z</time></trkpt><trkpt lat="42.1795973588" lon="13.3919095096"><ele>2098.84</ele><time>2026-3-11T14:23:39Z</time></trkpt><trkpt lat="42.1796939149" lon="13.3918526955"><ele>2096.06</ele><time>2026-3-11T14:23:49Z</time></trkpt><trkpt lat="42.1797759784" lon="13.3917177049"><ele>2093.55</ele><time>2026-3-11T14:23:59Z</time></trkpt><trkpt lat="42.1798631449" lon="13.3916148686"><ele>2091.15</ele><time>2026-3-11T14:24:12Z</time></trkpt><trkpt lat="42.1799179400" lon="13.3915082831"><ele>2089.94</ele><time>2026-3-11T14:24:24Z</time></trkpt><trkpt lat="42.1800304251" lon="13.3914274082"><ele>2088.19</ele><time>2026-3-11T14:24:34Z</time></trkpt><trkpt lat="42.1800869131" lon="13.3912363742"><ele>2085.16</ele><time>2026-3-11T14:24:42Z</time></trkpt><trkpt lat="42.1801388809" lon="13.3911242123"><ele>2083.24</ele><time>2026-3-11T14:24:49Z</time></trkpt><trkpt lat="42.1802332839" lon="13.3909653453"><ele>2079.76</ele><time>2026-3-11T14:24:57Z</time></trkpt><trkpt lat="42.1802856464" lon="13.3908698221"><ele>2077.60</ele><time>2026-3-11T14:25:13Z</time></trkpt><trkpt lat="42.1803964125" lon="13.3907188336"><ele>2074.76</ele><time>2026-3-11T14:25:29Z</time></trkpt><trkpt lat="42.1804444731" lon="13.3905687137"><ele>2072.44</ele><time>2026-3-11T14:25:41Z</time></trkpt><trkpt lat="42.1805290484" lon="13.3905204822"><ele>2070.05</ele><time>2026-3-11T14:25:55Z</time></trkpt><trkpt lat="42.1806070162" lon="13.3903786680"><ele>2067.39</ele><time>2026-3-11T14:26:4Z</time></trkpt><trkpt lat="42.1806477426" lon="13.3902317321"><ele>2065.09</ele><time>2026-3-11T14:26:14Z</time></trkpt><trkpt lat="42.1807419948" lon="13.3900803501"><ele>2062.27</ele><time>2026-3-11T14:26:31Z</time></trkpt><trkpt lat="42.1808486627" lon="13.3899913491"><ele>2060.53</ele><time>2026-3-11T14:26:47Z</time></trkpt><trkpt lat="42.1809403971" lon="13.3899740316"><ele>2058.45</ele><time>2026-3-11T14:26:57Z</time></trkpt><trkpt lat="42.1809790230" lon="13.3901530012"><ele>2056.89</ele><time>2026-3-11T14:27:5Z</time></trkpt><trkpt lat="42.1810397487" lon="13.3903054800"><ele>2055.10</ele><time>2026-3-11T14:27:11Z</time></trkpt><trkpt lat="42.1811679751" lon="13.3903235333"><ele>2051.71</ele><time>2026-3-11T14:27:20Z</time></trkpt><trkpt lat="42.1812607394" lon="13.3902398637"><ele>2050.63</ele><time>2026-3-11T14:27:35Z</time></trkpt><trkpt lat="42.1813851105" lon="13.3901783353"><ele>2051.07</ele><time>2026-3-11T14:27:54Z</time></trkpt><trkpt lat="42.1815225901" lon="13.3901444217"><ele>2051.15</ele><time>2026-3-11T14:28:12Z</time></trkpt><trkpt lat="42.1816440169" lon="13.3901157863"><ele>2050.78</ele><time>2026-3-11T14:28:29Z</time></trkpt><trkpt lat="42.1817497537" lon="13.3899885882"><ele>2049.08</ele><time>2026-3-11T14:28:41Z</time></trkpt><trkpt lat="42.1818483581" lon="13.3898771647"><ele>2047.52</ele><time>2026-3-11T14:28:49Z</time></trkpt><trkpt lat="42.1819601823" lon="13.3897532970"><ele>2045.31</ele><time>2026-3-11T14:28:55Z</time></trkpt><trkpt lat="42.1820685938" lon="13.3896838781"><ele>2043.53</ele><time>2026-3-11T14:29:0Z</time></trkpt><trkpt lat="42.1822046991" lon="13.3896101676"><ele>2041.61</ele><time>2026-3-11T14:29:5Z</time></trkpt><trkpt lat="42.1823426709" lon="13.3895673137"><ele>2039.06</ele><time>2026-3-11T14:29:10Z</time></trkpt><trkpt lat="42.1824701289" lon="13.3895652825"><ele>2037.24</ele><time>2026-3-11T14:29:18Z</time></trkpt><trkpt lat="42.1826058382" lon="13.3895724511"><ele>2036.22</ele><time>2026-3-11T14:29:27Z</time></trkpt><trkpt lat="42.1827398019" lon="13.3895712253"><ele>2035.18</ele><time>2026-3-11T14:29:35Z</time></trkpt><trkpt lat="42.1828598250" lon="13.3895548340"><ele>2033.78</ele><time>2026-3-11T14:29:44Z</time></trkpt><trkpt lat="42.1829893533" lon="13.3895348664"><ele>2032.01</ele><time>2026-3-11T14:29:53Z</time></trkpt><trkpt lat="42.1831268678" lon="13.3894489962"><ele>2029.01</ele><time>2026-3-11T14:30:1Z</time></trkpt><trkpt lat="42.1832375508" lon="13.3894543480"><ele>2026.31</ele><time>2026-3-11T14:30:10Z</time></trkpt><trkpt lat="42.1833013371" lon="13.3895510621"><ele>2024.22</ele><time>2026-3-11T14:30:20Z</time></trkpt><trkpt lat="42.1834039630" lon="13.3896729921"><ele>2021.85</ele><time>2026-3-11T14:30:28Z</time></trkpt><trkpt lat="42.1834913045" lon="13.3898063963"><ele>2019.70</ele><time>2026-3-11T14:30:37Z</time></trkpt><trkpt lat="42.1835484859" lon="13.3899754006"><ele>2018.25</ele><time>2026-3-11T14:30:47Z</time></trkpt><trkpt lat="42.1836201595" lon="13.3901108270"><ele>2016.56</ele><time>2026-3-11T14:30:57Z</time></trkpt><trkpt lat="42.1837638598" lon="13.3901569247"><ele>2014.52</ele><time>2026-3-11T14:31:7Z</time></trkpt><trkpt lat="42.1838749899" lon="13.3901789691"><ele>2012.84</ele><time>2026-3-11T14:31:20Z</time></trkpt><trkpt lat="42.1839951521" lon="13.3902059748"><ele>2012.91</ele><time>2026-3-11T14:31:43Z</time></trkpt><trkpt lat="42.1841261070" lon="13.3902546484"><ele>2012.77</ele><time>2026-3-11T14:32:2Z</time></trkpt><trkpt lat="42.1842501111" lon="13.3902940828"><ele>2012.28</ele><time>2026-3-11T14:32:25Z</time></trkpt><trkpt lat="42.1842156351" lon="13.3904068782"><ele>2011.35</ele><time>2026-3-11T14:32:50Z</time></trkpt><trkpt lat="42.1842725288" lon="13.3905178323"><ele>2009.32</ele><time>2026-3-11T14:33:2Z</time></trkpt><trkpt lat="42.1843589600" lon="13.3905499745"><ele>2005.66</ele><time>2026-3-11T14:33:16Z</time></trkpt><trkpt lat="42.1844152920" lon="13.3905837703"><ele>2002.74</ele><time>2026-3-11T14:33:31Z</time></trkpt><trkpt lat="42.1845436860" lon="13.3906083237"><ele>1999.96</ele><time>2026-3-11T14:33:46Z</time></trkpt><trkpt lat="42.1846518843" lon="13.3905855272"><ele>1996.80</ele><time>2026-3-11T14:34:9Z</time></trkpt><trkpt lat="42.1847403023" lon="13.3905395945"><ele>1994.70</ele><time>2026-3-11T14:34:36Z</time></trkpt><trkpt lat="42.1848332504" lon="13.3905988047"><ele>1991.27</ele><time>2026-3-11T14:34:54Z</time></trkpt><trkpt lat="42.1848778725" lon="13.3906448213"><ele>1989.07</ele><time>2026-3-11T14:35:7Z</time></trkpt><trkpt lat="42.1848576928" lon="13.3907688515"><ele>1986.57</ele><time>2026-3-11T14:35:23Z</time></trkpt><trkpt lat="42.1849078033" lon="13.3908914216"><ele>1983.39</ele><time>2026-3-11T14:35:38Z</time></trkpt><trkpt lat="42.1849728382" lon="13.3909510721"><ele>1979.54</ele><time>2026-3-11T14:35:49Z</time></trkpt><trkpt lat="42.1850454794" lon="13.3909926344"><ele>1976.74</ele><time>2026-3-11T14:36:3Z</time></trkpt><trkpt lat="42.1850845199" lon="13.3910974944"><ele>1973.53</ele><time>2026-3-11T14:36:15Z</time></trkpt><trkpt lat="42.1851691414" lon="13.3911427131"><ele>1970.38</ele><time>2026-3-11T14:36:36Z</time></trkpt><trkpt lat="42.1851106687" lon="13.3913020045"><ele>1968.41</ele><time>2026-3-11T14:36:54Z</time></trkpt><trkpt lat="42.1850125976" lon="13.3914186470"><ele>1965.27</ele><time>2026-3-11T14:37:5Z</time></trkpt><trkpt lat="42.1850403852" lon="13.3915150251"><ele>1960.08</ele><time>2026-3-11T14:37:24Z</time></trkpt><trkpt lat="42.1850188100" lon="13.3916643646"><ele>1956.02</ele><time>2026-3-11T14:37:39Z</time></trkpt><trkpt lat="42.1850283444" lon="13.3918612031"><ele>1954.69</ele><time>2026-3-11T14:37:45Z</time></trkpt><trkpt lat="42.1850193758" lon="13.3920659563"><ele>1951.15</ele><time>2026-3-11T14:37:52Z</time></trkpt><trkpt lat="42.1850823518" lon="13.3920905460"><ele>1948.50</ele><time>2026-3-11T14:38:2Z</time></trkpt><trkpt lat="42.1851216517" lon="13.3922570050"><ele>1945.47</ele><time>2026-3-11T14:38:11Z</time></trkpt><trkpt lat="42.1851666877" lon="13.3924069628"><ele>1943.53</ele><time>2026-3-11T14:38:19Z</time></trkpt><trkpt lat="42.1852700897" lon="13.3923656400"><ele>1939.85</ele><time>2026-3-11T14:38:30Z</time></trkpt><trkpt lat="42.1853431184" lon="13.3924818747"><ele>1937.56</ele><time>2026-3-11T14:38:40Z</time></trkpt><trkpt lat="42.1853688732" lon="13.3926558495"><ele>1935.10</ele><time>2026-3-11T14:38:45Z</time></trkpt><trkpt lat="42.1854033298" lon="13.3928335668"><ele>1933.03</ele><time>2026-3-11T14:38:50Z</time></trkpt><trkpt lat="42.1855207309" lon="13.3929512445"><ele>1930.51</ele><time>2026-3-11T14:38:55Z</time></trkpt><trkpt lat="42.1856013473" lon="13.3930503657"><ele>1928.06</ele><time>2026-3-11T14:39:8Z</time></trkpt><trkpt lat="42.1856824402" lon="13.3931652984"><ele>1928.31</ele><time>2026-3-11T14:39:32Z</time></trkpt><trkpt lat="42.1857942311" lon="13.3932358772"><ele>1928.94</ele><time>2026-3-11T14:39:52Z</time></trkpt><trkpt lat="42.1858763939" lon="13.3933948085"><ele>1928.19</ele><time>2026-3-11T14:40:2Z</time></trkpt><trkpt lat="42.1859378989" lon="13.3935745588"><ele>1926.92</ele><time>2026-3-11T14:40:20Z</time></trkpt><trkpt lat="42.1860000539" lon="13.3936988142"><ele>1927.84</ele><time>2026-3-11T14:40:52Z</time></trkpt><trkpt lat="42.1860916110" lon="13.3938233648"><ele>1929.56</ele><time>2026-3-11T14:41:27Z</time></trkpt><trkpt lat="42.1861914068" lon="13.3939217194"><ele>1930.50</ele><time>2026-3-11T14:41:56Z</time></trkpt><trkpt lat="42.1862832829" lon="13.3940459127"><ele>1930.31</ele><time>2026-3-11T14:42:13Z</time></trkpt><trkpt lat="42.1864102688" lon="13.3941288293"><ele>1929.46</ele><time>2026-3-11T14:42:21Z</time></trkpt><trkpt lat="42.1865272382" lon="13.3942274353"><ele>1927.83</ele><time>2026-3-11T14:42:26Z</time></trkpt><trkpt lat="42.1865938744" lon="13.3943695505"><ele>1926.15</ele><time>2026-3-11T14:42:30Z</time></trkpt><trkpt lat="42.1866734605" lon="13.3945395006"><ele>1924.38</ele><time>2026-3-11T14:42:35Z</time></trkpt><trkpt lat="42.1867487747" lon="13.3947038781"><ele>1923.53</ele><time>2026-3-11T14:42:46Z</time></trkpt><trkpt lat="42.1868116362" lon="13.3948166482"><ele>1924.28</ele><time>2026-3-11T14:42:59Z</time></trkpt><trkpt lat="42.1869057650" lon="13.3949648857"><ele>1924.09</ele><time>2026-3-11T14:43:9Z</time></trkpt><trkpt lat="42.1869602706" lon="13.3950925898"><ele>1922.95</ele><time>2026-3-11T14:43:18Z</time></trkpt><trkpt lat="42.1870925976" lon="13.3950523404"><ele>1921.70</ele><time>2026-3-11T14:43:24Z</time></trkpt><trkpt lat="42.1872014126" lon="13.3950021477"><ele>1919.17</ele><time>2026-3-11T14:43:30Z</time></trkpt><trkpt lat="42.1873690747" lon="13.3950153781"><ele>1916.68</ele><time>2026-3-11T14:43:39Z</time></trkpt><trkpt lat="42.1874796053" lon="13.3950184832"><ele>1916.92</ele><time>2026-3-11T14:43:55Z</time></trkpt><trkpt lat="42.1876215074" lon="13.3949926637"><ele>1917.91</ele><time>2026-3-11T14:44:19Z</time></trkpt><trkpt lat="42.1877478529" lon="13.3950253380"><ele>1918.56</ele><time>2026-3-11T14:44:41Z</time></trkpt><trkpt lat="42.1878531143" lon="13.3951406037"><ele>1918.63</ele><time>2026-3-11T14:44:57Z</time></trkpt><trkpt lat="42.1879429312" lon="13.3952677553"><ele>1918.26</ele><time>2026-3-11T14:45:6Z</time></trkpt><trkpt lat="42.1880533104" lon="13.3953868831"><ele>1917.55</ele><time>2026-3-11T14:45:12Z</time></trkpt><trkpt lat="42.1881377028" lon="13.3955154729"><ele>1915.69</ele><time>2026-3-11T14:45:20Z</time></trkpt><trkpt lat="42.1881901869" lon="13.3956743928"><ele>1914.59</ele><time>2026-3-11T14:45:29Z</time></trkpt><trkpt lat="42.1882768627" lon="13.3958119294"><ele>1914.11</ele><time>2026-3-11T14:45:36Z</time></trkpt><trkpt lat="42.1883949567" lon="13.3959523682"><ele>1912.90</ele><time>2026-3-11T14:45:43Z</time></trkpt><trkpt lat="42.1884727408" lon="13.3960216970"><ele>1912.17</ele><time>2026-3-11T14:45:51Z</time></trkpt><trkpt lat="42.1886014380" lon="13.3961447328"><ele>1911.64</ele><time>2026-3-11T14:45:57Z</time></trkpt><trkpt lat="42.1887218021" lon="13.3962585032"><ele>1910.48</ele><time>2026-3-11T14:46:0Z</time></trkpt><trkpt lat="42.1888347250" lon="13.3963498101"><ele>1908.49</ele><time>2026-3-11T14:46:10Z</time></trkpt><trkpt lat="42.1889325575" lon="13.3964152749"><ele>1908.90</ele><time>2026-3-11T14:46:26Z</time></trkpt><trkpt lat="42.1890185960" lon="13.3965676464"><ele>1908.62</ele><time>2026-3-11T14:46:37Z</time></trkpt><trkpt lat="42.1890759748" lon="13.3967303205"><ele>1908.18</ele><time>2026-3-11T14:46:46Z</time></trkpt><trkpt lat="42.1891353213" lon="13.3968909857"><ele>1907.58</ele><time>2026-3-11T14:46:54Z</time></trkpt><trkpt lat="42.1892289989" lon="13.3970496297"><ele>1906.86</ele><time>2026-3-11T14:47:10Z</time></trkpt><trkpt lat="42.1892927564" lon="13.3971686801"><ele>1906.54</ele><time>2026-3-11T14:47:28Z</time></trkpt><trkpt lat="42.1893549511" lon="13.3973381602"><ele>1906.18</ele><time>2026-3-11T14:47:38Z</time></trkpt><trkpt lat="42.1894653216" lon="13.3973948601"><ele>1905.10</ele><time>2026-3-11T14:47:44Z</time></trkpt><trkpt lat="42.1896021185" lon="13.3974047215"><ele>1903.07</ele><time>2026-3-11T14:47:48Z</time></trkpt><trkpt lat="42.1896894090" lon="13.3975454606"><ele>1900.99</ele><time>2026-3-11T14:47:52Z</time></trkpt><trkpt lat="42.1897584479" lon="13.3976946305"><ele>1899.05</ele><time>2026-3-11T14:47:55Z</time></trkpt><trkpt lat="42.1898240084" lon="13.3978328062"><ele>1897.48</ele><time>2026-3-11T14:47:57Z</time></trkpt><trkpt lat="42.1898891777" lon="13.3979809145"><ele>1895.36</ele><time>2026-3-11T14:47:59Z</time></trkpt><trkpt lat="42.1900049485" lon="13.3981000632"><ele>1892.53</ele><time>2026-3-11T14:48:3Z</time></trkpt><trkpt lat="42.1900970699" lon="13.3982004575"><ele>1889.90</ele><time>2026-3-11T14:48:7Z</time></trkpt><trkpt lat="42.1901978832" lon="13.3982956382"><ele>1886.54</ele><time>2026-3-11T14:48:14Z</time></trkpt><trkpt lat="42.1901265532" lon="13.3984081959"><ele>1883.49</ele><time>2026-3-11T14:48:22Z</time></trkpt><trkpt lat="42.1901257988" lon="13.3985318709"><ele>1881.51</ele><time>2026-3-11T14:48:27Z</time></trkpt><trkpt lat="42.1901952010" lon="13.3986835275"><ele>1880.14</ele><time>2026-3-11T14:48:30Z</time></trkpt><trkpt lat="42.1902829176" lon="13.3988390118"><ele>1877.63</ele><time>2026-3-11T14:48:33Z</time></trkpt><trkpt lat="42.1903701872" lon="13.3989711665"><ele>1875.67</ele><time>2026-3-11T14:48:36Z</time></trkpt><trkpt lat="42.1904971381" lon="13.3990650717"><ele>1873.06</ele><time>2026-3-11T14:48:39Z</time></trkpt><trkpt lat="42.1906161681" lon="13.3991581528"><ele>1870.87</ele><time>2026-3-11T14:48:44Z</time></trkpt><trkpt lat="42.1907147847" lon="13.3992339880"><ele>1869.96</ele><time>2026-3-11T14:48:55Z</time></trkpt><trkpt lat="42.1908313595" lon="13.3993138865"><ele>1870.19</ele><time>2026-3-11T14:49:14Z</time></trkpt><trkpt lat="42.1909383964" lon="13.3993975818"><ele>1870.97</ele><time>2026-3-11T14:49:33Z</time></trkpt><trkpt lat="42.1910478417" lon="13.3994910945"><ele>1872.01</ele><time>2026-3-11T14:49:52Z</time></trkpt><trkpt lat="42.1911552103" lon="13.3995720212"><ele>1873.09</ele><time>2026-3-11T14:50:9Z</time></trkpt><trkpt lat="42.1912596095" lon="13.3996841218"><ele>1872.79</ele><time>2026-3-11T14:50:21Z</time></trkpt><trkpt lat="42.1913652141" lon="13.3998087812"><ele>1872.18</ele><time>2026-3-11T14:50:28Z</time></trkpt><trkpt lat="42.1913812403" lon="13.3999960078"><ele>1870.92</ele><time>2026-3-11T14:50:32Z</time></trkpt><trkpt lat="42.1913803183" lon="13.4001726397"><ele>1868.90</ele><time>2026-3-11T14:50:37Z</time></trkpt><trkpt lat="42.1914037666" lon="13.4003457846"><ele>1866.98</ele><time>2026-3-11T14:50:41Z</time></trkpt><trkpt lat="42.1914416319" lon="13.4005003888"><ele>1865.50</ele><time>2026-3-11T14:50:45Z</time></trkpt><trkpt lat="42.1914876485" lon="13.4006762411"><ele>1864.15</ele><time>2026-3-11T14:50:49Z</time></trkpt><trkpt lat="42.1915244241" lon="13.4008668875"><ele>1861.84</ele><time>2026-3-11T14:50:53Z</time></trkpt><trkpt lat="42.1915344196" lon="13.4010441229"><ele>1859.43</ele><time>2026-3-11T14:50:57Z</time></trkpt><trkpt lat="42.1915242691" lon="13.4012176786"><ele>1857.17</ele><time>2026-3-11T14:51:2Z</time></trkpt><trkpt lat="42.1915196375" lon="13.4013856255"><ele>1855.23</ele><time>2026-3-11T14:51:8Z</time></trkpt><trkpt lat="42.1916242987" lon="13.4014300928"><ele>1853.79</ele><time>2026-3-11T14:51:14Z</time></trkpt><trkpt lat="42.1916579688" lon="13.4015835403"><ele>1851.66</ele><time>2026-3-11T14:51:18Z</time></trkpt><trkpt lat="42.1916577872" lon="13.4017594066"><ele>1849.73</ele><time>2026-3-11T14:51:22Z</time></trkpt><trkpt lat="42.1916552446" lon="13.4019341692"><ele>1848.10</ele><time>2026-3-11T14:51:25Z</time></trkpt><trkpt lat="42.1916632913" lon="13.4020914417"><ele>1845.97</ele><time>2026-3-11T14:51:28Z</time></trkpt><trkpt lat="42.1917646076" lon="13.4022141737"><ele>1844.14</ele><time>2026-3-11T14:51:31Z</time></trkpt><trkpt lat="42.1918376908" lon="13.4023633506"><ele>1842.41</ele><time>2026-3-11T14:51:35Z</time></trkpt><trkpt lat="42.1919214959" lon="13.4024932073"><ele>1840.33</ele><time>2026-3-11T14:51:38Z</time></trkpt><trkpt lat="42.1919945441" lon="13.4026591201"><ele>1838.18</ele><time>2026-3-11T14:51:43Z</time></trkpt><trkpt lat="42.1920579532" lon="13.4028143599"><ele>1836.54</ele><time>2026-3-11T14:51:50Z</time></trkpt><trkpt lat="42.1921515791" lon="13.4029501886"><ele>1835.82</ele><time>2026-3-11T14:51:56Z</time></trkpt><trkpt lat="42.1921668090" lon="13.4031046964"><ele>1834.49</ele><time>2026-3-11T14:52:1Z</time></trkpt><trkpt lat="42.1921635862" lon="13.4032929875"><ele>1832.77</ele><time>2026-3-11T14:52:5Z</time></trkpt><trkpt lat="42.1922503179" lon="13.4034426045"><ele>1831.20</ele><time>2026-3-11T14:52:9Z</time></trkpt><trkpt lat="42.1923195105" lon="13.4035859071"><ele>1829.51</ele><time>2026-3-11T14:52:13Z</time></trkpt><trkpt lat="42.1923775971" lon="13.4037505137"><ele>1827.62</ele><time>2026-3-11T14:52:16Z</time></trkpt><trkpt lat="42.1924623884" lon="13.4038652368"><ele>1825.04</ele><time>2026-3-11T14:52:21Z</time></trkpt><trkpt lat="42.1925876057" lon="13.4039647551"><ele>1823.16</ele><time>2026-3-11T14:52:25Z</time></trkpt><trkpt lat="42.1926859394" lon="13.4040664136"><ele>1821.75</ele><time>2026-3-11T14:52:29Z</time></trkpt><trkpt lat="42.1927760560" lon="13.4041967243"><ele>1819.71</ele><time>2026-3-11T14:52:33Z</time></trkpt><trkpt lat="42.1928656250" lon="13.4043361992"><ele>1817.48</ele><time>2026-3-11T14:52:38Z</time></trkpt><trkpt lat="42.1929509696" lon="13.4044664204"><ele>1815.97</ele><time>2026-3-11T14:52:43Z</time></trkpt><trkpt lat="42.1930326289" lon="13.4046174819"><ele>1814.25</ele><time>2026-3-11T14:52:48Z</time></trkpt><trkpt lat="42.1931032743" lon="13.4047812503"><ele>1812.60</ele><time>2026-3-11T14:52:54Z</time></trkpt><trkpt lat="42.1931654720" lon="13.4049552506"><ele>1810.96</ele><time>2026-3-11T14:53:1Z</time></trkpt><trkpt lat="42.1932300789" lon="13.4050972022"><ele>1809.95</ele><time>2026-3-11T14:54:7Z</time></trkpt><trkpt lat="42.1932235789" lon="13.4051004421"><ele>1809.86</ele><time>2026-3-11T14:56:40Z</time></trkpt><trkpt lat="42.1932206143" lon="13.4051063202"><ele>1810.52</ele><time>2026-3-11T15:0:49Z</time></trkpt><trkpt lat="42.1932310425" lon="13.4051171452"><ele>1810.16</ele><time>2026-3-11T15:3:58Z</time></trkpt><trkpt lat="42.1933235428" lon="13.4052886228"><ele>1809.64</ele><time>2026-3-11T15:4:32Z</time></trkpt><trkpt lat="42.1933399713" lon="13.4054570512"><ele>1808.65</ele><time>2026-3-11T15:4:39Z</time></trkpt><trkpt lat="42.1934197401" lon="13.4055811004"><ele>1807.50</ele><time>2026-3-11T15:4:44Z</time></trkpt><trkpt lat="42.1934875287" lon="13.4057116359"><ele>1805.72</ele><time>2026-3-11T15:4:49Z</time></trkpt><trkpt lat="42.1935508400" lon="13.4058345202"><ele>1803.41</ele><time>2026-3-11T15:4:53Z</time></trkpt><trkpt lat="42.1935760626" lon="13.4059920442"><ele>1801.44</ele><time>2026-3-11T15:4:56Z</time></trkpt><trkpt lat="42.1936839726" lon="13.4060606081"><ele>1799.66</ele><time>2026-3-11T15:5:0Z</time></trkpt><trkpt lat="42.1937462780" lon="13.4062070679"><ele>1798.03</ele><time>2026-3-11T15:5:3Z</time></trkpt><trkpt lat="42.1938068513" lon="13.4063772764"><ele>1795.86</ele><time>2026-3-11T15:5:6Z</time></trkpt><trkpt lat="42.1938971244" lon="13.4065244626"><ele>1793.74</ele><time>2026-3-11T15:5:9Z</time></trkpt><trkpt lat="42.1939956397" lon="13.4066573577"><ele>1791.60</ele><time>2026-3-11T15:5:12Z</time></trkpt><trkpt lat="42.1941033471" lon="13.4067656100"><ele>1789.11</ele><time>2026-3-11T15:5:17Z</time></trkpt><trkpt lat="42.1942008846" lon="13.4068614990"><ele>1788.09</ele><time>2026-3-11T15:5:25Z</time></trkpt><trkpt lat="42.1943216271" lon="13.4069699608"><ele>1787.82</ele><time>2026-3-11T15:5:35Z</time></trkpt><trkpt lat="42.1944269096" lon="13.4070764878"><ele>1787.60</ele><time>2026-3-11T15:5:46Z</time></trkpt><trkpt lat="42.1945288835" lon="13.4071902050"><ele>1787.45</ele><time>2026-3-11T15:5:59Z</time></trkpt><trkpt lat="42.1946226584" lon="13.4073097474"><ele>1787.70</ele><time>2026-3-11T15:6:13Z</time></trkpt><trkpt lat="42.1947206743" lon="13.4074406756"><ele>1787.97</ele><time>2026-3-11T15:6:28Z</time></trkpt><trkpt lat="42.1948135877" lon="13.4075688897"><ele>1787.58</ele><time>2026-3-11T15:6:39Z</time></trkpt><trkpt lat="42.1949057772" lon="13.4077003446"><ele>1787.20</ele><time>2026-3-11T15:6:50Z</time></trkpt><trkpt lat="42.1949960450" lon="13.4078267506"><ele>1786.81</ele><time>2026-3-11T15:7:0Z</time></trkpt><trkpt lat="42.1950814985" lon="13.4079555301"><ele>1786.22</ele><time>2026-3-11T15:7:10Z</time></trkpt><trkpt lat="42.1951630293" lon="13.4081017901"><ele>1785.66</ele><time>2026-3-11T15:7:19Z</time></trkpt><trkpt lat="42.1952423360" lon="13.4082430881"><ele>1785.00</ele><time>2026-3-11T15:7:26Z</time></trkpt><trkpt lat="42.1953241574" lon="13.4083938226"><ele>1784.21</ele><time>2026-3-11T15:7:32Z</time></trkpt><trkpt lat="42.1954102535" lon="13.4085418331"><ele>1783.11</ele><time>2026-3-11T15:7:38Z</time></trkpt><trkpt lat="42.1955033884" lon="13.4086715350"><ele>1782.24</ele><time>2026-3-11T15:7:45Z</time></trkpt><trkpt lat="42.1955940686" lon="13.4088066872"><ele>1781.37</ele><time>2026-3-11T15:7:52Z</time></trkpt><trkpt lat="42.1956761777" lon="13.4089518953"><ele>1780.65</ele><time>2026-3-11T15:8:1Z</time></trkpt><trkpt lat="42.1957059938" lon="13.4090266403"><ele>1780.35</ele><time>2026-3-11T15:9:6Z</time></trkpt><trkpt lat="42.1957865674" lon="13.4091502782"><ele>1780.74</ele><time>2026-3-11T15:10:8Z</time></trkpt><trkpt lat="42.1958606970" lon="13.4092964586"><ele>1779.84</ele><time>2026-3-11T15:10:13Z</time></trkpt><trkpt lat="42.1959219792" lon="13.4094579820"><ele>1778.49</ele><time>2026-3-11T15:10:19Z</time></trkpt><trkpt lat="42.1959583393" lon="13.4095562162"><ele>1777.06</ele><time>2026-3-11T15:10:54Z</time></trkpt><trkpt lat="42.1960353004" lon="13.4097503638"><ele>1776.27</ele><time>2026-3-11T15:11:29Z</time></trkpt><trkpt lat="42.1961061191" lon="13.4098994010"><ele>1775.66</ele><time>2026-3-11T15:11:40Z</time></trkpt><trkpt lat="42.1961823106" lon="13.4100533696"><ele>1775.17</ele><time>2026-3-11T15:11:51Z</time></trkpt><trkpt lat="42.1962487092" lon="13.4102105373"><ele>1774.77</ele><time>2026-3-11T15:12:2Z</time></trkpt><trkpt lat="42.1962661851" lon="13.4102912544"><ele>1773.72</ele><time>2026-3-11T15:13:59Z</time></trkpt><trkpt lat="42.1962718081" lon="13.4102900826"><ele>1774.54</ele><time>2026-3-11T15:17:3Z</time></trkpt><trkpt lat="42.1963219531" lon="13.4103927599"><ele>1774.68</ele><time>2026-3-11T15:18:22Z</time></trkpt><trkpt lat="42.1963625467" lon="13.4105616063"><ele>1774.12</ele><time>2026-3-11T15:18:33Z</time></trkpt><trkpt lat="42.1963796392" lon="13.4107403830"><ele>1773.64</ele><time>2026-3-11T15:18:43Z</time></trkpt><trkpt lat="42.1963930819" lon="13.4109165883"><ele>1773.12</ele><time>2026-3-11T15:18:52Z</time></trkpt><trkpt lat="42.1964077838" lon="13.4111015545"><ele>1772.66</ele><time>2026-3-11T15:19:3Z</time></trkpt><trkpt lat="42.1964373384" lon="13.4112710925"><ele>1772.37</ele><time>2026-3-11T15:19:14Z</time></trkpt><trkpt lat="42.1964803543" lon="13.4114399040"><ele>1771.70</ele><time>2026-3-11T15:19:24Z</time></trkpt><trkpt lat="42.1965504666" lon="13.4115979524"><ele>1771.22</ele><time>2026-3-11T15:19:35Z</time></trkpt><trkpt lat="42.1966166999" lon="13.4117491711"><ele>1770.83</ele><time>2026-3-11T15:19:48Z</time></trkpt><trkpt lat="42.1966767767" lon="13.4119180364"><ele>1770.38</ele><time>2026-3-11T15:20:5Z</time></trkpt><trkpt lat="42.1967106087" lon="13.4120869936"><ele>1770.19</ele><time>2026-3-11T15:20:24Z</time></trkpt><trkpt lat="42.1967701255" lon="13.4122418107"><ele>1770.07</ele><time>2026-3-11T15:20:44Z</time></trkpt><trkpt lat="42.1968425607" lon="13.4123784067"><ele>1770.20</ele><time>2026-3-11T15:21:5Z</time></trkpt><trkpt lat="42.1969328300" lon="13.4125103226"><ele>1770.75</ele><time>2026-3-11T15:21:27Z</time></trkpt><trkpt lat="42.1970282340" lon="13.4126211827"><ele>1771.44</ele><time>2026-3-11T15:21:52Z</time></trkpt><trkpt lat="42.1971362321" lon="13.4126984030"><ele>1773.26</ele><time>2026-3-11T15:22:27Z</time></trkpt><trkpt lat="42.1972308220" lon="13.4127438324"><ele>1774.82</ele><time>2026-3-11T15:23:7Z</time></trkpt><trkpt lat="42.1973401541" lon="13.4128144197"><ele>1775.64</ele><time>2026-3-11T15:23:33Z</time></trkpt><trkpt lat="42.1974230028" lon="13.4128841999"><ele>1775.95</ele><time>2026-3-11T15:23:57Z</time></trkpt><trkpt lat="42.1975278530" lon="13.4129628746"><ele>1774.82</ele><time>2026-3-11T15:25:44Z</time></trkpt><trkpt lat="42.1976155627" lon="13.4130232646"><ele>1773.98</ele><time>2026-3-11T15:27:23Z</time></trkpt><trkpt lat="42.1977272390" lon="13.4131251036"><ele>1773.48</ele><time>2026-3-11T15:27:32Z</time></trkpt><trkpt lat="42.1978365462" lon="13.4132801089"><ele>1772.39</ele><time>2026-3-11T15:27:38Z</time></trkpt><trkpt lat="42.1978841163" lon="13.4134172369"><ele>1771.12</ele><time>2026-3-11T15:27:43Z</time></trkpt><trkpt lat="42.1979196835" lon="13.4136093501"><ele>1770.25</ele><time>2026-3-11T15:27:48Z</time></trkpt><trkpt lat="42.1979722939" lon="13.4137884993"><ele>1769.22</ele><time>2026-3-11T15:27:51Z</time></trkpt><trkpt lat="42.1980540454" lon="13.4138966538"><ele>1767.63</ele><time>2026-3-11T15:27:54Z</time></trkpt><trkpt lat="42.1981777568" lon="13.4139401838"><ele>1765.02</ele><time>2026-3-11T15:27:58Z</time></trkpt><trkpt lat="42.1982772499" lon="13.4140432309"><ele>1763.27</ele><time>2026-3-11T15:28:3Z</time></trkpt><trkpt lat="42.1983654052" lon="13.4141776711"><ele>1761.97</ele><time>2026-3-11T15:28:7Z</time></trkpt><trkpt lat="42.1984683070" lon="13.4143163427"><ele>1760.84</ele><time>2026-3-11T15:28:10Z</time></trkpt><trkpt lat="42.1985860225" lon="13.4143841900"><ele>1759.39</ele><time>2026-3-11T15:28:15Z</time></trkpt><trkpt lat="42.1987087559" lon="13.4144472610"><ele>1756.72</ele><time>2026-3-11T15:28:20Z</time></trkpt><trkpt lat="42.1987965563" lon="13.4145372966"><ele>1754.32</ele><time>2026-3-11T15:28:26Z</time></trkpt><trkpt lat="42.1989145260" lon="13.4146568030"><ele>1752.12</ele><time>2026-3-11T15:28:32Z</time></trkpt><trkpt lat="42.1990109096" lon="13.4147736174"><ele>1750.04</ele><time>2026-3-11T15:28:36Z</time></trkpt><trkpt lat="42.1990923397" lon="13.4148963355"><ele>1748.02</ele><time>2026-3-11T15:28:40Z</time></trkpt><trkpt lat="42.1991377864" lon="13.4150656220"><ele>1745.57</ele><time>2026-3-11T15:28:44Z</time></trkpt><trkpt lat="42.1992168589" lon="13.4152221600"><ele>1742.72</ele><time>2026-3-11T15:28:50Z</time></trkpt><trkpt lat="42.1993098920" lon="13.4153243993"><ele>1740.59</ele><time>2026-3-11T15:28:56Z</time></trkpt><trkpt lat="42.1994119585" lon="13.4154534191"><ele>1739.16</ele><time>2026-3-11T15:29:2Z</time></trkpt><trkpt lat="42.1994833765" lon="13.4156037402"><ele>1737.60</ele><time>2026-3-11T15:29:6Z</time></trkpt><trkpt lat="42.1995551744" lon="13.4157669078"><ele>1735.82</ele><time>2026-3-11T15:29:11Z</time></trkpt><trkpt lat="42.1996154334" lon="13.4159341338"><ele>1733.71</ele><time>2026-3-11T15:29:16Z</time></trkpt><trkpt lat="42.1996686123" lon="13.4160920028"><ele>1731.34</ele><time>2026-3-11T15:29:21Z</time></trkpt><trkpt lat="42.1997708967" lon="13.4161882522"><ele>1728.83</ele><time>2026-3-11T15:29:25Z</time></trkpt><trkpt lat="42.1998765506" lon="13.4163070936"><ele>1725.74</ele><time>2026-3-11T15:29:29Z</time></trkpt><trkpt lat="42.1999761276" lon="13.4164392273"><ele>1723.36</ele><time>2026-3-11T15:29:32Z</time></trkpt><trkpt lat="42.2000703122" lon="13.4165510628"><ele>1721.22</ele><time>2026-3-11T15:29:36Z</time></trkpt><trkpt lat="42.2001552489" lon="13.4166899929"><ele>1718.42</ele><time>2026-3-11T15:29:39Z</time></trkpt><trkpt lat="42.2002762836" lon="13.4168025199"><ele>1716.31</ele><time>2026-3-11T15:29:42Z</time></trkpt><trkpt lat="42.2003801773" lon="13.4169108351"><ele>1714.88</ele><time>2026-3-11T15:29:45Z</time></trkpt><trkpt lat="42.2003768584" lon="13.4169914720"><ele>1712.74</ele><time>2026-3-11T15:29:58Z</time></trkpt><trkpt lat="42.2003150717" lon="13.4169506487"><ele>1712.24</ele><time>2026-3-11T15:31:28Z</time></trkpt><trkpt lat="42.2003312514" lon="13.4170071851"><ele>1712.25</ele><time>2026-3-11T15:32:59Z</time></trkpt><trkpt lat="42.2004438302" lon="13.4171682605"><ele>1711.47</ele><time>2026-3-11T15:33:17Z</time></trkpt><trkpt lat="42.2005337375" lon="13.4173013956"><ele>1710.48</ele><time>2026-3-11T15:33:28Z</time></trkpt><trkpt lat="42.2006241905" lon="13.4174150436"><ele>1709.70</ele><time>2026-3-11T15:33:40Z</time></trkpt><trkpt lat="42.2007305920" lon="13.4174995776"><ele>1709.54</ele><time>2026-3-11T15:34:0Z</time></trkpt><trkpt lat="42.2008410876" lon="13.4175758762"><ele>1709.80</ele><time>2026-3-11T15:34:21Z</time></trkpt><trkpt lat="42.2009558839" lon="13.4176815301"><ele>1710.04</ele><time>2026-3-11T15:34:39Z</time></trkpt><trkpt lat="42.2010664363" lon="13.4177432861"><ele>1710.47</ele><time>2026-3-11T15:34:57Z</time></trkpt><trkpt lat="42.2011890876" lon="13.4178174205"><ele>1710.37</ele><time>2026-3-11T15:35:15Z</time></trkpt><trkpt lat="42.2013116780" lon="13.4179036373"><ele>1710.49</ele><time>2026-3-11T15:35:33Z</time></trkpt><trkpt lat="42.2014290904" lon="13.4179694922"><ele>1711.11</ele><time>2026-3-11T15:35:54Z</time></trkpt><trkpt lat="42.2015618091" lon="13.4179912379"><ele>1712.09</ele><time>2026-3-11T15:36:17Z</time></trkpt><trkpt lat="42.2016377426" lon="13.4179832446"><ele>1712.71</ele><time>2026-3-11T15:37:22Z</time></trkpt><trkpt lat="42.2017603757" lon="13.4179904185"><ele>1712.23</ele><time>2026-3-11T15:38:21Z</time></trkpt><trkpt lat="42.2018813028" lon="13.4180463734"><ele>1711.52</ele><time>2026-3-11T15:38:30Z</time></trkpt><trkpt lat="42.2020130378" lon="13.4180867113"><ele>1710.78</ele><time>2026-3-11T15:38:38Z</time></trkpt><trkpt lat="42.2021406822" lon="13.4180765093"><ele>1709.21</ele><time>2026-3-11T15:38:45Z</time></trkpt><trkpt lat="42.2022839170" lon="13.4180670809"><ele>1707.52</ele><time>2026-3-11T15:38:51Z</time></trkpt><trkpt lat="42.2024077512" lon="13.4180402588"><ele>1705.78</ele><time>2026-3-11T15:38:56Z</time></trkpt><trkpt lat="42.2025503568" lon="13.4179459163"><ele>1702.86</ele><time>2026-3-11T15:39:2Z</time></trkpt><trkpt lat="42.2026419462" lon="13.4179309755"><ele>1700.76</ele><time>2026-3-11T15:39:12Z</time></trkpt><trkpt lat="42.2027915111" lon="13.4179144632"><ele>1700.24</ele><time>2026-3-11T15:39:20Z</time></trkpt><trkpt lat="42.2029278427" lon="13.4178979508"><ele>1699.92</ele><time>2026-3-11T15:39:25Z</time></trkpt><trkpt lat="42.2030476257" lon="13.4178573824"><ele>1699.09</ele><time>2026-3-11T15:39:29Z</time></trkpt><trkpt lat="42.2031784756" lon="13.4177968651"><ele>1698.28</ele><time>2026-3-11T15:39:33Z</time></trkpt><trkpt lat="42.2033163328" lon="13.4177286867"><ele>1697.07</ele><time>2026-3-11T15:39:38Z</time></trkpt><trkpt lat="42.2034345567" lon="13.4176478768"><ele>1695.84</ele><time>2026-3-11T15:39:43Z</time></trkpt><trkpt lat="42.2035428956" lon="13.4175486434"><ele>1695.29</ele><time>2026-3-11T15:39:49Z</time></trkpt><trkpt lat="42.2036402766" lon="13.4174344456"><ele>1694.65</ele><time>2026-3-11T15:39:54Z</time></trkpt><trkpt lat="42.2037283285" lon="13.4173057484"><ele>1694.10</ele><time>2026-3-11T15:40:1Z</time></trkpt><trkpt lat="42.2038387042" lon="13.4172120597"><ele>1693.79</ele><time>2026-3-11T15:40:8Z</time></trkpt><trkpt lat="42.2039712570" lon="13.4171626484"><ele>1692.83</ele><time>2026-3-11T15:40:13Z</time></trkpt><trkpt lat="42.2041167878" lon="13.4171643248"><ele>1691.30</ele><time>2026-3-11T15:40:17Z</time></trkpt><trkpt lat="42.2042345954" lon="13.4171997383"><ele>1689.59</ele><time>2026-3-11T15:40:21Z</time></trkpt><trkpt lat="42.2043733159" lon="13.4172317991"><ele>1687.58</ele><time>2026-3-11T15:40:25Z</time></trkpt><trkpt lat="42.2045090888" lon="13.4171701781"><ele>1685.77</ele><time>2026-3-11T15:40:29Z</time></trkpt><trkpt lat="42.2046256811" lon="13.4170816094"><ele>1684.19</ele><time>2026-3-11T15:40:32Z</time></trkpt><trkpt lat="42.2047558520" lon="13.4170153365"><ele>1682.55</ele><time>2026-3-11T15:40:35Z</time></trkpt><trkpt lat="42.2049011244" lon="13.4170145193"><ele>1680.66</ele><time>2026-3-11T15:40:38Z</time></trkpt><trkpt lat="42.2050471790" lon="13.4170454694"><ele>1679.19</ele><time>2026-3-11T15:40:42Z</time></trkpt><trkpt lat="42.2051839717" lon="13.4170432063"><ele>1677.63</ele><time>2026-3-11T15:40:46Z</time></trkpt><trkpt lat="42.2053005360" lon="13.4169907775"><ele>1676.02</ele><time>2026-3-11T15:40:50Z</time></trkpt><trkpt lat="42.2054038709" lon="13.4168917034"><ele>1674.24</ele><time>2026-3-11T15:40:53Z</time></trkpt><trkpt lat="42.2055202536" lon="13.4168149671"><ele>1671.22</ele><time>2026-3-11T15:40:58Z</time></trkpt><trkpt lat="42.2056621313" lon="13.4168024920"><ele>1668.43</ele><time>2026-3-11T15:41:3Z</time></trkpt><trkpt lat="42.2058104351" lon="13.4168273304"><ele>1667.07</ele><time>2026-3-11T15:41:5Z</time></trkpt><trkpt lat="42.2059419053" lon="13.4168794658"><ele>1665.41</ele><time>2026-3-11T15:41:8Z</time></trkpt><trkpt lat="42.2060618084" lon="13.4168956788"><ele>1663.48</ele><time>2026-3-11T15:41:14Z</time></trkpt><trkpt lat="42.2061719280" lon="13.4168686997"><ele>1663.20</ele><time>2026-3-11T15:41:22Z</time></trkpt><trkpt lat="42.2062998880" lon="13.4168125279"><ele>1663.46</ele><time>2026-3-11T15:41:29Z</time></trkpt><trkpt lat="42.2064357461" lon="13.4167823824"><ele>1663.45</ele><time>2026-3-11T15:41:33Z</time></trkpt><trkpt lat="42.2065546140" lon="13.4168605395"><ele>1662.73</ele><time>2026-3-11T15:41:38Z</time></trkpt><trkpt lat="42.2066699574" lon="13.4169143031"><ele>1660.31</ele><time>2026-3-11T15:41:44Z</time></trkpt><trkpt lat="42.2067592247" lon="13.4170217696"><ele>1657.91</ele><time>2026-3-11T15:41:50Z</time></trkpt><trkpt lat="42.2068120097" lon="13.4171583108"><ele>1656.19</ele><time>2026-3-11T15:41:54Z</time></trkpt><trkpt lat="42.2069490887" lon="13.4171332140"><ele>1654.30</ele><time>2026-3-11T15:41:58Z</time></trkpt><trkpt lat="42.2070826404" lon="13.4170747642"><ele>1651.76</ele><time>2026-3-11T15:42:1Z</time></trkpt><trkpt lat="42.2072090730" lon="13.4170152023"><ele>1649.47</ele><time>2026-3-11T15:42:6Z</time></trkpt><trkpt lat="42.2073331336" lon="13.4169889125"><ele>1648.44</ele><time>2026-3-11T15:42:10Z</time></trkpt><trkpt lat="42.2074718750" lon="13.4169733012"><ele>1647.74</ele><time>2026-3-11T15:42:14Z</time></trkpt><trkpt lat="42.2076112311" lon="13.4169461578"><ele>1646.75</ele><time>2026-3-11T15:42:18Z</time></trkpt><trkpt lat="42.2077370784" lon="13.4169097873"><ele>1644.92</ele><time>2026-3-11T15:42:21Z</time></trkpt><trkpt lat="42.2078721738" lon="13.4168682131"><ele>1643.41</ele><time>2026-3-11T15:42:25Z</time></trkpt><trkpt lat="42.2079966660" lon="13.4168310394"><ele>1642.26</ele><time>2026-3-11T15:42:29Z</time></trkpt><trkpt lat="42.2081311746" lon="13.4167852253"><ele>1641.20</ele><time>2026-3-11T15:42:34Z</time></trkpt><trkpt lat="42.2082534246" lon="13.4167333552"><ele>1640.56</ele><time>2026-3-11T15:42:40Z</time></trkpt><trkpt lat="42.2083849786" lon="13.4166865982"><ele>1640.03</ele><time>2026-3-11T15:42:46Z</time></trkpt><trkpt lat="42.2085177539" lon="13.4166498615"><ele>1639.55</ele><time>2026-3-11T15:42:53Z</time></trkpt><trkpt lat="42.2086607851" lon="13.4166494245"><ele>1638.84</ele><time>2026-3-11T15:42:59Z</time></trkpt><trkpt lat="42.2088114079" lon="13.4166703792"><ele>1638.07</ele><time>2026-3-11T15:43:5Z</time></trkpt><trkpt lat="42.2089480329" lon="13.4166740086"><ele>1637.24</ele><time>2026-3-11T15:43:11Z</time></trkpt><trkpt lat="42.2090728059" lon="13.4166868497"><ele>1636.57</ele><time>2026-3-11T15:43:16Z</time></trkpt><trkpt lat="42.2092131286" lon="13.4166974348"><ele>1636.01</ele><time>2026-3-11T15:43:22Z</time></trkpt><trkpt lat="42.2093604331" lon="13.4166895109"><ele>1635.29</ele><time>2026-3-11T15:43:29Z</time></trkpt><trkpt lat="42.2095037463" lon="13.4167059177"><ele>1634.98</ele><time>2026-3-11T15:43:58Z</time></trkpt><trkpt lat="42.2096240381" lon="13.4166994970"><ele>1634.78</ele><time>2026-3-11T15:44:31Z</time></trkpt><trkpt lat="42.2097488104" lon="13.4167011877"><ele>1634.62</ele><time>2026-3-11T15:44:49Z</time></trkpt><trkpt lat="42.2098754235" lon="13.4167549023"><ele>1634.30</ele><time>2026-3-11T15:45:2Z</time></trkpt><trkpt lat="42.2099413257" lon="13.4168965463"><ele>1633.94</ele><time>2026-3-11T15:45:12Z</time></trkpt><trkpt lat="42.2099391982" lon="13.4170907264"><ele>1633.11</ele><time>2026-3-11T15:45:24Z</time></trkpt><trkpt lat="42.2098894787" lon="13.4171846389"><ele>1633.05</ele><time>2026-3-11T15:46:7Z</time></trkpt><trkpt lat="42.2098892637" lon="13.4171764706"><ele>1632.59</ele><time>2026-3-11T15:47:35Z</time></trkpt><trkpt lat="42.2098836713" lon="13.4171783899"><ele>1632.02</ele><time>2026-3-11T15:49:56Z</time></trkpt><trkpt lat="42.2098793370" lon="13.4171841872"><ele>1632.64</ele><time>2026-3-11T15:52:18Z</time></trkpt><trkpt lat="42.2098861310" lon="13.4171854598"><ele>1632.58</ele><time>2026-3-11T15:54:17Z</time></trkpt><trkpt lat="42.2098385808" lon="13.4171513287"><ele>1632.82</ele><time>2026-3-11T15:55:31Z</time></trkpt><trkpt lat="42.2097023763" lon="13.4171649488"><ele>1633.10</ele><time>2026-3-11T15:55:50Z</time></trkpt><trkpt lat="42.2096554214" lon="13.4172771474"><ele>1633.04</ele><time>2026-3-11T15:56:9Z</time></trkpt><trkpt lat="42.2097418261" lon="13.4173628981"><ele>1632.93</ele><time>2026-3-11T15:56:32Z</time></trkpt><trkpt lat="42.2098697349" lon="13.4174394384"><ele>1632.61</ele><time>2026-3-11T15:56:54Z</time></trkpt><trkpt lat="42.2099914175" lon="13.4175133839"><ele>1631.50</ele><time>2026-3-11T15:57:9Z</time></trkpt><trkpt lat="42.2101125214" lon="13.4175687516"><ele>1631.05</ele><time>2026-3-11T15:57:26Z</time></trkpt><trkpt lat="42.2102503991" lon="13.4175798250"><ele>1630.80</ele><time>2026-3-11T15:57:44Z</time></trkpt><trkpt lat="42.2103559659" lon="13.4175229593"><ele>1630.23</ele><time>2026-3-11T15:58:2Z</time></trkpt><trkpt lat="42.2104637226" lon="13.4174465459"><ele>1629.79</ele><time>2026-3-11T15:58:19Z</time></trkpt><trkpt lat="42.2105574107" lon="13.4173090488"><ele>1629.18</ele><time>2026-3-11T15:58:35Z</time></trkpt><trkpt lat="42.2106639959" lon="13.4171908782"><ele>1628.79</ele><time>2026-3-11T15:58:52Z</time></trkpt><trkpt lat="42.2107711621" lon="13.4170929017"><ele>1629.01</ele><time>2026-3-11T15:59:9Z</time></trkpt><trkpt lat="42.2108789621" lon="13.4169869810"><ele>1629.21</ele><time>2026-3-11T15:59:27Z</time></trkpt><trkpt lat="42.2109853616" lon="13.4168712748"><ele>1629.51</ele><time>2026-3-11T15:59:44Z</time></trkpt><trkpt lat="42.2110968333" lon="13.4167808737"><ele>1629.78</ele><time>2026-3-11T16:0:1Z</time></trkpt><trkpt lat="42.2112245874" lon="13.4167537422"><ele>1629.48</ele><time>2026-3-11T16:0:18Z</time></trkpt><trkpt lat="42.2113539297" lon="13.4167873207"><ele>1628.95</ele><time>2026-3-11T16:0:34Z</time></trkpt><trkpt lat="42.2114772670" lon="13.4168591659"><ele>1628.34</ele><time>2026-3-11T16:0:49Z</time></trkpt><trkpt lat="42.2116025158" lon="13.4169180585"><ele>1627.80</ele><time>2026-3-11T16:1:4Z</time></trkpt><trkpt lat="42.2117352986" lon="13.4169513930"><ele>1627.14</ele><time>2026-3-11T16:1:19Z</time></trkpt><trkpt lat="42.2118714284" lon="13.4169541430"><ele>1626.33</ele><time>2026-3-11T16:1:35Z</time></trkpt><trkpt lat="42.2120065941" lon="13.4169542976"><ele>1625.76</ele><time>2026-3-11T16:1:51Z</time></trkpt><trkpt lat="42.2121449056" lon="13.4169649563"><ele>1625.17</ele><time>2026-3-11T16:2:9Z</time></trkpt><trkpt lat="42.2122983634" lon="13.4169691983"><ele>1624.69</ele><time>2026-3-11T16:2:27Z</time></trkpt><trkpt lat="42.2124480782" lon="13.4169786703"><ele>1624.02</ele><time>2026-3-11T16:2:46Z</time></trkpt><trkpt lat="42.2125771160" lon="13.4169821737"><ele>1623.58</ele><time>2026-3-11T16:3:4Z</time></trkpt><trkpt lat="42.2127204887" lon="13.4169689217"><ele>1623.14</ele><time>2026-3-11T16:3:22Z</time></trkpt><trkpt lat="42.2128609987" lon="13.4169480477"><ele>1622.75</ele><time>2026-3-11T16:3:39Z</time></trkpt><trkpt lat="42.2129931059" lon="13.4169222247"><ele>1622.26</ele><time>2026-3-11T16:3:54Z</time></trkpt><trkpt lat="42.2131299712" lon="13.4168821368"><ele>1621.91</ele><time>2026-3-11T16:4:9Z</time></trkpt><trkpt lat="42.2132570241" lon="13.4168550353"><ele>1621.63</ele><time>2026-3-11T16:4:24Z</time></trkpt><trkpt lat="42.2133918665" lon="13.4168318418"><ele>1621.14</ele><time>2026-3-11T16:4:40Z</time></trkpt><trkpt lat="42.2135250773" lon="13.4168034531"><ele>1620.52</ele><time>2026-3-11T16:4:56Z</time></trkpt><trkpt lat="42.2136586526" lon="13.4167759789"><ele>1620.19</ele><time>2026-3-11T16:5:12Z</time></trkpt><trkpt lat="42.2137976187" lon="13.4167557489"><ele>1619.85</ele><time>2026-3-11T16:5:28Z</time></trkpt><trkpt lat="42.2139281798" lon="13.4167241827"><ele>1619.42</ele><time>2026-3-11T16:5:44Z</time></trkpt><trkpt lat="42.2140605591" lon="13.4166947130"><ele>1618.72</ele><time>2026-3-11T16:5:59Z</time></trkpt><trkpt lat="42.2141917236" lon="13.4166635480"><ele>1618.43</ele><time>2026-3-11T16:6:15Z</time></trkpt><trkpt lat="42.2143197097" lon="13.4166175984"><ele>1618.42</ele><time>2026-3-11T16:6:30Z</time></trkpt><trkpt lat="42.2144547533" lon="13.4165777396"><ele>1617.66</ele><time>2026-3-11T16:6:45Z</time></trkpt><trkpt lat="42.2145816162" lon="13.4165322371"><ele>1616.79</ele><time>2026-3-11T16:7:0Z</time></trkpt><trkpt lat="42.2147120687" lon="13.4164904250"><ele>1616.69</ele><time>2026-3-11T16:7:15Z</time></trkpt><trkpt lat="42.2148461739" lon="13.4164444188"><ele>1615.80</ele><time>2026-3-11T16:7:31Z</time></trkpt><trkpt lat="42.2149784830" lon="13.4163977219"><ele>1615.63</ele><time>2026-3-11T16:7:46Z</time></trkpt><trkpt lat="42.2151051537" lon="13.4163424792"><ele>1615.63</ele><time>2026-3-11T16:8:1Z</time></trkpt><trkpt lat="42.2152357791" lon="13.4162803609"><ele>1615.73</ele><time>2026-3-11T16:8:17Z</time></trkpt><trkpt lat="42.2153605241" lon="13.4162289882"><ele>1615.89</ele><time>2026-3-11T16:8:32Z</time></trkpt><trkpt lat="42.2154819779" lon="13.4161606600"><ele>1615.77</ele><time>2026-3-11T16:8:48Z</time></trkpt><trkpt lat="42.2156019453" lon="13.4160869233"><ele>1615.54</ele><time>2026-3-11T16:9:4Z</time></trkpt><trkpt lat="42.2157280164" lon="13.4160042373"><ele>1615.69</ele><time>2026-3-11T16:9:20Z</time></trkpt><trkpt lat="42.2158396337" lon="13.4159269512"><ele>1615.69</ele><time>2026-3-11T16:9:37Z</time></trkpt><trkpt lat="42.2159675662" lon="13.4158687266"><ele>1616.07</ele><time>2026-3-11T16:9:54Z</time></trkpt><trkpt lat="42.2160970786" lon="13.4158131934"><ele>1616.07</ele><time>2026-3-11T16:10:10Z</time></trkpt><trkpt lat="42.2162226291" lon="13.4157565999"><ele>1615.87</ele><time>2026-3-11T16:10:26Z</time></trkpt><trkpt lat="42.2163428058" lon="13.4156900351"><ele>1615.90</ele><time>2026-3-11T16:10:41Z</time></trkpt><trkpt lat="42.2164722160" lon="13.4156248805"><ele>1614.84</ele><time>2026-3-11T16:10:54Z</time></trkpt><trkpt lat="42.2165996995" lon="13.4155653615"><ele>1614.14</ele><time>2026-3-11T16:11:9Z</time></trkpt><trkpt lat="42.2167214990" lon="13.4155081655"><ele>1614.22</ele><time>2026-3-11T16:11:25Z</time></trkpt><trkpt lat="42.2168514859" lon="13.4154524468"><ele>1613.83</ele><time>2026-3-11T16:11:41Z</time></trkpt><trkpt lat="42.2169743443" lon="13.4153912118"><ele>1613.41</ele><time>2026-3-11T16:11:56Z</time></trkpt><trkpt lat="42.2171028599" lon="13.4153280855"><ele>1612.91</ele><time>2026-3-11T16:12:12Z</time></trkpt><trkpt lat="42.2172328589" lon="13.4152609745"><ele>1613.02</ele><time>2026-3-11T16:12:29Z</time></trkpt><trkpt lat="42.2173549339" lon="13.4152074635"><ele>1613.00</ele><time>2026-3-11T16:12:46Z</time></trkpt><trkpt lat="42.2174829847" lon="13.4151482034"><ele>1613.20</ele><time>2026-3-11T16:13:3Z</time></trkpt><trkpt lat="42.2176069189" lon="13.4150801674"><ele>1613.51</ele><time>2026-3-11T16:13:19Z</time></trkpt><trkpt lat="42.2177095673" lon="13.4149715277"><ele>1612.67</ele><time>2026-3-11T16:13:35Z</time></trkpt><trkpt lat="42.2178219818" lon="13.4148697145"><ele>1610.84</ele><time>2026-3-11T16:13:51Z</time></trkpt><trkpt lat="42.2179402591" lon="13.4147928801"><ele>1609.56</ele><time>2026-3-11T16:14:6Z</time></trkpt><trkpt lat="42.2180633303" lon="13.4147201423"><ele>1608.99</ele><time>2026-3-11T16:14:22Z</time></trkpt><trkpt lat="42.2181895200" lon="13.4146560526"><ele>1608.74</ele><time>2026-3-11T16:14:38Z</time></trkpt><trkpt lat="42.2183156647" lon="13.4145849980"><ele>1608.42</ele><time>2026-3-11T16:14:54Z</time></trkpt><trkpt lat="42.2184432044" lon="13.4145131137"><ele>1607.96</ele><time>2026-3-11T16:15:25Z</time></trkpt><trkpt lat="42.2185466173" lon="13.4144498874"><ele>1608.02</ele><time>2026-3-11T16:15:55Z</time></trkpt><trkpt lat="42.2186656818" lon="13.4143795017"><ele>1607.88</ele><time>2026-3-11T16:16:10Z</time></trkpt><trkpt lat="42.2187843294" lon="13.4142986680"><ele>1607.66</ele><time>2026-3-11T16:16:26Z</time></trkpt><trkpt lat="42.2189103282" lon="13.4142330580"><ele>1607.96</ele><time>2026-3-11T16:16:42Z</time></trkpt><trkpt lat="42.2190286650" lon="13.4141658770"><ele>1608.59</ele><time>2026-3-11T16:16:58Z</time></trkpt><trkpt lat="42.2191535421" lon="13.4140958134"><ele>1608.13</ele><time>2026-3-11T16:17:14Z</time></trkpt><trkpt lat="42.2192777647" lon="13.4140317980"><ele>1607.30</ele><time>2026-3-11T16:17:27Z</time></trkpt><trkpt lat="42.2194054001" lon="13.4139925777"><ele>1606.11</ele><time>2026-3-11T16:17:39Z</time></trkpt><trkpt lat="42.2195517401" lon="13.4139789534"><ele>1604.50</ele><time>2026-3-11T16:17:52Z</time></trkpt><trkpt lat="42.2196982831" lon="13.4140032285"><ele>1602.36</ele><time>2026-3-11T16:19:1Z</time></trkpt><trkpt lat="42.2197860658" lon="13.4140462471"><ele>1602.19</ele><time>2026-3-11T16:20:10Z</time></trkpt><trkpt lat="42.2199052200" lon="13.4141177684"><ele>1601.59</ele><time>2026-3-11T16:20:24Z</time></trkpt><trkpt lat="42.2200288670" lon="13.4141877957"><ele>1601.20</ele><time>2026-3-11T16:20:39Z</time></trkpt><trkpt lat="42.2201530226" lon="13.4142601881"><ele>1600.94</ele><time>2026-3-11T16:20:55Z</time></trkpt><trkpt lat="42.2202764153" lon="13.4143305067"><ele>1600.43</ele><time>2026-3-11T16:21:10Z</time></trkpt><trkpt lat="42.2203982335" lon="13.4144051879"><ele>1599.94</ele><time>2026-3-11T16:21:24Z</time></trkpt><trkpt lat="42.2205178149" lon="13.4144823725"><ele>1599.51</ele><time>2026-3-11T16:21:39Z</time></trkpt><trkpt lat="42.2206328753" lon="13.4145774823"><ele>1599.24</ele><time>2026-3-11T16:21:55Z</time></trkpt><trkpt lat="42.2207451478" lon="13.4146689327"><ele>1598.68</ele><time>2026-3-11T16:22:10Z</time></trkpt><trkpt lat="42.2208601632" lon="13.4147621866"><ele>1598.20</ele><time>2026-3-11T16:22:26Z</time></trkpt><trkpt lat="42.2209752991" lon="13.4148639743"><ele>1597.65</ele><time>2026-3-11T16:22:42Z</time></trkpt><trkpt lat="42.2210851181" lon="13.4149599373"><ele>1597.10</ele><time>2026-3-11T16:22:58Z</time></trkpt><trkpt lat="42.2212006990" lon="13.4150511324"><ele>1596.70</ele><time>2026-3-11T16:23:13Z</time></trkpt><trkpt lat="42.2213238478" lon="13.4151184931"><ele>1596.29</ele><time>2026-3-11T16:23:29Z</time></trkpt><trkpt lat="42.2214538884" lon="13.4151359182"><ele>1595.87</ele><time>2026-3-11T16:23:47Z</time></trkpt><trkpt lat="42.2215362755" lon="13.4151247121"><ele>1595.22</ele><time>2026-3-11T16:26:26Z</time></trkpt><trkpt lat="42.2215308927" lon="13.4151118176"><ele>1599.10</ele><time>2026-3-11T16:30:17Z</time></trkpt><trkpt lat="42.2215247007" lon="13.4151330307"><ele>1596.32</ele><time>2026-3-11T16:32:6Z</time></trkpt><trkpt lat="42.2216105740" lon="13.4151218107"><ele>1596.28</ele><time>2026-3-11T16:32:40Z</time></trkpt><trkpt lat="42.2217480133" lon="13.4151105250"><ele>1596.23</ele><time>2026-3-11T16:32:54Z</time></trkpt><trkpt lat="42.2218791721" lon="13.4151378380"><ele>1596.42</ele><time>2026-3-11T16:33:8Z</time></trkpt><trkpt lat="42.2219838202" lon="13.4152352896"><ele>1596.58</ele><time>2026-3-11T16:33:22Z</time></trkpt><trkpt lat="42.2220953414" lon="13.4152999441"><ele>1596.66</ele><time>2026-3-11T16:33:36Z</time></trkpt><trkpt lat="42.2222033031" lon="13.4154031724"><ele>1596.90</ele><time>2026-3-11T16:33:51Z</time></trkpt><trkpt lat="42.2223184816" lon="13.4155025203"><ele>1597.16</ele><time>2026-3-11T16:34:6Z</time></trkpt><trkpt lat="42.2224322353" lon="13.4155964982"><ele>1597.93</ele><time>2026-3-11T16:34:21Z</time></trkpt><trkpt lat="42.2225484005" lon="13.4156740101"><ele>1598.59</ele><time>2026-3-11T16:34:37Z</time></trkpt><trkpt lat="42.2226542160" lon="13.4157510828"><ele>1598.93</ele><time>2026-3-11T16:34:53Z</time></trkpt><trkpt lat="42.2227728087" lon="13.4158342704"><ele>1599.20</ele><time>2026-3-11T16:35:8Z</time></trkpt><trkpt lat="42.2229003035" lon="13.4158723442"><ele>1599.65</ele><time>2026-3-11T16:35:22Z</time></trkpt><trkpt lat="42.2230318754" lon="13.4158869706"><ele>1599.99</ele><time>2026-3-11T16:35:36Z</time></trkpt><trkpt lat="42.2231590828" lon="13.4158620824"><ele>1599.37</ele><time>2026-3-11T16:35:50Z</time></trkpt><trkpt lat="42.2232852057" lon="13.4159146864"><ele>1599.26</ele><time>2026-3-11T16:36:5Z</time></trkpt><trkpt lat="42.2234186989" lon="13.4159308987"><ele>1599.00</ele><time>2026-3-11T16:36:19Z</time></trkpt><trkpt lat="42.2235480869" lon="13.4159116254"><ele>1598.75</ele><time>2026-3-11T16:36:32Z</time></trkpt><trkpt lat="42.2236843743" lon="13.4158803094"><ele>1598.04</ele><time>2026-3-11T16:36:47Z</time></trkpt><trkpt lat="42.2238229879" lon="13.4158571094"><ele>1597.46</ele><time>2026-3-11T16:37:2Z</time></trkpt><trkpt lat="42.2239550942" lon="13.4158425525"><ele>1596.60</ele><time>2026-3-11T16:37:17Z</time></trkpt><trkpt lat="42.2240812777" lon="13.4158164549"><ele>1595.74</ele><time>2026-3-11T16:37:31Z</time></trkpt><trkpt lat="42.2242097352" lon="13.4158548620"><ele>1595.59</ele><time>2026-3-11T16:37:46Z</time></trkpt><trkpt lat="42.2243366155" lon="13.4159288298"><ele>1595.97</ele><time>2026-3-11T16:38:2Z</time></trkpt><trkpt lat="42.2244607285" lon="13.4159978628"><ele>1596.87</ele><time>2026-3-11T16:38:18Z</time></trkpt><trkpt lat="42.2245709245" lon="13.4160899265"><ele>1596.74</ele><time>2026-3-11T16:38:32Z</time></trkpt><trkpt lat="42.2247015266" lon="13.4161278867"><ele>1596.72</ele><time>2026-3-11T16:38:47Z</time></trkpt><trkpt lat="42.2248308566" lon="13.4161552917"><ele>1597.17</ele><time>2026-3-11T16:39:3Z</time></trkpt><trkpt lat="42.2249705923" lon="13.4161716229"><ele>1597.63</ele><time>2026-3-11T16:39:20Z</time></trkpt><trkpt lat="42.2251113440" lon="13.4161738824"><ele>1598.56</ele><time>2026-3-11T16:39:37Z</time></trkpt><trkpt lat="42.2252464704" lon="13.4161641654"><ele>1599.22</ele><time>2026-3-11T16:39:53Z</time></trkpt><trkpt lat="42.2253789101" lon="13.4161964738"><ele>1598.49</ele><time>2026-3-11T16:40:9Z</time></trkpt><trkpt lat="42.2254972364" lon="13.4162802855"><ele>1596.57</ele><time>2026-3-11T16:40:25Z</time></trkpt><trkpt lat="42.2256051167" lon="13.4163684002"><ele>1595.00</ele><time>2026-3-11T16:40:41Z</time></trkpt><trkpt lat="42.2257311895" lon="13.4164283877"><ele>1593.48</ele><time>2026-3-11T16:40:56Z</time></trkpt><trkpt lat="42.2258663457" lon="13.4164519105"><ele>1591.59</ele><time>2026-3-11T16:41:11Z</time></trkpt><trkpt lat="42.2259976493" lon="13.4164313821"><ele>1589.96</ele><time>2026-3-11T16:41:25Z</time></trkpt><trkpt lat="42.2261226363" lon="13.4164236819"><ele>1588.74</ele><time>2026-3-11T16:41:38Z</time></trkpt><trkpt lat="42.2262466270" lon="13.4163547810"><ele>1587.55</ele><time>2026-3-11T16:41:53Z</time></trkpt><trkpt lat="42.2263750735" lon="13.4163130813"><ele>1586.80</ele><time>2026-3-11T16:42:7Z</time></trkpt><trkpt lat="42.2264941163" lon="13.4163627873"><ele>1586.62</ele><time>2026-3-11T16:42:20Z</time></trkpt><trkpt lat="42.2266160175" lon="13.4164443836"><ele>1586.73</ele><time>2026-3-11T16:42:35Z</time></trkpt><trkpt lat="42.2267543542" lon="13.4164808382"><ele>1585.99</ele><time>2026-3-11T16:42:50Z</time></trkpt><trkpt lat="42.2268974539" lon="13.4164762627"><ele>1585.39</ele><time>2026-3-11T16:43:6Z</time></trkpt><trkpt lat="42.2270287380" lon="13.4164711234"><ele>1584.93</ele><time>2026-3-11T16:43:20Z</time></trkpt><trkpt lat="42.2271574122" lon="13.4164972031"><ele>1584.72</ele><time>2026-3-11T16:43:34Z</time></trkpt><trkpt lat="42.2272854578" lon="13.4165404402"><ele>1584.18</ele><time>2026-3-11T16:43:49Z</time></trkpt><trkpt lat="42.2274082736" lon="13.4166118107"><ele>1583.30</ele><time>2026-3-11T16:44:4Z</time></trkpt><trkpt lat="42.2275139664" lon="13.4167206407"><ele>1582.00</ele><time>2026-3-11T16:44:19Z</time></trkpt><trkpt lat="42.2276000809" lon="13.4168561865"><ele>1581.21</ele><time>2026-3-11T16:44:34Z</time></trkpt><trkpt lat="42.2276785854" lon="13.4170379921"><ele>1579.20</ele><time>2026-3-11T16:45:2Z</time></trkpt><trkpt lat="42.2277078643" lon="13.4170941241"><ele>1577.65</ele><time>2026-3-11T16:46:0Z</time></trkpt><trkpt lat="42.2277771402" lon="13.4172859330"><ele>1574.01</ele><time>2026-3-11T16:46:55Z</time></trkpt><trkpt lat="42.2278284710" lon="13.4174272936"><ele>1571.22</ele><time>2026-3-11T16:47:25Z</time></trkpt><trkpt lat="42.2279238701" lon="13.4175564023"><ele>1568.58</ele><time>2026-3-11T16:47:46Z</time></trkpt><trkpt lat="42.2280263293" lon="13.4176754853"><ele>1566.30</ele><time>2026-3-11T16:48:4Z</time></trkpt><trkpt lat="42.2281246342" lon="13.4177929453"><ele>1564.14</ele><time>2026-3-11T16:48:21Z</time></trkpt><trkpt lat="42.2282299809" lon="13.4179011974"><ele>1562.32</ele><time>2026-3-11T16:48:37Z</time></trkpt><trkpt lat="42.2283367423" lon="13.4179974283"><ele>1561.03</ele><time>2026-3-11T16:48:52Z</time></trkpt><trkpt lat="42.2284435015" lon="13.4181073518"><ele>1560.20</ele><time>2026-3-11T16:49:8Z</time></trkpt><trkpt lat="42.2285533254" lon="13.4182083799"><ele>1559.06</ele><time>2026-3-11T16:49:24Z</time></trkpt><trkpt lat="42.2286664937" lon="13.4183054511"><ele>1557.73</ele><time>2026-3-11T16:49:40Z</time></trkpt><trkpt lat="42.2287771516" lon="13.4183919858"><ele>1557.18</ele><time>2026-3-11T16:49:55Z</time></trkpt><trkpt lat="42.2288982879" lon="13.4184735204"><ele>1556.69</ele><time>2026-3-11T16:50:10Z</time></trkpt><trkpt lat="42.2290292551" lon="13.4185226803"><ele>1556.24</ele><time>2026-3-11T16:50:26Z</time></trkpt><trkpt lat="42.2291688566" lon="13.4185678523"><ele>1555.82</ele><time>2026-3-11T16:50:43Z</time></trkpt><trkpt lat="42.2293016827" lon="13.4186252853"><ele>1556.07</ele><time>2026-3-11T16:50:59Z</time></trkpt><trkpt lat="42.2294146894" lon="13.4186330296"><ele>1555.43</ele><time>2026-3-11T16:51:40Z</time></trkpt></trkseg><trkseg><trkpt lat="42.1788582578" lon="13.3924969286"><ele>2103.53</ele><time>2026-03-11T13:45:44Z</time><extensions><gpxtpx:TrackPointExtension><gpxtpx:atemp>1.8</gpxtpx:atemp></gpxtpx:TrackPointExtension></extensions></trkpt></trkseg><trkseg><trkpt lat="42.1790485270" lon="13.3923954237"><ele>2103.53</ele><time>2026-03-11T13:45:45Z</time><extensions><gpxtpx:TrackPointExtension><gpxtpx:atemp>1.8</gpxtpx:atemp></gpxtpx:TrackPointExtension></extensions></trkpt><trkpt lat="42.1790537238" lon="13.3924050629"><ele>2103.52</ele><time>2026-03-11T13:45:46Z</time><extensions><gpxtpx:TrackPointExtension><gpxtpx:atemp>1.8</gpxtpx:atemp></gpxtpx:TrackPointExtension></extensions></trkpt><trkpt lat="42.1790248901" lon="13.3923867904"><ele>2103.52</ele><time>2026-03-11T13:45:47Z</time><extensions><gpxtpx:TrackPointExtension><gpxtpx:atemp>1.8</gpxtpx:atemp></gpxtpx:TrackPointExtension></extensions></trkpt><trkpt lat="42.1790092997" lon="13.3923045639"><ele>2103.52</ele><time>2026-03-11T13:45:48Z</time><extensions><gpxtpx:TrackPointExtension><gpxtpx:atemp>1.8</gpxtpx:atemp></gpxtpx:TrackPointExtension></extensions></trkpt><trkpt lat="42.1790107246" lon="13.3923274465"><ele>2103.52</ele><time>2026-03-11T13:45:49Z</time><extensions><gpxtpx:TrackPointExtension><gpxtpx:atemp>1.8</gpxtpx:atemp></gpxtpx:TrackPointExtension></extensions></trkpt><trkpt lat="42.1790033486" lon="13.3923000377"><ele>2103.52</ele><time>2026-03-11T13:45:50Z</time><extensions><gpxtpx:TrackPointExtension><gpxtpx:atemp>1.8</gpxtpx:atemp></gpxtpx:TrackPointExtension></extensions></trkpt><trkpt lat="42.1790011693" lon="13.3923065756"><ele>2103.50</ele><time>2026-03-11T13:45:51Z</time><extensions><gpxtpx:TrackPointExtension><gpxtpx:atemp>1.8</gpxtpx:atemp></gpxtpx:TrackPointExtension></extensions></trkpt><trkpt lat="42.1790001635" lon="13.3923181426"><ele>2103.46</ele><time>2026-03-11T13:45:52Z</time><extensions><gpxtpx:TrackPointExtension><gpxtpx:atemp>1.8</gpxtpx:atemp></gpxtpx:TrackPointExtension></extensions></trkpt><trkpt lat="42.1789942961" lon="13.3923280332"><ele>2103.43</ele><time>2026-03-11T13:45:53Z</time><extensions><gpxtpx:TrackPointExtension><gpxtpx:atemp>1.8</gpxtpx:atemp></gpxtpx:TrackPointExtension></extensions></trkpt><trkpt lat="42.1789852437" lon="13.3923290391"><ele>2103.40</ele><time>2026-03-11T13:45:54Z</time><extensions><gpxtpx:TrackPointExtension><gpxtpx:atemp>1.8</gpxtpx:atemp></gpxtpx:TrackPointExtension></extensions></trkpt><trkpt lat="42.1789758559" lon="13.3923274465"><ele>2103.30</ele><time>2026-03-11T13:45:55Z</time><extensions><gpxtpx:TrackPointExtension><gpxtpx:atemp>1.8</gpxtpx:atemp></gpxtpx:TrackPointExtension></extensions></trkpt><trkpt lat="42.1789674740" lon="13.3923216630"><ele>2103.26</ele><time>2026-03-11T13:45:56Z</time><extensions><gpxtpx:TrackPointExtension><gpxtpx:atemp>1.8</gpxtpx:atemp></gpxtpx:TrackPointExtension></extensions></trkpt><trkpt lat="42.1789606847" lon="13.3923172206"><ele>2103.25</ele><time>2026-03-11T13:45:57Z</time><extensions><gpxtpx:TrackPointExtension><gpxtpx:atemp>1.8</gpxtpx:atemp></gpxtpx:TrackPointExtension></extensions></trkpt><trkpt lat="42.1789558232" lon="13.3923115209"><ele>2103.24</ele><time>2026-03-11T13:45:58Z</time><extensions><gpxtpx:TrackPointExtension><gpxtpx:atemp>1.8</gpxtpx:atemp></gpxtpx:TrackPointExtension></extensions></trkpt><trkpt lat="42.1789508779" lon="13.3923072461"><ele>2103.25</ele><time>2026-03-11T13:45:59Z</time><extensions><gpxtpx:TrackPointExtension><gpxtpx:atemp>1.8</gpxtpx:atemp></gpxtpx:TrackPointExtension></extensions></trkpt><trkpt lat="42.1789446753" lon="13.3923107665"><ele>2103.31</ele><time>2026-03-11T13:46:00Z</time><extensions><gpxtpx:TrackPointExtension><gpxtpx:atemp>1.8</gpxtpx:atemp></gpxtpx:TrackPointExtension></extensions></trkpt><trkpt lat="42.1789335273" lon="13.3923242614"><ele>2103.41</ele><time>2026-03-11T13:46:01Z</time><extensions><gpxtpx:TrackPointExtension><gpxtpx:atemp>1.8</gpxtpx:atemp></gpxtpx:TrackPointExtension></extensions></trkpt><trkpt lat="42.1789235529" lon="13.3923443779"><ele>2103.51</ele><time>2026-03-11T13:46:02Z</time><extensions><gpxtpx:TrackPointExtension><gpxtpx:atemp>1.8</gpxtpx:atemp></gpxtpx:TrackPointExtension></extensions></trkpt><trkpt lat="42.1789176855" lon="13.3923658356"><ele>2103.57</ele><time>2026-03-11T13:46:03Z</time><extensions><gpxtpx:TrackPointExtension><gpxtpx:atemp>1.8</gpxtpx:atemp></gpxtpx:TrackPointExtension></extensions></trkpt><trkpt lat="42.1789186914" lon="13.3923785761"><ele>2103.64</ele><time>2026-03-11T13:46:04Z</time><extensions><gpxtpx:TrackPointExtension><gpxtpx:atemp>1.8</gpxtpx:atemp></gpxtpx:TrackPointExtension></extensions></trkpt><trkpt lat="42.1789214574" lon="13.3923846949"><ele>2103.72</ele><time>2026-03-11T13:46:05Z</time><extensions><gpxtpx:TrackPointExtension><gpxtpx:atemp>1.8</gpxtpx:atemp></gpxtpx:TrackPointExtension></extensions></trkpt><trkpt lat="42.1789264865" lon="13.3924046438"><ele>2103.89</ele><time>2026-03-11T13:46:06Z</time><extensions><gpxtpx:TrackPointExtension><gpxtpx:atemp>1.8</gpxtpx:atemp></gpxtpx:TrackPointExtension></extensions></trkpt><trkpt lat="42.1789352875" lon="13.3924410213"><ele>2103.99</ele><time>2026-03-11T13:46:07Z</time><extensions><gpxtpx:TrackPointExtension><gpxtpx:atemp>1.8</gpxtpx:atemp></gpxtpx:TrackPointExtension></extensions></trkpt><trkpt lat="42.1789514646" lon="13.3924807515"><ele>2104.08</ele><time>2026-03-11T13:46:08Z</time><extensions><gpxtpx:TrackPointExtension><gpxtpx:atemp>1.8</gpxtpx:atemp></gpxtpx:TrackPointExtension></extensions></trkpt><trkpt lat="42.1789530572" lon="13.3924998622"><ele>2104.18</ele><time>2026-03-11T13:46:09Z</time><extensions><gpxtpx:TrackPointExtension><gpxtpx:atemp>1.8</gpxtpx:atemp></gpxtpx:TrackPointExtension></extensions></trkpt><trkpt lat="42.1789496206" lon="13.3925037179"><ele>2104.23</ele><time>2026-03-11T13:46:10Z</time><extensions><gpxtpx:TrackPointExtension><gpxtpx:atemp>1.8</gpxtpx:atemp></gpxtpx:TrackPointExtension></extensions></trkpt><trkpt lat="42.1789399814" lon="13.3925040532"><ele>2104.27</ele><time>2026-03-11T13:46:11Z</time><extensions><gpxtpx:TrackPointExtension><gpxtpx:atemp>1.8</gpxtpx:atemp></gpxtpx:TrackPointExtension></extensions></trkpt><trkpt lat="42.1789389756" lon="13.3925020415"><ele>2104.31</ele><time>2026-03-11T13:46:12Z</time><extensions><gpxtpx:TrackPointExtension><gpxtpx:atemp>1.8</gpxtpx:atemp></gpxtpx:TrackPointExtension></extensions></trkpt><trkpt lat="42.1789359581" lon="13.3925003652"><ele>2104.33</ele><time>2026-03-11T13:46:13Z</time><extensions><gpxtpx:TrackPointExtension><gpxtpx:atemp>1.8</gpxtpx:atemp></gpxtpx:TrackPointExtension></extensions></trkpt><trkpt lat="42.1789296716" lon="13.3925009519"><ele>2104.35</ele><time>2026-03-11T13:46:14Z</time><extensions><gpxtpx:TrackPointExtension><gpxtpx:atemp>1.8</gpxtpx:atemp></gpxtpx:TrackPointExtension></extensions></trkpt><trkpt lat="42.1789255645" lon="13.3925064839"><ele>2104.36</ele><time>2026-03-11T13:46:15Z</time><extensions><gpxtpx:TrackPointExtension><gpxtpx:atemp>1.8</gpxtpx:atemp></gpxtpx:TrackPointExtension></extensions></trkpt><trkpt lat="42.1789288335" lon="13.3925165422"><ele>2104.36</ele><time>2026-03-11T13:46:16Z</time><extensions><gpxtpx:TrackPointExtension><gpxtpx:atemp>1.8</gpxtpx:atemp></gpxtpx:TrackPointExtension></extensions></trkpt><trkpt lat="42.1789297555" lon="13.3925239183"><ele>2104.36</ele><time>2026-03-11T13:46:17Z</time><extensions><gpxtpx:TrackPointExtension><gpxtpx:atemp>1.8</gpxtpx:atemp></gpxtpx:TrackPointExtension></extensions></trkpt><trkpt lat="42.1789269894" lon="13.3925273549"><ele>2104.23</ele><time>2026-03-11T13:46:18Z</time><extensions><gpxtpx:TrackPointExtension><gpxtpx:atemp>1.8</gpxtpx:atemp></gpxtpx:TrackPointExtension></extensions></trkpt><trkpt lat="42.1789179370" lon="13.3925317973"><ele>2104.10</ele><time>2026-03-11T13:46:19Z</time><extensions><gpxtpx:TrackPointExtension><gpxtpx:atemp>1.8</gpxtpx:atemp></gpxtpx:TrackPointExtension></extensions></trkpt><trkpt lat="42.1789142489" lon="13.3925363235"><ele>2104.01</ele><time>2026-03-11T13:46:20Z</time><extensions><gpxtpx:TrackPointExtension><gpxtpx:atemp>1.8</gpxtpx:atemp></gpxtpx:TrackPointExtension></extensions></trkpt><trkpt lat="42.1789134946" lon="13.3925405983"><ele>2103.94</ele><time>2026-03-11T13:46:21Z</time><extensions><gpxtpx:TrackPointExtension><gpxtpx:atemp>1.8</gpxtpx:atemp></gpxtpx:TrackPointExtension></extensions></trkpt><trkpt lat="42.1789134946" lon="13.3925509918"><ele>2103.90</ele><time>2026-03-11T13:46:22Z</time><extensions><gpxtpx:TrackPointExtension><gpxtpx:atemp>1.8</gpxtpx:atemp></gpxtpx:TrackPointExtension></extensions></trkpt><trkpt lat="42.1789092198" lon="13.3925682586"><ele>2103.83</ele><time>2026-03-11T13:46:23Z</time><extensions><gpxtpx:TrackPointExtension><gpxtpx:atemp>1.8</gpxtpx:atemp></gpxtpx:TrackPointExtension></extensions></trkpt><trkpt lat="42.1789048612" lon="13.3925901353"><ele>2103.74</ele><time>2026-03-11T13:46:24Z</time><extensions><gpxtpx:TrackPointExtension><gpxtpx:atemp>1.8</gpxtpx:atemp></gpxtpx:TrackPointExtension></extensions></trkpt><trkpt lat="42.1788997483" lon="13.3926047198"><ele>2103.66</ele><time>2026-03-11T13:46:25Z</time><extensions><gpxtpx:TrackPointExtension><gpxtpx:atemp>1.8</gpxtpx:atemp></gpxtpx:TrackPointExtension></extensions></trkpt><trkpt lat="42.1789018437" lon="13.3926185500"><ele>2103.32</ele><time>2026-03-11T13:46:26Z</time><extensions><gpxtpx:TrackPointExtension><gpxtpx:atemp>1.8</gpxtpx:atemp></gpxtpx:TrackPointExtension></extensions></trkpt><trkpt lat="42.1789156739" lon="13.3926316258"><ele>2102.40</ele><time>2026-03-11T13:46:27Z</time><extensions><gpxtpx:TrackPointExtension><gpxtpx:atemp>1.8</gpxtpx:atemp></gpxtpx:TrackPointExtension></extensions></trkpt><trkpt lat="42.1789351199" lon="13.3926344756"><ele>2101.57</ele><time>2026-03-11T13:46:28Z</time><extensions><gpxtpx:TrackPointExtension><gpxtpx:atemp>1.8</gpxtpx:atemp></gpxtpx:TrackPointExtension></extensions></trkpt><trkpt lat="42.1789547335" lon="13.3926221542"><ele>2099.26</ele><time>2026-03-11T13:46:29Z</time><extensions><gpxtpx:TrackPointExtension><gpxtpx:atemp>1.8</gpxtpx:atemp></gpxtpx:TrackPointExtension></extensions></trkpt><trkpt lat="42.1789641213" lon="13.3926018700"><ele>2098.66</ele><time>2026-03-11T13:46:30Z</time><extensions><gpxtpx:TrackPointExtension><gpxtpx:atemp>1.8</gpxtpx:atemp></gpxtpx:TrackPointExtension></extensions></trkpt><trkpt lat="42.1789723355" lon="13.3925886266"><ele>2098.92</ele><time>2026-03-11T13:46:31Z</time><extensions><gpxtpx:TrackPointExtension><gpxtpx:atemp>1.8</gpxtpx:atemp></gpxtpx:TrackPointExtension></extensions></trkpt><trkpt lat="42.1789808851" lon="13.3925769757"><ele>2099.61</ele><time>2026-03-11T13:46:32Z</time><extensions><gpxtpx:TrackPointExtension><gpxtpx:atemp>2.2</gpxtpx:atemp></gpxtpx:TrackPointExtension></extensions></trkpt><trkpt lat="42.1789878421" lon="13.3925590385"><ele>2100.34</ele><time>2026-03-11T13:46:33Z</time><extensions><gpxtpx:TrackPointExtension><gpxtpx:atemp>2.2</gpxtpx:atemp></gpxtpx:TrackPointExtension></extensions></trkpt><trkpt lat="42.1789902728" lon="13.3925377484"><ele>2101.10</ele><time>2026-03-11T13:46:34Z</time><extensions><gpxtpx:TrackPointExtension><gpxtpx:atemp>2.2</gpxtpx:atemp></gpxtpx:TrackPointExtension></extensions></trkpt><trkpt lat="42.1789876744" lon="13.3925227448"><ele>2101.97</ele><time>2026-03-11T13:46:35Z</time><extensions><gpxtpx:TrackPointExtension><gpxtpx:atemp>2.2</gpxtpx:atemp></gpxtpx:TrackPointExtension></extensions></trkpt><trkpt lat="42.1789854951" lon="13.3925164584"><ele>2102.50</ele><time>2026-03-11T13:46:36Z</time><extensions><gpxtpx:TrackPointExtension><gpxtpx:atemp>2.2</gpxtpx:atemp></gpxtpx:TrackPointExtension></extensions></trkpt><trkpt lat="42.1789832320" lon="13.3925125189"><ele>2102.96</ele><time>2026-03-11T13:46:37Z</time><extensions><gpxtpx:TrackPointExtension><gpxtpx:atemp>2.2</gpxtpx:atemp></gpxtpx:TrackPointExtension></extensions></trkpt><trkpt lat="42.1789820585" lon="13.3925087471"><ele>2103.24</ele><time>2026-03-11T13:46:38Z</time><extensions><gpxtpx:TrackPointExtension><gpxtpx:atemp>2.2</gpxtpx:atemp></gpxtpx:TrackPointExtension></extensions></trkpt><trkpt lat="42.1789816394" lon="13.3925048914"><ele>2103.30</ele><time>2026-03-11T13:46:39Z</time><extensions><gpxtpx:TrackPointExtension><gpxtpx:atemp>2.2</gpxtpx:atemp></gpxtpx:TrackPointExtension></extensions></trkpt><trkpt lat="42.1789847407" lon="13.3924985211"><ele>2103.30</ele><time>2026-03-11T13:46:40Z</time><extensions><gpxtpx:TrackPointExtension><gpxtpx:atemp>2.2</gpxtpx:atemp></gpxtpx:TrackPointExtension></extensions></trkpt><trkpt lat="42.1789871715" lon="13.3924880438"><ele>2103.30</ele><time>2026-03-11T13:46:41Z</time><extensions><gpxtpx:TrackPointExtension><gpxtpx:atemp>2.2</gpxtpx:atemp></gpxtpx:TrackPointExtension></extensions></trkpt><trkpt lat="42.1789861657" lon="13.3924773987"><ele>2103.52</ele><time>2026-03-11T13:46:42Z</time><extensions><gpxtpx:TrackPointExtension><gpxtpx:atemp>2.2</gpxtpx:atemp></gpxtpx:TrackPointExtension></extensions></trkpt><trkpt lat="42.1789830644" lon="13.3924692683"><ele>2103.71</ele><time>2026-03-11T13:46:43Z</time><extensions><gpxtpx:TrackPointExtension><gpxtpx:atemp>2.2</gpxtpx:atemp></gpxtpx:TrackPointExtension></extensions></trkpt><trkpt lat="42.1789766941" lon="13.3924668375"><ele>2104.28</ele><time>2026-03-11T13:46:44Z</time><extensions><gpxtpx:TrackPointExtension><gpxtpx:atemp>2.2</gpxtpx:atemp></gpxtpx:TrackPointExtension></extensions></trkpt><trkpt lat="42.1789734252" lon="13.3924683463"><ele>2104.66</ele><time>2026-03-11T13:46:45Z</time><extensions><gpxtpx:TrackPointExtension><gpxtpx:atemp>2.2</gpxtpx:atemp></gpxtpx:TrackPointExtension></extensions></trkpt><trkpt lat="42.1789729223" lon="13.3924677595"><ele>2104.86</ele><time>2026-03-11T13:46:46Z</time><extensions><gpxtpx:TrackPointExtension><gpxtpx:atemp>2.2</gpxtpx:atemp></gpxtpx:TrackPointExtension></extensions></trkpt><trkpt lat="42.1789793763" lon="13.3924675919"><ele>2104.96</ele><time>2026-03-11T13:46:47Z</time><extensions><gpxtpx:TrackPointExtension><gpxtpx:atemp>2.2</gpxtpx:atemp></gpxtpx:TrackPointExtension></extensions></trkpt><trkpt lat="42.1789890993" lon="13.3924645744"><ele>2104.78</ele><time>2026-03-11T13:46:48Z</time><extensions><gpxtpx:TrackPointExtension><gpxtpx:atemp>2.2</gpxtpx:atemp></gpxtpx:TrackPointExtension></extensions></trkpt><trkpt lat="42.1789968945" lon="13.3924630657"><ele>2104.21</ele><time>2026-03-11T13:46:49Z</time><extensions><gpxtpx:TrackPointExtension><gpxtpx:atemp>2.2</gpxtpx:atemp></gpxtpx:TrackPointExtension></extensions></trkpt><trkpt lat="42.1790019237" lon="13.3924609702"><ele>2103.75</ele><time>2026-03-11T13:46:50Z</time><extensions><gpxtpx:TrackPointExtension><gpxtpx:atemp>2.2</gpxtpx:atemp></gpxtpx:TrackPointExtension></extensions></trkpt><trkpt lat="42.1790051926" lon="13.3924576174"><ele>2103.31</ele><time>2026-03-11T13:46:51Z</time><extensions><gpxtpx:TrackPointExtension><gpxtpx:atemp>2.2</gpxtpx:atemp></gpxtpx:TrackPointExtension></extensions></trkpt><trkpt lat="42.1790080424" lon="13.3924534265"><ele>2103.24</ele><time>2026-03-11T13:46:52Z</time><extensions><gpxtpx:TrackPointExtension><gpxtpx:atemp>2.2</gpxtpx:atemp></gpxtpx:TrackPointExtension></extensions></trkpt><trkpt lat="42.1790097188" lon="13.3924484812"><ele>2103.17</ele><time>2026-03-11T13:46:53Z</time><extensions><gpxtpx:TrackPointExtension><gpxtpx:atemp>2.2</gpxtpx:atemp></gpxtpx:TrackPointExtension></extensions></trkpt><trkpt lat="42.1790103894" lon="13.3924462181"><ele>2103.17</ele><time>2026-03-11T13:46:54Z</time><extensions><gpxtpx:TrackPointExtension><gpxtpx:atemp>2.2</gpxtpx:atemp></gpxtpx:TrackPointExtension></extensions></trkpt><trkpt lat="42.1790101379" lon="13.3924446255"><ele>2103.13</ele><time>2026-03-11T13:46:55Z</time><extensions><gpxtpx:TrackPointExtension><gpxtpx:atemp>2.2</gpxtpx:atemp></gpxtpx:TrackPointExtension></extensions></trkpt><trkpt lat="42.1790087968" lon="13.3924434520"><ele>2103.11</ele><time>2026-03-11T13:46:56Z</time><extensions><gpxtpx:TrackPointExtension><gpxtpx:atemp>2.2</gpxtpx:atemp></gpxtpx:TrackPointExtension></extensions></trkpt><trkpt lat="42.1790058631" lon="13.3924412727"><ele>2103.10</ele><time>2026-03-11T13:46:57Z</time><extensions><gpxtpx:TrackPointExtension><gpxtpx:atemp>2.2</gpxtpx:atemp></gpxtpx:TrackPointExtension></extensions></trkpt><trkpt lat="42.1790022589" lon="13.3924402669"><ele>2103.05</ele><time>2026-03-11T13:46:58Z</time><extensions><gpxtpx:TrackPointExtension><gpxtpx:atemp>2.2</gpxtpx:atemp></gpxtpx:TrackPointExtension></extensions></trkpt><trkpt lat="42.1789999958" lon="13.3924401831"><ele>2103.01</ele><time>2026-03-11T13:46:59Z</time><extensions><gpxtpx:TrackPointExtension><gpxtpx:atemp>2.2</gpxtpx:atemp></gpxtpx:TrackPointExtension></extensions></trkpt><trkpt lat="42.1789994929" lon="13.3924408536"><ele>2102.99</ele><time>2026-03-11T13:47:00Z</time><extensions><gpxtpx:TrackPointExtension><gpxtpx:atemp>2.2</gpxtpx:atemp></gpxtpx:TrackPointExtension></extensions></trkpt><trkpt lat="42.1789995767" lon="13.3924407698"><ele>2102.97</ele><time>2026-03-11T13:47:01Z</time><extensions><gpxtpx:TrackPointExtension><gpxtpx:atemp>2.2</gpxtpx:atemp></gpxtpx:TrackPointExtension></extensions></trkpt><trkpt lat="42.1789997444" lon="13.3924406860"><ele>2102.92</ele><time>2026-03-11T13:47:02Z</time><extensions><gpxtpx:TrackPointExtension><gpxtpx:atemp>2.2</gpxtpx:atemp></gpxtpx:TrackPointExtension></extensions></trkpt><trkpt lat="42.1789998282" lon="13.3924404345"><ele>2102.86</ele><time>2026-03-11T13:47:03Z</time><extensions><gpxtpx:TrackPointExtension><gpxtpx:atemp>2.2</gpxtpx:atemp></gpxtpx:TrackPointExtension></extensions></trkpt><trkpt lat="42.1790005825" lon="13.3924389258"><ele>2102.85</ele><time>2026-03-11T13:47:04Z</time><extensions><gpxtpx:TrackPointExtension><gpxtpx:atemp>2.2</gpxtpx:atemp></gpxtpx:TrackPointExtension></extensions></trkpt><trkpt lat="42.1790008340" lon="13.3924366627"><ele>2102.85</ele><time>2026-03-11T13:47:05Z</time><extensions><gpxtpx:TrackPointExtension><gpxtpx:atemp>2.2</gpxtpx:atemp></gpxtpx:TrackPointExtension></extensions></trkpt><trkpt lat="42.1790014207" lon="13.3924333937"><ele>2102.85</ele><time>2026-03-11T13:47:06Z</time><extensions><gpxtpx:TrackPointExtension><gpxtpx:atemp>2.2</gpxtpx:atemp></gpxtpx:TrackPointExtension></extensions></trkpt><trkpt lat="42.1789999958" lon="13.3924325556"><ele>2102.85</ele><time>2026-03-11T13:47:07Z</time><extensions><gpxtpx:TrackPointExtension><gpxtpx:atemp>2.2</gpxtpx:atemp></gpxtpx:TrackPointExtension></extensions></trkpt><trkpt lat="42.1789968945" lon="13.3924348187"><ele>2102.85</ele><time>2026-03-11T13:47:08Z</time><extensions><gpxtpx:TrackPointExtension><gpxtpx:atemp>2.2</gpxtpx:atemp></gpxtpx:TrackPointExtension></extensions></trkpt><trkpt lat="42.1789924521" lon="13.3924406860"><ele>2102.83</ele><time>2026-03-11T13:47:09Z</time><extensions><gpxtpx:TrackPointExtension><gpxtpx:atemp>2.2</gpxtpx:atemp></gpxtpx:TrackPointExtension></extensions></trkpt><trkpt lat="42.1789884288" lon="13.3924481459"><ele>2102.82</ele><time>2026-03-11T13:47:10Z</time><extensions><gpxtpx:TrackPointExtension><gpxtpx:atemp>2.2</gpxtpx:atemp></gpxtpx:TrackPointExtension></extensions></trkpt><trkpt lat="42.1789854951" lon="13.3924565278"><ele>2102.82</ele><time>2026-03-11T13:47:11Z</time><extensions><gpxtpx:TrackPointExtension><gpxtpx:atemp>2.2</gpxtpx:atemp></gpxtpx:TrackPointExtension></extensions></trkpt><trkpt lat="42.1789821424" lon="13.3924635686"><ele>2102.80</ele><time>2026-03-11T13:47:12Z</time><extensions><gpxtpx:TrackPointExtension><gpxtpx:atemp>2.2</gpxtpx:atemp></gpxtpx:TrackPointExtension></extensions></trkpt><trkpt lat="42.1789790411" lon="13.3924670890"><ele>2102.79</ele><time>2026-03-11T13:47:13Z</time><extensions><gpxtpx:TrackPointExtension><gpxtpx:atemp>2.2</gpxtpx:atemp></gpxtpx:TrackPointExtension></extensions></trkpt><trkpt lat="42.1789772809" lon="13.3924665861"><ele>2102.79</ele><time>2026-03-11T13:47:14Z</time><extensions><gpxtpx:TrackPointExtension><gpxtpx:atemp>2.2</gpxtpx:atemp></gpxtpx:TrackPointExtension></extensions></trkpt><trkpt lat="42.1789766941" lon="13.3924663346"><ele>2102.79</ele><time>2026-03-11T13:47:15Z</time><extensions><gpxtpx:TrackPointExtension><gpxtpx:atemp>2.2</gpxtpx:atemp></gpxtpx:TrackPointExtension></extensions></trkpt><trkpt lat="42.1789763588" lon="13.3924669214"><ele>2102.79</ele><time>2026-03-11T13:47:16Z</time><extensions><gpxtpx:TrackPointExtension><gpxtpx:atemp>2.2</gpxtpx:atemp></gpxtpx:TrackPointExtension></extensions></trkpt><trkpt lat="42.1789750177" lon="13.3924693521"><ele>2102.80</ele><time>2026-03-11T13:47:17Z</time><extensions><gpxtpx:TrackPointExtension><gpxtpx:atemp>2.2</gpxtpx:atemp></gpxtpx:TrackPointExtension></extensions></trkpt><trkpt lat="42.1789724194" lon="13.3924706932"><ele>2102.80</ele><time>2026-03-11T13:47:18Z</time><extensions><gpxtpx:TrackPointExtension><gpxtpx:atemp>2.2</gpxtpx:atemp></gpxtpx:TrackPointExtension></extensions></trkpt><trkpt lat="42.1789687313" lon="13.3924710285"><ele>2102.76</ele><time>2026-03-11T13:47:19Z</time><extensions><gpxtpx:TrackPointExtension><gpxtpx:atemp>2.2</gpxtpx:atemp></gpxtpx:TrackPointExtension></extensions></trkpt><trkpt lat="42.1789658815" lon="13.3924699388"><ele>2102.74</ele><time>2026-03-11T13:47:20Z</time><extensions><gpxtpx:TrackPointExtension><gpxtpx:atemp>2.2</gpxtpx:atemp></gpxtpx:TrackPointExtension></extensions></trkpt><trkpt lat="42.1789632831" lon="13.3924689330"><ele>2102.73</ele><time>2026-03-11T13:47:21Z</time><extensions><gpxtpx:TrackPointExtension><gpxtpx:atemp>2.2</gpxtpx:atemp></gpxtpx:TrackPointExtension></extensions></trkpt><trkpt lat="42.1789615229" lon="13.3924665861"><ele>2102.73</ele><time>2026-03-11T13:47:22Z</time><extensions><gpxtpx:TrackPointExtension><gpxtpx:atemp>2.2</gpxtpx:atemp></gpxtpx:TrackPointExtension></extensions></trkpt><trkpt lat="42.1789596789" lon="13.3924637362"><ele>2102.73</ele><time>2026-03-11T13:47:23Z</time><extensions><gpxtpx:TrackPointExtension><gpxtpx:atemp>2.2</gpxtpx:atemp></gpxtpx:TrackPointExtension></extensions></trkpt><trkpt lat="42.1789592598" lon="13.3924600482"><ele>2102.73</ele><time>2026-03-11T13:47:24Z</time><extensions><gpxtpx:TrackPointExtension><gpxtpx:atemp>2.2</gpxtpx:atemp></gpxtpx:TrackPointExtension></extensions></trkpt><trkpt lat="42.1789587568" lon="13.3924593776"><ele>2102.73</ele><time>2026-03-11T13:47:25Z</time><extensions><gpxtpx:TrackPointExtension><gpxtpx:atemp>2.2</gpxtpx:atemp></gpxtpx:TrackPointExtension></extensions></trkpt><trkpt lat="42.1789557394" lon="13.3924562763"><ele>2102.72</ele><time>2026-03-11T13:47:26Z</time><extensions><gpxtpx:TrackPointExtension><gpxtpx:atemp>2.2</gpxtpx:atemp></gpxtpx:TrackPointExtension></extensions></trkpt><trkpt lat="42.1789505426" lon="13.3924522530"><ele>2102.71</ele><time>2026-03-11T13:47:27Z</time><extensions><gpxtpx:TrackPointExtension><gpxtpx:atemp>2.2</gpxtpx:atemp></gpxtpx:TrackPointExtension></extensions></trkpt><trkpt lat="42.1789453458" lon="13.3924480621"><ele>2102.71</ele><time>2026-03-11T13:47:28Z</time><extensions><gpxtpx:TrackPointExtension><gpxtpx:atemp>2.2</gpxtpx:atemp></gpxtpx:TrackPointExtension></extensions></trkpt><trkpt lat="42.1789413225" lon="13.3924485650"><ele>2102.71</ele><time>2026-03-11T13:47:29Z</time><extensions><gpxtpx:TrackPointExtension><gpxtpx:atemp>2.2</gpxtpx:atemp></gpxtpx:TrackPointExtension></extensions></trkpt><trkpt lat="42.1789383888" lon="13.3924511634"><ele>2102.71</ele><time>2026-03-11T13:47:30Z</time><extensions><gpxtpx:TrackPointExtension><gpxtpx:atemp>2.2</gpxtpx:atemp></gpxtpx:TrackPointExtension></extensions></trkpt><trkpt lat="42.1789359581" lon="13.3924534265"><ele>2102.71</ele><time>2026-03-11T13:47:31Z</time><extensions><gpxtpx:TrackPointExtension><gpxtpx:atemp>2.2</gpxtpx:atemp></gpxtpx:TrackPointExtension></extensions></trkpt><trkpt lat="42.1789355390" lon="13.3924517501"><ele>2102.75</ele><time>2026-03-11T13:47:32Z</time><extensions><gpxtpx:TrackPointExtension><gpxtpx:atemp>2.4</gpxtpx:atemp></gpxtpx:TrackPointExtension></extensions></trkpt><trkpt lat="42.1789362933" lon="13.3924491517"><ele>2102.82</ele><time>2026-03-11T13:47:33Z</time><extensions><gpxtpx:TrackPointExtension><gpxtpx:atemp>2.4</gpxtpx:atemp></gpxtpx:TrackPointExtension></extensions></trkpt><trkpt lat="42.1789380535" lon="13.3924447931"><ele>2102.85</ele><time>2026-03-11T13:47:34Z</time><extensions><gpxtpx:TrackPointExtension><gpxtpx:atemp>2.4</gpxtpx:atemp></gpxtpx:TrackPointExtension></extensions></trkpt><trkpt lat="42.1789384726" lon="13.3924431168"><ele>2102.85</ele><time>2026-03-11T13:47:35Z</time><extensions><gpxtpx:TrackPointExtension><gpxtpx:atemp>2.4</gpxtpx:atemp></gpxtpx:TrackPointExtension></extensions></trkpt><trkpt lat="42.1789386403" lon="13.3924413566"><ele>2102.87</ele><time>2026-03-11T13:47:36Z</time><extensions><gpxtpx:TrackPointExtension><gpxtpx:atemp>2.4</gpxtpx:atemp></gpxtpx:TrackPointExtension></extensions></trkpt><trkpt lat="42.1789380535" lon="13.3924392611"><ele>2102.89</ele><time>2026-03-11T13:47:37Z</time><extensions><gpxtpx:TrackPointExtension><gpxtpx:atemp>2.4</gpxtpx:atemp></gpxtpx:TrackPointExtension></extensions></trkpt><trkpt lat="42.1789378859" lon="13.3924356569"><ele>2102.90</ele><time>2026-03-11T13:47:38Z</time><extensions><gpxtpx:TrackPointExtension><gpxtpx:atemp>2.4</gpxtpx:atemp></gpxtpx:TrackPointExtension></extensions></trkpt><trkpt lat="42.1789366286" lon="13.3924316335"><ele>2102.90</ele><time>2026-03-11T13:47:39Z</time><extensions><gpxtpx:TrackPointExtension><gpxtpx:atemp>2.4</gpxtpx:atemp></gpxtpx:TrackPointExtension></extensions></trkpt><trkpt lat="42.1789339464" lon="13.3924259339"><ele>2102.92</ele><time>2026-03-11T13:47:40Z</time><extensions><gpxtpx:TrackPointExtension><gpxtpx:atemp>2.4</gpxtpx:atemp></gpxtpx:TrackPointExtension></extensions></trkpt><trkpt lat="42.1789319348" lon="13.3924193960"><ele>2102.94</ele><time>2026-03-11T13:47:41Z</time><extensions><gpxtpx:TrackPointExtension><gpxtpx:atemp>2.4</gpxtpx:atemp></gpxtpx:TrackPointExtension></extensions></trkpt><trkpt lat="42.1789289173" lon="13.3924131934"><ele>2102.95</ele><time>2026-03-11T13:47:42Z</time><extensions><gpxtpx:TrackPointExtension><gpxtpx:atemp>2.4</gpxtpx:atemp></gpxtpx:TrackPointExtension></extensions></trkpt><trkpt lat="42.1789265703" lon="13.3924092539"><ele>2102.95</ele><time>2026-03-11T13:47:43Z</time><extensions><gpxtpx:TrackPointExtension><gpxtpx:atemp>2.4</gpxtpx:atemp></gpxtpx:TrackPointExtension></extensions></trkpt><trkpt lat="42.1789219603" lon="13.3924074937"><ele>2102.96</ele><time>2026-03-11T13:47:44Z</time><extensions><gpxtpx:TrackPointExtension><gpxtpx:atemp>2.4</gpxtpx:atemp></gpxtpx:TrackPointExtension></extensions></trkpt><trkpt lat="42.1789187752" lon="13.3924056496"><ele>2102.97</ele><time>2026-03-11T13:47:45Z</time><extensions><gpxtpx:TrackPointExtension><gpxtpx:atemp>2.4</gpxtpx:atemp></gpxtpx:TrackPointExtension></extensions></trkpt><trkpt lat="42.1789163444" lon="13.3924051467"><ele>2102.97</ele><time>2026-03-11T13:47:46Z</time><extensions><gpxtpx:TrackPointExtension><gpxtpx:atemp>2.4</gpxtpx:atemp></gpxtpx:TrackPointExtension></extensions></trkpt><trkpt lat="42.1789151710" lon="13.3924072422"><ele>2102.97</ele><time>2026-03-11T13:47:47Z</time><extensions><gpxtpx:TrackPointExtension><gpxtpx:atemp>2.4</gpxtpx:atemp></gpxtpx:TrackPointExtension></extensions></trkpt><trkpt lat="42.1789132431" lon="13.3924118523"><ele>2102.97</ele><time>2026-03-11T13:47:48Z</time><extensions><gpxtpx:TrackPointExtension><gpxtpx:atemp>2.4</gpxtpx:atemp></gpxtpx:TrackPointExtension></extensions></trkpt><trkpt lat="42.1789104771" lon="13.3924178872"><ele>2102.99</ele><time>2026-03-11T13:47:49Z</time><extensions><gpxtpx:TrackPointExtension><gpxtpx:atemp>2.4</gpxtpx:atemp></gpxtpx:TrackPointExtension></extensions></trkpt><trkpt lat="42.1789057832" lon="13.3924259339"><ele>2103.00</ele><time>2026-03-11T13:47:50Z</time><extensions><gpxtpx:TrackPointExtension><gpxtpx:atemp>2.4</gpxtpx:atemp></gpxtpx:TrackPointExtension></extensions></trkpt><trkpt lat="42.1788999997" lon="13.3924362436"><ele>2103.02</ele><time>2026-03-11T13:47:51Z</time><extensions><gpxtpx:TrackPointExtension><gpxtpx:atemp>2.4</gpxtpx:atemp></gpxtpx:TrackPointExtension></extensions></trkpt><trkpt lat="42.1788928751" lon="13.3924472239"><ele>2103.06</ele><time>2026-03-11T13:47:52Z</time><extensions><gpxtpx:TrackPointExtension><gpxtpx:atemp>2.4</gpxtpx:atemp></gpxtpx:TrackPointExtension></extensions></trkpt><trkpt lat="42.1788854990" lon="13.3924574498"><ele>2103.12</ele><time>2026-03-11T13:47:53Z</time><extensions><gpxtpx:TrackPointExtension><gpxtpx:atemp>2.4</gpxtpx:atemp></gpxtpx:TrackPointExtension></extensions></trkpt><trkpt lat="42.1788776200" lon="13.3924677595"><ele>2103.19</ele><time>2026-03-11T13:47:54Z</time><extensions><gpxtpx:TrackPointExtension><gpxtpx:atemp>2.4</gpxtpx:atemp></gpxtpx:TrackPointExtension></extensions></trkpt><trkpt lat="42.1788707469" lon="13.3924778178"><ele>2103.24</ele><time>2026-03-11T13:47:55Z</time><extensions><gpxtpx:TrackPointExtension><gpxtpx:atemp>2.4</gpxtpx:atemp></gpxtpx:TrackPointExtension></extensions></trkpt><trkpt lat="42.1788654663" lon="13.3924873732"><ele>2103.26</ele><time>2026-03-11T13:47:56Z</time><extensions><gpxtpx:TrackPointExtension><gpxtpx:atemp>2.4</gpxtpx:atemp></gpxtpx:TrackPointExtension></extensions></trkpt><trkpt lat="42.1788615268" lon="13.3924950846"><ele>2103.27</ele><time>2026-03-11T13:47:57Z</time><extensions><gpxtpx:TrackPointExtension><gpxtpx:atemp>2.4</gpxtpx:atemp></gpxtpx:TrackPointExtension></extensions></trkpt><trkpt lat="42.1788572520" lon="13.3925027959"><ele>2103.30</ele><time>2026-03-11T13:47:58Z</time><extensions><gpxtpx:TrackPointExtension><gpxtpx:atemp>2.4</gpxtpx:atemp></gpxtpx:TrackPointExtension></extensions></trkpt><trkpt lat="42.1788531449" lon="13.3925082441"><ele>2103.35</ele><time>2026-03-11T13:47:59Z</time><extensions><gpxtpx:TrackPointExtension><gpxtpx:atemp>2.4</gpxtpx:atemp></gpxtpx:TrackPointExtension></extensions></trkpt><trkpt lat="42.1788480319" lon="13.3925134409"><ele>2103.37</ele><time>2026-03-11T13:48:00Z</time><extensions><gpxtpx:TrackPointExtension><gpxtpx:atemp>2.4</gpxtpx:atemp></gpxtpx:TrackPointExtension></extensions></trkpt><trkpt lat="42.1788430866" lon="13.3925190568"><ele>2103.37</ele><time>2026-03-11T13:48:01Z</time><extensions><gpxtpx:TrackPointExtension><gpxtpx:atemp>2.4</gpxtpx:atemp></gpxtpx:TrackPointExtension></extensions></trkpt><trkpt lat="42.1788366325" lon="13.3925258461"><ele>2103.37</ele><time>2026-03-11T13:48:02Z</time><extensions><gpxtpx:TrackPointExtension><gpxtpx:atemp>2.4</gpxtpx:atemp></gpxtpx:TrackPointExtension></extensions></trkpt><trkpt lat="42.1788305975" lon="13.3925324678"><ele>2103.37</ele><time>2026-03-11T13:48:03Z</time><extensions><gpxtpx:TrackPointExtension><gpxtpx:atemp>2.4</gpxtpx:atemp></gpxtpx:TrackPointExtension></extensions></trkpt><trkpt lat="42.1788248979" lon="13.3925374970"><ele>2103.36</ele><time>2026-03-11T13:48:04Z</time><extensions><gpxtpx:TrackPointExtension><gpxtpx:atemp>2.4</gpxtpx:atemp></gpxtpx:TrackPointExtension></extensions></trkpt><trkpt lat="42.1788208745" lon="13.3925410174"><ele>2103.35</ele><time>2026-03-11T13:48:05Z</time><extensions><gpxtpx:TrackPointExtension><gpxtpx:atemp>2.4</gpxtpx:atemp></gpxtpx:TrackPointExtension></extensions></trkpt><trkpt lat="42.1788158454" lon="13.3925466333"><ele>2103.34</ele><time>2026-03-11T13:48:06Z</time><extensions><gpxtpx:TrackPointExtension><gpxtpx:atemp>2.4</gpxtpx:atemp></gpxtpx:TrackPointExtension></extensions></trkpt><trkpt lat="42.1788108163" lon="13.3925531711"><ele>2103.34</ele><time>2026-03-11T13:48:07Z</time><extensions><gpxtpx:TrackPointExtension><gpxtpx:atemp>2.4</gpxtpx:atemp></gpxtpx:TrackPointExtension></extensions></trkpt><trkpt lat="42.1788051166" lon="13.3925611340"><ele>2103.33</ele><time>2026-03-11T13:48:08Z</time><extensions><gpxtpx:TrackPointExtension><gpxtpx:atemp>2.4</gpxtpx:atemp></gpxtpx:TrackPointExtension></extensions></trkpt><trkpt lat="42.1787995845" lon="13.3925671689"><ele>2103.33</ele><time>2026-03-11T13:48:09Z</time><extensions><gpxtpx:TrackPointExtension><gpxtpx:atemp>2.4</gpxtpx:atemp></gpxtpx:TrackPointExtension></extensions></trkpt><trkpt lat="42.1787924599" lon="13.3925691806"><ele>2103.34</ele><time>2026-03-11T13:48:10Z</time><extensions><gpxtpx:TrackPointExtension><gpxtpx:atemp>2.4</gpxtpx:atemp></gpxtpx:TrackPointExtension></extensions></trkpt><trkpt lat="42.1787850838" lon="13.3925706893"><ele>2103.37</ele><time>2026-03-11T13:48:11Z</time><extensions><gpxtpx:TrackPointExtension><gpxtpx:atemp>2.4</gpxtpx:atemp></gpxtpx:TrackPointExtension></extensions></trkpt><trkpt lat="42.1787788812" lon="13.3925764728"><ele>2103.38</ele><time>2026-03-11T13:48:12Z</time><extensions><gpxtpx:TrackPointExtension><gpxtpx:atemp>2.4</gpxtpx:atemp></gpxtpx:TrackPointExtension></extensions></trkpt><trkpt lat="42.1787811443" lon="13.3925912250"><ele>2103.35</ele><time>2026-03-11T13:48:13Z</time><extensions><gpxtpx:TrackPointExtension><gpxtpx:atemp>2.4</gpxtpx:atemp></gpxtpx:TrackPointExtension></extensions></trkpt><trkpt lat="42.1787827369" lon="13.3926043846"><ele>2103.34</ele><time>2026-03-11T13:48:14Z</time><extensions><gpxtpx:TrackPointExtension><gpxtpx:atemp>2.4</gpxtpx:atemp></gpxtpx:TrackPointExtension></extensions></trkpt><trkpt lat="42.1787878498" lon="13.3926103357"><ele>2103.34</ele><time>2026-03-11T13:48:15Z</time><extensions><gpxtpx:TrackPointExtension><gpxtpx:atemp>2.4</gpxtpx:atemp></gpxtpx:TrackPointExtension></extensions></trkpt><trkpt lat="42.1787902806" lon="13.3926038817"><ele>2103.34</ele><time>2026-03-11T13:48:16Z</time><extensions><gpxtpx:TrackPointExtension><gpxtpx:atemp>2.4</gpxtpx:atemp></gpxtpx:TrackPointExtension></extensions></trkpt><trkpt lat="42.1787917893" lon="13.3925996907"><ele>2103.34</ele><time>2026-03-11T13:48:17Z</time><extensions><gpxtpx:TrackPointExtension><gpxtpx:atemp>2.4</gpxtpx:atemp></gpxtpx:TrackPointExtension></extensions></trkpt><trkpt lat="42.1787868440" lon="13.3926030435"><ele>2103.34</ele><time>2026-03-11T13:48:18Z</time><extensions><gpxtpx:TrackPointExtension><gpxtpx:atemp>2.4</gpxtpx:atemp></gpxtpx:TrackPointExtension></extensions></trkpt><trkpt lat="42.1787767857" lon="13.3926171251"><ele>2103.34</ele><time>2026-03-11T13:48:19Z</time><extensions><gpxtpx:TrackPointExtension><gpxtpx:atemp>2.4</gpxtpx:atemp></gpxtpx:TrackPointExtension></extensions></trkpt><trkpt lat="42.1787695773" lon="13.3926352300"><ele>2103.35</ele><time>2026-03-11T13:48:20Z</time><extensions><gpxtpx:TrackPointExtension><gpxtpx:atemp>2.4</gpxtpx:atemp></gpxtpx:TrackPointExtension></extensions></trkpt><trkpt lat="42.1787648834" lon="13.3926477190"><ele>2103.37</ele><time>2026-03-11T13:48:21Z</time><extensions><gpxtpx:TrackPointExtension><gpxtpx:atemp>2.4</gpxtpx:atemp></gpxtpx:TrackPointExtension></extensions></trkpt><trkpt lat="42.1787618659" lon="13.3926562686"><ele>2103.38</ele><time>2026-03-11T13:48:22Z</time><extensions><gpxtpx:TrackPointExtension><gpxtpx:atemp>2.4</gpxtpx:atemp></gpxtpx:TrackPointExtension></extensions></trkpt><trkpt lat="42.1787589323" lon="13.3926600404"><ele>2103.38</ele><time>2026-03-11T13:48:23Z</time><extensions><gpxtpx:TrackPointExtension><gpxtpx:atemp>2.4</gpxtpx:atemp></gpxtpx:TrackPointExtension></extensions></trkpt><trkpt lat="42.1787574235" lon="13.3926621359"><ele>2103.38</ele><time>2026-03-11T13:48:24Z</time><extensions><gpxtpx:TrackPointExtension><gpxtpx:atemp>2.4</gpxtpx:atemp></gpxtpx:TrackPointExtension></extensions></trkpt><trkpt lat="42.1787572559" lon="13.3926635608"><ele>2103.38</ele><time>2026-03-11T13:48:25Z</time><extensions><gpxtpx:TrackPointExtension><gpxtpx:atemp>2.4</gpxtpx:atemp></gpxtpx:TrackPointExtension></extensions></trkpt><trkpt lat="42.1787588485" lon="13.3926638961"><ele>2103.38</ele><time>2026-03-11T13:48:26Z</time><extensions><gpxtpx:TrackPointExtension><gpxtpx:atemp>2.4</gpxtpx:atemp></gpxtpx:TrackPointExtension></extensions></trkpt><trkpt lat="42.1787583455" lon="13.3926673327"><ele>2103.38</ele><time>2026-03-11T13:48:27Z</time><extensions><gpxtpx:TrackPointExtension><gpxtpx:atemp>2.4</gpxtpx:atemp></gpxtpx:TrackPointExtension></extensions></trkpt><trkpt lat="42.1787600219" lon="13.3926702663"><ele>2103.38</ele><time>2026-03-11T13:48:28Z</time><extensions><gpxtpx:TrackPointExtension><gpxtpx:atemp>2.4</gpxtpx:atemp></gpxtpx:TrackPointExtension></extensions></trkpt><trkpt lat="42.1787600219" lon="13.3926732838"><ele>2103.37</ele><time>2026-03-11T13:48:29Z</time><extensions><gpxtpx:TrackPointExtension><gpxtpx:atemp>2.4</gpxtpx:atemp></gpxtpx:TrackPointExtension></extensions></trkpt><trkpt lat="42.1787620336" lon="13.3926721942"><ele>2103.37</ele><time>2026-03-11T13:48:30Z</time><extensions><gpxtpx:TrackPointExtension><gpxtpx:atemp>2.4</gpxtpx:atemp></gpxtpx:TrackPointExtension></extensions></trkpt><trkpt lat="42.1787612792" lon="13.3926713560"><ele>2103.37</ele><time>2026-03-11T13:48:31Z</time><extensions><gpxtpx:TrackPointExtension><gpxtpx:atemp>2.4</gpxtpx:atemp></gpxtpx:TrackPointExtension></extensions></trkpt><trkpt lat="42.1787611954" lon="13.3926700987"><ele>2103.37</ele><time>2026-03-11T13:48:32Z</time><extensions><gpxtpx:TrackPointExtension><gpxtpx:atemp>2.5</gpxtpx:atemp></gpxtpx:TrackPointExtension></extensions></trkpt><trkpt lat="42.1787609439" lon="13.3926701825"><ele>2103.37</ele><time>2026-03-11T13:48:33Z</time><extensions><gpxtpx:TrackPointExtension><gpxtpx:atemp>2.5</gpxtpx:atemp></gpxtpx:TrackPointExtension></extensions></trkpt><trkpt lat="42.1787609439" lon="13.3926701825"><ele>2103.38</ele><time>2026-03-11T13:48:34Z</time><extensions><gpxtpx:TrackPointExtension><gpxtpx:atemp>2.5</gpxtpx:atemp></gpxtpx:TrackPointExtension></extensions></trkpt><trkpt lat="42.1787609439" lon="13.3926700987"><ele>2103.40</ele><time>2026-03-11T13:48:35Z</time><extensions><gpxtpx:TrackPointExtension><gpxtpx:atemp>2.5</gpxtpx:atemp></gpxtpx:TrackPointExtension></extensions></trkpt><trkpt lat="42.1787609439" lon="13.3926700987"><ele>2103.42</ele><time>2026-03-11T13:48:36Z</time><extensions><gpxtpx:TrackPointExtension><gpxtpx:atemp>2.5</gpxtpx:atemp></gpxtpx:TrackPointExtension></extensions></trkpt><trkpt lat="42.1787609439" lon="13.3926700987"><ele>2103.44</ele><time>2026-03-11T13:48:37Z</time><extensions><gpxtpx:TrackPointExtension><gpxtpx:atemp>2.5</gpxtpx:atemp></gpxtpx:TrackPointExtension></extensions></trkpt><trkpt lat="42.1787609439" lon="13.3926700987"><ele>2103.45</ele><time>2026-03-11T13:48:38Z</time><extensions><gpxtpx:TrackPointExtension><gpxtpx:atemp>2.5</gpxtpx:atemp></gpxtpx:TrackPointExtension></extensions></trkpt><trkpt lat="42.1787608601" lon="13.3926700987"><ele>2103.46</ele><time>2026-03-11T13:48:39Z</time><extensions><gpxtpx:TrackPointExtension><gpxtpx:atemp>2.5</gpxtpx:atemp></gpxtpx:TrackPointExtension></extensions></trkpt><trkpt lat="42.1787608601" lon="13.3926699311"><ele>2103.46</ele><time>2026-03-11T13:48:40Z</time><extensions><gpxtpx:TrackPointExtension><gpxtpx:atemp>2.5</gpxtpx:atemp></gpxtpx:TrackPointExtension></extensions></trkpt><trkpt lat="42.1787607763" lon="13.3926699311"><ele>2103.46</ele><time>2026-03-11T13:48:41Z</time><extensions><gpxtpx:TrackPointExtension><gpxtpx:atemp>2.5</gpxtpx:atemp></gpxtpx:TrackPointExtension></extensions></trkpt><trkpt lat="42.1787607763" lon="13.3926700987"><ele>2103.46</ele><time>2026-03-11T13:48:42Z</time><extensions><gpxtpx:TrackPointExtension><gpxtpx:atemp>2.5</gpxtpx:atemp></gpxtpx:TrackPointExtension></extensions></trkpt><trkpt lat="42.1787606925" lon="13.3926699311"><ele>2103.46</ele><time>2026-03-11T13:48:43Z</time><extensions><gpxtpx:TrackPointExtension><gpxtpx:atemp>2.5</gpxtpx:atemp></gpxtpx:TrackPointExtension></extensions></trkpt><trkpt lat="42.1787606925" lon="13.3926699311"><ele>2103.44</ele><time>2026-03-11T13:48:44Z</time><extensions><gpxtpx:TrackPointExtension><gpxtpx:atemp>2.5</gpxtpx:atemp></gpxtpx:TrackPointExtension></extensions></trkpt><trkpt lat="42.1787605248" lon="13.3926699311"><ele>2103.45</ele><time>2026-03-11T13:48:45Z</time><extensions><gpxtpx:TrackPointExtension><gpxtpx:atemp>2.5</gpxtpx:atemp></gpxtpx:TrackPointExtension></extensions></trkpt><trkpt lat="42.1787607763" lon="13.3926698472"><ele>2103.45</ele><time>2026-03-11T13:48:46Z</time><extensions><gpxtpx:TrackPointExtension><gpxtpx:atemp>2.5</gpxtpx:atemp></gpxtpx:TrackPointExtension></extensions></trkpt><trkpt lat="42.1787608601" lon="13.3926698472"><ele>2103.52</ele><time>2026-03-11T13:48:47Z</time><extensions><gpxtpx:TrackPointExtension><gpxtpx:atemp>2.5</gpxtpx:atemp></gpxtpx:TrackPointExtension></extensions></trkpt><trkpt lat="42.1787610278" lon="13.3926697634"><ele>2103.54</ele><time>2026-03-11T13:48:48Z</time><extensions><gpxtpx:TrackPointExtension><gpxtpx:atemp>2.5</gpxtpx:atemp></gpxtpx:TrackPointExtension></extensions></trkpt><trkpt lat="42.1787610278" lon="13.3926697634"><ele>2103.54</ele><time>2026-03-11T13:48:49Z</time><extensions><gpxtpx:TrackPointExtension><gpxtpx:atemp>2.5</gpxtpx:atemp></gpxtpx:TrackPointExtension></extensions></trkpt><trkpt lat="42.1787610278" lon="13.3926697634"><ele>2103.54</ele><time>2026-03-11T13:48:50Z</time><extensions><gpxtpx:TrackPointExtension><gpxtpx:atemp>2.5</gpxtpx:atemp></gpxtpx:TrackPointExtension></extensions></trkpt><trkpt lat="42.1787611954" lon="13.3926696796"><ele>2103.49</ele><time>2026-03-11T13:48:51Z</time><extensions><gpxtpx:TrackPointExtension><gpxtpx:atemp>2.5</gpxtpx:atemp></gpxtpx:TrackPointExtension></extensions></trkpt><trkpt lat="42.1787614468" lon="13.3926696796"><ele>2103.41</ele><time>2026-03-11T13:48:52Z</time><extensions><gpxtpx:TrackPointExtension><gpxtpx:atemp>2.5</gpxtpx:atemp></gpxtpx:TrackPointExtension></extensions></trkpt><trkpt lat="42.1787617821" lon="13.3926695958"><ele>2103.33</ele><time>2026-03-11T13:48:53Z</time><extensions><gpxtpx:TrackPointExtension><gpxtpx:atemp>2.5</gpxtpx:atemp></gpxtpx:TrackPointExtension></extensions></trkpt><trkpt lat="42.1787646320" lon="13.3926679194"><ele>2103.24</ele><time>2026-03-11T13:48:54Z</time><extensions><gpxtpx:TrackPointExtension><gpxtpx:atemp>2.5</gpxtpx:atemp></gpxtpx:TrackPointExtension></extensions></trkpt><trkpt lat="42.1787692420" lon="13.3926646505"><ele>2103.18</ele><time>2026-03-11T13:48:55Z</time><extensions><gpxtpx:TrackPointExtension><gpxtpx:atemp>2.5</gpxtpx:atemp></gpxtpx:TrackPointExtension></extensions></trkpt><trkpt lat="42.1787754446" lon="13.3926601242"><ele>2103.12</ele><time>2026-03-11T13:48:56Z</time><extensions><gpxtpx:TrackPointExtension><gpxtpx:atemp>2.5</gpxtpx:atemp></gpxtpx:TrackPointExtension></extensions></trkpt><trkpt lat="42.1787791327" lon="13.3926569391"><ele>2103.07</ele><time>2026-03-11T13:48:57Z</time><extensions><gpxtpx:TrackPointExtension><gpxtpx:atemp>2.5</gpxtpx:atemp></gpxtpx:TrackPointExtension></extensions></trkpt><trkpt lat="42.1787802223" lon="13.3926556818"><ele>2103.01</ele><time>2026-03-11T13:48:58Z</time><extensions><gpxtpx:TrackPointExtension><gpxtpx:atemp>2.5</gpxtpx:atemp></gpxtpx:TrackPointExtension></extensions></trkpt><trkpt lat="42.1787795518" lon="13.3926557656"><ele>2103.00</ele><time>2026-03-11T13:48:59Z</time><extensions><gpxtpx:TrackPointExtension><gpxtpx:atemp>2.5</gpxtpx:atemp></gpxtpx:TrackPointExtension></extensions></trkpt><trkpt lat="42.1787789650" lon="13.3926560171"><ele>2102.99</ele><time>2026-03-11T13:49:00Z</time><extensions><gpxtpx:TrackPointExtension><gpxtpx:atemp>2.5</gpxtpx:atemp></gpxtpx:TrackPointExtension></extensions></trkpt><trkpt lat="42.1787790488" lon="13.3926559333"><ele>2102.98</ele><time>2026-03-11T13:49:01Z</time><extensions><gpxtpx:TrackPointExtension><gpxtpx:atemp>2.5</gpxtpx:atemp></gpxtpx:TrackPointExtension></extensions></trkpt><trkpt lat="42.1787794679" lon="13.3926558495"><ele>2102.98</ele><time>2026-03-11T13:49:02Z</time><extensions><gpxtpx:TrackPointExtension><gpxtpx:atemp>2.5</gpxtpx:atemp></gpxtpx:TrackPointExtension></extensions></trkpt><trkpt lat="42.1787800547" lon="13.3926557656"><ele>2102.98</ele><time>2026-03-11T13:49:03Z</time><extensions><gpxtpx:TrackPointExtension><gpxtpx:atemp>2.5</gpxtpx:atemp></gpxtpx:TrackPointExtension></extensions></trkpt><trkpt lat="42.1787823178" lon="13.3926539216"><ele>2102.98</ele><time>2026-03-11T13:49:04Z</time><extensions><gpxtpx:TrackPointExtension><gpxtpx:atemp>2.5</gpxtpx:atemp></gpxtpx:TrackPointExtension></extensions></trkpt><trkpt lat="42.1787856705" lon="13.3926511556"><ele>2102.98</ele><time>2026-03-11T13:49:05Z</time><extensions><gpxtpx:TrackPointExtension><gpxtpx:atemp>2.5</gpxtpx:atemp></gpxtpx:TrackPointExtension></extensions></trkpt><trkpt lat="42.1787897777" lon="13.3926470485"><ele>2102.97</ele><time>2026-03-11T13:49:06Z</time><extensions><gpxtpx:TrackPointExtension><gpxtpx:atemp>2.5</gpxtpx:atemp></gpxtpx:TrackPointExtension></extensions></trkpt><trkpt lat="42.1787930466" lon="13.3926442824"><ele>2102.97</ele><time>2026-03-11T13:49:07Z</time><extensions><gpxtpx:TrackPointExtension><gpxtpx:atemp>2.5</gpxtpx:atemp></gpxtpx:TrackPointExtension></extensions></trkpt><trkpt lat="42.1787962317" lon="13.3926414326"><ele>2102.92</ele><time>2026-03-11T13:49:08Z</time><extensions><gpxtpx:TrackPointExtension><gpxtpx:atemp>2.5</gpxtpx:atemp></gpxtpx:TrackPointExtension></extensions></trkpt><trkpt lat="42.1787979919" lon="13.3926394209"><ele>2102.89</ele><time>2026-03-11T13:49:09Z</time><extensions><gpxtpx:TrackPointExtension><gpxtpx:atemp>2.5</gpxtpx:atemp></gpxtpx:TrackPointExtension></extensions></trkpt><trkpt lat="42.1787981596" lon="13.3926373255"><ele>2102.89</ele><time>2026-03-11T13:49:10Z</time><extensions><gpxtpx:TrackPointExtension><gpxtpx:atemp>2.5</gpxtpx:atemp></gpxtpx:TrackPointExtension></extensions></trkpt><trkpt lat="42.1787967347" lon="13.3926355653"><ele>2102.88</ele><time>2026-03-11T13:49:11Z</time><extensions><gpxtpx:TrackPointExtension><gpxtpx:atemp>2.5</gpxtpx:atemp></gpxtpx:TrackPointExtension></extensions></trkpt><trkpt lat="42.1787956450" lon="13.3926345594"><ele>2102.87</ele><time>2026-03-11T13:49:12Z</time><extensions><gpxtpx:TrackPointExtension><gpxtpx:atemp>2.5</gpxtpx:atemp></gpxtpx:TrackPointExtension></extensions></trkpt><trkpt lat="42.1787948906" lon="13.3926343918"><ele>2102.86</ele><time>2026-03-11T13:49:13Z</time><extensions><gpxtpx:TrackPointExtension><gpxtpx:atemp>2.5</gpxtpx:atemp></gpxtpx:TrackPointExtension></extensions></trkpt><trkpt lat="42.1787946392" lon="13.3926357329"><ele>2102.85</ele><time>2026-03-11T13:49:14Z</time><extensions><gpxtpx:TrackPointExtension><gpxtpx:atemp>2.5</gpxtpx:atemp></gpxtpx:TrackPointExtension></extensions></trkpt><trkpt lat="42.1787943877" lon="13.3926366549"><ele>2102.85</ele><time>2026-03-11T13:49:15Z</time><extensions><gpxtpx:TrackPointExtension><gpxtpx:atemp>2.5</gpxtpx:atemp></gpxtpx:TrackPointExtension></extensions></trkpt><trkpt lat="42.1787936334" lon="13.3926378284"><ele>2102.86</ele><time>2026-03-11T13:49:16Z</time><extensions><gpxtpx:TrackPointExtension><gpxtpx:atemp>2.5</gpxtpx:atemp></gpxtpx:TrackPointExtension></extensions></trkpt><trkpt lat="42.1787927952" lon="13.3926389180"><ele>2102.87</ele><time>2026-03-11T13:49:17Z</time><extensions><gpxtpx:TrackPointExtension><gpxtpx:atemp>2.5</gpxtpx:atemp></gpxtpx:TrackPointExtension></extensions></trkpt><trkpt lat="42.1787921246" lon="13.3926397562"><ele>2102.98</ele><time>2026-03-11T13:49:18Z</time><extensions><gpxtpx:TrackPointExtension><gpxtpx:atemp>2.5</gpxtpx:atemp></gpxtpx:TrackPointExtension></extensions></trkpt><trkpt lat="42.1787921246" lon="13.3926397562"><ele>2103.13</ele><time>2026-03-11T13:49:19Z</time><extensions><gpxtpx:TrackPointExtension><gpxtpx:atemp>2.5</gpxtpx:atemp></gpxtpx:TrackPointExtension></extensions></trkpt><trkpt lat="42.1787926275" lon="13.3926387504"><ele>2103.24</ele><time>2026-03-11T13:49:20Z</time><extensions><gpxtpx:TrackPointExtension><gpxtpx:atemp>2.5</gpxtpx:atemp></gpxtpx:TrackPointExtension></extensions></trkpt><trkpt lat="42.1787925437" lon="13.3926378284"><ele>2103.37</ele><time>2026-03-11T13:49:21Z</time><extensions><gpxtpx:TrackPointExtension><gpxtpx:atemp>2.5</gpxtpx:atemp></gpxtpx:TrackPointExtension></extensions></trkpt><trkpt lat="42.1787920408" lon="13.3926351462"><ele>2103.43</ele><time>2026-03-11T13:49:22Z</time><extensions><gpxtpx:TrackPointExtension><gpxtpx:atemp>2.5</gpxtpx:atemp></gpxtpx:TrackPointExtension></extensions></trkpt><trkpt lat="42.1787901968" lon="13.3926326316"><ele>2103.49</ele><time>2026-03-11T13:49:23Z</time><extensions><gpxtpx:TrackPointExtension><gpxtpx:atemp>2.5</gpxtpx:atemp></gpxtpx:TrackPointExtension></extensions></trkpt><trkpt lat="42.1787882689" lon="13.3926311228"><ele>2103.52</ele><time>2026-03-11T13:49:24Z</time><extensions><gpxtpx:TrackPointExtension><gpxtpx:atemp>2.5</gpxtpx:atemp></gpxtpx:TrackPointExtension></extensions></trkpt><trkpt lat="42.1787853353" lon="13.3926322963"><ele>2103.52</ele><time>2026-03-11T13:49:25Z</time><extensions><gpxtpx:TrackPointExtension><gpxtpx:atemp>2.5</gpxtpx:atemp></gpxtpx:TrackPointExtension></extensions></trkpt><trkpt lat="42.1787824854" lon="13.3926353976"><ele>2103.54</ele><time>2026-03-11T13:49:26Z</time><extensions><gpxtpx:TrackPointExtension><gpxtpx:atemp>2.5</gpxtpx:atemp></gpxtpx:TrackPointExtension></extensions></trkpt><trkpt lat="42.1787779592" lon="13.3926367387"><ele>2103.55</ele><time>2026-03-11T13:49:27Z</time><extensions><gpxtpx:TrackPointExtension><gpxtpx:atemp>2.5</gpxtpx:atemp></gpxtpx:TrackPointExtension></extensions></trkpt><trkpt lat="42.1787731815" lon="13.3926358167"><ele>2103.50</ele><time>2026-03-11T13:49:28Z</time><extensions><gpxtpx:TrackPointExtension><gpxtpx:atemp>2.5</gpxtpx:atemp></gpxtpx:TrackPointExtension></extensions></trkpt><trkpt lat="42.1787691582" lon="13.3926312905"><ele>2103.40</ele><time>2026-03-11T13:49:29Z</time><extensions><gpxtpx:TrackPointExtension><gpxtpx:atemp>2.5</gpxtpx:atemp></gpxtpx:TrackPointExtension></extensions></trkpt><trkpt lat="42.1787656378" lon="13.3926304523"><ele>2103.30</ele><time>2026-03-11T13:49:30Z</time><extensions><gpxtpx:TrackPointExtension><gpxtpx:atemp>2.5</gpxtpx:atemp></gpxtpx:TrackPointExtension></extensions></trkpt><trkpt lat="42.1787595190" lon="13.3926364873"><ele>2103.19</ele><time>2026-03-11T13:49:31Z</time><extensions><gpxtpx:TrackPointExtension><gpxtpx:atemp>2.5</gpxtpx:atemp></gpxtpx:TrackPointExtension></extensions></trkpt><trkpt lat="42.1787486225" lon="13.3926512394"><ele>2103.12</ele><time>2026-03-11T13:49:32Z</time><extensions><gpxtpx:TrackPointExtension><gpxtpx:atemp>2.7</gpxtpx:atemp></gpxtpx:TrackPointExtension></extensions></trkpt><trkpt lat="42.1787387319" lon="13.3926676679"><ele>2102.98</ele><time>2026-03-11T13:49:33Z</time><extensions><gpxtpx:TrackPointExtension><gpxtpx:atemp>2.7</gpxtpx:atemp></gpxtpx:TrackPointExtension></extensions></trkpt><trkpt lat="42.1787305176" lon="13.3926748764"><ele>2102.98</ele><time>2026-03-11T13:49:34Z</time><extensions><gpxtpx:TrackPointExtension><gpxtpx:atemp>2.7</gpxtpx:atemp></gpxtpx:TrackPointExtension></extensions></trkpt><trkpt lat="42.1787233930" lon="13.3926717751"><ele>2103.07</ele><time>2026-03-11T13:49:35Z</time><extensions><gpxtpx:TrackPointExtension><gpxtpx:atemp>2.7</gpxtpx:atemp></gpxtpx:TrackPointExtension></extensions></trkpt><trkpt lat="42.1787158493" lon="13.3926669974"><ele>2103.17</ele><time>2026-03-11T13:49:36Z</time><extensions><gpxtpx:TrackPointExtension><gpxtpx:atemp>2.7</gpxtpx:atemp></gpxtpx:TrackPointExtension></extensions></trkpt><trkpt lat="42.1787091438" lon="13.3926642314"><ele>2103.25</ele><time>2026-03-11T13:49:37Z</time><extensions><gpxtpx:TrackPointExtension><gpxtpx:atemp>2.7</gpxtpx:atemp></gpxtpx:TrackPointExtension></extensions></trkpt><trkpt lat="42.1787020192" lon="13.3926612977"><ele>2103.30</ele><time>2026-03-11T13:49:38Z</time><extensions><gpxtpx:TrackPointExtension><gpxtpx:atemp>2.7</gpxtpx:atemp></gpxtpx:TrackPointExtension></extensions></trkpt><trkpt lat="42.1786934696" lon="13.3926574420"><ele>2103.32</ele><time>2026-03-11T13:49:39Z</time><extensions><gpxtpx:TrackPointExtension><gpxtpx:atemp>2.7</gpxtpx:atemp></gpxtpx:TrackPointExtension></extensions></trkpt><trkpt lat="42.1786845848" lon="13.3926605433"><ele>2103.30</ele><time>2026-03-11T13:49:40Z</time><extensions><gpxtpx:TrackPointExtension><gpxtpx:atemp>2.7</gpxtpx:atemp></gpxtpx:TrackPointExtension></extensions></trkpt><trkpt lat="42.1786766220" lon="13.3926644828"><ele>2103.25</ele><time>2026-03-11T13:49:41Z</time><extensions><gpxtpx:TrackPointExtension><gpxtpx:atemp>2.7</gpxtpx:atemp></gpxtpx:TrackPointExtension></extensions></trkpt><trkpt lat="42.1786707547" lon="13.3926751278"><ele>2103.17</ele><time>2026-03-11T13:49:42Z</time><extensions><gpxtpx:TrackPointExtension><gpxtpx:atemp>2.7</gpxtpx:atemp></gpxtpx:TrackPointExtension></extensions></trkpt><trkpt lat="42.1786577627" lon="13.3926893771"><ele>2103.00</ele><time>2026-03-11T13:49:43Z</time><extensions><gpxtpx:TrackPointExtension><gpxtpx:atemp>2.7</gpxtpx:atemp></gpxtpx:TrackPointExtension></extensions></trkpt><trkpt lat="42.1786382329" lon="13.3926998544"><ele>2102.91</ele><time>2026-03-11T13:49:44Z</time><extensions><gpxtpx:TrackPointExtension><gpxtpx:atemp>2.7</gpxtpx:atemp></gpxtpx:TrackPointExtension></extensions></trkpt><trkpt lat="42.1786132548" lon="13.3926988486"><ele>2102.72</ele><time>2026-03-11T13:49:45Z</time><extensions><gpxtpx:TrackPointExtension><gpxtpx:atemp>2.7</gpxtpx:atemp></gpxtpx:TrackPointExtension></extensions></trkpt><trkpt lat="42.1785926353" lon="13.3926892933"><ele>2102.73</ele><time>2026-03-11T13:49:46Z</time><extensions><gpxtpx:TrackPointExtension><gpxtpx:atemp>2.7</gpxtpx:atemp></gpxtpx:TrackPointExtension></extensions></trkpt><trkpt lat="42.1785782184" lon="13.3926829230"><ele>2102.76</ele><time>2026-03-11T13:49:47Z</time><extensions><gpxtpx:TrackPointExtension><gpxtpx:atemp>2.7</gpxtpx:atemp></gpxtpx:TrackPointExtension></extensions></trkpt><trkpt lat="42.1785688307" lon="13.3926761337"><ele>2102.76</ele><time>2026-03-11T13:49:48Z</time><extensions><gpxtpx:TrackPointExtension><gpxtpx:atemp>2.7</gpxtpx:atemp></gpxtpx:TrackPointExtension></extensions></trkpt><trkpt lat="42.1785621252" lon="13.3926659916"><ele>2102.80</ele><time>2026-03-11T13:49:49Z</time><extensions><gpxtpx:TrackPointExtension><gpxtpx:atemp>2.7</gpxtpx:atemp></gpxtpx:TrackPointExtension></extensions></trkpt><trkpt lat="42.1785744466" lon="13.3926492278"><ele>2102.79</ele><time>2026-03-11T13:49:50Z</time><extensions><gpxtpx:TrackPointExtension><gpxtpx:atemp>2.7</gpxtpx:atemp></gpxtpx:TrackPointExtension></extensions></trkpt><trkpt lat="42.1786002629" lon="13.3926279377"><ele>2102.81</ele><time>2026-03-11T13:49:51Z</time><extensions><gpxtpx:TrackPointExtension><gpxtpx:atemp>2.7</gpxtpx:atemp></gpxtpx:TrackPointExtension></extensions></trkpt><trkpt lat="42.1786363889" lon="13.3926027920"><ele>2102.81</ele><time>2026-03-11T13:49:52Z</time><extensions><gpxtpx:TrackPointExtension><gpxtpx:atemp>2.7</gpxtpx:atemp></gpxtpx:TrackPointExtension></extensions></trkpt><trkpt lat="42.1786573436" lon="13.3925851900"><ele>2102.81</ele><time>2026-03-11T13:49:53Z</time><extensions><gpxtpx:TrackPointExtension><gpxtpx:atemp>2.7</gpxtpx:atemp></gpxtpx:TrackPointExtension></extensions></trkpt><trkpt lat="42.1786672343" lon="13.3925716951"><ele>2102.79</ele><time>2026-03-11T13:49:54Z</time><extensions><gpxtpx:TrackPointExtension><gpxtpx:atemp>2.7</gpxtpx:atemp></gpxtpx:TrackPointExtension></extensions></trkpt><trkpt lat="42.1786761191" lon="13.3925503213"><ele>2102.82</ele><time>2026-03-11T13:49:55Z</time><extensions><gpxtpx:TrackPointExtension><gpxtpx:atemp>2.7</gpxtpx:atemp></gpxtpx:TrackPointExtension></extensions></trkpt><trkpt lat="42.1786847524" lon="13.3925276902"><ele>2102.81</ele><time>2026-03-11T13:49:56Z</time><extensions><gpxtpx:TrackPointExtension><gpxtpx:atemp>2.7</gpxtpx:atemp></gpxtpx:TrackPointExtension></extensions></trkpt><trkpt lat="42.1786920447" lon="13.3925028797"><ele>2102.83</ele><time>2026-03-11T13:49:57Z</time><extensions><gpxtpx:TrackPointExtension><gpxtpx:atemp>2.7</gpxtpx:atemp></gpxtpx:TrackPointExtension></extensions></trkpt><trkpt lat="42.1786908712" lon="13.3924905583"><ele>2102.87</ele><time>2026-03-11T13:49:58Z</time><extensions><gpxtpx:TrackPointExtension><gpxtpx:atemp>2.7</gpxtpx:atemp></gpxtpx:TrackPointExtension></extensions></trkpt><trkpt lat="42.1786881890" lon="13.3924764767"><ele>2102.87</ele><time>2026-03-11T13:49:59Z</time><extensions><gpxtpx:TrackPointExtension><gpxtpx:atemp>2.7</gpxtpx:atemp></gpxtpx:TrackPointExtension></extensions></trkpt><trkpt lat="42.1786834951" lon="13.3924637362"><ele>2102.90</ele><time>2026-03-11T13:50:00Z</time><extensions><gpxtpx:TrackPointExtension><gpxtpx:atemp>2.7</gpxtpx:atemp></gpxtpx:TrackPointExtension></extensions></trkpt><trkpt lat="42.1786767896" lon="13.3924502414"><ele>2102.89</ele><time>2026-03-11T13:50:01Z</time><extensions><gpxtpx:TrackPointExtension><gpxtpx:atemp>2.7</gpxtpx:atemp></gpxtpx:TrackPointExtension></extensions></trkpt><trkpt lat="42.1786683239" lon="13.3924389258"><ele>2102.89</ele><time>2026-03-11T13:50:02Z</time><extensions><gpxtpx:TrackPointExtension><gpxtpx:atemp>2.7</gpxtpx:atemp></gpxtpx:TrackPointExtension></extensions></trkpt><trkpt lat="42.1786590200" lon="13.3924284484"><ele>2102.85</ele><time>2026-03-11T13:50:03Z</time><extensions><gpxtpx:TrackPointExtension><gpxtpx:atemp>2.7</gpxtpx:atemp></gpxtpx:TrackPointExtension></extensions></trkpt><trkpt lat="42.1786503866" lon="13.3924176358"><ele>2102.80</ele><time>2026-03-11T13:50:04Z</time><extensions><gpxtpx:TrackPointExtension><gpxtpx:atemp>2.7</gpxtpx:atemp></gpxtpx:TrackPointExtension></extensions></trkpt><trkpt lat="42.1786441840" lon="13.3924056496"><ele>2102.76</ele><time>2026-03-11T13:50:05Z</time><extensions><gpxtpx:TrackPointExtension><gpxtpx:atemp>2.7</gpxtpx:atemp></gpxtpx:TrackPointExtension></extensions></trkpt><trkpt lat="42.1786395740" lon="13.3923938312"><ele>2102.72</ele><time>2026-03-11T13:50:06Z</time><extensions><gpxtpx:TrackPointExtension><gpxtpx:atemp>2.7</gpxtpx:atemp></gpxtpx:TrackPointExtension></extensions></trkpt><trkpt lat="42.1786363889" lon="13.3923817612"><ele>2102.70</ele><time>2026-03-11T13:50:07Z</time><extensions><gpxtpx:TrackPointExtension><gpxtpx:atemp>2.7</gpxtpx:atemp></gpxtpx:TrackPointExtension></extensions></trkpt><trkpt lat="42.1786329523" lon="13.3923705295"><ele>2102.66</ele><time>2026-03-11T13:50:08Z</time><extensions><gpxtpx:TrackPointExtension><gpxtpx:atemp>2.7</gpxtpx:atemp></gpxtpx:TrackPointExtension></extensions></trkpt><trkpt lat="42.1786303539" lon="13.3923605550"><ele>2102.67</ele><time>2026-03-11T13:50:09Z</time><extensions><gpxtpx:TrackPointExtension><gpxtpx:atemp>2.7</gpxtpx:atemp></gpxtpx:TrackPointExtension></extensions></trkpt><trkpt lat="42.1786276717" lon="13.3923525922"><ele>2102.70</ele><time>2026-03-11T13:50:10Z</time><extensions><gpxtpx:TrackPointExtension><gpxtpx:atemp>2.7</gpxtpx:atemp></gpxtpx:TrackPointExtension></extensions></trkpt><trkpt lat="42.1786242351" lon="13.3923451323"><ele>2102.73</ele><time>2026-03-11T13:50:11Z</time><extensions><gpxtpx:TrackPointExtension><gpxtpx:atemp>2.7</gpxtpx:atemp></gpxtpx:TrackPointExtension></extensions></trkpt><trkpt lat="42.1786195412" lon="13.3923370857"><ele>2102.74</ele><time>2026-03-11T13:50:12Z</time><extensions><gpxtpx:TrackPointExtension><gpxtpx:atemp>2.7</gpxtpx:atemp></gpxtpx:TrackPointExtension></extensions></trkpt><trkpt lat="42.1786138415" lon="13.3923273627"><ele>2102.75</ele><time>2026-03-11T13:50:13Z</time><extensions><gpxtpx:TrackPointExtension><gpxtpx:atemp>2.7</gpxtpx:atemp></gpxtpx:TrackPointExtension></extensions></trkpt><trkpt lat="42.1786096506" lon="13.3923140354"><ele>2102.78</ele><time>2026-03-11T13:50:14Z</time><extensions><gpxtpx:TrackPointExtension><gpxtpx:atemp>2.7</gpxtpx:atemp></gpxtpx:TrackPointExtension></extensions></trkpt><trkpt lat="42.1786046214" lon="13.3923013788"><ele>2102.82</ele><time>2026-03-11T13:50:15Z</time><extensions><gpxtpx:TrackPointExtension><gpxtpx:atemp>2.7</gpxtpx:atemp></gpxtpx:TrackPointExtension></extensions></trkpt><trkpt lat="42.1785988379" lon="13.3922895603"><ele>2102.83</ele><time>2026-03-11T13:50:16Z</time><extensions><gpxtpx:TrackPointExtension><gpxtpx:atemp>2.7</gpxtpx:atemp></gpxtpx:TrackPointExtension></extensions></trkpt><trkpt lat="42.1785906237" lon="13.3922815975"><ele>2102.85</ele><time>2026-03-11T13:50:17Z</time><extensions><gpxtpx:TrackPointExtension><gpxtpx:atemp>2.7</gpxtpx:atemp></gpxtpx:TrackPointExtension></extensions></trkpt><trkpt lat="42.1785820741" lon="13.3922746405"><ele>2102.86</ele><time>2026-03-11T13:50:18Z</time><extensions><gpxtpx:TrackPointExtension><gpxtpx:atemp>2.7</gpxtpx:atemp></gpxtpx:TrackPointExtension></extensions></trkpt><trkpt lat="42.1785748657" lon="13.3922678512"><ele>2102.89</ele><time>2026-03-11T13:50:19Z</time><extensions><gpxtpx:TrackPointExtension><gpxtpx:atemp>2.7</gpxtpx:atemp></gpxtpx:TrackPointExtension></extensions></trkpt><trkpt lat="42.1785671543" lon="13.3922612295"><ele>2102.93</ele><time>2026-03-11T13:50:20Z</time><extensions><gpxtpx:TrackPointExtension><gpxtpx:atemp>2.7</gpxtpx:atemp></gpxtpx:TrackPointExtension></extensions></trkpt><trkpt lat="42.1785585210" lon="13.3922558650"><ele>2103.03</ele><time>2026-03-11T13:50:21Z</time><extensions><gpxtpx:TrackPointExtension><gpxtpx:atemp>2.7</gpxtpx:atemp></gpxtpx:TrackPointExtension></extensions></trkpt><trkpt lat="42.1785498876" lon="13.3922505006"><ele>2103.06</ele><time>2026-03-11T13:50:22Z</time><extensions><gpxtpx:TrackPointExtension><gpxtpx:atemp>2.7</gpxtpx:atemp></gpxtpx:TrackPointExtension></extensions></trkpt><trkpt lat="42.1785413381" lon="13.3922452200"><ele>2103.09</ele><time>2026-03-11T13:50:23Z</time><extensions><gpxtpx:TrackPointExtension><gpxtpx:atemp>2.7</gpxtpx:atemp></gpxtpx:TrackPointExtension></extensions></trkpt><trkpt lat="42.1785327885" lon="13.3922399394"><ele>2103.12</ele><time>2026-03-11T13:50:24Z</time><extensions><gpxtpx:TrackPointExtension><gpxtpx:atemp>2.7</gpxtpx:atemp></gpxtpx:TrackPointExtension></extensions></trkpt><trkpt lat="42.1785241552" lon="13.3922345750"><ele>2103.13</ele><time>2026-03-11T13:50:25Z</time><extensions><gpxtpx:TrackPointExtension><gpxtpx:atemp>2.7</gpxtpx:atemp></gpxtpx:TrackPointExtension></extensions></trkpt><trkpt lat="42.1785157733" lon="13.3922293782"><ele>2103.14</ele><time>2026-03-11T13:50:26Z</time><extensions><gpxtpx:TrackPointExtension><gpxtpx:atemp>2.7</gpxtpx:atemp></gpxtpx:TrackPointExtension></extensions></trkpt><trkpt lat="42.1785072237" lon="13.3922240976"><ele>2103.12</ele><time>2026-03-11T13:50:27Z</time><extensions><gpxtpx:TrackPointExtension><gpxtpx:atemp>2.7</gpxtpx:atemp></gpxtpx:TrackPointExtension></extensions></trkpt><trkpt lat="42.1784995124" lon="13.3922193199"><ele>2103.08</ele><time>2026-03-11T13:50:28Z</time><extensions><gpxtpx:TrackPointExtension><gpxtpx:atemp>2.7</gpxtpx:atemp></gpxtpx:TrackPointExtension></extensions></trkpt><trkpt lat="42.1784909628" lon="13.3922140393"><ele>2103.06</ele><time>2026-03-11T13:50:29Z</time><extensions><gpxtpx:TrackPointExtension><gpxtpx:atemp>2.7</gpxtpx:atemp></gpxtpx:TrackPointExtension></extensions></trkpt><trkpt lat="42.1784824133" lon="13.3922086749"><ele>2103.04</ele><time>2026-03-11T13:50:30Z</time><extensions><gpxtpx:TrackPointExtension><gpxtpx:atemp>2.7</gpxtpx:atemp></gpxtpx:TrackPointExtension></extensions></trkpt><trkpt lat="42.1784738638" lon="13.3922033943"><ele>2103.00</ele><time>2026-03-11T13:50:31Z</time><extensions><gpxtpx:TrackPointExtension><gpxtpx:atemp>2.7</gpxtpx:atemp></gpxtpx:TrackPointExtension></extensions></trkpt><trkpt lat="42.1784653142" lon="13.3921981137"><ele>2103.00</ele><time>2026-03-11T13:50:32Z</time><extensions><gpxtpx:TrackPointExtension><gpxtpx:atemp>2.7</gpxtpx:atemp></gpxtpx:TrackPointExtension></extensions></trkpt><trkpt lat="42.1784566808" lon="13.3921928331"><ele>2103.00</ele><time>2026-03-11T13:50:33Z</time><extensions><gpxtpx:TrackPointExtension><gpxtpx:atemp>2.7</gpxtpx:atemp></gpxtpx:TrackPointExtension></extensions></trkpt><trkpt lat="42.1784481313" lon="13.3921874687"><ele>2103.01</ele><time>2026-03-11T13:50:34Z</time><extensions><gpxtpx:TrackPointExtension><gpxtpx:atemp>2.7</gpxtpx:atemp></gpxtpx:TrackPointExtension></extensions></trkpt><trkpt lat="42.1784394979" lon="13.3921821043"><ele>2103.02</ele><time>2026-03-11T13:50:35Z</time><extensions><gpxtpx:TrackPointExtension><gpxtpx:atemp>2.7</gpxtpx:atemp></gpxtpx:TrackPointExtension></extensions></trkpt><trkpt lat="42.1784308646" lon="13.3921767399"><ele>2103.01</ele><time>2026-03-11T13:50:36Z</time><extensions><gpxtpx:TrackPointExtension><gpxtpx:atemp>2.7</gpxtpx:atemp></gpxtpx:TrackPointExtension></extensions></trkpt><trkpt lat="42.1787193697" lon="13.3924065717"><ele>2103.00</ele><time>2026-03-11T13:50:37Z</time><extensions><gpxtpx:TrackPointExtension><gpxtpx:atemp>2.7</gpxtpx:atemp></gpxtpx:TrackPointExtension></extensions></trkpt><trkpt lat="42.1787385643" lon="13.3924049791"><ele>2102.97</ele><time>2026-03-11T13:50:38Z</time><extensions><gpxtpx:TrackPointExtension><gpxtpx:atemp>2.7</gpxtpx:atemp></gpxtpx:TrackPointExtension></extensions></trkpt><trkpt lat="42.1787441801" lon="13.3924227487"><ele>2102.96</ele><time>2026-03-11T13:50:39Z</time><extensions><gpxtpx:TrackPointExtension><gpxtpx:atemp>2.7</gpxtpx:atemp></gpxtpx:TrackPointExtension></extensions></trkpt><trkpt lat="42.1787585970" lon="13.3924260177"><ele>2102.92</ele><time>2026-03-11T13:50:40Z</time><extensions><gpxtpx:TrackPointExtension><gpxtpx:atemp>2.7</gpxtpx:atemp></gpxtpx:TrackPointExtension></extensions></trkpt><trkpt lat="42.1787554957" lon="13.3924266882"><ele>2102.89</ele><time>2026-03-11T13:50:41Z</time><extensions><gpxtpx:TrackPointExtension><gpxtpx:atemp>2.7</gpxtpx:atemp></gpxtpx:TrackPointExtension></extensions></trkpt><trkpt lat="42.1787641291" lon="13.3924295381"><ele>2102.86</ele><time>2026-03-11T13:50:42Z</time><extensions><gpxtpx:TrackPointExtension><gpxtpx:atemp>2.7</gpxtpx:atemp></gpxtpx:TrackPointExtension></extensions></trkpt><trkpt lat="42.1787690744" lon="13.3924311306"><ele>2102.84</ele><time>2026-03-11T13:50:43Z</time><extensions><gpxtpx:TrackPointExtension><gpxtpx:atemp>2.7</gpxtpx:atemp></gpxtpx:TrackPointExtension></extensions></trkpt><trkpt lat="42.1787733492" lon="13.3924310468"><ele>2102.84</ele><time>2026-03-11T13:50:44Z</time><extensions><gpxtpx:TrackPointExtension><gpxtpx:atemp>2.7</gpxtpx:atemp></gpxtpx:TrackPointExtension></extensions></trkpt><trkpt lat="42.1787774563" lon="13.3924301248"><ele>2102.83</ele><time>2026-03-11T13:50:45Z</time><extensions><gpxtpx:TrackPointExtension><gpxtpx:atemp>2.7</gpxtpx:atemp></gpxtpx:TrackPointExtension></extensions></trkpt><trkpt lat="42.1787847485" lon="13.3924268559"><ele>2102.83</ele><time>2026-03-11T13:50:46Z</time><extensions><gpxtpx:TrackPointExtension><gpxtpx:atemp>2.7</gpxtpx:atemp></gpxtpx:TrackPointExtension></extensions></trkpt><trkpt lat="42.1787949745" lon="13.3924212400"><ele>2102.85</ele><time>2026-03-11T13:50:47Z</time><extensions><gpxtpx:TrackPointExtension><gpxtpx:atemp>2.7</gpxtpx:atemp></gpxtpx:TrackPointExtension></extensions></trkpt><trkpt lat="42.1788128279" lon="13.3924074937"><ele>2102.86</ele><time>2026-03-11T13:50:48Z</time><extensions><gpxtpx:TrackPointExtension><gpxtpx:atemp>2.7</gpxtpx:atemp></gpxtpx:TrackPointExtension></extensions></trkpt><trkpt lat="42.1788343694" lon="13.3923885506"><ele>2102.86</ele><time>2026-03-11T13:50:49Z</time><extensions><gpxtpx:TrackPointExtension><gpxtpx:atemp>2.7</gpxtpx:atemp></gpxtpx:TrackPointExtension></extensions></trkpt><trkpt lat="42.1788589284" lon="13.3923656680"><ele>2102.86</ele><time>2026-03-11T13:50:50Z</time><extensions><gpxtpx:TrackPointExtension><gpxtpx:atemp>2.7</gpxtpx:atemp></gpxtpx:TrackPointExtension></extensions></trkpt><trkpt lat="42.1788775362" lon="13.3923481498"><ele>2102.85</ele><time>2026-03-11T13:50:51Z</time><extensions><gpxtpx:TrackPointExtension><gpxtpx:atemp>2.7</gpxtpx:atemp></gpxtpx:TrackPointExtension></extensions></trkpt><trkpt lat="42.1788933780" lon="13.3923347387"><ele>2102.85</ele><time>2026-03-11T13:50:52Z</time><extensions><gpxtpx:TrackPointExtension><gpxtpx:atemp>2.7</gpxtpx:atemp></gpxtpx:TrackPointExtension></extensions></trkpt><trkpt lat="42.1789070405" lon="13.3923243452"><ele>2102.83</ele><time>2026-03-11T13:50:53Z</time><extensions><gpxtpx:TrackPointExtension><gpxtpx:atemp>2.7</gpxtpx:atemp></gpxtpx:TrackPointExtension></extensions></trkpt><trkpt lat="42.1789219603" lon="13.3923148736"><ele>2102.81</ele><time>2026-03-11T13:50:54Z</time><extensions><gpxtpx:TrackPointExtension><gpxtpx:atemp>2.7</gpxtpx:atemp></gpxtpx:TrackPointExtension></extensions></trkpt><trkpt lat="42.1789352875" lon="13.3923070785"><ele>2102.78</ele><time>2026-03-11T13:50:55Z</time><extensions><gpxtpx:TrackPointExtension><gpxtpx:atemp>2.7</gpxtpx:atemp></gpxtpx:TrackPointExtension></extensions></trkpt><trkpt lat="42.1789467707" lon="13.3923011273"><ele>2102.77</ele><time>2026-03-11T13:50:56Z</time><extensions><gpxtpx:TrackPointExtension><gpxtpx:atemp>2.7</gpxtpx:atemp></gpxtpx:TrackPointExtension></extensions></trkpt><trkpt lat="42.1789562423" lon="13.3922964334"><ele>2102.73</ele><time>2026-03-11T13:50:57Z</time><extensions><gpxtpx:TrackPointExtension><gpxtpx:atemp>2.7</gpxtpx:atemp></gpxtpx:TrackPointExtension></extensions></trkpt><trkpt lat="42.1789667197" lon="13.3922923263"><ele>2102.73</ele><time>2026-03-11T13:50:58Z</time><extensions><gpxtpx:TrackPointExtension><gpxtpx:atemp>2.7</gpxtpx:atemp></gpxtpx:TrackPointExtension></extensions></trkpt><trkpt lat="42.1789781190" lon="13.3922874648"><ele>2102.72</ele><time>2026-03-11T13:50:59Z</time><extensions><gpxtpx:TrackPointExtension><gpxtpx:atemp>2.7</gpxtpx:atemp></gpxtpx:TrackPointExtension></extensions></trkpt><trkpt lat="42.1789912786" lon="13.3922828548"><ele>2102.72</ele><time>2026-03-11T13:51:00Z</time><extensions><gpxtpx:TrackPointExtension><gpxtpx:atemp>2.7</gpxtpx:atemp></gpxtpx:TrackPointExtension></extensions></trkpt><trkpt lat="42.1790021751" lon="13.3922786638"><ele>2102.69</ele><time>2026-03-11T13:51:01Z</time><extensions><gpxtpx:TrackPointExtension><gpxtpx:atemp>2.7</gpxtpx:atemp></gpxtpx:TrackPointExtension></extensions></trkpt><trkpt lat="42.1790115628" lon="13.3922764845"><ele>2102.67</ele><time>2026-03-11T13:51:02Z</time><extensions><gpxtpx:TrackPointExtension><gpxtpx:atemp>2.7</gpxtpx:atemp></gpxtpx:TrackPointExtension></extensions></trkpt><trkpt lat="42.1790208668" lon="13.3922726288"><ele>2102.63</ele><time>2026-03-11T13:51:03Z</time><extensions><gpxtpx:TrackPointExtension><gpxtpx:atemp>2.7</gpxtpx:atemp></gpxtpx:TrackPointExtension></extensions></trkpt><trkpt lat="42.1790287457" lon="13.3922711201"><ele>2102.61</ele><time>2026-03-11T13:51:04Z</time><extensions><gpxtpx:TrackPointExtension><gpxtpx:atemp>2.7</gpxtpx:atemp></gpxtpx:TrackPointExtension></extensions></trkpt><trkpt lat="42.1790358704" lon="13.3922690246"><ele>2102.60</ele><time>2026-03-11T13:51:05Z</time><extensions><gpxtpx:TrackPointExtension><gpxtpx:atemp>2.7</gpxtpx:atemp></gpxtpx:TrackPointExtension></extensions></trkpt><trkpt lat="42.1790393908" lon="13.3922706172"><ele>2102.64</ele><time>2026-03-11T13:51:06Z</time><extensions><gpxtpx:TrackPointExtension><gpxtpx:atemp>2.7</gpxtpx:atemp></gpxtpx:TrackPointExtension></extensions></trkpt><trkpt lat="42.1790418215" lon="13.3922719583"><ele>2102.68</ele><time>2026-03-11T13:51:07Z</time><extensions><gpxtpx:TrackPointExtension><gpxtpx:atemp>2.7</gpxtpx:atemp></gpxtpx:TrackPointExtension></extensions></trkpt><trkpt lat="42.1790431626" lon="13.3922757301"><ele>2102.70</ele><time>2026-03-11T13:51:08Z</time><extensions><gpxtpx:TrackPointExtension><gpxtpx:atemp>2.7</gpxtpx:atemp></gpxtpx:TrackPointExtension></extensions></trkpt><trkpt lat="42.1790437493" lon="13.3922794182"><ele>2102.73</ele><time>2026-03-11T13:51:09Z</time><extensions><gpxtpx:TrackPointExtension><gpxtpx:atemp>2.7</gpxtpx:atemp></gpxtpx:TrackPointExtension></extensions></trkpt><trkpt lat="42.1790438332" lon="13.3922843635"><ele>2102.76</ele><time>2026-03-11T13:51:10Z</time><extensions><gpxtpx:TrackPointExtension><gpxtpx:atemp>2.7</gpxtpx:atemp></gpxtpx:TrackPointExtension></extensions></trkpt><trkpt lat="42.1790439170" lon="13.3922886383"><ele>2102.80</ele><time>2026-03-11T13:51:11Z</time><extensions><gpxtpx:TrackPointExtension><gpxtpx:atemp>2.7</gpxtpx:atemp></gpxtpx:TrackPointExtension></extensions></trkpt><trkpt lat="42.1790438332" lon="13.3922926616"><ele>2102.82</ele><time>2026-03-11T13:51:12Z</time><extensions><gpxtpx:TrackPointExtension><gpxtpx:atemp>2.7</gpxtpx:atemp></gpxtpx:TrackPointExtension></extensions></trkpt><trkpt lat="42.1790444199" lon="13.3922948409"><ele>2102.83</ele><time>2026-03-11T13:51:13Z</time><extensions><gpxtpx:TrackPointExtension><gpxtpx:atemp>2.7</gpxtpx:atemp></gpxtpx:TrackPointExtension></extensions></trkpt><trkpt lat="42.1790436655" lon="13.3922960982"><ele>2102.83</ele><time>2026-03-11T13:51:14Z</time><extensions><gpxtpx:TrackPointExtension><gpxtpx:atemp>2.7</gpxtpx:atemp></gpxtpx:TrackPointExtension></extensions></trkpt><trkpt lat="42.1790414862" lon="13.3922964334"><ele>2102.82</ele><time>2026-03-11T13:51:15Z</time><extensions><gpxtpx:TrackPointExtension><gpxtpx:atemp>2.7</gpxtpx:atemp></gpxtpx:TrackPointExtension></extensions></trkpt><trkpt lat="42.1790378820" lon="13.3922968525"><ele>2102.82</ele><time>2026-03-11T13:51:16Z</time><extensions><gpxtpx:TrackPointExtension><gpxtpx:atemp>2.7</gpxtpx:atemp></gpxtpx:TrackPointExtension></extensions></trkpt><trkpt lat="42.1790354513" lon="13.3922970202"><ele>2102.80</ele><time>2026-03-11T13:51:17Z</time><extensions><gpxtpx:TrackPointExtension><gpxtpx:atemp>2.7</gpxtpx:atemp></gpxtpx:TrackPointExtension></extensions></trkpt><trkpt lat="42.1790344454" lon="13.3922985289"><ele>2102.80</ele><time>2026-03-11T13:51:18Z</time><extensions><gpxtpx:TrackPointExtension><gpxtpx:atemp>2.7</gpxtpx:atemp></gpxtpx:TrackPointExtension></extensions></trkpt><trkpt lat="42.1790343616" lon="13.3923006244"><ele>2102.80</ele><time>2026-03-11T13:51:19Z</time><extensions><gpxtpx:TrackPointExtension><gpxtpx:atemp>2.7</gpxtpx:atemp></gpxtpx:TrackPointExtension></extensions></trkpt><trkpt lat="42.1790341940" lon="13.3923029713"><ele>2102.80</ele><time>2026-03-11T13:51:20Z</time><extensions><gpxtpx:TrackPointExtension><gpxtpx:atemp>2.7</gpxtpx:atemp></gpxtpx:TrackPointExtension></extensions></trkpt><trkpt lat="42.1790338587" lon="13.3923049830"><ele>2102.81</ele><time>2026-03-11T13:51:21Z</time><extensions><gpxtpx:TrackPointExtension><gpxtpx:atemp>2.7</gpxtpx:atemp></gpxtpx:TrackPointExtension></extensions></trkpt><trkpt lat="42.1790336911" lon="13.3923066594"><ele>2102.81</ele><time>2026-03-11T13:51:22Z</time><extensions><gpxtpx:TrackPointExtension><gpxtpx:atemp>2.7</gpxtpx:atemp></gpxtpx:TrackPointExtension></extensions></trkpt><trkpt lat="42.1790354513" lon="13.3923149575"><ele>2102.81</ele><time>2026-03-11T13:51:23Z</time><extensions><gpxtpx:TrackPointExtension><gpxtpx:atemp>2.7</gpxtpx:atemp></gpxtpx:TrackPointExtension></extensions></trkpt><trkpt lat="42.1790389717" lon="13.3923275303"><ele>2102.80</ele><time>2026-03-11T13:51:24Z</time><extensions><gpxtpx:TrackPointExtension><gpxtpx:atemp>2.7</gpxtpx:atemp></gpxtpx:TrackPointExtension></extensions></trkpt><trkpt lat="42.1790435817" lon="13.3923438750"><ele>2102.74</ele><time>2026-03-11T13:51:25Z</time><extensions><gpxtpx:TrackPointExtension><gpxtpx:atemp>2.7</gpxtpx:atemp></gpxtpx:TrackPointExtension></extensions></trkpt><trkpt lat="42.1790451743" lon="13.3923531789"><ele>2102.71</ele><time>2026-03-11T13:51:26Z</time><extensions><gpxtpx:TrackPointExtension><gpxtpx:atemp>2.7</gpxtpx:atemp></gpxtpx:TrackPointExtension></extensions></trkpt><trkpt lat="42.1790429950" lon="13.3923592977"><ele>2102.72</ele><time>2026-03-11T13:51:27Z</time><extensions><gpxtpx:TrackPointExtension><gpxtpx:atemp>2.7</gpxtpx:atemp></gpxtpx:TrackPointExtension></extensions></trkpt><trkpt lat="42.1790368762" lon="13.3923619799"><ele>2102.70</ele><time>2026-03-11T13:51:28Z</time><extensions><gpxtpx:TrackPointExtension><gpxtpx:atemp>2.7</gpxtpx:atemp></gpxtpx:TrackPointExtension></extensions></trkpt><trkpt lat="42.1790285781" lon="13.3923697751"><ele>2102.71</ele><time>2026-03-11T13:51:29Z</time><extensions><gpxtpx:TrackPointExtension><gpxtpx:atemp>2.7</gpxtpx:atemp></gpxtpx:TrackPointExtension></extensions></trkpt><trkpt lat="42.1790196933" lon="13.3923796657"><ele>2102.71</ele><time>2026-03-11T13:51:30Z</time><extensions><gpxtpx:TrackPointExtension><gpxtpx:atemp>2.7</gpxtpx:atemp></gpxtpx:TrackPointExtension></extensions></trkpt><trkpt lat="42.1790115628" lon="13.3923937473"><ele>2102.72</ele><time>2026-03-11T13:51:31Z</time><extensions><gpxtpx:TrackPointExtension><gpxtpx:atemp>2.7</gpxtpx:atemp></gpxtpx:TrackPointExtension></extensions></trkpt><trkpt lat="42.1790042706" lon="13.3924044762"><ele>2102.73</ele><time>2026-03-11T13:51:32Z</time><extensions><gpxtpx:TrackPointExtension><gpxtpx:atemp>2.9</gpxtpx:atemp></gpxtpx:TrackPointExtension></extensions></trkpt><trkpt lat="42.1789999958" lon="13.3924069908"><ele>2102.74</ele><time>2026-03-11T13:51:33Z</time><extensions><gpxtpx:TrackPointExtension><gpxtpx:atemp>2.9</gpxtpx:atemp></gpxtpx:TrackPointExtension></extensions></trkpt><trkpt lat="42.1789963916" lon="13.3924091700"><ele>2102.75</ele><time>2026-03-11T13:51:34Z</time><extensions><gpxtpx:TrackPointExtension><gpxtpx:atemp>2.9</gpxtpx:atemp></gpxtpx:TrackPointExtension></extensions></trkpt><trkpt lat="42.1789946314" lon="13.3924132772"><ele>2102.78</ele><time>2026-03-11T13:51:35Z</time><extensions><gpxtpx:TrackPointExtension><gpxtpx:atemp>2.9</gpxtpx:atemp></gpxtpx:TrackPointExtension></extensions></trkpt><trkpt lat="42.1789916977" lon="13.3924246766"><ele>2102.82</ele><time>2026-03-11T13:51:36Z</time><extensions><gpxtpx:TrackPointExtension><gpxtpx:atemp>2.9</gpxtpx:atemp></gpxtpx:TrackPointExtension></extensions></trkpt><trkpt lat="42.1789892670" lon="13.3924336452"><ele>2102.85</ele><time>2026-03-11T13:51:37Z</time><extensions><gpxtpx:TrackPointExtension><gpxtpx:atemp>2.9</gpxtpx:atemp></gpxtpx:TrackPointExtension></extensions></trkpt><trkpt lat="42.1789863333" lon="13.3924418595"><ele>2102.87</ele><time>2026-03-11T13:51:38Z</time><extensions><gpxtpx:TrackPointExtension><gpxtpx:atemp>2.9</gpxtpx:atemp></gpxtpx:TrackPointExtension></extensions></trkpt><trkpt lat="42.1789826453" lon="13.3924476430"><ele>2102.87</ele><time>2026-03-11T13:51:39Z</time><extensions><gpxtpx:TrackPointExtension><gpxtpx:atemp>2.9</gpxtpx:atemp></gpxtpx:TrackPointExtension></extensions></trkpt><trkpt lat="42.1789782867" lon="13.3924524207"><ele>2102.85</ele><time>2026-03-11T13:51:40Z</time><extensions><gpxtpx:TrackPointExtension><gpxtpx:atemp>2.9</gpxtpx:atemp></gpxtpx:TrackPointExtension></extensions></trkpt><trkpt lat="42.1789747663" lon="13.3924544323"><ele>2102.85</ele><time>2026-03-11T13:51:41Z</time><extensions><gpxtpx:TrackPointExtension><gpxtpx:atemp>2.9</gpxtpx:atemp></gpxtpx:TrackPointExtension></extensions></trkpt><trkpt lat="42.1789724194" lon="13.3924566954"><ele>2102.83</ele><time>2026-03-11T13:51:42Z</time><extensions><gpxtpx:TrackPointExtension><gpxtpx:atemp>2.9</gpxtpx:atemp></gpxtpx:TrackPointExtension></extensions></trkpt><trkpt lat="42.1789722517" lon="13.3924589586"><ele>2102.78</ele><time>2026-03-11T13:51:43Z</time><extensions><gpxtpx:TrackPointExtension><gpxtpx:atemp>2.9</gpxtpx:atemp></gpxtpx:TrackPointExtension></extensions></trkpt><trkpt lat="42.1789713297" lon="13.3924619760"><ele>2102.72</ele><time>2026-03-11T13:51:44Z</time><extensions><gpxtpx:TrackPointExtension><gpxtpx:atemp>2.9</gpxtpx:atemp></gpxtpx:TrackPointExtension></extensions></trkpt><trkpt lat="42.1789693180" lon="13.3924660832"><ele>2102.69</ele><time>2026-03-11T13:51:45Z</time><extensions><gpxtpx:TrackPointExtension><gpxtpx:atemp>2.9</gpxtpx:atemp></gpxtpx:TrackPointExtension></extensions></trkpt><trkpt lat="42.1789651271" lon="13.3924700227"><ele>2102.68</ele><time>2026-03-11T13:51:46Z</time><extensions><gpxtpx:TrackPointExtension><gpxtpx:atemp>2.9</gpxtpx:atemp></gpxtpx:TrackPointExtension></extensions></trkpt><trkpt lat="42.1789606847" lon="13.3924731240"><ele>2102.68</ele><time>2026-03-11T13:51:47Z</time><extensions><gpxtpx:TrackPointExtension><gpxtpx:atemp>2.9</gpxtpx:atemp></gpxtpx:TrackPointExtension></extensions></trkpt><trkpt lat="42.1789578348" lon="13.3924747165"><ele>2102.68</ele><time>2026-03-11T13:51:48Z</time><extensions><gpxtpx:TrackPointExtension><gpxtpx:atemp>2.9</gpxtpx:atemp></gpxtpx:TrackPointExtension></extensions></trkpt><trkpt lat="42.1789550688" lon="13.3924769796"><ele>2102.67</ele><time>2026-03-11T13:51:49Z</time><extensions><gpxtpx:TrackPointExtension><gpxtpx:atemp>2.9</gpxtpx:atemp></gpxtpx:TrackPointExtension></extensions></trkpt><trkpt lat="42.1789516322" lon="13.3924806677"><ele>2102.67</ele><time>2026-03-11T13:51:50Z</time><extensions><gpxtpx:TrackPointExtension><gpxtpx:atemp>2.9</gpxtpx:atemp></gpxtpx:TrackPointExtension></extensions></trkpt><trkpt lat="42.1789461840" lon="13.3924865350"><ele>2102.66</ele><time>2026-03-11T13:51:51Z</time><extensions><gpxtpx:TrackPointExtension><gpxtpx:atemp>2.9</gpxtpx:atemp></gpxtpx:TrackPointExtension></extensions></trkpt><trkpt lat="42.1789407358" lon="13.3924924862"><ele>2102.65</ele><time>2026-03-11T13:51:52Z</time><extensions><gpxtpx:TrackPointExtension><gpxtpx:atemp>2.9</gpxtpx:atemp></gpxtpx:TrackPointExtension></extensions></trkpt><trkpt lat="42.1789357904" lon="13.3924986888"><ele>2102.65</ele><time>2026-03-11T13:51:53Z</time><extensions><gpxtpx:TrackPointExtension><gpxtpx:atemp>2.9</gpxtpx:atemp></gpxtpx:TrackPointExtension></extensions></trkpt><trkpt lat="42.1789310966" lon="13.3925032988"><ele>2102.65</ele><time>2026-03-11T13:51:54Z</time><extensions><gpxtpx:TrackPointExtension><gpxtpx:atemp>2.9</gpxtpx:atemp></gpxtpx:TrackPointExtension></extensions></trkpt><trkpt lat="42.1789258998" lon="13.3925090823"><ele>2102.65</ele><time>2026-03-11T13:51:55Z</time><extensions><gpxtpx:TrackPointExtension><gpxtpx:atemp>2.9</gpxtpx:atemp></gpxtpx:TrackPointExtension></extensions></trkpt><trkpt lat="42.1789211221" lon="13.3925135247"><ele>2102.64</ele><time>2026-03-11T13:51:56Z</time><extensions><gpxtpx:TrackPointExtension><gpxtpx:atemp>2.9</gpxtpx:atemp></gpxtpx:TrackPointExtension></extensions></trkpt><trkpt lat="42.1789170988" lon="13.3925169613"><ele>2102.64</ele><time>2026-03-11T13:51:57Z</time><extensions><gpxtpx:TrackPointExtension><gpxtpx:atemp>2.9</gpxtpx:atemp></gpxtpx:TrackPointExtension></extensions></trkpt><trkpt lat="42.1789145842" lon="13.3925183862"><ele>2102.64</ele><time>2026-03-11T13:51:58Z</time><extensions><gpxtpx:TrackPointExtension><gpxtpx:atemp>2.9</gpxtpx:atemp></gpxtpx:TrackPointExtension></extensions></trkpt><trkpt lat="42.1789127402" lon="13.3925185539"><ele>2102.64</ele><time>2026-03-11T13:51:59Z</time><extensions><gpxtpx:TrackPointExtension><gpxtpx:atemp>2.9</gpxtpx:atemp></gpxtpx:TrackPointExtension></extensions></trkpt><trkpt lat="42.1789110638" lon="13.3925178833"><ele>2102.63</ele><time>2026-03-11T13:52:00Z</time><extensions><gpxtpx:TrackPointExtension><gpxtpx:atemp>2.9</gpxtpx:atemp></gpxtpx:TrackPointExtension></extensions></trkpt><trkpt lat="42.1789096389" lon="13.3925156202"><ele>2102.61</ele><time>2026-03-11T13:52:01Z</time><extensions><gpxtpx:TrackPointExtension><gpxtpx:atemp>2.9</gpxtpx:atemp></gpxtpx:TrackPointExtension></extensions></trkpt><trkpt lat="42.1789093874" lon="13.3925143629"><ele>2102.57</ele><time>2026-03-11T13:52:02Z</time><extensions><gpxtpx:TrackPointExtension><gpxtpx:atemp>2.9</gpxtpx:atemp></gpxtpx:TrackPointExtension></extensions></trkpt><trkpt lat="42.1789090522" lon="13.3925141953"><ele>2102.56</ele><time>2026-03-11T13:52:03Z</time><extensions><gpxtpx:TrackPointExtension><gpxtpx:atemp>2.9</gpxtpx:atemp></gpxtpx:TrackPointExtension></extensions></trkpt><trkpt lat="42.1789109800" lon="13.3925121836"><ele>2102.56</ele><time>2026-03-11T13:52:04Z</time><extensions><gpxtpx:TrackPointExtension><gpxtpx:atemp>2.9</gpxtpx:atemp></gpxtpx:TrackPointExtension></extensions></trkpt><trkpt lat="42.1789129917" lon="13.3925118484"><ele>2102.56</ele><time>2026-03-11T13:52:05Z</time><extensions><gpxtpx:TrackPointExtension><gpxtpx:atemp>2.9</gpxtpx:atemp></gpxtpx:TrackPointExtension></extensions></trkpt><trkpt lat="42.1789153386" lon="13.3925101720"><ele>2102.61</ele><time>2026-03-11T13:52:06Z</time><extensions><gpxtpx:TrackPointExtension><gpxtpx:atemp>2.9</gpxtpx:atemp></gpxtpx:TrackPointExtension></extensions></trkpt><trkpt lat="42.1789155900" lon="13.3925125189"><ele>2102.64</ele><time>2026-03-11T13:52:07Z</time><extensions><gpxtpx:TrackPointExtension><gpxtpx:atemp>2.9</gpxtpx:atemp></gpxtpx:TrackPointExtension></extensions></trkpt><trkpt lat="42.1789137460" lon="13.3925113454"><ele>2102.70</ele><time>2026-03-11T13:52:08Z</time><extensions><gpxtpx:TrackPointExtension><gpxtpx:atemp>2.9</gpxtpx:atemp></gpxtpx:TrackPointExtension></extensions></trkpt><trkpt lat="42.1789135784" lon="13.3925099205"><ele>2102.74</ele><time>2026-03-11T13:52:09Z</time><extensions><gpxtpx:TrackPointExtension><gpxtpx:atemp>2.9</gpxtpx:atemp></gpxtpx:TrackPointExtension></extensions></trkpt><trkpt lat="42.1789125726" lon="13.3925064839"><ele>2102.78</ele><time>2026-03-11T13:52:10Z</time><extensions><gpxtpx:TrackPointExtension><gpxtpx:atemp>2.9</gpxtpx:atemp></gpxtpx:TrackPointExtension></extensions></trkpt><trkpt lat="42.1789138298" lon="13.3925034665"><ele>2102.78</ele><time>2026-03-11T13:52:11Z</time><extensions><gpxtpx:TrackPointExtension><gpxtpx:atemp>2.9</gpxtpx:atemp></gpxtpx:TrackPointExtension></extensions></trkpt><trkpt lat="42.1789143328" lon="13.3925003652"><ele>2102.78</ele><time>2026-03-11T13:52:12Z</time><extensions><gpxtpx:TrackPointExtension><gpxtpx:atemp>2.9</gpxtpx:atemp></gpxtpx:TrackPointExtension></extensions></trkpt><trkpt lat="42.1789176855" lon="13.3924957551"><ele>2102.78</ele><time>2026-03-11T13:52:13Z</time><extensions><gpxtpx:TrackPointExtension><gpxtpx:atemp>2.9</gpxtpx:atemp></gpxtpx:TrackPointExtension></extensions></trkpt><trkpt lat="42.1789200325" lon="13.3924919832"><ele>2102.86</ele><time>2026-03-11T13:52:14Z</time><extensions><gpxtpx:TrackPointExtension><gpxtpx:atemp>2.9</gpxtpx:atemp></gpxtpx:TrackPointExtension></extensions></trkpt><trkpt lat="42.1789211221" lon="13.3924893849"><ele>2102.92</ele><time>2026-03-11T13:52:15Z</time><extensions><gpxtpx:TrackPointExtension><gpxtpx:atemp>2.9</gpxtpx:atemp></gpxtpx:TrackPointExtension></extensions></trkpt><trkpt lat="42.1789200325" lon="13.3924882952"><ele>2102.96</ele><time>2026-03-11T13:52:16Z</time><extensions><gpxtpx:TrackPointExtension><gpxtpx:atemp>2.9</gpxtpx:atemp></gpxtpx:TrackPointExtension></extensions></trkpt><trkpt lat="42.1789188590" lon="13.3924880438"><ele>2102.97</ele><time>2026-03-11T13:52:17Z</time><extensions><gpxtpx:TrackPointExtension><gpxtpx:atemp>2.9</gpxtpx:atemp></gpxtpx:TrackPointExtension></extensions></trkpt><trkpt lat="42.1789181884" lon="13.3924892172"><ele>2102.98</ele><time>2026-03-11T13:52:18Z</time><extensions><gpxtpx:TrackPointExtension><gpxtpx:atemp>2.9</gpxtpx:atemp></gpxtpx:TrackPointExtension></extensions></trkpt><trkpt lat="42.1789195295" lon="13.3924909774"><ele>2103.00</ele><time>2026-03-11T13:52:19Z</time><extensions><gpxtpx:TrackPointExtension><gpxtpx:atemp>2.9</gpxtpx:atemp></gpxtpx:TrackPointExtension></extensions></trkpt><trkpt lat="42.1789222956" lon="13.3924931567"><ele>2103.03</ele><time>2026-03-11T13:52:20Z</time><extensions><gpxtpx:TrackPointExtension><gpxtpx:atemp>2.9</gpxtpx:atemp></gpxtpx:TrackPointExtension></extensions></trkpt><trkpt lat="42.1789249778" lon="13.3924940787"><ele>2103.06</ele><time>2026-03-11T13:52:21Z</time><extensions><gpxtpx:TrackPointExtension><gpxtpx:atemp>2.9</gpxtpx:atemp></gpxtpx:TrackPointExtension></extensions></trkpt><trkpt lat="42.1789262351" lon="13.3924949169"><ele>2103.09</ele><time>2026-03-11T13:52:22Z</time><extensions><gpxtpx:TrackPointExtension><gpxtpx:atemp>2.9</gpxtpx:atemp></gpxtpx:TrackPointExtension></extensions></trkpt><trkpt lat="42.1789282467" lon="13.3924951684"><ele>2103.12</ele><time>2026-03-11T13:52:23Z</time><extensions><gpxtpx:TrackPointExtension><gpxtpx:atemp>2.9</gpxtpx:atemp></gpxtpx:TrackPointExtension></extensions></trkpt><trkpt lat="42.1789308451" lon="13.3924962580"><ele>2103.16</ele><time>2026-03-11T13:52:24Z</time><extensions><gpxtpx:TrackPointExtension><gpxtpx:atemp>2.9</gpxtpx:atemp></gpxtpx:TrackPointExtension></extensions></trkpt><trkpt lat="42.1789341979" lon="13.3924986888"><ele>2103.21</ele><time>2026-03-11T13:52:25Z</time><extensions><gpxtpx:TrackPointExtension><gpxtpx:atemp>2.9</gpxtpx:atemp></gpxtpx:TrackPointExtension></extensions></trkpt><trkpt lat="42.1789353713" lon="13.3925009519"><ele>2103.25</ele><time>2026-03-11T13:52:26Z</time><extensions><gpxtpx:TrackPointExtension><gpxtpx:atemp>2.9</gpxtpx:atemp></gpxtpx:TrackPointExtension></extensions></trkpt><trkpt lat="42.1789366286" lon="13.3925018739"><ele>2103.25</ele><time>2026-03-11T13:52:27Z</time><extensions><gpxtpx:TrackPointExtension><gpxtpx:atemp>2.9</gpxtpx:atemp></gpxtpx:TrackPointExtension></extensions></trkpt><trkpt lat="42.1789371315" lon="13.3925017901"><ele>2103.27</ele><time>2026-03-11T13:52:28Z</time><extensions><gpxtpx:TrackPointExtension><gpxtpx:atemp>2.9</gpxtpx:atemp></gpxtpx:TrackPointExtension></extensions></trkpt><trkpt lat="42.1789403167" lon="13.3924996946"><ele>2103.27</ele><time>2026-03-11T13:52:29Z</time><extensions><gpxtpx:TrackPointExtension><gpxtpx:atemp>2.9</gpxtpx:atemp></gpxtpx:TrackPointExtension></extensions></trkpt><trkpt lat="42.1789438371" lon="13.3924980182"><ele>2103.26</ele><time>2026-03-11T13:52:30Z</time><extensions><gpxtpx:TrackPointExtension><gpxtpx:atemp>2.9</gpxtpx:atemp></gpxtpx:TrackPointExtension></extensions></trkpt><trkpt lat="42.1789482795" lon="13.3924942464"><ele>2103.24</ele><time>2026-03-11T13:52:31Z</time><extensions><gpxtpx:TrackPointExtension><gpxtpx:atemp>2.9</gpxtpx:atemp></gpxtpx:TrackPointExtension></extensions></trkpt><trkpt lat="42.1789509617" lon="13.3924915642"><ele>2103.19</ele><time>2026-03-11T13:52:32Z</time><extensions><gpxtpx:TrackPointExtension><gpxtpx:atemp>2.8</gpxtpx:atemp></gpxtpx:TrackPointExtension></extensions></trkpt><trkpt lat="42.1789545659" lon="13.3924872894"><ele>2103.14</ele><time>2026-03-11T13:52:33Z</time><extensions><gpxtpx:TrackPointExtension><gpxtpx:atemp>2.8</gpxtpx:atemp></gpxtpx:TrackPointExtension></extensions></trkpt><trkpt lat="42.1789562423" lon="13.3924855292"><ele>2103.09</ele><time>2026-03-11T13:52:34Z</time><extensions><gpxtpx:TrackPointExtension><gpxtpx:atemp>2.8</gpxtpx:atemp></gpxtpx:TrackPointExtension></extensions></trkpt><trkpt lat="42.1789570805" lon="13.3924837690"><ele>2103.06</ele><time>2026-03-11T13:52:35Z</time><extensions><gpxtpx:TrackPointExtension><gpxtpx:atemp>2.8</gpxtpx:atemp></gpxtpx:TrackPointExtension></extensions></trkpt><trkpt lat="42.1789559908" lon="13.3924832661"><ele>2103.01</ele><time>2026-03-11T13:52:36Z</time><extensions><gpxtpx:TrackPointExtension><gpxtpx:atemp>2.8</gpxtpx:atemp></gpxtpx:TrackPointExtension></extensions></trkpt><trkpt lat="42.1789573319" lon="13.3924810868"><ele>2102.84</ele><time>2026-03-11T13:52:37Z</time><extensions><gpxtpx:TrackPointExtension><gpxtpx:atemp>2.8</gpxtpx:atemp></gpxtpx:TrackPointExtension></extensions></trkpt><trkpt lat="42.1789594274" lon="13.3924794942"><ele>2102.81</ele><time>2026-03-11T13:52:38Z</time><extensions><gpxtpx:TrackPointExtension><gpxtpx:atemp>2.8</gpxtpx:atemp></gpxtpx:TrackPointExtension></extensions></trkpt><trkpt lat="42.1789610200" lon="13.3924777340"><ele>2102.79</ele><time>2026-03-11T13:52:39Z</time><extensions><gpxtpx:TrackPointExtension><gpxtpx:atemp>2.8</gpxtpx:atemp></gpxtpx:TrackPointExtension></extensions></trkpt><trkpt lat="42.1789601818" lon="13.3924763929"><ele>2102.76</ele><time>2026-03-11T13:52:40Z</time><extensions><gpxtpx:TrackPointExtension><gpxtpx:atemp>2.8</gpxtpx:atemp></gpxtpx:TrackPointExtension></extensions></trkpt><trkpt lat="42.1789590921" lon="13.3924750518"><ele>2102.73</ele><time>2026-03-11T13:52:41Z</time><extensions><gpxtpx:TrackPointExtension><gpxtpx:atemp>2.8</gpxtpx:atemp></gpxtpx:TrackPointExtension></extensions></trkpt><trkpt lat="42.1789586730" lon="13.3924737945"><ele>2102.70</ele><time>2026-03-11T13:52:42Z</time><extensions><gpxtpx:TrackPointExtension><gpxtpx:atemp>2.8</gpxtpx:atemp></gpxtpx:TrackPointExtension></extensions></trkpt><trkpt lat="42.1789587568" lon="13.3924731240"><ele>2102.69</ele><time>2026-03-11T13:52:43Z</time><extensions><gpxtpx:TrackPointExtension><gpxtpx:atemp>2.8</gpxtpx:atemp></gpxtpx:TrackPointExtension></extensions></trkpt><trkpt lat="42.1789588407" lon="13.3924720343"><ele>2102.68</ele><time>2026-03-11T13:52:44Z</time><extensions><gpxtpx:TrackPointExtension><gpxtpx:atemp>2.8</gpxtpx:atemp></gpxtpx:TrackPointExtension></extensions></trkpt><trkpt lat="42.1789591759" lon="13.3924714476"><ele>2102.67</ele><time>2026-03-11T13:52:45Z</time><extensions><gpxtpx:TrackPointExtension><gpxtpx:atemp>2.8</gpxtpx:atemp></gpxtpx:TrackPointExtension></extensions></trkpt><trkpt lat="42.1789585892" lon="13.3924704418"><ele>2102.67</ele><time>2026-03-11T13:52:46Z</time><extensions><gpxtpx:TrackPointExtension><gpxtpx:atemp>2.8</gpxtpx:atemp></gpxtpx:TrackPointExtension></extensions></trkpt><trkpt lat="42.1789577510" lon="13.3924675919"><ele>2102.64</ele><time>2026-03-11T13:52:47Z</time><extensions><gpxtpx:TrackPointExtension><gpxtpx:atemp>2.8</gpxtpx:atemp></gpxtpx:TrackPointExtension></extensions></trkpt><trkpt lat="42.1789564937" lon="13.3924644906"><ele>2102.64</ele><time>2026-03-11T13:52:48Z</time><extensions><gpxtpx:TrackPointExtension><gpxtpx:atemp>2.8</gpxtpx:atemp></gpxtpx:TrackPointExtension></extensions></trkpt><trkpt lat="42.1789559908" lon="13.3924615569"><ele>2102.64</ele><time>2026-03-11T13:52:49Z</time><extensions><gpxtpx:TrackPointExtension><gpxtpx:atemp>2.8</gpxtpx:atemp></gpxtpx:TrackPointExtension></extensions></trkpt><trkpt lat="42.1789555717" lon="13.3924613893"><ele>2102.64</ele><time>2026-03-11T13:52:50Z</time><extensions><gpxtpx:TrackPointExtension><gpxtpx:atemp>2.8</gpxtpx:atemp></gpxtpx:TrackPointExtension></extensions></trkpt><trkpt lat="42.1789555717" lon="13.3924612217"><ele>2102.61</ele><time>2026-03-11T13:52:51Z</time><extensions><gpxtpx:TrackPointExtension><gpxtpx:atemp>2.8</gpxtpx:atemp></gpxtpx:TrackPointExtension></extensions></trkpt><trkpt lat="42.1789556555" lon="13.3924610540"><ele>2102.57</ele><time>2026-03-11T13:52:52Z</time><extensions><gpxtpx:TrackPointExtension><gpxtpx:atemp>2.8</gpxtpx:atemp></gpxtpx:TrackPointExtension></extensions></trkpt><trkpt lat="42.1789562423" lon="13.3924605511"><ele>2102.55</ele><time>2026-03-11T13:52:53Z</time><extensions><gpxtpx:TrackPointExtension><gpxtpx:atemp>2.8</gpxtpx:atemp></gpxtpx:TrackPointExtension></extensions></trkpt><trkpt lat="42.1789571643" lon="13.3924595453"><ele>2102.47</ele><time>2026-03-11T13:52:54Z</time><extensions><gpxtpx:TrackPointExtension><gpxtpx:atemp>2.8</gpxtpx:atemp></gpxtpx:TrackPointExtension></extensions></trkpt><trkpt lat="42.1789581701" lon="13.3924580365"><ele>2102.43</ele><time>2026-03-11T13:52:55Z</time><extensions><gpxtpx:TrackPointExtension><gpxtpx:atemp>2.8</gpxtpx:atemp></gpxtpx:TrackPointExtension></extensions></trkpt><trkpt lat="42.1789587568" lon="13.3924568631"><ele>2102.41</ele><time>2026-03-11T13:52:56Z</time><extensions><gpxtpx:TrackPointExtension><gpxtpx:atemp>2.8</gpxtpx:atemp></gpxtpx:TrackPointExtension></extensions></trkpt><trkpt lat="42.1789589245" lon="13.3924558572"><ele>2102.40</ele><time>2026-03-11T13:52:57Z</time><extensions><gpxtpx:TrackPointExtension><gpxtpx:atemp>2.8</gpxtpx:atemp></gpxtpx:TrackPointExtension></extensions></trkpt><trkpt lat="42.1789589245" lon="13.3924555220"><ele>2102.37</ele><time>2026-03-11T13:52:58Z</time><extensions><gpxtpx:TrackPointExtension><gpxtpx:atemp>2.8</gpxtpx:atemp></gpxtpx:TrackPointExtension></extensions></trkpt><trkpt lat="42.1789584216" lon="13.3924547676"><ele>2102.36</ele><time>2026-03-11T13:52:59Z</time><extensions><gpxtpx:TrackPointExtension><gpxtpx:atemp>2.8</gpxtpx:atemp></gpxtpx:TrackPointExtension></extensions></trkpt><trkpt lat="42.1789590921" lon="13.3924532589"><ele>2102.34</ele><time>2026-03-11T13:53:00Z</time><extensions><gpxtpx:TrackPointExtension><gpxtpx:atemp>2.8</gpxtpx:atemp></gpxtpx:TrackPointExtension></extensions></trkpt><trkpt lat="42.1789593436" lon="13.3924507443"><ele>2102.34</ele><time>2026-03-11T13:53:01Z</time><extensions><gpxtpx:TrackPointExtension><gpxtpx:atemp>2.8</gpxtpx:atemp></gpxtpx:TrackPointExtension></extensions></trkpt><trkpt lat="42.1789603494" lon="13.3924468886"><ele>2102.35</ele><time>2026-03-11T13:53:02Z</time><extensions><gpxtpx:TrackPointExtension><gpxtpx:atemp>2.8</gpxtpx:atemp></gpxtpx:TrackPointExtension></extensions></trkpt><trkpt lat="42.1789599303" lon="13.3924429491"><ele>2102.35</ele><time>2026-03-11T13:53:03Z</time><extensions><gpxtpx:TrackPointExtension><gpxtpx:atemp>2.8</gpxtpx:atemp></gpxtpx:TrackPointExtension></extensions></trkpt><trkpt lat="42.1789599303" lon="13.3924383391"><ele>2102.36</ele><time>2026-03-11T13:53:04Z</time><extensions><gpxtpx:TrackPointExtension><gpxtpx:atemp>2.8</gpxtpx:atemp></gpxtpx:TrackPointExtension></extensions></trkpt><trkpt lat="42.1789592598" lon="13.3924336452"><ele>2102.37</ele><time>2026-03-11T13:53:05Z</time><extensions><gpxtpx:TrackPointExtension><gpxtpx:atemp>2.8</gpxtpx:atemp></gpxtpx:TrackPointExtension></extensions></trkpt><trkpt lat="42.1789603494" lon="13.3924270235"><ele>2102.38</ele><time>2026-03-11T13:53:06Z</time><extensions><gpxtpx:TrackPointExtension><gpxtpx:atemp>2.8</gpxtpx:atemp></gpxtpx:TrackPointExtension></extensions></trkpt><trkpt lat="42.1789619420" lon="13.3924194798"><ele>2102.38</ele><time>2026-03-11T13:53:07Z</time><extensions><gpxtpx:TrackPointExtension><gpxtpx:atemp>2.8</gpxtpx:atemp></gpxtpx:TrackPointExtension></extensions></trkpt><trkpt lat="42.1789645404" lon="13.3924108464"><ele>2102.38</ele><time>2026-03-11T13:53:08Z</time><extensions><gpxtpx:TrackPointExtension><gpxtpx:atemp>2.8</gpxtpx:atemp></gpxtpx:TrackPointExtension></extensions></trkpt><trkpt lat="42.1789673902" lon="13.3924028836"><ele>2102.38</ele><time>2026-03-11T13:53:09Z</time><extensions><gpxtpx:TrackPointExtension><gpxtpx:atemp>2.8</gpxtpx:atemp></gpxtpx:TrackPointExtension></extensions></trkpt><trkpt lat="42.1789701562" lon="13.3923947532"><ele>2102.36</ele><time>2026-03-11T13:53:10Z</time><extensions><gpxtpx:TrackPointExtension><gpxtpx:atemp>2.8</gpxtpx:atemp></gpxtpx:TrackPointExtension></extensions></trkpt><trkpt lat="42.1789736766" lon="13.3923871256"><ele>2102.35</ele><time>2026-03-11T13:53:11Z</time><extensions><gpxtpx:TrackPointExtension><gpxtpx:atemp>2.8</gpxtpx:atemp></gpxtpx:TrackPointExtension></extensions></trkpt><trkpt lat="42.1789748501" lon="13.3923786599"><ele>2102.34</ele><time>2026-03-11T13:53:12Z</time><extensions><gpxtpx:TrackPointExtension><gpxtpx:atemp>2.8</gpxtpx:atemp></gpxtpx:TrackPointExtension></extensions></trkpt><trkpt lat="42.1789746825" lon="13.3923722897"><ele>2102.34</ele><time>2026-03-11T13:53:13Z</time><extensions><gpxtpx:TrackPointExtension><gpxtpx:atemp>2.8</gpxtpx:atemp></gpxtpx:TrackPointExtension></extensions></trkpt><trkpt lat="42.1789739281" lon="13.3923661709"><ele>2102.36</ele><time>2026-03-11T13:53:14Z</time><extensions><gpxtpx:TrackPointExtension><gpxtpx:atemp>2.8</gpxtpx:atemp></gpxtpx:TrackPointExtension></extensions></trkpt><trkpt lat="42.1789730899" lon="13.3923619799"><ele>2102.38</ele><time>2026-03-11T13:53:15Z</time><extensions><gpxtpx:TrackPointExtension><gpxtpx:atemp>2.8</gpxtpx:atemp></gpxtpx:TrackPointExtension></extensions></trkpt><trkpt lat="42.1789726708" lon="13.3923576213"><ele>2102.41</ele><time>2026-03-11T13:53:16Z</time><extensions><gpxtpx:TrackPointExtension><gpxtpx:atemp>2.8</gpxtpx:atemp></gpxtpx:TrackPointExtension></extensions></trkpt><trkpt lat="42.1789726708" lon="13.3923535980"><ele>2102.41</ele><time>2026-03-11T13:53:17Z</time><extensions><gpxtpx:TrackPointExtension><gpxtpx:atemp>2.8</gpxtpx:atemp></gpxtpx:TrackPointExtension></extensions></trkpt><trkpt lat="42.1789732575" lon="13.3923490718"><ele>2102.41</ele><time>2026-03-11T13:53:18Z</time><extensions><gpxtpx:TrackPointExtension><gpxtpx:atemp>2.8</gpxtpx:atemp></gpxtpx:TrackPointExtension></extensions></trkpt><trkpt lat="42.1789741796" lon="13.3923441265"><ele>2102.41</ele><time>2026-03-11T13:53:19Z</time><extensions><gpxtpx:TrackPointExtension><gpxtpx:atemp>2.8</gpxtpx:atemp></gpxtpx:TrackPointExtension></extensions></trkpt><trkpt lat="42.1789731737" lon="13.3923417795"><ele>2102.42</ele><time>2026-03-11T13:53:20Z</time><extensions><gpxtpx:TrackPointExtension><gpxtpx:atemp>2.8</gpxtpx:atemp></gpxtpx:TrackPointExtension></extensions></trkpt><trkpt lat="42.1789722517" lon="13.3923412766"><ele>2102.41</ele><time>2026-03-11T13:53:21Z</time><extensions><gpxtpx:TrackPointExtension><gpxtpx:atemp>2.8</gpxtpx:atemp></gpxtpx:TrackPointExtension></extensions></trkpt><trkpt lat="42.1789716650" lon="13.3923428692"><ele>2102.39</ele><time>2026-03-11T13:53:22Z</time><extensions><gpxtpx:TrackPointExtension><gpxtpx:atemp>2.8</gpxtpx:atemp></gpxtpx:TrackPointExtension></extensions></trkpt><trkpt lat="42.1789720841" lon="13.3923452999"><ele>2102.34</ele><time>2026-03-11T13:53:23Z</time><extensions><gpxtpx:TrackPointExtension><gpxtpx:atemp>2.8</gpxtpx:atemp></gpxtpx:TrackPointExtension></extensions></trkpt><trkpt lat="42.1789736766" lon="13.3923489880"><ele>2102.34</ele><time>2026-03-11T13:53:24Z</time><extensions><gpxtpx:TrackPointExtension><gpxtpx:atemp>2.8</gpxtpx:atemp></gpxtpx:TrackPointExtension></extensions></trkpt><trkpt lat="42.1789764427" lon="13.3923525922"><ele>2102.34</ele><time>2026-03-11T13:53:25Z</time><extensions><gpxtpx:TrackPointExtension><gpxtpx:atemp>2.8</gpxtpx:atemp></gpxtpx:TrackPointExtension></extensions></trkpt><trkpt lat="42.1789791249" lon="13.3923549391"><ele>2102.34</ele><time>2026-03-11T13:53:26Z</time><extensions><gpxtpx:TrackPointExtension><gpxtpx:atemp>2.8</gpxtpx:atemp></gpxtpx:TrackPointExtension></extensions></trkpt><trkpt lat="42.1789808851" lon="13.3923548553"><ele>2102.34</ele><time>2026-03-11T13:53:27Z</time><extensions><gpxtpx:TrackPointExtension><gpxtpx:atemp>2.8</gpxtpx:atemp></gpxtpx:TrackPointExtension></extensions></trkpt><trkpt lat="42.1789818909" lon="13.3923528437"><ele>2102.35</ele><time>2026-03-11T13:53:28Z</time><extensions><gpxtpx:TrackPointExtension><gpxtpx:atemp>2.8</gpxtpx:atemp></gpxtpx:TrackPointExtension></extensions></trkpt><trkpt lat="42.1789822262" lon="13.3923506644"><ele>2102.35</ele><time>2026-03-11T13:53:29Z</time><extensions><gpxtpx:TrackPointExtension><gpxtpx:atemp>2.8</gpxtpx:atemp></gpxtpx:TrackPointExtension></extensions></trkpt><trkpt lat="42.1789824776" lon="13.3923493233"><ele>2102.37</ele><time>2026-03-11T13:53:30Z</time><extensions><gpxtpx:TrackPointExtension><gpxtpx:atemp>2.8</gpxtpx:atemp></gpxtpx:TrackPointExtension></extensions></trkpt><trkpt lat="42.1789815556" lon="13.3923518378"><ele>2102.38</ele><time>2026-03-11T13:53:31Z</time><extensions><gpxtpx:TrackPointExtension><gpxtpx:atemp>2.8</gpxtpx:atemp></gpxtpx:TrackPointExtension></extensions></trkpt><trkpt lat="42.1789806336" lon="13.3923560288"><ele>2102.38</ele><time>2026-03-11T13:53:32Z</time><extensions><gpxtpx:TrackPointExtension><gpxtpx:atemp>2.9</gpxtpx:atemp></gpxtpx:TrackPointExtension></extensions></trkpt><trkpt lat="42.1789806336" lon="13.3923595492"><ele>2102.39</ele><time>2026-03-11T13:53:33Z</time><extensions><gpxtpx:TrackPointExtension><gpxtpx:atemp>2.9</gpxtpx:atemp></gpxtpx:TrackPointExtension></extensions></trkpt><trkpt lat="42.1789808851" lon="13.3923597168"><ele>2102.39</ele><time>2026-03-11T13:53:34Z</time><extensions><gpxtpx:TrackPointExtension><gpxtpx:atemp>2.9</gpxtpx:atemp></gpxtpx:TrackPointExtension></extensions></trkpt><trkpt lat="42.1789811365" lon="13.3923586272"><ele>2102.40</ele><time>2026-03-11T13:53:35Z</time><extensions><gpxtpx:TrackPointExtension><gpxtpx:atemp>2.9</gpxtpx:atemp></gpxtpx:TrackPointExtension></extensions></trkpt><trkpt lat="42.1789807174" lon="13.3923600521"><ele>2102.40</ele><time>2026-03-11T13:53:36Z</time><extensions><gpxtpx:TrackPointExtension><gpxtpx:atemp>2.9</gpxtpx:atemp></gpxtpx:TrackPointExtension></extensions></trkpt><trkpt lat="42.1789811365" lon="13.3923621476"><ele>2102.40</ele><time>2026-03-11T13:53:37Z</time><extensions><gpxtpx:TrackPointExtension><gpxtpx:atemp>2.9</gpxtpx:atemp></gpxtpx:TrackPointExtension></extensions></trkpt><trkpt lat="42.1789818909" lon="13.3923652489"><ele>2102.40</ele><time>2026-03-11T13:53:38Z</time><extensions><gpxtpx:TrackPointExtension><gpxtpx:atemp>2.9</gpxtpx:atemp></gpxtpx:TrackPointExtension></extensions></trkpt><trkpt lat="42.1789826453" lon="13.3923683502"><ele>2102.40</ele><time>2026-03-11T13:53:39Z</time><extensions><gpxtpx:TrackPointExtension><gpxtpx:atemp>2.9</gpxtpx:atemp></gpxtpx:TrackPointExtension></extensions></trkpt><trkpt lat="42.1789830644" lon="13.3923721220"><ele>2102.41</ele><time>2026-03-11T13:53:40Z</time><extensions><gpxtpx:TrackPointExtension><gpxtpx:atemp>2.9</gpxtpx:atemp></gpxtpx:TrackPointExtension></extensions></trkpt><trkpt lat="42.1789831482" lon="13.3923743851"><ele>2102.43</ele><time>2026-03-11T13:53:41Z</time><extensions><gpxtpx:TrackPointExtension><gpxtpx:atemp>2.9</gpxtpx:atemp></gpxtpx:TrackPointExtension></extensions></trkpt><trkpt lat="42.1789826453" lon="13.3923758939"><ele>2102.43</ele><time>2026-03-11T13:53:42Z</time><extensions><gpxtpx:TrackPointExtension><gpxtpx:atemp>2.9</gpxtpx:atemp></gpxtpx:TrackPointExtension></extensions></trkpt><trkpt lat="42.1789815556" lon="13.3923772350"><ele>2102.45</ele><time>2026-03-11T13:53:43Z</time><extensions><gpxtpx:TrackPointExtension><gpxtpx:atemp>2.9</gpxtpx:atemp></gpxtpx:TrackPointExtension></extensions></trkpt><trkpt lat="42.1789795440" lon="13.3923787437"><ele>2102.44</ele><time>2026-03-11T13:53:44Z</time><extensions><gpxtpx:TrackPointExtension><gpxtpx:atemp>2.9</gpxtpx:atemp></gpxtpx:TrackPointExtension></extensions></trkpt><trkpt lat="42.1789770294" lon="13.3923802525"><ele>2102.44</ele><time>2026-03-11T13:53:45Z</time><extensions><gpxtpx:TrackPointExtension><gpxtpx:atemp>2.9</gpxtpx:atemp></gpxtpx:TrackPointExtension></extensions></trkpt><trkpt lat="42.1789741796" lon="13.3923802525"><ele>2102.31</ele><time>2026-03-11T13:53:46Z</time><extensions><gpxtpx:TrackPointExtension><gpxtpx:atemp>2.9</gpxtpx:atemp></gpxtpx:TrackPointExtension></extensions></trkpt><trkpt lat="42.1789710782" lon="13.3923813421"><ele>2102.25</ele><time>2026-03-11T13:53:47Z</time><extensions><gpxtpx:TrackPointExtension><gpxtpx:atemp>2.9</gpxtpx:atemp></gpxtpx:TrackPointExtension></extensions></trkpt><trkpt lat="42.1789677255" lon="13.3923809230"><ele>2102.25</ele><time>2026-03-11T13:53:48Z</time><extensions><gpxtpx:TrackPointExtension><gpxtpx:atemp>2.9</gpxtpx:atemp></gpxtpx:TrackPointExtension></extensions></trkpt><trkpt lat="42.1789645404" lon="13.3923809230"><ele>2102.22</ele><time>2026-03-11T13:53:49Z</time><extensions><gpxtpx:TrackPointExtension><gpxtpx:atemp>2.9</gpxtpx:atemp></gpxtpx:TrackPointExtension></extensions></trkpt><trkpt lat="42.1789610200" lon="13.3923800848"><ele>2102.18</ele><time>2026-03-11T13:53:50Z</time><extensions><gpxtpx:TrackPointExtension><gpxtpx:atemp>2.9</gpxtpx:atemp></gpxtpx:TrackPointExtension></extensions></trkpt><trkpt lat="42.1789567452" lon="13.3923796657"><ele>2102.16</ele><time>2026-03-11T13:53:51Z</time><extensions><gpxtpx:TrackPointExtension><gpxtpx:atemp>2.9</gpxtpx:atemp></gpxtpx:TrackPointExtension></extensions></trkpt><trkpt lat="42.1789522190" lon="13.3923783246"><ele>2102.16</ele><time>2026-03-11T13:53:52Z</time><extensions><gpxtpx:TrackPointExtension><gpxtpx:atemp>2.9</gpxtpx:atemp></gpxtpx:TrackPointExtension></extensions></trkpt><trkpt lat="42.1789487824" lon="13.3923743851"><ele>2102.15</ele><time>2026-03-11T13:53:53Z</time><extensions><gpxtpx:TrackPointExtension><gpxtpx:atemp>2.9</gpxtpx:atemp></gpxtpx:TrackPointExtension></extensions></trkpt><trkpt lat="42.1789469384" lon="13.3923674282"><ele>2102.16</ele><time>2026-03-11T13:53:54Z</time><extensions><gpxtpx:TrackPointExtension><gpxtpx:atemp>2.9</gpxtpx:atemp></gpxtpx:TrackPointExtension></extensions></trkpt><trkpt lat="42.1789464355" lon="13.3923583757"><ele>2102.16</ele><time>2026-03-11T13:53:55Z</time><extensions><gpxtpx:TrackPointExtension><gpxtpx:atemp>2.9</gpxtpx:atemp></gpxtpx:TrackPointExtension></extensions></trkpt><trkpt lat="42.1789466869" lon="13.3923507482"><ele>2102.16</ele><time>2026-03-11T13:53:56Z</time><extensions><gpxtpx:TrackPointExtension><gpxtpx:atemp>2.9</gpxtpx:atemp></gpxtpx:TrackPointExtension></extensions></trkpt><trkpt lat="42.1789465193" lon="13.3923447970"><ele>2102.16</ele><time>2026-03-11T13:53:57Z</time><extensions><gpxtpx:TrackPointExtension><gpxtpx:atemp>2.9</gpxtpx:atemp></gpxtpx:TrackPointExtension></extensions></trkpt><trkpt lat="42.1789451782" lon="13.3923419472"><ele>2102.13</ele><time>2026-03-11T13:53:58Z</time><extensions><gpxtpx:TrackPointExtension><gpxtpx:atemp>2.9</gpxtpx:atemp></gpxtpx:TrackPointExtension></extensions></trkpt><trkpt lat="42.1789419930" lon="13.3923410252"><ele>2102.13</ele><time>2026-03-11T13:53:59Z</time><extensions><gpxtpx:TrackPointExtension><gpxtpx:atemp>2.9</gpxtpx:atemp></gpxtpx:TrackPointExtension></extensions></trkpt><trkpt lat="42.1789369639" lon="13.3923424501"><ele>2102.13</ele><time>2026-03-11T13:54:00Z</time><extensions><gpxtpx:TrackPointExtension><gpxtpx:atemp>2.9</gpxtpx:atemp></gpxtpx:TrackPointExtension></extensions></trkpt><trkpt lat="42.1789333597" lon="13.3923444618"><ele>2102.11</ele><time>2026-03-11T13:54:01Z</time><extensions><gpxtpx:TrackPointExtension><gpxtpx:atemp>2.9</gpxtpx:atemp></gpxtpx:TrackPointExtension></extensions></trkpt><trkpt lat="42.1789326891" lon="13.3923453838"><ele>2102.11</ele><time>2026-03-11T13:54:02Z</time><extensions><gpxtpx:TrackPointExtension><gpxtpx:atemp>2.9</gpxtpx:atemp></gpxtpx:TrackPointExtension></extensions></trkpt><trkpt lat="42.1789341979" lon="13.3923437912"><ele>2102.11</ele><time>2026-03-11T13:54:03Z</time><extensions><gpxtpx:TrackPointExtension><gpxtpx:atemp>2.9</gpxtpx:atemp></gpxtpx:TrackPointExtension></extensions></trkpt><trkpt lat="42.1789356228" lon="13.3923409414"><ele>2102.11</ele><time>2026-03-11T13:54:04Z</time><extensions><gpxtpx:TrackPointExtension><gpxtpx:atemp>2.9</gpxtpx:atemp></gpxtpx:TrackPointExtension></extensions></trkpt><trkpt lat="42.1789376345" lon="13.3923371695"><ele>2102.11</ele><time>2026-03-11T13:54:05Z</time><extensions><gpxtpx:TrackPointExtension><gpxtpx:atemp>2.9</gpxtpx:atemp></gpxtpx:TrackPointExtension></extensions></trkpt><trkpt lat="42.1789403167" lon="13.3923346549"><ele>2102.16</ele><time>2026-03-11T13:54:06Z</time><extensions><gpxtpx:TrackPointExtension><gpxtpx:atemp>2.9</gpxtpx:atemp></gpxtpx:TrackPointExtension></extensions></trkpt><trkpt lat="42.1789444238" lon="13.3923318889"><ele>2102.17</ele><time>2026-03-11T13:54:07Z</time><extensions><gpxtpx:TrackPointExtension><gpxtpx:atemp>2.9</gpxtpx:atemp></gpxtpx:TrackPointExtension></extensions></trkpt><trkpt lat="42.1789475251" lon="13.3923302963"><ele>2102.17</ele><time>2026-03-11T13:54:08Z</time><extensions><gpxtpx:TrackPointExtension><gpxtpx:atemp>2.9</gpxtpx:atemp></gpxtpx:TrackPointExtension></extensions></trkpt><trkpt lat="42.1789494529" lon="13.3923303802"><ele>2102.16</ele><time>2026-03-11T13:54:09Z</time><extensions><gpxtpx:TrackPointExtension><gpxtpx:atemp>2.9</gpxtpx:atemp></gpxtpx:TrackPointExtension></extensions></trkpt><trkpt lat="42.1789508779" lon="13.3923300449"><ele>2102.16</ele><time>2026-03-11T13:54:10Z</time><extensions><gpxtpx:TrackPointExtension><gpxtpx:atemp>2.9</gpxtpx:atemp></gpxtpx:TrackPointExtension></extensions></trkpt><trkpt lat="42.1789533924" lon="13.3923283685"><ele>2102.16</ele><time>2026-03-11T13:54:11Z</time><extensions><gpxtpx:TrackPointExtension><gpxtpx:atemp>2.9</gpxtpx:atemp></gpxtpx:TrackPointExtension></extensions></trkpt><trkpt lat="42.1789575834" lon="13.3923248481"><ele>2102.14</ele><time>2026-03-11T13:54:12Z</time><extensions><gpxtpx:TrackPointExtension><gpxtpx:atemp>2.9</gpxtpx:atemp></gpxtpx:TrackPointExtension></extensions></trkpt><trkpt lat="42.1789620258" lon="13.3923233394"><ele>2102.13</ele><time>2026-03-11T13:54:13Z</time><extensions><gpxtpx:TrackPointExtension><gpxtpx:atemp>2.9</gpxtpx:atemp></gpxtpx:TrackPointExtension></extensions></trkpt><trkpt lat="42.1789655462" lon="13.3923242614"><ele>2102.13</ele><time>2026-03-11T13:54:14Z</time><extensions><gpxtpx:TrackPointExtension><gpxtpx:atemp>2.9</gpxtpx:atemp></gpxtpx:TrackPointExtension></extensions></trkpt><trkpt lat="42.1789684799" lon="13.3923265245"><ele>2102.13</ele><time>2026-03-11T13:54:15Z</time><extensions><gpxtpx:TrackPointExtension><gpxtpx:atemp>2.9</gpxtpx:atemp></gpxtpx:TrackPointExtension></extensions></trkpt><trkpt lat="42.1789706592" lon="13.3923295420"><ele>2102.13</ele><time>2026-03-11T13:54:16Z</time><extensions><gpxtpx:TrackPointExtension><gpxtpx:atemp>2.9</gpxtpx:atemp></gpxtpx:TrackPointExtension></extensions></trkpt><trkpt lat="42.1789734252" lon="13.3923316374"><ele>2102.13</ele><time>2026-03-11T13:54:17Z</time><extensions><gpxtpx:TrackPointExtension><gpxtpx:atemp>2.9</gpxtpx:atemp></gpxtpx:TrackPointExtension></extensions></trkpt><trkpt lat="42.1789748501" lon="13.3923333976"><ele>2102.13</ele><time>2026-03-11T13:54:18Z</time><extensions><gpxtpx:TrackPointExtension><gpxtpx:atemp>2.9</gpxtpx:atemp></gpxtpx:TrackPointExtension></extensions></trkpt><trkpt lat="42.1789756883" lon="13.3923343197"><ele>2102.13</ele><time>2026-03-11T13:54:19Z</time><extensions><gpxtpx:TrackPointExtension><gpxtpx:atemp>2.9</gpxtpx:atemp></gpxtpx:TrackPointExtension></extensions></trkpt><trkpt lat="42.1789760236" lon="13.3923350740"><ele>2102.13</ele><time>2026-03-11T13:54:20Z</time><extensions><gpxtpx:TrackPointExtension><gpxtpx:atemp>2.9</gpxtpx:atemp></gpxtpx:TrackPointExtension></extensions></trkpt><trkpt lat="42.1789768618" lon="13.3923360799"><ele>2102.16</ele><time>2026-03-11T13:54:21Z</time><extensions><gpxtpx:TrackPointExtension><gpxtpx:atemp>2.9</gpxtpx:atemp></gpxtpx:TrackPointExtension></extensions></trkpt><trkpt lat="42.1789783705" lon="13.3923371695"><ele>2102.21</ele><time>2026-03-11T13:54:22Z</time><extensions><gpxtpx:TrackPointExtension><gpxtpx:atemp>2.9</gpxtpx:atemp></gpxtpx:TrackPointExtension></extensions></trkpt><trkpt lat="42.1789807174" lon="13.3923380915"><ele>2102.21</ele><time>2026-03-11T13:54:23Z</time><extensions><gpxtpx:TrackPointExtension><gpxtpx:atemp>2.9</gpxtpx:atemp></gpxtpx:TrackPointExtension></extensions></trkpt><trkpt lat="42.1789841540" lon="13.3923387621"><ele>2102.24</ele><time>2026-03-11T13:54:24Z</time><extensions><gpxtpx:TrackPointExtension><gpxtpx:atemp>2.9</gpxtpx:atemp></gpxtpx:TrackPointExtension></extensions></trkpt><trkpt lat="42.1789867524" lon="13.3923408575"><ele>2102.24</ele><time>2026-03-11T13:54:25Z</time><extensions><gpxtpx:TrackPointExtension><gpxtpx:atemp>2.9</gpxtpx:atemp></gpxtpx:TrackPointExtension></extensions></trkpt><trkpt lat="42.1789880935" lon="13.3923461381"><ele>2102.24</ele><time>2026-03-11T13:54:26Z</time><extensions><gpxtpx:TrackPointExtension><gpxtpx:atemp>2.9</gpxtpx:atemp></gpxtpx:TrackPointExtension></extensions></trkpt><trkpt lat="42.1789889317" lon="13.3923518378"><ele>2102.27</ele><time>2026-03-11T13:54:27Z</time><extensions><gpxtpx:TrackPointExtension><gpxtpx:atemp>2.9</gpxtpx:atemp></gpxtpx:TrackPointExtension></extensions></trkpt><trkpt lat="42.1789905243" lon="13.3923550230"><ele>2102.29</ele><time>2026-03-11T13:54:28Z</time><extensions><gpxtpx:TrackPointExtension><gpxtpx:atemp>2.9</gpxtpx:atemp></gpxtpx:TrackPointExtension></extensions></trkpt><trkpt lat="42.1789925359" lon="13.3923569508"><ele>2102.28</ele><time>2026-03-11T13:54:29Z</time><extensions><gpxtpx:TrackPointExtension><gpxtpx:atemp>2.9</gpxtpx:atemp></gpxtpx:TrackPointExtension></extensions></trkpt><trkpt lat="42.1789954696" lon="13.3923570346"><ele>2102.30</ele><time>2026-03-11T13:54:30Z</time><extensions><gpxtpx:TrackPointExtension><gpxtpx:atemp>2.9</gpxtpx:atemp></gpxtpx:TrackPointExtension></extensions></trkpt><trkpt lat="42.1789981518" lon="13.3923619799"><ele>2102.30</ele><time>2026-03-11T13:54:31Z</time><extensions><gpxtpx:TrackPointExtension><gpxtpx:atemp>2.9</gpxtpx:atemp></gpxtpx:TrackPointExtension></extensions></trkpt><trkpt lat="42.1790010855" lon="13.3923663385"><ele>2102.33</ele><time>2026-03-11T13:54:32Z</time><extensions><gpxtpx:TrackPointExtension><gpxtpx:atemp>2.9</gpxtpx:atemp></gpxtpx:TrackPointExtension></extensions></trkpt><trkpt lat="42.1790013369" lon="13.3923753910"><ele>2102.38</ele><time>2026-03-11T13:54:33Z</time><extensions><gpxtpx:TrackPointExtension><gpxtpx:atemp>2.9</gpxtpx:atemp></gpxtpx:TrackPointExtension></extensions></trkpt><trkpt lat="42.1790007502" lon="13.3923807554"><ele>2102.38</ele><time>2026-03-11T13:54:34Z</time><extensions><gpxtpx:TrackPointExtension><gpxtpx:atemp>2.9</gpxtpx:atemp></gpxtpx:TrackPointExtension></extensions></trkpt><trkpt lat="42.1789977327" lon="13.3923879638"><ele>2102.39</ele><time>2026-03-11T13:54:35Z</time><extensions><gpxtpx:TrackPointExtension><gpxtpx:atemp>2.9</gpxtpx:atemp></gpxtpx:TrackPointExtension></extensions></trkpt><trkpt lat="42.1789943799" lon="13.3923933282"><ele>2102.39</ele><time>2026-03-11T13:54:36Z</time><extensions><gpxtpx:TrackPointExtension><gpxtpx:atemp>2.9</gpxtpx:atemp></gpxtpx:TrackPointExtension></extensions></trkpt><trkpt lat="42.1789882611" lon="13.3924017940"><ele>2102.39</ele><time>2026-03-11T13:54:37Z</time><extensions><gpxtpx:TrackPointExtension><gpxtpx:atemp>2.9</gpxtpx:atemp></gpxtpx:TrackPointExtension></extensions></trkpt><trkpt lat="42.1789819747" lon="13.3924095891"><ele>2102.40</ele><time>2026-03-11T13:54:38Z</time><extensions><gpxtpx:TrackPointExtension><gpxtpx:atemp>2.9</gpxtpx:atemp></gpxtpx:TrackPointExtension></extensions></trkpt><trkpt lat="42.1789740957" lon="13.3924187254"><ele>2102.40</ele><time>2026-03-11T13:54:39Z</time><extensions><gpxtpx:TrackPointExtension><gpxtpx:atemp>2.9</gpxtpx:atemp></gpxtpx:TrackPointExtension></extensions></trkpt><trkpt lat="42.1789677255" lon="13.3924249280"><ele>2102.38</ele><time>2026-03-11T13:54:40Z</time><extensions><gpxtpx:TrackPointExtension><gpxtpx:atemp>2.9</gpxtpx:atemp></gpxtpx:TrackPointExtension></extensions></trkpt><trkpt lat="42.1789612714" lon="13.3924317174"><ele>2102.36</ele><time>2026-03-11T13:54:41Z</time><extensions><gpxtpx:TrackPointExtension><gpxtpx:atemp>2.9</gpxtpx:atemp></gpxtpx:TrackPointExtension></extensions></trkpt><trkpt lat="42.1789544821" lon="13.3924420271"><ele>2102.32</ele><time>2026-03-11T13:54:42Z</time><extensions><gpxtpx:TrackPointExtension><gpxtpx:atemp>2.9</gpxtpx:atemp></gpxtpx:TrackPointExtension></extensions></trkpt><trkpt lat="42.1789476927" lon="13.3924535941"><ele>2102.30</ele><time>2026-03-11T13:54:43Z</time><extensions><gpxtpx:TrackPointExtension><gpxtpx:atemp>2.9</gpxtpx:atemp></gpxtpx:TrackPointExtension></extensions></trkpt><trkpt lat="42.1789409872" lon="13.3924580365"><ele>2102.24</ele><time>2026-03-11T13:54:44Z</time><extensions><gpxtpx:TrackPointExtension><gpxtpx:atemp>2.9</gpxtpx:atemp></gpxtpx:TrackPointExtension></extensions></trkpt><trkpt lat="42.1789318509" lon="13.3924589586"><ele>2102.22</ele><time>2026-03-11T13:54:45Z</time><extensions><gpxtpx:TrackPointExtension><gpxtpx:atemp>2.9</gpxtpx:atemp></gpxtpx:TrackPointExtension></extensions></trkpt><trkpt lat="42.1789201163" lon="13.3924567793"><ele>2102.22</ele><time>2026-03-11T13:54:46Z</time><extensions><gpxtpx:TrackPointExtension><gpxtpx:atemp>2.9</gpxtpx:atemp></gpxtpx:TrackPointExtension></extensions></trkpt><trkpt lat="42.1789065376" lon="13.3924623951"><ele>2102.22</ele><time>2026-03-11T13:54:47Z</time><extensions><gpxtpx:TrackPointExtension><gpxtpx:atemp>2.9</gpxtpx:atemp></gpxtpx:TrackPointExtension></extensions></trkpt><trkpt lat="42.1788963955" lon="13.3924666699"><ele>2102.22</ele><time>2026-03-11T13:54:48Z</time><extensions><gpxtpx:TrackPointExtension><gpxtpx:atemp>2.9</gpxtpx:atemp></gpxtpx:TrackPointExtension></extensions></trkpt><trkpt lat="42.1788900252" lon="13.3924723696"><ele>2102.18</ele><time>2026-03-11T13:54:49Z</time><extensions><gpxtpx:TrackPointExtension><gpxtpx:atemp>2.9</gpxtpx:atemp></gpxtpx:TrackPointExtension></extensions></trkpt><trkpt lat="42.1788877621" lon="13.3924662508"><ele>2102.16</ele><time>2026-03-11T13:54:50Z</time><extensions><gpxtpx:TrackPointExtension><gpxtpx:atemp>2.9</gpxtpx:atemp></gpxtpx:TrackPointExtension></extensions></trkpt><trkpt lat="42.1788893547" lon="13.3924536780"><ele>2102.15</ele><time>2026-03-11T13:54:51Z</time><extensions><gpxtpx:TrackPointExtension><gpxtpx:atemp>2.9</gpxtpx:atemp></gpxtpx:TrackPointExtension></extensions></trkpt><trkpt lat="42.1788923722" lon="13.3924374171"><ele>2102.12</ele><time>2026-03-11T13:54:52Z</time><extensions><gpxtpx:TrackPointExtension><gpxtpx:atemp>2.9</gpxtpx:atemp></gpxtpx:TrackPointExtension></extensions></trkpt><trkpt lat="42.1788936295" lon="13.3924296219"><ele>2102.08</ele><time>2026-03-11T13:54:53Z</time><extensions><gpxtpx:TrackPointExtension><gpxtpx:atemp>2.9</gpxtpx:atemp></gpxtpx:TrackPointExtension></extensions></trkpt><trkpt lat="42.1788912825" lon="13.3924306277"><ele>2102.06</ele><time>2026-03-11T13:54:54Z</time><extensions><gpxtpx:TrackPointExtension><gpxtpx:atemp>2.9</gpxtpx:atemp></gpxtpx:TrackPointExtension></extensions></trkpt><trkpt lat="42.1788875945" lon="13.3924374171"><ele>2102.06</ele><time>2026-03-11T13:54:55Z</time><extensions><gpxtpx:TrackPointExtension><gpxtpx:atemp>2.9</gpxtpx:atemp></gpxtpx:TrackPointExtension></extensions></trkpt><trkpt lat="42.1788851637" lon="13.3924436197"><ele>2102.10</ele><time>2026-03-11T13:54:56Z</time><extensions><gpxtpx:TrackPointExtension><gpxtpx:atemp>2.9</gpxtpx:atemp></gpxtpx:TrackPointExtension></extensions></trkpt><trkpt lat="42.1788832359" lon="13.3924466372"><ele>2102.11</ele><time>2026-03-11T13:54:57Z</time><extensions><gpxtpx:TrackPointExtension><gpxtpx:atemp>2.9</gpxtpx:atemp></gpxtpx:TrackPointExtension></extensions></trkpt><trkpt lat="42.1788806375" lon="13.3924436197"><ele>2102.12</ele><time>2026-03-11T13:54:58Z</time><extensions><gpxtpx:TrackPointExtension><gpxtpx:atemp>2.9</gpxtpx:atemp></gpxtpx:TrackPointExtension></extensions></trkpt><trkpt lat="42.1788748540" lon="13.3924415242"><ele>2102.12</ele><time>2026-03-11T13:54:59Z</time><extensions><gpxtpx:TrackPointExtension><gpxtpx:atemp>2.9</gpxtpx:atemp></gpxtpx:TrackPointExtension></extensions></trkpt><trkpt lat="42.1788696572" lon="13.3924352378"><ele>2102.12</ele><time>2026-03-11T13:55:00Z</time><extensions><gpxtpx:TrackPointExtension><gpxtpx:atemp>2.9</gpxtpx:atemp></gpxtpx:TrackPointExtension></extensions></trkpt><trkpt lat="42.1788637899" lon="13.3924286999"><ele>2102.12</ele><time>2026-03-11T13:55:01Z</time><extensions><gpxtpx:TrackPointExtension><gpxtpx:atemp>2.9</gpxtpx:atemp></gpxtpx:TrackPointExtension></extensions></trkpt><trkpt lat="42.1788585931" lon="13.3924145345"><ele>2102.08</ele><time>2026-03-11T13:55:02Z</time><extensions><gpxtpx:TrackPointExtension><gpxtpx:atemp>2.9</gpxtpx:atemp></gpxtpx:TrackPointExtension></extensions></trkpt><trkpt lat="42.1788511332" lon="13.3924014587"><ele>2102.00</ele><time>2026-03-11T13:55:03Z</time><extensions><gpxtpx:TrackPointExtension><gpxtpx:atemp>2.9</gpxtpx:atemp></gpxtpx:TrackPointExtension></extensions></trkpt><trkpt lat="42.1788443439" lon="13.3923879638"><ele>2101.91</ele><time>2026-03-11T13:55:04Z</time><extensions><gpxtpx:TrackPointExtension><gpxtpx:atemp>2.9</gpxtpx:atemp></gpxtpx:TrackPointExtension></extensions></trkpt><trkpt lat="42.1788400691" lon="13.3923748881"><ele>2101.86</ele><time>2026-03-11T13:55:05Z</time><extensions><gpxtpx:TrackPointExtension><gpxtpx:atemp>2.9</gpxtpx:atemp></gpxtpx:TrackPointExtension></extensions></trkpt><trkpt lat="42.1788369678" lon="13.3923638240"><ele>2101.85</ele><time>2026-03-11T13:55:06Z</time><extensions><gpxtpx:TrackPointExtension><gpxtpx:atemp>2.9</gpxtpx:atemp></gpxtpx:TrackPointExtension></extensions></trkpt><trkpt lat="42.1788340341" lon="13.3923549391"><ele>2101.85</ele><time>2026-03-11T13:55:07Z</time><extensions><gpxtpx:TrackPointExtension><gpxtpx:atemp>2.9</gpxtpx:atemp></gpxtpx:TrackPointExtension></extensions></trkpt><trkpt lat="42.1788294241" lon="13.3923498262"><ele>2101.88</ele><time>2026-03-11T13:55:08Z</time><extensions><gpxtpx:TrackPointExtension><gpxtpx:atemp>2.9</gpxtpx:atemp></gpxtpx:TrackPointExtension></extensions></trkpt><trkpt lat="42.1788238920" lon="13.3923439588"><ele>2101.94</ele><time>2026-03-11T13:55:09Z</time><extensions><gpxtpx:TrackPointExtension><gpxtpx:atemp>2.9</gpxtpx:atemp></gpxtpx:TrackPointExtension></extensions></trkpt><trkpt lat="42.1788133308" lon="13.3923438750"><ele>2101.96</ele><time>2026-03-11T13:55:10Z</time><extensions><gpxtpx:TrackPointExtension><gpxtpx:atemp>2.9</gpxtpx:atemp></gpxtpx:TrackPointExtension></extensions></trkpt><trkpt lat="42.1787990816" lon="13.3923501614"><ele>2101.98</ele><time>2026-03-11T13:55:11Z</time><extensions><gpxtpx:TrackPointExtension><gpxtpx:atemp>2.9</gpxtpx:atemp></gpxtpx:TrackPointExtension></extensions></trkpt><trkpt lat="42.1787856705" lon="13.3923569508"><ele>2101.99</ele><time>2026-03-11T13:55:12Z</time><extensions><gpxtpx:TrackPointExtension><gpxtpx:atemp>2.9</gpxtpx:atemp></gpxtpx:TrackPointExtension></extensions></trkpt><trkpt lat="42.1787754446" lon="13.3923627343"><ele>2102.00</ele><time>2026-03-11T13:55:13Z</time><extensions><gpxtpx:TrackPointExtension><gpxtpx:atemp>2.9</gpxtpx:atemp></gpxtpx:TrackPointExtension></extensions></trkpt><trkpt lat="42.1787675656" lon="13.3923681825"><ele>2102.01</ele><time>2026-03-11T13:55:14Z</time><extensions><gpxtpx:TrackPointExtension><gpxtpx:atemp>2.9</gpxtpx:atemp></gpxtpx:TrackPointExtension></extensions></trkpt><trkpt lat="42.1787619498" lon="13.3923719544"><ele>2102.03</ele><time>2026-03-11T13:55:15Z</time><extensions><gpxtpx:TrackPointExtension><gpxtpx:atemp>2.9</gpxtpx:atemp></gpxtpx:TrackPointExtension></extensions></trkpt><trkpt lat="42.1787589323" lon="13.3923752233"><ele>2102.08</ele><time>2026-03-11T13:55:16Z</time><extensions><gpxtpx:TrackPointExtension><gpxtpx:atemp>2.9</gpxtpx:atemp></gpxtpx:TrackPointExtension></extensions></trkpt><trkpt lat="42.1787573397" lon="13.3923751395"><ele>2102.12</ele><time>2026-03-11T13:55:17Z</time><extensions><gpxtpx:TrackPointExtension><gpxtpx:atemp>2.9</gpxtpx:atemp></gpxtpx:TrackPointExtension></extensions></trkpt><trkpt lat="42.1787571721" lon="13.3923735470"><ele>2102.13</ele><time>2026-03-11T13:55:18Z</time><extensions><gpxtpx:TrackPointExtension><gpxtpx:atemp>2.9</gpxtpx:atemp></gpxtpx:TrackPointExtension></extensions></trkpt><trkpt lat="42.1787565853" lon="13.3923701942"><ele>2102.16</ele><time>2026-03-11T13:55:19Z</time><extensions><gpxtpx:TrackPointExtension><gpxtpx:atemp>2.9</gpxtpx:atemp></gpxtpx:TrackPointExtension></extensions></trkpt><trkpt lat="42.1787548251" lon="13.3923662547"><ele>2102.16</ele><time>2026-03-11T13:55:20Z</time><extensions><gpxtpx:TrackPointExtension><gpxtpx:atemp>2.9</gpxtpx:atemp></gpxtpx:TrackPointExtension></extensions></trkpt><trkpt lat="42.1787519753" lon="13.3923658356"><ele>2102.16</ele><time>2026-03-11T13:55:21Z</time><extensions><gpxtpx:TrackPointExtension><gpxtpx:atemp>2.9</gpxtpx:atemp></gpxtpx:TrackPointExtension></extensions></trkpt><trkpt lat="42.1787513886" lon="13.3923676796"><ele>2102.16</ele><time>2026-03-11T13:55:22Z</time><extensions><gpxtpx:TrackPointExtension><gpxtpx:atemp>2.9</gpxtpx:atemp></gpxtpx:TrackPointExtension></extensions></trkpt><trkpt lat="42.1787542384" lon="13.3923702780"><ele>2102.16</ele><time>2026-03-11T13:55:23Z</time><extensions><gpxtpx:TrackPointExtension><gpxtpx:atemp>2.9</gpxtpx:atemp></gpxtpx:TrackPointExtension></extensions></trkpt><trkpt lat="42.1787592676" lon="13.3923747204"><ele>2102.18</ele><time>2026-03-11T13:55:24Z</time><extensions><gpxtpx:TrackPointExtension><gpxtpx:atemp>2.9</gpxtpx:atemp></gpxtpx:TrackPointExtension></extensions></trkpt><trkpt lat="42.1787674818" lon="13.3923753910"><ele>2102.18</ele><time>2026-03-11T13:55:25Z</time><extensions><gpxtpx:TrackPointExtension><gpxtpx:atemp>2.9</gpxtpx:atemp></gpxtpx:TrackPointExtension></extensions></trkpt><trkpt lat="42.1787771210" lon="13.3923773188"><ele>2102.20</ele><time>2026-03-11T13:55:26Z</time><extensions><gpxtpx:TrackPointExtension><gpxtpx:atemp>2.9</gpxtpx:atemp></gpxtpx:TrackPointExtension></extensions></trkpt><trkpt lat="42.1787882689" lon="13.3923772350"><ele>2102.24</ele><time>2026-03-11T13:55:27Z</time><extensions><gpxtpx:TrackPointExtension><gpxtpx:atemp>2.9</gpxtpx:atemp></gpxtpx:TrackPointExtension></extensions></trkpt><trkpt lat="42.1787976567" lon="13.3923801687"><ele>2102.27</ele><time>2026-03-11T13:55:28Z</time><extensions><gpxtpx:TrackPointExtension><gpxtpx:atemp>2.9</gpxtpx:atemp></gpxtpx:TrackPointExtension></extensions></trkpt><trkpt lat="42.1788077988" lon="13.3923822641"><ele>2102.28</ele><time>2026-03-11T13:55:29Z</time><extensions><gpxtpx:TrackPointExtension><gpxtpx:atemp>2.9</gpxtpx:atemp></gpxtpx:TrackPointExtension></extensions></trkpt><trkpt lat="42.1788159292" lon="13.3923884667"><ele>2102.31</ele><time>2026-03-11T13:55:30Z</time><extensions><gpxtpx:TrackPointExtension><gpxtpx:atemp>2.9</gpxtpx:atemp></gpxtpx:TrackPointExtension></extensions></trkpt><trkpt lat="42.1788219642" lon="13.3923892211"><ele>2102.36</ele><time>2026-03-11T13:55:31Z</time><extensions><gpxtpx:TrackPointExtension><gpxtpx:atemp>2.9</gpxtpx:atemp></gpxtpx:TrackPointExtension></extensions></trkpt><trkpt lat="42.1788223833" lon="13.3923734631"><ele>2102.40</ele><time>2026-03-11T13:55:32Z</time><extensions><gpxtpx:TrackPointExtension><gpxtpx:atemp>2.9</gpxtpx:atemp></gpxtpx:TrackPointExtension></extensions></trkpt><trkpt lat="42.1788241435" lon="13.3923493233"><ele>2102.38</ele><time>2026-03-11T13:55:33Z</time><extensions><gpxtpx:TrackPointExtension><gpxtpx:atemp>2.9</gpxtpx:atemp></gpxtpx:TrackPointExtension></extensions></trkpt><trkpt lat="42.1788280830" lon="13.3923255187"><ele>2102.35</ele><time>2026-03-11T13:55:34Z</time><extensions><gpxtpx:TrackPointExtension><gpxtpx:atemp>2.8</gpxtpx:atemp></gpxtpx:TrackPointExtension></extensions></trkpt><trkpt lat="42.1788341179" lon="13.3923185617"><ele>2102.32</ele><time>2026-03-11T13:55:35Z</time><extensions><gpxtpx:TrackPointExtension><gpxtpx:atemp>2.8</gpxtpx:atemp></gpxtpx:TrackPointExtension></extensions></trkpt><trkpt lat="42.1788383927" lon="13.3923144545"><ele>2102.31</ele><time>2026-03-11T13:55:36Z</time><extensions><gpxtpx:TrackPointExtension><gpxtpx:atemp>2.8</gpxtpx:atemp></gpxtpx:TrackPointExtension></extensions></trkpt><trkpt lat="42.1788439248" lon="13.3923056535"><ele>2102.30</ele><time>2026-03-11T13:55:37Z</time><extensions><gpxtpx:TrackPointExtension><gpxtpx:atemp>2.8</gpxtpx:atemp></gpxtpx:TrackPointExtension></extensions></trkpt><trkpt lat="42.1788495407" lon="13.3922953438"><ele>2102.30</ele><time>2026-03-11T13:55:38Z</time><extensions><gpxtpx:TrackPointExtension><gpxtpx:atemp>2.8</gpxtpx:atemp></gpxtpx:TrackPointExtension></extensions></trkpt><trkpt lat="42.1788553242" lon="13.3922857884"><ele>2102.33</ele><time>2026-03-11T13:55:39Z</time><extensions><gpxtpx:TrackPointExtension><gpxtpx:atemp>2.8</gpxtpx:atemp></gpxtpx:TrackPointExtension></extensions></trkpt><trkpt lat="42.1788560785" lon="13.3922842797"><ele>2102.39</ele><time>2026-03-11T13:55:40Z</time><extensions><gpxtpx:TrackPointExtension><gpxtpx:atemp>2.8</gpxtpx:atemp></gpxtpx:TrackPointExtension></extensions></trkpt><trkpt lat="42.1788554918" lon="13.3922827709"><ele>2102.41</ele><time>2026-03-11T13:55:41Z</time><extensions><gpxtpx:TrackPointExtension><gpxtpx:atemp>2.8</gpxtpx:atemp></gpxtpx:TrackPointExtension></extensions></trkpt><trkpt lat="42.1788540669" lon="13.3922798373"><ele>2102.45</ele><time>2026-03-11T13:55:42Z</time><extensions><gpxtpx:TrackPointExtension><gpxtpx:atemp>2.8</gpxtpx:atemp></gpxtpx:TrackPointExtension></extensions></trkpt><trkpt lat="42.1788557433" lon="13.3922752272"><ele>2102.45</ele><time>2026-03-11T13:55:43Z</time><extensions><gpxtpx:TrackPointExtension><gpxtpx:atemp>2.8</gpxtpx:atemp></gpxtpx:TrackPointExtension></extensions></trkpt><trkpt lat="42.1788610239" lon="13.3922676835"><ele>2102.45</ele><time>2026-03-11T13:55:44Z</time><extensions><gpxtpx:TrackPointExtension><gpxtpx:atemp>2.8</gpxtpx:atemp></gpxtpx:TrackPointExtension></extensions></trkpt><trkpt lat="42.1788650472" lon="13.3922633249"><ele>2102.42</ele><time>2026-03-11T13:55:45Z</time><extensions><gpxtpx:TrackPointExtension><gpxtpx:atemp>2.8</gpxtpx:atemp></gpxtpx:TrackPointExtension></extensions></trkpt><trkpt lat="42.1788650472" lon="13.3922625706"><ele>2102.38</ele><time>2026-03-11T13:55:46Z</time><extensions><gpxtpx:TrackPointExtension><gpxtpx:atemp>2.8</gpxtpx:atemp></gpxtpx:TrackPointExtension></extensions></trkpt><trkpt lat="42.1788629517" lon="13.3922657557"><ele>2102.36</ele><time>2026-03-11T13:55:47Z</time><extensions><gpxtpx:TrackPointExtension><gpxtpx:atemp>2.8</gpxtpx:atemp></gpxtpx:TrackPointExtension></extensions></trkpt><trkpt lat="42.1788645443" lon="13.3922662586"><ele>2102.35</ele><time>2026-03-11T13:55:48Z</time><extensions><gpxtpx:TrackPointExtension><gpxtpx:atemp>2.8</gpxtpx:atemp></gpxtpx:TrackPointExtension></extensions></trkpt><trkpt lat="42.1788684838" lon="13.3922642469"><ele>2102.35</ele><time>2026-03-11T13:55:49Z</time><extensions><gpxtpx:TrackPointExtension><gpxtpx:atemp>2.8</gpxtpx:atemp></gpxtpx:TrackPointExtension></extensions></trkpt><trkpt lat="42.1788713336" lon="13.3922613971"><ele>2102.34</ele><time>2026-03-11T13:55:50Z</time><extensions><gpxtpx:TrackPointExtension><gpxtpx:atemp>2.8</gpxtpx:atemp></gpxtpx:TrackPointExtension></extensions></trkpt><trkpt lat="42.1788727585" lon="13.3922582958"><ele>2102.32</ele><time>2026-03-11T13:55:51Z</time><extensions><gpxtpx:TrackPointExtension><gpxtpx:atemp>2.8</gpxtpx:atemp></gpxtpx:TrackPointExtension></extensions></trkpt><trkpt lat="42.1788725909" lon="13.3922601398"><ele>2102.31</ele><time>2026-03-11T13:55:52Z</time><extensions><gpxtpx:TrackPointExtension><gpxtpx:atemp>2.8</gpxtpx:atemp></gpxtpx:TrackPointExtension></extensions></trkpt><trkpt lat="42.1788752731" lon="13.3922563680"><ele>2102.29</ele><time>2026-03-11T13:55:53Z</time><extensions><gpxtpx:TrackPointExtension><gpxtpx:atemp>2.8</gpxtpx:atemp></gpxtpx:TrackPointExtension></extensions></trkpt><trkpt lat="42.1788773686" lon="13.3922581282"><ele>2102.29</ele><time>2026-03-11T13:55:54Z</time><extensions><gpxtpx:TrackPointExtension><gpxtpx:atemp>2.8</gpxtpx:atemp></gpxtpx:TrackPointExtension></extensions></trkpt><trkpt lat="42.1788804699" lon="13.3922544401"><ele>2102.26</ele><time>2026-03-11T13:55:55Z</time><extensions><gpxtpx:TrackPointExtension><gpxtpx:atemp>2.8</gpxtpx:atemp></gpxtpx:TrackPointExtension></extensions></trkpt><trkpt lat="42.1788762789" lon="13.3922627382"><ele>2102.25</ele><time>2026-03-11T13:55:56Z</time><extensions><gpxtpx:TrackPointExtension><gpxtpx:atemp>2.8</gpxtpx:atemp></gpxtpx:TrackPointExtension></extensions></trkpt><trkpt lat="42.1788684838" lon="13.3922724612"><ele>2102.26</ele><time>2026-03-11T13:55:57Z</time><extensions><gpxtpx:TrackPointExtension><gpxtpx:atemp>2.8</gpxtpx:atemp></gpxtpx:TrackPointExtension></extensions></trkpt><trkpt lat="42.1788600180" lon="13.3922824357"><ele>2102.31</ele><time>2026-03-11T13:55:58Z</time><extensions><gpxtpx:TrackPointExtension><gpxtpx:atemp>2.8</gpxtpx:atemp></gpxtpx:TrackPointExtension></extensions></trkpt><trkpt lat="42.1788575873" lon="13.3922828548"><ele>2102.37</ele><time>2026-03-11T13:55:59Z</time><extensions><gpxtpx:TrackPointExtension><gpxtpx:atemp>2.8</gpxtpx:atemp></gpxtpx:TrackPointExtension></extensions></trkpt><trkpt lat="42.1788581740" lon="13.3922743890"><ele>2102.40</ele><time>2026-03-11T13:56:00Z</time><extensions><gpxtpx:TrackPointExtension><gpxtpx:atemp>2.8</gpxtpx:atemp></gpxtpx:TrackPointExtension></extensions></trkpt><trkpt lat="42.1788594313" lon="13.3922660910"><ele>2102.42</ele><time>2026-03-11T13:56:01Z</time><extensions><gpxtpx:TrackPointExtension><gpxtpx:atemp>2.8</gpxtpx:atemp></gpxtpx:TrackPointExtension></extensions></trkpt><trkpt lat="42.1788591798" lon="13.3922625706"><ele>2102.48</ele><time>2026-03-11T13:56:02Z</time><extensions><gpxtpx:TrackPointExtension><gpxtpx:atemp>2.8</gpxtpx:atemp></gpxtpx:TrackPointExtension></extensions></trkpt><trkpt lat="42.1788591798" lon="13.3922617324"><ele>2102.55</ele><time>2026-03-11T13:56:03Z</time><extensions><gpxtpx:TrackPointExtension><gpxtpx:atemp>2.8</gpxtpx:atemp></gpxtpx:TrackPointExtension></extensions></trkpt><trkpt lat="42.1788578387" lon="13.3922642469"><ele>2102.63</ele><time>2026-03-11T13:56:04Z</time><extensions><gpxtpx:TrackPointExtension><gpxtpx:atemp>2.8</gpxtpx:atemp></gpxtpx:TrackPointExtension></extensions></trkpt><trkpt lat="42.1788580902" lon="13.3922643308"><ele>2102.68</ele><time>2026-03-11T13:56:05Z</time><extensions><gpxtpx:TrackPointExtension><gpxtpx:atemp>2.8</gpxtpx:atemp></gpxtpx:TrackPointExtension></extensions></trkpt><trkpt lat="42.1788599342" lon="13.3922670968"><ele>2102.69</ele><time>2026-03-11T13:56:06Z</time><extensions><gpxtpx:TrackPointExtension><gpxtpx:atemp>2.8</gpxtpx:atemp></gpxtpx:TrackPointExtension></extensions></trkpt><trkpt lat="42.1788641252" lon="13.3922702819"><ele>2102.69</ele><time>2026-03-11T13:56:07Z</time><extensions><gpxtpx:TrackPointExtension><gpxtpx:atemp>2.8</gpxtpx:atemp></gpxtpx:TrackPointExtension></extensions></trkpt><trkpt lat="42.1788694896" lon="13.3922747243"><ele>2102.67</ele><time>2026-03-11T13:56:08Z</time><extensions><gpxtpx:TrackPointExtension><gpxtpx:atemp>2.8</gpxtpx:atemp></gpxtpx:TrackPointExtension></extensions></trkpt><trkpt lat="42.1788739320" lon="13.3922774903"><ele>2102.67</ele><time>2026-03-11T13:56:09Z</time><extensions><gpxtpx:TrackPointExtension><gpxtpx:atemp>2.8</gpxtpx:atemp></gpxtpx:TrackPointExtension></extensions></trkpt><trkpt lat="42.1788761951" lon="13.3922788315"><ele>2102.67</ele><time>2026-03-11T13:56:10Z</time><extensions><gpxtpx:TrackPointExtension><gpxtpx:atemp>2.8</gpxtpx:atemp></gpxtpx:TrackPointExtension></extensions></trkpt><trkpt lat="42.1788768657" lon="13.3922805917"><ele>2102.67</ele><time>2026-03-11T13:56:11Z</time><extensions><gpxtpx:TrackPointExtension><gpxtpx:atemp>2.8</gpxtpx:atemp></gpxtpx:TrackPointExtension></extensions></trkpt><trkpt lat="42.1788777877" lon="13.3922841959"><ele>2102.68</ele><time>2026-03-11T13:56:12Z</time><extensions><gpxtpx:TrackPointExtension><gpxtpx:atemp>2.8</gpxtpx:atemp></gpxtpx:TrackPointExtension></extensions></trkpt><trkpt lat="42.1788789611" lon="13.3922902308"><ele>2102.68</ele><time>2026-03-11T13:56:13Z</time><extensions><gpxtpx:TrackPointExtension><gpxtpx:atemp>2.8</gpxtpx:atemp></gpxtpx:TrackPointExtension></extensions></trkpt><trkpt lat="42.1788784582" lon="13.3922989480"><ele>2102.68</ele><time>2026-03-11T13:56:14Z</time><extensions><gpxtpx:TrackPointExtension><gpxtpx:atemp>2.8</gpxtpx:atemp></gpxtpx:TrackPointExtension></extensions></trkpt><trkpt lat="42.1788732614" lon="13.3923114371"><ele>2102.67</ele><time>2026-03-11T13:56:15Z</time><extensions><gpxtpx:TrackPointExtension><gpxtpx:atemp>2.8</gpxtpx:atemp></gpxtpx:TrackPointExtension></extensions></trkpt><trkpt lat="42.1788678970" lon="13.3923197351"><ele>2102.61</ele><time>2026-03-11T13:56:16Z</time><extensions><gpxtpx:TrackPointExtension><gpxtpx:atemp>2.8</gpxtpx:atemp></gpxtpx:TrackPointExtension></extensions></trkpt><trkpt lat="42.1788683999" lon="13.3922967687"><ele>2102.54</ele><time>2026-03-11T13:56:17Z</time><extensions><gpxtpx:TrackPointExtension><gpxtpx:atemp>2.8</gpxtpx:atemp></gpxtpx:TrackPointExtension></extensions></trkpt><trkpt lat="42.1788713336" lon="13.3922709525"><ele>2102.41</ele><time>2026-03-11T13:56:18Z</time><extensions><gpxtpx:TrackPointExtension><gpxtpx:atemp>2.8</gpxtpx:atemp></gpxtpx:TrackPointExtension></extensions></trkpt><trkpt lat="42.1788764466" lon="13.3922442980"><ele>2102.38</ele><time>2026-03-11T13:56:19Z</time><extensions><gpxtpx:TrackPointExtension><gpxtpx:atemp>2.8</gpxtpx:atemp></gpxtpx:TrackPointExtension></extensions></trkpt><trkpt lat="42.1788782906" lon="13.3922454715"><ele>2102.36</ele><time>2026-03-11T13:56:20Z</time><extensions><gpxtpx:TrackPointExtension><gpxtpx:atemp>2.8</gpxtpx:atemp></gpxtpx:TrackPointExtension></extensions></trkpt><trkpt lat="42.1788804699" lon="13.3922431245"><ele>2102.34</ele><time>2026-03-11T13:56:21Z</time><extensions><gpxtpx:TrackPointExtension><gpxtpx:atemp>2.8</gpxtpx:atemp></gpxtpx:TrackPointExtension></extensions></trkpt><trkpt lat="42.1788819786" lon="13.3922419511"><ele>2102.30</ele><time>2026-03-11T13:56:22Z</time><extensions><gpxtpx:TrackPointExtension><gpxtpx:atemp>2.8</gpxtpx:atemp></gpxtpx:TrackPointExtension></extensions></trkpt><trkpt lat="42.1788826492" lon="13.3922407776"><ele>2102.28</ele><time>2026-03-11T13:56:23Z</time><extensions><gpxtpx:TrackPointExtension><gpxtpx:atemp>2.8</gpxtpx:atemp></gpxtpx:TrackPointExtension></extensions></trkpt><trkpt lat="42.1788842417" lon="13.3922411967"><ele>2102.28</ele><time>2026-03-11T13:56:24Z</time><extensions><gpxtpx:TrackPointExtension><gpxtpx:atemp>2.8</gpxtpx:atemp></gpxtpx:TrackPointExtension></extensions></trkpt><trkpt lat="42.1788861696" lon="13.3922414482"><ele>2102.28</ele><time>2026-03-11T13:56:25Z</time><extensions><gpxtpx:TrackPointExtension><gpxtpx:atemp>2.8</gpxtpx:atemp></gpxtpx:TrackPointExtension></extensions></trkpt><trkpt lat="42.1788893547" lon="13.3922433760"><ele>2102.28</ele><time>2026-03-11T13:56:26Z</time><extensions><gpxtpx:TrackPointExtension><gpxtpx:atemp>2.8</gpxtpx:atemp></gpxtpx:TrackPointExtension></extensions></trkpt><trkpt lat="42.1788924560" lon="13.3922439627"><ele>2102.28</ele><time>2026-03-11T13:56:27Z</time><extensions><gpxtpx:TrackPointExtension><gpxtpx:atemp>2.8</gpxtpx:atemp></gpxtpx:TrackPointExtension></extensions></trkpt><trkpt lat="42.1788947191" lon="13.3922471479"><ele>2102.28</ele><time>2026-03-11T13:56:28Z</time><extensions><gpxtpx:TrackPointExtension><gpxtpx:atemp>2.8</gpxtpx:atemp></gpxtpx:TrackPointExtension></extensions></trkpt><trkpt lat="42.1788942162" lon="13.3922502492"><ele>2102.30</ele><time>2026-03-11T13:56:29Z</time><extensions><gpxtpx:TrackPointExtension><gpxtpx:atemp>2.8</gpxtpx:atemp></gpxtpx:TrackPointExtension></extensions></trkpt><trkpt lat="42.1788912825" lon="13.3922531828"><ele>2102.37</ele><time>2026-03-11T13:56:30Z</time><extensions><gpxtpx:TrackPointExtension><gpxtpx:atemp>2.8</gpxtpx:atemp></gpxtpx:TrackPointExtension></extensions></trkpt><trkpt lat="42.1788893547" lon="13.3922531828"><ele>2102.43</ele><time>2026-03-11T13:56:31Z</time><extensions><gpxtpx:TrackPointExtension><gpxtpx:atemp>2.8</gpxtpx:atemp></gpxtpx:TrackPointExtension></extensions></trkpt><trkpt lat="42.1788893547" lon="13.3922533505"><ele>2102.50</ele><time>2026-03-11T13:56:32Z</time><extensions><gpxtpx:TrackPointExtension><gpxtpx:atemp>2.8</gpxtpx:atemp></gpxtpx:TrackPointExtension></extensions></trkpt><trkpt lat="42.1788937971" lon="13.3922491595"><ele>2102.54</ele><time>2026-03-11T13:56:33Z</time><extensions><gpxtpx:TrackPointExtension><gpxtpx:atemp>2.8</gpxtpx:atemp></gpxtpx:TrackPointExtension></extensions></trkpt><trkpt lat="42.1788971499" lon="13.3922470640"><ele>2102.57</ele><time>2026-03-11T13:56:34Z</time><extensions><gpxtpx:TrackPointExtension><gpxtpx:atemp>3.0</gpxtpx:atemp></gpxtpx:TrackPointExtension></extensions></trkpt><trkpt lat="42.1788996644" lon="13.3922465611"><ele>2102.57</ele><time>2026-03-11T13:56:35Z</time><extensions><gpxtpx:TrackPointExtension><gpxtpx:atemp>3.0</gpxtpx:atemp></gpxtpx:TrackPointExtension></extensions></trkpt><trkpt lat="42.1788986586" lon="13.3922510874"><ele>2102.58</ele><time>2026-03-11T13:56:36Z</time><extensions><gpxtpx:TrackPointExtension><gpxtpx:atemp>3.0</gpxtpx:atemp></gpxtpx:TrackPointExtension></extensions></trkpt><trkpt lat="42.1788977366" lon="13.3922525961"><ele>2102.57</ele><time>2026-03-11T13:56:37Z</time><extensions><gpxtpx:TrackPointExtension><gpxtpx:atemp>3.0</gpxtpx:atemp></gpxtpx:TrackPointExtension></extensions></trkpt><trkpt lat="42.1788977366" lon="13.3922481537"><ele>2102.54</ele><time>2026-03-11T13:56:38Z</time><extensions><gpxtpx:TrackPointExtension><gpxtpx:atemp>3.0</gpxtpx:atemp></gpxtpx:TrackPointExtension></extensions></trkpt><trkpt lat="42.1789006703" lon="13.3922369219"><ele>2102.52</ele><time>2026-03-11T13:56:39Z</time><extensions><gpxtpx:TrackPointExtension><gpxtpx:atemp>3.0</gpxtpx:atemp></gpxtpx:TrackPointExtension></extensions></trkpt><trkpt lat="42.1789034363" lon="13.3922272827"><ele>2102.52</ele><time>2026-03-11T13:56:40Z</time><extensions><gpxtpx:TrackPointExtension><gpxtpx:atemp>3.0</gpxtpx:atemp></gpxtpx:TrackPointExtension></extensions></trkpt><trkpt lat="42.1789054479" lon="13.3922208287"><ele>2102.53</ele><time>2026-03-11T13:56:41Z</time><extensions><gpxtpx:TrackPointExtension><gpxtpx:atemp>3.0</gpxtpx:atemp></gpxtpx:TrackPointExtension></extensions></trkpt><trkpt lat="42.1789051965" lon="13.3922205772"><ele>2102.53</ele><time>2026-03-11T13:56:42Z</time><extensions><gpxtpx:TrackPointExtension><gpxtpx:atemp>3.0</gpxtpx:atemp></gpxtpx:TrackPointExtension></extensions></trkpt><trkpt lat="42.1789053641" lon="13.3922202419"><ele>2102.55</ele><time>2026-03-11T13:56:43Z</time><extensions><gpxtpx:TrackPointExtension><gpxtpx:atemp>3.0</gpxtpx:atemp></gpxtpx:TrackPointExtension></extensions></trkpt><trkpt lat="42.1789056994" lon="13.3922204934"><ele>2102.61</ele><time>2026-03-11T13:56:44Z</time><extensions><gpxtpx:TrackPointExtension><gpxtpx:atemp>3.0</gpxtpx:atemp></gpxtpx:TrackPointExtension></extensions></trkpt><trkpt lat="42.1789059509" lon="13.3922205772"><ele>2102.69</ele><time>2026-03-11T13:56:45Z</time><extensions><gpxtpx:TrackPointExtension><gpxtpx:atemp>3.0</gpxtpx:atemp></gpxtpx:TrackPointExtension></extensions></trkpt><trkpt lat="42.1789075434" lon="13.3922182303"><ele>2102.75</ele><time>2026-03-11T13:56:46Z</time><extensions><gpxtpx:TrackPointExtension><gpxtpx:atemp>3.0</gpxtpx:atemp></gpxtpx:TrackPointExtension></extensions></trkpt><trkpt lat="42.1789081302" lon="13.3922176436"><ele>2102.77</ele><time>2026-03-11T13:56:47Z</time><extensions><gpxtpx:TrackPointExtension><gpxtpx:atemp>3.0</gpxtpx:atemp></gpxtpx:TrackPointExtension></extensions></trkpt><trkpt lat="42.1789078787" lon="13.3922164701"><ele>2102.83</ele><time>2026-03-11T13:56:48Z</time><extensions><gpxtpx:TrackPointExtension><gpxtpx:atemp>3.0</gpxtpx:atemp></gpxtpx:TrackPointExtension></extensions></trkpt><trkpt lat="42.1789057832" lon="13.3922165539"><ele>2102.85</ele><time>2026-03-11T13:56:49Z</time><extensions><gpxtpx:TrackPointExtension><gpxtpx:atemp>3.0</gpxtpx:atemp></gpxtpx:TrackPointExtension></extensions></trkpt><trkpt lat="42.1789035201" lon="13.3922143746"><ele>2102.85</ele><time>2026-03-11T13:56:50Z</time><extensions><gpxtpx:TrackPointExtension><gpxtpx:atemp>3.0</gpxtpx:atemp></gpxtpx:TrackPointExtension></extensions></trkpt><trkpt lat="42.1789012570" lon="13.3922133688"><ele>2102.80</ele><time>2026-03-11T13:56:51Z</time><extensions><gpxtpx:TrackPointExtension><gpxtpx:atemp>3.0</gpxtpx:atemp></gpxtpx:TrackPointExtension></extensions></trkpt><trkpt lat="42.1788977366" lon="13.3922161348"><ele>2102.74</ele><time>2026-03-11T13:56:52Z</time><extensions><gpxtpx:TrackPointExtension><gpxtpx:atemp>3.0</gpxtpx:atemp></gpxtpx:TrackPointExtension></extensions></trkpt><trkpt lat="42.1788934618" lon="13.3922246844"><ele>2102.73</ele><time>2026-03-11T13:56:53Z</time><extensions><gpxtpx:TrackPointExtension><gpxtpx:atemp>3.0</gpxtpx:atemp></gpxtpx:TrackPointExtension></extensions></trkpt><trkpt lat="42.1788871754" lon="13.3922378439"><ele>2102.70</ele><time>2026-03-11T13:56:54Z</time><extensions><gpxtpx:TrackPointExtension><gpxtpx:atemp>3.0</gpxtpx:atemp></gpxtpx:TrackPointExtension></extensions></trkpt><trkpt lat="42.1788808890" lon="13.3922542725"><ele>2102.69</ele><time>2026-03-11T13:56:55Z</time><extensions><gpxtpx:TrackPointExtension><gpxtpx:atemp>3.0</gpxtpx:atemp></gpxtpx:TrackPointExtension></extensions></trkpt><trkpt lat="42.1788758598" lon="13.3922685217"><ele>2102.69</ele><time>2026-03-11T13:56:56Z</time><extensions><gpxtpx:TrackPointExtension><gpxtpx:atemp>3.0</gpxtpx:atemp></gpxtpx:TrackPointExtension></extensions></trkpt><trkpt lat="42.1788734291" lon="13.3922821842"><ele>2102.69</ele><time>2026-03-11T13:56:57Z</time><extensions><gpxtpx:TrackPointExtension><gpxtpx:atemp>3.0</gpxtpx:atemp></gpxtpx:TrackPointExtension></extensions></trkpt><trkpt lat="42.1788719203" lon="13.3922955953"><ele>2102.68</ele><time>2026-03-11T13:56:58Z</time><extensions><gpxtpx:TrackPointExtension><gpxtpx:atemp>3.0</gpxtpx:atemp></gpxtpx:TrackPointExtension></extensions></trkpt><trkpt lat="42.1788707469" lon="13.3923067432"><ele>2102.67</ele><time>2026-03-11T13:56:59Z</time><extensions><gpxtpx:TrackPointExtension><gpxtpx:atemp>3.0</gpxtpx:atemp></gpxtpx:TrackPointExtension></extensions></trkpt><trkpt lat="42.1788701601" lon="13.3923124429"><ele>2102.67</ele><time>2026-03-11T13:57:00Z</time><extensions><gpxtpx:TrackPointExtension><gpxtpx:atemp>3.0</gpxtpx:atemp></gpxtpx:TrackPointExtension></extensions></trkpt><trkpt lat="42.1788682323" lon="13.3923094254"><ele>2102.66</ele><time>2026-03-11T13:57:01Z</time><extensions><gpxtpx:TrackPointExtension><gpxtpx:atemp>3.0</gpxtpx:atemp></gpxtpx:TrackPointExtension></extensions></trkpt><trkpt lat="42.1788676456" lon="13.3923024684"><ele>2102.65</ele><time>2026-03-11T13:57:02Z</time><extensions><gpxtpx:TrackPointExtension><gpxtpx:atemp>3.0</gpxtpx:atemp></gpxtpx:TrackPointExtension></extensions></trkpt><trkpt lat="42.1788671426" lon="13.3922987804"><ele>2102.64</ele><time>2026-03-11T13:57:03Z</time><extensions><gpxtpx:TrackPointExtension><gpxtpx:atemp>3.0</gpxtpx:atemp></gpxtpx:TrackPointExtension></extensions></trkpt><trkpt lat="42.1788686514" lon="13.3922988642"><ele>2102.69</ele><time>2026-03-11T13:57:04Z</time><extensions><gpxtpx:TrackPointExtension><gpxtpx:atemp>3.0</gpxtpx:atemp></gpxtpx:TrackPointExtension></extensions></trkpt><trkpt lat="42.1788691543" lon="13.3923043963"><ele>2102.71</ele><time>2026-03-11T13:57:05Z</time><extensions><gpxtpx:TrackPointExtension><gpxtpx:atemp>3.0</gpxtpx:atemp></gpxtpx:TrackPointExtension></extensions></trkpt><trkpt lat="42.1788712498" lon="13.3923167177"><ele>2102.71</ele><time>2026-03-11T13:57:06Z</time><extensions><gpxtpx:TrackPointExtension><gpxtpx:atemp>3.0</gpxtpx:atemp></gpxtpx:TrackPointExtension></extensions></trkpt><trkpt lat="42.1788729262" lon="13.3923304640"><ele>2102.71</ele><time>2026-03-11T13:57:07Z</time><extensions><gpxtpx:TrackPointExtension><gpxtpx:atemp>3.0</gpxtpx:atemp></gpxtpx:TrackPointExtension></extensions></trkpt><trkpt lat="42.1788733453" lon="13.3923446294"><ele>2102.71</ele><time>2026-03-11T13:57:08Z</time><extensions><gpxtpx:TrackPointExtension><gpxtpx:atemp>3.0</gpxtpx:atemp></gpxtpx:TrackPointExtension></extensions></trkpt><trkpt lat="42.1788707469" lon="13.3923490718"><ele>2102.69</ele><time>2026-03-11T13:57:09Z</time><extensions><gpxtpx:TrackPointExtension><gpxtpx:atemp>3.0</gpxtpx:atemp></gpxtpx:TrackPointExtension></extensions></trkpt><trkpt lat="42.1788683999" lon="13.3923507482"><ele>2102.65</ele><time>2026-03-11T13:57:10Z</time><extensions><gpxtpx:TrackPointExtension><gpxtpx:atemp>3.0</gpxtpx:atemp></gpxtpx:TrackPointExtension></extensions></trkpt><trkpt lat="42.1788677294" lon="13.3923484851"><ele>2102.59</ele><time>2026-03-11T13:57:11Z</time><extensions><gpxtpx:TrackPointExtension><gpxtpx:atemp>3.0</gpxtpx:atemp></gpxtpx:TrackPointExtension></extensions></trkpt><trkpt lat="42.1788685676" lon="13.3923499938"><ele>2102.56</ele><time>2026-03-11T13:57:12Z</time><extensions><gpxtpx:TrackPointExtension><gpxtpx:atemp>3.0</gpxtpx:atemp></gpxtpx:TrackPointExtension></extensions></trkpt><trkpt lat="42.1788675617" lon="13.3923545200"><ele>2102.52</ele><time>2026-03-11T13:57:13Z</time><extensions><gpxtpx:TrackPointExtension><gpxtpx:atemp>3.0</gpxtpx:atemp></gpxtpx:TrackPointExtension></extensions></trkpt><trkpt lat="42.1788652986" lon="13.3923610579"><ele>2102.48</ele><time>2026-03-11T13:57:14Z</time><extensions><gpxtpx:TrackPointExtension><gpxtpx:atemp>3.0</gpxtpx:atemp></gpxtpx:TrackPointExtension></extensions></trkpt><trkpt lat="42.1788603533" lon="13.3923684340"><ele>2102.43</ele><time>2026-03-11T13:57:15Z</time><extensions><gpxtpx:TrackPointExtension><gpxtpx:atemp>3.0</gpxtpx:atemp></gpxtpx:TrackPointExtension></extensions></trkpt><trkpt lat="42.1788522229" lon="13.3923784923"><ele>2102.42</ele><time>2026-03-11T13:57:16Z</time><extensions><gpxtpx:TrackPointExtension><gpxtpx:atemp>3.0</gpxtpx:atemp></gpxtpx:TrackPointExtension></extensions></trkpt><trkpt lat="42.1788425837" lon="13.3923982736"><ele>2102.41</ele><time>2026-03-11T13:57:17Z</time><extensions><gpxtpx:TrackPointExtension><gpxtpx:atemp>3.0</gpxtpx:atemp></gpxtpx:TrackPointExtension></extensions></trkpt><trkpt lat="42.1788354591" lon="13.3924191445"><ele>2102.41</ele><time>2026-03-11T13:57:18Z</time><extensions><gpxtpx:TrackPointExtension><gpxtpx:atemp>3.0</gpxtpx:atemp></gpxtpx:TrackPointExtension></extensions></trkpt><trkpt lat="42.1788306814" lon="13.3924851939"><ele>2102.41</ele><time>2026-03-11T13:57:19Z</time><extensions><gpxtpx:TrackPointExtension><gpxtpx:atemp>3.0</gpxtpx:atemp></gpxtpx:TrackPointExtension></extensions></trkpt><trkpt lat="42.1788243949" lon="13.3925435320"><ele>2102.40</ele><time>2026-03-11T13:57:20Z</time><extensions><gpxtpx:TrackPointExtension><gpxtpx:atemp>3.0</gpxtpx:atemp></gpxtpx:TrackPointExtension></extensions></trkpt><trkpt lat="42.1788155939" lon="13.3925834298"><ele>2102.40</ele><time>2026-03-11T13:57:21Z</time><extensions><gpxtpx:TrackPointExtension><gpxtpx:atemp>3.0</gpxtpx:atemp></gpxtpx:TrackPointExtension></extensions></trkpt><trkpt lat="42.1788099781" lon="13.3925677557"><ele>2102.40</ele><time>2026-03-11T13:57:22Z</time><extensions><gpxtpx:TrackPointExtension><gpxtpx:atemp>3.0</gpxtpx:atemp></gpxtpx:TrackPointExtension></extensions></trkpt><trkpt lat="42.1788079664" lon="13.3925436996"><ele>2102.40</ele><time>2026-03-11T13:57:23Z</time><extensions><gpxtpx:TrackPointExtension><gpxtpx:atemp>3.0</gpxtpx:atemp></gpxtpx:TrackPointExtension></extensions></trkpt><trkpt lat="42.1788069606" lon="13.3925292827"><ele>2102.38</ele><time>2026-03-11T13:57:24Z</time><extensions><gpxtpx:TrackPointExtension><gpxtpx:atemp>3.0</gpxtpx:atemp></gpxtpx:TrackPointExtension></extensions></trkpt><trkpt lat="42.1788060386" lon="13.3925160393"><ele>2102.38</ele><time>2026-03-11T13:57:25Z</time><extensions><gpxtpx:TrackPointExtension><gpxtpx:atemp>3.0</gpxtpx:atemp></gpxtpx:TrackPointExtension></extensions></trkpt><trkpt lat="42.1788062900" lon="13.3925009519"><ele>2102.38</ele><time>2026-03-11T13:57:26Z</time><extensions><gpxtpx:TrackPointExtension><gpxtpx:atemp>3.0</gpxtpx:atemp></gpxtpx:TrackPointExtension></extensions></trkpt><trkpt lat="42.1788084693" lon="13.3924858645"><ele>2102.39</ele><time>2026-03-11T13:57:27Z</time><extensions><gpxtpx:TrackPointExtension><gpxtpx:atemp>3.0</gpxtpx:atemp></gpxtpx:TrackPointExtension></extensions></trkpt><trkpt lat="42.1788107324" lon="13.3924708609"><ele>2102.39</ele><time>2026-03-11T13:57:28Z</time><extensions><gpxtpx:TrackPointExtension><gpxtpx:atemp>3.0</gpxtpx:atemp></gpxtpx:TrackPointExtension></extensions></trkpt><trkpt lat="42.1788110677" lon="13.3924626466"><ele>2102.39</ele><time>2026-03-11T13:57:29Z</time><extensions><gpxtpx:TrackPointExtension><gpxtpx:atemp>3.0</gpxtpx:atemp></gpxtpx:TrackPointExtension></extensions></trkpt><trkpt lat="42.1788090561" lon="13.3924529236"><ele>2102.39</ele><time>2026-03-11T13:57:30Z</time><extensions><gpxtpx:TrackPointExtension><gpxtpx:atemp>3.0</gpxtpx:atemp></gpxtpx:TrackPointExtension></extensions></trkpt><trkpt lat="42.1788030211" lon="13.3924446255"><ele>2102.39</ele><time>2026-03-11T13:57:31Z</time><extensions><gpxtpx:TrackPointExtension><gpxtpx:atemp>3.0</gpxtpx:atemp></gpxtpx:TrackPointExtension></extensions></trkpt><trkpt lat="42.1787983272" lon="13.3924304601"><ele>2102.39</ele><time>2026-03-11T13:57:32Z</time><extensions><gpxtpx:TrackPointExtension><gpxtpx:atemp>3.0</gpxtpx:atemp></gpxtpx:TrackPointExtension></extensions></trkpt><trkpt lat="42.1787950583" lon="13.3924205694"><ele>2102.38</ele><time>2026-03-11T13:57:33Z</time><extensions><gpxtpx:TrackPointExtension><gpxtpx:atemp>3.0</gpxtpx:atemp></gpxtpx:TrackPointExtension></extensions></trkpt><trkpt lat="42.1787968185" lon="13.3924113493"><ele>2102.38</ele><time>2026-03-11T13:57:34Z</time><extensions><gpxtpx:TrackPointExtension><gpxtpx:atemp>2.9</gpxtpx:atemp></gpxtpx:TrackPointExtension></extensions></trkpt><trkpt lat="42.1788000874" lon="13.3924100921"><ele>2102.36</ele><time>2026-03-11T13:57:35Z</time><extensions><gpxtpx:TrackPointExtension><gpxtpx:atemp>2.9</gpxtpx:atemp></gpxtpx:TrackPointExtension></extensions></trkpt><trkpt lat="42.1788057871" lon="13.3924083319"><ele>2102.34</ele><time>2026-03-11T13:57:36Z</time><extensions><gpxtpx:TrackPointExtension><gpxtpx:atemp>2.9</gpxtpx:atemp></gpxtpx:TrackPointExtension></extensions></trkpt><trkpt lat="42.1788146719" lon="13.3924011234"><ele>2102.31</ele><time>2026-03-11T13:57:37Z</time><extensions><gpxtpx:TrackPointExtension><gpxtpx:atemp>2.9</gpxtpx:atemp></gpxtpx:TrackPointExtension></extensions></trkpt><trkpt lat="42.1788232215" lon="13.3923916519"><ele>2102.31</ele><time>2026-03-11T13:57:38Z</time><extensions><gpxtpx:TrackPointExtension><gpxtpx:atemp>2.9</gpxtpx:atemp></gpxtpx:TrackPointExtension></extensions></trkpt><trkpt lat="42.1788343694" lon="13.3923775703"><ele>2102.29</ele><time>2026-03-11T13:57:39Z</time><extensions><gpxtpx:TrackPointExtension><gpxtpx:atemp>2.9</gpxtpx:atemp></gpxtpx:TrackPointExtension></extensions></trkpt><trkpt lat="42.1788403206" lon="13.3923696913"><ele>2102.29</ele><time>2026-03-11T13:57:40Z</time><extensions><gpxtpx:TrackPointExtension><gpxtpx:atemp>2.9</gpxtpx:atemp></gpxtpx:TrackPointExtension></extensions></trkpt><trkpt lat="42.1788459364" lon="13.3923638240"><ele>2102.30</ele><time>2026-03-11T13:57:41Z</time><extensions><gpxtpx:TrackPointExtension><gpxtpx:atemp>2.9</gpxtpx:atemp></gpxtpx:TrackPointExtension></extensions></trkpt><trkpt lat="42.1788461879" lon="13.3923620638"><ele>2102.35</ele><time>2026-03-11T13:57:42Z</time><extensions><gpxtpx:TrackPointExtension><gpxtpx:atemp>2.9</gpxtpx:atemp></gpxtpx:TrackPointExtension></extensions></trkpt><trkpt lat="42.1788462717" lon="13.3923606388"><ele>2102.41</ele><time>2026-03-11T13:57:43Z</time><extensions><gpxtpx:TrackPointExtension><gpxtpx:atemp>2.9</gpxtpx:atemp></gpxtpx:TrackPointExtension></extensions></trkpt><trkpt lat="42.1788454335" lon="13.3923572861"><ele>2102.45</ele><time>2026-03-11T13:57:44Z</time><extensions><gpxtpx:TrackPointExtension><gpxtpx:atemp>2.9</gpxtpx:atemp></gpxtpx:TrackPointExtension></extensions></trkpt><trkpt lat="42.1788464393" lon="13.3923562802"><ele>2102.48</ele><time>2026-03-11T13:57:45Z</time><extensions><gpxtpx:TrackPointExtension><gpxtpx:atemp>2.9</gpxtpx:atemp></gpxtpx:TrackPointExtension></extensions></trkpt><trkpt lat="42.1788484510" lon="13.3923552744"><ele>2102.50</ele><time>2026-03-11T13:57:46Z</time><extensions><gpxtpx:TrackPointExtension><gpxtpx:atemp>2.9</gpxtpx:atemp></gpxtpx:TrackPointExtension></extensions></trkpt><trkpt lat="42.1788512170" lon="13.3923538495"><ele>2102.52</ele><time>2026-03-11T13:57:47Z</time><extensions><gpxtpx:TrackPointExtension><gpxtpx:atemp>2.9</gpxtpx:atemp></gpxtpx:TrackPointExtension></extensions></trkpt><trkpt lat="42.1788532287" lon="13.3923536818"><ele>2102.53</ele><time>2026-03-11T13:57:48Z</time><extensions><gpxtpx:TrackPointExtension><gpxtpx:atemp>2.9</gpxtpx:atemp></gpxtpx:TrackPointExtension></extensions></trkpt><trkpt lat="42.1788478643" lon="13.3923656680"><ele>2102.54</ele><time>2026-03-11T13:57:49Z</time><extensions><gpxtpx:TrackPointExtension><gpxtpx:atemp>2.9</gpxtpx:atemp></gpxtpx:TrackPointExtension></extensions></trkpt><trkpt lat="42.1788484510" lon="13.3923799172"><ele>2102.53</ele><time>2026-03-11T13:57:50Z</time><extensions><gpxtpx:TrackPointExtension><gpxtpx:atemp>2.9</gpxtpx:atemp></gpxtpx:TrackPointExtension></extensions></trkpt><trkpt lat="42.1788486186" lon="13.3923888858"><ele>2102.48</ele><time>2026-03-11T13:57:51Z</time><extensions><gpxtpx:TrackPointExtension><gpxtpx:atemp>2.9</gpxtpx:atemp></gpxtpx:TrackPointExtension></extensions></trkpt><trkpt lat="42.1788570844" lon="13.3923826832"><ele>2102.45</ele><time>2026-03-11T13:57:52Z</time><extensions><gpxtpx:TrackPointExtension><gpxtpx:atemp>2.9</gpxtpx:atemp></gpxtpx:TrackPointExtension></extensions></trkpt><trkpt lat="42.1788530611" lon="13.3923780732"><ele>2102.43</ele><time>2026-03-11T13:57:53Z</time><extensions><gpxtpx:TrackPointExtension><gpxtpx:atemp>2.9</gpxtpx:atemp></gpxtpx:TrackPointExtension></extensions></trkpt><trkpt lat="42.1788488701" lon="13.3923735470"><ele>2102.43</ele><time>2026-03-11T13:57:54Z</time><extensions><gpxtpx:TrackPointExtension><gpxtpx:atemp>2.9</gpxtpx:atemp></gpxtpx:TrackPointExtension></extensions></trkpt><trkpt lat="42.1788395662" lon="13.3923725411"><ele>2102.43</ele><time>2026-03-11T13:57:55Z</time><extensions><gpxtpx:TrackPointExtension><gpxtpx:atemp>2.9</gpxtpx:atemp></gpxtpx:TrackPointExtension></extensions></trkpt><trkpt lat="42.1788343694" lon="13.3923654165"><ele>2102.43</ele><time>2026-03-11T13:57:56Z</time><extensions><gpxtpx:TrackPointExtension><gpxtpx:atemp>2.9</gpxtpx:atemp></gpxtpx:TrackPointExtension></extensions></trkpt><trkpt lat="42.1788294241" lon="13.3923583757"><ele>2102.43</ele><time>2026-03-11T13:57:57Z</time><extensions><gpxtpx:TrackPointExtension><gpxtpx:atemp>2.9</gpxtpx:atemp></gpxtpx:TrackPointExtension></extensions></trkpt><trkpt lat="42.1788211260" lon="13.3923517540"><ele>2102.43</ele><time>2026-03-11T13:57:58Z</time><extensions><gpxtpx:TrackPointExtension><gpxtpx:atemp>2.9</gpxtpx:atemp></gpxtpx:TrackPointExtension></extensions></trkpt><trkpt lat="42.1788038593" lon="13.3923493233"><ele>2102.44</ele><time>2026-03-11T13:57:59Z</time><extensions><gpxtpx:TrackPointExtension><gpxtpx:atemp>2.9</gpxtpx:atemp></gpxtpx:TrackPointExtension></extensions></trkpt><trkpt lat="42.1787777916" lon="13.3923502453"><ele>2102.46</ele><time>2026-03-11T13:58:00Z</time><extensions><gpxtpx:TrackPointExtension><gpxtpx:atemp>2.9</gpxtpx:atemp></gpxtpx:TrackPointExtension></extensions></trkpt><trkpt lat="42.1787559986" lon="13.3923492394"><ele>2102.49</ele><time>2026-03-11T13:58:01Z</time><extensions><gpxtpx:TrackPointExtension><gpxtpx:atemp>2.9</gpxtpx:atemp></gpxtpx:TrackPointExtension></extensions></trkpt><trkpt lat="42.1787435934" lon="13.3923454676"><ele>2102.53</ele><time>2026-03-11T13:58:02Z</time><extensions><gpxtpx:TrackPointExtension><gpxtpx:atemp>2.9</gpxtpx:atemp></gpxtpx:TrackPointExtension></extensions></trkpt><trkpt lat="42.1787365526" lon="13.3923401870"><ele>2102.53</ele><time>2026-03-11T13:58:03Z</time><extensions><gpxtpx:TrackPointExtension><gpxtpx:atemp>2.9</gpxtpx:atemp></gpxtpx:TrackPointExtension></extensions></trkpt><trkpt lat="42.1787295956" lon="13.3923352417"><ele>2102.53</ele><time>2026-03-11T13:58:04Z</time><extensions><gpxtpx:TrackPointExtension><gpxtpx:atemp>2.9</gpxtpx:atemp></gpxtpx:TrackPointExtension></extensions></trkpt><trkpt lat="42.1787223872" lon="13.3923299611"><ele>2102.51</ele><time>2026-03-11T13:58:05Z</time><extensions><gpxtpx:TrackPointExtension><gpxtpx:atemp>2.9</gpxtpx:atemp></gpxtpx:TrackPointExtension></extensions></trkpt><trkpt lat="42.1787194535" lon="13.3923216630"><ele>2102.47</ele><time>2026-03-11T13:58:06Z</time><extensions><gpxtpx:TrackPointExtension><gpxtpx:atemp>2.9</gpxtpx:atemp></gpxtpx:TrackPointExtension></extensions></trkpt><trkpt lat="42.1787178610" lon="13.3923119400"><ele>2102.46</ele><time>2026-03-11T13:58:07Z</time><extensions><gpxtpx:TrackPointExtension><gpxtpx:atemp>2.9</gpxtpx:atemp></gpxtpx:TrackPointExtension></extensions></trkpt><trkpt lat="42.1787169389" lon="13.3923011273"><ele>2102.45</ele><time>2026-03-11T13:58:08Z</time><extensions><gpxtpx:TrackPointExtension><gpxtpx:atemp>2.9</gpxtpx:atemp></gpxtpx:TrackPointExtension></extensions></trkpt><trkpt lat="42.1787128318" lon="13.3922924940"><ele>2102.44</ele><time>2026-03-11T13:58:09Z</time><extensions><gpxtpx:TrackPointExtension><gpxtpx:atemp>2.9</gpxtpx:atemp></gpxtpx:TrackPointExtension></extensions></trkpt><trkpt lat="42.1787089761" lon="13.3922839444"><ele>2102.44</ele><time>2026-03-11T13:58:10Z</time><extensions><gpxtpx:TrackPointExtension><gpxtpx:atemp>2.9</gpxtpx:atemp></gpxtpx:TrackPointExtension></extensions></trkpt><trkpt lat="42.1787010971" lon="13.3922782447"><ele>2102.45</ele><time>2026-03-11T13:58:11Z</time><extensions><gpxtpx:TrackPointExtension><gpxtpx:atemp>2.9</gpxtpx:atemp></gpxtpx:TrackPointExtension></extensions></trkpt><trkpt lat="42.1786944754" lon="13.3922710363"><ele>2102.47</ele><time>2026-03-11T13:58:12Z</time><extensions><gpxtpx:TrackPointExtension><gpxtpx:atemp>2.9</gpxtpx:atemp></gpxtpx:TrackPointExtension></extensions></trkpt><trkpt lat="42.1786904521" lon="13.3922633249"><ele>2102.48</ele><time>2026-03-11T13:58:13Z</time><extensions><gpxtpx:TrackPointExtension><gpxtpx:atemp>2.9</gpxtpx:atemp></gpxtpx:TrackPointExtension></extensions></trkpt><trkpt lat="42.1786937211" lon="13.3922522608"><ele>2102.49</ele><time>2026-03-11T13:58:14Z</time><extensions><gpxtpx:TrackPointExtension><gpxtpx:atemp>2.9</gpxtpx:atemp></gpxtpx:TrackPointExtension></extensions></trkpt><trkpt lat="42.1786965709" lon="13.3922428731"><ele>2102.50</ele><time>2026-03-11T13:58:15Z</time><extensions><gpxtpx:TrackPointExtension><gpxtpx:atemp>2.9</gpxtpx:atemp></gpxtpx:TrackPointExtension></extensions></trkpt><trkpt lat="42.1787002590" lon="13.3922328986"><ele>2102.52</ele><time>2026-03-11T13:58:16Z</time><extensions><gpxtpx:TrackPointExtension><gpxtpx:atemp>2.9</gpxtpx:atemp></gpxtpx:TrackPointExtension></extensions></trkpt><trkpt lat="42.1787024383" lon="13.3922239300"><ele>2102.51</ele><time>2026-03-11T13:58:17Z</time><extensions><gpxtpx:TrackPointExtension><gpxtpx:atemp>2.9</gpxtpx:atemp></gpxtpx:TrackPointExtension></extensions></trkpt><trkpt lat="42.1787072998" lon="13.3922130335"><ele>2102.51</ele><time>2026-03-11T13:58:18Z</time><extensions><gpxtpx:TrackPointExtension><gpxtpx:atemp>2.9</gpxtpx:atemp></gpxtpx:TrackPointExtension></extensions></trkpt><trkpt lat="42.1787151787" lon="13.3921983652"><ele>2102.51</ele><time>2026-03-11T13:58:19Z</time><extensions><gpxtpx:TrackPointExtension><gpxtpx:atemp>2.9</gpxtpx:atemp></gpxtpx:TrackPointExtension></extensions></trkpt><trkpt lat="42.1787256561" lon="13.3921816852"><ele>2102.51</ele><time>2026-03-11T13:58:20Z</time><extensions><gpxtpx:TrackPointExtension><gpxtpx:atemp>2.9</gpxtpx:atemp></gpxtpx:TrackPointExtension></extensions></trkpt><trkpt lat="42.1787411626" lon="13.3921609819"><ele>2102.50</ele><time>2026-03-11T13:58:21Z</time><extensions><gpxtpx:TrackPointExtension><gpxtpx:atemp>2.9</gpxtpx:atemp></gpxtpx:TrackPointExtension></extensions></trkpt><trkpt lat="42.1787570883" lon="13.3921407815"><ele>2102.50</ele><time>2026-03-11T13:58:22Z</time><extensions><gpxtpx:TrackPointExtension><gpxtpx:atemp>2.9</gpxtpx:atemp></gpxtpx:TrackPointExtension></extensions></trkpt><trkpt lat="42.1787754446" lon="13.3921175636"><ele>2102.49</ele><time>2026-03-11T13:58:23Z</time><extensions><gpxtpx:TrackPointExtension><gpxtpx:atemp>2.9</gpxtpx:atemp></gpxtpx:TrackPointExtension></extensions></trkpt><trkpt lat="42.1787905321" lon="13.3920967765"><ele>2102.48</ele><time>2026-03-11T13:58:24Z</time><extensions><gpxtpx:TrackPointExtension><gpxtpx:atemp>2.9</gpxtpx:atemp></gpxtpx:TrackPointExtension></extensions></trkpt><trkpt lat="42.1788030211" lon="13.3920751512"><ele>2102.46</ele><time>2026-03-11T13:58:25Z</time><extensions><gpxtpx:TrackPointExtension><gpxtpx:atemp>2.9</gpxtpx:atemp></gpxtpx:TrackPointExtension></extensions></trkpt><trkpt lat="42.1788124926" lon="13.3920537774"><ele>2102.46</ele><time>2026-03-11T13:58:26Z</time><extensions><gpxtpx:TrackPointExtension><gpxtpx:atemp>2.9</gpxtpx:atemp></gpxtpx:TrackPointExtension></extensions></trkpt><trkpt lat="42.1788213775" lon="13.3920298889"><ele>2102.47</ele><time>2026-03-11T13:58:27Z</time><extensions><gpxtpx:TrackPointExtension><gpxtpx:atemp>2.9</gpxtpx:atemp></gpxtpx:TrackPointExtension></extensions></trkpt><trkpt lat="42.1788296755" lon="13.3920063358"><ele>2102.47</ele><time>2026-03-11T13:58:28Z</time><extensions><gpxtpx:TrackPointExtension><gpxtpx:atemp>2.9</gpxtpx:atemp></gpxtpx:TrackPointExtension></extensions></trkpt><trkpt lat="42.1788336989" lon="13.3919896558"><ele>2102.48</ele><time>2026-03-11T13:58:29Z</time><extensions><gpxtpx:TrackPointExtension><gpxtpx:atemp>2.9</gpxtpx:atemp></gpxtpx:TrackPointExtension></extensions></trkpt><trkpt lat="42.1788323577" lon="13.3919880632"><ele>2102.48</ele><time>2026-03-11T13:58:30Z</time><extensions><gpxtpx:TrackPointExtension><gpxtpx:atemp>2.9</gpxtpx:atemp></gpxtpx:TrackPointExtension></extensions></trkpt><trkpt lat="42.1788306814" lon="13.3919917513"><ele>2102.49</ele><time>2026-03-11T13:58:31Z</time><extensions><gpxtpx:TrackPointExtension><gpxtpx:atemp>2.9</gpxtpx:atemp></gpxtpx:TrackPointExtension></extensions></trkpt><trkpt lat="42.1788330283" lon="13.3919965290"><ele>2102.52</ele><time>2026-03-11T13:58:32Z</time><extensions><gpxtpx:TrackPointExtension><gpxtpx:atemp>2.9</gpxtpx:atemp></gpxtpx:TrackPointExtension></extensions></trkpt><trkpt lat="42.1788354591" lon="13.3919979539"><ele>2102.52</ele><time>2026-03-11T13:58:33Z</time><extensions><gpxtpx:TrackPointExtension><gpxtpx:atemp>2.9</gpxtpx:atemp></gpxtpx:TrackPointExtension></extensions></trkpt><trkpt lat="42.1788338665" lon="13.3920046594"><ele>2102.51</ele><time>2026-03-11T13:58:34Z</time><extensions><gpxtpx:TrackPointExtension><gpxtpx:atemp>2.9</gpxtpx:atemp></gpxtpx:TrackPointExtension></extensions></trkpt><trkpt lat="42.1788226347" lon="13.3920133766"><ele>2102.49</ele><time>2026-03-11T13:58:35Z</time><extensions><gpxtpx:TrackPointExtension><gpxtpx:atemp>2.9</gpxtpx:atemp></gpxtpx:TrackPointExtension></extensions></trkpt><trkpt lat="42.1788040269" lon="13.3920248598"><ele>2102.42</ele><time>2026-03-11T13:58:36Z</time><extensions><gpxtpx:TrackPointExtension><gpxtpx:atemp>2.9</gpxtpx:atemp></gpxtpx:TrackPointExtension></extensions></trkpt><trkpt lat="42.1787823178" lon="13.3920363430"><ele>2102.34</ele><time>2026-03-11T13:58:37Z</time><extensions><gpxtpx:TrackPointExtension><gpxtpx:atemp>2.9</gpxtpx:atemp></gpxtpx:TrackPointExtension></extensions></trkpt><trkpt lat="42.1787620336" lon="13.3920483291"><ele>2102.27</ele><time>2026-03-11T13:58:38Z</time><extensions><gpxtpx:TrackPointExtension><gpxtpx:atemp>2.9</gpxtpx:atemp></gpxtpx:TrackPointExtension></extensions></trkpt><trkpt lat="42.1787470300" lon="13.3920533583"><ele>2102.23</ele><time>2026-03-11T13:58:39Z</time><extensions><gpxtpx:TrackPointExtension><gpxtpx:atemp>2.9</gpxtpx:atemp></gpxtpx:TrackPointExtension></extensions></trkpt><trkpt lat="42.1787350439" lon="13.3920517657"><ele>2102.21</ele><time>2026-03-11T13:58:40Z</time><extensions><gpxtpx:TrackPointExtension><gpxtpx:atemp>2.9</gpxtpx:atemp></gpxtpx:TrackPointExtension></extensions></trkpt><trkpt lat="42.1787284222" lon="13.3920469880"><ele>2102.21</ele><time>2026-03-11T13:58:41Z</time><extensions><gpxtpx:TrackPointExtension><gpxtpx:atemp>2.9</gpxtpx:atemp></gpxtpx:TrackPointExtension></extensions></trkpt><trkpt lat="42.1787310205" lon="13.3920382708"><ele>2102.24</ele><time>2026-03-11T13:58:42Z</time><extensions><gpxtpx:TrackPointExtension><gpxtpx:atemp>2.9</gpxtpx:atemp></gpxtpx:TrackPointExtension></extensions></trkpt><trkpt lat="42.1787354629" lon="13.3920330741"><ele>2102.28</ele><time>2026-03-11T13:58:43Z</time><extensions><gpxtpx:TrackPointExtension><gpxtpx:atemp>2.9</gpxtpx:atemp></gpxtpx:TrackPointExtension></extensions></trkpt><trkpt lat="42.1787451860" lon="13.3920222614"><ele>2102.33</ele><time>2026-03-11T13:58:44Z</time><extensions><gpxtpx:TrackPointExtension><gpxtpx:atemp>2.9</gpxtpx:atemp></gpxtpx:TrackPointExtension></extensions></trkpt><trkpt lat="42.1787567530" lon="13.3920090180"><ele>2102.36</ele><time>2026-03-11T13:58:45Z</time><extensions><gpxtpx:TrackPointExtension><gpxtpx:atemp>2.9</gpxtpx:atemp></gpxtpx:TrackPointExtension></extensions></trkpt><trkpt lat="42.1787732653" lon="13.3919911645"><ele>2102.38</ele><time>2026-03-11T13:58:46Z</time><extensions><gpxtpx:TrackPointExtension><gpxtpx:atemp>2.9</gpxtpx:atemp></gpxtpx:TrackPointExtension></extensions></trkpt><trkpt lat="42.1787893586" lon="13.3919712994"><ele>2102.39</ele><time>2026-03-11T13:58:47Z</time><extensions><gpxtpx:TrackPointExtension><gpxtpx:atemp>2.9</gpxtpx:atemp></gpxtpx:TrackPointExtension></extensions></trkpt><trkpt lat="42.1788015962" lon="13.3919514343"><ele>2102.41</ele><time>2026-03-11T13:58:48Z</time><extensions><gpxtpx:TrackPointExtension><gpxtpx:atemp>2.9</gpxtpx:atemp></gpxtpx:TrackPointExtension></extensions></trkpt><trkpt lat="42.1788128279" lon="13.3919282164"><ele>2102.42</ele><time>2026-03-11T13:58:49Z</time><extensions><gpxtpx:TrackPointExtension><gpxtpx:atemp>2.9</gpxtpx:atemp></gpxtpx:TrackPointExtension></extensions></trkpt><trkpt lat="42.1788218804" lon="13.3919071779"><ele>2102.41</ele><time>2026-03-11T13:58:50Z</time><extensions><gpxtpx:TrackPointExtension><gpxtpx:atemp>2.9</gpxtpx:atemp></gpxtpx:TrackPointExtension></extensions></trkpt><trkpt lat="42.1788339503" lon="13.3918850496"><ele>2102.41</ele><time>2026-03-11T13:58:51Z</time><extensions><gpxtpx:TrackPointExtension><gpxtpx:atemp>2.9</gpxtpx:atemp></gpxtpx:TrackPointExtension></extensions></trkpt><trkpt lat="42.1788469423" lon="13.3918726444"><ele>2102.38</ele><time>2026-03-11T13:58:52Z</time><extensions><gpxtpx:TrackPointExtension><gpxtpx:atemp>2.9</gpxtpx:atemp></gpxtpx:TrackPointExtension></extensions></trkpt><trkpt lat="42.1788617782" lon="13.3918680344"><ele>2102.36</ele><time>2026-03-11T13:58:53Z</time><extensions><gpxtpx:TrackPointExtension><gpxtpx:atemp>2.9</gpxtpx:atemp></gpxtpx:TrackPointExtension></extensions></trkpt><trkpt lat="42.1788698249" lon="13.3918748237"><ele>2102.35</ele><time>2026-03-11T13:58:54Z</time><extensions><gpxtpx:TrackPointExtension><gpxtpx:atemp>2.9</gpxtpx:atemp></gpxtpx:TrackPointExtension></extensions></trkpt><trkpt lat="42.1788758598" lon="13.3918801881"><ele>2102.33</ele><time>2026-03-11T13:58:55Z</time><extensions><gpxtpx:TrackPointExtension><gpxtpx:atemp>2.9</gpxtpx:atemp></gpxtpx:TrackPointExtension></extensions></trkpt><trkpt lat="42.1788789611" lon="13.3918857202"><ele>2102.33</ele><time>2026-03-11T13:58:56Z</time><extensions><gpxtpx:TrackPointExtension><gpxtpx:atemp>2.9</gpxtpx:atemp></gpxtpx:TrackPointExtension></extensions></trkpt><trkpt lat="42.1788841579" lon="13.3918872289"><ele>2102.34</ele><time>2026-03-11T13:58:57Z</time><extensions><gpxtpx:TrackPointExtension><gpxtpx:atemp>2.9</gpxtpx:atemp></gpxtpx:TrackPointExtension></extensions></trkpt><trkpt lat="42.1788862534" lon="13.3918868937"><ele>2102.37</ele><time>2026-03-11T13:58:58Z</time><extensions><gpxtpx:TrackPointExtension><gpxtpx:atemp>2.9</gpxtpx:atemp></gpxtpx:TrackPointExtension></extensions></trkpt><trkpt lat="42.1788876783" lon="13.3918830380"><ele>2102.44</ele><time>2026-03-11T13:58:59Z</time><extensions><gpxtpx:TrackPointExtension><gpxtpx:atemp>2.9</gpxtpx:atemp></gpxtpx:TrackPointExtension></extensions></trkpt><trkpt lat="42.1788878459" lon="13.3918751590"><ele>2102.51</ele><time>2026-03-11T13:59:00Z</time><extensions><gpxtpx:TrackPointExtension><gpxtpx:atemp>2.9</gpxtpx:atemp></gpxtpx:TrackPointExtension></extensions></trkpt><trkpt lat="42.1788925398" lon="13.3918630891"><ele>2102.54</ele><time>2026-03-11T13:59:01Z</time><extensions><gpxtpx:TrackPointExtension><gpxtpx:atemp>2.9</gpxtpx:atemp></gpxtpx:TrackPointExtension></extensions></trkpt><trkpt lat="42.1788988262" lon="13.3918467443"><ele>2102.57</ele><time>2026-03-11T13:59:02Z</time><extensions><gpxtpx:TrackPointExtension><gpxtpx:atemp>2.9</gpxtpx:atemp></gpxtpx:TrackPointExtension></extensions></trkpt><trkpt lat="42.1789046936" lon="13.3918376919"><ele>2102.57</ele><time>2026-03-11T13:59:03Z</time><extensions><gpxtpx:TrackPointExtension><gpxtpx:atemp>2.9</gpxtpx:atemp></gpxtpx:TrackPointExtension></extensions></trkpt><trkpt lat="42.1789082978" lon="13.3918337524"><ele>2102.56</ele><time>2026-03-11T13:59:04Z</time><extensions><gpxtpx:TrackPointExtension><gpxtpx:atemp>2.9</gpxtpx:atemp></gpxtpx:TrackPointExtension></extensions></trkpt><trkpt lat="42.1789111476" lon="13.3918307349"><ele>2102.56</ele><time>2026-03-11T13:59:05Z</time><extensions><gpxtpx:TrackPointExtension><gpxtpx:atemp>2.9</gpxtpx:atemp></gpxtpx:TrackPointExtension></extensions></trkpt><trkpt lat="42.1789151710" lon="13.3918273821"><ele>2102.56</ele><time>2026-03-11T13:59:06Z</time><extensions><gpxtpx:TrackPointExtension><gpxtpx:atemp>2.9</gpxtpx:atemp></gpxtpx:TrackPointExtension></extensions></trkpt><trkpt lat="42.1789183561" lon="13.3918212634"><ele>2102.56</ele><time>2026-03-11T13:59:07Z</time><extensions><gpxtpx:TrackPointExtension><gpxtpx:atemp>2.9</gpxtpx:atemp></gpxtpx:TrackPointExtension></extensions></trkpt><trkpt lat="42.1789180208" lon="13.3918192517"><ele>2102.56</ele><time>2026-03-11T13:59:08Z</time><extensions><gpxtpx:TrackPointExtension><gpxtpx:atemp>2.9</gpxtpx:atemp></gpxtpx:TrackPointExtension></extensions></trkpt><trkpt lat="42.1789175179" lon="13.3918133844"><ele>2102.56</ele><time>2026-03-11T13:59:09Z</time><extensions><gpxtpx:TrackPointExtension><gpxtpx:atemp>2.9</gpxtpx:atemp></gpxtpx:TrackPointExtension></extensions></trkpt><trkpt lat="42.1789166797" lon="13.3918087743"><ele>2102.56</ele><time>2026-03-11T13:59:10Z</time><extensions><gpxtpx:TrackPointExtension><gpxtpx:atemp>2.9</gpxtpx:atemp></gpxtpx:TrackPointExtension></extensions></trkpt><trkpt lat="42.1789179370" lon="13.3918025717"><ele>2102.56</ele><time>2026-03-11T13:59:11Z</time><extensions><gpxtpx:TrackPointExtension><gpxtpx:atemp>2.9</gpxtpx:atemp></gpxtpx:TrackPointExtension></extensions></trkpt><trkpt lat="42.1789197810" lon="13.3917941898"><ele>2102.56</ele><time>2026-03-11T13:59:12Z</time><extensions><gpxtpx:TrackPointExtension><gpxtpx:atemp>2.9</gpxtpx:atemp></gpxtpx:TrackPointExtension></extensions></trkpt><trkpt lat="42.1789215412" lon="13.3917864785"><ele>2102.56</ele><time>2026-03-11T13:59:13Z</time><extensions><gpxtpx:TrackPointExtension><gpxtpx:atemp>2.9</gpxtpx:atemp></gpxtpx:TrackPointExtension></extensions></trkpt><trkpt lat="42.1789226308" lon="13.3917856403"><ele>2102.55</ele><time>2026-03-11T13:59:14Z</time><extensions><gpxtpx:TrackPointExtension><gpxtpx:atemp>2.9</gpxtpx:atemp></gpxtpx:TrackPointExtension></extensions></trkpt><trkpt lat="42.1789229661" lon="13.3917879872"><ele>2102.55</ele><time>2026-03-11T13:59:15Z</time><extensions><gpxtpx:TrackPointExtension><gpxtpx:atemp>2.9</gpxtpx:atemp></gpxtpx:TrackPointExtension></extensions></trkpt><trkpt lat="42.1789205354" lon="13.3918021526"><ele>2102.55</ele><time>2026-03-11T13:59:16Z</time><extensions><gpxtpx:TrackPointExtension><gpxtpx:atemp>2.9</gpxtpx:atemp></gpxtpx:TrackPointExtension></extensions></trkpt><trkpt lat="42.1789202839" lon="13.3918102831"><ele>2102.60</ele><time>2026-03-11T13:59:17Z</time><extensions><gpxtpx:TrackPointExtension><gpxtpx:atemp>2.9</gpxtpx:atemp></gpxtpx:TrackPointExtension></extensions></trkpt><trkpt lat="42.1789206192" lon="13.3918292262"><ele>2102.63</ele><time>2026-03-11T13:59:18Z</time><extensions><gpxtpx:TrackPointExtension><gpxtpx:atemp>2.9</gpxtpx:atemp></gpxtpx:TrackPointExtension></extensions></trkpt><trkpt lat="42.1789218765" lon="13.3918389492"><ele>2102.63</ele><time>2026-03-11T13:59:19Z</time><extensions><gpxtpx:TrackPointExtension><gpxtpx:atemp>2.9</gpxtpx:atemp></gpxtpx:TrackPointExtension></extensions></trkpt><trkpt lat="42.1789202839" lon="13.3918517735"><ele>2102.63</ele><time>2026-03-11T13:59:20Z</time><extensions><gpxtpx:TrackPointExtension><gpxtpx:atemp>2.9</gpxtpx:atemp></gpxtpx:TrackPointExtension></extensions></trkpt><trkpt lat="42.1789186914" lon="13.3918563835"><ele>2102.64</ele><time>2026-03-11T13:59:21Z</time><extensions><gpxtpx:TrackPointExtension><gpxtpx:atemp>2.9</gpxtpx:atemp></gpxtpx:TrackPointExtension></extensions></trkpt><trkpt lat="42.1789187752" lon="13.3918610774"><ele>2102.64</ele><time>2026-03-11T13:59:22Z</time><extensions><gpxtpx:TrackPointExtension><gpxtpx:atemp>2.9</gpxtpx:atemp></gpxtpx:TrackPointExtension></extensions></trkpt><trkpt lat="42.1789206192" lon="13.3918660227"><ele>2102.62</ele><time>2026-03-11T13:59:23Z</time><extensions><gpxtpx:TrackPointExtension><gpxtpx:atemp>2.9</gpxtpx:atemp></gpxtpx:TrackPointExtension></extensions></trkpt><trkpt lat="42.1789213736" lon="13.3918698784"><ele>2102.61</ele><time>2026-03-11T13:59:24Z</time><extensions><gpxtpx:TrackPointExtension><gpxtpx:atemp>2.9</gpxtpx:atemp></gpxtpx:TrackPointExtension></extensions></trkpt><trkpt lat="42.1789217927" lon="13.3918742370"><ele>2102.61</ele><time>2026-03-11T13:59:25Z</time><extensions><gpxtpx:TrackPointExtension><gpxtpx:atemp>2.9</gpxtpx:atemp></gpxtpx:TrackPointExtension></extensions></trkpt><trkpt lat="42.1789213736" lon="13.3918785956"><ele>2102.61</ele><time>2026-03-11T13:59:26Z</time><extensions><gpxtpx:TrackPointExtension><gpxtpx:atemp>2.9</gpxtpx:atemp></gpxtpx:TrackPointExtension></extensions></trkpt><trkpt lat="42.1789213736" lon="13.3918831218"><ele>2102.61</ele><time>2026-03-11T13:59:27Z</time><extensions><gpxtpx:TrackPointExtension><gpxtpx:atemp>2.9</gpxtpx:atemp></gpxtpx:TrackPointExtension></extensions></trkpt><trkpt lat="42.1789199486" lon="13.3918879833"><ele>2102.62</ele><time>2026-03-11T13:59:28Z</time><extensions><gpxtpx:TrackPointExtension><gpxtpx:atemp>2.9</gpxtpx:atemp></gpxtpx:TrackPointExtension></extensions></trkpt><trkpt lat="42.1789176855" lon="13.3918930963"><ele>2102.62</ele><time>2026-03-11T13:59:29Z</time><extensions><gpxtpx:TrackPointExtension><gpxtpx:atemp>2.9</gpxtpx:atemp></gpxtpx:TrackPointExtension></extensions></trkpt><trkpt lat="42.1789163444" lon="13.3918986283"><ele>2102.62</ele><time>2026-03-11T13:59:30Z</time><extensions><gpxtpx:TrackPointExtension><gpxtpx:atemp>2.9</gpxtpx:atemp></gpxtpx:TrackPointExtension></extensions></trkpt><trkpt lat="42.1789177693" lon="13.3919018973"><ele>2102.62</ele><time>2026-03-11T13:59:31Z</time><extensions><gpxtpx:TrackPointExtension><gpxtpx:atemp>2.9</gpxtpx:atemp></gpxtpx:TrackPointExtension></extensions></trkpt><trkpt lat="42.1789203677" lon="13.3919039927"><ele>2102.56</ele><time>2026-03-11T13:59:32Z</time><extensions><gpxtpx:TrackPointExtension><gpxtpx:atemp>2.9</gpxtpx:atemp></gpxtpx:TrackPointExtension></extensions></trkpt><trkpt lat="42.1789233852" lon="13.3919023164"><ele>2102.55</ele><time>2026-03-11T13:59:33Z</time><extensions><gpxtpx:TrackPointExtension><gpxtpx:atemp>2.9</gpxtpx:atemp></gpxtpx:TrackPointExtension></extensions></trkpt><trkpt lat="42.1789255645" lon="13.3919018973"><ele>2102.52</ele><time>2026-03-11T13:59:34Z</time><extensions><gpxtpx:TrackPointExtension><gpxtpx:atemp>2.9</gpxtpx:atemp></gpxtpx:TrackPointExtension></extensions></trkpt><trkpt lat="42.1789283305" lon="13.3919000532"><ele>2102.49</ele><time>2026-03-11T13:59:35Z</time><extensions><gpxtpx:TrackPointExtension><gpxtpx:atemp>2.9</gpxtpx:atemp></gpxtpx:TrackPointExtension></extensions></trkpt><trkpt lat="42.1789302584" lon="13.3918995503"><ele>2102.47</ele><time>2026-03-11T13:59:36Z</time><extensions><gpxtpx:TrackPointExtension><gpxtpx:atemp>2.9</gpxtpx:atemp></gpxtpx:TrackPointExtension></extensions></trkpt><trkpt lat="42.1789309289" lon="13.3918972872"><ele>2102.46</ele><time>2026-03-11T13:59:37Z</time><extensions><gpxtpx:TrackPointExtension><gpxtpx:atemp>2.9</gpxtpx:atemp></gpxtpx:TrackPointExtension></extensions></trkpt><trkpt lat="42.1789285820" lon="13.3919018973"><ele>2102.45</ele><time>2026-03-11T13:59:38Z</time><extensions><gpxtpx:TrackPointExtension><gpxtpx:atemp>2.9</gpxtpx:atemp></gpxtpx:TrackPointExtension></extensions></trkpt><trkpt lat="42.1789254807" lon="13.3919081837"><ele>2102.43</ele><time>2026-03-11T13:59:39Z</time><extensions><gpxtpx:TrackPointExtension><gpxtpx:atemp>2.9</gpxtpx:atemp></gpxtpx:TrackPointExtension></extensions></trkpt><trkpt lat="42.1789224632" lon="13.3919180743"><ele>2102.41</ele><time>2026-03-11T13:59:40Z</time><extensions><gpxtpx:TrackPointExtension><gpxtpx:atemp>2.9</gpxtpx:atemp></gpxtpx:TrackPointExtension></extensions></trkpt><trkpt lat="42.1789221279" lon="13.3919224329"><ele>2102.41</ele><time>2026-03-11T13:59:41Z</time><extensions><gpxtpx:TrackPointExtension><gpxtpx:atemp>2.9</gpxtpx:atemp></gpxtpx:TrackPointExtension></extensions></trkpt><trkpt lat="42.1789221279" lon="13.3919275459"><ele>2102.40</ele><time>2026-03-11T13:59:42Z</time><extensions><gpxtpx:TrackPointExtension><gpxtpx:atemp>2.9</gpxtpx:atemp></gpxtpx:TrackPointExtension></extensions></trkpt><trkpt lat="42.1789222956" lon="13.3919309825"><ele>2102.39</ele><time>2026-03-11T13:59:43Z</time><extensions><gpxtpx:TrackPointExtension><gpxtpx:atemp>2.9</gpxtpx:atemp></gpxtpx:TrackPointExtension></extensions></trkpt><trkpt lat="42.1789210383" lon="13.3919329941"><ele>2102.34</ele><time>2026-03-11T13:59:44Z</time><extensions><gpxtpx:TrackPointExtension><gpxtpx:atemp>2.9</gpxtpx:atemp></gpxtpx:TrackPointExtension></extensions></trkpt><trkpt lat="42.1789172664" lon="13.3919381909"><ele>2102.29</ele><time>2026-03-11T13:59:45Z</time><extensions><gpxtpx:TrackPointExtension><gpxtpx:atemp>2.9</gpxtpx:atemp></gpxtpx:TrackPointExtension></extensions></trkpt><trkpt lat="42.1789129917" lon="13.3919424657"><ele>2102.28</ele><time>2026-03-11T13:59:46Z</time><extensions><gpxtpx:TrackPointExtension><gpxtpx:atemp>2.9</gpxtpx:atemp></gpxtpx:TrackPointExtension></extensions></trkpt><trkpt lat="42.1789081302" lon="13.3919494227"><ele>2102.28</ele><time>2026-03-11T13:59:47Z</time><extensions><gpxtpx:TrackPointExtension><gpxtpx:atemp>2.9</gpxtpx:atemp></gpxtpx:TrackPointExtension></extensions></trkpt><trkpt lat="42.1789050288" lon="13.3919528592"><ele>2102.27</ele><time>2026-03-11T13:59:48Z</time><extensions><gpxtpx:TrackPointExtension><gpxtpx:atemp>2.9</gpxtpx:atemp></gpxtpx:TrackPointExtension></extensions></trkpt><trkpt lat="42.1789054479" lon="13.3919543680"><ele>2102.27</ele><time>2026-03-11T13:59:49Z</time><extensions><gpxtpx:TrackPointExtension><gpxtpx:atemp>2.9</gpxtpx:atemp></gpxtpx:TrackPointExtension></extensions></trkpt><trkpt lat="42.1789072920" lon="13.3919552900"><ele>2102.27</ele><time>2026-03-11T13:59:50Z</time><extensions><gpxtpx:TrackPointExtension><gpxtpx:atemp>2.9</gpxtpx:atemp></gpxtpx:TrackPointExtension></extensions></trkpt><trkpt lat="42.1789110638" lon="13.3919542842"><ele>2102.26</ele><time>2026-03-11T13:59:51Z</time><extensions><gpxtpx:TrackPointExtension><gpxtpx:atemp>2.9</gpxtpx:atemp></gpxtpx:TrackPointExtension></extensions></trkpt><trkpt lat="42.1789112315" lon="13.3919597324"><ele>2102.19</ele><time>2026-03-11T13:59:52Z</time><extensions><gpxtpx:TrackPointExtension><gpxtpx:atemp>2.9</gpxtpx:atemp></gpxtpx:TrackPointExtension></extensions></trkpt><trkpt lat="42.1789116506" lon="13.3919649292"><ele>2102.15</ele><time>2026-03-11T13:59:53Z</time><extensions><gpxtpx:TrackPointExtension><gpxtpx:atemp>2.9</gpxtpx:atemp></gpxtpx:TrackPointExtension></extensions></trkpt><trkpt lat="42.1789118182" lon="13.3919721376"><ele>2102.11</ele><time>2026-03-11T13:59:54Z</time><extensions><gpxtpx:TrackPointExtension><gpxtpx:atemp>2.9</gpxtpx:atemp></gpxtpx:TrackPointExtension></extensions></trkpt><trkpt lat="42.1789131593" lon="13.3919762447"><ele>2102.11</ele><time>2026-03-11T13:59:55Z</time><extensions><gpxtpx:TrackPointExtension><gpxtpx:atemp>2.9</gpxtpx:atemp></gpxtpx:TrackPointExtension></extensions></trkpt><trkpt lat="42.1789131593" lon="13.3919812739"><ele>2102.09</ele><time>2026-03-11T13:59:56Z</time><extensions><gpxtpx:TrackPointExtension><gpxtpx:atemp>2.9</gpxtpx:atemp></gpxtpx:TrackPointExtension></extensions></trkpt><trkpt lat="42.1789103933" lon="13.3919885661"><ele>2102.09</ele><time>2026-03-11T13:59:57Z</time><extensions><gpxtpx:TrackPointExtension><gpxtpx:atemp>2.9</gpxtpx:atemp></gpxtpx:TrackPointExtension></extensions></trkpt><trkpt lat="42.1789081302" lon="13.3919921704"><ele>2102.11</ele><time>2026-03-11T13:59:58Z</time><extensions><gpxtpx:TrackPointExtension><gpxtpx:atemp>2.9</gpxtpx:atemp></gpxtpx:TrackPointExtension></extensions></trkpt><trkpt lat="42.1789076272" lon="13.3919946849"><ele>2102.11</ele><time>2026-03-11T13:59:59Z</time><extensions><gpxtpx:TrackPointExtension><gpxtpx:atemp>2.9</gpxtpx:atemp></gpxtpx:TrackPointExtension></extensions></trkpt><trkpt lat="42.1789075434" lon="13.3919989597"><ele>2102.11</ele><time>2026-03-11T14:00:00Z</time><extensions><gpxtpx:TrackPointExtension><gpxtpx:atemp>2.9</gpxtpx:atemp></gpxtpx:TrackPointExtension></extensions></trkpt><trkpt lat="42.1789045259" lon="13.3920097724"><ele>2102.11</ele><time>2026-03-11T14:00:01Z</time><extensions><gpxtpx:TrackPointExtension><gpxtpx:atemp>2.9</gpxtpx:atemp></gpxtpx:TrackPointExtension></extensions></trkpt><trkpt lat="42.1788987424" lon="13.3920211717"><ele>2102.11</ele><time>2026-03-11T14:00:02Z</time><extensions><gpxtpx:TrackPointExtension><gpxtpx:atemp>2.9</gpxtpx:atemp></gpxtpx:TrackPointExtension></extensions></trkpt><trkpt lat="42.1788928751" lon="13.3920288831"><ele>2102.11</ele><time>2026-03-11T14:00:03Z</time><extensions><gpxtpx:TrackPointExtension><gpxtpx:atemp>2.9</gpxtpx:atemp></gpxtpx:TrackPointExtension></extensions></trkpt><trkpt lat="42.1788923722" lon="13.3920279611"><ele>2102.11</ele><time>2026-03-11T14:00:04Z</time><extensions><gpxtpx:TrackPointExtension><gpxtpx:atemp>2.9</gpxtpx:atemp></gpxtpx:TrackPointExtension></extensions></trkpt><trkpt lat="42.1788955573" lon="13.3920247760"><ele>2102.11</ele><time>2026-03-11T14:00:05Z</time><extensions><gpxtpx:TrackPointExtension><gpxtpx:atemp>2.9</gpxtpx:atemp></gpxtpx:TrackPointExtension></extensions></trkpt><trkpt lat="42.1789014246" lon="13.3920183219"><ele>2102.10</ele><time>2026-03-11T14:00:06Z</time><extensions><gpxtpx:TrackPointExtension><gpxtpx:atemp>2.9</gpxtpx:atemp></gpxtpx:TrackPointExtension></extensions></trkpt><trkpt lat="42.1789029334" lon="13.3920168970"><ele>2102.09</ele><time>2026-03-11T14:00:07Z</time><extensions><gpxtpx:TrackPointExtension><gpxtpx:atemp>2.9</gpxtpx:atemp></gpxtpx:TrackPointExtension></extensions></trkpt><trkpt lat="42.1789021790" lon="13.3920166455"><ele>2102.07</ele><time>2026-03-11T14:00:08Z</time><extensions><gpxtpx:TrackPointExtension><gpxtpx:atemp>2.9</gpxtpx:atemp></gpxtpx:TrackPointExtension></extensions></trkpt><trkpt lat="42.1789009217" lon="13.3920174837"><ele>2102.04</ele><time>2026-03-11T14:00:09Z</time><extensions><gpxtpx:TrackPointExtension><gpxtpx:atemp>2.9</gpxtpx:atemp></gpxtpx:TrackPointExtension></extensions></trkpt><trkpt lat="42.1788999997" lon="13.3920197468"><ele>2102.04</ele><time>2026-03-11T14:00:10Z</time><extensions><gpxtpx:TrackPointExtension><gpxtpx:atemp>2.9</gpxtpx:atemp></gpxtpx:TrackPointExtension></extensions></trkpt><trkpt lat="42.1788993292" lon="13.3920214232"><ele>2102.04</ele><time>2026-03-11T14:00:11Z</time><extensions><gpxtpx:TrackPointExtension><gpxtpx:atemp>2.9</gpxtpx:atemp></gpxtpx:TrackPointExtension></extensions></trkpt><trkpt lat="42.1788987424" lon="13.3920231834"><ele>2102.04</ele><time>2026-03-11T14:00:12Z</time><extensions><gpxtpx:TrackPointExtension><gpxtpx:atemp>2.9</gpxtpx:atemp></gpxtpx:TrackPointExtension></extensions></trkpt><trkpt lat="42.1789002512" lon="13.3920218423"><ele>2102.05</ele><time>2026-03-11T14:00:13Z</time><extensions><gpxtpx:TrackPointExtension><gpxtpx:atemp>2.9</gpxtpx:atemp></gpxtpx:TrackPointExtension></extensions></trkpt><trkpt lat="42.1789027657" lon="13.3920200821"><ele>2102.05</ele><time>2026-03-11T14:00:14Z</time><extensions><gpxtpx:TrackPointExtension><gpxtpx:atemp>2.9</gpxtpx:atemp></gpxtpx:TrackPointExtension></extensions></trkpt><trkpt lat="42.1789045259" lon="13.3920204174"><ele>2102.05</ele><time>2026-03-11T14:00:15Z</time><extensions><gpxtpx:TrackPointExtension><gpxtpx:atemp>2.9</gpxtpx:atemp></gpxtpx:TrackPointExtension></extensions></trkpt><trkpt lat="42.1789056994" lon="13.3920223452"><ele>2102.05</ele><time>2026-03-11T14:00:16Z</time><extensions><gpxtpx:TrackPointExtension><gpxtpx:atemp>2.9</gpxtpx:atemp></gpxtpx:TrackPointExtension></extensions></trkpt><trkpt lat="42.1789067890" lon="13.3920253627"><ele>2102.05</ele><time>2026-03-11T14:00:17Z</time><extensions><gpxtpx:TrackPointExtension><gpxtpx:atemp>2.9</gpxtpx:atemp></gpxtpx:TrackPointExtension></extensions></trkpt><trkpt lat="42.1789068729" lon="13.3920294698"><ele>2102.05</ele><time>2026-03-11T14:00:18Z</time><extensions><gpxtpx:TrackPointExtension><gpxtpx:atemp>2.9</gpxtpx:atemp></gpxtpx:TrackPointExtension></extensions></trkpt><trkpt lat="42.1789064538" lon="13.3920344990"><ele>2102.05</ele><time>2026-03-11T14:00:19Z</time><extensions><gpxtpx:TrackPointExtension><gpxtpx:atemp>2.9</gpxtpx:atemp></gpxtpx:TrackPointExtension></extensions></trkpt><trkpt lat="42.1789073758" lon="13.3920355886"><ele>2102.12</ele><time>2026-03-11T14:00:20Z</time><extensions><gpxtpx:TrackPointExtension><gpxtpx:atemp>2.9</gpxtpx:atemp></gpxtpx:TrackPointExtension></extensions></trkpt><trkpt lat="42.1789111476" lon="13.3920299727"><ele>2102.14</ele><time>2026-03-11T14:00:21Z</time><extensions><gpxtpx:TrackPointExtension><gpxtpx:atemp>2.9</gpxtpx:atemp></gpxtpx:TrackPointExtension></extensions></trkpt><trkpt lat="42.1789151710" lon="13.3920240216"><ele>2102.17</ele><time>2026-03-11T14:00:22Z</time><extensions><gpxtpx:TrackPointExtension><gpxtpx:atemp>2.9</gpxtpx:atemp></gpxtpx:TrackPointExtension></extensions></trkpt><trkpt lat="42.1789174341" lon="13.3920204174"><ele>2102.18</ele><time>2026-03-11T14:00:23Z</time><extensions><gpxtpx:TrackPointExtension><gpxtpx:atemp>2.9</gpxtpx:atemp></gpxtpx:TrackPointExtension></extensions></trkpt><trkpt lat="42.1789177693" lon="13.3920211717"><ele>2102.19</ele><time>2026-03-11T14:00:24Z</time><extensions><gpxtpx:TrackPointExtension><gpxtpx:atemp>2.9</gpxtpx:atemp></gpxtpx:TrackPointExtension></extensions></trkpt><trkpt lat="42.1789184399" lon="13.3920199983"><ele>2102.20</ele><time>2026-03-11T14:00:25Z</time><extensions><gpxtpx:TrackPointExtension><gpxtpx:atemp>2.9</gpxtpx:atemp></gpxtpx:TrackPointExtension></extensions></trkpt><trkpt lat="42.1789183561" lon="13.3920197468"><ele>2102.20</ele><time>2026-03-11T14:00:26Z</time><extensions><gpxtpx:TrackPointExtension><gpxtpx:atemp>2.9</gpxtpx:atemp></gpxtpx:TrackPointExtension></extensions></trkpt><trkpt lat="42.1789162606" lon="13.3920232672"><ele>2102.18</ele><time>2026-03-11T14:00:27Z</time><extensions><gpxtpx:TrackPointExtension><gpxtpx:atemp>2.9</gpxtpx:atemp></gpxtpx:TrackPointExtension></extensions></trkpt><trkpt lat="42.1789134946" lon="13.3920303918"><ele>2102.18</ele><time>2026-03-11T14:00:28Z</time><extensions><gpxtpx:TrackPointExtension><gpxtpx:atemp>2.9</gpxtpx:atemp></gpxtpx:TrackPointExtension></extensions></trkpt><trkpt lat="42.1789133269" lon="13.3920341637"><ele>2102.18</ele><time>2026-03-11T14:00:29Z</time><extensions><gpxtpx:TrackPointExtension><gpxtpx:atemp>2.9</gpxtpx:atemp></gpxtpx:TrackPointExtension></extensions></trkpt><trkpt lat="42.1789145842" lon="13.3920358401"><ele>2102.19</ele><time>2026-03-11T14:00:30Z</time><extensions><gpxtpx:TrackPointExtension><gpxtpx:atemp>2.9</gpxtpx:atemp></gpxtpx:TrackPointExtension></extensions></trkpt><trkpt lat="42.1789172664" lon="13.3920321520"><ele>2102.21</ele><time>2026-03-11T14:00:31Z</time><extensions><gpxtpx:TrackPointExtension><gpxtpx:atemp>2.9</gpxtpx:atemp></gpxtpx:TrackPointExtension></extensions></trkpt><trkpt lat="42.1789165959" lon="13.3920302242"><ele>2102.21</ele><time>2026-03-11T14:00:32Z</time><extensions><gpxtpx:TrackPointExtension><gpxtpx:atemp>2.9</gpxtpx:atemp></gpxtpx:TrackPointExtension></extensions></trkpt><trkpt lat="42.1789151710" lon="13.3920283802"><ele>2102.21</ele><time>2026-03-11T14:00:33Z</time><extensions><gpxtpx:TrackPointExtension><gpxtpx:atemp>2.9</gpxtpx:atemp></gpxtpx:TrackPointExtension></extensions></trkpt><trkpt lat="42.1789121535" lon="13.3920299727"><ele>2102.23</ele><time>2026-03-11T14:00:34Z</time><extensions><gpxtpx:TrackPointExtension><gpxtpx:atemp>2.9</gpxtpx:atemp></gpxtpx:TrackPointExtension></extensions></trkpt><trkpt lat="42.1789063700" lon="13.3920457307"><ele>2102.21</ele><time>2026-03-11T14:00:35Z</time><extensions><gpxtpx:TrackPointExtension><gpxtpx:atemp>2.9</gpxtpx:atemp></gpxtpx:TrackPointExtension></extensions></trkpt><trkpt lat="42.1788914502" lon="13.3920948487"><ele>2102.20</ele><time>2026-03-11T14:00:36Z</time><extensions><gpxtpx:TrackPointExtension><gpxtpx:atemp>2.9</gpxtpx:atemp></gpxtpx:TrackPointExtension></extensions></trkpt><trkpt lat="42.1788752731" lon="13.3921497501"><ele>2102.19</ele><time>2026-03-11T14:00:37Z</time><extensions><gpxtpx:TrackPointExtension><gpxtpx:atemp>2.9</gpxtpx:atemp></gpxtpx:TrackPointExtension></extensions></trkpt><trkpt lat="42.1788623650" lon="13.3921958506"><ele>2102.17</ele><time>2026-03-11T14:00:38Z</time><extensions><gpxtpx:TrackPointExtension><gpxtpx:atemp>2.9</gpxtpx:atemp></gpxtpx:TrackPointExtension></extensions></trkpt><trkpt lat="42.1788590960" lon="13.3922112733"><ele>2102.18</ele><time>2026-03-11T14:00:39Z</time><extensions><gpxtpx:TrackPointExtension><gpxtpx:atemp>2.9</gpxtpx:atemp></gpxtpx:TrackPointExtension></extensions></trkpt><trkpt lat="42.1788551565" lon="13.3922247682"><ele>2102.22</ele><time>2026-03-11T14:00:40Z</time><extensions><gpxtpx:TrackPointExtension><gpxtpx:atemp>2.9</gpxtpx:atemp></gpxtpx:TrackPointExtension></extensions></trkpt><trkpt lat="42.1788504627" lon="13.3922398556"><ele>2102.22</ele><time>2026-03-11T14:00:41Z</time><extensions><gpxtpx:TrackPointExtension><gpxtpx:atemp>2.9</gpxtpx:atemp></gpxtpx:TrackPointExtension></extensions></trkpt><trkpt lat="42.1788444277" lon="13.3922577929"><ele>2102.24</ele><time>2026-03-11T14:00:42Z</time><extensions><gpxtpx:TrackPointExtension><gpxtpx:atemp>2.9</gpxtpx:atemp></gpxtpx:TrackPointExtension></extensions></trkpt><trkpt lat="42.1788379736" lon="13.3922770713"><ele>2102.24</ele><time>2026-03-11T14:00:43Z</time><extensions><gpxtpx:TrackPointExtension><gpxtpx:atemp>2.9</gpxtpx:atemp></gpxtpx:TrackPointExtension></extensions></trkpt><trkpt lat="42.1788325254" lon="13.3922937512"><ele>2102.25</ele><time>2026-03-11T14:00:44Z</time><extensions><gpxtpx:TrackPointExtension><gpxtpx:atemp>2.9</gpxtpx:atemp></gpxtpx:TrackPointExtension></extensions></trkpt><trkpt lat="42.1788278315" lon="13.3923065756"><ele>2102.27</ele><time>2026-03-11T14:00:45Z</time><extensions><gpxtpx:TrackPointExtension><gpxtpx:atemp>2.9</gpxtpx:atemp></gpxtpx:TrackPointExtension></extensions></trkpt><trkpt lat="42.1788253170" lon="13.3923144545"><ele>2102.27</ele><time>2026-03-11T14:00:46Z</time><extensions><gpxtpx:TrackPointExtension><gpxtpx:atemp>2.9</gpxtpx:atemp></gpxtpx:TrackPointExtension></extensions></trkpt><trkpt lat="42.1788226347" lon="13.3923204895"><ele>2102.30</ele><time>2026-03-11T14:00:47Z</time><extensions><gpxtpx:TrackPointExtension><gpxtpx:atemp>2.9</gpxtpx:atemp></gpxtpx:TrackPointExtension></extensions></trkpt><trkpt lat="42.1788201202" lon="13.3923250996"><ele>2102.31</ele><time>2026-03-11T14:00:48Z</time><extensions><gpxtpx:TrackPointExtension><gpxtpx:atemp>2.9</gpxtpx:atemp></gpxtpx:TrackPointExtension></extensions></trkpt><trkpt lat="42.1788165998" lon="13.3923344873"><ele>2102.34</ele><time>2026-03-11T14:00:49Z</time><extensions><gpxtpx:TrackPointExtension><gpxtpx:atemp>2.9</gpxtpx:atemp></gpxtpx:TrackPointExtension></extensions></trkpt><trkpt lat="42.1788128279" lon="13.3923452999"><ele>2102.34</ele><time>2026-03-11T14:00:50Z</time><extensions><gpxtpx:TrackPointExtension><gpxtpx:atemp>2.9</gpxtpx:atemp></gpxtpx:TrackPointExtension></extensions></trkpt><trkpt lat="42.1788107324" lon="13.3923545200"><ele>2102.34</ele><time>2026-03-11T14:00:51Z</time><extensions><gpxtpx:TrackPointExtension><gpxtpx:atemp>2.9</gpxtpx:atemp></gpxtpx:TrackPointExtension></extensions></trkpt><trkpt lat="42.1788104810" lon="13.3923566993"><ele>2102.35</ele><time>2026-03-11T14:00:52Z</time><extensions><gpxtpx:TrackPointExtension><gpxtpx:atemp>2.9</gpxtpx:atemp></gpxtpx:TrackPointExtension></extensions></trkpt><trkpt lat="42.1788123250" lon="13.3923558611"><ele>2102.39</ele><time>2026-03-11T14:00:53Z</time><extensions><gpxtpx:TrackPointExtension><gpxtpx:atemp>2.9</gpxtpx:atemp></gpxtpx:TrackPointExtension></extensions></trkpt><trkpt lat="42.1788142528" lon="13.3923550230"><ele>2102.41</ele><time>2026-03-11T14:00:54Z</time><extensions><gpxtpx:TrackPointExtension><gpxtpx:atemp>2.9</gpxtpx:atemp></gpxtpx:TrackPointExtension></extensions></trkpt><trkpt lat="42.1788168512" lon="13.3923554420"><ele>2102.45</ele><time>2026-03-11T14:00:55Z</time><extensions><gpxtpx:TrackPointExtension><gpxtpx:atemp>2.9</gpxtpx:atemp></gpxtpx:TrackPointExtension></extensions></trkpt><trkpt lat="42.1788188629" lon="13.3923558611"><ele>2102.49</ele><time>2026-03-11T14:00:56Z</time><extensions><gpxtpx:TrackPointExtension><gpxtpx:atemp>2.9</gpxtpx:atemp></gpxtpx:TrackPointExtension></extensions></trkpt><trkpt lat="42.1788203716" lon="13.3923559450"><ele>2102.53</ele><time>2026-03-11T14:00:57Z</time><extensions><gpxtpx:TrackPointExtension><gpxtpx:atemp>2.9</gpxtpx:atemp></gpxtpx:TrackPointExtension></extensions></trkpt><trkpt lat="42.1788212936" lon="13.3923562802"><ele>2102.58</ele><time>2026-03-11T14:00:58Z</time><extensions><gpxtpx:TrackPointExtension><gpxtpx:atemp>2.9</gpxtpx:atemp></gpxtpx:TrackPointExtension></extensions></trkpt><trkpt lat="42.1788211260" lon="13.3923567832"><ele>2102.63</ele><time>2026-03-11T14:00:59Z</time><extensions><gpxtpx:TrackPointExtension><gpxtpx:atemp>2.9</gpxtpx:atemp></gpxtpx:TrackPointExtension></extensions></trkpt><trkpt lat="42.1788209584" lon="13.3923572861"><ele>2102.69</ele><time>2026-03-11T14:01:00Z</time><extensions><gpxtpx:TrackPointExtension><gpxtpx:atemp>2.9</gpxtpx:atemp></gpxtpx:TrackPointExtension></extensions></trkpt><trkpt lat="42.1788190305" lon="13.3923582919"><ele>2102.71</ele><time>2026-03-11T14:01:01Z</time><extensions><gpxtpx:TrackPointExtension><gpxtpx:atemp>2.9</gpxtpx:atemp></gpxtpx:TrackPointExtension></extensions></trkpt><trkpt lat="42.1788176894" lon="13.3923587948"><ele>2102.73</ele><time>2026-03-11T14:01:02Z</time><extensions><gpxtpx:TrackPointExtension><gpxtpx:atemp>2.9</gpxtpx:atemp></gpxtpx:TrackPointExtension></extensions></trkpt><trkpt lat="42.1788162645" lon="13.3923591301"><ele>2102.77</ele><time>2026-03-11T14:01:03Z</time><extensions><gpxtpx:TrackPointExtension><gpxtpx:atemp>2.9</gpxtpx:atemp></gpxtpx:TrackPointExtension></extensions></trkpt><trkpt lat="42.1788161807" lon="13.3923590463"><ele>2102.81</ele><time>2026-03-11T14:01:04Z</time><extensions><gpxtpx:TrackPointExtension><gpxtpx:atemp>2.9</gpxtpx:atemp></gpxtpx:TrackPointExtension></extensions></trkpt><trkpt lat="42.1788154263" lon="13.3923593815"><ele>2102.83</ele><time>2026-03-11T14:01:05Z</time><extensions><gpxtpx:TrackPointExtension><gpxtpx:atemp>2.9</gpxtpx:atemp></gpxtpx:TrackPointExtension></extensions></trkpt><trkpt lat="42.1788142528" lon="13.3923597168"><ele>2102.83</ele><time>2026-03-11T14:01:06Z</time><extensions><gpxtpx:TrackPointExtension><gpxtpx:atemp>2.9</gpxtpx:atemp></gpxtpx:TrackPointExtension></extensions></trkpt><trkpt lat="42.1788127441" lon="13.3923603874"><ele>2102.82</ele><time>2026-03-11T14:01:07Z</time><extensions><gpxtpx:TrackPointExtension><gpxtpx:atemp>2.9</gpxtpx:atemp></gpxtpx:TrackPointExtension></extensions></trkpt><trkpt lat="42.1788113192" lon="13.3923609741"><ele>2102.81</ele><time>2026-03-11T14:01:08Z</time><extensions><gpxtpx:TrackPointExtension><gpxtpx:atemp>2.9</gpxtpx:atemp></gpxtpx:TrackPointExtension></extensions></trkpt><trkpt lat="42.1788106486" lon="13.3923613932"><ele>2102.80</ele><time>2026-03-11T14:01:09Z</time><extensions><gpxtpx:TrackPointExtension><gpxtpx:atemp>2.9</gpxtpx:atemp></gpxtpx:TrackPointExtension></extensions></trkpt><trkpt lat="42.1788082179" lon="13.3923645783"><ele>2102.77</ele><time>2026-03-11T14:01:10Z</time><extensions><gpxtpx:TrackPointExtension><gpxtpx:atemp>2.9</gpxtpx:atemp></gpxtpx:TrackPointExtension></extensions></trkpt><trkpt lat="42.1788042784" lon="13.3923695236"><ele>2102.73</ele><time>2026-03-11T14:01:11Z</time><extensions><gpxtpx:TrackPointExtension><gpxtpx:atemp>2.9</gpxtpx:atemp></gpxtpx:TrackPointExtension></extensions></trkpt><trkpt lat="42.1787990816" lon="13.3923764806"><ele>2102.69</ele><time>2026-03-11T14:01:12Z</time><extensions><gpxtpx:TrackPointExtension><gpxtpx:atemp>2.9</gpxtpx:atemp></gpxtpx:TrackPointExtension></extensions></trkpt><trkpt lat="42.1787979919" lon="13.3923825994"><ele>2102.66</ele><time>2026-03-11T14:01:13Z</time><extensions><gpxtpx:TrackPointExtension><gpxtpx:atemp>2.9</gpxtpx:atemp></gpxtpx:TrackPointExtension></extensions></trkpt><trkpt lat="42.1787993331" lon="13.3923895564"><ele>2102.64</ele><time>2026-03-11T14:01:14Z</time><extensions><gpxtpx:TrackPointExtension><gpxtpx:atemp>2.9</gpxtpx:atemp></gpxtpx:TrackPointExtension></extensions></trkpt><trkpt lat="42.1788014285" lon="13.3923949208"><ele>2102.60</ele><time>2026-03-11T14:01:15Z</time><extensions><gpxtpx:TrackPointExtension><gpxtpx:atemp>2.9</gpxtpx:atemp></gpxtpx:TrackPointExtension></extensions></trkpt><trkpt lat="42.1788017638" lon="13.3923983574"><ele>2102.58</ele><time>2026-03-11T14:01:16Z</time><extensions><gpxtpx:TrackPointExtension><gpxtpx:atemp>2.9</gpxtpx:atemp></gpxtpx:TrackPointExtension></extensions></trkpt><trkpt lat="42.1788021829" lon="13.3923987765"><ele>2102.59</ele><time>2026-03-11T14:01:17Z</time><extensions><gpxtpx:TrackPointExtension><gpxtpx:atemp>2.9</gpxtpx:atemp></gpxtpx:TrackPointExtension></extensions></trkpt><trkpt lat="42.1788029373" lon="13.3923989441"><ele>2102.59</ele><time>2026-03-11T14:01:18Z</time><extensions><gpxtpx:TrackPointExtension><gpxtpx:atemp>2.9</gpxtpx:atemp></gpxtpx:TrackPointExtension></extensions></trkpt><trkpt lat="42.1788025182" lon="13.3924003690"><ele>2102.63</ele><time>2026-03-11T14:01:19Z</time><extensions><gpxtpx:TrackPointExtension><gpxtpx:atemp>2.9</gpxtpx:atemp></gpxtpx:TrackPointExtension></extensions></trkpt><trkpt lat="42.1787995845" lon="13.3924030513"><ele>2102.64</ele><time>2026-03-11T14:01:20Z</time><extensions><gpxtpx:TrackPointExtension><gpxtpx:atemp>2.9</gpxtpx:atemp></gpxtpx:TrackPointExtension></extensions></trkpt><trkpt lat="42.1787948906" lon="13.3924074937"><ele>2102.67</ele><time>2026-03-11T14:01:21Z</time><extensions><gpxtpx:TrackPointExtension><gpxtpx:atemp>2.9</gpxtpx:atemp></gpxtpx:TrackPointExtension></extensions></trkpt><trkpt lat="42.1787899453" lon="13.3924057335"><ele>2102.69</ele><time>2026-03-11T14:01:22Z</time><extensions><gpxtpx:TrackPointExtension><gpxtpx:atemp>2.9</gpxtpx:atemp></gpxtpx:TrackPointExtension></extensions></trkpt><trkpt lat="42.1787828207" lon="13.3924047276"><ele>2102.69</ele><time>2026-03-11T14:01:23Z</time><extensions><gpxtpx:TrackPointExtension><gpxtpx:atemp>2.9</gpxtpx:atemp></gpxtpx:TrackPointExtension></extensions></trkpt><trkpt lat="42.1787719242" lon="13.3924054820"><ele>2102.69</ele><time>2026-03-11T14:01:24Z</time><extensions><gpxtpx:TrackPointExtension><gpxtpx:atemp>2.9</gpxtpx:atemp></gpxtpx:TrackPointExtension></extensions></trkpt><trkpt lat="42.1787620336" lon="13.3924114332"><ele>2102.69</ele><time>2026-03-11T14:01:25Z</time><extensions><gpxtpx:TrackPointExtension><gpxtpx:atemp>2.9</gpxtpx:atemp></gpxtpx:TrackPointExtension></extensions></trkpt><trkpt lat="42.1787548251" lon="13.3924170490"><ele>2102.69</ele><time>2026-03-11T14:01:26Z</time><extensions><gpxtpx:TrackPointExtension><gpxtpx:atemp>2.9</gpxtpx:atemp></gpxtpx:TrackPointExtension></extensions></trkpt><trkpt lat="42.1787525620" lon="13.3924179710"><ele>2102.68</ele><time>2026-03-11T14:01:27Z</time><extensions><gpxtpx:TrackPointExtension><gpxtpx:atemp>2.9</gpxtpx:atemp></gpxtpx:TrackPointExtension></extensions></trkpt><trkpt lat="42.1787518915" lon="13.3924154565"><ele>2102.62</ele><time>2026-03-11T14:01:28Z</time><extensions><gpxtpx:TrackPointExtension><gpxtpx:atemp>2.9</gpxtpx:atemp></gpxtpx:TrackPointExtension></extensions></trkpt><trkpt lat="42.1787511371" lon="13.3924111817"><ele>2102.61</ele><time>2026-03-11T14:01:29Z</time><extensions><gpxtpx:TrackPointExtension><gpxtpx:atemp>2.9</gpxtpx:atemp></gpxtpx:TrackPointExtension></extensions></trkpt><trkpt lat="42.1787508857" lon="13.3924069908"><ele>2102.61</ele><time>2026-03-11T14:01:30Z</time><extensions><gpxtpx:TrackPointExtension><gpxtpx:atemp>2.9</gpxtpx:atemp></gpxtpx:TrackPointExtension></extensions></trkpt><trkpt lat="42.1787505504" lon="13.3924051467"><ele>2102.61</ele><time>2026-03-11T14:01:31Z</time><extensions><gpxtpx:TrackPointExtension><gpxtpx:atemp>2.9</gpxtpx:atemp></gpxtpx:TrackPointExtension></extensions></trkpt><trkpt lat="42.1787519753" lon="13.3924034704"><ele>2102.57</ele><time>2026-03-11T14:01:32Z</time><extensions><gpxtpx:TrackPointExtension><gpxtpx:atemp>2.9</gpxtpx:atemp></gpxtpx:TrackPointExtension></extensions></trkpt><trkpt lat="42.1787549928" lon="13.3924009558"><ele>2102.60</ele><time>2026-03-11T14:01:33Z</time><extensions><gpxtpx:TrackPointExtension><gpxtpx:atemp>2.9</gpxtpx:atemp></gpxtpx:TrackPointExtension></extensions></trkpt><trkpt lat="42.1787576750" lon="13.3923972677"><ele>2102.66</ele><time>2026-03-11T14:01:34Z</time><extensions><gpxtpx:TrackPointExtension><gpxtpx:atemp>3.0</gpxtpx:atemp></gpxtpx:TrackPointExtension></extensions></trkpt><trkpt lat="42.1787607763" lon="13.3923919871"><ele>2102.69</ele><time>2026-03-11T14:01:35Z</time><extensions><gpxtpx:TrackPointExtension><gpxtpx:atemp>3.0</gpxtpx:atemp></gpxtpx:TrackPointExtension></extensions></trkpt><trkpt lat="42.1787628718" lon="13.3923870418"><ele>2102.76</ele><time>2026-03-11T14:01:36Z</time><extensions><gpxtpx:TrackPointExtension><gpxtpx:atemp>3.0</gpxtpx:atemp></gpxtpx:TrackPointExtension></extensions></trkpt><trkpt lat="42.1787646320" lon="13.3923818450"><ele>2102.86</ele><time>2026-03-11T14:01:37Z</time><extensions><gpxtpx:TrackPointExtension><gpxtpx:atemp>3.0</gpxtpx:atemp></gpxtpx:TrackPointExtension></extensions></trkpt><trkpt lat="42.1787645482" lon="13.3923812583"><ele>2102.97</ele><time>2026-03-11T14:01:38Z</time><extensions><gpxtpx:TrackPointExtension><gpxtpx:atemp>3.0</gpxtpx:atemp></gpxtpx:TrackPointExtension></extensions></trkpt><trkpt lat="42.1787633747" lon="13.3923821803"><ele>2103.05</ele><time>2026-03-11T14:01:39Z</time><extensions><gpxtpx:TrackPointExtension><gpxtpx:atemp>3.0</gpxtpx:atemp></gpxtpx:TrackPointExtension></extensions></trkpt><trkpt lat="42.1787618659" lon="13.3923853654"><ele>2103.11</ele><time>2026-03-11T14:01:40Z</time><extensions><gpxtpx:TrackPointExtension><gpxtpx:atemp>3.0</gpxtpx:atemp></gpxtpx:TrackPointExtension></extensions></trkpt><trkpt lat="42.1787641291" lon="13.3923846949"><ele>2103.11</ele><time>2026-03-11T14:01:41Z</time><extensions><gpxtpx:TrackPointExtension><gpxtpx:atemp>3.0</gpxtpx:atemp></gpxtpx:TrackPointExtension></extensions></trkpt><trkpt lat="42.1787710860" lon="13.3923806716"><ele>2103.06</ele><time>2026-03-11T14:01:42Z</time><extensions><gpxtpx:TrackPointExtension><gpxtpx:atemp>3.0</gpxtpx:atemp></gpxtpx:TrackPointExtension></extensions></trkpt><trkpt lat="42.1787782945" lon="13.3923729602"><ele>2103.00</ele><time>2026-03-11T14:01:43Z</time><extensions><gpxtpx:TrackPointExtension><gpxtpx:atemp>3.0</gpxtpx:atemp></gpxtpx:TrackPointExtension></extensions></trkpt><trkpt lat="42.1787824854" lon="13.3923660871"><ele>2102.95</ele><time>2026-03-11T14:01:44Z</time><extensions><gpxtpx:TrackPointExtension><gpxtpx:atemp>3.0</gpxtpx:atemp></gpxtpx:TrackPointExtension></extensions></trkpt><trkpt lat="42.1787806414" lon="13.3923693560"><ele>2102.89</ele><time>2026-03-11T14:01:45Z</time><extensions><gpxtpx:TrackPointExtension><gpxtpx:atemp>3.0</gpxtpx:atemp></gpxtpx:TrackPointExtension></extensions></trkpt><trkpt lat="42.1787740197" lon="13.3923803363"><ele>2102.86</ele><time>2026-03-11T14:01:46Z</time><extensions><gpxtpx:TrackPointExtension><gpxtpx:atemp>3.0</gpxtpx:atemp></gpxtpx:TrackPointExtension></extensions></trkpt><trkpt lat="42.1787659731" lon="13.3923910651"><ele>2102.83</ele><time>2026-03-11T14:01:47Z</time><extensions><gpxtpx:TrackPointExtension><gpxtpx:atemp>3.0</gpxtpx:atemp></gpxtpx:TrackPointExtension></extensions></trkpt><trkpt lat="42.1787584294" lon="13.3923950884"><ele>2102.80</ele><time>2026-03-11T14:01:48Z</time><extensions><gpxtpx:TrackPointExtension><gpxtpx:atemp>3.0</gpxtpx:atemp></gpxtpx:TrackPointExtension></extensions></trkpt><trkpt lat="42.1787533164" lon="13.3923959266"><ele>2102.76</ele><time>2026-03-11T14:01:49Z</time><extensions><gpxtpx:TrackPointExtension><gpxtpx:atemp>3.0</gpxtpx:atemp></gpxtpx:TrackPointExtension></extensions></trkpt><trkpt lat="42.1787523944" lon="13.3923952561"><ele>2102.72</ele><time>2026-03-11T14:01:50Z</time><extensions><gpxtpx:TrackPointExtension><gpxtpx:atemp>3.0</gpxtpx:atemp></gpxtpx:TrackPointExtension></extensions></trkpt><trkpt lat="42.1787523944" lon="13.3924008720"><ele>2102.68</ele><time>2026-03-11T14:01:51Z</time><extensions><gpxtpx:TrackPointExtension><gpxtpx:atemp>3.0</gpxtpx:atemp></gpxtpx:TrackPointExtension></extensions></trkpt><trkpt lat="42.1787532326" lon="13.3924074937"><ele>2102.66</ele><time>2026-03-11T14:01:52Z</time><extensions><gpxtpx:TrackPointExtension><gpxtpx:atemp>3.0</gpxtpx:atemp></gpxtpx:TrackPointExtension></extensions></trkpt><trkpt lat="42.1787550766" lon="13.3924161270"><ele>2102.66</ele><time>2026-03-11T14:01:53Z</time><extensions><gpxtpx:TrackPointExtension><gpxtpx:atemp>3.0</gpxtpx:atemp></gpxtpx:TrackPointExtension></extensions></trkpt><trkpt lat="42.1787607763" lon="13.3924180549"><ele>2102.65</ele><time>2026-03-11T14:01:54Z</time><extensions><gpxtpx:TrackPointExtension><gpxtpx:atemp>3.0</gpxtpx:atemp></gpxtpx:TrackPointExtension></extensions></trkpt><trkpt lat="42.1787661407" lon="13.3924184740"><ele>2102.63</ele><time>2026-03-11T14:01:55Z</time><extensions><gpxtpx:TrackPointExtension><gpxtpx:atemp>3.0</gpxtpx:atemp></gpxtpx:TrackPointExtension></extensions></trkpt><trkpt lat="42.1787649672" lon="13.3924238384"><ele>2102.58</ele><time>2026-03-11T14:01:56Z</time><extensions><gpxtpx:TrackPointExtension><gpxtpx:atemp>3.0</gpxtpx:atemp></gpxtpx:TrackPointExtension></extensions></trkpt><trkpt lat="42.1787587646" lon="13.3924333937"><ele>2102.52</ele><time>2026-03-11T14:01:57Z</time><extensions><gpxtpx:TrackPointExtension><gpxtpx:atemp>3.0</gpxtpx:atemp></gpxtpx:TrackPointExtension></extensions></trkpt><trkpt lat="42.1787526459" lon="13.3924459666"><ele>2102.45</ele><time>2026-03-11T14:01:58Z</time><extensions><gpxtpx:TrackPointExtension><gpxtpx:atemp>3.0</gpxtpx:atemp></gpxtpx:TrackPointExtension></extensions></trkpt><trkpt lat="42.1787491255" lon="13.3924568631"><ele>2102.42</ele><time>2026-03-11T14:01:59Z</time><extensions><gpxtpx:TrackPointExtension><gpxtpx:atemp>3.0</gpxtpx:atemp></gpxtpx:TrackPointExtension></extensions></trkpt><trkpt lat="42.1787481196" lon="13.3924654964"><ele>2102.41</ele><time>2026-03-11T14:02:00Z</time><extensions><gpxtpx:TrackPointExtension><gpxtpx:atemp>3.0</gpxtpx:atemp></gpxtpx:TrackPointExtension></extensions></trkpt><trkpt lat="42.1787467785" lon="13.3924737945"><ele>2102.41</ele><time>2026-03-11T14:02:01Z</time><extensions><gpxtpx:TrackPointExtension><gpxtpx:atemp>3.0</gpxtpx:atemp></gpxtpx:TrackPointExtension></extensions></trkpt><trkpt lat="42.1787466947" lon="13.3924786560"><ele>2102.41</ele><time>2026-03-11T14:02:02Z</time><extensions><gpxtpx:TrackPointExtension><gpxtpx:atemp>3.0</gpxtpx:atemp></gpxtpx:TrackPointExtension></extensions></trkpt><trkpt lat="42.1787520591" lon="13.3924806677"><ele>2102.41</ele><time>2026-03-11T14:02:03Z</time><extensions><gpxtpx:TrackPointExtension><gpxtpx:atemp>3.0</gpxtpx:atemp></gpxtpx:TrackPointExtension></extensions></trkpt><trkpt lat="42.1787576750" lon="13.3924842719"><ele>2102.41</ele><time>2026-03-11T14:02:04Z</time><extensions><gpxtpx:TrackPointExtension><gpxtpx:atemp>3.0</gpxtpx:atemp></gpxtpx:TrackPointExtension></extensions></trkpt><trkpt lat="42.1787617821" lon="13.3924876247"><ele>2102.40</ele><time>2026-03-11T14:02:05Z</time><extensions><gpxtpx:TrackPointExtension><gpxtpx:atemp>3.0</gpxtpx:atemp></gpxtpx:TrackPointExtension></extensions></trkpt><trkpt lat="42.1787620336" lon="13.3924915642"><ele>2102.36</ele><time>2026-03-11T14:02:06Z</time><extensions><gpxtpx:TrackPointExtension><gpxtpx:atemp>3.0</gpxtpx:atemp></gpxtpx:TrackPointExtension></extensions></trkpt><trkpt lat="42.1787626203" lon="13.3924903907"><ele>2102.32</ele><time>2026-03-11T14:02:07Z</time><extensions><gpxtpx:TrackPointExtension><gpxtpx:atemp>3.0</gpxtpx:atemp></gpxtpx:TrackPointExtension></extensions></trkpt><trkpt lat="42.1787701640" lon="13.3924874570"><ele>2102.29</ele><time>2026-03-11T14:02:08Z</time><extensions><gpxtpx:TrackPointExtension><gpxtpx:atemp>3.0</gpxtpx:atemp></gpxtpx:TrackPointExtension></extensions></trkpt><trkpt lat="42.1787727624" lon="13.3924872894"><ele>2102.26</ele><time>2026-03-11T14:02:09Z</time><extensions><gpxtpx:TrackPointExtension><gpxtpx:atemp>3.0</gpxtpx:atemp></gpxtpx:TrackPointExtension></extensions></trkpt><trkpt lat="42.1787744388" lon="13.3924869541"><ele>2102.26</ele><time>2026-03-11T14:02:10Z</time><extensions><gpxtpx:TrackPointExtension><gpxtpx:atemp>3.0</gpxtpx:atemp></gpxtpx:TrackPointExtension></extensions></trkpt><trkpt lat="42.1787681524" lon="13.3924881276"><ele>2102.26</ele><time>2026-03-11T14:02:11Z</time><extensions><gpxtpx:TrackPointExtension><gpxtpx:atemp>3.0</gpxtpx:atemp></gpxtpx:TrackPointExtension></extensions></trkpt><trkpt lat="42.1787625365" lon="13.3924876247"><ele>2102.24</ele><time>2026-03-11T14:02:12Z</time><extensions><gpxtpx:TrackPointExtension><gpxtpx:atemp>3.0</gpxtpx:atemp></gpxtpx:TrackPointExtension></extensions></trkpt><trkpt lat="42.1787555795" lon="13.3924876247"><ele>2102.23</ele><time>2026-03-11T14:02:13Z</time><extensions><gpxtpx:TrackPointExtension><gpxtpx:atemp>3.0</gpxtpx:atemp></gpxtpx:TrackPointExtension></extensions></trkpt><trkpt lat="42.1787473653" lon="13.3924881276"><ele>2102.23</ele><time>2026-03-11T14:02:14Z</time><extensions><gpxtpx:TrackPointExtension><gpxtpx:atemp>3.0</gpxtpx:atemp></gpxtpx:TrackPointExtension></extensions></trkpt><trkpt lat="42.1787368879" lon="13.3924868703"><ele>2102.21</ele><time>2026-03-11T14:02:15Z</time><extensions><gpxtpx:TrackPointExtension><gpxtpx:atemp>3.0</gpxtpx:atemp></gpxtpx:TrackPointExtension></extensions></trkpt><trkpt lat="42.1787252370" lon="13.3924852777"><ele>2102.21</ele><time>2026-03-11T14:02:16Z</time><extensions><gpxtpx:TrackPointExtension><gpxtpx:atemp>3.0</gpxtpx:atemp></gpxtpx:TrackPointExtension></extensions></trkpt><trkpt lat="42.1787146758" lon="13.3924824279"><ele>2102.23</ele><time>2026-03-11T14:02:17Z</time><extensions><gpxtpx:TrackPointExtension><gpxtpx:atemp>3.0</gpxtpx:atemp></gpxtpx:TrackPointExtension></extensions></trkpt><trkpt lat="42.1787051205" lon="13.3924822602"><ele>2102.24</ele><time>2026-03-11T14:02:18Z</time><extensions><gpxtpx:TrackPointExtension><gpxtpx:atemp>3.0</gpxtpx:atemp></gpxtpx:TrackPointExtension></extensions></trkpt><trkpt lat="42.1786945593" lon="13.3924811706"><ele>2102.25</ele><time>2026-03-11T14:02:19Z</time><extensions><gpxtpx:TrackPointExtension><gpxtpx:atemp>3.0</gpxtpx:atemp></gpxtpx:TrackPointExtension></extensions></trkpt><trkpt lat="42.1786801424" lon="13.3924851939"><ele>2102.26</ele><time>2026-03-11T14:02:20Z</time><extensions><gpxtpx:TrackPointExtension><gpxtpx:atemp>3.0</gpxtpx:atemp></gpxtpx:TrackPointExtension></extensions></trkpt><trkpt lat="42.1786620375" lon="13.3924939949"><ele>2102.27</ele><time>2026-03-11T14:02:21Z</time><extensions><gpxtpx:TrackPointExtension><gpxtpx:atemp>3.0</gpxtpx:atemp></gpxtpx:TrackPointExtension></extensions></trkpt><trkpt lat="42.1786405798" lon="13.3925105911"><ele>2102.24</ele><time>2026-03-11T14:02:22Z</time><extensions><gpxtpx:TrackPointExtension><gpxtpx:atemp>3.0</gpxtpx:atemp></gpxtpx:TrackPointExtension></extensions></trkpt><trkpt lat="42.1786197927" lon="13.3925306238"><ele>2102.20</ele><time>2026-03-11T14:02:23Z</time><extensions><gpxtpx:TrackPointExtension><gpxtpx:atemp>3.0</gpxtpx:atemp></gpxtpx:TrackPointExtension></extensions></trkpt><trkpt lat="42.1786020231" lon="13.3925514948"><ele>2102.16</ele><time>2026-03-11T14:02:24Z</time><extensions><gpxtpx:TrackPointExtension><gpxtpx:atemp>3.0</gpxtpx:atemp></gpxtpx:TrackPointExtension></extensions></trkpt><trkpt lat="42.1785888635" lon="13.3925709408"><ele>2102.16</ele><time>2026-03-11T14:02:25Z</time><extensions><gpxtpx:TrackPointExtension><gpxtpx:atemp>3.0</gpxtpx:atemp></gpxtpx:TrackPointExtension></extensions></trkpt><trkpt lat="42.1785757877" lon="13.3925900515"><ele>2102.16</ele><time>2026-03-11T14:02:26Z</time><extensions><gpxtpx:TrackPointExtension><gpxtpx:atemp>3.0</gpxtpx:atemp></gpxtpx:TrackPointExtension></extensions></trkpt><trkpt lat="42.1785645559" lon="13.3926122636"><ele>2102.15</ele><time>2026-03-11T14:02:27Z</time><extensions><gpxtpx:TrackPointExtension><gpxtpx:atemp>3.0</gpxtpx:atemp></gpxtpx:TrackPointExtension></extensions></trkpt><trkpt lat="42.1785579342" lon="13.3926364873"><ele>2102.16</ele><time>2026-03-11T14:02:28Z</time><extensions><gpxtpx:TrackPointExtension><gpxtpx:atemp>3.0</gpxtpx:atemp></gpxtpx:TrackPointExtension></extensions></trkpt><trkpt lat="42.1785531566" lon="13.3926562686"><ele>2102.17</ele><time>2026-03-11T14:02:29Z</time><extensions><gpxtpx:TrackPointExtension><gpxtpx:atemp>3.0</gpxtpx:atemp></gpxtpx:TrackPointExtension></extensions></trkpt><trkpt lat="42.1785504743" lon="13.3926675841"><ele>2102.20</ele><time>2026-03-11T14:02:30Z</time><extensions><gpxtpx:TrackPointExtension><gpxtpx:atemp>3.0</gpxtpx:atemp></gpxtpx:TrackPointExtension></extensions></trkpt><trkpt lat="42.1785488818" lon="13.3926723618"><ele>2102.20</ele><time>2026-03-11T14:02:31Z</time><extensions><gpxtpx:TrackPointExtension><gpxtpx:atemp>3.0</gpxtpx:atemp></gpxtpx:TrackPointExtension></extensions></trkpt><trkpt lat="42.1785514802" lon="13.3926729485"><ele>2102.20</ele><time>2026-03-11T14:02:32Z</time><extensions><gpxtpx:TrackPointExtension><gpxtpx:atemp>3.1</gpxtpx:atemp></gpxtpx:TrackPointExtension></extensions></trkpt><trkpt lat="42.1785570960" lon="13.3926699311"><ele>2102.20</ele><time>2026-03-11T14:02:33Z</time><extensions><gpxtpx:TrackPointExtension><gpxtpx:atemp>3.1</gpxtpx:atemp></gpxtpx:TrackPointExtension></extensions></trkpt><trkpt lat="42.1785660647" lon="13.3926646505"><ele>2102.20</ele><time>2026-03-11T14:02:34Z</time><extensions><gpxtpx:TrackPointExtension><gpxtpx:atemp>3.1</gpxtpx:atemp></gpxtpx:TrackPointExtension></extensions></trkpt><trkpt lat="42.1785778832" lon="13.3926571906"><ele>2102.20</ele><time>2026-03-11T14:02:35Z</time><extensions><gpxtpx:TrackPointExtension><gpxtpx:atemp>3.1</gpxtpx:atemp></gpxtpx:TrackPointExtension></extensions></trkpt><trkpt lat="42.1785871871" lon="13.3926530834"><ele>2102.20</ele><time>2026-03-11T14:02:36Z</time><extensions><gpxtpx:TrackPointExtension><gpxtpx:atemp>3.1</gpxtpx:atemp></gpxtpx:TrackPointExtension></extensions></trkpt><trkpt lat="42.1785891987" lon="13.3926523291"><ele>2102.20</ele><time>2026-03-11T14:02:37Z</time><extensions><gpxtpx:TrackPointExtension><gpxtpx:atemp>3.1</gpxtpx:atemp></gpxtpx:TrackPointExtension></extensions></trkpt><trkpt lat="42.1785845887" lon="13.3926561847"><ele>2102.23</ele><time>2026-03-11T14:02:38Z</time><extensions><gpxtpx:TrackPointExtension><gpxtpx:atemp>3.1</gpxtpx:atemp></gpxtpx:TrackPointExtension></extensions></trkpt><trkpt lat="42.1785778832" lon="13.3926577773"><ele>2102.26</ele><time>2026-03-11T14:02:39Z</time><extensions><gpxtpx:TrackPointExtension><gpxtpx:atemp>3.1</gpxtpx:atemp></gpxtpx:TrackPointExtension></extensions></trkpt><trkpt lat="42.1785720997" lon="13.3926573582"><ele>2102.26</ele><time>2026-03-11T14:02:40Z</time><extensions><gpxtpx:TrackPointExtension><gpxtpx:atemp>3.1</gpxtpx:atemp></gpxtpx:TrackPointExtension></extensions></trkpt><trkpt lat="42.1785666514" lon="13.3926551789"><ele>2102.25</ele><time>2026-03-11T14:02:41Z</time><extensions><gpxtpx:TrackPointExtension><gpxtpx:atemp>3.1</gpxtpx:atemp></gpxtpx:TrackPointExtension></extensions></trkpt><trkpt lat="42.1785605326" lon="13.3926521614"><ele>2102.25</ele><time>2026-03-11T14:02:42Z</time><extensions><gpxtpx:TrackPointExtension><gpxtpx:atemp>3.1</gpxtpx:atemp></gpxtpx:TrackPointExtension></extensions></trkpt><trkpt lat="42.1785541624" lon="13.3926459588"><ele>2102.24</ele><time>2026-03-11T14:02:43Z</time><extensions><gpxtpx:TrackPointExtension><gpxtpx:atemp>3.1</gpxtpx:atemp></gpxtpx:TrackPointExtension></extensions></trkpt><trkpt lat="42.1785486303" lon="13.3926374931"><ele>2102.23</ele><time>2026-03-11T14:02:44Z</time><extensions><gpxtpx:TrackPointExtension><gpxtpx:atemp>3.1</gpxtpx:atemp></gpxtpx:TrackPointExtension></extensions></trkpt><trkpt lat="42.1785435174" lon="13.3926292788"><ele>2102.23</ele><time>2026-03-11T14:02:45Z</time><extensions><gpxtpx:TrackPointExtension><gpxtpx:atemp>3.1</gpxtpx:atemp></gpxtpx:TrackPointExtension></extensions></trkpt><trkpt lat="42.1785398293" lon="13.3926209807"><ele>2102.23</ele><time>2026-03-11T14:02:46Z</time><extensions><gpxtpx:TrackPointExtension><gpxtpx:atemp>3.1</gpxtpx:atemp></gpxtpx:TrackPointExtension></extensions></trkpt><trkpt lat="42.1785375662" lon="13.3926107548"><ele>2102.23</ele><time>2026-03-11T14:02:47Z</time><extensions><gpxtpx:TrackPointExtension><gpxtpx:atemp>3.1</gpxtpx:atemp></gpxtpx:TrackPointExtension></extensions></trkpt><trkpt lat="42.1785356384" lon="13.3925991878"><ele>2102.25</ele><time>2026-03-11T14:02:48Z</time><extensions><gpxtpx:TrackPointExtension><gpxtpx:atemp>3.1</gpxtpx:atemp></gpxtpx:TrackPointExtension></extensions></trkpt><trkpt lat="42.1785334591" lon="13.3925878722"><ele>2102.27</ele><time>2026-03-11T14:02:49Z</time><extensions><gpxtpx:TrackPointExtension><gpxtpx:atemp>3.1</gpxtpx:atemp></gpxtpx:TrackPointExtension></extensions></trkpt><trkpt lat="42.1785299387" lon="13.3925776463"><ele>2102.32</ele><time>2026-03-11T14:02:50Z</time><extensions><gpxtpx:TrackPointExtension><gpxtpx:atemp>3.1</gpxtpx:atemp></gpxtpx:TrackPointExtension></extensions></trkpt><trkpt lat="42.1785248257" lon="13.3925656602"><ele>2102.34</ele><time>2026-03-11T14:02:51Z</time><extensions><gpxtpx:TrackPointExtension><gpxtpx:atemp>3.1</gpxtpx:atemp></gpxtpx:TrackPointExtension></extensions></trkpt><trkpt lat="42.1785155218" lon="13.3925507404"><ele>2102.35</ele><time>2026-03-11T14:02:52Z</time><extensions><gpxtpx:TrackPointExtension><gpxtpx:atemp>3.1</gpxtpx:atemp></gpxtpx:TrackPointExtension></extensions></trkpt><trkpt lat="42.1784963273" lon="13.3925515786"><ele>2102.37</ele><time>2026-03-11T14:02:53Z</time><extensions><gpxtpx:TrackPointExtension><gpxtpx:atemp>3.1</gpxtpx:atemp></gpxtpx:TrackPointExtension></extensions></trkpt><trkpt lat="42.1784726903" lon="13.3925612178"><ele>2102.40</ele><time>2026-03-11T14:02:54Z</time><extensions><gpxtpx:TrackPointExtension><gpxtpx:atemp>3.1</gpxtpx:atemp></gpxtpx:TrackPointExtension></extensions></trkpt><trkpt lat="42.1784464549" lon="13.3925805800"><ele>2102.44</ele><time>2026-03-11T14:02:55Z</time><extensions><gpxtpx:TrackPointExtension><gpxtpx:atemp>3.1</gpxtpx:atemp></gpxtpx:TrackPointExtension></extensions></trkpt><trkpt lat="42.1784230694" lon="13.3925894648"><ele>2102.49</ele><time>2026-03-11T14:02:56Z</time><extensions><gpxtpx:TrackPointExtension><gpxtpx:atemp>3.1</gpxtpx:atemp></gpxtpx:TrackPointExtension></extensions></trkpt><trkpt lat="42.1784004383" lon="13.3925957512"><ele>2102.54</ele><time>2026-03-11T14:02:57Z</time><extensions><gpxtpx:TrackPointExtension><gpxtpx:atemp>3.1</gpxtpx:atemp></gpxtpx:TrackPointExtension></extensions></trkpt><trkpt lat="42.1783830877" lon="13.3925938234"><ele>2102.55</ele><time>2026-03-11T14:02:58Z</time><extensions><gpxtpx:TrackPointExtension><gpxtpx:atemp>3.1</gpxtpx:atemp></gpxtpx:TrackPointExtension></extensions></trkpt><trkpt lat="42.1783714369" lon="13.3925754670"><ele>2102.58</ele><time>2026-03-11T14:02:59Z</time><extensions><gpxtpx:TrackPointExtension><gpxtpx:atemp>3.1</gpxtpx:atemp></gpxtpx:TrackPointExtension></extensions></trkpt><trkpt lat="42.1783654857" lon="13.3925480582"><ele>2102.63</ele><time>2026-03-11T14:03:00Z</time><extensions><gpxtpx:TrackPointExtension><gpxtpx:atemp>3.1</gpxtpx:atemp></gpxtpx:TrackPointExtension></extensions></trkpt><trkpt lat="42.1783722751" lon="13.3925135247"><ele>2102.70</ele><time>2026-03-11T14:03:01Z</time><extensions><gpxtpx:TrackPointExtension><gpxtpx:atemp>3.1</gpxtpx:atemp></gpxtpx:TrackPointExtension></extensions></trkpt><trkpt lat="42.1783762984" lon="13.3924890496"><ele>2102.73</ele><time>2026-03-11T14:03:02Z</time><extensions><gpxtpx:TrackPointExtension><gpxtpx:atemp>3.1</gpxtpx:atemp></gpxtpx:TrackPointExtension></extensions></trkpt><trkpt lat="42.1783842612" lon="13.3924714476"><ele>2102.75</ele><time>2026-03-11T14:03:03Z</time><extensions><gpxtpx:TrackPointExtension><gpxtpx:atemp>3.1</gpxtpx:atemp></gpxtpx:TrackPointExtension></extensions></trkpt><trkpt lat="42.1783785615" lon="13.3924693521"><ele>2102.76</ele><time>2026-03-11T14:03:04Z</time><extensions><gpxtpx:TrackPointExtension><gpxtpx:atemp>3.1</gpxtpx:atemp></gpxtpx:TrackPointExtension></extensions></trkpt><trkpt lat="42.1783750411" lon="13.3924731240"><ele>2102.76</ele><time>2026-03-11T14:03:05Z</time><extensions><gpxtpx:TrackPointExtension><gpxtpx:atemp>3.1</gpxtpx:atemp></gpxtpx:TrackPointExtension></extensions></trkpt><trkpt lat="42.1783703472" lon="13.3924766444"><ele>2102.70</ele><time>2026-03-11T14:03:06Z</time><extensions><gpxtpx:TrackPointExtension><gpxtpx:atemp>3.1</gpxtpx:atemp></gpxtpx:TrackPointExtension></extensions></trkpt><trkpt lat="42.1783654857" lon="13.3924764767"><ele>2102.58</ele><time>2026-03-11T14:03:07Z</time><extensions><gpxtpx:TrackPointExtension><gpxtpx:atemp>3.1</gpxtpx:atemp></gpxtpx:TrackPointExtension></extensions></trkpt><trkpt lat="42.1783582773" lon="13.3924759738"><ele>2102.52</ele><time>2026-03-11T14:03:08Z</time><extensions><gpxtpx:TrackPointExtension><gpxtpx:atemp>3.1</gpxtpx:atemp></gpxtpx:TrackPointExtension></extensions></trkpt><trkpt lat="42.1783448663" lon="13.3924718667"><ele>2102.48</ele><time>2026-03-11T14:03:09Z</time><extensions><gpxtpx:TrackPointExtension><gpxtpx:atemp>3.1</gpxtpx:atemp></gpxtpx:TrackPointExtension></extensions></trkpt><trkpt lat="42.1783314552" lon="13.3924624790"><ele>2102.41</ele><time>2026-03-11T14:03:10Z</time><extensions><gpxtpx:TrackPointExtension><gpxtpx:atemp>3.1</gpxtpx:atemp></gpxtpx:TrackPointExtension></extensions></trkpt><trkpt lat="42.1783190500" lon="13.3924508281"><ele>2102.38</ele><time>2026-03-11T14:03:11Z</time><extensions><gpxtpx:TrackPointExtension><gpxtpx:atemp>3.1</gpxtpx:atemp></gpxtpx:TrackPointExtension></extensions></trkpt><trkpt lat="42.1783042978" lon="13.3924420271"><ele>2102.39</ele><time>2026-03-11T14:03:12Z</time><extensions><gpxtpx:TrackPointExtension><gpxtpx:atemp>3.1</gpxtpx:atemp></gpxtpx:TrackPointExtension></extensions></trkpt><trkpt lat="42.1782867797" lon="13.3924354892"><ele>2102.40</ele><time>2026-03-11T14:03:13Z</time><extensions><gpxtpx:TrackPointExtension><gpxtpx:atemp>3.1</gpxtpx:atemp></gpxtpx:TrackPointExtension></extensions></trkpt><trkpt lat="42.1782679204" lon="13.3924271911"><ele>2102.40</ele><time>2026-03-11T14:03:14Z</time><extensions><gpxtpx:TrackPointExtension><gpxtpx:atemp>3.1</gpxtpx:atemp></gpxtpx:TrackPointExtension></extensions></trkpt><trkpt lat="42.1782495640" lon="13.3924194798"><ele>2102.40</ele><time>2026-03-11T14:03:15Z</time><extensions><gpxtpx:TrackPointExtension><gpxtpx:atemp>3.1</gpxtpx:atemp></gpxtpx:TrackPointExtension></extensions></trkpt><trkpt lat="42.1782199759" lon="13.3924230840"><ele>2102.40</ele><time>2026-03-11T14:03:16Z</time><extensions><gpxtpx:TrackPointExtension><gpxtpx:atemp>3.1</gpxtpx:atemp></gpxtpx:TrackPointExtension></extensions></trkpt><trkpt lat="42.1781901363" lon="13.3924277779"><ele>2102.42</ele><time>2026-03-11T14:03:17Z</time><extensions><gpxtpx:TrackPointExtension><gpxtpx:atemp>3.1</gpxtpx:atemp></gpxtpx:TrackPointExtension></extensions></trkpt><trkpt lat="42.1781594586" lon="13.3924336452"><ele>2102.43</ele><time>2026-03-11T14:03:18Z</time><extensions><gpxtpx:TrackPointExtension><gpxtpx:atemp>3.1</gpxtpx:atemp></gpxtpx:TrackPointExtension></extensions></trkpt><trkpt lat="42.1781379171" lon="13.3924318850"><ele>2102.41</ele><time>2026-03-11T14:03:19Z</time><extensions><gpxtpx:TrackPointExtension><gpxtpx:atemp>3.1</gpxtpx:atemp></gpxtpx:TrackPointExtension></extensions></trkpt><trkpt lat="42.1781162918" lon="13.3924416918"><ele>2102.41</ele><time>2026-03-11T14:03:20Z</time><extensions><gpxtpx:TrackPointExtension><gpxtpx:atemp>3.1</gpxtpx:atemp></gpxtpx:TrackPointExtension></extensions></trkpt><trkpt lat="42.1780949179" lon="13.3924509957"><ele>2102.41</ele><time>2026-03-11T14:03:21Z</time><extensions><gpxtpx:TrackPointExtension><gpxtpx:atemp>3.1</gpxtpx:atemp></gpxtpx:TrackPointExtension></extensions></trkpt><trkpt lat="42.1780755557" lon="13.3924567793"><ele>2102.38</ele><time>2026-03-11T14:03:22Z</time><extensions><gpxtpx:TrackPointExtension><gpxtpx:atemp>3.1</gpxtpx:atemp></gpxtpx:TrackPointExtension></extensions></trkpt><trkpt lat="42.1780609712" lon="13.3924476430"><ele>2102.37</ele><time>2026-03-11T14:03:23Z</time><extensions><gpxtpx:TrackPointExtension><gpxtpx:atemp>3.1</gpxtpx:atemp></gpxtpx:TrackPointExtension></extensions></trkpt><trkpt lat="42.1780345682" lon="13.3924480621"><ele>2102.34</ele><time>2026-03-11T14:03:24Z</time><extensions><gpxtpx:TrackPointExtension><gpxtpx:atemp>3.1</gpxtpx:atemp></gpxtpx:TrackPointExtension></extensions></trkpt><trkpt lat="42.1780064888" lon="13.3924517501"><ele>2102.35</ele><time>2026-03-11T14:03:25Z</time><extensions><gpxtpx:TrackPointExtension><gpxtpx:atemp>3.1</gpxtpx:atemp></gpxtpx:TrackPointExtension></extensions></trkpt><trkpt lat="42.1779826842" lon="13.3924503252"><ele>2102.38</ele><time>2026-03-11T14:03:26Z</time><extensions><gpxtpx:TrackPointExtension><gpxtpx:atemp>3.1</gpxtpx:atemp></gpxtpx:TrackPointExtension></extensions></trkpt><trkpt lat="42.1779632382" lon="13.3924500737"><ele>2102.46</ele><time>2026-03-11T14:03:27Z</time><extensions><gpxtpx:TrackPointExtension><gpxtpx:atemp>3.1</gpxtpx:atemp></gpxtpx:TrackPointExtension></extensions></trkpt><trkpt lat="42.1779443789" lon="13.3924498223"><ele>2102.55</ele><time>2026-03-11T14:03:28Z</time><extensions><gpxtpx:TrackPointExtension><gpxtpx:atemp>3.1</gpxtpx:atemp></gpxtpx:TrackPointExtension></extensions></trkpt><trkpt lat="42.1779252682" lon="13.3924495708"><ele>2102.62</ele><time>2026-03-11T14:03:29Z</time><extensions><gpxtpx:TrackPointExtension><gpxtpx:atemp>3.1</gpxtpx:atemp></gpxtpx:TrackPointExtension></extensions></trkpt><trkpt lat="42.1779061574" lon="13.3924494032"><ele>2102.66</ele><time>2026-03-11T14:03:30Z</time><extensions><gpxtpx:TrackPointExtension><gpxtpx:atemp>3.1</gpxtpx:atemp></gpxtpx:TrackPointExtension></extensions></trkpt><trkpt lat="42.1778870467" lon="13.3924491517"><ele>2102.68</ele><time>2026-03-11T14:03:31Z</time><extensions><gpxtpx:TrackPointExtension><gpxtpx:atemp>3.1</gpxtpx:atemp></gpxtpx:TrackPointExtension></extensions></trkpt><trkpt lat="42.1778686065" lon="13.3924489003"><ele>2102.69</ele><time>2026-03-11T14:03:32Z</time><extensions><gpxtpx:TrackPointExtension><gpxtpx:atemp>3.0</gpxtpx:atemp></gpxtpx:TrackPointExtension></extensions></trkpt><trkpt lat="42.1778492443" lon="13.3924487326"><ele>2102.70</ele><time>2026-03-11T14:03:33Z</time><extensions><gpxtpx:TrackPointExtension><gpxtpx:atemp>3.0</gpxtpx:atemp></gpxtpx:TrackPointExtension></extensions></trkpt><trkpt lat="42.1778327320" lon="13.3924484812"><ele>2102.70</ele><time>2026-03-11T14:03:34Z</time><extensions><gpxtpx:TrackPointExtension><gpxtpx:atemp>3.0</gpxtpx:atemp></gpxtpx:TrackPointExtension></extensions></trkpt><trkpt lat="42.1778138727" lon="13.3924483135"><ele>2102.72</ele><time>2026-03-11T14:03:35Z</time><extensions><gpxtpx:TrackPointExtension><gpxtpx:atemp>3.0</gpxtpx:atemp></gpxtpx:TrackPointExtension></extensions></trkpt><trkpt lat="42.1777945943" lon="13.3924480621"><ele>2102.73</ele><time>2026-03-11T14:03:36Z</time><extensions><gpxtpx:TrackPointExtension><gpxtpx:atemp>3.0</gpxtpx:atemp></gpxtpx:TrackPointExtension></extensions></trkpt><trkpt lat="42.1777755674" lon="13.3924478106"><ele>2102.77</ele><time>2026-03-11T14:03:37Z</time><extensions><gpxtpx:TrackPointExtension><gpxtpx:atemp>3.0</gpxtpx:atemp></gpxtpx:TrackPointExtension></extensions></trkpt><trkpt lat="42.1777551994" lon="13.3924475592"><ele>2102.79</ele><time>2026-03-11T14:03:38Z</time><extensions><gpxtpx:TrackPointExtension><gpxtpx:atemp>3.0</gpxtpx:atemp></gpxtpx:TrackPointExtension></extensions></trkpt><trkpt lat="42.1777374297" lon="13.3924473915"><ele>2102.80</ele><time>2026-03-11T14:03:39Z</time><extensions><gpxtpx:TrackPointExtension><gpxtpx:atemp>3.0</gpxtpx:atemp></gpxtpx:TrackPointExtension></extensions></trkpt><trkpt lat="42.1777184028" lon="13.3924471401"><ele>2102.82</ele><time>2026-03-11T14:03:40Z</time><extensions><gpxtpx:TrackPointExtension><gpxtpx:atemp>3.0</gpxtpx:atemp></gpxtpx:TrackPointExtension></extensions></trkpt><trkpt lat="42.1776992921" lon="13.3924468886"><ele>2102.82</ele><time>2026-03-11T14:03:41Z</time><extensions><gpxtpx:TrackPointExtension><gpxtpx:atemp>3.0</gpxtpx:atemp></gpxtpx:TrackPointExtension></extensions></trkpt><trkpt lat="42.1776802652" lon="13.3924467210"><ele>2102.82</ele><time>2026-03-11T14:03:42Z</time><extensions><gpxtpx:TrackPointExtension><gpxtpx:atemp>3.0</gpxtpx:atemp></gpxtpx:TrackPointExtension></extensions></trkpt><trkpt lat="42.1776612382" lon="13.3924464695"><ele>2102.83</ele><time>2026-03-11T14:03:43Z</time><extensions><gpxtpx:TrackPointExtension><gpxtpx:atemp>3.0</gpxtpx:atemp></gpxtpx:TrackPointExtension></extensions></trkpt><trkpt lat="42.1776421275" lon="13.3924462181"><ele>2102.84</ele><time>2026-03-11T14:03:44Z</time><extensions><gpxtpx:TrackPointExtension><gpxtpx:atemp>3.0</gpxtpx:atemp></gpxtpx:TrackPointExtension></extensions></trkpt><trkpt lat="42.1776230168" lon="13.3924460504"><ele>2102.84</ele><time>2026-03-11T14:03:45Z</time><extensions><gpxtpx:TrackPointExtension><gpxtpx:atemp>3.0</gpxtpx:atemp></gpxtpx:TrackPointExtension></extensions></trkpt><trkpt lat="42.1776040737" lon="13.3924457990"><ele>2102.86</ele><time>2026-03-11T14:03:46Z</time><extensions><gpxtpx:TrackPointExtension><gpxtpx:atemp>3.0</gpxtpx:atemp></gpxtpx:TrackPointExtension></extensions></trkpt><trkpt lat="42.1775849629" lon="13.3924455475"><ele>2102.87</ele><time>2026-03-11T14:03:47Z</time><extensions><gpxtpx:TrackPointExtension><gpxtpx:atemp>3.0</gpxtpx:atemp></gpxtpx:TrackPointExtension></extensions></trkpt><trkpt lat="42.1775653493" lon="13.3924453799"><ele>2102.90</ele><time>2026-03-11T14:03:48Z</time><extensions><gpxtpx:TrackPointExtension><gpxtpx:atemp>3.0</gpxtpx:atemp></gpxtpx:TrackPointExtension></extensions></trkpt><trkpt lat="42.1775468253" lon="13.3924451284"><ele>2102.92</ele><time>2026-03-11T14:03:49Z</time><extensions><gpxtpx:TrackPointExtension><gpxtpx:atemp>3.0</gpxtpx:atemp></gpxtpx:TrackPointExtension></extensions></trkpt><trkpt lat="42.1775277983" lon="13.3924448770"><ele>2102.97</ele><time>2026-03-11T14:03:50Z</time><extensions><gpxtpx:TrackPointExtension><gpxtpx:atemp>3.0</gpxtpx:atemp></gpxtpx:TrackPointExtension></extensions></trkpt><trkpt lat="42.1775086876" lon="13.3924447093"><ele>2103.02</ele><time>2026-03-11T14:03:51Z</time><extensions><gpxtpx:TrackPointExtension><gpxtpx:atemp>3.0</gpxtpx:atemp></gpxtpx:TrackPointExtension></extensions></trkpt><trkpt lat="42.1774896607" lon="13.3924444579"><ele>2103.07</ele><time>2026-03-11T14:03:52Z</time><extensions><gpxtpx:TrackPointExtension><gpxtpx:atemp>3.0</gpxtpx:atemp></gpxtpx:TrackPointExtension></extensions></trkpt><trkpt lat="42.1774706338" lon="13.3924442064"><ele>2103.10</ele><time>2026-03-11T14:03:53Z</time><extensions><gpxtpx:TrackPointExtension><gpxtpx:atemp>3.0</gpxtpx:atemp></gpxtpx:TrackPointExtension></extensions></trkpt><trkpt lat="42.1774516068" lon="13.3924439549"><ele>2103.12</ele><time>2026-03-11T14:03:54Z</time><extensions><gpxtpx:TrackPointExtension><gpxtpx:atemp>3.0</gpxtpx:atemp></gpxtpx:TrackPointExtension></extensions></trkpt><trkpt lat="42.1774324961" lon="13.3924437873"><ele>2103.16</ele><time>2026-03-11T14:03:55Z</time><extensions><gpxtpx:TrackPointExtension><gpxtpx:atemp>3.0</gpxtpx:atemp></gpxtpx:TrackPointExtension></extensions></trkpt><trkpt lat="42.1774132177" lon="13.3924435358"><ele>2103.19</ele><time>2026-03-11T14:03:56Z</time><extensions><gpxtpx:TrackPointExtension><gpxtpx:atemp>3.0</gpxtpx:atemp></gpxtpx:TrackPointExtension></extensions></trkpt></trkseg><trkseg><trkpt lat="42.1773940232" lon="13.3924432844"><ele>2103.23</ele><time>2026-03-11T14:03:57Z</time><extensions><gpxtpx:TrackPointExtension><gpxtpx:atemp>3.0</gpxtpx:atemp></gpxtpx:TrackPointExtension></extensions></trkpt></trkseg><trkseg><trkpt lat="42.1773940232" lon="13.3924432844"><ele>2103.24</ele><time>2026-03-11T14:03:58Z</time><extensions><gpxtpx:TrackPointExtension><gpxtpx:atemp>3.0</gpxtpx:atemp></gpxtpx:TrackPointExtension></extensions></trkpt></trkseg><trkseg><trkpt lat="42.1773940232" lon="13.3924432844"><ele>2103.25</ele><time>2026-03-11T14:03:59Z</time><extensions><gpxtpx:TrackPointExtension><gpxtpx:atemp>3.0</gpxtpx:atemp></gpxtpx:TrackPointExtension></extensions></trkpt></trkseg><trkseg><trkpt lat="42.1773940232" lon="13.3924432844"><ele>2103.25</ele><time>2026-03-11T14:04:00Z</time><extensions><gpxtpx:TrackPointExtension><gpxtpx:atemp>3.0</gpxtpx:atemp></gpxtpx:TrackPointExtension></extensions></trkpt></trkseg><trkseg><trkpt lat="42.1773940232" lon="13.3924432844"><ele>2103.25</ele><time>2026-03-11T14:04:01Z</time><extensions><gpxtpx:TrackPointExtension><gpxtpx:atemp>3.0</gpxtpx:atemp></gpxtpx:TrackPointExtension></extensions></trkpt></trkseg><trkseg><trkpt lat="42.1773940232" lon="13.3924432844"><ele>2103.25</ele><time>2026-03-11T14:04:02Z</time><extensions><gpxtpx:TrackPointExtension><gpxtpx:atemp>3.0</gpxtpx:atemp></gpxtpx:TrackPointExtension></extensions></trkpt></trkseg><trkseg><trkpt lat="42.1773940232" lon="13.3924432844"><ele>2103.25</ele><time>2026-03-11T14:04:03Z</time><extensions><gpxtpx:TrackPointExtension><gpxtpx:atemp>3.0</gpxtpx:atemp></gpxtpx:TrackPointExtension></extensions></trkpt></trkseg><trkseg><trkpt lat="42.1773940232" lon="13.3924432844"><ele>2103.21</ele><time>2026-03-11T14:04:04Z</time><extensions><gpxtpx:TrackPointExtension><gpxtpx:atemp>3.0</gpxtpx:atemp></gpxtpx:TrackPointExtension></extensions></trkpt></trkseg><trkseg><trkpt lat="42.1773940232" lon="13.3924432844"><ele>2103.21</ele><time>2026-03-11T14:04:05Z</time><extensions><gpxtpx:TrackPointExtension><gpxtpx:atemp>3.0</gpxtpx:atemp></gpxtpx:TrackPointExtension></extensions></trkpt></trkseg><trkseg><trkpt lat="42.1773940232" lon="13.3924432844"><ele>2103.24</ele><time>2026-03-11T14:04:06Z</time><extensions><gpxtpx:TrackPointExtension><gpxtpx:atemp>3.0</gpxtpx:atemp></gpxtpx:TrackPointExtension></extensions></trkpt></trkseg><trkseg><trkpt lat="42.1773940232" lon="13.3924432844"><ele>2103.24</ele><time>2026-03-11T14:04:07Z</time><extensions><gpxtpx:TrackPointExtension><gpxtpx:atemp>3.0</gpxtpx:atemp></gpxtpx:TrackPointExtension></extensions></trkpt></trkseg><trkseg><trkpt lat="42.1773940232" lon="13.3924432844"><ele>2103.24</ele><time>2026-03-11T14:04:08Z</time><extensions><gpxtpx:TrackPointExtension><gpxtpx:atemp>3.0</gpxtpx:atemp></gpxtpx:TrackPointExtension></extensions></trkpt></trkseg><trkseg><trkpt lat="42.1773940232" lon="13.3924432844"><ele>2103.20</ele><time>2026-03-11T14:04:09Z</time><extensions><gpxtpx:TrackPointExtension><gpxtpx:atemp>3.0</gpxtpx:atemp></gpxtpx:TrackPointExtension></extensions></trkpt></trkseg><trkseg><trkpt lat="42.1773940232" lon="13.3924432844"><ele>2103.18</ele><time>2026-03-11T14:04:10Z</time><extensions><gpxtpx:TrackPointExtension><gpxtpx:atemp>3.0</gpxtpx:atemp></gpxtpx:TrackPointExtension></extensions></trkpt></trkseg><trkseg><trkpt lat="42.1773940232" lon="13.3924432844"><ele>2103.12</ele><time>2026-03-11T14:04:11Z</time><extensions><gpxtpx:TrackPointExtension><gpxtpx:atemp>3.0</gpxtpx:atemp></gpxtpx:TrackPointExtension></extensions></trkpt></trkseg><trkseg><trkpt lat="42.1773940232" lon="13.3924432844"><ele>2103.10</ele><time>2026-03-11T14:04:12Z</time><extensions><gpxtpx:TrackPointExtension><gpxtpx:atemp>3.0</gpxtpx:atemp></gpxtpx:TrackPointExtension></extensions></trkpt></trkseg><trkseg><trkpt lat="42.1773940232" lon="13.3924432844"><ele>2103.06</ele><time>2026-03-11T14:04:13Z</time><extensions><gpxtpx:TrackPointExtension><gpxtpx:atemp>3.0</gpxtpx:atemp></gpxtpx:TrackPointExtension></extensions></trkpt></trkseg><trkseg><trkpt lat="42.1773940232" lon="13.3924432844"><ele>2103.01</ele><time>2026-03-11T14:04:14Z</time><extensions><gpxtpx:TrackPointExtension><gpxtpx:atemp>3.0</gpxtpx:atemp></gpxtpx:TrackPointExtension></extensions></trkpt></trkseg><trkseg><trkpt lat="42.1773940232" lon="13.3924432844"><ele>2102.97</ele><time>2026-03-11T14:04:15Z</time><extensions><gpxtpx:TrackPointExtension><gpxtpx:atemp>3.0</gpxtpx:atemp></gpxtpx:TrackPointExtension></extensions></trkpt></trkseg><trkseg><trkpt lat="42.1773940232" lon="13.3924432844"><ele>2102.96</ele><time>2026-03-11T14:04:16Z</time><extensions><gpxtpx:TrackPointExtension><gpxtpx:atemp>3.0</gpxtpx:atemp></gpxtpx:TrackPointExtension></extensions></trkpt></trkseg><trkseg><trkpt lat="42.1773940232" lon="13.3924432844"><ele>2102.97</ele><time>2026-03-11T14:04:17Z</time><extensions><gpxtpx:TrackPointExtension><gpxtpx:atemp>3.0</gpxtpx:atemp></gpxtpx:TrackPointExtension></extensions></trkpt></trkseg><trkseg><trkpt lat="42.1773940232" lon="13.3924432844"><ele>2102.97</ele><time>2026-03-11T14:04:18Z</time><extensions><gpxtpx:TrackPointExtension><gpxtpx:atemp>3.0</gpxtpx:atemp></gpxtpx:TrackPointExtension></extensions></trkpt></trkseg><trkseg><trkpt lat="42.1773940232" lon="13.3924432844"><ele>2102.97</ele><time>2026-03-11T14:04:19Z</time><extensions><gpxtpx:TrackPointExtension><gpxtpx:atemp>3.0</gpxtpx:atemp></gpxtpx:TrackPointExtension></extensions></trkpt></trkseg><trkseg><trkpt lat="42.1773940232" lon="13.3924432844"><ele>2102.97</ele><time>2026-03-11T14:04:20Z</time><extensions><gpxtpx:TrackPointExtension><gpxtpx:atemp>3.0</gpxtpx:atemp></gpxtpx:TrackPointExtension></extensions></trkpt></trkseg><trkseg><trkpt lat="42.1773940232" lon="13.3924432844"><ele>2103.00</ele><time>2026-03-11T14:04:21Z</time><extensions><gpxtpx:TrackPointExtension><gpxtpx:atemp>3.0</gpxtpx:atemp></gpxtpx:TrackPointExtension></extensions></trkpt></trkseg><trkseg><trkpt lat="42.1773940232" lon="13.3924432844"><ele>2103.07</ele><time>2026-03-11T14:04:22Z</time><extensions><gpxtpx:TrackPointExtension><gpxtpx:atemp>3.0</gpxtpx:atemp></gpxtpx:TrackPointExtension></extensions></trkpt></trkseg><trkseg><trkpt lat="42.1773940232" lon="13.3924432844"><ele>2103.20</ele><time>2026-03-11T14:04:23Z</time><extensions><gpxtpx:TrackPointExtension><gpxtpx:atemp>3.0</gpxtpx:atemp></gpxtpx:TrackPointExtension></extensions></trkpt></trkseg><trkseg><trkpt lat="42.1773940232" lon="13.3924432844"><ele>2103.26</ele><time>2026-03-11T14:04:24Z</time><extensions><gpxtpx:TrackPointExtension><gpxtpx:atemp>3.0</gpxtpx:atemp></gpxtpx:TrackPointExtension></extensions></trkpt></trkseg><trkseg><trkpt lat="42.1773940232" lon="13.3924432844"><ele>2103.31</ele><time>2026-03-11T14:04:25Z</time><extensions><gpxtpx:TrackPointExtension><gpxtpx:atemp>3.0</gpxtpx:atemp></gpxtpx:TrackPointExtension></extensions></trkpt></trkseg><trkseg><trkpt lat="42.1773940232" lon="13.3924432844"><ele>2103.32</ele><time>2026-03-11T14:04:26Z</time><extensions><gpxtpx:TrackPointExtension><gpxtpx:atemp>3.0</gpxtpx:atemp></gpxtpx:TrackPointExtension></extensions></trkpt></trkseg><trkseg><trkpt lat="42.1773940232" lon="13.3924432844"><ele>2103.34</ele><time>2026-03-11T14:04:27Z</time><extensions><gpxtpx:TrackPointExtension><gpxtpx:atemp>3.0</gpxtpx:atemp></gpxtpx:TrackPointExtension></extensions></trkpt></trkseg><trkseg><trkpt lat="42.1773940232" lon="13.3924432844"><ele>2103.37</ele><time>2026-03-11T14:04:28Z</time><extensions><gpxtpx:TrackPointExtension><gpxtpx:atemp>3.0</gpxtpx:atemp></gpxtpx:TrackPointExtension></extensions></trkpt></trkseg><trkseg><trkpt lat="42.1773940232" lon="13.3924432844"><ele>2103.38</ele><time>2026-03-11T14:04:29Z</time><extensions><gpxtpx:TrackPointExtension><gpxtpx:atemp>3.0</gpxtpx:atemp></gpxtpx:TrackPointExtension></extensions></trkpt></trkseg><trkseg><trkpt lat="42.1773940232" lon="13.3924432844"><ele>2103.35</ele><time>2026-03-11T14:04:30Z</time><extensions><gpxtpx:TrackPointExtension><gpxtpx:atemp>3.0</gpxtpx:atemp></gpxtpx:TrackPointExtension></extensions></trkpt></trkseg><trkseg><trkpt lat="42.1773940232" lon="13.3924432844"><ele>2103.35</ele><time>2026-03-11T14:04:31Z</time><extensions><gpxtpx:TrackPointExtension><gpxtpx:atemp>3.0</gpxtpx:atemp></gpxtpx:TrackPointExtension></extensions></trkpt></trkseg><trkseg><trkpt lat="42.1773940232" lon="13.3924432844"><ele>2103.35</ele><time>2026-03-11T14:04:32Z</time><extensions><gpxtpx:TrackPointExtension><gpxtpx:atemp>3.0</gpxtpx:atemp></gpxtpx:TrackPointExtension></extensions></trkpt></trkseg><trkseg><trkpt lat="42.1773940232" lon="13.3924432844"><ele>2103.36</ele><time>2026-03-11T14:04:33Z</time><extensions><gpxtpx:TrackPointExtension><gpxtpx:atemp>3.0</gpxtpx:atemp></gpxtpx:TrackPointExtension></extensions></trkpt></trkseg><trkseg><trkpt lat="42.1773940232" lon="13.3924432844"><ele>2103.30</ele><time>2026-03-11T14:04:34Z</time><extensions><gpxtpx:TrackPointExtension><gpxtpx:atemp>3.0</gpxtpx:atemp></gpxtpx:TrackPointExtension></extensions></trkpt></trkseg><trkseg><trkpt lat="42.1773940232" lon="13.3924432844"><ele>2103.35</ele><time>2026-03-11T14:04:35Z</time><extensions><gpxtpx:TrackPointExtension><gpxtpx:atemp>3.0</gpxtpx:atemp></gpxtpx:TrackPointExtension></extensions></trkpt></trkseg><trkseg><trkpt lat="42.1773940232" lon="13.3924432844"><ele>2103.51</ele><time>2026-03-11T14:04:36Z</time><extensions><gpxtpx:TrackPointExtension><gpxtpx:atemp>3.0</gpxtpx:atemp></gpxtpx:TrackPointExtension></extensions></trkpt></trkseg><trkseg><trkpt lat="42.1773940232" lon="13.3924432844"><ele>2103.80</ele><time>2026-03-11T14:04:37Z</time><extensions><gpxtpx:TrackPointExtension><gpxtpx:atemp>3.0</gpxtpx:atemp></gpxtpx:TrackPointExtension></extensions></trkpt></trkseg><trkseg><trkpt lat="42.1773940232" lon="13.3924432844"><ele>2103.92</ele><time>2026-03-11T14:04:38Z</time><extensions><gpxtpx:TrackPointExtension><gpxtpx:atemp>3.0</gpxtpx:atemp></gpxtpx:TrackPointExtension></extensions></trkpt></trkseg><trkseg><trkpt lat="42.1773940232" lon="13.3924432844"><ele>2104.01</ele><time>2026-03-11T14:04:39Z</time><extensions><gpxtpx:TrackPointExtension><gpxtpx:atemp>3.0</gpxtpx:atemp></gpxtpx:TrackPointExtension></extensions></trkpt></trkseg><trkseg><trkpt lat="42.1773940232" lon="13.3924432844"><ele>2104.10</ele><time>2026-03-11T14:04:40Z</time><extensions><gpxtpx:TrackPointExtension><gpxtpx:atemp>3.0</gpxtpx:atemp></gpxtpx:TrackPointExtension></extensions></trkpt></trkseg><trkseg><trkpt lat="42.1773940232" lon="13.3924432844"><ele>2104.16</ele><time>2026-03-11T14:04:41Z</time><extensions><gpxtpx:TrackPointExtension><gpxtpx:atemp>3.0</gpxtpx:atemp></gpxtpx:TrackPointExtension></extensions></trkpt></trkseg><trkseg><trkpt lat="42.1773940232" lon="13.3924432844"><ele>2104.20</ele><time>2026-03-11T14:04:42Z</time><extensions><gpxtpx:TrackPointExtension><gpxtpx:atemp>3.0</gpxtpx:atemp></gpxtpx:TrackPointExtension></extensions></trkpt></trkseg><trkseg><trkpt lat="42.1773940232" lon="13.3924432844"><ele>2104.30</ele><time>2026-03-11T14:04:43Z</time><extensions><gpxtpx:TrackPointExtension><gpxtpx:atemp>3.0</gpxtpx:atemp></gpxtpx:TrackPointExtension></extensions></trkpt></trkseg><trkseg><trkpt lat="42.1773940232" lon="13.3924432844"><ele>2104.39</ele><time>2026-03-11T14:04:44Z</time><extensions><gpxtpx:TrackPointExtension><gpxtpx:atemp>3.0</gpxtpx:atemp></gpxtpx:TrackPointExtension></extensions></trkpt></trkseg><trkseg><trkpt lat="42.1773940232" lon="13.3924432844"><ele>2104.46</ele><time>2026-03-11T14:04:45Z</time><extensions><gpxtpx:TrackPointExtension><gpxtpx:atemp>3.0</gpxtpx:atemp></gpxtpx:TrackPointExtension></extensions></trkpt></trkseg><trkseg><trkpt lat="42.1773940232" lon="13.3924432844"><ele>2104.51</ele><time>2026-03-11T14:04:46Z</time><extensions><gpxtpx:TrackPointExtension><gpxtpx:atemp>3.0</gpxtpx:atemp></gpxtpx:TrackPointExtension></extensions></trkpt></trkseg><trkseg><trkpt lat="42.1773940232" lon="13.3924432844"><ele>2104.36</ele><time>2026-03-11T14:04:47Z</time><extensions><gpxtpx:TrackPointExtension><gpxtpx:atemp>3.0</gpxtpx:atemp></gpxtpx:TrackPointExtension></extensions></trkpt></trkseg><trkseg><trkpt lat="42.1773940232" lon="13.3924432844"><ele>2104.13</ele><time>2026-03-11T14:04:48Z</time><extensions><gpxtpx:TrackPointExtension><gpxtpx:atemp>3.0</gpxtpx:atemp></gpxtpx:TrackPointExtension></extensions></trkpt></trkseg><trkseg><trkpt lat="42.1773940232" lon="13.3924432844"><ele>2103.95</ele><time>2026-03-11T14:04:49Z</time><extensions><gpxtpx:TrackPointExtension><gpxtpx:atemp>3.0</gpxtpx:atemp></gpxtpx:TrackPointExtension></extensions></trkpt></trkseg><trkseg><trkpt lat="42.1773940232" lon="13.3924432844"><ele>2103.81</ele><time>2026-03-11T14:04:50Z</time><extensions><gpxtpx:TrackPointExtension><gpxtpx:atemp>3.0</gpxtpx:atemp></gpxtpx:TrackPointExtension></extensions></trkpt></trkseg><trkseg><trkpt lat="42.1773940232" lon="13.3924432844"><ele>2103.68</ele><time>2026-03-11T14:04:51Z</time><extensions><gpxtpx:TrackPointExtension><gpxtpx:atemp>3.0</gpxtpx:atemp></gpxtpx:TrackPointExtension></extensions></trkpt></trkseg><trkseg><trkpt lat="42.1773940232" lon="13.3924432844"><ele>2103.54</ele><time>2026-03-11T14:04:52Z</time><extensions><gpxtpx:TrackPointExtension><gpxtpx:atemp>3.0</gpxtpx:atemp></gpxtpx:TrackPointExtension></extensions></trkpt></trkseg><trkseg><trkpt lat="42.1773940232" lon="13.3924432844"><ele>2103.40</ele><time>2026-03-11T14:04:53Z</time><extensions><gpxtpx:TrackPointExtension><gpxtpx:atemp>3.0</gpxtpx:atemp></gpxtpx:TrackPointExtension></extensions></trkpt></trkseg><trkseg><trkpt lat="42.1773940232" lon="13.3924432844"><ele>2103.30</ele><time>2026-03-11T14:04:54Z</time><extensions><gpxtpx:TrackPointExtension><gpxtpx:atemp>3.0</gpxtpx:atemp></gpxtpx:TrackPointExtension></extensions></trkpt></trkseg><trkseg><trkpt lat="42.1773940232" lon="13.3924432844"><ele>2103.23</ele><time>2026-03-11T14:04:55Z</time><extensions><gpxtpx:TrackPointExtension><gpxtpx:atemp>3.0</gpxtpx:atemp></gpxtpx:TrackPointExtension></extensions></trkpt></trkseg><trkseg><trkpt lat="42.1773940232" lon="13.3924432844"><ele>2103.17</ele><time>2026-03-11T14:04:56Z</time><extensions><gpxtpx:TrackPointExtension><gpxtpx:atemp>3.0</gpxtpx:atemp></gpxtpx:TrackPointExtension></extensions></trkpt></trkseg><trkseg><trkpt lat="42.1773940232" lon="13.3924432844"><ele>2103.12</ele><time>2026-03-11T14:04:57Z</time><extensions><gpxtpx:TrackPointExtension><gpxtpx:atemp>3.0</gpxtpx:atemp></gpxtpx:TrackPointExtension></extensions></trkpt></trkseg><trkseg><trkpt lat="42.1773940232" lon="13.3924432844"><ele>2103.12</ele><time>2026-03-11T14:04:58Z</time><extensions><gpxtpx:TrackPointExtension><gpxtpx:atemp>3.0</gpxtpx:atemp></gpxtpx:TrackPointExtension></extensions></trkpt></trkseg><trkseg><trkpt lat="42.1773940232" lon="13.3924432844"><ele>2103.10</ele><time>2026-03-11T14:04:59Z</time><extensions><gpxtpx:TrackPointExtension><gpxtpx:atemp>3.0</gpxtpx:atemp></gpxtpx:TrackPointExtension></extensions></trkpt></trkseg><trkseg><trkpt lat="42.1773940232" lon="13.3924432844"><ele>2103.07</ele><time>2026-03-11T14:05:00Z</time><extensions><gpxtpx:TrackPointExtension><gpxtpx:atemp>3.0</gpxtpx:atemp></gpxtpx:TrackPointExtension></extensions></trkpt></trkseg><trkseg><trkpt lat="42.1773940232" lon="13.3924432844"><ele>2103.06</ele><time>2026-03-11T14:05:01Z</time><extensions><gpxtpx:TrackPointExtension><gpxtpx:atemp>3.0</gpxtpx:atemp></gpxtpx:TrackPointExtension></extensions></trkpt></trkseg><trkseg><trkpt lat="42.1773940232" lon="13.3924432844"><ele>2103.06</ele><time>2026-03-11T14:05:02Z</time><extensions><gpxtpx:TrackPointExtension><gpxtpx:atemp>3.0</gpxtpx:atemp></gpxtpx:TrackPointExtension></extensions></trkpt></trkseg><trkseg><trkpt lat="42.1773940232" lon="13.3924432844"><ele>2103.06</ele><time>2026-03-11T14:05:03Z</time><extensions><gpxtpx:TrackPointExtension><gpxtpx:atemp>3.0</gpxtpx:atemp></gpxtpx:TrackPointExtension></extensions></trkpt></trkseg><trkseg><trkpt lat="42.1773940232" lon="13.3924432844"><ele>2103.07</ele><time>2026-03-11T14:05:04Z</time><extensions><gpxtpx:TrackPointExtension><gpxtpx:atemp>3.0</gpxtpx:atemp></gpxtpx:TrackPointExtension></extensions></trkpt></trkseg><trkseg><trkpt lat="42.1773940232" lon="13.3924432844"><ele>2103.07</ele><time>2026-03-11T14:05:05Z</time><extensions><gpxtpx:TrackPointExtension><gpxtpx:atemp>3.0</gpxtpx:atemp></gpxtpx:TrackPointExtension></extensions></trkpt></trkseg><trkseg><trkpt lat="42.1773940232" lon="13.3924432844"><ele>2103.07</ele><time>2026-03-11T14:05:06Z</time><extensions><gpxtpx:TrackPointExtension><gpxtpx:atemp>3.0</gpxtpx:atemp></gpxtpx:TrackPointExtension></extensions></trkpt></trkseg><trkseg><trkpt lat="42.1773940232" lon="13.3924432844"><ele>2103.07</ele><time>2026-03-11T14:05:07Z</time><extensions><gpxtpx:TrackPointExtension><gpxtpx:atemp>3.0</gpxtpx:atemp></gpxtpx:TrackPointExtension></extensions></trkpt></trkseg><trkseg><trkpt lat="42.1773940232" lon="13.3924432844"><ele>2102.98</ele><time>2026-03-11T14:05:08Z</time><extensions><gpxtpx:TrackPointExtension><gpxtpx:atemp>3.0</gpxtpx:atemp></gpxtpx:TrackPointExtension></extensions></trkpt></trkseg><trkseg><trkpt lat="42.1773940232" lon="13.3924432844"><ele>2102.96</ele><time>2026-03-11T14:05:09Z</time><extensions><gpxtpx:TrackPointExtension><gpxtpx:atemp>3.0</gpxtpx:atemp></gpxtpx:TrackPointExtension></extensions></trkpt></trkseg><trkseg><trkpt lat="42.1773940232" lon="13.3924432844"><ele>2102.93</ele><time>2026-03-11T14:05:10Z</time><extensions><gpxtpx:TrackPointExtension><gpxtpx:atemp>3.0</gpxtpx:atemp></gpxtpx:TrackPointExtension></extensions></trkpt></trkseg><trkseg><trkpt lat="42.1773940232" lon="13.3924432844"><ele>2102.91</ele><time>2026-03-11T14:05:11Z</time><extensions><gpxtpx:TrackPointExtension><gpxtpx:atemp>3.0</gpxtpx:atemp></gpxtpx:TrackPointExtension></extensions></trkpt></trkseg><trkseg><trkpt lat="42.1773940232" lon="13.3924432844"><ele>2102.88</ele><time>2026-03-11T14:05:12Z</time><extensions><gpxtpx:TrackPointExtension><gpxtpx:atemp>3.0</gpxtpx:atemp></gpxtpx:TrackPointExtension></extensions></trkpt></trkseg><trkseg><trkpt lat="42.1773940232" lon="13.3924432844"><ele>2102.87</ele><time>2026-03-11T14:05:13Z</time><extensions><gpxtpx:TrackPointExtension><gpxtpx:atemp>3.0</gpxtpx:atemp></gpxtpx:TrackPointExtension></extensions></trkpt></trkseg><trkseg><trkpt lat="42.1773940232" lon="13.3924432844"><ele>2102.86</ele><time>2026-03-11T14:05:14Z</time><extensions><gpxtpx:TrackPointExtension><gpxtpx:atemp>3.0</gpxtpx:atemp></gpxtpx:TrackPointExtension></extensions></trkpt></trkseg><trkseg><trkpt lat="42.1773940232" lon="13.3924432844"><ele>2102.86</ele><time>2026-03-11T14:05:15Z</time><extensions><gpxtpx:TrackPointExtension><gpxtpx:atemp>3.0</gpxtpx:atemp></gpxtpx:TrackPointExtension></extensions></trkpt></trkseg><trkseg><trkpt lat="42.1773940232" lon="13.3924432844"><ele>2102.86</ele><time>2026-03-11T14:05:16Z</time><extensions><gpxtpx:TrackPointExtension><gpxtpx:atemp>3.0</gpxtpx:atemp></gpxtpx:TrackPointExtension></extensions></trkpt></trkseg><trkseg><trkpt lat="42.1773940232" lon="13.3924432844"><ele>2102.86</ele><time>2026-03-11T14:05:18Z</time><extensions><gpxtpx:TrackPointExtension><gpxtpx:atemp>3.0</gpxtpx:atemp></gpxtpx:TrackPointExtension></extensions></trkpt></trkseg><trkseg><trkpt lat="42.1773940232" lon="13.3924432844"><ele>2102.88</ele><time>2026-03-11T14:05:19Z</time><extensions><gpxtpx:TrackPointExtension><gpxtpx:atemp>3.0</gpxtpx:atemp></gpxtpx:TrackPointExtension></extensions></trkpt></trkseg><trkseg><trkpt lat="42.1773940232" lon="13.3924432844"><ele>2102.89</ele><time>2026-03-11T14:05:20Z</time><extensions><gpxtpx:TrackPointExtension><gpxtpx:atemp>3.0</gpxtpx:atemp></gpxtpx:TrackPointExtension></extensions></trkpt></trkseg><trkseg><trkpt lat="42.1773940232" lon="13.3924432844"><ele>2102.89</ele><time>2026-03-11T14:05:21Z</time><extensions><gpxtpx:TrackPointExtension><gpxtpx:atemp>3.0</gpxtpx:atemp></gpxtpx:TrackPointExtension></extensions></trkpt></trkseg><trkseg><trkpt lat="42.1773940232" lon="13.3924432844"><ele>2102.89</ele><time>2026-03-11T14:05:22Z</time><extensions><gpxtpx:TrackPointExtension><gpxtpx:atemp>3.0</gpxtpx:atemp></gpxtpx:TrackPointExtension></extensions></trkpt></trkseg><trkseg><trkpt lat="42.1773940232" lon="13.3924432844"><ele>2102.89</ele><time>2026-03-11T14:05:23Z</time><extensions><gpxtpx:TrackPointExtension><gpxtpx:atemp>3.0</gpxtpx:atemp></gpxtpx:TrackPointExtension></extensions></trkpt></trkseg><trkseg><trkpt lat="42.1773940232" lon="13.3924432844"><ele>2102.89</ele><time>2026-03-11T14:05:24Z</time><extensions><gpxtpx:TrackPointExtension><gpxtpx:atemp>3.0</gpxtpx:atemp></gpxtpx:TrackPointExtension></extensions></trkpt></trkseg><trkseg><trkpt lat="42.1773940232" lon="13.3924432844"><ele>2102.86</ele><time>2026-03-11T14:05:25Z</time><extensions><gpxtpx:TrackPointExtension><gpxtpx:atemp>3.0</gpxtpx:atemp></gpxtpx:TrackPointExtension></extensions></trkpt></trkseg><trkseg><trkpt lat="42.1773940232" lon="13.3924432844"><ele>2102.82</ele><time>2026-03-11T14:05:26Z</time><extensions><gpxtpx:TrackPointExtension><gpxtpx:atemp>3.0</gpxtpx:atemp></gpxtpx:TrackPointExtension></extensions></trkpt></trkseg><trkseg><trkpt lat="42.1773940232" lon="13.3924432844"><ele>2102.82</ele><time>2026-03-11T14:05:27Z</time><extensions><gpxtpx:TrackPointExtension><gpxtpx:atemp>3.0</gpxtpx:atemp></gpxtpx:TrackPointExtension></extensions></trkpt></trkseg><trkseg><trkpt lat="42.1773940232" lon="13.3924432844"><ele>2102.82</ele><time>2026-03-11T14:05:29Z</time><extensions><gpxtpx:TrackPointExtension><gpxtpx:atemp>3.0</gpxtpx:atemp></gpxtpx:TrackPointExtension></extensions></trkpt></trkseg><trkseg><trkpt lat="42.1773940232" lon="13.3924432844"><ele>2102.78</ele><time>2026-03-11T14:05:30Z</time><extensions><gpxtpx:TrackPointExtension><gpxtpx:atemp>3.0</gpxtpx:atemp></gpxtpx:TrackPointExtension></extensions></trkpt></trkseg><trkseg><trkpt lat="42.1773940232" lon="13.3924432844"><ele>2102.76</ele><time>2026-03-11T14:05:31Z</time><extensions><gpxtpx:TrackPointExtension><gpxtpx:atemp>3.0</gpxtpx:atemp></gpxtpx:TrackPointExtension></extensions></trkpt></trkseg><trkseg><trkpt lat="42.1773940232" lon="13.3924432844"><ele>2102.77</ele><time>2026-03-11T14:05:32Z</time><extensions><gpxtpx:TrackPointExtension><gpxtpx:atemp>3.2</gpxtpx:atemp></gpxtpx:TrackPointExtension></extensions></trkpt></trkseg><trkseg><trkpt lat="42.1773940232" lon="13.3924432844"><ele>2102.77</ele><time>2026-03-11T14:05:33Z</time><extensions><gpxtpx:TrackPointExtension><gpxtpx:atemp>3.2</gpxtpx:atemp></gpxtpx:TrackPointExtension></extensions></trkpt></trkseg><trkseg><trkpt lat="42.1773940232" lon="13.3924432844"><ele>2102.77</ele><time>2026-03-11T14:05:34Z</time><extensions><gpxtpx:TrackPointExtension><gpxtpx:atemp>3.2</gpxtpx:atemp></gpxtpx:TrackPointExtension></extensions></trkpt></trkseg><trkseg><trkpt lat="42.1789862495" lon="13.3924900554"><ele>2102.77</ele><time>2026-03-11T14:05:35Z</time><extensions><gpxtpx:TrackPointExtension><gpxtpx:atemp>3.2</gpxtpx:atemp></gpxtpx:TrackPointExtension></extensions></trkpt><trkpt lat="42.1789992414" lon="13.3924617246"><ele>2102.80</ele><time>2026-03-11T14:05:36Z</time><extensions><gpxtpx:TrackPointExtension><gpxtpx:atemp>3.2</gpxtpx:atemp></gpxtpx:TrackPointExtension></extensions></trkpt><trkpt lat="42.1789941285" lon="13.3924806677"><ele>2102.81</ele><time>2026-03-11T14:05:37Z</time><extensions><gpxtpx:TrackPointExtension><gpxtpx:atemp>3.2</gpxtpx:atemp></gpxtpx:TrackPointExtension></extensions></trkpt><trkpt lat="42.1789962240" lon="13.3924955875"><ele>2102.82</ele><time>2026-03-11T14:05:38Z</time><extensions><gpxtpx:TrackPointExtension><gpxtpx:atemp>3.2</gpxtpx:atemp></gpxtpx:TrackPointExtension></extensions></trkpt><trkpt lat="42.1789942961" lon="13.3924910612"><ele>2102.83</ele><time>2026-03-11T14:05:39Z</time><extensions><gpxtpx:TrackPointExtension><gpxtpx:atemp>3.2</gpxtpx:atemp></gpxtpx:TrackPointExtension></extensions></trkpt><trkpt lat="42.1789942961" lon="13.3924950846"><ele>2102.83</ele><time>2026-03-11T14:05:40Z</time><extensions><gpxtpx:TrackPointExtension><gpxtpx:atemp>3.2</gpxtpx:atemp></gpxtpx:TrackPointExtension></extensions></trkpt><trkpt lat="42.1789926197" lon="13.3924964257"><ele>2102.83</ele><time>2026-03-11T14:05:41Z</time><extensions><gpxtpx:TrackPointExtension><gpxtpx:atemp>3.2</gpxtpx:atemp></gpxtpx:TrackPointExtension></extensions></trkpt><trkpt lat="42.1789918654" lon="13.3924965933"><ele>2102.83</ele><time>2026-03-11T14:05:42Z</time><extensions><gpxtpx:TrackPointExtension><gpxtpx:atemp>3.2</gpxtpx:atemp></gpxtpx:TrackPointExtension></extensions></trkpt><trkpt lat="42.1789903566" lon="13.3924942464"><ele>2102.80</ele><time>2026-03-11T14:05:43Z</time><extensions><gpxtpx:TrackPointExtension><gpxtpx:atemp>3.2</gpxtpx:atemp></gpxtpx:TrackPointExtension></extensions></trkpt><trkpt lat="42.1789892670" lon="13.3924867865"><ele>2102.78</ele><time>2026-03-11T14:05:44Z</time><extensions><gpxtpx:TrackPointExtension><gpxtpx:atemp>3.2</gpxtpx:atemp></gpxtpx:TrackPointExtension></extensions></trkpt><trkpt lat="42.1789892670" lon="13.3924781531"><ele>2102.78</ele><time>2026-03-11T14:05:45Z</time><extensions><gpxtpx:TrackPointExtension><gpxtpx:atemp>3.2</gpxtpx:atemp></gpxtpx:TrackPointExtension></extensions></trkpt><trkpt lat="42.1789897699" lon="13.3924728725"><ele>2102.78</ele><time>2026-03-11T14:05:46Z</time><extensions><gpxtpx:TrackPointExtension><gpxtpx:atemp>3.2</gpxtpx:atemp></gpxtpx:TrackPointExtension></extensions></trkpt><trkpt lat="42.1789913625" lon="13.3924672566"><ele>2102.78</ele><time>2026-03-11T14:05:47Z</time><extensions><gpxtpx:TrackPointExtension><gpxtpx:atemp>3.2</gpxtpx:atemp></gpxtpx:TrackPointExtension></extensions></trkpt><trkpt lat="42.1789944638" lon="13.3924598806"><ele>2102.78</ele><time>2026-03-11T14:05:48Z</time><extensions><gpxtpx:TrackPointExtension><gpxtpx:atemp>3.2</gpxtpx:atemp></gpxtpx:TrackPointExtension></extensions></trkpt><trkpt lat="42.1789981518" lon="13.3924507443"><ele>2102.81</ele><time>2026-03-11T14:05:49Z</time><extensions><gpxtpx:TrackPointExtension><gpxtpx:atemp>3.2</gpxtpx:atemp></gpxtpx:TrackPointExtension></extensions></trkpt><trkpt lat="42.1790022589" lon="13.3924423624"><ele>2102.83</ele><time>2026-03-11T14:05:50Z</time><extensions><gpxtpx:TrackPointExtension><gpxtpx:atemp>3.2</gpxtpx:atemp></gpxtpx:TrackPointExtension></extensions></trkpt><trkpt lat="42.1790048573" lon="13.3924352378"><ele>2102.83</ele><time>2026-03-11T14:05:51Z</time><extensions><gpxtpx:TrackPointExtension><gpxtpx:atemp>3.2</gpxtpx:atemp></gpxtpx:TrackPointExtension></extensions></trkpt><trkpt lat="42.1790069528" lon="13.3924293704"><ele>2102.83</ele><time>2026-03-11T14:05:52Z</time><extensions><gpxtpx:TrackPointExtension><gpxtpx:atemp>3.2</gpxtpx:atemp></gpxtpx:TrackPointExtension></extensions></trkpt><trkpt lat="42.1790082939" lon="13.3924261853"><ele>2102.85</ele><time>2026-03-11T14:05:53Z</time><extensions><gpxtpx:TrackPointExtension><gpxtpx:atemp>3.2</gpxtpx:atemp></gpxtpx:TrackPointExtension></extensions></trkpt><trkpt lat="42.1790084615" lon="13.3924249280"><ele>2102.85</ele><time>2026-03-11T14:05:54Z</time><extensions><gpxtpx:TrackPointExtension><gpxtpx:atemp>3.2</gpxtpx:atemp></gpxtpx:TrackPointExtension></extensions></trkpt><trkpt lat="42.1790081263" lon="13.3924242575"><ele>2102.83</ele><time>2026-03-11T14:05:55Z</time><extensions><gpxtpx:TrackPointExtension><gpxtpx:atemp>3.2</gpxtpx:atemp></gpxtpx:TrackPointExtension></extensions></trkpt><trkpt lat="42.1790068690" lon="13.3924234193"><ele>2102.83</ele><time>2026-03-11T14:05:56Z</time><extensions><gpxtpx:TrackPointExtension><gpxtpx:atemp>3.2</gpxtpx:atemp></gpxtpx:TrackPointExtension></extensions></trkpt><trkpt lat="42.1790051926" lon="13.3924229164"><ele>2102.85</ele><time>2026-03-11T14:05:57Z</time><extensions><gpxtpx:TrackPointExtension><gpxtpx:atemp>3.2</gpxtpx:atemp></gpxtpx:TrackPointExtension></extensions></trkpt><trkpt lat="42.1790027618" lon="13.3924263529"><ele>2102.85</ele><time>2026-03-11T14:05:58Z</time><extensions><gpxtpx:TrackPointExtension><gpxtpx:atemp>3.2</gpxtpx:atemp></gpxtpx:TrackPointExtension></extensions></trkpt><trkpt lat="42.1790013369" lon="13.3924306277"><ele>2102.85</ele><time>2026-03-11T14:05:59Z</time><extensions><gpxtpx:TrackPointExtension><gpxtpx:atemp>3.2</gpxtpx:atemp></gpxtpx:TrackPointExtension></extensions></trkpt><trkpt lat="42.1790006664" lon="13.3924341481"><ele>2102.85</ele><time>2026-03-11T14:06:00Z</time><extensions><gpxtpx:TrackPointExtension><gpxtpx:atemp>3.2</gpxtpx:atemp></gpxtpx:TrackPointExtension></extensions></trkpt><trkpt lat="42.1790004987" lon="13.3924340643"><ele>2102.83</ele><time>2026-03-11T14:06:01Z</time><extensions><gpxtpx:TrackPointExtension><gpxtpx:atemp>3.2</gpxtpx:atemp></gpxtpx:TrackPointExtension></extensions></trkpt><trkpt lat="42.1790002473" lon="13.3924335614"><ele>2102.83</ele><time>2026-03-11T14:06:02Z</time><extensions><gpxtpx:TrackPointExtension><gpxtpx:atemp>3.2</gpxtpx:atemp></gpxtpx:TrackPointExtension></extensions></trkpt><trkpt lat="42.1790008340" lon="13.3924331423"><ele>2102.83</ele><time>2026-03-11T14:06:03Z</time><extensions><gpxtpx:TrackPointExtension><gpxtpx:atemp>3.2</gpxtpx:atemp></gpxtpx:TrackPointExtension></extensions></trkpt><trkpt lat="42.1790006664" lon="13.3924339805"><ele>2102.83</ele><time>2026-03-11T14:06:04Z</time><extensions><gpxtpx:TrackPointExtension><gpxtpx:atemp>3.2</gpxtpx:atemp></gpxtpx:TrackPointExtension></extensions></trkpt><trkpt lat="42.1790001635" lon="13.3924345672"><ele>2102.82</ele><time>2026-03-11T14:06:05Z</time><extensions><gpxtpx:TrackPointExtension><gpxtpx:atemp>3.2</gpxtpx:atemp></gpxtpx:TrackPointExtension></extensions></trkpt><trkpt lat="42.1789994929" lon="13.3924342319"><ele>2102.81</ele><time>2026-03-11T14:06:06Z</time><extensions><gpxtpx:TrackPointExtension><gpxtpx:atemp>3.2</gpxtpx:atemp></gpxtpx:TrackPointExtension></extensions></trkpt><trkpt lat="42.1789988223" lon="13.3924323879"><ele>2102.81</ele><time>2026-03-11T14:06:07Z</time><extensions><gpxtpx:TrackPointExtension><gpxtpx:atemp>3.2</gpxtpx:atemp></gpxtpx:TrackPointExtension></extensions></trkpt><trkpt lat="42.1789974812" lon="13.3924300410"><ele>2102.81</ele><time>2026-03-11T14:06:08Z</time><extensions><gpxtpx:TrackPointExtension><gpxtpx:atemp>3.2</gpxtpx:atemp></gpxtpx:TrackPointExtension></extensions></trkpt><trkpt lat="42.1789959725" lon="13.3924284484"><ele>2102.80</ele><time>2026-03-11T14:06:09Z</time><extensions><gpxtpx:TrackPointExtension><gpxtpx:atemp>3.2</gpxtpx:atemp></gpxtpx:TrackPointExtension></extensions></trkpt><trkpt lat="42.1789952181" lon="13.3924274426"><ele>2102.78</ele><time>2026-03-11T14:06:10Z</time><extensions><gpxtpx:TrackPointExtension><gpxtpx:atemp>3.2</gpxtpx:atemp></gpxtpx:TrackPointExtension></extensions></trkpt><trkpt lat="42.1789956372" lon="13.3924268559"><ele>2102.78</ele><time>2026-03-11T14:06:11Z</time><extensions><gpxtpx:TrackPointExtension><gpxtpx:atemp>3.2</gpxtpx:atemp></gpxtpx:TrackPointExtension></extensions></trkpt><trkpt lat="42.1789964754" lon="13.3924267720"><ele>2102.79</ele><time>2026-03-11T14:06:12Z</time><extensions><gpxtpx:TrackPointExtension><gpxtpx:atemp>3.2</gpxtpx:atemp></gpxtpx:TrackPointExtension></extensions></trkpt><trkpt lat="42.1789970621" lon="13.3924264368"><ele>2102.79</ele><time>2026-03-11T14:06:13Z</time><extensions><gpxtpx:TrackPointExtension><gpxtpx:atemp>3.2</gpxtpx:atemp></gpxtpx:TrackPointExtension></extensions></trkpt><trkpt lat="42.1789977327" lon="13.3924267720"><ele>2102.83</ele><time>2026-03-11T14:06:14Z</time><extensions><gpxtpx:TrackPointExtension><gpxtpx:atemp>3.2</gpxtpx:atemp></gpxtpx:TrackPointExtension></extensions></trkpt><trkpt lat="42.1789980680" lon="13.3924278617"><ele>2102.83</ele><time>2026-03-11T14:06:15Z</time><extensions><gpxtpx:TrackPointExtension><gpxtpx:atemp>3.2</gpxtpx:atemp></gpxtpx:TrackPointExtension></extensions></trkpt><trkpt lat="42.1789993253" lon="13.3924285322"><ele>2102.94</ele><time>2026-03-11T14:06:16Z</time><extensions><gpxtpx:TrackPointExtension><gpxtpx:atemp>3.2</gpxtpx:atemp></gpxtpx:TrackPointExtension></extensions></trkpt><trkpt lat="42.1790002473" lon="13.3924288675"><ele>2102.95</ele><time>2026-03-11T14:06:17Z</time><extensions><gpxtpx:TrackPointExtension><gpxtpx:atemp>3.2</gpxtpx:atemp></gpxtpx:TrackPointExtension></extensions></trkpt><trkpt lat="42.1790008340" lon="13.3924282808"><ele>2102.97</ele><time>2026-03-11T14:06:18Z</time><extensions><gpxtpx:TrackPointExtension><gpxtpx:atemp>3.2</gpxtpx:atemp></gpxtpx:TrackPointExtension></extensions></trkpt><trkpt lat="42.1790004987" lon="13.3924282808"><ele>2102.97</ele><time>2026-03-11T14:06:19Z</time><extensions><gpxtpx:TrackPointExtension><gpxtpx:atemp>3.2</gpxtpx:atemp></gpxtpx:TrackPointExtension></extensions></trkpt><trkpt lat="42.1790003311" lon="13.3924279455"><ele>2102.96</ele><time>2026-03-11T14:06:20Z</time><extensions><gpxtpx:TrackPointExtension><gpxtpx:atemp>3.2</gpxtpx:atemp></gpxtpx:TrackPointExtension></extensions></trkpt><trkpt lat="42.1790016722" lon="13.3924263529"><ele>2102.97</ele><time>2026-03-11T14:06:21Z</time><extensions><gpxtpx:TrackPointExtension><gpxtpx:atemp>3.2</gpxtpx:atemp></gpxtpx:TrackPointExtension></extensions></trkpt><trkpt lat="42.1790034324" lon="13.3924251795"><ele>2102.97</ele><time>2026-03-11T14:06:22Z</time><extensions><gpxtpx:TrackPointExtension><gpxtpx:atemp>3.2</gpxtpx:atemp></gpxtpx:TrackPointExtension></extensions></trkpt><trkpt lat="42.1790059470" lon="13.3924235869"><ele>2102.97</ele><time>2026-03-11T14:06:23Z</time><extensions><gpxtpx:TrackPointExtension><gpxtpx:atemp>3.2</gpxtpx:atemp></gpxtpx:TrackPointExtension></extensions></trkpt><trkpt lat="42.1790083777" lon="13.3924219944"><ele>2102.98</ele><time>2026-03-11T14:06:24Z</time><extensions><gpxtpx:TrackPointExtension><gpxtpx:atemp>3.2</gpxtpx:atemp></gpxtpx:TrackPointExtension></extensions></trkpt><trkpt lat="42.1790109761" lon="13.3924190607"><ele>2103.00</ele><time>2026-03-11T14:06:25Z</time><extensions><gpxtpx:TrackPointExtension><gpxtpx:atemp>3.2</gpxtpx:atemp></gpxtpx:TrackPointExtension></extensions></trkpt><trkpt lat="42.1790124848" lon="13.3924166299"><ele>2103.01</ele><time>2026-03-11T14:06:26Z</time><extensions><gpxtpx:TrackPointExtension><gpxtpx:atemp>3.2</gpxtpx:atemp></gpxtpx:TrackPointExtension></extensions></trkpt><trkpt lat="42.1790127363" lon="13.3924152888"><ele>2103.02</ele><time>2026-03-11T14:06:27Z</time><extensions><gpxtpx:TrackPointExtension><gpxtpx:atemp>3.2</gpxtpx:atemp></gpxtpx:TrackPointExtension></extensions></trkpt><trkpt lat="42.1790121496" lon="13.3924150374"><ele>2103.06</ele><time>2026-03-11T14:06:28Z</time><extensions><gpxtpx:TrackPointExtension><gpxtpx:atemp>3.2</gpxtpx:atemp></gpxtpx:TrackPointExtension></extensions></trkpt><trkpt lat="42.1790119819" lon="13.3924147859"><ele>2103.09</ele><time>2026-03-11T14:06:29Z</time><extensions><gpxtpx:TrackPointExtension><gpxtpx:atemp>3.2</gpxtpx:atemp></gpxtpx:TrackPointExtension></extensions></trkpt><trkpt lat="42.1790110599" lon="13.3924158756"><ele>2103.10</ele><time>2026-03-11T14:06:30Z</time><extensions><gpxtpx:TrackPointExtension><gpxtpx:atemp>3.2</gpxtpx:atemp></gpxtpx:TrackPointExtension></extensions></trkpt><trkpt lat="42.1790103894" lon="13.3924171329"><ele>2103.10</ele><time>2026-03-11T14:06:31Z</time><extensions><gpxtpx:TrackPointExtension><gpxtpx:atemp>3.2</gpxtpx:atemp></gpxtpx:TrackPointExtension></extensions></trkpt><trkpt lat="42.1790097188" lon="13.3924182225"><ele>2103.14</ele><time>2026-03-11T14:06:32Z</time><extensions><gpxtpx:TrackPointExtension><gpxtpx:atemp>3.0</gpxtpx:atemp></gpxtpx:TrackPointExtension></extensions></trkpt><trkpt lat="42.1790100541" lon="13.3924178872"><ele>2103.14</ele><time>2026-03-11T14:06:33Z</time><extensions><gpxtpx:TrackPointExtension><gpxtpx:atemp>3.0</gpxtpx:atemp></gpxtpx:TrackPointExtension></extensions></trkpt><trkpt lat="42.1790104732" lon="13.3924166299"><ele>2103.15</ele><time>2026-03-11T14:06:34Z</time><extensions><gpxtpx:TrackPointExtension><gpxtpx:atemp>3.0</gpxtpx:atemp></gpxtpx:TrackPointExtension></extensions></trkpt><trkpt lat="42.1790107246" lon="13.3924160432"><ele>2103.15</ele><time>2026-03-11T14:06:35Z</time><extensions><gpxtpx:TrackPointExtension><gpxtpx:atemp>3.0</gpxtpx:atemp></gpxtpx:TrackPointExtension></extensions></trkpt><trkpt lat="42.1790111437" lon="13.3924158756"><ele>2103.15</ele><time>2026-03-11T14:06:36Z</time><extensions><gpxtpx:TrackPointExtension><gpxtpx:atemp>3.0</gpxtpx:atemp></gpxtpx:TrackPointExtension></extensions></trkpt><trkpt lat="42.1790114790" lon="13.3924163785"><ele>2103.15</ele><time>2026-03-11T14:06:37Z</time><extensions><gpxtpx:TrackPointExtension><gpxtpx:atemp>3.0</gpxtpx:atemp></gpxtpx:TrackPointExtension></extensions></trkpt><trkpt lat="42.1790120658" lon="13.3924156241"><ele>2103.16</ele><time>2026-03-11T14:06:38Z</time><extensions><gpxtpx:TrackPointExtension><gpxtpx:atemp>3.0</gpxtpx:atemp></gpxtpx:TrackPointExtension></extensions></trkpt><trkpt lat="42.1790130716" lon="13.3924145345"><ele>2103.20</ele><time>2026-03-11T14:06:39Z</time><extensions><gpxtpx:TrackPointExtension><gpxtpx:atemp>3.0</gpxtpx:atemp></gpxtpx:TrackPointExtension></extensions></trkpt><trkpt lat="42.1790134907" lon="13.3924135286"><ele>2103.25</ele><time>2026-03-11T14:06:40Z</time><extensions><gpxtpx:TrackPointExtension><gpxtpx:atemp>3.0</gpxtpx:atemp></gpxtpx:TrackPointExtension></extensions></trkpt><trkpt lat="42.1790139936" lon="13.3924125228"><ele>2103.28</ele><time>2026-03-11T14:06:41Z</time><extensions><gpxtpx:TrackPointExtension><gpxtpx:atemp>3.0</gpxtpx:atemp></gpxtpx:TrackPointExtension></extensions></trkpt><trkpt lat="42.1790138260" lon="13.3924117684"><ele>2103.34</ele><time>2026-03-11T14:06:42Z</time><extensions><gpxtpx:TrackPointExtension><gpxtpx:atemp>3.0</gpxtpx:atemp></gpxtpx:TrackPointExtension></extensions></trkpt><trkpt lat="42.1790139936" lon="13.3924110979"><ele>2103.39</ele><time>2026-03-11T14:06:43Z</time><extensions><gpxtpx:TrackPointExtension><gpxtpx:atemp>3.0</gpxtpx:atemp></gpxtpx:TrackPointExtension></extensions></trkpt><trkpt lat="42.1790137421" lon="13.3924115170"><ele>2103.42</ele><time>2026-03-11T14:06:44Z</time><extensions><gpxtpx:TrackPointExtension><gpxtpx:atemp>3.0</gpxtpx:atemp></gpxtpx:TrackPointExtension></extensions></trkpt><trkpt lat="42.1790137421" lon="13.3924122714"><ele>2103.46</ele><time>2026-03-11T14:06:45Z</time><extensions><gpxtpx:TrackPointExtension><gpxtpx:atemp>3.0</gpxtpx:atemp></gpxtpx:TrackPointExtension></extensions></trkpt><trkpt lat="42.1790142450" lon="13.3924129419"><ele>2103.47</ele><time>2026-03-11T14:06:46Z</time><extensions><gpxtpx:TrackPointExtension><gpxtpx:atemp>3.0</gpxtpx:atemp></gpxtpx:TrackPointExtension></extensions></trkpt><trkpt lat="42.1790152509" lon="13.3924130257"><ele>2103.47</ele><time>2026-03-11T14:06:47Z</time><extensions><gpxtpx:TrackPointExtension><gpxtpx:atemp>3.0</gpxtpx:atemp></gpxtpx:TrackPointExtension></extensions></trkpt><trkpt lat="42.1790160891" lon="13.3924140316"><ele>2103.47</ele><time>2026-03-11T14:06:48Z</time><extensions><gpxtpx:TrackPointExtension><gpxtpx:atemp>3.0</gpxtpx:atemp></gpxtpx:TrackPointExtension></extensions></trkpt><trkpt lat="42.1790161729" lon="13.3924149536"><ele>2103.44</ele><time>2026-03-11T14:06:49Z</time><extensions><gpxtpx:TrackPointExtension><gpxtpx:atemp>3.0</gpxtpx:atemp></gpxtpx:TrackPointExtension></extensions></trkpt><trkpt lat="42.1790160891" lon="13.3924157917"><ele>2103.42</ele><time>2026-03-11T14:06:50Z</time><extensions><gpxtpx:TrackPointExtension><gpxtpx:atemp>3.0</gpxtpx:atemp></gpxtpx:TrackPointExtension></extensions></trkpt><trkpt lat="42.1790161729" lon="13.3924155403"><ele>2103.36</ele><time>2026-03-11T14:06:51Z</time><extensions><gpxtpx:TrackPointExtension><gpxtpx:atemp>3.0</gpxtpx:atemp></gpxtpx:TrackPointExtension></extensions></trkpt><trkpt lat="42.1790160891" lon="13.3924159594"><ele>2103.34</ele><time>2026-03-11T14:06:52Z</time><extensions><gpxtpx:TrackPointExtension><gpxtpx:atemp>3.0</gpxtpx:atemp></gpxtpx:TrackPointExtension></extensions></trkpt><trkpt lat="42.1790166758" lon="13.3924160432"><ele>2103.31</ele><time>2026-03-11T14:06:53Z</time><extensions><gpxtpx:TrackPointExtension><gpxtpx:atemp>3.0</gpxtpx:atemp></gpxtpx:TrackPointExtension></extensions></trkpt><trkpt lat="42.1790173464" lon="13.3924155403"><ele>2103.27</ele><time>2026-03-11T14:06:54Z</time><extensions><gpxtpx:TrackPointExtension><gpxtpx:atemp>3.0</gpxtpx:atemp></gpxtpx:TrackPointExtension></extensions></trkpt><trkpt lat="42.1790180169" lon="13.3924146183"><ele>2103.27</ele><time>2026-03-11T14:06:55Z</time><extensions><gpxtpx:TrackPointExtension><gpxtpx:atemp>3.0</gpxtpx:atemp></gpxtpx:TrackPointExtension></extensions></trkpt><trkpt lat="42.1790174302" lon="13.3924133610"><ele>2103.27</ele><time>2026-03-11T14:06:56Z</time><extensions><gpxtpx:TrackPointExtension><gpxtpx:atemp>3.0</gpxtpx:atemp></gpxtpx:TrackPointExtension></extensions></trkpt><trkpt lat="42.1790164243" lon="13.3924121875"><ele>2103.25</ele><time>2026-03-11T14:06:57Z</time><extensions><gpxtpx:TrackPointExtension><gpxtpx:atemp>3.0</gpxtpx:atemp></gpxtpx:TrackPointExtension></extensions></trkpt><trkpt lat="42.1790156700" lon="13.3924112655"><ele>2103.25</ele><time>2026-03-11T14:06:58Z</time><extensions><gpxtpx:TrackPointExtension><gpxtpx:atemp>3.0</gpxtpx:atemp></gpxtpx:TrackPointExtension></extensions></trkpt><trkpt lat="42.1790153347" lon="13.3924098406"><ele>2103.25</ele><time>2026-03-11T14:06:59Z</time><extensions><gpxtpx:TrackPointExtension><gpxtpx:atemp>3.0</gpxtpx:atemp></gpxtpx:TrackPointExtension></extensions></trkpt><trkpt lat="42.1790149994" lon="13.3924094215"><ele>2103.25</ele><time>2026-03-11T14:07:00Z</time><extensions><gpxtpx:TrackPointExtension><gpxtpx:atemp>3.0</gpxtpx:atemp></gpxtpx:TrackPointExtension></extensions></trkpt><trkpt lat="42.1790146641" lon="13.3924085833"><ele>2103.28</ele><time>2026-03-11T14:07:01Z</time><extensions><gpxtpx:TrackPointExtension><gpxtpx:atemp>3.0</gpxtpx:atemp></gpxtpx:TrackPointExtension></extensions></trkpt><trkpt lat="42.1790150832" lon="13.3924085833"><ele>2103.33</ele><time>2026-03-11T14:07:02Z</time><extensions><gpxtpx:TrackPointExtension><gpxtpx:atemp>3.0</gpxtpx:atemp></gpxtpx:TrackPointExtension></extensions></trkpt><trkpt lat="42.1790165920" lon="13.3924081642"><ele>2103.36</ele><time>2026-03-11T14:07:03Z</time><extensions><gpxtpx:TrackPointExtension><gpxtpx:atemp>3.0</gpxtpx:atemp></gpxtpx:TrackPointExtension></extensions></trkpt><trkpt lat="42.1790180169" lon="13.3924075775"><ele>2103.35</ele><time>2026-03-11T14:07:04Z</time><extensions><gpxtpx:TrackPointExtension><gpxtpx:atemp>3.0</gpxtpx:atemp></gpxtpx:TrackPointExtension></extensions></trkpt><trkpt lat="42.1790186875" lon="13.3924068231"><ele>2103.34</ele><time>2026-03-11T14:07:05Z</time><extensions><gpxtpx:TrackPointExtension><gpxtpx:atemp>3.0</gpxtpx:atemp></gpxtpx:TrackPointExtension></extensions></trkpt><trkpt lat="42.1790183522" lon="13.3924063202"><ele>2103.34</ele><time>2026-03-11T14:07:06Z</time><extensions><gpxtpx:TrackPointExtension><gpxtpx:atemp>3.0</gpxtpx:atemp></gpxtpx:TrackPointExtension></extensions></trkpt><trkpt lat="42.1790180169" lon="13.3924061526"><ele>2103.33</ele><time>2026-03-11T14:07:07Z</time><extensions><gpxtpx:TrackPointExtension><gpxtpx:atemp>3.0</gpxtpx:atemp></gpxtpx:TrackPointExtension></extensions></trkpt><trkpt lat="42.1790180169" lon="13.3924063202"><ele>2103.32</ele><time>2026-03-11T14:07:08Z</time><extensions><gpxtpx:TrackPointExtension><gpxtpx:atemp>3.0</gpxtpx:atemp></gpxtpx:TrackPointExtension></extensions></trkpt><trkpt lat="42.1790181845" lon="13.3924065717"><ele>2103.31</ele><time>2026-03-11T14:07:09Z</time><extensions><gpxtpx:TrackPointExtension><gpxtpx:atemp>3.0</gpxtpx:atemp></gpxtpx:TrackPointExtension></extensions></trkpt><trkpt lat="42.1790180169" lon="13.3924065717"><ele>2103.31</ele><time>2026-03-11T14:07:10Z</time><extensions><gpxtpx:TrackPointExtension><gpxtpx:atemp>3.0</gpxtpx:atemp></gpxtpx:TrackPointExtension></extensions></trkpt><trkpt lat="42.1790181845" lon="13.3924065717"><ele>2103.31</ele><time>2026-03-11T14:07:11Z</time><extensions><gpxtpx:TrackPointExtension><gpxtpx:atemp>3.0</gpxtpx:atemp></gpxtpx:TrackPointExtension></extensions></trkpt><trkpt lat="42.1790182684" lon="13.3924065717"><ele>2103.31</ele><time>2026-03-11T14:07:12Z</time><extensions><gpxtpx:TrackPointExtension><gpxtpx:atemp>3.0</gpxtpx:atemp></gpxtpx:TrackPointExtension></extensions></trkpt><trkpt lat="42.1790182684" lon="13.3924066555"><ele>2103.31</ele><time>2026-03-11T14:07:13Z</time><extensions><gpxtpx:TrackPointExtension><gpxtpx:atemp>3.0</gpxtpx:atemp></gpxtpx:TrackPointExtension></extensions></trkpt><trkpt lat="42.1790183522" lon="13.3924067393"><ele>2103.34</ele><time>2026-03-11T14:07:14Z</time><extensions><gpxtpx:TrackPointExtension><gpxtpx:atemp>3.0</gpxtpx:atemp></gpxtpx:TrackPointExtension></extensions></trkpt><trkpt lat="42.1790184360" lon="13.3924068231"><ele>2103.34</ele><time>2026-03-11T14:07:15Z</time><extensions><gpxtpx:TrackPointExtension><gpxtpx:atemp>3.0</gpxtpx:atemp></gpxtpx:TrackPointExtension></extensions></trkpt><trkpt lat="42.1790185198" lon="13.3924069908"><ele>2103.34</ele><time>2026-03-11T14:07:16Z</time><extensions><gpxtpx:TrackPointExtension><gpxtpx:atemp>3.0</gpxtpx:atemp></gpxtpx:TrackPointExtension></extensions></trkpt><trkpt lat="42.1790185198" lon="13.3924070746"><ele>2103.34</ele><time>2026-03-11T14:07:17Z</time><extensions><gpxtpx:TrackPointExtension><gpxtpx:atemp>3.0</gpxtpx:atemp></gpxtpx:TrackPointExtension></extensions></trkpt><trkpt lat="42.1790186875" lon="13.3924072422"><ele>2103.35</ele><time>2026-03-11T14:07:18Z</time><extensions><gpxtpx:TrackPointExtension><gpxtpx:atemp>3.0</gpxtpx:atemp></gpxtpx:TrackPointExtension></extensions></trkpt><trkpt lat="42.1790189389" lon="13.3924075775"><ele>2103.35</ele><time>2026-03-11T14:07:19Z</time><extensions><gpxtpx:TrackPointExtension><gpxtpx:atemp>3.0</gpxtpx:atemp></gpxtpx:TrackPointExtension></extensions></trkpt><trkpt lat="42.1790192742" lon="13.3924076613"><ele>2103.34</ele><time>2026-03-11T14:07:20Z</time><extensions><gpxtpx:TrackPointExtension><gpxtpx:atemp>3.0</gpxtpx:atemp></gpxtpx:TrackPointExtension></extensions></trkpt><trkpt lat="42.1790191904" lon="13.3924078289"><ele>2103.34</ele><time>2026-03-11T14:07:21Z</time><extensions><gpxtpx:TrackPointExtension><gpxtpx:atemp>3.0</gpxtpx:atemp></gpxtpx:TrackPointExtension></extensions></trkpt><trkpt lat="42.1790181845" lon="13.3924077451"><ele>2103.33</ele><time>2026-03-11T14:07:22Z</time><extensions><gpxtpx:TrackPointExtension><gpxtpx:atemp>3.0</gpxtpx:atemp></gpxtpx:TrackPointExtension></extensions></trkpt><trkpt lat="42.1790172625" lon="13.3924077451"><ele>2103.29</ele><time>2026-03-11T14:07:23Z</time><extensions><gpxtpx:TrackPointExtension><gpxtpx:atemp>3.0</gpxtpx:atemp></gpxtpx:TrackPointExtension></extensions></trkpt><trkpt lat="42.1790163405" lon="13.3924083319"><ele>2103.28</ele><time>2026-03-11T14:07:24Z</time><extensions><gpxtpx:TrackPointExtension><gpxtpx:atemp>3.0</gpxtpx:atemp></gpxtpx:TrackPointExtension></extensions></trkpt><trkpt lat="42.1790153347" lon="13.3924098406"><ele>2103.24</ele><time>2026-03-11T14:07:25Z</time><extensions><gpxtpx:TrackPointExtension><gpxtpx:atemp>3.0</gpxtpx:atemp></gpxtpx:TrackPointExtension></extensions></trkpt><trkpt lat="42.1790141612" lon="13.3924117684"><ele>2103.18</ele><time>2026-03-11T14:07:26Z</time><extensions><gpxtpx:TrackPointExtension><gpxtpx:atemp>3.0</gpxtpx:atemp></gpxtpx:TrackPointExtension></extensions></trkpt><trkpt lat="42.1790134907" lon="13.3924132772"><ele>2103.14</ele><time>2026-03-11T14:07:27Z</time><extensions><gpxtpx:TrackPointExtension><gpxtpx:atemp>3.0</gpxtpx:atemp></gpxtpx:TrackPointExtension></extensions></trkpt><trkpt lat="42.1790127363" lon="13.3924150374"><ele>2103.14</ele><time>2026-03-11T14:07:28Z</time><extensions><gpxtpx:TrackPointExtension><gpxtpx:atemp>3.0</gpxtpx:atemp></gpxtpx:TrackPointExtension></extensions></trkpt><trkpt lat="42.1790121496" lon="13.3924144506"><ele>2103.14</ele><time>2026-03-11T14:07:29Z</time><extensions><gpxtpx:TrackPointExtension><gpxtpx:atemp>3.0</gpxtpx:atemp></gpxtpx:TrackPointExtension></extensions></trkpt><trkpt lat="42.1790104732" lon="13.3924135286"><ele>2103.14</ele><time>2026-03-11T14:07:30Z</time><extensions><gpxtpx:TrackPointExtension><gpxtpx:atemp>3.0</gpxtpx:atemp></gpxtpx:TrackPointExtension></extensions></trkpt><trkpt lat="42.1790093835" lon="13.3924119361"><ele>2103.16</ele><time>2026-03-11T14:07:31Z</time><extensions><gpxtpx:TrackPointExtension><gpxtpx:atemp>3.0</gpxtpx:atemp></gpxtpx:TrackPointExtension></extensions></trkpt><trkpt lat="42.1790074557" lon="13.3924142830"><ele>2103.17</ele><time>2026-03-11T14:07:32Z</time><extensions><gpxtpx:TrackPointExtension><gpxtpx:atemp>3.2</gpxtpx:atemp></gpxtpx:TrackPointExtension></extensions></trkpt><trkpt lat="42.1790069528" lon="13.3924156241"><ele>2103.18</ele><time>2026-03-11T14:07:33Z</time><extensions><gpxtpx:TrackPointExtension><gpxtpx:atemp>3.2</gpxtpx:atemp></gpxtpx:TrackPointExtension></extensions></trkpt><trkpt lat="42.1790069528" lon="13.3924146183"><ele>2103.18</ele><time>2026-03-11T14:07:34Z</time><extensions><gpxtpx:TrackPointExtension><gpxtpx:atemp>3.2</gpxtpx:atemp></gpxtpx:TrackPointExtension></extensions></trkpt><trkpt lat="42.1790073719" lon="13.3924114332"><ele>2103.18</ele><time>2026-03-11T14:07:35Z</time><extensions><gpxtpx:TrackPointExtension><gpxtpx:atemp>3.2</gpxtpx:atemp></gpxtpx:TrackPointExtension></extensions></trkpt><trkpt lat="42.1790069528" lon="13.3924095891"><ele>2103.18</ele><time>2026-03-11T14:07:36Z</time><extensions><gpxtpx:TrackPointExtension><gpxtpx:atemp>3.2</gpxtpx:atemp></gpxtpx:TrackPointExtension></extensions></trkpt><trkpt lat="42.1790062822" lon="13.3924104273"><ele>2103.17</ele><time>2026-03-11T14:07:37Z</time><extensions><gpxtpx:TrackPointExtension><gpxtpx:atemp>3.2</gpxtpx:atemp></gpxtpx:TrackPointExtension></extensions></trkpt><trkpt lat="42.1790029295" lon="13.3924115170"><ele>2103.13</ele><time>2026-03-11T14:07:38Z</time><extensions><gpxtpx:TrackPointExtension><gpxtpx:atemp>3.2</gpxtpx:atemp></gpxtpx:TrackPointExtension></extensions></trkpt><trkpt lat="42.1790010855" lon="13.3924121875"><ele>2103.07</ele><time>2026-03-11T14:07:39Z</time><extensions><gpxtpx:TrackPointExtension><gpxtpx:atemp>3.2</gpxtpx:atemp></gpxtpx:TrackPointExtension></extensions></trkpt><trkpt lat="42.1790001635" lon="13.3924116846"><ele>2103.06</ele><time>2026-03-11T14:07:40Z</time><extensions><gpxtpx:TrackPointExtension><gpxtpx:atemp>3.2</gpxtpx:atemp></gpxtpx:TrackPointExtension></extensions></trkpt><trkpt lat="42.1790019237" lon="13.3924109302"><ele>2103.04</ele><time>2026-03-11T14:07:41Z</time><extensions><gpxtpx:TrackPointExtension><gpxtpx:atemp>3.2</gpxtpx:atemp></gpxtpx:TrackPointExtension></extensions></trkpt><trkpt lat="42.1790028457" lon="13.3924107626"><ele>2103.03</ele><time>2026-03-11T14:07:42Z</time><extensions><gpxtpx:TrackPointExtension><gpxtpx:atemp>3.2</gpxtpx:atemp></gpxtpx:TrackPointExtension></extensions></trkpt><trkpt lat="42.1790026780" lon="13.3924107626"><ele>2103.03</ele><time>2026-03-11T14:07:43Z</time><extensions><gpxtpx:TrackPointExtension><gpxtpx:atemp>3.2</gpxtpx:atemp></gpxtpx:TrackPointExtension></extensions></trkpt><trkpt lat="42.1790027618" lon="13.3924106788"><ele>2103.03</ele><time>2026-03-11T14:07:44Z</time><extensions><gpxtpx:TrackPointExtension><gpxtpx:atemp>3.2</gpxtpx:atemp></gpxtpx:TrackPointExtension></extensions></trkpt><trkpt lat="42.1790023427" lon="13.3924099244"><ele>2103.04</ele><time>2026-03-11T14:07:45Z</time><extensions><gpxtpx:TrackPointExtension><gpxtpx:atemp>3.2</gpxtpx:atemp></gpxtpx:TrackPointExtension></extensions></trkpt><trkpt lat="42.1790019237" lon="13.3924091700"><ele>2103.06</ele><time>2026-03-11T14:07:46Z</time><extensions><gpxtpx:TrackPointExtension><gpxtpx:atemp>3.2</gpxtpx:atemp></gpxtpx:TrackPointExtension></extensions></trkpt><trkpt lat="42.1790014207" lon="13.3924085833"><ele>2103.08</ele><time>2026-03-11T14:07:47Z</time><extensions><gpxtpx:TrackPointExtension><gpxtpx:atemp>3.2</gpxtpx:atemp></gpxtpx:TrackPointExtension></extensions></trkpt><trkpt lat="42.1790012531" lon="13.3924085833"><ele>2103.09</ele><time>2026-03-11T14:07:48Z</time><extensions><gpxtpx:TrackPointExtension><gpxtpx:atemp>3.2</gpxtpx:atemp></gpxtpx:TrackPointExtension></extensions></trkpt><trkpt lat="42.1790016722" lon="13.3924092539"><ele>2103.10</ele><time>2026-03-11T14:07:49Z</time><extensions><gpxtpx:TrackPointExtension><gpxtpx:atemp>3.2</gpxtpx:atemp></gpxtpx:TrackPointExtension></extensions></trkpt><trkpt lat="42.1790019237" lon="13.3924103435"><ele>2103.10</ele><time>2026-03-11T14:07:50Z</time><extensions><gpxtpx:TrackPointExtension><gpxtpx:atemp>3.2</gpxtpx:atemp></gpxtpx:TrackPointExtension></extensions></trkpt><trkpt lat="42.1790029295" lon="13.3924119361"><ele>2103.10</ele><time>2026-03-11T14:07:51Z</time><extensions><gpxtpx:TrackPointExtension><gpxtpx:atemp>3.2</gpxtpx:atemp></gpxtpx:TrackPointExtension></extensions></trkpt><trkpt lat="42.1790036839" lon="13.3924127743"><ele>2103.10</ele><time>2026-03-11T14:07:52Z</time><extensions><gpxtpx:TrackPointExtension><gpxtpx:atemp>3.2</gpxtpx:atemp></gpxtpx:TrackPointExtension></extensions></trkpt><trkpt lat="42.1790050250" lon="13.3924137801"><ele>2103.10</ele><time>2026-03-11T14:07:53Z</time><extensions><gpxtpx:TrackPointExtension><gpxtpx:atemp>3.2</gpxtpx:atemp></gpxtpx:TrackPointExtension></extensions></trkpt><trkpt lat="42.1790060308" lon="13.3924147859"><ele>2103.10</ele><time>2026-03-11T14:07:54Z</time><extensions><gpxtpx:TrackPointExtension><gpxtpx:atemp>3.2</gpxtpx:atemp></gpxtpx:TrackPointExtension></extensions></trkpt><trkpt lat="42.1790070366" lon="13.3924161270"><ele>2103.13</ele><time>2026-03-11T14:07:55Z</time><extensions><gpxtpx:TrackPointExtension><gpxtpx:atemp>3.2</gpxtpx:atemp></gpxtpx:TrackPointExtension></extensions></trkpt><trkpt lat="42.1790086292" lon="13.3924171329"><ele>2103.14</ele><time>2026-03-11T14:07:56Z</time><extensions><gpxtpx:TrackPointExtension><gpxtpx:atemp>3.2</gpxtpx:atemp></gpxtpx:TrackPointExtension></extensions></trkpt><trkpt lat="42.1790097188" lon="13.3924184740"><ele>2103.16</ele><time>2026-03-11T14:07:57Z</time><extensions><gpxtpx:TrackPointExtension><gpxtpx:atemp>3.2</gpxtpx:atemp></gpxtpx:TrackPointExtension></extensions></trkpt><trkpt lat="42.1790109761" lon="13.3924211562"><ele>2103.17</ele><time>2026-03-11T14:07:58Z</time><extensions><gpxtpx:TrackPointExtension><gpxtpx:atemp>3.2</gpxtpx:atemp></gpxtpx:TrackPointExtension></extensions></trkpt><trkpt lat="42.1790110599" lon="13.3924245927"><ele>2103.18</ele><time>2026-03-11T14:07:59Z</time><extensions><gpxtpx:TrackPointExtension><gpxtpx:atemp>3.2</gpxtpx:atemp></gpxtpx:TrackPointExtension></extensions></trkpt><trkpt lat="42.1790110599" lon="13.3924270235"><ele>2103.19</ele><time>2026-03-11T14:08:00Z</time><extensions><gpxtpx:TrackPointExtension><gpxtpx:atemp>3.2</gpxtpx:atemp></gpxtpx:TrackPointExtension></extensions></trkpt><trkpt lat="42.1790103894" lon="13.3924285322"><ele>2103.19</ele><time>2026-03-11T14:08:01Z</time><extensions><gpxtpx:TrackPointExtension><gpxtpx:atemp>3.2</gpxtpx:atemp></gpxtpx:TrackPointExtension></extensions></trkpt><trkpt lat="42.1790088806" lon="13.3924292866"><ele>2103.19</ele><time>2026-03-11T14:08:02Z</time><extensions><gpxtpx:TrackPointExtension><gpxtpx:atemp>3.2</gpxtpx:atemp></gpxtpx:TrackPointExtension></extensions></trkpt><trkpt lat="42.1790072881" lon="13.3924309630"><ele>2103.19</ele><time>2026-03-11T14:08:03Z</time><extensions><gpxtpx:TrackPointExtension><gpxtpx:atemp>3.2</gpxtpx:atemp></gpxtpx:TrackPointExtension></extensions></trkpt><trkpt lat="42.1790063661" lon="13.3924330585"><ele>2103.21</ele><time>2026-03-11T14:08:04Z</time><extensions><gpxtpx:TrackPointExtension><gpxtpx:atemp>3.2</gpxtpx:atemp></gpxtpx:TrackPointExtension></extensions></trkpt><trkpt lat="42.1790060308" lon="13.3924350701"><ele>2103.24</ele><time>2026-03-11T14:08:05Z</time><extensions><gpxtpx:TrackPointExtension><gpxtpx:atemp>3.2</gpxtpx:atemp></gpxtpx:TrackPointExtension></extensions></trkpt><trkpt lat="42.1790059470" lon="13.3924361598"><ele>2103.26</ele><time>2026-03-11T14:08:06Z</time><extensions><gpxtpx:TrackPointExtension><gpxtpx:atemp>3.2</gpxtpx:atemp></gpxtpx:TrackPointExtension></extensions></trkpt><trkpt lat="42.1790058631" lon="13.3924362436"><ele>2103.29</ele><time>2026-03-11T14:08:07Z</time><extensions><gpxtpx:TrackPointExtension><gpxtpx:atemp>3.2</gpxtpx:atemp></gpxtpx:TrackPointExtension></extensions></trkpt><trkpt lat="42.1790058631" lon="13.3924362436"><ele>2103.31</ele><time>2026-03-11T14:08:08Z</time><extensions><gpxtpx:TrackPointExtension><gpxtpx:atemp>3.2</gpxtpx:atemp></gpxtpx:TrackPointExtension></extensions></trkpt><trkpt lat="42.1790058631" lon="13.3924363274"><ele>2103.32</ele><time>2026-03-11T14:08:09Z</time><extensions><gpxtpx:TrackPointExtension><gpxtpx:atemp>3.2</gpxtpx:atemp></gpxtpx:TrackPointExtension></extensions></trkpt><trkpt lat="42.1790059470" lon="13.3924364951"><ele>2103.35</ele><time>2026-03-11T14:08:10Z</time><extensions><gpxtpx:TrackPointExtension><gpxtpx:atemp>3.2</gpxtpx:atemp></gpxtpx:TrackPointExtension></extensions></trkpt><trkpt lat="42.1790059470" lon="13.3924366627"><ele>2103.48</ele><time>2026-03-11T14:08:11Z</time><extensions><gpxtpx:TrackPointExtension><gpxtpx:atemp>3.2</gpxtpx:atemp></gpxtpx:TrackPointExtension></extensions></trkpt><trkpt lat="42.1790066175" lon="13.3924365789"><ele>2103.52</ele><time>2026-03-11T14:08:12Z</time><extensions><gpxtpx:TrackPointExtension><gpxtpx:atemp>3.2</gpxtpx:atemp></gpxtpx:TrackPointExtension></extensions></trkpt><trkpt lat="42.1790080424" lon="13.3924362436"><ele>2103.52</ele><time>2026-03-11T14:08:13Z</time><extensions><gpxtpx:TrackPointExtension><gpxtpx:atemp>3.2</gpxtpx:atemp></gpxtpx:TrackPointExtension></extensions></trkpt><trkpt lat="42.1790097188" lon="13.3924356569"><ele>2103.52</ele><time>2026-03-11T14:08:14Z</time><extensions><gpxtpx:TrackPointExtension><gpxtpx:atemp>3.2</gpxtpx:atemp></gpxtpx:TrackPointExtension></extensions></trkpt><trkpt lat="42.1790113952" lon="13.3924344834"><ele>2103.52</ele><time>2026-03-11T14:08:15Z</time><extensions><gpxtpx:TrackPointExtension><gpxtpx:atemp>3.2</gpxtpx:atemp></gpxtpx:TrackPointExtension></extensions></trkpt><trkpt lat="42.1790127363" lon="13.3924321365"><ele>2103.47</ele><time>2026-03-11T14:08:16Z</time><extensions><gpxtpx:TrackPointExtension><gpxtpx:atemp>3.2</gpxtpx:atemp></gpxtpx:TrackPointExtension></extensions></trkpt><trkpt lat="42.1790136583" lon="13.3924303763"><ele>2103.44</ele><time>2026-03-11T14:08:17Z</time><extensions><gpxtpx:TrackPointExtension><gpxtpx:atemp>3.2</gpxtpx:atemp></gpxtpx:TrackPointExtension></extensions></trkpt><trkpt lat="42.1790136583" lon="13.3924293704"><ele>2103.41</ele><time>2026-03-11T14:08:18Z</time><extensions><gpxtpx:TrackPointExtension><gpxtpx:atemp>3.2</gpxtpx:atemp></gpxtpx:TrackPointExtension></extensions></trkpt><trkpt lat="42.1790134907" lon="13.3924293704"><ele>2103.38</ele><time>2026-03-11T14:08:19Z</time><extensions><gpxtpx:TrackPointExtension><gpxtpx:atemp>3.2</gpxtpx:atemp></gpxtpx:TrackPointExtension></extensions></trkpt><trkpt lat="42.1790133230" lon="13.3924290352"><ele>2103.36</ele><time>2026-03-11T14:08:20Z</time><extensions><gpxtpx:TrackPointExtension><gpxtpx:atemp>3.2</gpxtpx:atemp></gpxtpx:TrackPointExtension></extensions></trkpt><trkpt lat="42.1790138260" lon="13.3924290352"><ele>2103.33</ele><time>2026-03-11T14:08:21Z</time><extensions><gpxtpx:TrackPointExtension><gpxtpx:atemp>3.2</gpxtpx:atemp></gpxtpx:TrackPointExtension></extensions></trkpt><trkpt lat="42.1790139936" lon="13.3924295381"><ele>2103.28</ele><time>2026-03-11T14:08:22Z</time><extensions><gpxtpx:TrackPointExtension><gpxtpx:atemp>3.2</gpxtpx:atemp></gpxtpx:TrackPointExtension></extensions></trkpt><trkpt lat="42.1790137421" lon="13.3924296219"><ele>2103.24</ele><time>2026-03-11T14:08:23Z</time><extensions><gpxtpx:TrackPointExtension><gpxtpx:atemp>3.2</gpxtpx:atemp></gpxtpx:TrackPointExtension></extensions></trkpt><trkpt lat="42.1790131554" lon="13.3924295381"><ele>2103.23</ele><time>2026-03-11T14:08:24Z</time><extensions><gpxtpx:TrackPointExtension><gpxtpx:atemp>3.2</gpxtpx:atemp></gpxtpx:TrackPointExtension></extensions></trkpt><trkpt lat="42.1790127363" lon="13.3924288675"><ele>2103.21</ele><time>2026-03-11T14:08:25Z</time><extensions><gpxtpx:TrackPointExtension><gpxtpx:atemp>3.2</gpxtpx:atemp></gpxtpx:TrackPointExtension></extensions></trkpt><trkpt lat="42.1790125687" lon="13.3924287837"><ele>2103.19</ele><time>2026-03-11T14:08:26Z</time><extensions><gpxtpx:TrackPointExtension><gpxtpx:atemp>3.2</gpxtpx:atemp></gpxtpx:TrackPointExtension></extensions></trkpt><trkpt lat="42.1790120658" lon="13.3924291190"><ele>2103.17</ele><time>2026-03-11T14:08:27Z</time><extensions><gpxtpx:TrackPointExtension><gpxtpx:atemp>3.2</gpxtpx:atemp></gpxtpx:TrackPointExtension></extensions></trkpt><trkpt lat="42.1790105570" lon="13.3924292866"><ele>2103.15</ele><time>2026-03-11T14:08:28Z</time><extensions><gpxtpx:TrackPointExtension><gpxtpx:atemp>3.2</gpxtpx:atemp></gpxtpx:TrackPointExtension></extensions></trkpt><trkpt lat="42.1790083777" lon="13.3924295381"><ele>2103.15</ele><time>2026-03-11T14:08:29Z</time><extensions><gpxtpx:TrackPointExtension><gpxtpx:atemp>3.2</gpxtpx:atemp></gpxtpx:TrackPointExtension></extensions></trkpt><trkpt lat="42.1790055279" lon="13.3924298733"><ele>2103.15</ele><time>2026-03-11T14:08:30Z</time><extensions><gpxtpx:TrackPointExtension><gpxtpx:atemp>3.2</gpxtpx:atemp></gpxtpx:TrackPointExtension></extensions></trkpt><trkpt lat="42.1790027618" lon="13.3924303763"><ele>2103.15</ele><time>2026-03-11T14:08:31Z</time><extensions><gpxtpx:TrackPointExtension><gpxtpx:atemp>3.2</gpxtpx:atemp></gpxtpx:TrackPointExtension></extensions></trkpt><trkpt lat="42.1789993253" lon="13.3924317174"><ele>2103.17</ele><time>2026-03-11T14:08:32Z</time><extensions><gpxtpx:TrackPointExtension><gpxtpx:atemp>3.0</gpxtpx:atemp></gpxtpx:TrackPointExtension></extensions></trkpt><trkpt lat="42.1789959725" lon="13.3924329747"><ele>2103.22</ele><time>2026-03-11T14:08:33Z</time><extensions><gpxtpx:TrackPointExtension><gpxtpx:atemp>3.0</gpxtpx:atemp></gpxtpx:TrackPointExtension></extensions></trkpt><trkpt lat="42.1789932903" lon="13.3924335614"><ele>2103.24</ele><time>2026-03-11T14:08:34Z</time><extensions><gpxtpx:TrackPointExtension><gpxtpx:atemp>3.0</gpxtpx:atemp></gpxtpx:TrackPointExtension></extensions></trkpt><trkpt lat="42.1789925359" lon="13.3924334776"><ele>2103.27</ele><time>2026-03-11T14:08:35Z</time><extensions><gpxtpx:TrackPointExtension><gpxtpx:atemp>3.0</gpxtpx:atemp></gpxtpx:TrackPointExtension></extensions></trkpt><trkpt lat="42.1789928712" lon="13.3924330585"><ele>2103.30</ele><time>2026-03-11T14:08:36Z</time><extensions><gpxtpx:TrackPointExtension><gpxtpx:atemp>3.0</gpxtpx:atemp></gpxtpx:TrackPointExtension></extensions></trkpt><trkpt lat="42.1789928712" lon="13.3924330585"><ele>2103.32</ele><time>2026-03-11T14:08:37Z</time><extensions><gpxtpx:TrackPointExtension><gpxtpx:atemp>3.0</gpxtpx:atemp></gpxtpx:TrackPointExtension></extensions></trkpt><trkpt lat="42.1789925359" lon="13.3924326394"><ele>2103.32</ele><time>2026-03-11T14:08:38Z</time><extensions><gpxtpx:TrackPointExtension><gpxtpx:atemp>3.0</gpxtpx:atemp></gpxtpx:TrackPointExtension></extensions></trkpt><trkpt lat="42.1789923683" lon="13.3924324717"><ele>2103.30</ele><time>2026-03-11T14:08:39Z</time><extensions><gpxtpx:TrackPointExtension><gpxtpx:atemp>3.0</gpxtpx:atemp></gpxtpx:TrackPointExtension></extensions></trkpt><trkpt lat="42.1789926197" lon="13.3924322203"><ele>2103.30</ele><time>2026-03-11T14:08:40Z</time><extensions><gpxtpx:TrackPointExtension><gpxtpx:atemp>3.0</gpxtpx:atemp></gpxtpx:TrackPointExtension></extensions></trkpt><trkpt lat="42.1789942961" lon="13.3924320526"><ele>2103.33</ele><time>2026-03-11T14:08:41Z</time><extensions><gpxtpx:TrackPointExtension><gpxtpx:atemp>3.0</gpxtpx:atemp></gpxtpx:TrackPointExtension></extensions></trkpt><trkpt lat="42.1789957210" lon="13.3924321365"><ele>2103.34</ele><time>2026-03-11T14:08:42Z</time><extensions><gpxtpx:TrackPointExtension><gpxtpx:atemp>3.0</gpxtpx:atemp></gpxtpx:TrackPointExtension></extensions></trkpt><trkpt lat="42.1789967269" lon="13.3924322203"><ele>2103.36</ele><time>2026-03-11T14:08:43Z</time><extensions><gpxtpx:TrackPointExtension><gpxtpx:atemp>3.0</gpxtpx:atemp></gpxtpx:TrackPointExtension></extensions></trkpt><trkpt lat="42.1789970621" lon="13.3924322203"><ele>2103.38</ele><time>2026-03-11T14:08:44Z</time><extensions><gpxtpx:TrackPointExtension><gpxtpx:atemp>3.0</gpxtpx:atemp></gpxtpx:TrackPointExtension></extensions></trkpt><trkpt lat="42.1789968945" lon="13.3924321365"><ele>2103.41</ele><time>2026-03-11T14:08:45Z</time><extensions><gpxtpx:TrackPointExtension><gpxtpx:atemp>3.0</gpxtpx:atemp></gpxtpx:TrackPointExtension></extensions></trkpt><trkpt lat="42.1789964754" lon="13.3924317174"><ele>2103.48</ele><time>2026-03-11T14:08:46Z</time><extensions><gpxtpx:TrackPointExtension><gpxtpx:atemp>3.0</gpxtpx:atemp></gpxtpx:TrackPointExtension></extensions></trkpt><trkpt lat="42.1789952181" lon="13.3924315497"><ele>2103.51</ele><time>2026-03-11T14:08:47Z</time><extensions><gpxtpx:TrackPointExtension><gpxtpx:atemp>3.0</gpxtpx:atemp></gpxtpx:TrackPointExtension></extensions></trkpt><trkpt lat="42.1789944638" lon="13.3924309630"><ele>2103.53</ele><time>2026-03-11T14:08:48Z</time><extensions><gpxtpx:TrackPointExtension><gpxtpx:atemp>3.0</gpxtpx:atemp></gpxtpx:TrackPointExtension></extensions></trkpt><trkpt lat="42.1789941285" lon="13.3924304601"><ele>2103.54</ele><time>2026-03-11T14:08:49Z</time><extensions><gpxtpx:TrackPointExtension><gpxtpx:atemp>3.0</gpxtpx:atemp></gpxtpx:TrackPointExtension></extensions></trkpt><trkpt lat="42.1789944638" lon="13.3924296219"><ele>2103.55</ele><time>2026-03-11T14:08:50Z</time><extensions><gpxtpx:TrackPointExtension><gpxtpx:atemp>3.0</gpxtpx:atemp></gpxtpx:TrackPointExtension></extensions></trkpt><trkpt lat="42.1789949667" lon="13.3924297895"><ele>2103.58</ele><time>2026-03-11T14:08:51Z</time><extensions><gpxtpx:TrackPointExtension><gpxtpx:atemp>3.0</gpxtpx:atemp></gpxtpx:TrackPointExtension></extensions></trkpt><trkpt lat="42.1789951343" lon="13.3924306277"><ele>2103.60</ele><time>2026-03-11T14:08:52Z</time><extensions><gpxtpx:TrackPointExtension><gpxtpx:atemp>3.0</gpxtpx:atemp></gpxtpx:TrackPointExtension></extensions></trkpt><trkpt lat="42.1789956372" lon="13.3924319688"><ele>2103.64</ele><time>2026-03-11T14:08:53Z</time><extensions><gpxtpx:TrackPointExtension><gpxtpx:atemp>3.0</gpxtpx:atemp></gpxtpx:TrackPointExtension></extensions></trkpt><trkpt lat="42.1789964754" lon="13.3924328908"><ele>2103.66</ele><time>2026-03-11T14:08:54Z</time><extensions><gpxtpx:TrackPointExtension><gpxtpx:atemp>3.0</gpxtpx:atemp></gpxtpx:TrackPointExtension></extensions></trkpt><trkpt lat="42.1789977327" lon="13.3924335614"><ele>2103.67</ele><time>2026-03-11T14:08:55Z</time><extensions><gpxtpx:TrackPointExtension><gpxtpx:atemp>3.0</gpxtpx:atemp></gpxtpx:TrackPointExtension></extensions></trkpt><trkpt lat="42.1789992414" lon="13.3924346510"><ele>2103.68</ele><time>2026-03-11T14:08:56Z</time><extensions><gpxtpx:TrackPointExtension><gpxtpx:atemp>3.0</gpxtpx:atemp></gpxtpx:TrackPointExtension></extensions></trkpt><trkpt lat="42.1790000796" lon="13.3924370818"><ele>2103.69</ele><time>2026-03-11T14:08:57Z</time><extensions><gpxtpx:TrackPointExtension><gpxtpx:atemp>3.0</gpxtpx:atemp></gpxtpx:TrackPointExtension></extensions></trkpt><trkpt lat="42.1790013369" lon="13.3924390934"><ele>2103.65</ele><time>2026-03-11T14:08:58Z</time><extensions><gpxtpx:TrackPointExtension><gpxtpx:atemp>3.0</gpxtpx:atemp></gpxtpx:TrackPointExtension></extensions></trkpt><trkpt lat="42.1790029295" lon="13.3924394287"><ele>2103.57</ele><time>2026-03-11T14:08:59Z</time><extensions><gpxtpx:TrackPointExtension><gpxtpx:atemp>3.0</gpxtpx:atemp></gpxtpx:TrackPointExtension></extensions></trkpt><trkpt lat="42.1790051926" lon="13.3924386743"><ele>2103.49</ele><time>2026-03-11T14:09:00Z</time><extensions><gpxtpx:TrackPointExtension><gpxtpx:atemp>3.0</gpxtpx:atemp></gpxtpx:TrackPointExtension></extensions></trkpt><trkpt lat="42.1790061984" lon="13.3924371656"><ele>2103.45</ele><time>2026-03-11T14:09:01Z</time><extensions><gpxtpx:TrackPointExtension><gpxtpx:atemp>3.0</gpxtpx:atemp></gpxtpx:TrackPointExtension></extensions></trkpt><trkpt lat="42.1790063661" lon="13.3924331423"><ele>2103.43</ele><time>2026-03-11T14:09:02Z</time><extensions><gpxtpx:TrackPointExtension><gpxtpx:atemp>3.0</gpxtpx:atemp></gpxtpx:TrackPointExtension></extensions></trkpt><trkpt lat="42.1790070366" lon="13.3924252633"><ele>2103.43</ele><time>2026-03-11T14:09:03Z</time><extensions><gpxtpx:TrackPointExtension><gpxtpx:atemp>3.0</gpxtpx:atemp></gpxtpx:TrackPointExtension></extensions></trkpt><trkpt lat="42.1790080424" lon="13.3924183901"><ele>2103.50</ele><time>2026-03-11T14:09:04Z</time><extensions><gpxtpx:TrackPointExtension><gpxtpx:atemp>3.0</gpxtpx:atemp></gpxtpx:TrackPointExtension></extensions></trkpt><trkpt lat="42.1790092997" lon="13.3924136963"><ele>2103.63</ele><time>2026-03-11T14:09:05Z</time><extensions><gpxtpx:TrackPointExtension><gpxtpx:atemp>3.0</gpxtpx:atemp></gpxtpx:TrackPointExtension></extensions></trkpt><trkpt lat="42.1790082939" lon="13.3924121875"><ele>2103.78</ele><time>2026-03-11T14:09:06Z</time><extensions><gpxtpx:TrackPointExtension><gpxtpx:atemp>3.0</gpxtpx:atemp></gpxtpx:TrackPointExtension></extensions></trkpt><trkpt lat="42.1790058631" lon="13.3924070746"><ele>2103.91</ele><time>2026-03-11T14:09:07Z</time><extensions><gpxtpx:TrackPointExtension><gpxtpx:atemp>3.0</gpxtpx:atemp></gpxtpx:TrackPointExtension></extensions></trkpt><trkpt lat="42.1790018398" lon="13.3924071584"><ele>2104.01</ele><time>2026-03-11T14:09:08Z</time><extensions><gpxtpx:TrackPointExtension><gpxtpx:atemp>3.0</gpxtpx:atemp></gpxtpx:TrackPointExtension></extensions></trkpt><trkpt lat="42.1789981518" lon="13.3924093377"><ele>2104.07</ele><time>2026-03-11T14:09:09Z</time><extensions><gpxtpx:TrackPointExtension><gpxtpx:atemp>3.0</gpxtpx:atemp></gpxtpx:TrackPointExtension></extensions></trkpt><trkpt lat="42.1789954696" lon="13.3924143668"><ele>2104.13</ele><time>2026-03-11T14:09:10Z</time><extensions><gpxtpx:TrackPointExtension><gpxtpx:atemp>3.0</gpxtpx:atemp></gpxtpx:TrackPointExtension></extensions></trkpt><trkpt lat="42.1789935417" lon="13.3924140316"><ele>2104.14</ele><time>2026-03-11T14:09:11Z</time><extensions><gpxtpx:TrackPointExtension><gpxtpx:atemp>3.0</gpxtpx:atemp></gpxtpx:TrackPointExtension></extensions></trkpt><trkpt lat="42.1789922845" lon="13.3924116846"><ele>2104.12</ele><time>2026-03-11T14:09:12Z</time><extensions><gpxtpx:TrackPointExtension><gpxtpx:atemp>3.0</gpxtpx:atemp></gpxtpx:TrackPointExtension></extensions></trkpt><trkpt lat="42.1789907757" lon="13.3924091700"><ele>2104.11</ele><time>2026-03-11T14:09:13Z</time><extensions><gpxtpx:TrackPointExtension><gpxtpx:atemp>3.0</gpxtpx:atemp></gpxtpx:TrackPointExtension></extensions></trkpt><trkpt lat="42.1789895184" lon="13.3924075775"><ele>2104.10</ele><time>2026-03-11T14:09:14Z</time><extensions><gpxtpx:TrackPointExtension><gpxtpx:atemp>3.0</gpxtpx:atemp></gpxtpx:TrackPointExtension></extensions></trkpt><trkpt lat="42.1789889317" lon="13.3924105950"><ele>2104.09</ele><time>2026-03-11T14:09:15Z</time><extensions><gpxtpx:TrackPointExtension><gpxtpx:atemp>3.0</gpxtpx:atemp></gpxtpx:TrackPointExtension></extensions></trkpt><trkpt lat="42.1789890993" lon="13.3924149536"><ele>2104.05</ele><time>2026-03-11T14:09:16Z</time><extensions><gpxtpx:TrackPointExtension><gpxtpx:atemp>3.0</gpxtpx:atemp></gpxtpx:TrackPointExtension></extensions></trkpt><trkpt lat="42.1789905243" lon="13.3924177196"><ele>2103.94</ele><time>2026-03-11T14:09:17Z</time><extensions><gpxtpx:TrackPointExtension><gpxtpx:atemp>3.0</gpxtpx:atemp></gpxtpx:TrackPointExtension></extensions></trkpt><trkpt lat="42.1789934579" lon="13.3924116846"><ele>2103.84</ele><time>2026-03-11T14:09:18Z</time><extensions><gpxtpx:TrackPointExtension><gpxtpx:atemp>3.0</gpxtpx:atemp></gpxtpx:TrackPointExtension></extensions></trkpt><trkpt lat="42.1789993253" lon="13.3924000338"><ele>2103.79</ele><time>2026-03-11T14:09:19Z</time><extensions><gpxtpx:TrackPointExtension><gpxtpx:atemp>3.0</gpxtpx:atemp></gpxtpx:TrackPointExtension></extensions></trkpt><trkpt lat="42.1790025942" lon="13.3923886344"><ele>2103.75</ele><time>2026-03-11T14:09:20Z</time><extensions><gpxtpx:TrackPointExtension><gpxtpx:atemp>3.0</gpxtpx:atemp></gpxtpx:TrackPointExtension></extensions></trkpt><trkpt lat="42.1790038515" lon="13.3923808392"><ele>2103.75</ele><time>2026-03-11T14:09:21Z</time><extensions><gpxtpx:TrackPointExtension><gpxtpx:atemp>3.0</gpxtpx:atemp></gpxtpx:TrackPointExtension></extensions></trkpt><trkpt lat="42.1790036839" lon="13.3923769835"><ele>2103.82</ele><time>2026-03-11T14:09:22Z</time><extensions><gpxtpx:TrackPointExtension><gpxtpx:atemp>3.0</gpxtpx:atemp></gpxtpx:TrackPointExtension></extensions></trkpt><trkpt lat="42.1790079586" lon="13.3923732955"><ele>2103.94</ele><time>2026-03-11T14:09:23Z</time><extensions><gpxtpx:TrackPointExtension><gpxtpx:atemp>3.0</gpxtpx:atemp></gpxtpx:TrackPointExtension></extensions></trkpt><trkpt lat="42.1790121496" lon="13.3923701942"><ele>2103.99</ele><time>2026-03-11T14:09:24Z</time><extensions><gpxtpx:TrackPointExtension><gpxtpx:atemp>3.0</gpxtpx:atemp></gpxtpx:TrackPointExtension></extensions></trkpt><trkpt lat="42.1790158376" lon="13.3923695236"><ele>2104.04</ele><time>2026-03-11T14:09:25Z</time><extensions><gpxtpx:TrackPointExtension><gpxtpx:atemp>3.0</gpxtpx:atemp></gpxtpx:TrackPointExtension></extensions></trkpt><trkpt lat="42.1790175978" lon="13.3923736308"><ele>2104.06</ele><time>2026-03-11T14:09:26Z</time><extensions><gpxtpx:TrackPointExtension><gpxtpx:atemp>3.0</gpxtpx:atemp></gpxtpx:TrackPointExtension></extensions></trkpt><trkpt lat="42.1790204477" lon="13.3923785761"><ele>2104.06</ele><time>2026-03-11T14:09:27Z</time><extensions><gpxtpx:TrackPointExtension><gpxtpx:atemp>3.0</gpxtpx:atemp></gpxtpx:TrackPointExtension></extensions></trkpt><trkpt lat="42.1790219564" lon="13.3923825994"><ele>2104.02</ele><time>2026-03-11T14:09:28Z</time><extensions><gpxtpx:TrackPointExtension><gpxtpx:atemp>3.0</gpxtpx:atemp></gpxtpx:TrackPointExtension></extensions></trkpt><trkpt lat="42.1790218726" lon="13.3923816774"><ele>2103.98</ele><time>2026-03-11T14:09:29Z</time><extensions><gpxtpx:TrackPointExtension><gpxtpx:atemp>3.0</gpxtpx:atemp></gpxtpx:TrackPointExtension></extensions></trkpt><trkpt lat="42.1790222917" lon="13.3923766483"><ele>2103.96</ele><time>2026-03-11T14:09:30Z</time><extensions><gpxtpx:TrackPointExtension><gpxtpx:atemp>3.0</gpxtpx:atemp></gpxtpx:TrackPointExtension></extensions></trkpt><trkpt lat="42.1790232975" lon="13.3923699427"><ele>2103.95</ele><time>2026-03-11T14:09:31Z</time><extensions><gpxtpx:TrackPointExtension><gpxtpx:atemp>3.0</gpxtpx:atemp></gpxtpx:TrackPointExtension></extensions></trkpt><trkpt lat="42.1790249739" lon="13.3923646621"><ele>2103.94</ele><time>2026-03-11T14:09:32Z</time><extensions><gpxtpx:TrackPointExtension><gpxtpx:atemp>3.0</gpxtpx:atemp></gpxtpx:TrackPointExtension></extensions></trkpt><trkpt lat="42.1790252253" lon="13.3923643269"><ele>2103.94</ele><time>2026-03-11T14:09:33Z</time><extensions><gpxtpx:TrackPointExtension><gpxtpx:atemp>3.0</gpxtpx:atemp></gpxtpx:TrackPointExtension></extensions></trkpt><trkpt lat="42.1790254768" lon="13.3923642430"><ele>2103.94</ele><time>2026-03-11T14:09:34Z</time><extensions><gpxtpx:TrackPointExtension><gpxtpx:atemp>3.0</gpxtpx:atemp></gpxtpx:TrackPointExtension></extensions></trkpt><trkpt lat="42.1790252253" lon="13.3923648298"><ele>2103.91</ele><time>2026-03-11T14:09:35Z</time><extensions><gpxtpx:TrackPointExtension><gpxtpx:atemp>3.0</gpxtpx:atemp></gpxtpx:TrackPointExtension></extensions></trkpt><trkpt lat="42.1790251415" lon="13.3923625667"><ele>2103.90</ele><time>2026-03-11T14:09:36Z</time><extensions><gpxtpx:TrackPointExtension><gpxtpx:atemp>3.0</gpxtpx:atemp></gpxtpx:TrackPointExtension></extensions></trkpt><trkpt lat="42.1790252253" lon="13.3923601359"><ele>2103.90</ele><time>2026-03-11T14:09:37Z</time><extensions><gpxtpx:TrackPointExtension><gpxtpx:atemp>3.0</gpxtpx:atemp></gpxtpx:TrackPointExtension></extensions></trkpt><trkpt lat="42.1790280752" lon="13.3923558611"><ele>2103.93</ele><time>2026-03-11T14:09:38Z</time><extensions><gpxtpx:TrackPointExtension><gpxtpx:atemp>3.0</gpxtpx:atemp></gpxtpx:TrackPointExtension></extensions></trkpt><trkpt lat="42.1790323500" lon="13.3923497424"><ele>2103.95</ele><time>2026-03-11T14:09:39Z</time><extensions><gpxtpx:TrackPointExtension><gpxtpx:atemp>3.0</gpxtpx:atemp></gpxtpx:TrackPointExtension></extensions></trkpt><trkpt lat="42.1790383849" lon="13.3923416957"><ele>2103.95</ele><time>2026-03-11T14:09:40Z</time><extensions><gpxtpx:TrackPointExtension><gpxtpx:atemp>3.0</gpxtpx:atemp></gpxtpx:TrackPointExtension></extensions></trkpt><trkpt lat="42.1790478565" lon="13.3923283685"><ele>2103.95</ele><time>2026-03-11T14:09:41Z</time><extensions><gpxtpx:TrackPointExtension><gpxtpx:atemp>3.0</gpxtpx:atemp></gpxtpx:TrackPointExtension></extensions></trkpt><trkpt lat="42.1790616866" lon="13.3923152927"><ele>2103.95</ele><time>2026-03-11T14:09:42Z</time><extensions><gpxtpx:TrackPointExtension><gpxtpx:atemp>3.0</gpxtpx:atemp></gpxtpx:TrackPointExtension></extensions></trkpt><trkpt lat="42.1790729184" lon="13.3923037257"><ele>2103.93</ele><time>2026-03-11T14:09:43Z</time><extensions><gpxtpx:TrackPointExtension><gpxtpx:atemp>3.0</gpxtpx:atemp></gpxtpx:TrackPointExtension></extensions></trkpt><trkpt lat="42.1790803783" lon="13.3922965173"><ele>2103.86</ele><time>2026-03-11T14:09:44Z</time><extensions><gpxtpx:TrackPointExtension><gpxtpx:atemp>3.0</gpxtpx:atemp></gpxtpx:TrackPointExtension></extensions></trkpt><trkpt lat="42.1790843178" lon="13.3922896441"><ele>2103.84</ele><time>2026-03-11T14:09:45Z</time><extensions><gpxtpx:TrackPointExtension><gpxtpx:atemp>3.0</gpxtpx:atemp></gpxtpx:TrackPointExtension></extensions></trkpt><trkpt lat="42.1790898498" lon="13.3922827709"><ele>2103.83</ele><time>2026-03-11T14:09:46Z</time><extensions><gpxtpx:TrackPointExtension><gpxtpx:atemp>3.0</gpxtpx:atemp></gpxtpx:TrackPointExtension></extensions></trkpt><trkpt lat="42.1790946275" lon="13.3922784962"><ele>2103.82</ele><time>2026-03-11T14:09:47Z</time><extensions><gpxtpx:TrackPointExtension><gpxtpx:atemp>3.0</gpxtpx:atemp></gpxtpx:TrackPointExtension></extensions></trkpt><trkpt lat="42.1790946275" lon="13.3922784962"><ele>2103.82</ele><time>2026-03-11T14:09:47Z</time><extensions><gpxtpx:TrackPointExtension><gpxtpx:atemp>3.0</gpxtpx:atemp></gpxtpx:TrackPointExtension></extensions></trkpt><trkpt lat="42.1790959686" lon="13.3922778256"><ele>2103.80</ele><time>2026-03-11T14:09:48Z</time><extensions><gpxtpx:TrackPointExtension><gpxtpx:atemp>3.0</gpxtpx:atemp></gpxtpx:TrackPointExtension></extensions></trkpt><trkpt lat="42.1790953819" lon="13.3922780771"><ele>2103.79</ele><time>2026-03-11T14:09:49Z</time><extensions><gpxtpx:TrackPointExtension><gpxtpx:atemp>3.0</gpxtpx:atemp></gpxtpx:TrackPointExtension></extensions></trkpt><trkpt lat="42.1790921967" lon="13.3922755625"><ele>2103.75</ele><time>2026-03-11T14:09:50Z</time><extensions><gpxtpx:TrackPointExtension><gpxtpx:atemp>3.0</gpxtpx:atemp></gpxtpx:TrackPointExtension></extensions></trkpt><trkpt lat="42.1790905204" lon="13.3922706172"><ele>2103.72</ele><time>2026-03-11T14:09:51Z</time><extensions><gpxtpx:TrackPointExtension><gpxtpx:atemp>3.0</gpxtpx:atemp></gpxtpx:TrackPointExtension></extensions></trkpt><trkpt lat="42.1790907718" lon="13.3922633249"><ele>2103.68</ele><time>2026-03-11T14:09:52Z</time><extensions><gpxtpx:TrackPointExtension><gpxtpx:atemp>3.0</gpxtpx:atemp></gpxtpx:TrackPointExtension></extensions></trkpt><trkpt lat="42.1790929511" lon="13.3922553621"><ele>2103.61</ele><time>2026-03-11T14:09:53Z</time><extensions><gpxtpx:TrackPointExtension><gpxtpx:atemp>3.0</gpxtpx:atemp></gpxtpx:TrackPointExtension></extensions></trkpt><trkpt lat="42.1790960524" lon="13.3922468964"><ele>2103.59</ele><time>2026-03-11T14:09:54Z</time><extensions><gpxtpx:TrackPointExtension><gpxtpx:atemp>3.0</gpxtpx:atemp></gpxtpx:TrackPointExtension></extensions></trkpt><trkpt lat="42.1791008301" lon="13.3922375925"><ele>2103.53</ele><time>2026-03-11T14:09:55Z</time><extensions><gpxtpx:TrackPointExtension><gpxtpx:atemp>3.0</gpxtpx:atemp></gpxtpx:TrackPointExtension></extensions></trkpt><trkpt lat="42.1791124810" lon="13.3922216669"><ele>2103.44</ele><time>2026-03-11T14:09:56Z</time><extensions><gpxtpx:TrackPointExtension><gpxtpx:atemp>3.0</gpxtpx:atemp></gpxtpx:TrackPointExtension></extensions></trkpt><trkpt lat="42.1791230422" lon="13.3922078367"><ele>2103.40</ele><time>2026-03-11T14:09:57Z</time><extensions><gpxtpx:TrackPointExtension><gpxtpx:atemp>3.0</gpxtpx:atemp></gpxtpx:TrackPointExtension></extensions></trkpt><trkpt lat="42.1791331843" lon="13.3921948448"><ele>2103.37</ele><time>2026-03-11T14:09:58Z</time><extensions><gpxtpx:TrackPointExtension><gpxtpx:atemp>3.0</gpxtpx:atemp></gpxtpx:TrackPointExtension></extensions></trkpt><trkpt lat="42.1791364532" lon="13.3921882231"><ele>2103.37</ele><time>2026-03-11T14:09:59Z</time><extensions><gpxtpx:TrackPointExtension><gpxtpx:atemp>3.0</gpxtpx:atemp></gpxtpx:TrackPointExtension></extensions></trkpt><trkpt lat="42.1791399736" lon="13.3921787515"><ele>2103.34</ele><time>2026-03-11T14:10:00Z</time><extensions><gpxtpx:TrackPointExtension><gpxtpx:atemp>3.0</gpxtpx:atemp></gpxtpx:TrackPointExtension></extensions></trkpt><trkpt lat="42.1791410632" lon="13.3921687771"><ele>2103.32</ele><time>2026-03-11T14:10:01Z</time><extensions><gpxtpx:TrackPointExtension><gpxtpx:atemp>3.0</gpxtpx:atemp></gpxtpx:TrackPointExtension></extensions></trkpt><trkpt lat="42.1791388839" lon="13.3921616524"><ele>2103.32</ele><time>2026-03-11T14:10:02Z</time><extensions><gpxtpx:TrackPointExtension><gpxtpx:atemp>3.0</gpxtpx:atemp></gpxtpx:TrackPointExtension></extensions></trkpt><trkpt lat="42.1791331843" lon="13.3921632450"><ele>2103.34</ele><time>2026-03-11T14:10:03Z</time><extensions><gpxtpx:TrackPointExtension><gpxtpx:atemp>3.0</gpxtpx:atemp></gpxtpx:TrackPointExtension></extensions></trkpt><trkpt lat="42.1791214496" lon="13.3921857923"><ele>2103.35</ele><time>2026-03-11T14:10:04Z</time><extensions><gpxtpx:TrackPointExtension><gpxtpx:atemp>3.0</gpxtpx:atemp></gpxtpx:TrackPointExtension></extensions></trkpt><trkpt lat="42.1791121457" lon="13.3922083396"><ele>2103.38</ele><time>2026-03-11T14:10:05Z</time><extensions><gpxtpx:TrackPointExtension><gpxtpx:atemp>3.0</gpxtpx:atemp></gpxtpx:TrackPointExtension></extensions></trkpt><trkpt lat="42.1791056916" lon="13.3922263607"><ele>2103.44</ele><time>2026-03-11T14:10:06Z</time><extensions><gpxtpx:TrackPointExtension><gpxtpx:atemp>3.0</gpxtpx:atemp></gpxtpx:TrackPointExtension></extensions></trkpt><trkpt lat="42.1791053563" lon="13.3922277857"><ele>2103.49</ele><time>2026-03-11T14:10:07Z</time><extensions><gpxtpx:TrackPointExtension><gpxtpx:atemp>3.0</gpxtpx:atemp></gpxtpx:TrackPointExtension></extensions></trkpt><trkpt lat="42.1791037638" lon="13.3922338206"><ele>2103.53</ele><time>2026-03-11T14:10:08Z</time><extensions><gpxtpx:TrackPointExtension><gpxtpx:atemp>3.0</gpxtpx:atemp></gpxtpx:TrackPointExtension></extensions></trkpt><trkpt lat="42.1791030932" lon="13.3922390174"><ele>2103.57</ele><time>2026-03-11T14:10:09Z</time><extensions><gpxtpx:TrackPointExtension><gpxtpx:atemp>3.0</gpxtpx:atemp></gpxtpx:TrackPointExtension></extensions></trkpt><trkpt lat="42.1791025903" lon="13.3922436275"><ele>2103.63</ele><time>2026-03-11T14:10:10Z</time><extensions><gpxtpx:TrackPointExtension><gpxtpx:atemp>3.0</gpxtpx:atemp></gpxtpx:TrackPointExtension></extensions></trkpt><trkpt lat="42.1791033447" lon="13.3922444656"><ele>2103.71</ele><time>2026-03-11T14:10:11Z</time><extensions><gpxtpx:TrackPointExtension><gpxtpx:atemp>3.0</gpxtpx:atemp></gpxtpx:TrackPointExtension></extensions></trkpt><trkpt lat="42.1791036800" lon="13.3922452200"><ele>2103.80</ele><time>2026-03-11T14:10:12Z</time><extensions><gpxtpx:TrackPointExtension><gpxtpx:atemp>3.0</gpxtpx:atemp></gpxtpx:TrackPointExtension></extensions></trkpt><trkpt lat="42.1791048534" lon="13.3922491595"><ele>2103.87</ele><time>2026-03-11T14:10:13Z</time><extensions><gpxtpx:TrackPointExtension><gpxtpx:atemp>3.0</gpxtpx:atemp></gpxtpx:TrackPointExtension></extensions></trkpt><trkpt lat="42.1791046858" lon="13.3922504168"><ele>2103.94</ele><time>2026-03-11T14:10:14Z</time><extensions><gpxtpx:TrackPointExtension><gpxtpx:atemp>3.0</gpxtpx:atemp></gpxtpx:TrackPointExtension></extensions></trkpt><trkpt lat="42.1791043505" lon="13.3922538534"><ele>2103.99</ele><time>2026-03-11T14:10:15Z</time><extensions><gpxtpx:TrackPointExtension><gpxtpx:atemp>3.0</gpxtpx:atemp></gpxtpx:TrackPointExtension></extensions></trkpt><trkpt lat="42.1791041829" lon="13.3922557812"><ele>2104.02</ele><time>2026-03-11T14:10:16Z</time><extensions><gpxtpx:TrackPointExtension><gpxtpx:atemp>3.0</gpxtpx:atemp></gpxtpx:TrackPointExtension></extensions></trkpt><trkpt lat="42.1791050211" lon="13.3922612295"><ele>2104.02</ele><time>2026-03-11T14:10:17Z</time><extensions><gpxtpx:TrackPointExtension><gpxtpx:atemp>3.0</gpxtpx:atemp></gpxtpx:TrackPointExtension></extensions></trkpt><trkpt lat="42.1791051887" lon="13.3922658395"><ele>2104.02</ele><time>2026-03-11T14:10:18Z</time><extensions><gpxtpx:TrackPointExtension><gpxtpx:atemp>3.0</gpxtpx:atemp></gpxtpx:TrackPointExtension></extensions></trkpt><trkpt lat="42.1791032609" lon="13.3922671806"><ele>2104.02</ele><time>2026-03-11T14:10:19Z</time><extensions><gpxtpx:TrackPointExtension><gpxtpx:atemp>3.0</gpxtpx:atemp></gpxtpx:TrackPointExtension></extensions></trkpt><trkpt lat="42.1791019198" lon="13.3922668453"><ele>2104.02</ele><time>2026-03-11T14:10:20Z</time><extensions><gpxtpx:TrackPointExtension><gpxtpx:atemp>3.0</gpxtpx:atemp></gpxtpx:TrackPointExtension></extensions></trkpt><trkpt lat="42.1791019198" lon="13.3922671806"><ele>2104.02</ele><time>2026-03-11T14:10:21Z</time><extensions><gpxtpx:TrackPointExtension><gpxtpx:atemp>3.0</gpxtpx:atemp></gpxtpx:TrackPointExtension></extensions></trkpt><trkpt lat="42.1791057754" lon="13.3922686893"><ele>2104.02</ele><time>2026-03-11T14:10:22Z</time><extensions><gpxtpx:TrackPointExtension><gpxtpx:atemp>3.0</gpxtpx:atemp></gpxtpx:TrackPointExtension></extensions></trkpt><trkpt lat="42.1791080385" lon="13.3922698628"><ele>2104.01</ele><time>2026-03-11T14:10:23Z</time><extensions><gpxtpx:TrackPointExtension><gpxtpx:atemp>3.0</gpxtpx:atemp></gpxtpx:TrackPointExtension></extensions></trkpt><trkpt lat="42.1791095473" lon="13.3922696952"><ele>2103.98</ele><time>2026-03-11T14:10:24Z</time><extensions><gpxtpx:TrackPointExtension><gpxtpx:atemp>3.0</gpxtpx:atemp></gpxtpx:TrackPointExtension></extensions></trkpt><trkpt lat="42.1791030932" lon="13.3922729641"><ele>2103.96</ele><time>2026-03-11T14:10:25Z</time><extensions><gpxtpx:TrackPointExtension><gpxtpx:atemp>3.0</gpxtpx:atemp></gpxtpx:TrackPointExtension></extensions></trkpt><trkpt lat="42.1790948790" lon="13.3922809269"><ele>2103.96</ele><time>2026-03-11T14:10:26Z</time><extensions><gpxtpx:TrackPointExtension><gpxtpx:atemp>3.0</gpxtpx:atemp></gpxtpx:TrackPointExtension></extensions></trkpt><trkpt lat="42.1790852398" lon="13.3922882192"><ele>2103.94</ele><time>2026-03-11T14:10:27Z</time><extensions><gpxtpx:TrackPointExtension><gpxtpx:atemp>3.0</gpxtpx:atemp></gpxtpx:TrackPointExtension></extensions></trkpt><trkpt lat="42.1790792886" lon="13.3922938351"><ele>2103.94</ele><time>2026-03-11T14:10:28Z</time><extensions><gpxtpx:TrackPointExtension><gpxtpx:atemp>3.0</gpxtpx:atemp></gpxtpx:TrackPointExtension></extensions></trkpt><trkpt lat="42.1790771931" lon="13.3922967687"><ele>2103.90</ele><time>2026-03-11T14:10:29Z</time><extensions><gpxtpx:TrackPointExtension><gpxtpx:atemp>3.0</gpxtpx:atemp></gpxtpx:TrackPointExtension></extensions></trkpt><trkpt lat="42.1790765226" lon="13.3923061565"><ele>2103.87</ele><time>2026-03-11T14:10:30Z</time><extensions><gpxtpx:TrackPointExtension><gpxtpx:atemp>3.0</gpxtpx:atemp></gpxtpx:TrackPointExtension></extensions></trkpt><trkpt lat="42.1790773608" lon="13.3923143707"><ele>2103.87</ele><time>2026-03-11T14:10:31Z</time><extensions><gpxtpx:TrackPointExtension><gpxtpx:atemp>3.0</gpxtpx:atemp></gpxtpx:TrackPointExtension></extensions></trkpt><trkpt lat="42.1790768579" lon="13.3923213277"><ele>2103.87</ele><time>2026-03-11T14:10:32Z</time><extensions><gpxtpx:TrackPointExtension><gpxtpx:atemp>3.0</gpxtpx:atemp></gpxtpx:TrackPointExtension></extensions></trkpt><trkpt lat="42.1790768579" lon="13.3923216630"><ele>2103.88</ele><time>2026-03-11T14:10:33Z</time><extensions><gpxtpx:TrackPointExtension><gpxtpx:atemp>3.0</gpxtpx:atemp></gpxtpx:TrackPointExtension></extensions></trkpt><trkpt lat="42.1790766902" lon="13.3923232555"><ele>2103.90</ele><time>2026-03-11T14:10:34Z</time><extensions><gpxtpx:TrackPointExtension><gpxtpx:atemp>3.2</gpxtpx:atemp></gpxtpx:TrackPointExtension></extensions></trkpt><trkpt lat="42.1790761873" lon="13.3923247643"><ele>2103.94</ele><time>2026-03-11T14:10:35Z</time><extensions><gpxtpx:TrackPointExtension><gpxtpx:atemp>3.2</gpxtpx:atemp></gpxtpx:TrackPointExtension></extensions></trkpt><trkpt lat="42.1790750977" lon="13.3923273627"><ele>2103.99</ele><time>2026-03-11T14:10:36Z</time><extensions><gpxtpx:TrackPointExtension><gpxtpx:atemp>3.2</gpxtpx:atemp></gpxtpx:TrackPointExtension></extensions></trkpt><trkpt lat="42.1790726669" lon="13.3923317213"><ele>2104.01</ele><time>2026-03-11T14:10:37Z</time><extensions><gpxtpx:TrackPointExtension><gpxtpx:atemp>3.2</gpxtpx:atemp></gpxtpx:TrackPointExtension></extensions></trkpt><trkpt lat="42.1790700685" lon="13.3923372533"><ele>2104.03</ele><time>2026-03-11T14:10:38Z</time><extensions><gpxtpx:TrackPointExtension><gpxtpx:atemp>3.2</gpxtpx:atemp></gpxtpx:TrackPointExtension></extensions></trkpt><trkpt lat="42.1790674701" lon="13.3923444618"><ele>2104.03</ele><time>2026-03-11T14:10:39Z</time><extensions><gpxtpx:TrackPointExtension><gpxtpx:atemp>3.2</gpxtpx:atemp></gpxtpx:TrackPointExtension></extensions></trkpt><trkpt lat="42.1790638659" lon="13.3923524246"><ele>2104.03</ele><time>2026-03-11T14:10:40Z</time><extensions><gpxtpx:TrackPointExtension><gpxtpx:atemp>3.2</gpxtpx:atemp></gpxtpx:TrackPointExtension></extensions></trkpt><trkpt lat="42.1790579986" lon="13.3923609741"><ele>2103.91</ele><time>2026-03-11T14:10:41Z</time><extensions><gpxtpx:TrackPointExtension><gpxtpx:atemp>3.2</gpxtpx:atemp></gpxtpx:TrackPointExtension></extensions></trkpt><trkpt lat="42.1790524665" lon="13.3923663385"><ele>2103.86</ele><time>2026-03-11T14:10:42Z</time><extensions><gpxtpx:TrackPointExtension><gpxtpx:atemp>3.2</gpxtpx:atemp></gpxtpx:TrackPointExtension></extensions></trkpt><trkpt lat="42.1790495329" lon="13.3923675958"><ele>2103.85</ele><time>2026-03-11T14:10:43Z</time><extensions><gpxtpx:TrackPointExtension><gpxtpx:atemp>3.2</gpxtpx:atemp></gpxtpx:TrackPointExtension></extensions></trkpt><trkpt lat="42.1790475212" lon="13.3923702780"><ele>2103.84</ele><time>2026-03-11T14:10:44Z</time><extensions><gpxtpx:TrackPointExtension><gpxtpx:atemp>3.2</gpxtpx:atemp></gpxtpx:TrackPointExtension></extensions></trkpt><trkpt lat="42.1790468507" lon="13.3923783246"><ele>2103.88</ele><time>2026-03-11T14:10:45Z</time><extensions><gpxtpx:TrackPointExtension><gpxtpx:atemp>3.2</gpxtpx:atemp></gpxtpx:TrackPointExtension></extensions></trkpt><trkpt lat="42.1790450905" lon="13.3923880477"><ele>2103.99</ele><time>2026-03-11T14:10:46Z</time><extensions><gpxtpx:TrackPointExtension><gpxtpx:atemp>3.2</gpxtpx:atemp></gpxtpx:TrackPointExtension></extensions></trkpt><trkpt lat="42.1790448390" lon="13.3923973516"><ele>2104.11</ele><time>2026-03-11T14:10:47Z</time><extensions><gpxtpx:TrackPointExtension><gpxtpx:atemp>3.2</gpxtpx:atemp></gpxtpx:TrackPointExtension></extensions></trkpt><trkpt lat="42.1790426597" lon="13.3924044762"><ele>2104.18</ele><time>2026-03-11T14:10:48Z</time><extensions><gpxtpx:TrackPointExtension><gpxtpx:atemp>3.2</gpxtpx:atemp></gpxtpx:TrackPointExtension></extensions></trkpt><trkpt lat="42.1790412348" lon="13.3924110979"><ele>2104.21</ele><time>2026-03-11T14:10:49Z</time><extensions><gpxtpx:TrackPointExtension><gpxtpx:atemp>3.2</gpxtpx:atemp></gpxtpx:TrackPointExtension></extensions></trkpt><trkpt lat="42.1790397260" lon="13.3924161270"><ele>2104.22</ele><time>2026-03-11T14:10:50Z</time><extensions><gpxtpx:TrackPointExtension><gpxtpx:atemp>3.2</gpxtpx:atemp></gpxtpx:TrackPointExtension></extensions></trkpt><trkpt lat="42.1790385526" lon="13.3924208209"><ele>2104.21</ele><time>2026-03-11T14:10:51Z</time><extensions><gpxtpx:TrackPointExtension><gpxtpx:atemp>3.2</gpxtpx:atemp></gpxtpx:TrackPointExtension></extensions></trkpt><trkpt lat="42.1790374629" lon="13.3924245927"><ele>2104.12</ele><time>2026-03-11T14:10:52Z</time><extensions><gpxtpx:TrackPointExtension><gpxtpx:atemp>3.2</gpxtpx:atemp></gpxtpx:TrackPointExtension></extensions></trkpt><trkpt lat="42.1790367924" lon="13.3924280293"><ele>2104.09</ele><time>2026-03-11T14:10:53Z</time><extensions><gpxtpx:TrackPointExtension><gpxtpx:atemp>3.2</gpxtpx:atemp></gpxtpx:TrackPointExtension></extensions></trkpt><trkpt lat="42.1790367924" lon="13.3924293704"><ele>2104.10</ele><time>2026-03-11T14:10:54Z</time><extensions><gpxtpx:TrackPointExtension><gpxtpx:atemp>3.2</gpxtpx:atemp></gpxtpx:TrackPointExtension></extensions></trkpt><trkpt lat="42.1790354513" lon="13.3924329747"><ele>2104.13</ele><time>2026-03-11T14:10:55Z</time><extensions><gpxtpx:TrackPointExtension><gpxtpx:atemp>3.2</gpxtpx:atemp></gpxtpx:TrackPointExtension></extensions></trkpt><trkpt lat="42.1790316794" lon="13.3924387582"><ele>2104.15</ele><time>2026-03-11T14:10:56Z</time><extensions><gpxtpx:TrackPointExtension><gpxtpx:atemp>3.2</gpxtpx:atemp></gpxtpx:TrackPointExtension></extensions></trkpt><trkpt lat="42.1790282428" lon="13.3924466372"><ele>2104.21</ele><time>2026-03-11T14:10:57Z</time><extensions><gpxtpx:TrackPointExtension><gpxtpx:atemp>3.2</gpxtpx:atemp></gpxtpx:TrackPointExtension></extensions></trkpt><trkpt lat="42.1790253930" lon="13.3924537618"><ele>2104.24</ele><time>2026-03-11T14:10:58Z</time><extensions><gpxtpx:TrackPointExtension><gpxtpx:atemp>3.2</gpxtpx:atemp></gpxtpx:TrackPointExtension></extensions></trkpt><trkpt lat="42.1790240519" lon="13.3924599644"><ele>2104.32</ele><time>2026-03-11T14:10:59Z</time><extensions><gpxtpx:TrackPointExtension><gpxtpx:atemp>3.2</gpxtpx:atemp></gpxtpx:TrackPointExtension></extensions></trkpt><trkpt lat="42.1790223755" lon="13.3924649935"><ele>2104.33</ele><time>2026-03-11T14:11:00Z</time><extensions><gpxtpx:TrackPointExtension><gpxtpx:atemp>3.2</gpxtpx:atemp></gpxtpx:TrackPointExtension></extensions></trkpt><trkpt lat="42.1790205315" lon="13.3924700227"><ele>2104.38</ele><time>2026-03-11T14:11:01Z</time><extensions><gpxtpx:TrackPointExtension><gpxtpx:atemp>3.2</gpxtpx:atemp></gpxtpx:TrackPointExtension></extensions></trkpt><trkpt lat="42.1790191904" lon="13.3924750518"><ele>2104.44</ele><time>2026-03-11T14:11:02Z</time><extensions><gpxtpx:TrackPointExtension><gpxtpx:atemp>3.2</gpxtpx:atemp></gpxtpx:TrackPointExtension></extensions></trkpt><trkpt lat="42.1790170949" lon="13.3924800809"><ele>2104.49</ele><time>2026-03-11T14:11:03Z</time><extensions><gpxtpx:TrackPointExtension><gpxtpx:atemp>3.2</gpxtpx:atemp></gpxtpx:TrackPointExtension></extensions></trkpt><trkpt lat="42.1790159214" lon="13.3924832661"><ele>2104.65</ele><time>2026-03-11T14:11:04Z</time><extensions><gpxtpx:TrackPointExtension><gpxtpx:atemp>3.2</gpxtpx:atemp></gpxtpx:TrackPointExtension></extensions></trkpt><trkpt lat="42.1790143289" lon="13.3924839366"><ele>2104.71</ele><time>2026-03-11T14:11:05Z</time><extensions><gpxtpx:TrackPointExtension><gpxtpx:atemp>3.2</gpxtpx:atemp></gpxtpx:TrackPointExtension></extensions></trkpt><trkpt lat="42.1790134907" lon="13.3924831823"><ele>2104.76</ele><time>2026-03-11T14:11:06Z</time><extensions><gpxtpx:TrackPointExtension><gpxtpx:atemp>3.2</gpxtpx:atemp></gpxtpx:TrackPointExtension></extensions></trkpt><trkpt lat="42.1790122334" lon="13.3924816735"><ele>2104.82</ele><time>2026-03-11T14:11:07Z</time><extensions><gpxtpx:TrackPointExtension><gpxtpx:atemp>3.2</gpxtpx:atemp></gpxtpx:TrackPointExtension></extensions></trkpt><trkpt lat="42.1790111437" lon="13.3924799971"><ele>2104.89</ele><time>2026-03-11T14:11:08Z</time><extensions><gpxtpx:TrackPointExtension><gpxtpx:atemp>3.2</gpxtpx:atemp></gpxtpx:TrackPointExtension></extensions></trkpt><trkpt lat="42.1790092997" lon="13.3924779855"><ele>2104.95</ele><time>2026-03-11T14:11:09Z</time><extensions><gpxtpx:TrackPointExtension><gpxtpx:atemp>3.2</gpxtpx:atemp></gpxtpx:TrackPointExtension></extensions></trkpt><trkpt lat="42.1790070366" lon="13.3924741298"><ele>2104.99</ele><time>2026-03-11T14:11:10Z</time><extensions><gpxtpx:TrackPointExtension><gpxtpx:atemp>3.2</gpxtpx:atemp></gpxtpx:TrackPointExtension></extensions></trkpt><trkpt lat="42.1790047735" lon="13.3924688492"><ele>2105.02</ele><time>2026-03-11T14:11:11Z</time><extensions><gpxtpx:TrackPointExtension><gpxtpx:atemp>3.2</gpxtpx:atemp></gpxtpx:TrackPointExtension></extensions></trkpt><trkpt lat="42.1790014207" lon="13.3924633171"><ele>2105.03</ele><time>2026-03-11T14:11:12Z</time><extensions><gpxtpx:TrackPointExtension><gpxtpx:atemp>3.2</gpxtpx:atemp></gpxtpx:TrackPointExtension></extensions></trkpt><trkpt lat="42.1789980680" lon="13.3924603835"><ele>2105.04</ele><time>2026-03-11T14:11:13Z</time><extensions><gpxtpx:TrackPointExtension><gpxtpx:atemp>3.2</gpxtpx:atemp></gpxtpx:TrackPointExtension></extensions></trkpt><trkpt lat="42.1789953858" lon="13.3924601320"><ele>2105.05</ele><time>2026-03-11T14:11:14Z</time><extensions><gpxtpx:TrackPointExtension><gpxtpx:atemp>3.2</gpxtpx:atemp></gpxtpx:TrackPointExtension></extensions></trkpt><trkpt lat="42.1789944638" lon="13.3924608864"><ele>2105.05</ele><time>2026-03-11T14:11:15Z</time><extensions><gpxtpx:TrackPointExtension><gpxtpx:atemp>3.2</gpxtpx:atemp></gpxtpx:TrackPointExtension></extensions></trkpt><trkpt lat="42.1789939608" lon="13.3924623951"><ele>2105.08</ele><time>2026-03-11T14:11:16Z</time><extensions><gpxtpx:TrackPointExtension><gpxtpx:atemp>3.2</gpxtpx:atemp></gpxtpx:TrackPointExtension></extensions></trkpt><trkpt lat="42.1789931227" lon="13.3924644906"><ele>2105.15</ele><time>2026-03-11T14:11:17Z</time><extensions><gpxtpx:TrackPointExtension><gpxtpx:atemp>3.2</gpxtpx:atemp></gpxtpx:TrackPointExtension></extensions></trkpt><trkpt lat="42.1789919492" lon="13.3924673405"><ele>2105.22</ele><time>2026-03-11T14:11:18Z</time><extensions><gpxtpx:TrackPointExtension><gpxtpx:atemp>3.2</gpxtpx:atemp></gpxtpx:TrackPointExtension></extensions></trkpt><trkpt lat="42.1789906919" lon="13.3924698550"><ele>2105.26</ele><time>2026-03-11T14:11:19Z</time><extensions><gpxtpx:TrackPointExtension><gpxtpx:atemp>3.2</gpxtpx:atemp></gpxtpx:TrackPointExtension></extensions></trkpt><trkpt lat="42.1789900213" lon="13.3924715314"><ele>2105.25</ele><time>2026-03-11T14:11:20Z</time><extensions><gpxtpx:TrackPointExtension><gpxtpx:atemp>3.2</gpxtpx:atemp></gpxtpx:TrackPointExtension></extensions></trkpt><trkpt lat="42.1789900213" lon="13.3924721181"><ele>2105.25</ele><time>2026-03-11T14:11:21Z</time><extensions><gpxtpx:TrackPointExtension><gpxtpx:atemp>3.2</gpxtpx:atemp></gpxtpx:TrackPointExtension></extensions></trkpt><trkpt lat="42.1789905243" lon="13.3924726211"><ele>2105.20</ele><time>2026-03-11T14:11:22Z</time><extensions><gpxtpx:TrackPointExtension><gpxtpx:atemp>3.2</gpxtpx:atemp></gpxtpx:TrackPointExtension></extensions></trkpt><trkpt lat="42.1789907757" lon="13.3924731240"><ele>2105.12</ele><time>2026-03-11T14:11:23Z</time><extensions><gpxtpx:TrackPointExtension><gpxtpx:atemp>3.2</gpxtpx:atemp></gpxtpx:TrackPointExtension></extensions></trkpt><trkpt lat="42.1789909434" lon="13.3924736269"><ele>2105.02</ele><time>2026-03-11T14:11:24Z</time><extensions><gpxtpx:TrackPointExtension><gpxtpx:atemp>3.2</gpxtpx:atemp></gpxtpx:TrackPointExtension></extensions></trkpt><trkpt lat="42.1789916977" lon="13.3924740460"><ele>2104.96</ele><time>2026-03-11T14:11:25Z</time><extensions><gpxtpx:TrackPointExtension><gpxtpx:atemp>3.2</gpxtpx:atemp></gpxtpx:TrackPointExtension></extensions></trkpt><trkpt lat="42.1789922845" lon="13.3924741298"><ele>2104.91</ele><time>2026-03-11T14:11:26Z</time><extensions><gpxtpx:TrackPointExtension><gpxtpx:atemp>3.2</gpxtpx:atemp></gpxtpx:TrackPointExtension></extensions></trkpt><trkpt lat="42.1789929550" lon="13.3924764767"><ele>2104.90</ele><time>2026-03-11T14:11:27Z</time><extensions><gpxtpx:TrackPointExtension><gpxtpx:atemp>3.2</gpxtpx:atemp></gpxtpx:TrackPointExtension></extensions></trkpt><trkpt lat="42.1789917815" lon="13.3924799971"><ele>2105.01</ele><time>2026-03-11T14:11:28Z</time><extensions><gpxtpx:TrackPointExtension><gpxtpx:atemp>3.2</gpxtpx:atemp></gpxtpx:TrackPointExtension></extensions></trkpt><trkpt lat="42.1789910272" lon="13.3924809191"><ele>2105.16</ele><time>2026-03-11T14:11:29Z</time><extensions><gpxtpx:TrackPointExtension><gpxtpx:atemp>3.2</gpxtpx:atemp></gpxtpx:TrackPointExtension></extensions></trkpt><trkpt lat="42.1789891832" lon="13.3924776502"><ele>2105.24</ele><time>2026-03-11T14:11:30Z</time><extensions><gpxtpx:TrackPointExtension><gpxtpx:atemp>3.2</gpxtpx:atemp></gpxtpx:TrackPointExtension></extensions></trkpt><trkpt lat="42.1789879259" lon="13.3924728725"><ele>2105.29</ele><time>2026-03-11T14:11:31Z</time><extensions><gpxtpx:TrackPointExtension><gpxtpx:atemp>3.2</gpxtpx:atemp></gpxtpx:TrackPointExtension></extensions></trkpt><trkpt lat="42.1789859980" lon="13.3924704418"><ele>2105.31</ele><time>2026-03-11T14:11:32Z</time><extensions><gpxtpx:TrackPointExtension><gpxtpx:atemp>3.2</gpxtpx:atemp></gpxtpx:TrackPointExtension></extensions></trkpt><trkpt lat="42.1789849922" lon="13.3924699388"><ele>2105.21</ele><time>2026-03-11T14:11:33Z</time><extensions><gpxtpx:TrackPointExtension><gpxtpx:atemp>3.2</gpxtpx:atemp></gpxtpx:TrackPointExtension></extensions></trkpt><trkpt lat="42.1789849922" lon="13.3924696874"><ele>2105.12</ele><time>2026-03-11T14:11:34Z</time><extensions><gpxtpx:TrackPointExtension><gpxtpx:atemp>3.4</gpxtpx:atemp></gpxtpx:TrackPointExtension></extensions></trkpt><trkpt lat="42.1789854951" lon="13.3924696874"><ele>2105.06</ele><time>2026-03-11T14:11:35Z</time><extensions><gpxtpx:TrackPointExtension><gpxtpx:atemp>3.4</gpxtpx:atemp></gpxtpx:TrackPointExtension></extensions></trkpt><trkpt lat="42.1789861657" lon="13.3924695197"><ele>2105.03</ele><time>2026-03-11T14:11:36Z</time><extensions><gpxtpx:TrackPointExtension><gpxtpx:atemp>3.4</gpxtpx:atemp></gpxtpx:TrackPointExtension></extensions></trkpt><trkpt lat="42.1789866686" lon="13.3924694359"><ele>2105.01</ele><time>2026-03-11T14:11:37Z</time><extensions><gpxtpx:TrackPointExtension><gpxtpx:atemp>3.4</gpxtpx:atemp></gpxtpx:TrackPointExtension></extensions></trkpt><trkpt lat="42.1789878421" lon="13.3924692683"><ele>2105.00</ele><time>2026-03-11T14:11:38Z</time><extensions><gpxtpx:TrackPointExtension><gpxtpx:atemp>3.4</gpxtpx:atemp></gpxtpx:TrackPointExtension></extensions></trkpt><trkpt lat="42.1789889317" lon="13.3924703579"><ele>2105.04</ele><time>2026-03-11T14:11:39Z</time><extensions><gpxtpx:TrackPointExtension><gpxtpx:atemp>3.4</gpxtpx:atemp></gpxtpx:TrackPointExtension></extensions></trkpt><trkpt lat="42.1789897699" lon="13.3924716990"><ele>2105.10</ele><time>2026-03-11T14:11:40Z</time><extensions><gpxtpx:TrackPointExtension><gpxtpx:atemp>3.4</gpxtpx:atemp></gpxtpx:TrackPointExtension></extensions></trkpt><trkpt lat="42.1789898537" lon="13.3924727887"><ele>2105.20</ele><time>2026-03-11T14:11:41Z</time><extensions><gpxtpx:TrackPointExtension><gpxtpx:atemp>3.4</gpxtpx:atemp></gpxtpx:TrackPointExtension></extensions></trkpt><trkpt lat="42.1789900213" lon="13.3924723696"><ele>2105.32</ele><time>2026-03-11T14:11:42Z</time><extensions><gpxtpx:TrackPointExtension><gpxtpx:atemp>3.4</gpxtpx:atemp></gpxtpx:TrackPointExtension></extensions></trkpt><trkpt lat="42.1789903566" lon="13.3924716990"><ele>2105.37</ele><time>2026-03-11T14:11:43Z</time><extensions><gpxtpx:TrackPointExtension><gpxtpx:atemp>3.4</gpxtpx:atemp></gpxtpx:TrackPointExtension></extensions></trkpt><trkpt lat="42.1789915301" lon="13.3924706932"><ele>2105.40</ele><time>2026-03-11T14:11:44Z</time><extensions><gpxtpx:TrackPointExtension><gpxtpx:atemp>3.4</gpxtpx:atemp></gpxtpx:TrackPointExtension></extensions></trkpt><trkpt lat="42.1789934579" lon="13.3924702741"><ele>2105.45</ele><time>2026-03-11T14:11:45Z</time><extensions><gpxtpx:TrackPointExtension><gpxtpx:atemp>3.4</gpxtpx:atemp></gpxtpx:TrackPointExtension></extensions></trkpt><trkpt lat="42.1789966431" lon="13.3924695197"><ele>2105.46</ele><time>2026-03-11T14:11:46Z</time><extensions><gpxtpx:TrackPointExtension><gpxtpx:atemp>3.4</gpxtpx:atemp></gpxtpx:TrackPointExtension></extensions></trkpt><trkpt lat="42.1789993253" lon="13.3924703579"><ele>2105.48</ele><time>2026-03-11T14:11:47Z</time><extensions><gpxtpx:TrackPointExtension><gpxtpx:atemp>3.4</gpxtpx:atemp></gpxtpx:TrackPointExtension></extensions></trkpt><trkpt lat="42.1790013369" lon="13.3924714476"><ele>2105.48</ele><time>2026-03-11T14:11:48Z</time><extensions><gpxtpx:TrackPointExtension><gpxtpx:atemp>3.4</gpxtpx:atemp></gpxtpx:TrackPointExtension></extensions></trkpt><trkpt lat="42.1790026780" lon="13.3924729563"><ele>2105.50</ele><time>2026-03-11T14:11:49Z</time><extensions><gpxtpx:TrackPointExtension><gpxtpx:atemp>3.4</gpxtpx:atemp></gpxtpx:TrackPointExtension></extensions></trkpt><trkpt lat="42.1790035162" lon="13.3924735431"><ele>2105.55</ele><time>2026-03-11T14:11:50Z</time><extensions><gpxtpx:TrackPointExtension><gpxtpx:atemp>3.4</gpxtpx:atemp></gpxtpx:TrackPointExtension></extensions></trkpt><trkpt lat="42.1790039353" lon="13.3924742974"><ele>2105.56</ele><time>2026-03-11T14:11:51Z</time><extensions><gpxtpx:TrackPointExtension><gpxtpx:atemp>3.4</gpxtpx:atemp></gpxtpx:TrackPointExtension></extensions></trkpt><trkpt lat="42.1790035162" lon="13.3924757224"><ele>2105.58</ele><time>2026-03-11T14:11:52Z</time><extensions><gpxtpx:TrackPointExtension><gpxtpx:atemp>3.4</gpxtpx:atemp></gpxtpx:TrackPointExtension></extensions></trkpt><trkpt lat="42.1790028457" lon="13.3924774826"><ele>2105.61</ele><time>2026-03-11T14:11:53Z</time><extensions><gpxtpx:TrackPointExtension><gpxtpx:atemp>3.4</gpxtpx:atemp></gpxtpx:TrackPointExtension></extensions></trkpt><trkpt lat="42.1790018398" lon="13.3924787398"><ele>2105.62</ele><time>2026-03-11T14:11:54Z</time><extensions><gpxtpx:TrackPointExtension><gpxtpx:atemp>3.4</gpxtpx:atemp></gpxtpx:TrackPointExtension></extensions></trkpt><trkpt lat="42.1790014207" lon="13.3924796619"><ele>2105.63</ele><time>2026-03-11T14:11:55Z</time><extensions><gpxtpx:TrackPointExtension><gpxtpx:atemp>3.4</gpxtpx:atemp></gpxtpx:TrackPointExtension></extensions></trkpt><trkpt lat="42.1790017560" lon="13.3924803324"><ele>2105.65</ele><time>2026-03-11T14:11:56Z</time><extensions><gpxtpx:TrackPointExtension><gpxtpx:atemp>3.4</gpxtpx:atemp></gpxtpx:TrackPointExtension></extensions></trkpt><trkpt lat="42.1790020913" lon="13.3924805839"><ele>2105.69</ele><time>2026-03-11T14:11:57Z</time><extensions><gpxtpx:TrackPointExtension><gpxtpx:atemp>3.4</gpxtpx:atemp></gpxtpx:TrackPointExtension></extensions></trkpt><trkpt lat="42.1790020913" lon="13.3924802486"><ele>2105.74</ele><time>2026-03-11T14:11:58Z</time><extensions><gpxtpx:TrackPointExtension><gpxtpx:atemp>3.4</gpxtpx:atemp></gpxtpx:TrackPointExtension></extensions></trkpt><trkpt lat="42.1790016722" lon="13.3924798295"><ele>2105.76</ele><time>2026-03-11T14:11:59Z</time><extensions><gpxtpx:TrackPointExtension><gpxtpx:atemp>3.4</gpxtpx:atemp></gpxtpx:TrackPointExtension></extensions></trkpt><trkpt lat="42.1790012531" lon="13.3924797457"><ele>2105.78</ele><time>2026-03-11T14:12:00Z</time><extensions><gpxtpx:TrackPointExtension><gpxtpx:atemp>3.4</gpxtpx:atemp></gpxtpx:TrackPointExtension></extensions></trkpt><trkpt lat="42.1790008340" lon="13.3924796619"><ele>2105.77</ele><time>2026-03-11T14:12:01Z</time><extensions><gpxtpx:TrackPointExtension><gpxtpx:atemp>3.4</gpxtpx:atemp></gpxtpx:TrackPointExtension></extensions></trkpt><trkpt lat="42.1790002473" lon="13.3924793266"><ele>2105.73</ele><time>2026-03-11T14:12:02Z</time><extensions><gpxtpx:TrackPointExtension><gpxtpx:atemp>3.4</gpxtpx:atemp></gpxtpx:TrackPointExtension></extensions></trkpt><trkpt lat="42.1789999958" lon="13.3924782369"><ele>2105.63</ele><time>2026-03-11T14:12:03Z</time><extensions><gpxtpx:TrackPointExtension><gpxtpx:atemp>3.4</gpxtpx:atemp></gpxtpx:TrackPointExtension></extensions></trkpt><trkpt lat="42.1790000796" lon="13.3924765605"><ele>2105.53</ele><time>2026-03-11T14:12:04Z</time><extensions><gpxtpx:TrackPointExtension><gpxtpx:atemp>3.4</gpxtpx:atemp></gpxtpx:TrackPointExtension></extensions></trkpt><trkpt lat="42.1789997444" lon="13.3924753871"><ele>2105.48</ele><time>2026-03-11T14:12:05Z</time><extensions><gpxtpx:TrackPointExtension><gpxtpx:atemp>3.4</gpxtpx:atemp></gpxtpx:TrackPointExtension></extensions></trkpt><trkpt lat="42.1790010855" lon="13.3924758900"><ele>2105.45</ele><time>2026-03-11T14:12:06Z</time><extensions><gpxtpx:TrackPointExtension><gpxtpx:atemp>3.4</gpxtpx:atemp></gpxtpx:TrackPointExtension></extensions></trkpt><trkpt lat="42.1790027618" lon="13.3924772311"><ele>2105.43</ele><time>2026-03-11T14:12:07Z</time><extensions><gpxtpx:TrackPointExtension><gpxtpx:atemp>3.4</gpxtpx:atemp></gpxtpx:TrackPointExtension></extensions></trkpt><trkpt lat="42.1790054440" lon="13.3924777340"><ele>2105.43</ele><time>2026-03-11T14:12:08Z</time><extensions><gpxtpx:TrackPointExtension><gpxtpx:atemp>3.4</gpxtpx:atemp></gpxtpx:TrackPointExtension></extensions></trkpt><trkpt lat="42.1790066175" lon="13.3924770635"><ele>2105.43</ele><time>2026-03-11T14:12:09Z</time><extensions><gpxtpx:TrackPointExtension><gpxtpx:atemp>3.4</gpxtpx:atemp></gpxtpx:TrackPointExtension></extensions></trkpt><trkpt lat="42.1790071204" lon="13.3924755547"><ele>2105.44</ele><time>2026-03-11T14:12:10Z</time><extensions><gpxtpx:TrackPointExtension><gpxtpx:atemp>3.4</gpxtpx:atemp></gpxtpx:TrackPointExtension></extensions></trkpt><trkpt lat="42.1790071204" lon="13.3924750518"><ele>2105.44</ele><time>2026-03-11T14:12:11Z</time><extensions><gpxtpx:TrackPointExtension><gpxtpx:atemp>3.4</gpxtpx:atemp></gpxtpx:TrackPointExtension></extensions></trkpt><trkpt lat="42.1790071204" lon="13.3924742974"><ele>2105.43</ele><time>2026-03-11T14:12:12Z</time><extensions><gpxtpx:TrackPointExtension><gpxtpx:atemp>3.4</gpxtpx:atemp></gpxtpx:TrackPointExtension></extensions></trkpt><trkpt lat="42.1790071204" lon="13.3924740460"><ele>2105.34</ele><time>2026-03-11T14:12:13Z</time><extensions><gpxtpx:TrackPointExtension><gpxtpx:atemp>3.4</gpxtpx:atemp></gpxtpx:TrackPointExtension></extensions></trkpt><trkpt lat="42.1790073719" lon="13.3924737945"><ele>2105.29</ele><time>2026-03-11T14:12:14Z</time><extensions><gpxtpx:TrackPointExtension><gpxtpx:atemp>3.4</gpxtpx:atemp></gpxtpx:TrackPointExtension></extensions></trkpt><trkpt lat="42.1790088806" lon="13.3924744651"><ele>2105.24</ele><time>2026-03-11T14:12:15Z</time><extensions><gpxtpx:TrackPointExtension><gpxtpx:atemp>3.4</gpxtpx:atemp></gpxtpx:TrackPointExtension></extensions></trkpt><trkpt lat="42.1790106408" lon="13.3924753871"><ele>2105.20</ele><time>2026-03-11T14:12:16Z</time><extensions><gpxtpx:TrackPointExtension><gpxtpx:atemp>3.4</gpxtpx:atemp></gpxtpx:TrackPointExtension></extensions></trkpt><trkpt lat="42.1790123172" lon="13.3924768958"><ele>2105.20</ele><time>2026-03-11T14:12:17Z</time><extensions><gpxtpx:TrackPointExtension><gpxtpx:atemp>3.4</gpxtpx:atemp></gpxtpx:TrackPointExtension></extensions></trkpt><trkpt lat="42.1790127363" lon="13.3924776502"><ele>2105.20</ele><time>2026-03-11T14:12:18Z</time><extensions><gpxtpx:TrackPointExtension><gpxtpx:atemp>3.4</gpxtpx:atemp></gpxtpx:TrackPointExtension></extensions></trkpt><trkpt lat="42.1790123172" lon="13.3924776502"><ele>2105.23</ele><time>2026-03-11T14:12:19Z</time><extensions><gpxtpx:TrackPointExtension><gpxtpx:atemp>3.4</gpxtpx:atemp></gpxtpx:TrackPointExtension></extensions></trkpt><trkpt lat="42.1790116467" lon="13.3924771473"><ele>2105.24</ele><time>2026-03-11T14:12:20Z</time><extensions><gpxtpx:TrackPointExtension><gpxtpx:atemp>3.4</gpxtpx:atemp></gpxtpx:TrackPointExtension></extensions></trkpt><trkpt lat="42.1790111437" lon="13.3924769796"><ele>2105.26</ele><time>2026-03-11T14:12:21Z</time><extensions><gpxtpx:TrackPointExtension><gpxtpx:atemp>3.4</gpxtpx:atemp></gpxtpx:TrackPointExtension></extensions></trkpt><trkpt lat="42.1790107246" lon="13.3924773987"><ele>2105.27</ele><time>2026-03-11T14:12:22Z</time><extensions><gpxtpx:TrackPointExtension><gpxtpx:atemp>3.4</gpxtpx:atemp></gpxtpx:TrackPointExtension></extensions></trkpt><trkpt lat="42.1790106408" lon="13.3924776502"><ele>2105.28</ele><time>2026-03-11T14:12:23Z</time><extensions><gpxtpx:TrackPointExtension><gpxtpx:atemp>3.4</gpxtpx:atemp></gpxtpx:TrackPointExtension></extensions></trkpt><trkpt lat="42.1790100541" lon="13.3924775664"><ele>2105.28</ele><time>2026-03-11T14:12:24Z</time><extensions><gpxtpx:TrackPointExtension><gpxtpx:atemp>3.4</gpxtpx:atemp></gpxtpx:TrackPointExtension></extensions></trkpt><trkpt lat="42.1790094674" lon="13.3924771473"><ele>2105.25</ele><time>2026-03-11T14:12:25Z</time><extensions><gpxtpx:TrackPointExtension><gpxtpx:atemp>3.4</gpxtpx:atemp></gpxtpx:TrackPointExtension></extensions></trkpt><trkpt lat="42.1790087968" lon="13.3924764767"><ele>2105.22</ele><time>2026-03-11T14:12:26Z</time><extensions><gpxtpx:TrackPointExtension><gpxtpx:atemp>3.4</gpxtpx:atemp></gpxtpx:TrackPointExtension></extensions></trkpt><trkpt lat="42.1790083777" lon="13.3924755547"><ele>2105.21</ele><time>2026-03-11T14:12:27Z</time><extensions><gpxtpx:TrackPointExtension><gpxtpx:atemp>3.4</gpxtpx:atemp></gpxtpx:TrackPointExtension></extensions></trkpt><trkpt lat="42.1790079586" lon="13.3924748842"><ele>2105.20</ele><time>2026-03-11T14:12:28Z</time><extensions><gpxtpx:TrackPointExtension><gpxtpx:atemp>3.4</gpxtpx:atemp></gpxtpx:TrackPointExtension></extensions></trkpt><trkpt lat="42.1790073719" lon="13.3924742974"><ele>2105.19</ele><time>2026-03-11T14:12:29Z</time><extensions><gpxtpx:TrackPointExtension><gpxtpx:atemp>3.4</gpxtpx:atemp></gpxtpx:TrackPointExtension></extensions></trkpt><trkpt lat="42.1790069528" lon="13.3924740460"><ele>2105.18</ele><time>2026-03-11T14:12:30Z</time><extensions><gpxtpx:TrackPointExtension><gpxtpx:atemp>3.4</gpxtpx:atemp></gpxtpx:TrackPointExtension></extensions></trkpt><trkpt lat="42.1790063661" lon="13.3924750518"><ele>2105.19</ele><time>2026-03-11T14:12:31Z</time><extensions><gpxtpx:TrackPointExtension><gpxtpx:atemp>3.4</gpxtpx:atemp></gpxtpx:TrackPointExtension></extensions></trkpt><trkpt lat="42.1790067852" lon="13.3924775664"><ele>2105.22</ele><time>2026-03-11T14:12:32Z</time><extensions><gpxtpx:TrackPointExtension><gpxtpx:atemp>3.4</gpxtpx:atemp></gpxtpx:TrackPointExtension></extensions></trkpt><trkpt lat="42.1790063661" lon="13.3924805839"><ele>2105.22</ele><time>2026-03-11T14:12:33Z</time><extensions><gpxtpx:TrackPointExtension><gpxtpx:atemp>3.4</gpxtpx:atemp></gpxtpx:TrackPointExtension></extensions></trkpt><trkpt lat="42.1790061984" lon="13.3924824279"><ele>2105.19</ele><time>2026-03-11T14:12:34Z</time><extensions><gpxtpx:TrackPointExtension><gpxtpx:atemp>3.3</gpxtpx:atemp></gpxtpx:TrackPointExtension></extensions></trkpt><trkpt lat="42.1790054440" lon="13.3924828470"><ele>2105.17</ele><time>2026-03-11T14:12:35Z</time><extensions><gpxtpx:TrackPointExtension><gpxtpx:atemp>3.3</gpxtpx:atemp></gpxtpx:TrackPointExtension></extensions></trkpt><trkpt lat="42.1790036839" lon="13.3924813382"><ele>2105.18</ele><time>2026-03-11T14:12:36Z</time><extensions><gpxtpx:TrackPointExtension><gpxtpx:atemp>3.3</gpxtpx:atemp></gpxtpx:TrackPointExtension></extensions></trkpt><trkpt lat="42.1790029295" lon="13.3924799971"><ele>2105.18</ele><time>2026-03-11T14:12:37Z</time><extensions><gpxtpx:TrackPointExtension><gpxtpx:atemp>3.3</gpxtpx:atemp></gpxtpx:TrackPointExtension></extensions></trkpt><trkpt lat="42.1790018398" lon="13.3924777340"><ele>2105.18</ele><time>2026-03-11T14:12:38Z</time><extensions><gpxtpx:TrackPointExtension><gpxtpx:atemp>3.3</gpxtpx:atemp></gpxtpx:TrackPointExtension></extensions></trkpt><trkpt lat="42.1790025942" lon="13.3924768958"><ele>2105.20</ele><time>2026-03-11T14:12:39Z</time><extensions><gpxtpx:TrackPointExtension><gpxtpx:atemp>3.3</gpxtpx:atemp></gpxtpx:TrackPointExtension></extensions></trkpt><trkpt lat="42.1790033486" lon="13.3924751356"><ele>2105.22</ele><time>2026-03-11T14:12:40Z</time><extensions><gpxtpx:TrackPointExtension><gpxtpx:atemp>3.3</gpxtpx:atemp></gpxtpx:TrackPointExtension></extensions></trkpt><trkpt lat="42.1790050250" lon="13.3924743813"><ele>2105.22</ele><time>2026-03-11T14:12:41Z</time><extensions><gpxtpx:TrackPointExtension><gpxtpx:atemp>3.3</gpxtpx:atemp></gpxtpx:TrackPointExtension></extensions></trkpt><trkpt lat="42.1790070366" lon="13.3924733754"><ele>2105.23</ele><time>2026-03-11T14:12:42Z</time><extensions><gpxtpx:TrackPointExtension><gpxtpx:atemp>3.3</gpxtpx:atemp></gpxtpx:TrackPointExtension></extensions></trkpt><trkpt lat="42.1790077910" lon="13.3924730401"><ele>2105.24</ele><time>2026-03-11T14:12:43Z</time><extensions><gpxtpx:TrackPointExtension><gpxtpx:atemp>3.3</gpxtpx:atemp></gpxtpx:TrackPointExtension></extensions></trkpt><trkpt lat="42.1790076233" lon="13.3924720343"><ele>2105.24</ele><time>2026-03-11T14:12:44Z</time><extensions><gpxtpx:TrackPointExtension><gpxtpx:atemp>3.3</gpxtpx:atemp></gpxtpx:TrackPointExtension></extensions></trkpt><trkpt lat="42.1790075395" lon="13.3924703579"><ele>2105.22</ele><time>2026-03-11T14:12:45Z</time><extensions><gpxtpx:TrackPointExtension><gpxtpx:atemp>3.3</gpxtpx:atemp></gpxtpx:TrackPointExtension></extensions></trkpt><trkpt lat="42.1790069528" lon="13.3924681786"><ele>2105.20</ele><time>2026-03-11T14:12:46Z</time><extensions><gpxtpx:TrackPointExtension><gpxtpx:atemp>3.3</gpxtpx:atemp></gpxtpx:TrackPointExtension></extensions></trkpt><trkpt lat="42.1790060308" lon="13.3924653288"><ele>2105.20</ele><time>2026-03-11T14:12:47Z</time><extensions><gpxtpx:TrackPointExtension><gpxtpx:atemp>3.3</gpxtpx:atemp></gpxtpx:TrackPointExtension></extensions></trkpt><trkpt lat="42.1790046897" lon="13.3924642392"><ele>2105.17</ele><time>2026-03-11T14:12:48Z</time><extensions><gpxtpx:TrackPointExtension><gpxtpx:atemp>3.3</gpxtpx:atemp></gpxtpx:TrackPointExtension></extensions></trkpt><trkpt lat="42.1790033486" lon="13.3924640715"><ele>2105.10</ele><time>2026-03-11T14:12:49Z</time><extensions><gpxtpx:TrackPointExtension><gpxtpx:atemp>3.3</gpxtpx:atemp></gpxtpx:TrackPointExtension></extensions></trkpt><trkpt lat="42.1790022589" lon="13.3924651612"><ele>2105.07</ele><time>2026-03-11T14:12:50Z</time><extensions><gpxtpx:TrackPointExtension><gpxtpx:atemp>3.3</gpxtpx:atemp></gpxtpx:TrackPointExtension></extensions></trkpt><trkpt lat="42.1790009178" lon="13.3924655803"><ele>2105.02</ele><time>2026-03-11T14:12:51Z</time><extensions><gpxtpx:TrackPointExtension><gpxtpx:atemp>3.3</gpxtpx:atemp></gpxtpx:TrackPointExtension></extensions></trkpt><trkpt lat="42.1789997444" lon="13.3924663346"><ele>2104.99</ele><time>2026-03-11T14:12:52Z</time><extensions><gpxtpx:TrackPointExtension><gpxtpx:atemp>3.3</gpxtpx:atemp></gpxtpx:TrackPointExtension></extensions></trkpt><trkpt lat="42.1789986547" lon="13.3924672566"><ele>2104.98</ele><time>2026-03-11T14:12:53Z</time><extensions><gpxtpx:TrackPointExtension><gpxtpx:atemp>3.3</gpxtpx:atemp></gpxtpx:TrackPointExtension></extensions></trkpt><trkpt lat="42.1789979842" lon="13.3924688492"><ele>2104.98</ele><time>2026-03-11T14:12:54Z</time><extensions><gpxtpx:TrackPointExtension><gpxtpx:atemp>3.3</gpxtpx:atemp></gpxtpx:TrackPointExtension></extensions></trkpt><trkpt lat="42.1789979842" lon="13.3924701903"><ele>2104.97</ele><time>2026-03-11T14:12:55Z</time><extensions><gpxtpx:TrackPointExtension><gpxtpx:atemp>3.3</gpxtpx:atemp></gpxtpx:TrackPointExtension></extensions></trkpt><trkpt lat="42.1789982356" lon="13.3924712799"><ele>2104.97</ele><time>2026-03-11T14:12:56Z</time><extensions><gpxtpx:TrackPointExtension><gpxtpx:atemp>3.3</gpxtpx:atemp></gpxtpx:TrackPointExtension></extensions></trkpt><trkpt lat="42.1789987385" lon="13.3924715314"><ele>2104.97</ele><time>2026-03-11T14:12:57Z</time><extensions><gpxtpx:TrackPointExtension><gpxtpx:atemp>3.3</gpxtpx:atemp></gpxtpx:TrackPointExtension></extensions></trkpt><trkpt lat="42.1789986547" lon="13.3924715314"><ele>2104.97</ele><time>2026-03-11T14:12:58Z</time><extensions><gpxtpx:TrackPointExtension><gpxtpx:atemp>3.3</gpxtpx:atemp></gpxtpx:TrackPointExtension></extensions></trkpt><trkpt lat="42.1789985709" lon="13.3924715314"><ele>2104.92</ele><time>2026-03-11T14:12:59Z</time><extensions><gpxtpx:TrackPointExtension><gpxtpx:atemp>3.3</gpxtpx:atemp></gpxtpx:TrackPointExtension></extensions></trkpt><trkpt lat="42.1789983194" lon="13.3924715314"><ele>2104.88</ele><time>2026-03-11T14:13:00Z</time><extensions><gpxtpx:TrackPointExtension><gpxtpx:atemp>3.3</gpxtpx:atemp></gpxtpx:TrackPointExtension></extensions></trkpt><trkpt lat="42.1789983194" lon="13.3924714476"><ele>2104.82</ele><time>2026-03-11T14:13:01Z</time><extensions><gpxtpx:TrackPointExtension><gpxtpx:atemp>3.3</gpxtpx:atemp></gpxtpx:TrackPointExtension></extensions></trkpt><trkpt lat="42.1789984871" lon="13.3924712799"><ele>2104.76</ele><time>2026-03-11T14:13:02Z</time><extensions><gpxtpx:TrackPointExtension><gpxtpx:atemp>3.3</gpxtpx:atemp></gpxtpx:TrackPointExtension></extensions></trkpt><trkpt lat="42.1789984871" lon="13.3924711961"><ele>2104.67</ele><time>2026-03-11T14:13:03Z</time><extensions><gpxtpx:TrackPointExtension><gpxtpx:atemp>3.3</gpxtpx:atemp></gpxtpx:TrackPointExtension></extensions></trkpt><trkpt lat="42.1789984871" lon="13.3924713638"><ele>2104.64</ele><time>2026-03-11T14:13:04Z</time><extensions><gpxtpx:TrackPointExtension><gpxtpx:atemp>3.3</gpxtpx:atemp></gpxtpx:TrackPointExtension></extensions></trkpt><trkpt lat="42.1789984871" lon="13.3924715314"><ele>2104.55</ele><time>2026-03-11T14:13:05Z</time><extensions><gpxtpx:TrackPointExtension><gpxtpx:atemp>3.3</gpxtpx:atemp></gpxtpx:TrackPointExtension></extensions></trkpt><trkpt lat="42.1789984871" lon="13.3924717829"><ele>2104.49</ele><time>2026-03-11T14:13:06Z</time><extensions><gpxtpx:TrackPointExtension><gpxtpx:atemp>3.3</gpxtpx:atemp></gpxtpx:TrackPointExtension></extensions></trkpt><trkpt lat="42.1789986547" lon="13.3924720343"><ele>2104.46</ele><time>2026-03-11T14:13:07Z</time><extensions><gpxtpx:TrackPointExtension><gpxtpx:atemp>3.3</gpxtpx:atemp></gpxtpx:TrackPointExtension></extensions></trkpt><trkpt lat="42.1789987385" lon="13.3924722858"><ele>2104.45</ele><time>2026-03-11T14:13:08Z</time><extensions><gpxtpx:TrackPointExtension><gpxtpx:atemp>3.3</gpxtpx:atemp></gpxtpx:TrackPointExtension></extensions></trkpt><trkpt lat="42.1789986547" lon="13.3924726211"><ele>2104.46</ele><time>2026-03-11T14:13:09Z</time><extensions><gpxtpx:TrackPointExtension><gpxtpx:atemp>3.3</gpxtpx:atemp></gpxtpx:TrackPointExtension></extensions></trkpt><trkpt lat="42.1789984871" lon="13.3924727887"><ele>2104.51</ele><time>2026-03-11T14:13:10Z</time><extensions><gpxtpx:TrackPointExtension><gpxtpx:atemp>3.3</gpxtpx:atemp></gpxtpx:TrackPointExtension></extensions></trkpt><trkpt lat="42.1789982356" lon="13.3924729563"><ele>2104.54</ele><time>2026-03-11T14:13:11Z</time><extensions><gpxtpx:TrackPointExtension><gpxtpx:atemp>3.3</gpxtpx:atemp></gpxtpx:TrackPointExtension></extensions></trkpt><trkpt lat="42.1789979842" lon="13.3924730401"><ele>2104.56</ele><time>2026-03-11T14:13:12Z</time><extensions><gpxtpx:TrackPointExtension><gpxtpx:atemp>3.3</gpxtpx:atemp></gpxtpx:TrackPointExtension></extensions></trkpt><trkpt lat="42.1789977327" lon="13.3924730401"><ele>2104.53</ele><time>2026-03-11T14:13:13Z</time><extensions><gpxtpx:TrackPointExtension><gpxtpx:atemp>3.3</gpxtpx:atemp></gpxtpx:TrackPointExtension></extensions></trkpt><trkpt lat="42.1789977327" lon="13.3924728725"><ele>2104.52</ele><time>2026-03-11T14:13:14Z</time><extensions><gpxtpx:TrackPointExtension><gpxtpx:atemp>3.3</gpxtpx:atemp></gpxtpx:TrackPointExtension></extensions></trkpt><trkpt lat="42.1789977327" lon="13.3924724534"><ele>2104.48</ele><time>2026-03-11T14:13:15Z</time><extensions><gpxtpx:TrackPointExtension><gpxtpx:atemp>3.3</gpxtpx:atemp></gpxtpx:TrackPointExtension></extensions></trkpt><trkpt lat="42.1789977327" lon="13.3924722858"><ele>2104.46</ele><time>2026-03-11T14:13:16Z</time><extensions><gpxtpx:TrackPointExtension><gpxtpx:atemp>3.3</gpxtpx:atemp></gpxtpx:TrackPointExtension></extensions></trkpt><trkpt lat="42.1789975651" lon="13.3924725372"><ele>2104.43</ele><time>2026-03-11T14:13:17Z</time><extensions><gpxtpx:TrackPointExtension><gpxtpx:atemp>3.3</gpxtpx:atemp></gpxtpx:TrackPointExtension></extensions></trkpt><trkpt lat="42.1789977327" lon="13.3924732916"><ele>2104.41</ele><time>2026-03-11T14:13:18Z</time><extensions><gpxtpx:TrackPointExtension><gpxtpx:atemp>3.3</gpxtpx:atemp></gpxtpx:TrackPointExtension></extensions></trkpt><trkpt lat="42.1789979842" lon="13.3924737945"><ele>2104.38</ele><time>2026-03-11T14:13:19Z</time><extensions><gpxtpx:TrackPointExtension><gpxtpx:atemp>3.3</gpxtpx:atemp></gpxtpx:TrackPointExtension></extensions></trkpt><trkpt lat="42.1789982356" lon="13.3924738783"><ele>2104.34</ele><time>2026-03-11T14:13:20Z</time><extensions><gpxtpx:TrackPointExtension><gpxtpx:atemp>3.3</gpxtpx:atemp></gpxtpx:TrackPointExtension></extensions></trkpt><trkpt lat="42.1789986547" lon="13.3924736269"><ele>2104.28</ele><time>2026-03-11T14:13:21Z</time><extensions><gpxtpx:TrackPointExtension><gpxtpx:atemp>3.3</gpxtpx:atemp></gpxtpx:TrackPointExtension></extensions></trkpt><trkpt lat="42.1789990738" lon="13.3924734592"><ele>2104.28</ele><time>2026-03-11T14:13:22Z</time><extensions><gpxtpx:TrackPointExtension><gpxtpx:atemp>3.3</gpxtpx:atemp></gpxtpx:TrackPointExtension></extensions></trkpt><trkpt lat="42.1789995767" lon="13.3924736269"><ele>2104.31</ele><time>2026-03-11T14:13:23Z</time><extensions><gpxtpx:TrackPointExtension><gpxtpx:atemp>3.3</gpxtpx:atemp></gpxtpx:TrackPointExtension></extensions></trkpt><trkpt lat="42.1789996605" lon="13.3924738783"><ele>2104.32</ele><time>2026-03-11T14:13:24Z</time><extensions><gpxtpx:TrackPointExtension><gpxtpx:atemp>3.3</gpxtpx:atemp></gpxtpx:TrackPointExtension></extensions></trkpt><trkpt lat="42.1789996605" lon="13.3924741298"><ele>2104.39</ele><time>2026-03-11T14:13:25Z</time><extensions><gpxtpx:TrackPointExtension><gpxtpx:atemp>3.3</gpxtpx:atemp></gpxtpx:TrackPointExtension></extensions></trkpt><trkpt lat="42.1789993253" lon="13.3924738783"><ele>2104.52</ele><time>2026-03-11T14:13:26Z</time><extensions><gpxtpx:TrackPointExtension><gpxtpx:atemp>3.3</gpxtpx:atemp></gpxtpx:TrackPointExtension></extensions></trkpt><trkpt lat="42.1789992414" lon="13.3924737945"><ele>2104.67</ele><time>2026-03-11T14:13:27Z</time><extensions><gpxtpx:TrackPointExtension><gpxtpx:atemp>3.3</gpxtpx:atemp></gpxtpx:TrackPointExtension></extensions></trkpt><trkpt lat="42.1789991576" lon="13.3924736269"><ele>2104.79</ele><time>2026-03-11T14:13:28Z</time><extensions><gpxtpx:TrackPointExtension><gpxtpx:atemp>3.3</gpxtpx:atemp></gpxtpx:TrackPointExtension></extensions></trkpt><trkpt lat="42.1789989900" lon="13.3924731240"><ele>2104.90</ele><time>2026-03-11T14:13:29Z</time><extensions><gpxtpx:TrackPointExtension><gpxtpx:atemp>3.3</gpxtpx:atemp></gpxtpx:TrackPointExtension></extensions></trkpt><trkpt lat="42.1789995767" lon="13.3924722858"><ele>2105.00</ele><time>2026-03-11T14:13:30Z</time><extensions><gpxtpx:TrackPointExtension><gpxtpx:atemp>3.3</gpxtpx:atemp></gpxtpx:TrackPointExtension></extensions></trkpt><trkpt lat="42.1790003311" lon="13.3924711961"><ele>2105.09</ele><time>2026-03-11T14:13:31Z</time><extensions><gpxtpx:TrackPointExtension><gpxtpx:atemp>3.3</gpxtpx:atemp></gpxtpx:TrackPointExtension></extensions></trkpt><trkpt lat="42.1790019237" lon="13.3924706932"><ele>2105.20</ele><time>2026-03-11T14:13:32Z</time><extensions><gpxtpx:TrackPointExtension><gpxtpx:atemp>3.3</gpxtpx:atemp></gpxtpx:TrackPointExtension></extensions></trkpt><trkpt lat="42.1790036839" lon="13.3924702741"><ele>2105.48</ele><time>2026-03-11T14:13:33Z</time><extensions><gpxtpx:TrackPointExtension><gpxtpx:atemp>3.3</gpxtpx:atemp></gpxtpx:TrackPointExtension></extensions></trkpt><trkpt lat="42.1790051926" lon="13.3924693521"><ele>2105.59</ele><time>2026-03-11T14:13:34Z</time><extensions><gpxtpx:TrackPointExtension><gpxtpx:atemp>3.8</gpxtpx:atemp></gpxtpx:TrackPointExtension></extensions></trkpt><trkpt lat="42.1790068690" lon="13.3924673405"><ele>2105.67</ele><time>2026-03-11T14:13:35Z</time><extensions><gpxtpx:TrackPointExtension><gpxtpx:atemp>3.8</gpxtpx:atemp></gpxtpx:TrackPointExtension></extensions></trkpt><trkpt lat="42.1790077910" lon="13.3924655803"><ele>2105.72</ele><time>2026-03-11T14:13:36Z</time><extensions><gpxtpx:TrackPointExtension><gpxtpx:atemp>3.8</gpxtpx:atemp></gpxtpx:TrackPointExtension></extensions></trkpt><trkpt lat="42.1790083777" lon="13.3924649935"><ele>2105.75</ele><time>2026-03-11T14:13:37Z</time><extensions><gpxtpx:TrackPointExtension><gpxtpx:atemp>3.8</gpxtpx:atemp></gpxtpx:TrackPointExtension></extensions></trkpt><trkpt lat="42.1790085454" lon="13.3924654964"><ele>2105.76</ele><time>2026-03-11T14:13:38Z</time><extensions><gpxtpx:TrackPointExtension><gpxtpx:atemp>3.8</gpxtpx:atemp></gpxtpx:TrackPointExtension></extensions></trkpt><trkpt lat="42.1790086292" lon="13.3924658317"><ele>2105.76</ele><time>2026-03-11T14:13:39Z</time><extensions><gpxtpx:TrackPointExtension><gpxtpx:atemp>3.8</gpxtpx:atemp></gpxtpx:TrackPointExtension></extensions></trkpt><trkpt lat="42.1790093835" lon="13.3924657479"><ele>2105.76</ele><time>2026-03-11T14:13:40Z</time><extensions><gpxtpx:TrackPointExtension><gpxtpx:atemp>3.8</gpxtpx:atemp></gpxtpx:TrackPointExtension></extensions></trkpt><trkpt lat="42.1790101379" lon="13.3924660832"><ele>2105.76</ele><time>2026-03-11T14:13:41Z</time><extensions><gpxtpx:TrackPointExtension><gpxtpx:atemp>3.8</gpxtpx:atemp></gpxtpx:TrackPointExtension></extensions></trkpt><trkpt lat="42.1790105570" lon="13.3924660832"><ele>2105.75</ele><time>2026-03-11T14:13:42Z</time><extensions><gpxtpx:TrackPointExtension><gpxtpx:atemp>3.8</gpxtpx:atemp></gpxtpx:TrackPointExtension></extensions></trkpt><trkpt lat="42.1790103894" lon="13.3924656641"><ele>2105.75</ele><time>2026-03-11T14:13:43Z</time><extensions><gpxtpx:TrackPointExtension><gpxtpx:atemp>3.8</gpxtpx:atemp></gpxtpx:TrackPointExtension></extensions></trkpt><trkpt lat="42.1790101379" lon="13.3924656641"><ele>2105.75</ele><time>2026-03-11T14:13:44Z</time><extensions><gpxtpx:TrackPointExtension><gpxtpx:atemp>3.8</gpxtpx:atemp></gpxtpx:TrackPointExtension></extensions></trkpt><trkpt lat="42.1790102217" lon="13.3924666699"><ele>2105.77</ele><time>2026-03-11T14:13:45Z</time><extensions><gpxtpx:TrackPointExtension><gpxtpx:atemp>3.8</gpxtpx:atemp></gpxtpx:TrackPointExtension></extensions></trkpt><trkpt lat="42.1790106408" lon="13.3924685977"><ele>2105.78</ele><time>2026-03-11T14:13:46Z</time><extensions><gpxtpx:TrackPointExtension><gpxtpx:atemp>3.8</gpxtpx:atemp></gpxtpx:TrackPointExtension></extensions></trkpt><trkpt lat="42.1790108923" lon="13.3924695197"><ele>2105.80</ele><time>2026-03-11T14:13:47Z</time><extensions><gpxtpx:TrackPointExtension><gpxtpx:atemp>3.8</gpxtpx:atemp></gpxtpx:TrackPointExtension></extensions></trkpt><trkpt lat="42.1790108923" lon="13.3924698550"><ele>2105.81</ele><time>2026-03-11T14:13:48Z</time><extensions><gpxtpx:TrackPointExtension><gpxtpx:atemp>3.8</gpxtpx:atemp></gpxtpx:TrackPointExtension></extensions></trkpt><trkpt lat="42.1790108923" lon="13.3924695197"><ele>2105.81</ele><time>2026-03-11T14:13:49Z</time><extensions><gpxtpx:TrackPointExtension><gpxtpx:atemp>3.8</gpxtpx:atemp></gpxtpx:TrackPointExtension></extensions></trkpt><trkpt lat="42.1790105570" lon="13.3924692683"><ele>2105.76</ele><time>2026-03-11T14:13:50Z</time><extensions><gpxtpx:TrackPointExtension><gpxtpx:atemp>3.8</gpxtpx:atemp></gpxtpx:TrackPointExtension></extensions></trkpt><trkpt lat="42.1790103894" lon="13.3924693521"><ele>2105.69</ele><time>2026-03-11T14:13:51Z</time><extensions><gpxtpx:TrackPointExtension><gpxtpx:atemp>3.8</gpxtpx:atemp></gpxtpx:TrackPointExtension></extensions></trkpt><trkpt lat="42.1790100541" lon="13.3924694359"><ele>2105.65</ele><time>2026-03-11T14:13:52Z</time><extensions><gpxtpx:TrackPointExtension><gpxtpx:atemp>3.8</gpxtpx:atemp></gpxtpx:TrackPointExtension></extensions></trkpt><trkpt lat="42.1790101379" lon="13.3924696874"><ele>2105.63</ele><time>2026-03-11T14:13:53Z</time><extensions><gpxtpx:TrackPointExtension><gpxtpx:atemp>3.8</gpxtpx:atemp></gpxtpx:TrackPointExtension></extensions></trkpt><trkpt lat="42.1790105570" lon="13.3924695197"><ele>2105.62</ele><time>2026-03-11T14:13:54Z</time><extensions><gpxtpx:TrackPointExtension><gpxtpx:atemp>3.8</gpxtpx:atemp></gpxtpx:TrackPointExtension></extensions></trkpt><trkpt lat="42.1790112276" lon="13.3924695197"><ele>2105.65</ele><time>2026-03-11T14:13:55Z</time><extensions><gpxtpx:TrackPointExtension><gpxtpx:atemp>3.8</gpxtpx:atemp></gpxtpx:TrackPointExtension></extensions></trkpt><trkpt lat="42.1790116467" lon="13.3924693521"><ele>2105.71</ele><time>2026-03-11T14:13:56Z</time><extensions><gpxtpx:TrackPointExtension><gpxtpx:atemp>3.8</gpxtpx:atemp></gpxtpx:TrackPointExtension></extensions></trkpt><trkpt lat="42.1790117305" lon="13.3924691845"><ele>2105.73</ele><time>2026-03-11T14:13:57Z</time><extensions><gpxtpx:TrackPointExtension><gpxtpx:atemp>3.8</gpxtpx:atemp></gpxtpx:TrackPointExtension></extensions></trkpt><trkpt lat="42.1790115628" lon="13.3924692683"><ele>2105.75</ele><time>2026-03-11T14:13:58Z</time><extensions><gpxtpx:TrackPointExtension><gpxtpx:atemp>3.8</gpxtpx:atemp></gpxtpx:TrackPointExtension></extensions></trkpt><trkpt lat="42.1790113952" lon="13.3924694359"><ele>2105.75</ele><time>2026-03-11T14:13:59Z</time><extensions><gpxtpx:TrackPointExtension><gpxtpx:atemp>3.8</gpxtpx:atemp></gpxtpx:TrackPointExtension></extensions></trkpt><trkpt lat="42.1790113952" lon="13.3924694359"><ele>2105.75</ele><time>2026-03-11T14:14:00Z</time><extensions><gpxtpx:TrackPointExtension><gpxtpx:atemp>3.8</gpxtpx:atemp></gpxtpx:TrackPointExtension></extensions></trkpt><trkpt lat="42.1790116467" lon="13.3924690168"><ele>2105.74</ele><time>2026-03-11T14:14:01Z</time><extensions><gpxtpx:TrackPointExtension><gpxtpx:atemp>3.8</gpxtpx:atemp></gpxtpx:TrackPointExtension></extensions></trkpt><trkpt lat="42.1790120658" lon="13.3924688492"><ele>2105.72</ele><time>2026-03-11T14:14:02Z</time><extensions><gpxtpx:TrackPointExtension><gpxtpx:atemp>3.8</gpxtpx:atemp></gpxtpx:TrackPointExtension></extensions></trkpt><trkpt lat="42.1790124848" lon="13.3924686816"><ele>2105.69</ele><time>2026-03-11T14:14:03Z</time><extensions><gpxtpx:TrackPointExtension><gpxtpx:atemp>3.8</gpxtpx:atemp></gpxtpx:TrackPointExtension></extensions></trkpt><trkpt lat="42.1790125687" lon="13.3924685977"><ele>2105.67</ele><time>2026-03-11T14:14:04Z</time><extensions><gpxtpx:TrackPointExtension><gpxtpx:atemp>3.8</gpxtpx:atemp></gpxtpx:TrackPointExtension></extensions></trkpt><trkpt lat="42.1790125687" lon="13.3924686816"><ele>2105.62</ele><time>2026-03-11T14:14:05Z</time><extensions><gpxtpx:TrackPointExtension><gpxtpx:atemp>3.8</gpxtpx:atemp></gpxtpx:TrackPointExtension></extensions></trkpt><trkpt lat="42.1790129878" lon="13.3924692683"><ele>2105.61</ele><time>2026-03-11T14:14:06Z</time><extensions><gpxtpx:TrackPointExtension><gpxtpx:atemp>3.8</gpxtpx:atemp></gpxtpx:TrackPointExtension></extensions></trkpt><trkpt lat="42.1790132392" lon="13.3924700227"><ele>2105.57</ele><time>2026-03-11T14:14:07Z</time><extensions><gpxtpx:TrackPointExtension><gpxtpx:atemp>3.8</gpxtpx:atemp></gpxtpx:TrackPointExtension></extensions></trkpt><trkpt lat="42.1790133230" lon="13.3924706932"><ele>2105.58</ele><time>2026-03-11T14:14:08Z</time><extensions><gpxtpx:TrackPointExtension><gpxtpx:atemp>3.8</gpxtpx:atemp></gpxtpx:TrackPointExtension></extensions></trkpt><trkpt lat="42.1790130716" lon="13.3924707770"><ele>2105.59</ele><time>2026-03-11T14:14:09Z</time><extensions><gpxtpx:TrackPointExtension><gpxtpx:atemp>3.8</gpxtpx:atemp></gpxtpx:TrackPointExtension></extensions></trkpt><trkpt lat="42.1790125687" lon="13.3924705256"><ele>2105.60</ele><time>2026-03-11T14:14:10Z</time><extensions><gpxtpx:TrackPointExtension><gpxtpx:atemp>3.8</gpxtpx:atemp></gpxtpx:TrackPointExtension></extensions></trkpt><trkpt lat="42.1790119819" lon="13.3924702741"><ele>2105.61</ele><time>2026-03-11T14:14:11Z</time><extensions><gpxtpx:TrackPointExtension><gpxtpx:atemp>3.8</gpxtpx:atemp></gpxtpx:TrackPointExtension></extensions></trkpt><trkpt lat="42.1790113952" lon="13.3924702741"><ele>2105.63</ele><time>2026-03-11T14:14:12Z</time><extensions><gpxtpx:TrackPointExtension><gpxtpx:atemp>3.8</gpxtpx:atemp></gpxtpx:TrackPointExtension></extensions></trkpt><trkpt lat="42.1790109761" lon="13.3924701903"><ele>2105.65</ele><time>2026-03-11T14:14:13Z</time><extensions><gpxtpx:TrackPointExtension><gpxtpx:atemp>3.8</gpxtpx:atemp></gpxtpx:TrackPointExtension></extensions></trkpt><trkpt lat="42.1790105570" lon="13.3924702741"><ele>2105.66</ele><time>2026-03-11T14:14:14Z</time><extensions><gpxtpx:TrackPointExtension><gpxtpx:atemp>3.8</gpxtpx:atemp></gpxtpx:TrackPointExtension></extensions></trkpt><trkpt lat="42.1790102217" lon="13.3924701903"><ele>2105.67</ele><time>2026-03-11T14:14:15Z</time><extensions><gpxtpx:TrackPointExtension><gpxtpx:atemp>3.8</gpxtpx:atemp></gpxtpx:TrackPointExtension></extensions></trkpt><trkpt lat="42.1790098865" lon="13.3924701903"><ele>2105.69</ele><time>2026-03-11T14:14:16Z</time><extensions><gpxtpx:TrackPointExtension><gpxtpx:atemp>3.8</gpxtpx:atemp></gpxtpx:TrackPointExtension></extensions></trkpt><trkpt lat="42.1790095512" lon="13.3924700227"><ele>2105.70</ele><time>2026-03-11T14:14:17Z</time><extensions><gpxtpx:TrackPointExtension><gpxtpx:atemp>3.8</gpxtpx:atemp></gpxtpx:TrackPointExtension></extensions></trkpt><trkpt lat="42.1790091321" lon="13.3924700227"><ele>2105.77</ele><time>2026-03-11T14:14:18Z</time><extensions><gpxtpx:TrackPointExtension><gpxtpx:atemp>3.8</gpxtpx:atemp></gpxtpx:TrackPointExtension></extensions></trkpt><trkpt lat="42.1790088806" lon="13.3924701903"><ele>2105.82</ele><time>2026-03-11T14:14:19Z</time><extensions><gpxtpx:TrackPointExtension><gpxtpx:atemp>3.8</gpxtpx:atemp></gpxtpx:TrackPointExtension></extensions></trkpt><trkpt lat="42.1790086292" lon="13.3924702741"><ele>2105.89</ele><time>2026-03-11T14:14:20Z</time><extensions><gpxtpx:TrackPointExtension><gpxtpx:atemp>3.8</gpxtpx:atemp></gpxtpx:TrackPointExtension></extensions></trkpt><trkpt lat="42.1790087968" lon="13.3924704418"><ele>2105.98</ele><time>2026-03-11T14:14:21Z</time><extensions><gpxtpx:TrackPointExtension><gpxtpx:atemp>3.8</gpxtpx:atemp></gpxtpx:TrackPointExtension></extensions></trkpt><trkpt lat="42.1790088806" lon="13.3924704418"><ele>2106.02</ele><time>2026-03-11T14:14:22Z</time><extensions><gpxtpx:TrackPointExtension><gpxtpx:atemp>3.8</gpxtpx:atemp></gpxtpx:TrackPointExtension></extensions></trkpt><trkpt lat="42.1790089644" lon="13.3924703579"><ele>2106.04</ele><time>2026-03-11T14:14:23Z</time><extensions><gpxtpx:TrackPointExtension><gpxtpx:atemp>3.8</gpxtpx:atemp></gpxtpx:TrackPointExtension></extensions></trkpt><trkpt lat="42.1790089644" lon="13.3924702741"><ele>2106.05</ele><time>2026-03-11T14:14:24Z</time><extensions><gpxtpx:TrackPointExtension><gpxtpx:atemp>3.8</gpxtpx:atemp></gpxtpx:TrackPointExtension></extensions></trkpt><trkpt lat="42.1790088806" lon="13.3924701903"><ele>2106.05</ele><time>2026-03-11T14:14:25Z</time><extensions><gpxtpx:TrackPointExtension><gpxtpx:atemp>3.8</gpxtpx:atemp></gpxtpx:TrackPointExtension></extensions></trkpt><trkpt lat="42.1790087968" lon="13.3924699388"><ele>2106.05</ele><time>2026-03-11T14:14:26Z</time><extensions><gpxtpx:TrackPointExtension><gpxtpx:atemp>3.8</gpxtpx:atemp></gpxtpx:TrackPointExtension></extensions></trkpt><trkpt lat="42.1790086292" lon="13.3924699388"><ele>2106.04</ele><time>2026-03-11T14:14:27Z</time><extensions><gpxtpx:TrackPointExtension><gpxtpx:atemp>3.8</gpxtpx:atemp></gpxtpx:TrackPointExtension></extensions></trkpt><trkpt lat="42.1790085454" lon="13.3924699388"><ele>2106.03</ele><time>2026-03-11T14:14:28Z</time><extensions><gpxtpx:TrackPointExtension><gpxtpx:atemp>3.8</gpxtpx:atemp></gpxtpx:TrackPointExtension></extensions></trkpt><trkpt lat="42.1790085454" lon="13.3924697712"><ele>2106.02</ele><time>2026-03-11T14:14:29Z</time><extensions><gpxtpx:TrackPointExtension><gpxtpx:atemp>3.8</gpxtpx:atemp></gpxtpx:TrackPointExtension></extensions></trkpt><trkpt lat="42.1790087968" lon="13.3924694359"><ele>2105.99</ele><time>2026-03-11T14:14:30Z</time><extensions><gpxtpx:TrackPointExtension><gpxtpx:atemp>3.8</gpxtpx:atemp></gpxtpx:TrackPointExtension></extensions></trkpt><trkpt lat="42.1790086292" lon="13.3924692683"><ele>2105.99</ele><time>2026-03-11T14:14:31Z</time><extensions><gpxtpx:TrackPointExtension><gpxtpx:atemp>3.8</gpxtpx:atemp></gpxtpx:TrackPointExtension></extensions></trkpt><trkpt lat="42.1790084615" lon="13.3924690168"><ele>2105.97</ele><time>2026-03-11T14:14:32Z</time><extensions><gpxtpx:TrackPointExtension><gpxtpx:atemp>3.8</gpxtpx:atemp></gpxtpx:TrackPointExtension></extensions></trkpt><trkpt lat="42.1790079586" lon="13.3924688492"><ele>2105.93</ele><time>2026-03-11T14:14:33Z</time><extensions><gpxtpx:TrackPointExtension><gpxtpx:atemp>3.8</gpxtpx:atemp></gpxtpx:TrackPointExtension></extensions></trkpt><trkpt lat="42.1790078748" lon="13.3924685977"><ele>2105.94</ele><time>2026-03-11T14:14:34Z</time><extensions><gpxtpx:TrackPointExtension><gpxtpx:atemp>3.6</gpxtpx:atemp></gpxtpx:TrackPointExtension></extensions></trkpt><trkpt lat="42.1790077910" lon="13.3924683463"><ele>2106.00</ele><time>2026-03-11T14:14:35Z</time><extensions><gpxtpx:TrackPointExtension><gpxtpx:atemp>3.6</gpxtpx:atemp></gpxtpx:TrackPointExtension></extensions></trkpt><trkpt lat="42.1790077910" lon="13.3924683463"><ele>2106.03</ele><time>2026-03-11T14:14:36Z</time><extensions><gpxtpx:TrackPointExtension><gpxtpx:atemp>3.6</gpxtpx:atemp></gpxtpx:TrackPointExtension></extensions></trkpt><trkpt lat="42.1790076233" lon="13.3924683463"><ele>2105.97</ele><time>2026-03-11T14:14:37Z</time><extensions><gpxtpx:TrackPointExtension><gpxtpx:atemp>3.6</gpxtpx:atemp></gpxtpx:TrackPointExtension></extensions></trkpt><trkpt lat="42.1790072881" lon="13.3924683463"><ele>2105.87</ele><time>2026-03-11T14:14:38Z</time><extensions><gpxtpx:TrackPointExtension><gpxtpx:atemp>3.6</gpxtpx:atemp></gpxtpx:TrackPointExtension></extensions></trkpt><trkpt lat="42.1790070366" lon="13.3924681786"><ele>2105.81</ele><time>2026-03-11T14:14:39Z</time><extensions><gpxtpx:TrackPointExtension><gpxtpx:atemp>3.6</gpxtpx:atemp></gpxtpx:TrackPointExtension></extensions></trkpt><trkpt lat="42.1790066175" lon="13.3924678434"><ele>2105.73</ele><time>2026-03-11T14:14:40Z</time><extensions><gpxtpx:TrackPointExtension><gpxtpx:atemp>3.6</gpxtpx:atemp></gpxtpx:TrackPointExtension></extensions></trkpt><trkpt lat="42.1790061984" lon="13.3924674243"><ele>2105.59</ele><time>2026-03-11T14:14:41Z</time><extensions><gpxtpx:TrackPointExtension><gpxtpx:atemp>3.6</gpxtpx:atemp></gpxtpx:TrackPointExtension></extensions></trkpt><trkpt lat="42.1790059470" lon="13.3924674243"><ele>2105.34</ele><time>2026-03-11T14:14:42Z</time><extensions><gpxtpx:TrackPointExtension><gpxtpx:atemp>3.6</gpxtpx:atemp></gpxtpx:TrackPointExtension></extensions></trkpt><trkpt lat="42.1790059470" lon="13.3924677595"><ele>2105.25</ele><time>2026-03-11T14:14:43Z</time><extensions><gpxtpx:TrackPointExtension><gpxtpx:atemp>3.6</gpxtpx:atemp></gpxtpx:TrackPointExtension></extensions></trkpt><trkpt lat="42.1790060308" lon="13.3924682625"><ele>2105.20</ele><time>2026-03-11T14:14:44Z</time><extensions><gpxtpx:TrackPointExtension><gpxtpx:atemp>3.6</gpxtpx:atemp></gpxtpx:TrackPointExtension></extensions></trkpt><trkpt lat="42.1790051926" lon="13.3924682625"><ele>2105.20</ele><time>2026-03-11T14:14:45Z</time><extensions><gpxtpx:TrackPointExtension><gpxtpx:atemp>3.6</gpxtpx:atemp></gpxtpx:TrackPointExtension></extensions></trkpt><trkpt lat="42.1790040191" lon="13.3924682625"><ele>2105.22</ele><time>2026-03-11T14:14:46Z</time><extensions><gpxtpx:TrackPointExtension><gpxtpx:atemp>3.6</gpxtpx:atemp></gpxtpx:TrackPointExtension></extensions></trkpt><trkpt lat="42.1790029295" lon="13.3924690168"><ele>2105.26</ele><time>2026-03-11T14:14:47Z</time><extensions><gpxtpx:TrackPointExtension><gpxtpx:atemp>3.6</gpxtpx:atemp></gpxtpx:TrackPointExtension></extensions></trkpt><trkpt lat="42.1790038515" lon="13.3924706932"><ele>2105.31</ele><time>2026-03-11T14:14:48Z</time><extensions><gpxtpx:TrackPointExtension><gpxtpx:atemp>3.6</gpxtpx:atemp></gpxtpx:TrackPointExtension></extensions></trkpt><trkpt lat="42.1790056955" lon="13.3924740460"><ele>2105.35</ele><time>2026-03-11T14:14:49Z</time><extensions><gpxtpx:TrackPointExtension><gpxtpx:atemp>3.6</gpxtpx:atemp></gpxtpx:TrackPointExtension></extensions></trkpt><trkpt lat="42.1790093835" lon="13.3924775664"><ele>2105.38</ele><time>2026-03-11T14:14:50Z</time><extensions><gpxtpx:TrackPointExtension><gpxtpx:atemp>3.6</gpxtpx:atemp></gpxtpx:TrackPointExtension></extensions></trkpt><trkpt lat="42.1790126525" lon="13.3924812544"><ele>2105.39</ele><time>2026-03-11T14:14:51Z</time><extensions><gpxtpx:TrackPointExtension><gpxtpx:atemp>3.6</gpxtpx:atemp></gpxtpx:TrackPointExtension></extensions></trkpt><trkpt lat="42.1790152509" lon="13.3924831823"><ele>2105.40</ele><time>2026-03-11T14:14:52Z</time><extensions><gpxtpx:TrackPointExtension><gpxtpx:atemp>3.6</gpxtpx:atemp></gpxtpx:TrackPointExtension></extensions></trkpt><trkpt lat="42.1790159214" lon="13.3924839366"><ele>2105.39</ele><time>2026-03-11T14:14:53Z</time><extensions><gpxtpx:TrackPointExtension><gpxtpx:atemp>3.6</gpxtpx:atemp></gpxtpx:TrackPointExtension></extensions></trkpt><trkpt lat="42.1790162567" lon="13.3924841881"><ele>2105.29</ele><time>2026-03-11T14:14:54Z</time><extensions><gpxtpx:TrackPointExtension><gpxtpx:atemp>3.6</gpxtpx:atemp></gpxtpx:TrackPointExtension></extensions></trkpt><trkpt lat="42.1790164243" lon="13.3924842719"><ele>2105.23</ele><time>2026-03-11T14:14:55Z</time><extensions><gpxtpx:TrackPointExtension><gpxtpx:atemp>3.6</gpxtpx:atemp></gpxtpx:TrackPointExtension></extensions></trkpt><trkpt lat="42.1790165920" lon="13.3924843557"><ele>2105.21</ele><time>2026-03-11T14:14:56Z</time><extensions><gpxtpx:TrackPointExtension><gpxtpx:atemp>3.6</gpxtpx:atemp></gpxtpx:TrackPointExtension></extensions></trkpt><trkpt lat="42.1790159214" lon="13.3924844395"><ele>2105.17</ele><time>2026-03-11T14:14:57Z</time><extensions><gpxtpx:TrackPointExtension><gpxtpx:atemp>3.6</gpxtpx:atemp></gpxtpx:TrackPointExtension></extensions></trkpt><trkpt lat="42.1790154185" lon="13.3924843557"><ele>2105.12</ele><time>2026-03-11T14:14:58Z</time><extensions><gpxtpx:TrackPointExtension><gpxtpx:atemp>3.6</gpxtpx:atemp></gpxtpx:TrackPointExtension></extensions></trkpt><trkpt lat="42.1790151671" lon="13.3924843557"><ele>2105.10</ele><time>2026-03-11T14:14:59Z</time><extensions><gpxtpx:TrackPointExtension><gpxtpx:atemp>3.6</gpxtpx:atemp></gpxtpx:TrackPointExtension></extensions></trkpt><trkpt lat="42.1790144965" lon="13.3924835175"><ele>2105.06</ele><time>2026-03-11T14:15:00Z</time><extensions><gpxtpx:TrackPointExtension><gpxtpx:atemp>3.6</gpxtpx:atemp></gpxtpx:TrackPointExtension></extensions></trkpt><trkpt lat="42.1790138260" lon="13.3924828470"><ele>2105.06</ele><time>2026-03-11T14:15:01Z</time><extensions><gpxtpx:TrackPointExtension><gpxtpx:atemp>3.6</gpxtpx:atemp></gpxtpx:TrackPointExtension></extensions></trkpt><trkpt lat="42.1790127363" lon="13.3924819250"><ele>2105.06</ele><time>2026-03-11T14:15:02Z</time><extensions><gpxtpx:TrackPointExtension><gpxtpx:atemp>3.6</gpxtpx:atemp></gpxtpx:TrackPointExtension></extensions></trkpt><trkpt lat="42.1790124848" lon="13.3924815897"><ele>2105.02</ele><time>2026-03-11T14:15:03Z</time><extensions><gpxtpx:TrackPointExtension><gpxtpx:atemp>3.6</gpxtpx:atemp></gpxtpx:TrackPointExtension></extensions></trkpt><trkpt lat="42.1790119819" lon="13.3924816735"><ele>2104.99</ele><time>2026-03-11T14:15:04Z</time><extensions><gpxtpx:TrackPointExtension><gpxtpx:atemp>3.6</gpxtpx:atemp></gpxtpx:TrackPointExtension></extensions></trkpt><trkpt lat="42.1790112276" lon="13.3924819250"><ele>2104.94</ele><time>2026-03-11T14:15:05Z</time><extensions><gpxtpx:TrackPointExtension><gpxtpx:atemp>3.6</gpxtpx:atemp></gpxtpx:TrackPointExtension></extensions></trkpt><trkpt lat="42.1790106408" lon="13.3924821764"><ele>2104.94</ele><time>2026-03-11T14:15:06Z</time><extensions><gpxtpx:TrackPointExtension><gpxtpx:atemp>3.6</gpxtpx:atemp></gpxtpx:TrackPointExtension></extensions></trkpt><trkpt lat="42.1790100541" lon="13.3924820926"><ele>2104.92</ele><time>2026-03-11T14:15:07Z</time><extensions><gpxtpx:TrackPointExtension><gpxtpx:atemp>3.6</gpxtpx:atemp></gpxtpx:TrackPointExtension></extensions></trkpt><trkpt lat="42.1790097188" lon="13.3924820926"><ele>2104.93</ele><time>2026-03-11T14:15:08Z</time><extensions><gpxtpx:TrackPointExtension><gpxtpx:atemp>3.6</gpxtpx:atemp></gpxtpx:TrackPointExtension></extensions></trkpt><trkpt lat="42.1790089644" lon="13.3924822602"><ele>2104.99</ele><time>2026-03-11T14:15:09Z</time><extensions><gpxtpx:TrackPointExtension><gpxtpx:atemp>3.6</gpxtpx:atemp></gpxtpx:TrackPointExtension></extensions></trkpt><trkpt lat="42.1790084615" lon="13.3924832661"><ele>2105.05</ele><time>2026-03-11T14:15:10Z</time><extensions><gpxtpx:TrackPointExtension><gpxtpx:atemp>3.6</gpxtpx:atemp></gpxtpx:TrackPointExtension></extensions></trkpt><trkpt lat="42.1790079586" lon="13.3924842719"><ele>2105.05</ele><time>2026-03-11T14:15:11Z</time><extensions><gpxtpx:TrackPointExtension><gpxtpx:atemp>3.6</gpxtpx:atemp></gpxtpx:TrackPointExtension></extensions></trkpt><trkpt lat="42.1790077910" lon="13.3924852777"><ele>2105.05</ele><time>2026-03-11T14:15:12Z</time><extensions><gpxtpx:TrackPointExtension><gpxtpx:atemp>3.6</gpxtpx:atemp></gpxtpx:TrackPointExtension></extensions></trkpt><trkpt lat="42.1790076233" lon="13.3924857806"><ele>2105.05</ele><time>2026-03-11T14:15:13Z</time><extensions><gpxtpx:TrackPointExtension><gpxtpx:atemp>3.6</gpxtpx:atemp></gpxtpx:TrackPointExtension></extensions></trkpt><trkpt lat="42.1790082939" lon="13.3924866188"><ele>2105.05</ele><time>2026-03-11T14:15:14Z</time><extensions><gpxtpx:TrackPointExtension><gpxtpx:atemp>3.6</gpxtpx:atemp></gpxtpx:TrackPointExtension></extensions></trkpt><trkpt lat="42.1790098865" lon="13.3924870379"><ele>2105.01</ele><time>2026-03-11T14:15:15Z</time><extensions><gpxtpx:TrackPointExtension><gpxtpx:atemp>3.6</gpxtpx:atemp></gpxtpx:TrackPointExtension></extensions></trkpt><trkpt lat="42.1790116467" lon="13.3924866188"><ele>2104.94</ele><time>2026-03-11T14:15:16Z</time><extensions><gpxtpx:TrackPointExtension><gpxtpx:atemp>3.6</gpxtpx:atemp></gpxtpx:TrackPointExtension></extensions></trkpt><trkpt lat="42.1790128201" lon="13.3924850263"><ele>2104.87</ele><time>2026-03-11T14:15:17Z</time><extensions><gpxtpx:TrackPointExtension><gpxtpx:atemp>3.6</gpxtpx:atemp></gpxtpx:TrackPointExtension></extensions></trkpt><trkpt lat="42.1790132392" lon="13.3924838528"><ele>2104.82</ele><time>2026-03-11T14:15:18Z</time><extensions><gpxtpx:TrackPointExtension><gpxtpx:atemp>3.6</gpxtpx:atemp></gpxtpx:TrackPointExtension></extensions></trkpt><trkpt lat="42.1790128201" lon="13.3924827632"><ele>2104.80</ele><time>2026-03-11T14:15:19Z</time><extensions><gpxtpx:TrackPointExtension><gpxtpx:atemp>3.6</gpxtpx:atemp></gpxtpx:TrackPointExtension></extensions></trkpt><trkpt lat="42.1790123172" lon="13.3924821764"><ele>2104.80</ele><time>2026-03-11T14:15:20Z</time><extensions><gpxtpx:TrackPointExtension><gpxtpx:atemp>3.6</gpxtpx:atemp></gpxtpx:TrackPointExtension></extensions></trkpt><trkpt lat="42.1790121496" lon="13.3924821764"><ele>2104.80</ele><time>2026-03-11T14:15:21Z</time><extensions><gpxtpx:TrackPointExtension><gpxtpx:atemp>3.6</gpxtpx:atemp></gpxtpx:TrackPointExtension></extensions></trkpt><trkpt lat="42.1790121496" lon="13.3924824279"><ele>2104.82</ele><time>2026-03-11T14:15:22Z</time><extensions><gpxtpx:TrackPointExtension><gpxtpx:atemp>3.6</gpxtpx:atemp></gpxtpx:TrackPointExtension></extensions></trkpt><trkpt lat="42.1790119819" lon="13.3924828470"><ele>2104.83</ele><time>2026-03-11T14:15:23Z</time><extensions><gpxtpx:TrackPointExtension><gpxtpx:atemp>3.6</gpxtpx:atemp></gpxtpx:TrackPointExtension></extensions></trkpt><trkpt lat="42.1790115628" lon="13.3924826793"><ele>2104.82</ele><time>2026-03-11T14:15:24Z</time><extensions><gpxtpx:TrackPointExtension><gpxtpx:atemp>3.6</gpxtpx:atemp></gpxtpx:TrackPointExtension></extensions></trkpt><trkpt lat="42.1790110599" lon="13.3924824279"><ele>2104.82</ele><time>2026-03-11T14:15:25Z</time><extensions><gpxtpx:TrackPointExtension><gpxtpx:atemp>3.6</gpxtpx:atemp></gpxtpx:TrackPointExtension></extensions></trkpt><trkpt lat="42.1790106408" lon="13.3924824279"><ele>2104.82</ele><time>2026-03-11T14:15:26Z</time><extensions><gpxtpx:TrackPointExtension><gpxtpx:atemp>3.6</gpxtpx:atemp></gpxtpx:TrackPointExtension></extensions></trkpt><trkpt lat="42.1790100541" lon="13.3924825955"><ele>2104.83</ele><time>2026-03-11T14:15:27Z</time><extensions><gpxtpx:TrackPointExtension><gpxtpx:atemp>3.6</gpxtpx:atemp></gpxtpx:TrackPointExtension></extensions></trkpt><trkpt lat="42.1790096350" lon="13.3924827632"><ele>2104.86</ele><time>2026-03-11T14:15:28Z</time><extensions><gpxtpx:TrackPointExtension><gpxtpx:atemp>3.6</gpxtpx:atemp></gpxtpx:TrackPointExtension></extensions></trkpt><trkpt lat="42.1790091321" lon="13.3924826793"><ele>2104.92</ele><time>2026-03-11T14:15:29Z</time><extensions><gpxtpx:TrackPointExtension><gpxtpx:atemp>3.6</gpxtpx:atemp></gpxtpx:TrackPointExtension></extensions></trkpt><trkpt lat="42.1790088806" lon="13.3924821764"><ele>2104.99</ele><time>2026-03-11T14:15:30Z</time><extensions><gpxtpx:TrackPointExtension><gpxtpx:atemp>3.6</gpxtpx:atemp></gpxtpx:TrackPointExtension></extensions></trkpt><trkpt lat="42.1790090483" lon="13.3924820926"><ele>2105.05</ele><time>2026-03-11T14:15:31Z</time><extensions><gpxtpx:TrackPointExtension><gpxtpx:atemp>3.6</gpxtpx:atemp></gpxtpx:TrackPointExtension></extensions></trkpt><trkpt lat="42.1790094674" lon="13.3924817573"><ele>2105.08</ele><time>2026-03-11T14:15:32Z</time><extensions><gpxtpx:TrackPointExtension><gpxtpx:atemp>3.6</gpxtpx:atemp></gpxtpx:TrackPointExtension></extensions></trkpt><trkpt lat="42.1790098865" lon="13.3924812544"><ele>2105.11</ele><time>2026-03-11T14:15:33Z</time><extensions><gpxtpx:TrackPointExtension><gpxtpx:atemp>4.0</gpxtpx:atemp></gpxtpx:TrackPointExtension></extensions></trkpt><trkpt lat="42.1790097188" lon="13.3924802486"><ele>2105.12</ele><time>2026-03-11T14:15:34Z</time><extensions><gpxtpx:TrackPointExtension><gpxtpx:atemp>4.0</gpxtpx:atemp></gpxtpx:TrackPointExtension></extensions></trkpt><trkpt lat="42.1790095512" lon="13.3924801648"><ele>2105.13</ele><time>2026-03-11T14:15:35Z</time><extensions><gpxtpx:TrackPointExtension><gpxtpx:atemp>4.0</gpxtpx:atemp></gpxtpx:TrackPointExtension></extensions></trkpt><trkpt lat="42.1790095512" lon="13.3924804162"><ele>2105.16</ele><time>2026-03-11T14:15:36Z</time><extensions><gpxtpx:TrackPointExtension><gpxtpx:atemp>4.0</gpxtpx:atemp></gpxtpx:TrackPointExtension></extensions></trkpt><trkpt lat="42.1790098865" lon="13.3924807515"><ele>2105.19</ele><time>2026-03-11T14:15:37Z</time><extensions><gpxtpx:TrackPointExtension><gpxtpx:atemp>4.0</gpxtpx:atemp></gpxtpx:TrackPointExtension></extensions></trkpt><trkpt lat="42.1790101379" lon="13.3924807515"><ele>2105.22</ele><time>2026-03-11T14:15:38Z</time><extensions><gpxtpx:TrackPointExtension><gpxtpx:atemp>4.0</gpxtpx:atemp></gpxtpx:TrackPointExtension></extensions></trkpt><trkpt lat="42.1790104732" lon="13.3924806677"><ele>2105.27</ele><time>2026-03-11T14:15:39Z</time><extensions><gpxtpx:TrackPointExtension><gpxtpx:atemp>4.0</gpxtpx:atemp></gpxtpx:TrackPointExtension></extensions></trkpt><trkpt lat="42.1790109761" lon="13.3924804162"><ele>2105.32</ele><time>2026-03-11T14:15:40Z</time><extensions><gpxtpx:TrackPointExtension><gpxtpx:atemp>4.0</gpxtpx:atemp></gpxtpx:TrackPointExtension></extensions></trkpt><trkpt lat="42.1790115628" lon="13.3924801648"><ele>2105.38</ele><time>2026-03-11T14:15:41Z</time><extensions><gpxtpx:TrackPointExtension><gpxtpx:atemp>4.0</gpxtpx:atemp></gpxtpx:TrackPointExtension></extensions></trkpt><trkpt lat="42.1790122334" lon="13.3924796619"><ele>2105.46</ele><time>2026-03-11T14:15:42Z</time><extensions><gpxtpx:TrackPointExtension><gpxtpx:atemp>4.0</gpxtpx:atemp></gpxtpx:TrackPointExtension></extensions></trkpt><trkpt lat="42.1790125687" lon="13.3924790751"><ele>2105.51</ele><time>2026-03-11T14:15:43Z</time><extensions><gpxtpx:TrackPointExtension><gpxtpx:atemp>4.0</gpxtpx:atemp></gpxtpx:TrackPointExtension></extensions></trkpt><trkpt lat="42.1790130716" lon="13.3924784884"><ele>2105.58</ele><time>2026-03-11T14:15:44Z</time><extensions><gpxtpx:TrackPointExtension><gpxtpx:atemp>4.0</gpxtpx:atemp></gpxtpx:TrackPointExtension></extensions></trkpt><trkpt lat="42.1790134907" lon="13.3924782369"><ele>2105.64</ele><time>2026-03-11T14:15:45Z</time><extensions><gpxtpx:TrackPointExtension><gpxtpx:atemp>4.0</gpxtpx:atemp></gpxtpx:TrackPointExtension></extensions></trkpt><trkpt lat="42.1790138260" lon="13.3924782369"><ele>2105.71</ele><time>2026-03-11T14:15:46Z</time><extensions><gpxtpx:TrackPointExtension><gpxtpx:atemp>4.0</gpxtpx:atemp></gpxtpx:TrackPointExtension></extensions></trkpt><trkpt lat="42.1790139936" lon="13.3924782369"><ele>2105.75</ele><time>2026-03-11T14:15:47Z</time><extensions><gpxtpx:TrackPointExtension><gpxtpx:atemp>4.0</gpxtpx:atemp></gpxtpx:TrackPointExtension></extensions></trkpt><trkpt lat="42.1790141612" lon="13.3924783207"><ele>2105.76</ele><time>2026-03-11T14:15:48Z</time><extensions><gpxtpx:TrackPointExtension><gpxtpx:atemp>4.0</gpxtpx:atemp></gpxtpx:TrackPointExtension></extensions></trkpt><trkpt lat="42.1790144965" lon="13.3924787398"><ele>2105.75</ele><time>2026-03-11T14:15:49Z</time><extensions><gpxtpx:TrackPointExtension><gpxtpx:atemp>4.0</gpxtpx:atemp></gpxtpx:TrackPointExtension></extensions></trkpt><trkpt lat="42.1790147480" lon="13.3924788237"><ele>2105.72</ele><time>2026-03-11T14:15:50Z</time><extensions><gpxtpx:TrackPointExtension><gpxtpx:atemp>4.0</gpxtpx:atemp></gpxtpx:TrackPointExtension></extensions></trkpt><trkpt lat="42.1790149994" lon="13.3924790751"><ele>2105.70</ele><time>2026-03-11T14:15:51Z</time><extensions><gpxtpx:TrackPointExtension><gpxtpx:atemp>4.0</gpxtpx:atemp></gpxtpx:TrackPointExtension></extensions></trkpt><trkpt lat="42.1790150832" lon="13.3924788237"><ele>2105.70</ele><time>2026-03-11T14:15:52Z</time><extensions><gpxtpx:TrackPointExtension><gpxtpx:atemp>4.0</gpxtpx:atemp></gpxtpx:TrackPointExtension></extensions></trkpt><trkpt lat="42.1790150832" lon="13.3924787398"><ele>2105.69</ele><time>2026-03-11T14:15:53Z</time><extensions><gpxtpx:TrackPointExtension><gpxtpx:atemp>4.0</gpxtpx:atemp></gpxtpx:TrackPointExtension></extensions></trkpt><trkpt lat="42.1790148318" lon="13.3924787398"><ele>2105.66</ele><time>2026-03-11T14:15:54Z</time><extensions><gpxtpx:TrackPointExtension><gpxtpx:atemp>4.0</gpxtpx:atemp></gpxtpx:TrackPointExtension></extensions></trkpt><trkpt lat="42.1790146641" lon="13.3924786560"><ele>2105.65</ele><time>2026-03-11T14:15:55Z</time><extensions><gpxtpx:TrackPointExtension><gpxtpx:atemp>4.0</gpxtpx:atemp></gpxtpx:TrackPointExtension></extensions></trkpt><trkpt lat="42.1790148318" lon="13.3924784884"><ele>2105.61</ele><time>2026-03-11T14:15:56Z</time><extensions><gpxtpx:TrackPointExtension><gpxtpx:atemp>4.0</gpxtpx:atemp></gpxtpx:TrackPointExtension></extensions></trkpt><trkpt lat="42.1790153347" lon="13.3924782369"><ele>2105.53</ele><time>2026-03-11T14:15:57Z</time><extensions><gpxtpx:TrackPointExtension><gpxtpx:atemp>4.0</gpxtpx:atemp></gpxtpx:TrackPointExtension></extensions></trkpt><trkpt lat="42.1790155862" lon="13.3924770635"><ele>2105.47</ele><time>2026-03-11T14:15:58Z</time><extensions><gpxtpx:TrackPointExtension><gpxtpx:atemp>4.0</gpxtpx:atemp></gpxtpx:TrackPointExtension></extensions></trkpt><trkpt lat="42.1790145803" lon="13.3924759738"><ele>2105.41</ele><time>2026-03-11T14:15:59Z</time><extensions><gpxtpx:TrackPointExtension><gpxtpx:atemp>4.0</gpxtpx:atemp></gpxtpx:TrackPointExtension></extensions></trkpt><trkpt lat="42.1790131554" lon="13.3924757224"><ele>2105.37</ele><time>2026-03-11T14:16:00Z</time><extensions><gpxtpx:TrackPointExtension><gpxtpx:atemp>4.0</gpxtpx:atemp></gpxtpx:TrackPointExtension></extensions></trkpt><trkpt lat="42.1790109761" lon="13.3924774826"><ele>2105.30</ele><time>2026-03-11T14:16:01Z</time><extensions><gpxtpx:TrackPointExtension><gpxtpx:atemp>4.0</gpxtpx:atemp></gpxtpx:TrackPointExtension></extensions></trkpt><trkpt lat="42.1790092997" lon="13.3924793266"><ele>2105.18</ele><time>2026-03-11T14:16:02Z</time><extensions><gpxtpx:TrackPointExtension><gpxtpx:atemp>4.0</gpxtpx:atemp></gpxtpx:TrackPointExtension></extensions></trkpt><trkpt lat="42.1790077910" lon="13.3924805839"><ele>2105.08</ele><time>2026-03-11T14:16:03Z</time><extensions><gpxtpx:TrackPointExtension><gpxtpx:atemp>4.0</gpxtpx:atemp></gpxtpx:TrackPointExtension></extensions></trkpt><trkpt lat="42.1790082939" lon="13.3924779855"><ele>2105.03</ele><time>2026-03-11T14:16:04Z</time><extensions><gpxtpx:TrackPointExtension><gpxtpx:atemp>4.0</gpxtpx:atemp></gpxtpx:TrackPointExtension></extensions></trkpt><trkpt lat="42.1790099703" lon="13.3924767282"><ele>2104.92</ele><time>2026-03-11T14:16:05Z</time><extensions><gpxtpx:TrackPointExtension><gpxtpx:atemp>4.0</gpxtpx:atemp></gpxtpx:TrackPointExtension></extensions></trkpt><trkpt lat="42.1790106408" lon="13.3924754709"><ele>2104.86</ele><time>2026-03-11T14:16:06Z</time><extensions><gpxtpx:TrackPointExtension><gpxtpx:atemp>4.0</gpxtpx:atemp></gpxtpx:TrackPointExtension></extensions></trkpt><trkpt lat="42.1790099703" lon="13.3924758900"><ele>2104.87</ele><time>2026-03-11T14:16:07Z</time><extensions><gpxtpx:TrackPointExtension><gpxtpx:atemp>4.0</gpxtpx:atemp></gpxtpx:TrackPointExtension></extensions></trkpt><trkpt lat="42.1790073719" lon="13.3924737945"><ele>2104.89</ele><time>2026-03-11T14:16:08Z</time><extensions><gpxtpx:TrackPointExtension><gpxtpx:atemp>4.0</gpxtpx:atemp></gpxtpx:TrackPointExtension></extensions></trkpt><trkpt lat="42.1790059470" lon="13.3924712799"><ele>2104.90</ele><time>2026-03-11T14:16:09Z</time><extensions><gpxtpx:TrackPointExtension><gpxtpx:atemp>4.0</gpxtpx:atemp></gpxtpx:TrackPointExtension></extensions></trkpt><trkpt lat="42.1790057793" lon="13.3924708609"><ele>2104.90</ele><time>2026-03-11T14:16:10Z</time><extensions><gpxtpx:TrackPointExtension><gpxtpx:atemp>4.0</gpxtpx:atemp></gpxtpx:TrackPointExtension></extensions></trkpt><trkpt lat="42.1790066175" lon="13.3924715314"><ele>2104.90</ele><time>2026-03-11T14:16:11Z</time><extensions><gpxtpx:TrackPointExtension><gpxtpx:atemp>4.0</gpxtpx:atemp></gpxtpx:TrackPointExtension></extensions></trkpt><trkpt lat="42.1790073719" lon="13.3924716990"><ele>2104.90</ele><time>2026-03-11T14:16:12Z</time><extensions><gpxtpx:TrackPointExtension><gpxtpx:atemp>4.0</gpxtpx:atemp></gpxtpx:TrackPointExtension></extensions></trkpt><trkpt lat="42.1790073719" lon="13.3924706932"><ele>2104.92</ele><time>2026-03-11T14:16:13Z</time><extensions><gpxtpx:TrackPointExtension><gpxtpx:atemp>4.0</gpxtpx:atemp></gpxtpx:TrackPointExtension></extensions></trkpt><trkpt lat="42.1790072881" lon="13.3924688492"><ele>2104.92</ele><time>2026-03-11T14:16:14Z</time><extensions><gpxtpx:TrackPointExtension><gpxtpx:atemp>4.0</gpxtpx:atemp></gpxtpx:TrackPointExtension></extensions></trkpt><trkpt lat="42.1790071204" lon="13.3924676757"><ele>2104.92</ele><time>2026-03-11T14:16:15Z</time><extensions><gpxtpx:TrackPointExtension><gpxtpx:atemp>4.0</gpxtpx:atemp></gpxtpx:TrackPointExtension></extensions></trkpt><trkpt lat="42.1790070366" lon="13.3924669214"><ele>2104.92</ele><time>2026-03-11T14:16:16Z</time><extensions><gpxtpx:TrackPointExtension><gpxtpx:atemp>4.0</gpxtpx:atemp></gpxtpx:TrackPointExtension></extensions></trkpt><trkpt lat="42.1790070366" lon="13.3924663346"><ele>2104.94</ele><time>2026-03-11T14:16:17Z</time><extensions><gpxtpx:TrackPointExtension><gpxtpx:atemp>4.0</gpxtpx:atemp></gpxtpx:TrackPointExtension></extensions></trkpt><trkpt lat="42.1790069528" lon="13.3924658317"><ele>2104.97</ele><time>2026-03-11T14:16:18Z</time><extensions><gpxtpx:TrackPointExtension><gpxtpx:atemp>4.0</gpxtpx:atemp></gpxtpx:TrackPointExtension></extensions></trkpt><trkpt lat="42.1790066175" lon="13.3924651612"><ele>2104.97</ele><time>2026-03-11T14:16:19Z</time><extensions><gpxtpx:TrackPointExtension><gpxtpx:atemp>4.0</gpxtpx:atemp></gpxtpx:TrackPointExtension></extensions></trkpt><trkpt lat="42.1790065337" lon="13.3924648259"><ele>2104.98</ele><time>2026-03-11T14:16:20Z</time><extensions><gpxtpx:TrackPointExtension><gpxtpx:atemp>4.0</gpxtpx:atemp></gpxtpx:TrackPointExtension></extensions></trkpt><trkpt lat="42.1790066175" lon="13.3924646582"><ele>2104.98</ele><time>2026-03-11T14:16:21Z</time><extensions><gpxtpx:TrackPointExtension><gpxtpx:atemp>4.0</gpxtpx:atemp></gpxtpx:TrackPointExtension></extensions></trkpt><trkpt lat="42.1790069528" lon="13.3924647421"><ele>2104.98</ele><time>2026-03-11T14:16:22Z</time><extensions><gpxtpx:TrackPointExtension><gpxtpx:atemp>4.0</gpxtpx:atemp></gpxtpx:TrackPointExtension></extensions></trkpt><trkpt lat="42.1790072881" lon="13.3924649935"><ele>2104.99</ele><time>2026-03-11T14:16:23Z</time><extensions><gpxtpx:TrackPointExtension><gpxtpx:atemp>4.0</gpxtpx:atemp></gpxtpx:TrackPointExtension></extensions></trkpt><trkpt lat="42.1790080424" lon="13.3924654964"><ele>2104.99</ele><time>2026-03-11T14:16:24Z</time><extensions><gpxtpx:TrackPointExtension><gpxtpx:atemp>4.0</gpxtpx:atemp></gpxtpx:TrackPointExtension></extensions></trkpt><trkpt lat="42.1790087968" lon="13.3924653288"><ele>2105.01</ele><time>2026-03-11T14:16:25Z</time><extensions><gpxtpx:TrackPointExtension><gpxtpx:atemp>4.0</gpxtpx:atemp></gpxtpx:TrackPointExtension></extensions></trkpt><trkpt lat="42.1790094674" lon="13.3924655803"><ele>2105.02</ele><time>2026-03-11T14:16:26Z</time><extensions><gpxtpx:TrackPointExtension><gpxtpx:atemp>4.0</gpxtpx:atemp></gpxtpx:TrackPointExtension></extensions></trkpt><trkpt lat="42.1790096350" lon="13.3924656641"><ele>2105.02</ele><time>2026-03-11T14:16:27Z</time><extensions><gpxtpx:TrackPointExtension><gpxtpx:atemp>4.0</gpxtpx:atemp></gpxtpx:TrackPointExtension></extensions></trkpt><trkpt lat="42.1790090483" lon="13.3924659993"><ele>2105.02</ele><time>2026-03-11T14:16:28Z</time><extensions><gpxtpx:TrackPointExtension><gpxtpx:atemp>4.0</gpxtpx:atemp></gpxtpx:TrackPointExtension></extensions></trkpt><trkpt lat="42.1790076233" lon="13.3924658317"><ele>2104.98</ele><time>2026-03-11T14:16:29Z</time><extensions><gpxtpx:TrackPointExtension><gpxtpx:atemp>4.0</gpxtpx:atemp></gpxtpx:TrackPointExtension></extensions></trkpt><trkpt lat="42.1790060308" lon="13.3924655803"><ele>2104.93</ele><time>2026-03-11T14:16:30Z</time><extensions><gpxtpx:TrackPointExtension><gpxtpx:atemp>4.0</gpxtpx:atemp></gpxtpx:TrackPointExtension></extensions></trkpt><trkpt lat="42.1790050250" lon="13.3924652450"><ele>2104.89</ele><time>2026-03-11T14:16:31Z</time><extensions><gpxtpx:TrackPointExtension><gpxtpx:atemp>4.0</gpxtpx:atemp></gpxtpx:TrackPointExtension></extensions></trkpt><trkpt lat="42.1790043544" lon="13.3924650773"><ele>2104.80</ele><time>2026-03-11T14:16:32Z</time><extensions><gpxtpx:TrackPointExtension><gpxtpx:atemp>4.0</gpxtpx:atemp></gpxtpx:TrackPointExtension></extensions></trkpt><trkpt lat="42.1790038515" lon="13.3924647421"><ele>2104.71</ele><time>2026-03-11T14:16:33Z</time><extensions><gpxtpx:TrackPointExtension><gpxtpx:atemp>4.0</gpxtpx:atemp></gpxtpx:TrackPointExtension></extensions></trkpt><trkpt lat="42.1790041868" lon="13.3924647421"><ele>2104.64</ele><time>2026-03-11T14:16:34Z</time><extensions><gpxtpx:TrackPointExtension><gpxtpx:atemp>4.0</gpxtpx:atemp></gpxtpx:TrackPointExtension></extensions></trkpt><trkpt lat="42.1790050250" lon="13.3924645744"><ele>2104.60</ele><time>2026-03-11T14:16:35Z</time><extensions><gpxtpx:TrackPointExtension><gpxtpx:atemp>4.0</gpxtpx:atemp></gpxtpx:TrackPointExtension></extensions></trkpt><trkpt lat="42.1790063661" lon="13.3924648259"><ele>2104.57</ele><time>2026-03-11T14:16:36Z</time><extensions><gpxtpx:TrackPointExtension><gpxtpx:atemp>4.0</gpxtpx:atemp></gpxtpx:TrackPointExtension></extensions></trkpt><trkpt lat="42.1790070366" lon="13.3924647421"><ele>2104.54</ele><time>2026-03-11T14:16:37Z</time><extensions><gpxtpx:TrackPointExtension><gpxtpx:atemp>4.0</gpxtpx:atemp></gpxtpx:TrackPointExtension></extensions></trkpt><trkpt lat="42.1790075395" lon="13.3924648259"><ele>2104.54</ele><time>2026-03-11T14:16:38Z</time><extensions><gpxtpx:TrackPointExtension><gpxtpx:atemp>4.0</gpxtpx:atemp></gpxtpx:TrackPointExtension></extensions></trkpt><trkpt lat="42.1790076233" lon="13.3924645744"><ele>2104.54</ele><time>2026-03-11T14:16:39Z</time><extensions><gpxtpx:TrackPointExtension><gpxtpx:atemp>4.0</gpxtpx:atemp></gpxtpx:TrackPointExtension></extensions></trkpt><trkpt lat="42.1790074557" lon="13.3924641553"><ele>2104.55</ele><time>2026-03-11T14:16:40Z</time><extensions><gpxtpx:TrackPointExtension><gpxtpx:atemp>4.0</gpxtpx:atemp></gpxtpx:TrackPointExtension></extensions></trkpt><trkpt lat="42.1790074557" lon="13.3924641553"><ele>2104.57</ele><time>2026-03-11T14:16:41Z</time><extensions><gpxtpx:TrackPointExtension><gpxtpx:atemp>4.0</gpxtpx:atemp></gpxtpx:TrackPointExtension></extensions></trkpt><trkpt lat="42.1790072881" lon="13.3924644906"><ele>2104.61</ele><time>2026-03-11T14:16:42Z</time><extensions><gpxtpx:TrackPointExtension><gpxtpx:atemp>4.0</gpxtpx:atemp></gpxtpx:TrackPointExtension></extensions></trkpt><trkpt lat="42.1790074557" lon="13.3924654964"><ele>2104.65</ele><time>2026-03-11T14:16:43Z</time><extensions><gpxtpx:TrackPointExtension><gpxtpx:atemp>4.0</gpxtpx:atemp></gpxtpx:TrackPointExtension></extensions></trkpt><trkpt lat="42.1790078748" lon="13.3924662508"><ele>2104.68</ele><time>2026-03-11T14:16:44Z</time><extensions><gpxtpx:TrackPointExtension><gpxtpx:atemp>4.0</gpxtpx:atemp></gpxtpx:TrackPointExtension></extensions></trkpt><trkpt lat="42.1790091321" lon="13.3924669214"><ele>2104.68</ele><time>2026-03-11T14:16:45Z</time><extensions><gpxtpx:TrackPointExtension><gpxtpx:atemp>4.0</gpxtpx:atemp></gpxtpx:TrackPointExtension></extensions></trkpt><trkpt lat="42.1790106408" lon="13.3924681786"><ele>2104.66</ele><time>2026-03-11T14:16:46Z</time><extensions><gpxtpx:TrackPointExtension><gpxtpx:atemp>4.0</gpxtpx:atemp></gpxtpx:TrackPointExtension></extensions></trkpt><trkpt lat="42.1790119819" lon="13.3924695197"><ele>2104.64</ele><time>2026-03-11T14:16:47Z</time><extensions><gpxtpx:TrackPointExtension><gpxtpx:atemp>4.0</gpxtpx:atemp></gpxtpx:TrackPointExtension></extensions></trkpt><trkpt lat="42.1790132392" lon="13.3924709447"><ele>2104.53</ele><time>2026-03-11T14:16:48Z</time><extensions><gpxtpx:TrackPointExtension><gpxtpx:atemp>4.0</gpxtpx:atemp></gpxtpx:TrackPointExtension></extensions></trkpt><trkpt lat="42.1790147480" lon="13.3924718667"><ele>2104.50</ele><time>2026-03-11T14:16:49Z</time><extensions><gpxtpx:TrackPointExtension><gpxtpx:atemp>4.0</gpxtpx:atemp></gpxtpx:TrackPointExtension></extensions></trkpt><trkpt lat="42.1790163405" lon="13.3924721181"><ele>2104.47</ele><time>2026-03-11T14:16:50Z</time><extensions><gpxtpx:TrackPointExtension><gpxtpx:atemp>4.0</gpxtpx:atemp></gpxtpx:TrackPointExtension></extensions></trkpt><trkpt lat="42.1790176816" lon="13.3924727887"><ele>2104.47</ele><time>2026-03-11T14:16:51Z</time><extensions><gpxtpx:TrackPointExtension><gpxtpx:atemp>4.0</gpxtpx:atemp></gpxtpx:TrackPointExtension></extensions></trkpt><trkpt lat="42.1790183522" lon="13.3924730401"><ele>2104.47</ele><time>2026-03-11T14:16:52Z</time><extensions><gpxtpx:TrackPointExtension><gpxtpx:atemp>4.0</gpxtpx:atemp></gpxtpx:TrackPointExtension></extensions></trkpt><trkpt lat="42.1790187713" lon="13.3924737945"><ele>2104.47</ele><time>2026-03-11T14:16:53Z</time><extensions><gpxtpx:TrackPointExtension><gpxtpx:atemp>4.0</gpxtpx:atemp></gpxtpx:TrackPointExtension></extensions></trkpt><trkpt lat="42.1790180169" lon="13.3924732916"><ele>2104.45</ele><time>2026-03-11T14:16:54Z</time><extensions><gpxtpx:TrackPointExtension><gpxtpx:atemp>4.0</gpxtpx:atemp></gpxtpx:TrackPointExtension></extensions></trkpt><trkpt lat="42.1790176816" lon="13.3924728725"><ele>2104.44</ele><time>2026-03-11T14:16:55Z</time><extensions><gpxtpx:TrackPointExtension><gpxtpx:atemp>4.0</gpxtpx:atemp></gpxtpx:TrackPointExtension></extensions></trkpt><trkpt lat="42.1790175978" lon="13.3924722858"><ele>2104.44</ele><time>2026-03-11T14:16:56Z</time><extensions><gpxtpx:TrackPointExtension><gpxtpx:atemp>4.0</gpxtpx:atemp></gpxtpx:TrackPointExtension></extensions></trkpt><trkpt lat="42.1790185198" lon="13.3924726211"><ele>2104.44</ele><time>2026-03-11T14:16:57Z</time><extensions><gpxtpx:TrackPointExtension><gpxtpx:atemp>4.0</gpxtpx:atemp></gpxtpx:TrackPointExtension></extensions></trkpt><trkpt lat="42.1790195256" lon="13.3924729563"><ele>2104.44</ele><time>2026-03-11T14:16:58Z</time><extensions><gpxtpx:TrackPointExtension><gpxtpx:atemp>4.0</gpxtpx:atemp></gpxtpx:TrackPointExtension></extensions></trkpt><trkpt lat="42.1790202800" lon="13.3924731240"><ele>2104.46</ele><time>2026-03-11T14:16:59Z</time><extensions><gpxtpx:TrackPointExtension><gpxtpx:atemp>4.0</gpxtpx:atemp></gpxtpx:TrackPointExtension></extensions></trkpt><trkpt lat="42.1790191904" lon="13.3924725372"><ele>2104.50</ele><time>2026-03-11T14:17:00Z</time><extensions><gpxtpx:TrackPointExtension><gpxtpx:atemp>4.0</gpxtpx:atemp></gpxtpx:TrackPointExtension></extensions></trkpt><trkpt lat="42.1790176816" lon="13.3924712799"><ele>2104.59</ele><time>2026-03-11T14:17:01Z</time><extensions><gpxtpx:TrackPointExtension><gpxtpx:atemp>4.0</gpxtpx:atemp></gpxtpx:TrackPointExtension></extensions></trkpt><trkpt lat="42.1790162567" lon="13.3924699388"><ele>2104.62</ele><time>2026-03-11T14:17:02Z</time><extensions><gpxtpx:TrackPointExtension><gpxtpx:atemp>4.0</gpxtpx:atemp></gpxtpx:TrackPointExtension></extensions></trkpt><trkpt lat="42.1790152509" lon="13.3924697712"><ele>2104.64</ele><time>2026-03-11T14:17:03Z</time><extensions><gpxtpx:TrackPointExtension><gpxtpx:atemp>4.0</gpxtpx:atemp></gpxtpx:TrackPointExtension></extensions></trkpt><trkpt lat="42.1790142450" lon="13.3924707770"><ele>2104.64</ele><time>2026-03-11T14:17:04Z</time><extensions><gpxtpx:TrackPointExtension><gpxtpx:atemp>4.0</gpxtpx:atemp></gpxtpx:TrackPointExtension></extensions></trkpt><trkpt lat="42.1790136583" lon="13.3924716990"><ele>2104.64</ele><time>2026-03-11T14:17:05Z</time><extensions><gpxtpx:TrackPointExtension><gpxtpx:atemp>4.0</gpxtpx:atemp></gpxtpx:TrackPointExtension></extensions></trkpt><trkpt lat="42.1790139936" lon="13.3924719505"><ele>2104.63</ele><time>2026-03-11T14:17:06Z</time><extensions><gpxtpx:TrackPointExtension><gpxtpx:atemp>4.0</gpxtpx:atemp></gpxtpx:TrackPointExtension></extensions></trkpt><trkpt lat="42.1790144965" lon="13.3924710285"><ele>2104.63</ele><time>2026-03-11T14:17:07Z</time><extensions><gpxtpx:TrackPointExtension><gpxtpx:atemp>4.0</gpxtpx:atemp></gpxtpx:TrackPointExtension></extensions></trkpt><trkpt lat="42.1790141612" lon="13.3924700227"><ele>2104.63</ele><time>2026-03-11T14:17:08Z</time><extensions><gpxtpx:TrackPointExtension><gpxtpx:atemp>4.0</gpxtpx:atemp></gpxtpx:TrackPointExtension></extensions></trkpt><trkpt lat="42.1790138260" lon="13.3924689330"><ele>2104.63</ele><time>2026-03-11T14:17:09Z</time><extensions><gpxtpx:TrackPointExtension><gpxtpx:atemp>4.0</gpxtpx:atemp></gpxtpx:TrackPointExtension></extensions></trkpt><trkpt lat="42.1790146641" lon="13.3924684301"><ele>2104.64</ele><time>2026-03-11T14:17:10Z</time><extensions><gpxtpx:TrackPointExtension><gpxtpx:atemp>4.0</gpxtpx:atemp></gpxtpx:TrackPointExtension></extensions></trkpt><trkpt lat="42.1790161729" lon="13.3924680948"><ele>2104.64</ele><time>2026-03-11T14:17:11Z</time><extensions><gpxtpx:TrackPointExtension><gpxtpx:atemp>4.0</gpxtpx:atemp></gpxtpx:TrackPointExtension></extensions></trkpt><trkpt lat="42.1790174302" lon="13.3924679272"><ele>2104.66</ele><time>2026-03-11T14:17:12Z</time><extensions><gpxtpx:TrackPointExtension><gpxtpx:atemp>4.0</gpxtpx:atemp></gpxtpx:TrackPointExtension></extensions></trkpt><trkpt lat="42.1790175978" lon="13.3924676757"><ele>2104.70</ele><time>2026-03-11T14:17:13Z</time><extensions><gpxtpx:TrackPointExtension><gpxtpx:atemp>4.0</gpxtpx:atemp></gpxtpx:TrackPointExtension></extensions></trkpt><trkpt lat="42.1790170949" lon="13.3924673405"><ele>2104.75</ele><time>2026-03-11T14:17:14Z</time><extensions><gpxtpx:TrackPointExtension><gpxtpx:atemp>4.0</gpxtpx:atemp></gpxtpx:TrackPointExtension></extensions></trkpt><trkpt lat="42.1790163405" lon="13.3924671728"><ele>2104.76</ele><time>2026-03-11T14:17:15Z</time><extensions><gpxtpx:TrackPointExtension><gpxtpx:atemp>4.0</gpxtpx:atemp></gpxtpx:TrackPointExtension></extensions></trkpt><trkpt lat="42.1790160891" lon="13.3924673405"><ele>2104.77</ele><time>2026-03-11T14:17:16Z</time><extensions><gpxtpx:TrackPointExtension><gpxtpx:atemp>4.0</gpxtpx:atemp></gpxtpx:TrackPointExtension></extensions></trkpt><trkpt lat="42.1790149994" lon="13.3924679272"><ele>2104.77</ele><time>2026-03-11T14:17:17Z</time><extensions><gpxtpx:TrackPointExtension><gpxtpx:atemp>4.0</gpxtpx:atemp></gpxtpx:TrackPointExtension></extensions></trkpt><trkpt lat="42.1790139936" lon="13.3924679272"><ele>2104.78</ele><time>2026-03-11T14:17:18Z</time><extensions><gpxtpx:TrackPointExtension><gpxtpx:atemp>4.0</gpxtpx:atemp></gpxtpx:TrackPointExtension></extensions></trkpt><trkpt lat="42.1790134907" lon="13.3924672566"><ele>2104.79</ele><time>2026-03-11T14:17:19Z</time><extensions><gpxtpx:TrackPointExtension><gpxtpx:atemp>4.0</gpxtpx:atemp></gpxtpx:TrackPointExtension></extensions></trkpt><trkpt lat="42.1790139936" lon="13.3924666699"><ele>2104.79</ele><time>2026-03-11T14:17:20Z</time><extensions><gpxtpx:TrackPointExtension><gpxtpx:atemp>4.0</gpxtpx:atemp></gpxtpx:TrackPointExtension></extensions></trkpt><trkpt lat="42.1790146641" lon="13.3924667537"><ele>2104.79</ele><time>2026-03-11T14:17:21Z</time><extensions><gpxtpx:TrackPointExtension><gpxtpx:atemp>4.0</gpxtpx:atemp></gpxtpx:TrackPointExtension></extensions></trkpt><trkpt lat="42.1790152509" lon="13.3924674243"><ele>2104.78</ele><time>2026-03-11T14:17:22Z</time><extensions><gpxtpx:TrackPointExtension><gpxtpx:atemp>4.0</gpxtpx:atemp></gpxtpx:TrackPointExtension></extensions></trkpt><trkpt lat="42.1790158376" lon="13.3924679272"><ele>2104.78</ele><time>2026-03-11T14:17:23Z</time><extensions><gpxtpx:TrackPointExtension><gpxtpx:atemp>4.0</gpxtpx:atemp></gpxtpx:TrackPointExtension></extensions></trkpt><trkpt lat="42.1790164243" lon="13.3924683463"><ele>2104.78</ele><time>2026-03-11T14:17:24Z</time><extensions><gpxtpx:TrackPointExtension><gpxtpx:atemp>4.0</gpxtpx:atemp></gpxtpx:TrackPointExtension></extensions></trkpt><trkpt lat="42.1790165920" lon="13.3924681786"><ele>2104.78</ele><time>2026-03-11T14:17:25Z</time><extensions><gpxtpx:TrackPointExtension><gpxtpx:atemp>4.0</gpxtpx:atemp></gpxtpx:TrackPointExtension></extensions></trkpt><trkpt lat="42.1790169273" lon="13.3924682625"><ele>2104.78</ele><time>2026-03-11T14:17:26Z</time><extensions><gpxtpx:TrackPointExtension><gpxtpx:atemp>4.0</gpxtpx:atemp></gpxtpx:TrackPointExtension></extensions></trkpt><trkpt lat="42.1790170949" lon="13.3924679272"><ele>2104.79</ele><time>2026-03-11T14:17:27Z</time><extensions><gpxtpx:TrackPointExtension><gpxtpx:atemp>4.0</gpxtpx:atemp></gpxtpx:TrackPointExtension></extensions></trkpt><trkpt lat="42.1790171787" lon="13.3924683463"><ele>2104.86</ele><time>2026-03-11T14:17:28Z</time><extensions><gpxtpx:TrackPointExtension><gpxtpx:atemp>4.0</gpxtpx:atemp></gpxtpx:TrackPointExtension></extensions></trkpt><trkpt lat="42.1790164243" lon="13.3924672566"><ele>2104.96</ele><time>2026-03-11T14:17:29Z</time><extensions><gpxtpx:TrackPointExtension><gpxtpx:atemp>4.0</gpxtpx:atemp></gpxtpx:TrackPointExtension></extensions></trkpt><trkpt lat="42.1790167596" lon="13.3924656641"><ele>2105.12</ele><time>2026-03-11T14:17:30Z</time><extensions><gpxtpx:TrackPointExtension><gpxtpx:atemp>4.0</gpxtpx:atemp></gpxtpx:TrackPointExtension></extensions></trkpt><trkpt lat="42.1790172625" lon="13.3924642392"><ele>2105.28</ele><time>2026-03-11T14:17:31Z</time><extensions><gpxtpx:TrackPointExtension><gpxtpx:atemp>4.0</gpxtpx:atemp></gpxtpx:TrackPointExtension></extensions></trkpt><trkpt lat="42.1790174302" lon="13.3924640715"><ele>2105.43</ele><time>2026-03-11T14:17:32Z</time><extensions><gpxtpx:TrackPointExtension><gpxtpx:atemp>4.0</gpxtpx:atemp></gpxtpx:TrackPointExtension></extensions></trkpt><trkpt lat="42.1790154185" lon="13.3924644906"><ele>2105.58</ele><time>2026-03-11T14:17:33Z</time><extensions><gpxtpx:TrackPointExtension><gpxtpx:atemp>3.9</gpxtpx:atemp></gpxtpx:TrackPointExtension></extensions></trkpt><trkpt lat="42.1790135745" lon="13.3924662508"><ele>2105.66</ele><time>2026-03-11T14:17:34Z</time><extensions><gpxtpx:TrackPointExtension><gpxtpx:atemp>3.9</gpxtpx:atemp></gpxtpx:TrackPointExtension></extensions></trkpt><trkpt lat="42.1790123172" lon="13.3924694359"><ele>2105.74</ele><time>2026-03-11T14:17:35Z</time><extensions><gpxtpx:TrackPointExtension><gpxtpx:atemp>3.9</gpxtpx:atemp></gpxtpx:TrackPointExtension></extensions></trkpt><trkpt lat="42.1790120658" lon="13.3924724534"><ele>2105.71</ele><time>2026-03-11T14:17:36Z</time><extensions><gpxtpx:TrackPointExtension><gpxtpx:atemp>3.9</gpxtpx:atemp></gpxtpx:TrackPointExtension></extensions></trkpt><trkpt lat="42.1790118981" lon="13.3924736269"><ele>2105.62</ele><time>2026-03-11T14:17:37Z</time><extensions><gpxtpx:TrackPointExtension><gpxtpx:atemp>3.9</gpxtpx:atemp></gpxtpx:TrackPointExtension></extensions></trkpt><trkpt lat="42.1790116467" lon="13.3924731240"><ele>2105.52</ele><time>2026-03-11T14:17:38Z</time><extensions><gpxtpx:TrackPointExtension><gpxtpx:atemp>3.9</gpxtpx:atemp></gpxtpx:TrackPointExtension></extensions></trkpt><trkpt lat="42.1790123172" lon="13.3924729563"><ele>2105.42</ele><time>2026-03-11T14:17:39Z</time><extensions><gpxtpx:TrackPointExtension><gpxtpx:atemp>3.9</gpxtpx:atemp></gpxtpx:TrackPointExtension></extensions></trkpt><trkpt lat="42.1790130716" lon="13.3924735431"><ele>2105.36</ele><time>2026-03-11T14:17:40Z</time><extensions><gpxtpx:TrackPointExtension><gpxtpx:atemp>3.9</gpxtpx:atemp></gpxtpx:TrackPointExtension></extensions></trkpt><trkpt lat="42.1790137421" lon="13.3924743813"><ele>2105.34</ele><time>2026-03-11T14:17:41Z</time><extensions><gpxtpx:TrackPointExtension><gpxtpx:atemp>3.9</gpxtpx:atemp></gpxtpx:TrackPointExtension></extensions></trkpt><trkpt lat="42.1790139936" lon="13.3924748842"><ele>2105.30</ele><time>2026-03-11T14:17:42Z</time><extensions><gpxtpx:TrackPointExtension><gpxtpx:atemp>3.9</gpxtpx:atemp></gpxtpx:TrackPointExtension></extensions></trkpt><trkpt lat="42.1790139936" lon="13.3924739622"><ele>2105.30</ele><time>2026-03-11T14:17:43Z</time><extensions><gpxtpx:TrackPointExtension><gpxtpx:atemp>3.9</gpxtpx:atemp></gpxtpx:TrackPointExtension></extensions></trkpt><trkpt lat="42.1790136583" lon="13.3924726211"><ele>2105.26</ele><time>2026-03-11T14:17:44Z</time><extensions><gpxtpx:TrackPointExtension><gpxtpx:atemp>3.9</gpxtpx:atemp></gpxtpx:TrackPointExtension></extensions></trkpt><trkpt lat="42.1790133230" lon="13.3924714476"><ele>2105.26</ele><time>2026-03-11T14:17:45Z</time><extensions><gpxtpx:TrackPointExtension><gpxtpx:atemp>3.9</gpxtpx:atemp></gpxtpx:TrackPointExtension></extensions></trkpt><trkpt lat="42.1790132392" lon="13.3924707770"><ele>2105.26</ele><time>2026-03-11T14:17:46Z</time><extensions><gpxtpx:TrackPointExtension><gpxtpx:atemp>3.9</gpxtpx:atemp></gpxtpx:TrackPointExtension></extensions></trkpt><trkpt lat="42.1790135745" lon="13.3924701903"><ele>2105.26</ele><time>2026-03-11T14:17:47Z</time><extensions><gpxtpx:TrackPointExtension><gpxtpx:atemp>3.9</gpxtpx:atemp></gpxtpx:TrackPointExtension></extensions></trkpt><trkpt lat="42.1790141612" lon="13.3924695197"><ele>2105.26</ele><time>2026-03-11T14:17:48Z</time><extensions><gpxtpx:TrackPointExtension><gpxtpx:atemp>3.9</gpxtpx:atemp></gpxtpx:TrackPointExtension></extensions></trkpt><trkpt lat="42.1790144965" lon="13.3924692683"><ele>2105.26</ele><time>2026-03-11T14:17:49Z</time><extensions><gpxtpx:TrackPointExtension><gpxtpx:atemp>3.9</gpxtpx:atemp></gpxtpx:TrackPointExtension></extensions></trkpt><trkpt lat="42.1790144965" lon="13.3924683463"><ele>2105.29</ele><time>2026-03-11T14:17:50Z</time><extensions><gpxtpx:TrackPointExtension><gpxtpx:atemp>3.9</gpxtpx:atemp></gpxtpx:TrackPointExtension></extensions></trkpt><trkpt lat="42.1790138260" lon="13.3924667537"><ele>2105.36</ele><time>2026-03-11T14:17:51Z</time><extensions><gpxtpx:TrackPointExtension><gpxtpx:atemp>3.9</gpxtpx:atemp></gpxtpx:TrackPointExtension></extensions></trkpt><trkpt lat="42.1790132392" lon="13.3924646582"><ele>2105.46</ele><time>2026-03-11T14:17:52Z</time><extensions><gpxtpx:TrackPointExtension><gpxtpx:atemp>3.9</gpxtpx:atemp></gpxtpx:TrackPointExtension></extensions></trkpt><trkpt lat="42.1790127363" lon="13.3924631495"><ele>2105.52</ele><time>2026-03-11T14:17:53Z</time><extensions><gpxtpx:TrackPointExtension><gpxtpx:atemp>3.9</gpxtpx:atemp></gpxtpx:TrackPointExtension></extensions></trkpt><trkpt lat="42.1790126525" lon="13.3924621437"><ele>2105.53</ele><time>2026-03-11T14:17:54Z</time><extensions><gpxtpx:TrackPointExtension><gpxtpx:atemp>3.9</gpxtpx:atemp></gpxtpx:TrackPointExtension></extensions></trkpt><trkpt lat="42.1790128201" lon="13.3924614731"><ele>2105.59</ele><time>2026-03-11T14:17:55Z</time><extensions><gpxtpx:TrackPointExtension><gpxtpx:atemp>3.9</gpxtpx:atemp></gpxtpx:TrackPointExtension></extensions></trkpt><trkpt lat="42.1790136583" lon="13.3924605511"><ele>2105.59</ele><time>2026-03-11T14:17:56Z</time><extensions><gpxtpx:TrackPointExtension><gpxtpx:atemp>3.9</gpxtpx:atemp></gpxtpx:TrackPointExtension></extensions></trkpt><trkpt lat="42.1790144965" lon="13.3924596291"><ele>2105.51</ele><time>2026-03-11T14:17:57Z</time><extensions><gpxtpx:TrackPointExtension><gpxtpx:atemp>3.9</gpxtpx:atemp></gpxtpx:TrackPointExtension></extensions></trkpt><trkpt lat="42.1790149994" lon="13.3924589586"><ele>2105.02</ele><time>2026-03-11T14:17:58Z</time><extensions><gpxtpx:TrackPointExtension><gpxtpx:atemp>3.9</gpxtpx:atemp></gpxtpx:TrackPointExtension></extensions></trkpt><trkpt lat="42.1790147480" lon="13.3924587909"><ele>2104.95</ele><time>2026-03-11T14:17:59Z</time><extensions><gpxtpx:TrackPointExtension><gpxtpx:atemp>3.9</gpxtpx:atemp></gpxtpx:TrackPointExtension></extensions></trkpt><trkpt lat="42.1790144965" lon="13.3924589586"><ele>2105.32</ele><time>2026-03-11T14:18:00Z</time><extensions><gpxtpx:TrackPointExtension><gpxtpx:atemp>3.9</gpxtpx:atemp></gpxtpx:TrackPointExtension></extensions></trkpt><trkpt lat="42.1790144965" lon="13.3924595453"><ele>2105.61</ele><time>2026-03-11T14:18:01Z</time><extensions><gpxtpx:TrackPointExtension><gpxtpx:atemp>3.9</gpxtpx:atemp></gpxtpx:TrackPointExtension></extensions></trkpt><trkpt lat="42.1790146641" lon="13.3924602997"><ele>2105.98</ele><time>2026-03-11T14:18:02Z</time><extensions><gpxtpx:TrackPointExtension><gpxtpx:atemp>3.9</gpxtpx:atemp></gpxtpx:TrackPointExtension></extensions></trkpt><trkpt lat="42.1790149994" lon="13.3924609702"><ele>2106.17</ele><time>2026-03-11T14:18:03Z</time><extensions><gpxtpx:TrackPointExtension><gpxtpx:atemp>3.9</gpxtpx:atemp></gpxtpx:TrackPointExtension></extensions></trkpt><trkpt lat="42.1790150832" lon="13.3924614731"><ele>2106.28</ele><time>2026-03-11T14:18:04Z</time><extensions><gpxtpx:TrackPointExtension><gpxtpx:atemp>3.9</gpxtpx:atemp></gpxtpx:TrackPointExtension></extensions></trkpt><trkpt lat="42.1790148318" lon="13.3924615569"><ele>2106.19</ele><time>2026-03-11T14:18:05Z</time><extensions><gpxtpx:TrackPointExtension><gpxtpx:atemp>3.9</gpxtpx:atemp></gpxtpx:TrackPointExtension></extensions></trkpt><trkpt lat="42.1790147480" lon="13.3924612217"><ele>2106.08</ele><time>2026-03-11T14:18:06Z</time><extensions><gpxtpx:TrackPointExtension><gpxtpx:atemp>3.9</gpxtpx:atemp></gpxtpx:TrackPointExtension></extensions></trkpt><trkpt lat="42.1790147480" lon="13.3924611378"><ele>2105.98</ele><time>2026-03-11T14:18:07Z</time><extensions><gpxtpx:TrackPointExtension><gpxtpx:atemp>3.9</gpxtpx:atemp></gpxtpx:TrackPointExtension></extensions></trkpt><trkpt lat="42.1790153347" lon="13.3924613893"><ele>2105.87</ele><time>2026-03-11T14:18:08Z</time><extensions><gpxtpx:TrackPointExtension><gpxtpx:atemp>3.9</gpxtpx:atemp></gpxtpx:TrackPointExtension></extensions></trkpt><trkpt lat="42.1790164243" lon="13.3924617246"><ele>2105.58</ele><time>2026-03-11T14:18:09Z</time><extensions><gpxtpx:TrackPointExtension><gpxtpx:atemp>3.9</gpxtpx:atemp></gpxtpx:TrackPointExtension></extensions></trkpt><trkpt lat="42.1790176816" lon="13.3924619760"><ele>2105.42</ele><time>2026-03-11T14:18:10Z</time><extensions><gpxtpx:TrackPointExtension><gpxtpx:atemp>3.9</gpxtpx:atemp></gpxtpx:TrackPointExtension></extensions></trkpt><trkpt lat="42.1790188551" lon="13.3924623951"><ele>2105.26</ele><time>2026-03-11T14:18:11Z</time><extensions><gpxtpx:TrackPointExtension><gpxtpx:atemp>3.9</gpxtpx:atemp></gpxtpx:TrackPointExtension></extensions></trkpt><trkpt lat="42.1790192742" lon="13.3924629819"><ele>2105.13</ele><time>2026-03-11T14:18:12Z</time><extensions><gpxtpx:TrackPointExtension><gpxtpx:atemp>3.9</gpxtpx:atemp></gpxtpx:TrackPointExtension></extensions></trkpt><trkpt lat="42.1790194418" lon="13.3924636524"><ele>2105.04</ele><time>2026-03-11T14:18:13Z</time><extensions><gpxtpx:TrackPointExtension><gpxtpx:atemp>3.9</gpxtpx:atemp></gpxtpx:TrackPointExtension></extensions></trkpt><trkpt lat="42.1790195256" lon="13.3924643230"><ele>2104.99</ele><time>2026-03-11T14:18:14Z</time><extensions><gpxtpx:TrackPointExtension><gpxtpx:atemp>3.9</gpxtpx:atemp></gpxtpx:TrackPointExtension></extensions></trkpt><trkpt lat="42.1790199447" lon="13.3924653288"><ele>2104.97</ele><time>2026-03-11T14:18:15Z</time><extensions><gpxtpx:TrackPointExtension><gpxtpx:atemp>3.9</gpxtpx:atemp></gpxtpx:TrackPointExtension></extensions></trkpt><trkpt lat="42.1790205315" lon="13.3924663346"><ele>2104.96</ele><time>2026-03-11T14:18:16Z</time><extensions><gpxtpx:TrackPointExtension><gpxtpx:atemp>3.9</gpxtpx:atemp></gpxtpx:TrackPointExtension></extensions></trkpt><trkpt lat="42.1790208668" lon="13.3924672566"><ele>2104.95</ele><time>2026-03-11T14:18:17Z</time><extensions><gpxtpx:TrackPointExtension><gpxtpx:atemp>3.9</gpxtpx:atemp></gpxtpx:TrackPointExtension></extensions></trkpt><trkpt lat="42.1790209506" lon="13.3924677595"><ele>2104.94</ele><time>2026-03-11T14:18:18Z</time><extensions><gpxtpx:TrackPointExtension><gpxtpx:atemp>3.9</gpxtpx:atemp></gpxtpx:TrackPointExtension></extensions></trkpt><trkpt lat="42.1790209506" lon="13.3924680948"><ele>2104.94</ele><time>2026-03-11T14:18:19Z</time><extensions><gpxtpx:TrackPointExtension><gpxtpx:atemp>3.9</gpxtpx:atemp></gpxtpx:TrackPointExtension></extensions></trkpt><trkpt lat="42.1790208668" lon="13.3924680948"><ele>2104.94</ele><time>2026-03-11T14:18:20Z</time><extensions><gpxtpx:TrackPointExtension><gpxtpx:atemp>3.9</gpxtpx:atemp></gpxtpx:TrackPointExtension></extensions></trkpt><trkpt lat="42.1790206991" lon="13.3924677595"><ele>2104.97</ele><time>2026-03-11T14:18:21Z</time><extensions><gpxtpx:TrackPointExtension><gpxtpx:atemp>3.9</gpxtpx:atemp></gpxtpx:TrackPointExtension></extensions></trkpt><trkpt lat="42.1790203638" lon="13.3924674243"><ele>2105.02</ele><time>2026-03-11T14:18:22Z</time><extensions><gpxtpx:TrackPointExtension><gpxtpx:atemp>3.9</gpxtpx:atemp></gpxtpx:TrackPointExtension></extensions></trkpt><trkpt lat="42.1790202800" lon="13.3924670890"><ele>2105.05</ele><time>2026-03-11T14:18:23Z</time><extensions><gpxtpx:TrackPointExtension><gpxtpx:atemp>3.9</gpxtpx:atemp></gpxtpx:TrackPointExtension></extensions></trkpt><trkpt lat="42.1790200286" lon="13.3924663346"><ele>2105.06</ele><time>2026-03-11T14:18:24Z</time><extensions><gpxtpx:TrackPointExtension><gpxtpx:atemp>3.9</gpxtpx:atemp></gpxtpx:TrackPointExtension></extensions></trkpt><trkpt lat="42.1790194418" lon="13.3924654964"><ele>2105.06</ele><time>2026-03-11T14:18:25Z</time><extensions><gpxtpx:TrackPointExtension><gpxtpx:atemp>3.9</gpxtpx:atemp></gpxtpx:TrackPointExtension></extensions></trkpt><trkpt lat="42.1790196933" lon="13.3924641553"><ele>2105.05</ele><time>2026-03-11T14:18:26Z</time><extensions><gpxtpx:TrackPointExtension><gpxtpx:atemp>3.9</gpxtpx:atemp></gpxtpx:TrackPointExtension></extensions></trkpt><trkpt lat="42.1790203638" lon="13.3924631495"><ele>2105.01</ele><time>2026-03-11T14:18:27Z</time><extensions><gpxtpx:TrackPointExtension><gpxtpx:atemp>3.9</gpxtpx:atemp></gpxtpx:TrackPointExtension></extensions></trkpt><trkpt lat="42.1790208668" lon="13.3924624790"><ele>2104.98</ele><time>2026-03-11T14:18:28Z</time><extensions><gpxtpx:TrackPointExtension><gpxtpx:atemp>3.9</gpxtpx:atemp></gpxtpx:TrackPointExtension></extensions></trkpt><trkpt lat="42.1790206991" lon="13.3924629819"><ele>2104.97</ele><time>2026-03-11T14:18:29Z</time><extensions><gpxtpx:TrackPointExtension><gpxtpx:atemp>3.9</gpxtpx:atemp></gpxtpx:TrackPointExtension></extensions></trkpt><trkpt lat="42.1790198609" lon="13.3924643230"><ele>2104.97</ele><time>2026-03-11T14:18:30Z</time><extensions><gpxtpx:TrackPointExtension><gpxtpx:atemp>3.9</gpxtpx:atemp></gpxtpx:TrackPointExtension></extensions></trkpt><trkpt lat="42.1790186875" lon="13.3924653288"><ele>2104.97</ele><time>2026-03-11T14:18:31Z</time><extensions><gpxtpx:TrackPointExtension><gpxtpx:atemp>3.9</gpxtpx:atemp></gpxtpx:TrackPointExtension></extensions></trkpt><trkpt lat="42.1790176816" lon="13.3924652450"><ele>2104.96</ele><time>2026-03-11T14:18:32Z</time><extensions><gpxtpx:TrackPointExtension><gpxtpx:atemp>3.8</gpxtpx:atemp></gpxtpx:TrackPointExtension></extensions></trkpt><trkpt lat="42.1790172625" lon="13.3924634848"><ele>2104.96</ele><time>2026-03-11T14:18:33Z</time><extensions><gpxtpx:TrackPointExtension><gpxtpx:atemp>3.8</gpxtpx:atemp></gpxtpx:TrackPointExtension></extensions></trkpt><trkpt lat="42.1790177654" lon="13.3924630657"><ele>2104.96</ele><time>2026-03-11T14:18:34Z</time><extensions><gpxtpx:TrackPointExtension><gpxtpx:atemp>3.8</gpxtpx:atemp></gpxtpx:TrackPointExtension></extensions></trkpt><trkpt lat="42.1790176816" lon="13.3924632333"><ele>2104.96</ele><time>2026-03-11T14:18:35Z</time><extensions><gpxtpx:TrackPointExtension><gpxtpx:atemp>3.8</gpxtpx:atemp></gpxtpx:TrackPointExtension></extensions></trkpt><trkpt lat="42.1790165920" lon="13.3924639877"><ele>2104.96</ele><time>2026-03-11T14:18:36Z</time><extensions><gpxtpx:TrackPointExtension><gpxtpx:atemp>3.8</gpxtpx:atemp></gpxtpx:TrackPointExtension></extensions></trkpt><trkpt lat="42.1790153347" lon="13.3924635686"><ele>2105.00</ele><time>2026-03-11T14:18:37Z</time><extensions><gpxtpx:TrackPointExtension><gpxtpx:atemp>3.8</gpxtpx:atemp></gpxtpx:TrackPointExtension></extensions></trkpt><trkpt lat="42.1790138260" lon="13.3924632333"><ele>2105.06</ele><time>2026-03-11T14:18:38Z</time><extensions><gpxtpx:TrackPointExtension><gpxtpx:atemp>3.8</gpxtpx:atemp></gpxtpx:TrackPointExtension></extensions></trkpt><trkpt lat="42.1790120658" lon="13.3924637362"><ele>2105.09</ele><time>2026-03-11T14:18:39Z</time><extensions><gpxtpx:TrackPointExtension><gpxtpx:atemp>3.8</gpxtpx:atemp></gpxtpx:TrackPointExtension></extensions></trkpt><trkpt lat="42.1790101379" lon="13.3924647421"><ele>2105.12</ele><time>2026-03-11T14:18:40Z</time><extensions><gpxtpx:TrackPointExtension><gpxtpx:atemp>3.8</gpxtpx:atemp></gpxtpx:TrackPointExtension></extensions></trkpt><trkpt lat="42.1790096350" lon="13.3924636524"><ele>2105.14</ele><time>2026-03-11T14:18:41Z</time><extensions><gpxtpx:TrackPointExtension><gpxtpx:atemp>3.8</gpxtpx:atemp></gpxtpx:TrackPointExtension></extensions></trkpt><trkpt lat="42.1790092997" lon="13.3924616408"><ele>2105.16</ele><time>2026-03-11T14:18:42Z</time><extensions><gpxtpx:TrackPointExtension><gpxtpx:atemp>3.8</gpxtpx:atemp></gpxtpx:TrackPointExtension></extensions></trkpt><trkpt lat="42.1790089644" lon="13.3924596291"><ele>2105.17</ele><time>2026-03-11T14:18:43Z</time><extensions><gpxtpx:TrackPointExtension><gpxtpx:atemp>3.8</gpxtpx:atemp></gpxtpx:TrackPointExtension></extensions></trkpt><trkpt lat="42.1790083777" lon="13.3924594615"><ele>2105.16</ele><time>2026-03-11T14:18:44Z</time><extensions><gpxtpx:TrackPointExtension><gpxtpx:atemp>3.8</gpxtpx:atemp></gpxtpx:TrackPointExtension></extensions></trkpt><trkpt lat="42.1790089644" lon="13.3924608864"><ele>2105.14</ele><time>2026-03-11T14:18:45Z</time><extensions><gpxtpx:TrackPointExtension><gpxtpx:atemp>3.8</gpxtpx:atemp></gpxtpx:TrackPointExtension></extensions></trkpt><trkpt lat="42.1790102217" lon="13.3924626466"><ele>2105.09</ele><time>2026-03-11T14:18:46Z</time><extensions><gpxtpx:TrackPointExtension><gpxtpx:atemp>3.8</gpxtpx:atemp></gpxtpx:TrackPointExtension></extensions></trkpt><trkpt lat="42.1790119819" lon="13.3924650773"><ele>2105.05</ele><time>2026-03-11T14:18:47Z</time><extensions><gpxtpx:TrackPointExtension><gpxtpx:atemp>3.8</gpxtpx:atemp></gpxtpx:TrackPointExtension></extensions></trkpt><trkpt lat="42.1790140774" lon="13.3924669214"><ele>2105.00</ele><time>2026-03-11T14:18:48Z</time><extensions><gpxtpx:TrackPointExtension><gpxtpx:atemp>3.8</gpxtpx:atemp></gpxtpx:TrackPointExtension></extensions></trkpt><trkpt lat="42.1790161729" lon="13.3924686816"><ele>2104.95</ele><time>2026-03-11T14:18:49Z</time><extensions><gpxtpx:TrackPointExtension><gpxtpx:atemp>3.8</gpxtpx:atemp></gpxtpx:TrackPointExtension></extensions></trkpt><trkpt lat="42.1790178493" lon="13.3924697712"><ele>2104.88</ele><time>2026-03-11T14:18:50Z</time><extensions><gpxtpx:TrackPointExtension><gpxtpx:atemp>3.8</gpxtpx:atemp></gpxtpx:TrackPointExtension></extensions></trkpt><trkpt lat="42.1790190227" lon="13.3924702741"><ele>2104.81</ele><time>2026-03-11T14:18:51Z</time><extensions><gpxtpx:TrackPointExtension><gpxtpx:atemp>3.8</gpxtpx:atemp></gpxtpx:TrackPointExtension></extensions></trkpt><trkpt lat="42.1790196933" lon="13.3924699388"><ele>2104.77</ele><time>2026-03-11T14:18:52Z</time><extensions><gpxtpx:TrackPointExtension><gpxtpx:atemp>3.8</gpxtpx:atemp></gpxtpx:TrackPointExtension></extensions></trkpt><trkpt lat="42.1790196933" lon="13.3924697712"><ele>2104.73</ele><time>2026-03-11T14:18:53Z</time><extensions><gpxtpx:TrackPointExtension><gpxtpx:atemp>3.8</gpxtpx:atemp></gpxtpx:TrackPointExtension></extensions></trkpt><trkpt lat="42.1790189389" lon="13.3924683463"><ele>2104.71</ele><time>2026-03-11T14:18:54Z</time><extensions><gpxtpx:TrackPointExtension><gpxtpx:atemp>3.8</gpxtpx:atemp></gpxtpx:TrackPointExtension></extensions></trkpt><trkpt lat="42.1790175978" lon="13.3924663346"><ele>2104.74</ele><time>2026-03-11T14:18:55Z</time><extensions><gpxtpx:TrackPointExtension><gpxtpx:atemp>3.8</gpxtpx:atemp></gpxtpx:TrackPointExtension></extensions></trkpt><trkpt lat="42.1790157538" lon="13.3924640715"><ele>2104.83</ele><time>2026-03-11T14:18:56Z</time><extensions><gpxtpx:TrackPointExtension><gpxtpx:atemp>3.8</gpxtpx:atemp></gpxtpx:TrackPointExtension></extensions></trkpt><trkpt lat="42.1790140774" lon="13.3924623951"><ele>2104.95</ele><time>2026-03-11T14:18:57Z</time><extensions><gpxtpx:TrackPointExtension><gpxtpx:atemp>3.8</gpxtpx:atemp></gpxtpx:TrackPointExtension></extensions></trkpt><trkpt lat="42.1790129878" lon="13.3924609702"><ele>2105.07</ele><time>2026-03-11T14:18:58Z</time><extensions><gpxtpx:TrackPointExtension><gpxtpx:atemp>3.8</gpxtpx:atemp></gpxtpx:TrackPointExtension></extensions></trkpt><trkpt lat="42.1790123172" lon="13.3924603835"><ele>2105.16</ele><time>2026-03-11T14:18:59Z</time><extensions><gpxtpx:TrackPointExtension><gpxtpx:atemp>3.8</gpxtpx:atemp></gpxtpx:TrackPointExtension></extensions></trkpt><trkpt lat="42.1790122334" lon="13.3924605511"><ele>2105.18</ele><time>2026-03-11T14:19:00Z</time><extensions><gpxtpx:TrackPointExtension><gpxtpx:atemp>3.8</gpxtpx:atemp></gpxtpx:TrackPointExtension></extensions></trkpt><trkpt lat="42.1790124848" lon="13.3924613893"><ele>2105.21</ele><time>2026-03-11T14:19:01Z</time><extensions><gpxtpx:TrackPointExtension><gpxtpx:atemp>3.8</gpxtpx:atemp></gpxtpx:TrackPointExtension></extensions></trkpt><trkpt lat="42.1790127363" lon="13.3924615569"><ele>2105.23</ele><time>2026-03-11T14:19:02Z</time><extensions><gpxtpx:TrackPointExtension><gpxtpx:atemp>3.8</gpxtpx:atemp></gpxtpx:TrackPointExtension></extensions></trkpt><trkpt lat="42.1790122334" lon="13.3924615569"><ele>2105.24</ele><time>2026-03-11T14:19:03Z</time><extensions><gpxtpx:TrackPointExtension><gpxtpx:atemp>3.8</gpxtpx:atemp></gpxtpx:TrackPointExtension></extensions></trkpt><trkpt lat="42.1790112276" lon="13.3924614731"><ele>2105.24</ele><time>2026-03-11T14:19:04Z</time><extensions><gpxtpx:TrackPointExtension><gpxtpx:atemp>3.8</gpxtpx:atemp></gpxtpx:TrackPointExtension></extensions></trkpt><trkpt lat="42.1790095512" lon="13.3924619760"><ele>2105.25</ele><time>2026-03-11T14:19:05Z</time><extensions><gpxtpx:TrackPointExtension><gpxtpx:atemp>3.8</gpxtpx:atemp></gpxtpx:TrackPointExtension></extensions></trkpt><trkpt lat="42.1790083777" lon="13.3924598806"><ele>2105.30</ele><time>2026-03-11T14:19:06Z</time><extensions><gpxtpx:TrackPointExtension><gpxtpx:atemp>3.8</gpxtpx:atemp></gpxtpx:TrackPointExtension></extensions></trkpt><trkpt lat="42.1790088806" lon="13.3924564440"><ele>2105.42</ele><time>2026-03-11T14:19:07Z</time><extensions><gpxtpx:TrackPointExtension><gpxtpx:atemp>3.8</gpxtpx:atemp></gpxtpx:TrackPointExtension></extensions></trkpt><trkpt lat="42.1790103894" lon="13.3924522530"><ele>2105.46</ele><time>2026-03-11T14:19:08Z</time><extensions><gpxtpx:TrackPointExtension><gpxtpx:atemp>3.8</gpxtpx:atemp></gpxtpx:TrackPointExtension></extensions></trkpt><trkpt lat="42.1790128201" lon="13.3924505766"><ele>2105.48</ele><time>2026-03-11T14:19:09Z</time><extensions><gpxtpx:TrackPointExtension><gpxtpx:atemp>3.8</gpxtpx:atemp></gpxtpx:TrackPointExtension></extensions></trkpt><trkpt lat="42.1790129878" lon="13.3924500737"><ele>2105.45</ele><time>2026-03-11T14:19:10Z</time><extensions><gpxtpx:TrackPointExtension><gpxtpx:atemp>3.8</gpxtpx:atemp></gpxtpx:TrackPointExtension></extensions></trkpt><trkpt lat="42.1790120658" lon="13.3924495708"><ele>2105.36</ele><time>2026-03-11T14:19:11Z</time><extensions><gpxtpx:TrackPointExtension><gpxtpx:atemp>3.8</gpxtpx:atemp></gpxtpx:TrackPointExtension></extensions></trkpt><trkpt lat="42.1790092997" lon="13.3924488164"><ele>2105.28</ele><time>2026-03-11T14:19:12Z</time><extensions><gpxtpx:TrackPointExtension><gpxtpx:atemp>3.8</gpxtpx:atemp></gpxtpx:TrackPointExtension></extensions></trkpt><trkpt lat="42.1790085454" lon="13.3924490679"><ele>2105.22</ele><time>2026-03-11T14:19:13Z</time><extensions><gpxtpx:TrackPointExtension><gpxtpx:atemp>3.8</gpxtpx:atemp></gpxtpx:TrackPointExtension></extensions></trkpt><trkpt lat="42.1790084615" lon="13.3924499899"><ele>2105.17</ele><time>2026-03-11T14:19:14Z</time><extensions><gpxtpx:TrackPointExtension><gpxtpx:atemp>3.8</gpxtpx:atemp></gpxtpx:TrackPointExtension></extensions></trkpt><trkpt lat="42.1790088806" lon="13.3924516663"><ele>2105.11</ele><time>2026-03-11T14:19:15Z</time><extensions><gpxtpx:TrackPointExtension><gpxtpx:atemp>3.8</gpxtpx:atemp></gpxtpx:TrackPointExtension></extensions></trkpt><trkpt lat="42.1790080424" lon="13.3924525883"><ele>2105.08</ele><time>2026-03-11T14:19:16Z</time><extensions><gpxtpx:TrackPointExtension><gpxtpx:atemp>3.8</gpxtpx:atemp></gpxtpx:TrackPointExtension></extensions></trkpt><trkpt lat="42.1790071204" lon="13.3924531750"><ele>2105.08</ele><time>2026-03-11T14:19:17Z</time><extensions><gpxtpx:TrackPointExtension><gpxtpx:atemp>3.8</gpxtpx:atemp></gpxtpx:TrackPointExtension></extensions></trkpt><trkpt lat="42.1790070366" lon="13.3924527559"><ele>2105.09</ele><time>2026-03-11T14:19:18Z</time><extensions><gpxtpx:TrackPointExtension><gpxtpx:atemp>3.8</gpxtpx:atemp></gpxtpx:TrackPointExtension></extensions></trkpt><trkpt lat="42.1790081263" lon="13.3924518339"><ele>2105.17</ele><time>2026-03-11T14:19:19Z</time><extensions><gpxtpx:TrackPointExtension><gpxtpx:atemp>3.8</gpxtpx:atemp></gpxtpx:TrackPointExtension></extensions></trkpt><trkpt lat="42.1790098865" lon="13.3924508281"><ele>2105.24</ele><time>2026-03-11T14:19:20Z</time><extensions><gpxtpx:TrackPointExtension><gpxtpx:atemp>3.8</gpxtpx:atemp></gpxtpx:TrackPointExtension></extensions></trkpt><trkpt lat="42.1790107246" lon="13.3924501576"><ele>2105.29</ele><time>2026-03-11T14:19:21Z</time><extensions><gpxtpx:TrackPointExtension><gpxtpx:atemp>3.8</gpxtpx:atemp></gpxtpx:TrackPointExtension></extensions></trkpt><trkpt lat="42.1790108923" lon="13.3924499899"><ele>2105.32</ele><time>2026-03-11T14:19:22Z</time><extensions><gpxtpx:TrackPointExtension><gpxtpx:atemp>3.8</gpxtpx:atemp></gpxtpx:TrackPointExtension></extensions></trkpt><trkpt lat="42.1790104732" lon="13.3924500737"><ele>2105.32</ele><time>2026-03-11T14:19:23Z</time><extensions><gpxtpx:TrackPointExtension><gpxtpx:atemp>3.8</gpxtpx:atemp></gpxtpx:TrackPointExtension></extensions></trkpt><trkpt lat="42.1790102217" lon="13.3924504928"><ele>2105.34</ele><time>2026-03-11T14:19:24Z</time><extensions><gpxtpx:TrackPointExtension><gpxtpx:atemp>3.8</gpxtpx:atemp></gpxtpx:TrackPointExtension></extensions></trkpt><trkpt lat="42.1790101379" lon="13.3924507443"><ele>2105.39</ele><time>2026-03-11T14:19:25Z</time><extensions><gpxtpx:TrackPointExtension><gpxtpx:atemp>3.8</gpxtpx:atemp></gpxtpx:TrackPointExtension></extensions></trkpt><trkpt lat="42.1790102217" lon="13.3924512472"><ele>2105.42</ele><time>2026-03-11T14:19:26Z</time><extensions><gpxtpx:TrackPointExtension><gpxtpx:atemp>3.8</gpxtpx:atemp></gpxtpx:TrackPointExtension></extensions></trkpt><trkpt lat="42.1790105570" lon="13.3924517501"><ele>2105.43</ele><time>2026-03-11T14:19:27Z</time><extensions><gpxtpx:TrackPointExtension><gpxtpx:atemp>3.8</gpxtpx:atemp></gpxtpx:TrackPointExtension></extensions></trkpt><trkpt lat="42.1790106408" lon="13.3924524207"><ele>2105.43</ele><time>2026-03-11T14:19:28Z</time><extensions><gpxtpx:TrackPointExtension><gpxtpx:atemp>3.8</gpxtpx:atemp></gpxtpx:TrackPointExtension></extensions></trkpt><trkpt lat="42.1790103894" lon="13.3924533427"><ele>2105.45</ele><time>2026-03-11T14:19:29Z</time><extensions><gpxtpx:TrackPointExtension><gpxtpx:atemp>3.8</gpxtpx:atemp></gpxtpx:TrackPointExtension></extensions></trkpt><trkpt lat="42.1790117305" lon="13.3924554382"><ele>2105.46</ele><time>2026-03-11T14:19:30Z</time><extensions><gpxtpx:TrackPointExtension><gpxtpx:atemp>3.8</gpxtpx:atemp></gpxtpx:TrackPointExtension></extensions></trkpt><trkpt lat="42.1790139936" lon="13.3924577851"><ele>2105.46</ele><time>2026-03-11T14:19:31Z</time><extensions><gpxtpx:TrackPointExtension><gpxtpx:atemp>3.8</gpxtpx:atemp></gpxtpx:TrackPointExtension></extensions></trkpt><trkpt lat="42.1790164243" lon="13.3924596291"><ele>2105.45</ele><time>2026-03-11T14:19:32Z</time><extensions><gpxtpx:TrackPointExtension><gpxtpx:atemp>3.8</gpxtpx:atemp></gpxtpx:TrackPointExtension></extensions></trkpt><trkpt lat="42.1790171787" lon="13.3924602997"><ele>2105.43</ele><time>2026-03-11T14:19:33Z</time><extensions><gpxtpx:TrackPointExtension><gpxtpx:atemp>3.8</gpxtpx:atemp></gpxtpx:TrackPointExtension></extensions></trkpt><trkpt lat="42.1790172625" lon="13.3924603835"><ele>2105.40</ele><time>2026-03-11T14:19:34Z</time><extensions><gpxtpx:TrackPointExtension><gpxtpx:atemp>3.8</gpxtpx:atemp></gpxtpx:TrackPointExtension></extensions></trkpt><trkpt lat="42.1790171787" lon="13.3924606349"><ele>2105.38</ele><time>2026-03-11T14:19:35Z</time><extensions><gpxtpx:TrackPointExtension><gpxtpx:atemp>3.8</gpxtpx:atemp></gpxtpx:TrackPointExtension></extensions></trkpt><trkpt lat="42.1790172625" lon="13.3924609702"><ele>2105.38</ele><time>2026-03-11T14:19:36Z</time><extensions><gpxtpx:TrackPointExtension><gpxtpx:atemp>3.8</gpxtpx:atemp></gpxtpx:TrackPointExtension></extensions></trkpt><trkpt lat="42.1790177654" lon="13.3924614731"><ele>2105.37</ele><time>2026-03-11T14:19:37Z</time><extensions><gpxtpx:TrackPointExtension><gpxtpx:atemp>3.8</gpxtpx:atemp></gpxtpx:TrackPointExtension></extensions></trkpt><trkpt lat="42.1790184360" lon="13.3924618922"><ele>2105.37</ele><time>2026-03-11T14:19:38Z</time><extensions><gpxtpx:TrackPointExtension><gpxtpx:atemp>3.8</gpxtpx:atemp></gpxtpx:TrackPointExtension></extensions></trkpt><trkpt lat="42.1790196933" lon="13.3924625628"><ele>2105.37</ele><time>2026-03-11T14:19:39Z</time><extensions><gpxtpx:TrackPointExtension><gpxtpx:atemp>3.8</gpxtpx:atemp></gpxtpx:TrackPointExtension></extensions></trkpt><trkpt lat="42.1790207829" lon="13.3924632333"><ele>2105.36</ele><time>2026-03-11T14:19:40Z</time><extensions><gpxtpx:TrackPointExtension><gpxtpx:atemp>3.8</gpxtpx:atemp></gpxtpx:TrackPointExtension></extensions></trkpt><trkpt lat="42.1790221240" lon="13.3924641553"><ele>2105.36</ele><time>2026-03-11T14:19:41Z</time><extensions><gpxtpx:TrackPointExtension><gpxtpx:atemp>3.8</gpxtpx:atemp></gpxtpx:TrackPointExtension></extensions></trkpt><trkpt lat="42.1790231299" lon="13.3924645744"><ele>2105.37</ele><time>2026-03-11T14:19:42Z</time><extensions><gpxtpx:TrackPointExtension><gpxtpx:atemp>3.8</gpxtpx:atemp></gpxtpx:TrackPointExtension></extensions></trkpt><trkpt lat="42.1790238842" lon="13.3924646582"><ele>2105.41</ele><time>2026-03-11T14:19:43Z</time><extensions><gpxtpx:TrackPointExtension><gpxtpx:atemp>3.8</gpxtpx:atemp></gpxtpx:TrackPointExtension></extensions></trkpt><trkpt lat="42.1790241357" lon="13.3924645744"><ele>2105.45</ele><time>2026-03-11T14:19:44Z</time><extensions><gpxtpx:TrackPointExtension><gpxtpx:atemp>3.8</gpxtpx:atemp></gpxtpx:TrackPointExtension></extensions></trkpt><trkpt lat="42.1790241357" lon="13.3924645744"><ele>2105.48</ele><time>2026-03-11T14:19:45Z</time><extensions><gpxtpx:TrackPointExtension><gpxtpx:atemp>3.8</gpxtpx:atemp></gpxtpx:TrackPointExtension></extensions></trkpt><trkpt lat="42.1790242195" lon="13.3924645744"><ele>2105.48</ele><time>2026-03-11T14:19:46Z</time><extensions><gpxtpx:TrackPointExtension><gpxtpx:atemp>3.8</gpxtpx:atemp></gpxtpx:TrackPointExtension></extensions></trkpt><trkpt lat="42.1790244710" lon="13.3924646582"><ele>2105.49</ele><time>2026-03-11T14:19:47Z</time><extensions><gpxtpx:TrackPointExtension><gpxtpx:atemp>3.8</gpxtpx:atemp></gpxtpx:TrackPointExtension></extensions></trkpt><trkpt lat="42.1790244710" lon="13.3924647421"><ele>2105.49</ele><time>2026-03-11T14:19:48Z</time><extensions><gpxtpx:TrackPointExtension><gpxtpx:atemp>3.8</gpxtpx:atemp></gpxtpx:TrackPointExtension></extensions></trkpt><trkpt lat="42.1790244710" lon="13.3924655803"><ele>2105.47</ele><time>2026-03-11T14:19:49Z</time><extensions><gpxtpx:TrackPointExtension><gpxtpx:atemp>3.8</gpxtpx:atemp></gpxtpx:TrackPointExtension></extensions></trkpt><trkpt lat="42.1790241357" lon="13.3924658317"><ele>2105.38</ele><time>2026-03-11T14:19:50Z</time><extensions><gpxtpx:TrackPointExtension><gpxtpx:atemp>3.8</gpxtpx:atemp></gpxtpx:TrackPointExtension></extensions></trkpt><trkpt lat="42.1790235490" lon="13.3924672566"><ele>2105.31</ele><time>2026-03-11T14:19:51Z</time><extensions><gpxtpx:TrackPointExtension><gpxtpx:atemp>3.8</gpxtpx:atemp></gpxtpx:TrackPointExtension></extensions></trkpt><trkpt lat="42.1790223755" lon="13.3924671728"><ele>2105.25</ele><time>2026-03-11T14:19:52Z</time><extensions><gpxtpx:TrackPointExtension><gpxtpx:atemp>3.8</gpxtpx:atemp></gpxtpx:TrackPointExtension></extensions></trkpt><trkpt lat="42.1790215373" lon="13.3924653288"><ele>2105.21</ele><time>2026-03-11T14:19:53Z</time><extensions><gpxtpx:TrackPointExtension><gpxtpx:atemp>3.8</gpxtpx:atemp></gpxtpx:TrackPointExtension></extensions></trkpt><trkpt lat="42.1790215373" lon="13.3924626466"><ele>2105.22</ele><time>2026-03-11T14:19:54Z</time><extensions><gpxtpx:TrackPointExtension><gpxtpx:atemp>3.8</gpxtpx:atemp></gpxtpx:TrackPointExtension></extensions></trkpt><trkpt lat="42.1790220402" lon="13.3924612217"><ele>2105.26</ele><time>2026-03-11T14:19:55Z</time><extensions><gpxtpx:TrackPointExtension><gpxtpx:atemp>3.8</gpxtpx:atemp></gpxtpx:TrackPointExtension></extensions></trkpt><trkpt lat="42.1790229622" lon="13.3924624790"><ele>2105.31</ele><time>2026-03-11T14:19:56Z</time><extensions><gpxtpx:TrackPointExtension><gpxtpx:atemp>3.8</gpxtpx:atemp></gpxtpx:TrackPointExtension></extensions></trkpt><trkpt lat="42.1790227946" lon="13.3924636524"><ele>2105.34</ele><time>2026-03-11T14:19:57Z</time><extensions><gpxtpx:TrackPointExtension><gpxtpx:atemp>3.8</gpxtpx:atemp></gpxtpx:TrackPointExtension></extensions></trkpt><trkpt lat="42.1790226270" lon="13.3924642392"><ele>2105.40</ele><time>2026-03-11T14:19:58Z</time><extensions><gpxtpx:TrackPointExtension><gpxtpx:atemp>3.8</gpxtpx:atemp></gpxtpx:TrackPointExtension></extensions></trkpt><trkpt lat="42.1790220402" lon="13.3924644906"><ele>2105.40</ele><time>2026-03-11T14:19:59Z</time><extensions><gpxtpx:TrackPointExtension><gpxtpx:atemp>3.8</gpxtpx:atemp></gpxtpx:TrackPointExtension></extensions></trkpt><trkpt lat="42.1790216211" lon="13.3924643230"><ele>2105.41</ele><time>2026-03-11T14:20:00Z</time><extensions><gpxtpx:TrackPointExtension><gpxtpx:atemp>3.8</gpxtpx:atemp></gpxtpx:TrackPointExtension></extensions></trkpt><trkpt lat="42.1790209506" lon="13.3924639877"><ele>2105.41</ele><time>2026-03-11T14:20:01Z</time><extensions><gpxtpx:TrackPointExtension><gpxtpx:atemp>3.8</gpxtpx:atemp></gpxtpx:TrackPointExtension></extensions></trkpt><trkpt lat="42.1790195256" lon="13.3924640715"><ele>2105.45</ele><time>2026-03-11T14:20:02Z</time><extensions><gpxtpx:TrackPointExtension><gpxtpx:atemp>3.8</gpxtpx:atemp></gpxtpx:TrackPointExtension></extensions></trkpt><trkpt lat="42.1790178493" lon="13.3924648259"><ele>2105.47</ele><time>2026-03-11T14:20:03Z</time><extensions><gpxtpx:TrackPointExtension><gpxtpx:atemp>3.8</gpxtpx:atemp></gpxtpx:TrackPointExtension></extensions></trkpt><trkpt lat="42.1790170949" lon="13.3924664184"><ele>2105.52</ele><time>2026-03-11T14:20:04Z</time><extensions><gpxtpx:TrackPointExtension><gpxtpx:atemp>3.8</gpxtpx:atemp></gpxtpx:TrackPointExtension></extensions></trkpt><trkpt lat="42.1790180169" lon="13.3924680948"><ele>2105.57</ele><time>2026-03-11T14:20:05Z</time><extensions><gpxtpx:TrackPointExtension><gpxtpx:atemp>3.8</gpxtpx:atemp></gpxtpx:TrackPointExtension></extensions></trkpt><trkpt lat="42.1790197771" lon="13.3924686816"><ele>2105.65</ele><time>2026-03-11T14:20:06Z</time><extensions><gpxtpx:TrackPointExtension><gpxtpx:atemp>3.8</gpxtpx:atemp></gpxtpx:TrackPointExtension></extensions></trkpt><trkpt lat="42.1790210344" lon="13.3924687654"><ele>2105.70</ele><time>2026-03-11T14:20:07Z</time><extensions><gpxtpx:TrackPointExtension><gpxtpx:atemp>3.8</gpxtpx:atemp></gpxtpx:TrackPointExtension></extensions></trkpt><trkpt lat="42.1790214535" lon="13.3924686816"><ele>2105.75</ele><time>2026-03-11T14:20:08Z</time><extensions><gpxtpx:TrackPointExtension><gpxtpx:atemp>3.8</gpxtpx:atemp></gpxtpx:TrackPointExtension></extensions></trkpt><trkpt lat="42.1790215373" lon="13.3924690168"><ele>2105.76</ele><time>2026-03-11T14:20:09Z</time><extensions><gpxtpx:TrackPointExtension><gpxtpx:atemp>3.8</gpxtpx:atemp></gpxtpx:TrackPointExtension></extensions></trkpt><trkpt lat="42.1790220402" lon="13.3924696874"><ele>2105.75</ele><time>2026-03-11T14:20:10Z</time><extensions><gpxtpx:TrackPointExtension><gpxtpx:atemp>3.8</gpxtpx:atemp></gpxtpx:TrackPointExtension></extensions></trkpt><trkpt lat="42.1790225431" lon="13.3924695197"><ele>2105.75</ele><time>2026-03-11T14:20:11Z</time><extensions><gpxtpx:TrackPointExtension><gpxtpx:atemp>3.8</gpxtpx:atemp></gpxtpx:TrackPointExtension></extensions></trkpt><trkpt lat="42.1790230460" lon="13.3924691845"><ele>2105.73</ele><time>2026-03-11T14:20:12Z</time><extensions><gpxtpx:TrackPointExtension><gpxtpx:atemp>3.8</gpxtpx:atemp></gpxtpx:TrackPointExtension></extensions></trkpt><trkpt lat="42.1790230460" lon="13.3924691845"><ele>2105.69</ele><time>2026-03-11T14:20:13Z</time><extensions><gpxtpx:TrackPointExtension><gpxtpx:atemp>3.8</gpxtpx:atemp></gpxtpx:TrackPointExtension></extensions></trkpt><trkpt lat="42.1790228784" lon="13.3924695197"><ele>2105.67</ele><time>2026-03-11T14:20:14Z</time><extensions><gpxtpx:TrackPointExtension><gpxtpx:atemp>3.8</gpxtpx:atemp></gpxtpx:TrackPointExtension></extensions></trkpt><trkpt lat="42.1790222917" lon="13.3924701903"><ele>2105.60</ele><time>2026-03-11T14:20:15Z</time><extensions><gpxtpx:TrackPointExtension><gpxtpx:atemp>3.8</gpxtpx:atemp></gpxtpx:TrackPointExtension></extensions></trkpt><trkpt lat="42.1790217888" lon="13.3924709447"><ele>2105.58</ele><time>2026-03-11T14:20:16Z</time><extensions><gpxtpx:TrackPointExtension><gpxtpx:atemp>3.8</gpxtpx:atemp></gpxtpx:TrackPointExtension></extensions></trkpt><trkpt lat="42.1790214535" lon="13.3924730401"><ele>2105.56</ele><time>2026-03-11T14:20:17Z</time><extensions><gpxtpx:TrackPointExtension><gpxtpx:atemp>3.8</gpxtpx:atemp></gpxtpx:TrackPointExtension></extensions></trkpt><trkpt lat="42.1790214535" lon="13.3924747165"><ele>2105.51</ele><time>2026-03-11T14:20:18Z</time><extensions><gpxtpx:TrackPointExtension><gpxtpx:atemp>3.8</gpxtpx:atemp></gpxtpx:TrackPointExtension></extensions></trkpt><trkpt lat="42.1790219564" lon="13.3924761415"><ele>2105.45</ele><time>2026-03-11T14:20:19Z</time><extensions><gpxtpx:TrackPointExtension><gpxtpx:atemp>3.8</gpxtpx:atemp></gpxtpx:TrackPointExtension></extensions></trkpt><trkpt lat="42.1790225431" lon="13.3924764767"><ele>2105.38</ele><time>2026-03-11T14:20:20Z</time><extensions><gpxtpx:TrackPointExtension><gpxtpx:atemp>3.8</gpxtpx:atemp></gpxtpx:TrackPointExtension></extensions></trkpt><trkpt lat="42.1790228784" lon="13.3924770635"><ele>2105.34</ele><time>2026-03-11T14:20:21Z</time><extensions><gpxtpx:TrackPointExtension><gpxtpx:atemp>3.8</gpxtpx:atemp></gpxtpx:TrackPointExtension></extensions></trkpt><trkpt lat="42.1790225431" lon="13.3924775664"><ele>2105.32</ele><time>2026-03-11T14:20:22Z</time><extensions><gpxtpx:TrackPointExtension><gpxtpx:atemp>3.8</gpxtpx:atemp></gpxtpx:TrackPointExtension></extensions></trkpt><trkpt lat="42.1790218726" lon="13.3924779855"><ele>2105.31</ele><time>2026-03-11T14:20:23Z</time><extensions><gpxtpx:TrackPointExtension><gpxtpx:atemp>3.8</gpxtpx:atemp></gpxtpx:TrackPointExtension></extensions></trkpt><trkpt lat="42.1790214535" lon="13.3924783207"><ele>2105.30</ele><time>2026-03-11T14:20:24Z</time><extensions><gpxtpx:TrackPointExtension><gpxtpx:atemp>3.8</gpxtpx:atemp></gpxtpx:TrackPointExtension></extensions></trkpt><trkpt lat="42.1790210344" lon="13.3924786560"><ele>2105.28</ele><time>2026-03-11T14:20:25Z</time><extensions><gpxtpx:TrackPointExtension><gpxtpx:atemp>3.8</gpxtpx:atemp></gpxtpx:TrackPointExtension></extensions></trkpt><trkpt lat="42.1790203638" lon="13.3924787398"><ele>2105.28</ele><time>2026-03-11T14:20:26Z</time><extensions><gpxtpx:TrackPointExtension><gpxtpx:atemp>3.8</gpxtpx:atemp></gpxtpx:TrackPointExtension></extensions></trkpt><trkpt lat="42.1790188551" lon="13.3924796619"><ele>2105.28</ele><time>2026-03-11T14:20:27Z</time><extensions><gpxtpx:TrackPointExtension><gpxtpx:atemp>3.8</gpxtpx:atemp></gpxtpx:TrackPointExtension></extensions></trkpt><trkpt lat="42.1790168434" lon="13.3924805839"><ele>2105.28</ele><time>2026-03-11T14:20:28Z</time><extensions><gpxtpx:TrackPointExtension><gpxtpx:atemp>3.8</gpxtpx:atemp></gpxtpx:TrackPointExtension></extensions></trkpt><trkpt lat="42.1790149994" lon="13.3924815897"><ele>2105.27</ele><time>2026-03-11T14:20:29Z</time><extensions><gpxtpx:TrackPointExtension><gpxtpx:atemp>3.8</gpxtpx:atemp></gpxtpx:TrackPointExtension></extensions></trkpt><trkpt lat="42.1790147480" lon="13.3924804162"><ele>2105.27</ele><time>2026-03-11T14:20:30Z</time><extensions><gpxtpx:TrackPointExtension><gpxtpx:atemp>3.8</gpxtpx:atemp></gpxtpx:TrackPointExtension></extensions></trkpt><trkpt lat="42.1790146641" lon="13.3924791589"><ele>2105.29</ele><time>2026-03-11T14:20:31Z</time><extensions><gpxtpx:TrackPointExtension><gpxtpx:atemp>3.8</gpxtpx:atemp></gpxtpx:TrackPointExtension></extensions></trkpt><trkpt lat="42.1790139936" lon="13.3924780693"><ele>2105.30</ele><time>2026-03-11T14:20:32Z</time><extensions><gpxtpx:TrackPointExtension><gpxtpx:atemp>3.9</gpxtpx:atemp></gpxtpx:TrackPointExtension></extensions></trkpt><trkpt lat="42.1790126525" lon="13.3924777340"><ele>2105.32</ele><time>2026-03-11T14:20:33Z</time><extensions><gpxtpx:TrackPointExtension><gpxtpx:atemp>3.9</gpxtpx:atemp></gpxtpx:TrackPointExtension></extensions></trkpt><trkpt lat="42.1790114790" lon="13.3924777340"><ele>2105.33</ele><time>2026-03-11T14:20:34Z</time><extensions><gpxtpx:TrackPointExtension><gpxtpx:atemp>3.9</gpxtpx:atemp></gpxtpx:TrackPointExtension></extensions></trkpt><trkpt lat="42.1790108923" lon="13.3924778178"><ele>2105.34</ele><time>2026-03-11T14:20:35Z</time><extensions><gpxtpx:TrackPointExtension><gpxtpx:atemp>3.9</gpxtpx:atemp></gpxtpx:TrackPointExtension></extensions></trkpt><trkpt lat="42.1790103894" lon="13.3924783207"><ele>2105.34</ele><time>2026-03-11T14:20:36Z</time><extensions><gpxtpx:TrackPointExtension><gpxtpx:atemp>3.9</gpxtpx:atemp></gpxtpx:TrackPointExtension></extensions></trkpt><trkpt lat="42.1790101379" lon="13.3924784884"><ele>2105.34</ele><time>2026-03-11T14:20:37Z</time><extensions><gpxtpx:TrackPointExtension><gpxtpx:atemp>3.9</gpxtpx:atemp></gpxtpx:TrackPointExtension></extensions></trkpt><trkpt lat="42.1790098865" lon="13.3924779855"><ele>2105.34</ele><time>2026-03-11T14:20:38Z</time><extensions><gpxtpx:TrackPointExtension><gpxtpx:atemp>3.9</gpxtpx:atemp></gpxtpx:TrackPointExtension></extensions></trkpt><trkpt lat="42.1790093835" lon="13.3924772311"><ele>2105.35</ele><time>2026-03-11T14:20:39Z</time><extensions><gpxtpx:TrackPointExtension><gpxtpx:atemp>3.9</gpxtpx:atemp></gpxtpx:TrackPointExtension></extensions></trkpt><trkpt lat="42.1790086292" lon="13.3924765605"><ele>2105.39</ele><time>2026-03-11T14:20:40Z</time><extensions><gpxtpx:TrackPointExtension><gpxtpx:atemp>3.9</gpxtpx:atemp></gpxtpx:TrackPointExtension></extensions></trkpt><trkpt lat="42.1790081263" lon="13.3924758900"><ele>2105.41</ele><time>2026-03-11T14:20:41Z</time><extensions><gpxtpx:TrackPointExtension><gpxtpx:atemp>3.9</gpxtpx:atemp></gpxtpx:TrackPointExtension></extensions></trkpt><trkpt lat="42.1790077910" lon="13.3924750518"><ele>2105.47</ele><time>2026-03-11T14:20:42Z</time><extensions><gpxtpx:TrackPointExtension><gpxtpx:atemp>3.9</gpxtpx:atemp></gpxtpx:TrackPointExtension></extensions></trkpt><trkpt lat="42.1790074557" lon="13.3924743813"><ele>2105.54</ele><time>2026-03-11T14:20:43Z</time><extensions><gpxtpx:TrackPointExtension><gpxtpx:atemp>3.9</gpxtpx:atemp></gpxtpx:TrackPointExtension></extensions></trkpt><trkpt lat="42.1790069528" lon="13.3924737945"><ele>2105.54</ele><time>2026-03-11T14:20:44Z</time><extensions><gpxtpx:TrackPointExtension><gpxtpx:atemp>3.9</gpxtpx:atemp></gpxtpx:TrackPointExtension></extensions></trkpt><trkpt lat="42.1790064499" lon="13.3924735431"><ele>2105.55</ele><time>2026-03-11T14:20:45Z</time><extensions><gpxtpx:TrackPointExtension><gpxtpx:atemp>3.9</gpxtpx:atemp></gpxtpx:TrackPointExtension></extensions></trkpt><trkpt lat="42.1790058631" lon="13.3924734592"><ele>2105.56</ele><time>2026-03-11T14:20:46Z</time><extensions><gpxtpx:TrackPointExtension><gpxtpx:atemp>3.9</gpxtpx:atemp></gpxtpx:TrackPointExtension></extensions></trkpt><trkpt lat="42.1790053602" lon="13.3924732916"><ele>2105.57</ele><time>2026-03-11T14:20:47Z</time><extensions><gpxtpx:TrackPointExtension><gpxtpx:atemp>3.9</gpxtpx:atemp></gpxtpx:TrackPointExtension></extensions></trkpt><trkpt lat="42.1790050250" lon="13.3924735431"><ele>2105.59</ele><time>2026-03-11T14:20:48Z</time><extensions><gpxtpx:TrackPointExtension><gpxtpx:atemp>3.9</gpxtpx:atemp></gpxtpx:TrackPointExtension></extensions></trkpt><trkpt lat="42.1790052764" lon="13.3924734592"><ele>2105.59</ele><time>2026-03-11T14:20:49Z</time><extensions><gpxtpx:TrackPointExtension><gpxtpx:atemp>3.9</gpxtpx:atemp></gpxtpx:TrackPointExtension></extensions></trkpt><trkpt lat="42.1790055279" lon="13.3924736269"><ele>2105.59</ele><time>2026-03-11T14:20:50Z</time><extensions><gpxtpx:TrackPointExtension><gpxtpx:atemp>3.9</gpxtpx:atemp></gpxtpx:TrackPointExtension></extensions></trkpt><trkpt lat="42.1790059470" lon="13.3924732916"><ele>2105.59</ele><time>2026-03-11T14:20:51Z</time><extensions><gpxtpx:TrackPointExtension><gpxtpx:atemp>3.9</gpxtpx:atemp></gpxtpx:TrackPointExtension></extensions></trkpt><trkpt lat="42.1790057793" lon="13.3924732916"><ele>2105.59</ele><time>2026-03-11T14:20:52Z</time><extensions><gpxtpx:TrackPointExtension><gpxtpx:atemp>3.9</gpxtpx:atemp></gpxtpx:TrackPointExtension></extensions></trkpt><trkpt lat="42.1790056955" lon="13.3924733754"><ele>2105.59</ele><time>2026-03-11T14:20:53Z</time><extensions><gpxtpx:TrackPointExtension><gpxtpx:atemp>3.9</gpxtpx:atemp></gpxtpx:TrackPointExtension></extensions></trkpt><trkpt lat="42.1790055279" lon="13.3924735431"><ele>2105.58</ele><time>2026-03-11T14:20:54Z</time><extensions><gpxtpx:TrackPointExtension><gpxtpx:atemp>3.9</gpxtpx:atemp></gpxtpx:TrackPointExtension></extensions></trkpt><trkpt lat="42.1790056955" lon="13.3924733754"><ele>2105.54</ele><time>2026-03-11T14:20:55Z</time><extensions><gpxtpx:TrackPointExtension><gpxtpx:atemp>3.9</gpxtpx:atemp></gpxtpx:TrackPointExtension></extensions></trkpt><trkpt lat="42.1790058631" lon="13.3924731240"><ele>2105.48</ele><time>2026-03-11T14:20:56Z</time><extensions><gpxtpx:TrackPointExtension><gpxtpx:atemp>3.9</gpxtpx:atemp></gpxtpx:TrackPointExtension></extensions></trkpt><trkpt lat="42.1790057793" lon="13.3924728725"><ele>2105.44</ele><time>2026-03-11T14:20:57Z</time><extensions><gpxtpx:TrackPointExtension><gpxtpx:atemp>3.9</gpxtpx:atemp></gpxtpx:TrackPointExtension></extensions></trkpt><trkpt lat="42.1790057793" lon="13.3924727887"><ele>2105.43</ele><time>2026-03-11T14:20:58Z</time><extensions><gpxtpx:TrackPointExtension><gpxtpx:atemp>3.9</gpxtpx:atemp></gpxtpx:TrackPointExtension></extensions></trkpt><trkpt lat="42.1790055279" lon="13.3924724534"><ele>2105.41</ele><time>2026-03-11T14:20:59Z</time><extensions><gpxtpx:TrackPointExtension><gpxtpx:atemp>3.9</gpxtpx:atemp></gpxtpx:TrackPointExtension></extensions></trkpt><trkpt lat="42.1790055279" lon="13.3924724534"><ele>2105.41</ele><time>2026-03-11T14:21:00Z</time><extensions><gpxtpx:TrackPointExtension><gpxtpx:atemp>3.9</gpxtpx:atemp></gpxtpx:TrackPointExtension></extensions></trkpt><trkpt lat="42.1790057793" lon="13.3924724534"><ele>2105.44</ele><time>2026-03-11T14:21:01Z</time><extensions><gpxtpx:TrackPointExtension><gpxtpx:atemp>3.9</gpxtpx:atemp></gpxtpx:TrackPointExtension></extensions></trkpt><trkpt lat="42.1790058631" lon="13.3924727887"><ele>2105.56</ele><time>2026-03-11T14:21:02Z</time><extensions><gpxtpx:TrackPointExtension><gpxtpx:atemp>3.9</gpxtpx:atemp></gpxtpx:TrackPointExtension></extensions></trkpt><trkpt lat="42.1790060308" lon="13.3924727887"><ele>2105.56</ele><time>2026-03-11T14:21:03Z</time><extensions><gpxtpx:TrackPointExtension><gpxtpx:atemp>3.9</gpxtpx:atemp></gpxtpx:TrackPointExtension></extensions></trkpt><trkpt lat="42.1790060308" lon="13.3924723696"><ele>2105.56</ele><time>2026-03-11T14:21:04Z</time><extensions><gpxtpx:TrackPointExtension><gpxtpx:atemp>3.9</gpxtpx:atemp></gpxtpx:TrackPointExtension></extensions></trkpt><trkpt lat="42.1790059470" lon="13.3924717829"><ele>2105.56</ele><time>2026-03-11T14:21:05Z</time><extensions><gpxtpx:TrackPointExtension><gpxtpx:atemp>3.9</gpxtpx:atemp></gpxtpx:TrackPointExtension></extensions></trkpt><trkpt lat="42.1790064499" lon="13.3924713638"><ele>2105.56</ele><time>2026-03-11T14:21:06Z</time><extensions><gpxtpx:TrackPointExtension><gpxtpx:atemp>3.9</gpxtpx:atemp></gpxtpx:TrackPointExtension></extensions></trkpt><trkpt lat="42.1790071204" lon="13.3924712799"><ele>2105.54</ele><time>2026-03-11T14:21:07Z</time><extensions><gpxtpx:TrackPointExtension><gpxtpx:atemp>3.9</gpxtpx:atemp></gpxtpx:TrackPointExtension></extensions></trkpt><trkpt lat="42.1790079586" lon="13.3924713638"><ele>2105.51</ele><time>2026-03-11T14:21:08Z</time><extensions><gpxtpx:TrackPointExtension><gpxtpx:atemp>3.9</gpxtpx:atemp></gpxtpx:TrackPointExtension></extensions></trkpt><trkpt lat="42.1790079586" lon="13.3924712799"><ele>2105.48</ele><time>2026-03-11T14:21:09Z</time><extensions><gpxtpx:TrackPointExtension><gpxtpx:atemp>3.9</gpxtpx:atemp></gpxtpx:TrackPointExtension></extensions></trkpt><trkpt lat="42.1790078748" lon="13.3924711961"><ele>2105.44</ele><time>2026-03-11T14:21:10Z</time><extensions><gpxtpx:TrackPointExtension><gpxtpx:atemp>3.9</gpxtpx:atemp></gpxtpx:TrackPointExtension></extensions></trkpt><trkpt lat="42.1790076233" lon="13.3924708609"><ele>2105.38</ele><time>2026-03-11T14:21:11Z</time><extensions><gpxtpx:TrackPointExtension><gpxtpx:atemp>3.9</gpxtpx:atemp></gpxtpx:TrackPointExtension></extensions></trkpt><trkpt lat="42.1790076233" lon="13.3924707770"><ele>2105.33</ele><time>2026-03-11T14:21:12Z</time><extensions><gpxtpx:TrackPointExtension><gpxtpx:atemp>3.9</gpxtpx:atemp></gpxtpx:TrackPointExtension></extensions></trkpt><trkpt lat="42.1790076233" lon="13.3924707770"><ele>2105.30</ele><time>2026-03-11T14:21:13Z</time><extensions><gpxtpx:TrackPointExtension><gpxtpx:atemp>3.9</gpxtpx:atemp></gpxtpx:TrackPointExtension></extensions></trkpt><trkpt lat="42.1790076233" lon="13.3924707770"><ele>2105.28</ele><time>2026-03-11T14:21:14Z</time><extensions><gpxtpx:TrackPointExtension><gpxtpx:atemp>3.9</gpxtpx:atemp></gpxtpx:TrackPointExtension></extensions></trkpt><trkpt lat="42.1790075395" lon="13.3924705256"><ele>2105.30</ele><time>2026-03-11T14:21:15Z</time><extensions><gpxtpx:TrackPointExtension><gpxtpx:atemp>3.9</gpxtpx:atemp></gpxtpx:TrackPointExtension></extensions></trkpt><trkpt lat="42.1790074557" lon="13.3924703579"><ele>2105.40</ele><time>2026-03-11T14:21:16Z</time><extensions><gpxtpx:TrackPointExtension><gpxtpx:atemp>3.9</gpxtpx:atemp></gpxtpx:TrackPointExtension></extensions></trkpt><trkpt lat="42.1790073719" lon="13.3924702741"><ele>2105.51</ele><time>2026-03-11T14:21:17Z</time><extensions><gpxtpx:TrackPointExtension><gpxtpx:atemp>3.9</gpxtpx:atemp></gpxtpx:TrackPointExtension></extensions></trkpt><trkpt lat="42.1790073719" lon="13.3924702741"><ele>2105.57</ele><time>2026-03-11T14:21:18Z</time><extensions><gpxtpx:TrackPointExtension><gpxtpx:atemp>3.9</gpxtpx:atemp></gpxtpx:TrackPointExtension></extensions></trkpt><trkpt lat="42.1790074557" lon="13.3924702741"><ele>2105.60</ele><time>2026-03-11T14:21:19Z</time><extensions><gpxtpx:TrackPointExtension><gpxtpx:atemp>3.9</gpxtpx:atemp></gpxtpx:TrackPointExtension></extensions></trkpt><trkpt lat="42.1790076233" lon="13.3924701903"><ele>2105.60</ele><time>2026-03-11T14:21:20Z</time><extensions><gpxtpx:TrackPointExtension><gpxtpx:atemp>3.9</gpxtpx:atemp></gpxtpx:TrackPointExtension></extensions></trkpt><trkpt lat="42.1790078748" lon="13.3924703579"><ele>2105.57</ele><time>2026-03-11T14:21:21Z</time><extensions><gpxtpx:TrackPointExtension><gpxtpx:atemp>3.9</gpxtpx:atemp></gpxtpx:TrackPointExtension></extensions></trkpt><trkpt lat="42.1790080424" lon="13.3924705256"><ele>2105.56</ele><time>2026-03-11T14:21:22Z</time><extensions><gpxtpx:TrackPointExtension><gpxtpx:atemp>3.9</gpxtpx:atemp></gpxtpx:TrackPointExtension></extensions></trkpt><trkpt lat="42.1790081263" lon="13.3924711961"><ele>2105.53</ele><time>2026-03-11T14:21:23Z</time><extensions><gpxtpx:TrackPointExtension><gpxtpx:atemp>3.9</gpxtpx:atemp></gpxtpx:TrackPointExtension></extensions></trkpt><trkpt lat="42.1790078748" lon="13.3924715314"><ele>2105.52</ele><time>2026-03-11T14:21:24Z</time><extensions><gpxtpx:TrackPointExtension><gpxtpx:atemp>3.9</gpxtpx:atemp></gpxtpx:TrackPointExtension></extensions></trkpt><trkpt lat="42.1790073719" lon="13.3924720343"><ele>2105.51</ele><time>2026-03-11T14:21:25Z</time><extensions><gpxtpx:TrackPointExtension><gpxtpx:atemp>3.9</gpxtpx:atemp></gpxtpx:TrackPointExtension></extensions></trkpt><trkpt lat="42.1790068690" lon="13.3924720343"><ele>2105.51</ele><time>2026-03-11T14:21:26Z</time><extensions><gpxtpx:TrackPointExtension><gpxtpx:atemp>3.9</gpxtpx:atemp></gpxtpx:TrackPointExtension></extensions></trkpt><trkpt lat="42.1790066175" lon="13.3924714476"><ele>2105.53</ele><time>2026-03-11T14:21:27Z</time><extensions><gpxtpx:TrackPointExtension><gpxtpx:atemp>3.9</gpxtpx:atemp></gpxtpx:TrackPointExtension></extensions></trkpt><trkpt lat="42.1790059470" lon="13.3924710285"><ele>2105.52</ele><time>2026-03-11T14:21:28Z</time><extensions><gpxtpx:TrackPointExtension><gpxtpx:atemp>3.9</gpxtpx:atemp></gpxtpx:TrackPointExtension></extensions></trkpt><trkpt lat="42.1790059470" lon="13.3924704418"><ele>2105.52</ele><time>2026-03-11T14:21:29Z</time><extensions><gpxtpx:TrackPointExtension><gpxtpx:atemp>3.9</gpxtpx:atemp></gpxtpx:TrackPointExtension></extensions></trkpt><trkpt lat="42.1790059470" lon="13.3924703579"><ele>2105.49</ele><time>2026-03-11T14:21:30Z</time><extensions><gpxtpx:TrackPointExtension><gpxtpx:atemp>3.9</gpxtpx:atemp></gpxtpx:TrackPointExtension></extensions></trkpt><trkpt lat="42.1790069528" lon="13.3924698550"><ele>2105.47</ele><time>2026-03-11T14:21:31Z</time><extensions><gpxtpx:TrackPointExtension><gpxtpx:atemp>3.9</gpxtpx:atemp></gpxtpx:TrackPointExtension></extensions></trkpt><trkpt lat="42.1790073719" lon="13.3924689330"><ele>2105.46</ele><time>2026-03-11T14:21:32Z</time><extensions><gpxtpx:TrackPointExtension><gpxtpx:atemp>3.9</gpxtpx:atemp></gpxtpx:TrackPointExtension></extensions></trkpt><trkpt lat="42.1790074557" lon="13.3924676757"><ele>2105.44</ele><time>2026-03-11T14:21:33Z</time><extensions><gpxtpx:TrackPointExtension><gpxtpx:atemp>3.9</gpxtpx:atemp></gpxtpx:TrackPointExtension></extensions></trkpt><trkpt lat="42.1790072881" lon="13.3924653288"><ele>2105.39</ele><time>2026-03-11T14:21:34Z</time><extensions><gpxtpx:TrackPointExtension><gpxtpx:atemp>3.9</gpxtpx:atemp></gpxtpx:TrackPointExtension></extensions></trkpt><trkpt lat="42.1790064499" lon="13.3924636524"><ele>2105.34</ele><time>2026-03-11T14:21:35Z</time><extensions><gpxtpx:TrackPointExtension><gpxtpx:atemp>3.9</gpxtpx:atemp></gpxtpx:TrackPointExtension></extensions></trkpt><trkpt lat="42.1790059470" lon="13.3924596291"><ele>2105.29</ele><time>2026-03-11T14:21:36Z</time><extensions><gpxtpx:TrackPointExtension><gpxtpx:atemp>3.9</gpxtpx:atemp></gpxtpx:TrackPointExtension></extensions></trkpt><trkpt lat="42.1790043544" lon="13.3924551867"><ele>2105.16</ele><time>2026-03-11T14:21:37Z</time><extensions><gpxtpx:TrackPointExtension><gpxtpx:atemp>3.9</gpxtpx:atemp></gpxtpx:TrackPointExtension></extensions></trkpt><trkpt lat="42.1790023427" lon="13.3924491517"><ele>2105.09</ele><time>2026-03-11T14:21:38Z</time><extensions><gpxtpx:TrackPointExtension><gpxtpx:atemp>3.9</gpxtpx:atemp></gpxtpx:TrackPointExtension></extensions></trkpt><trkpt lat="42.1790002473" lon="13.3924451284"><ele>2105.06</ele><time>2026-03-11T14:21:39Z</time><extensions><gpxtpx:TrackPointExtension><gpxtpx:atemp>3.9</gpxtpx:atemp></gpxtpx:TrackPointExtension></extensions></trkpt><trkpt lat="42.1789983194" lon="13.3924433682"><ele>2105.04</ele><time>2026-03-11T14:21:40Z</time><extensions><gpxtpx:TrackPointExtension><gpxtpx:atemp>3.9</gpxtpx:atemp></gpxtpx:TrackPointExtension></extensions></trkpt><trkpt lat="42.1789964754" lon="13.3924425300"><ele>2105.03</ele><time>2026-03-11T14:21:41Z</time><extensions><gpxtpx:TrackPointExtension><gpxtpx:atemp>3.9</gpxtpx:atemp></gpxtpx:TrackPointExtension></extensions></trkpt><trkpt lat="42.1789940447" lon="13.3924421947"><ele>2105.03</ele><time>2026-03-11T14:21:42Z</time><extensions><gpxtpx:TrackPointExtension><gpxtpx:atemp>3.9</gpxtpx:atemp></gpxtpx:TrackPointExtension></extensions></trkpt><trkpt lat="42.1789927874" lon="13.3924416918"><ele>2105.03</ele><time>2026-03-11T14:21:43Z</time><extensions><gpxtpx:TrackPointExtension><gpxtpx:atemp>3.9</gpxtpx:atemp></gpxtpx:TrackPointExtension></extensions></trkpt><trkpt lat="42.1789921168" lon="13.3924414404"><ele>2105.05</ele><time>2026-03-11T14:21:44Z</time><extensions><gpxtpx:TrackPointExtension><gpxtpx:atemp>3.9</gpxtpx:atemp></gpxtpx:TrackPointExtension></extensions></trkpt><trkpt lat="42.1789922845" lon="13.3924407698"><ele>2105.06</ele><time>2026-03-11T14:21:45Z</time><extensions><gpxtpx:TrackPointExtension><gpxtpx:atemp>3.9</gpxtpx:atemp></gpxtpx:TrackPointExtension></extensions></trkpt><trkpt lat="42.1789921168" lon="13.3924396802"><ele>2105.13</ele><time>2026-03-11T14:21:46Z</time><extensions><gpxtpx:TrackPointExtension><gpxtpx:atemp>3.9</gpxtpx:atemp></gpxtpx:TrackPointExtension></extensions></trkpt><trkpt lat="42.1789927874" lon="13.3924394287"><ele>2105.14</ele><time>2026-03-11T14:21:47Z</time><extensions><gpxtpx:TrackPointExtension><gpxtpx:atemp>3.9</gpxtpx:atemp></gpxtpx:TrackPointExtension></extensions></trkpt><trkpt lat="42.1789936256" lon="13.3924399316"><ele>2105.19</ele><time>2026-03-11T14:21:48Z</time><extensions><gpxtpx:TrackPointExtension><gpxtpx:atemp>3.9</gpxtpx:atemp></gpxtpx:TrackPointExtension></extensions></trkpt><trkpt lat="42.1789943799" lon="13.3924409375"><ele>2105.20</ele><time>2026-03-11T14:21:49Z</time><extensions><gpxtpx:TrackPointExtension><gpxtpx:atemp>3.9</gpxtpx:atemp></gpxtpx:TrackPointExtension></extensions></trkpt><trkpt lat="42.1789948829" lon="13.3924413566"><ele>2105.23</ele><time>2026-03-11T14:21:50Z</time><extensions><gpxtpx:TrackPointExtension><gpxtpx:atemp>3.9</gpxtpx:atemp></gpxtpx:TrackPointExtension></extensions></trkpt><trkpt lat="42.1789951343" lon="13.3924414404"><ele>2105.28</ele><time>2026-03-11T14:21:51Z</time><extensions><gpxtpx:TrackPointExtension><gpxtpx:atemp>3.9</gpxtpx:atemp></gpxtpx:TrackPointExtension></extensions></trkpt><trkpt lat="42.1789953858" lon="13.3924412727"><ele>2105.30</ele><time>2026-03-11T14:21:52Z</time><extensions><gpxtpx:TrackPointExtension><gpxtpx:atemp>3.9</gpxtpx:atemp></gpxtpx:TrackPointExtension></extensions></trkpt><trkpt lat="42.1789955534" lon="13.3924409375"><ele>2105.33</ele><time>2026-03-11T14:21:53Z</time><extensions><gpxtpx:TrackPointExtension><gpxtpx:atemp>3.9</gpxtpx:atemp></gpxtpx:TrackPointExtension></extensions></trkpt><trkpt lat="42.1789959725" lon="13.3924413566"><ele>2105.34</ele><time>2026-03-11T14:21:54Z</time><extensions><gpxtpx:TrackPointExtension><gpxtpx:atemp>3.9</gpxtpx:atemp></gpxtpx:TrackPointExtension></extensions></trkpt><trkpt lat="42.1789961401" lon="13.3924412727"><ele>2105.34</ele><time>2026-03-11T14:21:55Z</time><extensions><gpxtpx:TrackPointExtension><gpxtpx:atemp>3.9</gpxtpx:atemp></gpxtpx:TrackPointExtension></extensions></trkpt><trkpt lat="42.1789958887" lon="13.3924407698"><ele>2105.35</ele><time>2026-03-11T14:21:56Z</time><extensions><gpxtpx:TrackPointExtension><gpxtpx:atemp>3.9</gpxtpx:atemp></gpxtpx:TrackPointExtension></extensions></trkpt><trkpt lat="42.1789950505" lon="13.3924394287"><ele>2105.36</ele><time>2026-03-11T14:21:57Z</time><extensions><gpxtpx:TrackPointExtension><gpxtpx:atemp>3.9</gpxtpx:atemp></gpxtpx:TrackPointExtension></extensions></trkpt><trkpt lat="42.1789939608" lon="13.3924378362"><ele>2105.36</ele><time>2026-03-11T14:21:58Z</time><extensions><gpxtpx:TrackPointExtension><gpxtpx:atemp>3.9</gpxtpx:atemp></gpxtpx:TrackPointExtension></extensions></trkpt><trkpt lat="42.1789923683" lon="13.3924337290"><ele>2105.37</ele><time>2026-03-11T14:21:59Z</time><extensions><gpxtpx:TrackPointExtension><gpxtpx:atemp>3.9</gpxtpx:atemp></gpxtpx:TrackPointExtension></extensions></trkpt><trkpt lat="42.1789902728" lon="13.3924281970"><ele>2105.36</ele><time>2026-03-11T14:22:00Z</time><extensions><gpxtpx:TrackPointExtension><gpxtpx:atemp>3.9</gpxtpx:atemp></gpxtpx:TrackPointExtension></extensions></trkpt><trkpt lat="42.1789882611" lon="13.3924210723"><ele>2105.36</ele><time>2026-03-11T14:22:01Z</time><extensions><gpxtpx:TrackPointExtension><gpxtpx:atemp>3.9</gpxtpx:atemp></gpxtpx:TrackPointExtension></extensions></trkpt><trkpt lat="42.1789866686" lon="13.3924152888"><ele>2105.36</ele><time>2026-03-11T14:22:02Z</time><extensions><gpxtpx:TrackPointExtension><gpxtpx:atemp>3.9</gpxtpx:atemp></gpxtpx:TrackPointExtension></extensions></trkpt><trkpt lat="42.1789854951" lon="13.3924099244"><ele>2105.35</ele><time>2026-03-11T14:22:03Z</time><extensions><gpxtpx:TrackPointExtension><gpxtpx:atemp>3.9</gpxtpx:atemp></gpxtpx:TrackPointExtension></extensions></trkpt><trkpt lat="42.1789852437" lon="13.3924019616"><ele>2105.35</ele><time>2026-03-11T14:22:04Z</time><extensions><gpxtpx:TrackPointExtension><gpxtpx:atemp>3.9</gpxtpx:atemp></gpxtpx:TrackPointExtension></extensions></trkpt><trkpt lat="42.1789857466" lon="13.3923923224"><ele>2105.35</ele><time>2026-03-11T14:22:05Z</time><extensions><gpxtpx:TrackPointExtension><gpxtpx:atemp>3.9</gpxtpx:atemp></gpxtpx:TrackPointExtension></extensions></trkpt><trkpt lat="42.1789877582" lon="13.3923814259"><ele>2105.36</ele><time>2026-03-11T14:22:06Z</time><extensions><gpxtpx:TrackPointExtension><gpxtpx:atemp>3.9</gpxtpx:atemp></gpxtpx:TrackPointExtension></extensions></trkpt><trkpt lat="42.1789892670" lon="13.3923723735"><ele>2105.36</ele><time>2026-03-11T14:22:07Z</time><extensions><gpxtpx:TrackPointExtension><gpxtpx:atemp>3.9</gpxtpx:atemp></gpxtpx:TrackPointExtension></extensions></trkpt><trkpt lat="42.1789908595" lon="13.3923638240"><ele>2105.36</ele><time>2026-03-11T14:22:08Z</time><extensions><gpxtpx:TrackPointExtension><gpxtpx:atemp>3.9</gpxtpx:atemp></gpxtpx:TrackPointExtension></extensions></trkpt><trkpt lat="42.1789916977" lon="13.3923560288"><ele>2105.34</ele><time>2026-03-11T14:22:09Z</time><extensions><gpxtpx:TrackPointExtension><gpxtpx:atemp>3.9</gpxtpx:atemp></gpxtpx:TrackPointExtension></extensions></trkpt><trkpt lat="42.1789929550" lon="13.3923472278"><ele>2105.35</ele><time>2026-03-11T14:22:10Z</time><extensions><gpxtpx:TrackPointExtension><gpxtpx:atemp>3.9</gpxtpx:atemp></gpxtpx:TrackPointExtension></extensions></trkpt><trkpt lat="42.1789948829" lon="13.3923391812"><ele>2105.34</ele><time>2026-03-11T14:22:11Z</time><extensions><gpxtpx:TrackPointExtension><gpxtpx:atemp>3.9</gpxtpx:atemp></gpxtpx:TrackPointExtension></extensions></trkpt><trkpt lat="42.1789960563" lon="13.3923326433"><ele>2105.33</ele><time>2026-03-11T14:22:12Z</time><extensions><gpxtpx:TrackPointExtension><gpxtpx:atemp>3.9</gpxtpx:atemp></gpxtpx:TrackPointExtension></extensions></trkpt><trkpt lat="42.1789964754" lon="13.3923297934"><ele>2105.33</ele><time>2026-03-11T14:22:13Z</time><extensions><gpxtpx:TrackPointExtension><gpxtpx:atemp>3.9</gpxtpx:atemp></gpxtpx:TrackPointExtension></extensions></trkpt><trkpt lat="42.1789964754" lon="13.3923265245"><ele>2105.35</ele><time>2026-03-11T14:22:14Z</time><extensions><gpxtpx:TrackPointExtension><gpxtpx:atemp>3.9</gpxtpx:atemp></gpxtpx:TrackPointExtension></extensions></trkpt><trkpt lat="42.1789966431" lon="13.3923236746"><ele>2105.37</ele><time>2026-03-11T14:22:15Z</time><extensions><gpxtpx:TrackPointExtension><gpxtpx:atemp>3.9</gpxtpx:atemp></gpxtpx:TrackPointExtension></extensions></trkpt><trkpt lat="42.1789971460" lon="13.3923196513"><ele>2105.38</ele><time>2026-03-11T14:22:16Z</time><extensions><gpxtpx:TrackPointExtension><gpxtpx:atemp>3.9</gpxtpx:atemp></gpxtpx:TrackPointExtension></extensions></trkpt><trkpt lat="42.1789974812" lon="13.3923166338"><ele>2105.37</ele><time>2026-03-11T14:22:17Z</time><extensions><gpxtpx:TrackPointExtension><gpxtpx:atemp>3.9</gpxtpx:atemp></gpxtpx:TrackPointExtension></extensions></trkpt><trkpt lat="42.1789984871" lon="13.3923138678"><ele>2105.38</ele><time>2026-03-11T14:22:18Z</time><extensions><gpxtpx:TrackPointExtension><gpxtpx:atemp>3.9</gpxtpx:atemp></gpxtpx:TrackPointExtension></extensions></trkpt><trkpt lat="42.1789997444" lon="13.3923115209"><ele>2105.42</ele><time>2026-03-11T14:22:19Z</time><extensions><gpxtpx:TrackPointExtension><gpxtpx:atemp>3.9</gpxtpx:atemp></gpxtpx:TrackPointExtension></extensions></trkpt><trkpt lat="42.1790004987" lon="13.3923106827"><ele>2105.48</ele><time>2026-03-11T14:22:20Z</time><extensions><gpxtpx:TrackPointExtension><gpxtpx:atemp>3.9</gpxtpx:atemp></gpxtpx:TrackPointExtension></extensions></trkpt><trkpt lat="42.1790007502" lon="13.3923101798"><ele>2105.63</ele><time>2026-03-11T14:22:21Z</time><extensions><gpxtpx:TrackPointExtension><gpxtpx:atemp>3.9</gpxtpx:atemp></gpxtpx:TrackPointExtension></extensions></trkpt><trkpt lat="42.1790006664" lon="13.3923103474"><ele>2105.78</ele><time>2026-03-11T14:22:22Z</time><extensions><gpxtpx:TrackPointExtension><gpxtpx:atemp>3.9</gpxtpx:atemp></gpxtpx:TrackPointExtension></extensions></trkpt><trkpt lat="42.1790005825" lon="13.3923102636"><ele>2105.90</ele><time>2026-03-11T14:22:23Z</time><extensions><gpxtpx:TrackPointExtension><gpxtpx:atemp>3.9</gpxtpx:atemp></gpxtpx:TrackPointExtension></extensions></trkpt><trkpt lat="42.1790005825" lon="13.3923102636"><ele>2105.93</ele><time>2026-03-11T14:22:24Z</time><extensions><gpxtpx:TrackPointExtension><gpxtpx:atemp>3.9</gpxtpx:atemp></gpxtpx:TrackPointExtension></extensions></trkpt><trkpt lat="42.1790006664" lon="13.3923102636"><ele>2105.93</ele><time>2026-03-11T14:22:25Z</time><extensions><gpxtpx:TrackPointExtension><gpxtpx:atemp>3.9</gpxtpx:atemp></gpxtpx:TrackPointExtension></extensions></trkpt><trkpt lat="42.1790010855" lon="13.3923101798"><ele>2105.94</ele><time>2026-03-11T14:22:26Z</time><extensions><gpxtpx:TrackPointExtension><gpxtpx:atemp>3.9</gpxtpx:atemp></gpxtpx:TrackPointExtension></extensions></trkpt><trkpt lat="42.1790015884" lon="13.3923092578"><ele>2105.96</ele><time>2026-03-11T14:22:27Z</time><extensions><gpxtpx:TrackPointExtension><gpxtpx:atemp>3.9</gpxtpx:atemp></gpxtpx:TrackPointExtension></extensions></trkpt><trkpt lat="42.1790036839" lon="13.3923063241"><ele>2105.96</ele><time>2026-03-11T14:22:28Z</time><extensions><gpxtpx:TrackPointExtension><gpxtpx:atemp>3.9</gpxtpx:atemp></gpxtpx:TrackPointExtension></extensions></trkpt><trkpt lat="42.1790068690" lon="13.3923012950"><ele>2105.96</ele><time>2026-03-11T14:22:29Z</time><extensions><gpxtpx:TrackPointExtension><gpxtpx:atemp>3.9</gpxtpx:atemp></gpxtpx:TrackPointExtension></extensions></trkpt><trkpt lat="42.1790117305" lon="13.3922947571"><ele>2105.96</ele><time>2026-03-11T14:22:30Z</time><extensions><gpxtpx:TrackPointExtension><gpxtpx:atemp>3.9</gpxtpx:atemp></gpxtpx:TrackPointExtension></extensions></trkpt><trkpt lat="42.1790165920" lon="13.3922884706"><ele>2105.95</ele><time>2026-03-11T14:22:31Z</time><extensions><gpxtpx:TrackPointExtension><gpxtpx:atemp>4.2</gpxtpx:atemp></gpxtpx:TrackPointExtension></extensions></trkpt><trkpt lat="42.1790215373" lon="13.3922824357"><ele>2105.92</ele><time>2026-03-11T14:22:32Z</time><extensions><gpxtpx:TrackPointExtension><gpxtpx:atemp>4.2</gpxtpx:atemp></gpxtpx:TrackPointExtension></extensions></trkpt><trkpt lat="42.1790263988" lon="13.3922762331"><ele>2105.88</ele><time>2026-03-11T14:22:33Z</time><extensions><gpxtpx:TrackPointExtension><gpxtpx:atemp>4.2</gpxtpx:atemp></gpxtpx:TrackPointExtension></extensions></trkpt><trkpt lat="42.1790312603" lon="13.3922684379"><ele>2105.81</ele><time>2026-03-11T14:22:34Z</time><extensions><gpxtpx:TrackPointExtension><gpxtpx:atemp>4.2</gpxtpx:atemp></gpxtpx:TrackPointExtension></extensions></trkpt><trkpt lat="42.1790365409" lon="13.3922595531"><ele>2105.76</ele><time>2026-03-11T14:22:35Z</time><extensions><gpxtpx:TrackPointExtension><gpxtpx:atemp>4.2</gpxtpx:atemp></gpxtpx:TrackPointExtension></extensions></trkpt><trkpt lat="42.1790410671" lon="13.3922500815"><ele>2105.66</ele><time>2026-03-11T14:22:36Z</time><extensions><gpxtpx:TrackPointExtension><gpxtpx:atemp>4.2</gpxtpx:atemp></gpxtpx:TrackPointExtension></extensions></trkpt><trkpt lat="42.1790441684" lon="13.3922409452"><ele>2105.54</ele><time>2026-03-11T14:22:37Z</time><extensions><gpxtpx:TrackPointExtension><gpxtpx:atemp>4.2</gpxtpx:atemp></gpxtpx:TrackPointExtension></extensions></trkpt><trkpt lat="42.1790464316" lon="13.3922338206"><ele>2105.44</ele><time>2026-03-11T14:22:38Z</time><extensions><gpxtpx:TrackPointExtension><gpxtpx:atemp>4.2</gpxtpx:atemp></gpxtpx:TrackPointExtension></extensions></trkpt><trkpt lat="42.1790482756" lon="13.3922289591"><ele>2105.37</ele><time>2026-03-11T14:22:39Z</time><extensions><gpxtpx:TrackPointExtension><gpxtpx:atemp>4.2</gpxtpx:atemp></gpxtpx:TrackPointExtension></extensions></trkpt><trkpt lat="42.1790507901" lon="13.3922238462"><ele>2105.27</ele><time>2026-03-11T14:22:40Z</time><extensions><gpxtpx:TrackPointExtension><gpxtpx:atemp>4.2</gpxtpx:atemp></gpxtpx:TrackPointExtension></extensions></trkpt><trkpt lat="42.1790545620" lon="13.3922159672"><ele>2105.20</ele><time>2026-03-11T14:22:41Z</time><extensions><gpxtpx:TrackPointExtension><gpxtpx:atemp>4.2</gpxtpx:atemp></gpxtpx:TrackPointExtension></extensions></trkpt><trkpt lat="42.1790591720" lon="13.3922039811"><ele>2105.15</ele><time>2026-03-11T14:22:42Z</time><extensions><gpxtpx:TrackPointExtension><gpxtpx:atemp>4.2</gpxtpx:atemp></gpxtpx:TrackPointExtension></extensions></trkpt><trkpt lat="42.1790641174" lon="13.3921903186"><ele>2105.11</ele><time>2026-03-11T14:22:43Z</time><extensions><gpxtpx:TrackPointExtension><gpxtpx:atemp>4.2</gpxtpx:atemp></gpxtpx:TrackPointExtension></extensions></trkpt><trkpt lat="42.1790691465" lon="13.3921752311"><ele>2105.00</ele><time>2026-03-11T14:22:44Z</time><extensions><gpxtpx:TrackPointExtension><gpxtpx:atemp>4.2</gpxtpx:atemp></gpxtpx:TrackPointExtension></extensions></trkpt><trkpt lat="42.1790746786" lon="13.3921607304"><ele>2104.86</ele><time>2026-03-11T14:22:45Z</time><extensions><gpxtpx:TrackPointExtension><gpxtpx:atemp>4.2</gpxtpx:atemp></gpxtpx:TrackPointExtension></extensions></trkpt><trkpt lat="42.1790805459" lon="13.3921465650"><ele>2104.64</ele><time>2026-03-11T14:22:46Z</time><extensions><gpxtpx:TrackPointExtension><gpxtpx:atemp>4.2</gpxtpx:atemp></gpxtpx:TrackPointExtension></extensions></trkpt><trkpt lat="42.1790862456" lon="13.3921324834"><ele>2104.49</ele><time>2026-03-11T14:22:47Z</time><extensions><gpxtpx:TrackPointExtension><gpxtpx:atemp>4.2</gpxtpx:atemp></gpxtpx:TrackPointExtension></extensions></trkpt><trkpt lat="42.1790923644" lon="13.3921184856"><ele>2104.38</ele><time>2026-03-11T14:22:48Z</time><extensions><gpxtpx:TrackPointExtension><gpxtpx:atemp>4.2</gpxtpx:atemp></gpxtpx:TrackPointExtension></extensions></trkpt><trkpt lat="42.1790985670" lon="13.3921042364"><ele>2104.33</ele><time>2026-03-11T14:22:49Z</time><extensions><gpxtpx:TrackPointExtension><gpxtpx:atemp>4.2</gpxtpx:atemp></gpxtpx:TrackPointExtension></extensions></trkpt><trkpt lat="42.1791053563" lon="13.3920903224"><ele>2104.30</ele><time>2026-03-11T14:22:50Z</time><extensions><gpxtpx:TrackPointExtension><gpxtpx:atemp>4.2</gpxtpx:atemp></gpxtpx:TrackPointExtension></extensions></trkpt><trkpt lat="42.1791130677" lon="13.3920756541"><ele>2104.32</ele><time>2026-03-11T14:22:51Z</time><extensions><gpxtpx:TrackPointExtension><gpxtpx:atemp>4.2</gpxtpx:atemp></gpxtpx:TrackPointExtension></extensions></trkpt><trkpt lat="42.1791215334" lon="13.3920609858"><ele>2104.36</ele><time>2026-03-11T14:22:52Z</time><extensions><gpxtpx:TrackPointExtension><gpxtpx:atemp>4.2</gpxtpx:atemp></gpxtpx:TrackPointExtension></extensions></trkpt><trkpt lat="42.1791304182" lon="13.3920470718"><ele>2104.40</ele><time>2026-03-11T14:22:53Z</time><extensions><gpxtpx:TrackPointExtension><gpxtpx:atemp>4.2</gpxtpx:atemp></gpxtpx:TrackPointExtension></extensions></trkpt><trkpt lat="42.1791394707" lon="13.3920344990"><ele>2104.45</ele><time>2026-03-11T14:22:54Z</time><extensions><gpxtpx:TrackPointExtension><gpxtpx:atemp>4.2</gpxtpx:atemp></gpxtpx:TrackPointExtension></extensions></trkpt><trkpt lat="42.1791483555" lon="13.3920234349"><ele>2104.48</ele><time>2026-03-11T14:22:55Z</time><extensions><gpxtpx:TrackPointExtension><gpxtpx:atemp>4.2</gpxtpx:atemp></gpxtpx:TrackPointExtension></extensions></trkpt><trkpt lat="42.1791558992" lon="13.3920148853"><ele>2104.50</ele><time>2026-03-11T14:22:56Z</time><extensions><gpxtpx:TrackPointExtension><gpxtpx:atemp>4.2</gpxtpx:atemp></gpxtpx:TrackPointExtension></extensions></trkpt><trkpt lat="42.1791621856" lon="13.3920085989"><ele>2104.50</ele><time>2026-03-11T14:22:57Z</time><extensions><gpxtpx:TrackPointExtension><gpxtpx:atemp>4.2</gpxtpx:atemp></gpxtpx:TrackPointExtension></extensions></trkpt><trkpt lat="42.1791676339" lon="13.3920038212"><ele>2104.49</ele><time>2026-03-11T14:22:58Z</time><extensions><gpxtpx:TrackPointExtension><gpxtpx:atemp>4.2</gpxtpx:atemp></gpxtpx:TrackPointExtension></extensions></trkpt><trkpt lat="42.1791736688" lon="13.3919994626"><ele>2104.43</ele><time>2026-03-11T14:22:59Z</time><extensions><gpxtpx:TrackPointExtension><gpxtpx:atemp>4.2</gpxtpx:atemp></gpxtpx:TrackPointExtension></extensions></trkpt><trkpt lat="42.1791797876" lon="13.3919958584"><ele>2104.33</ele><time>2026-03-11T14:23:00Z</time><extensions><gpxtpx:TrackPointExtension><gpxtpx:atemp>4.2</gpxtpx:atemp></gpxtpx:TrackPointExtension></extensions></trkpt><trkpt lat="42.1791850682" lon="13.3919927571"><ele>2104.22</ele><time>2026-03-11T14:23:01Z</time><extensions><gpxtpx:TrackPointExtension><gpxtpx:atemp>4.2</gpxtpx:atemp></gpxtpx:TrackPointExtension></extensions></trkpt><trkpt lat="42.1791893430" lon="13.3919905778"><ele>2104.13</ele><time>2026-03-11T14:23:02Z</time><extensions><gpxtpx:TrackPointExtension><gpxtpx:atemp>4.2</gpxtpx:atemp></gpxtpx:TrackPointExtension></extensions></trkpt><trkpt lat="42.1791939531" lon="13.3919873927"><ele>2104.03</ele><time>2026-03-11T14:23:03Z</time><extensions><gpxtpx:TrackPointExtension><gpxtpx:atemp>4.2</gpxtpx:atemp></gpxtpx:TrackPointExtension></extensions></trkpt><trkpt lat="42.1791989822" lon="13.3919842914"><ele>2103.90</ele><time>2026-03-11T14:23:04Z</time><extensions><gpxtpx:TrackPointExtension><gpxtpx:atemp>4.2</gpxtpx:atemp></gpxtpx:TrackPointExtension></extensions></trkpt><trkpt lat="42.1792059392" lon="13.3919800166"><ele>2103.80</ele><time>2026-03-11T14:23:05Z</time><extensions><gpxtpx:TrackPointExtension><gpxtpx:atemp>4.2</gpxtpx:atemp></gpxtpx:TrackPointExtension></extensions></trkpt><trkpt lat="42.1792147402" lon="13.3919757418"><ele>2103.74</ele><time>2026-03-11T14:23:06Z</time><extensions><gpxtpx:TrackPointExtension><gpxtpx:atemp>4.2</gpxtpx:atemp></gpxtpx:TrackPointExtension></extensions></trkpt><trkpt lat="42.1792257205" lon="13.3919711318"><ele>2103.66</ele><time>2026-03-11T14:23:07Z</time><extensions><gpxtpx:TrackPointExtension><gpxtpx:atemp>4.2</gpxtpx:atemp></gpxtpx:TrackPointExtension></extensions></trkpt><trkpt lat="42.1792380419" lon="13.3919669408"><ele>2103.42</ele><time>2026-03-11T14:23:08Z</time><extensions><gpxtpx:TrackPointExtension><gpxtpx:atemp>4.2</gpxtpx:atemp></gpxtpx:TrackPointExtension></extensions></trkpt><trkpt lat="42.1792505309" lon="13.3919640910"><ele>2103.33</ele><time>2026-03-11T14:23:09Z</time><extensions><gpxtpx:TrackPointExtension><gpxtpx:atemp>4.2</gpxtpx:atemp></gpxtpx:TrackPointExtension></extensions></trkpt><trkpt lat="42.1792628523" lon="13.3919625822"><ele>2103.27</ele><time>2026-03-11T14:23:10Z</time><extensions><gpxtpx:TrackPointExtension><gpxtpx:atemp>4.2</gpxtpx:atemp></gpxtpx:TrackPointExtension></extensions></trkpt><trkpt lat="42.1792743355" lon="13.3919616602"><ele>2103.21</ele><time>2026-03-11T14:23:11Z</time><extensions><gpxtpx:TrackPointExtension><gpxtpx:atemp>4.2</gpxtpx:atemp></gpxtpx:TrackPointExtension></extensions></trkpt><trkpt lat="42.1792855673" lon="13.3919604868"><ele>2103.17</ele><time>2026-03-11T14:23:12Z</time><extensions><gpxtpx:TrackPointExtension><gpxtpx:atemp>4.2</gpxtpx:atemp></gpxtpx:TrackPointExtension></extensions></trkpt><trkpt lat="42.1792970505" lon="13.3919590618"><ele>2103.14</ele><time>2026-03-11T14:23:13Z</time><extensions><gpxtpx:TrackPointExtension><gpxtpx:atemp>4.2</gpxtpx:atemp></gpxtpx:TrackPointExtension></extensions></trkpt><trkpt lat="42.1793087851" lon="13.3919578884"><ele>2103.14</ele><time>2026-03-11T14:23:14Z</time><extensions><gpxtpx:TrackPointExtension><gpxtpx:atemp>4.2</gpxtpx:atemp></gpxtpx:TrackPointExtension></extensions></trkpt><trkpt lat="42.1793202683" lon="13.3919576369"><ele>2103.16</ele><time>2026-03-11T14:23:15Z</time><extensions><gpxtpx:TrackPointExtension><gpxtpx:atemp>4.2</gpxtpx:atemp></gpxtpx:TrackPointExtension></extensions></trkpt><trkpt lat="42.1793305781" lon="13.3919583913"><ele>2103.16</ele><time>2026-03-11T14:23:16Z</time><extensions><gpxtpx:TrackPointExtension><gpxtpx:atemp>4.2</gpxtpx:atemp></gpxtpx:TrackPointExtension></extensions></trkpt><trkpt lat="42.1793402173" lon="13.3919596486"><ele>2103.12</ele><time>2026-03-11T14:23:17Z</time><extensions><gpxtpx:TrackPointExtension><gpxtpx:atemp>4.2</gpxtpx:atemp></gpxtpx:TrackPointExtension></extensions></trkpt><trkpt lat="42.1793507785" lon="13.3919610735"><ele>2103.10</ele><time>2026-03-11T14:23:18Z</time><extensions><gpxtpx:TrackPointExtension><gpxtpx:atemp>4.2</gpxtpx:atemp></gpxtpx:TrackPointExtension></extensions></trkpt><trkpt lat="42.1793631837" lon="13.3919619955"><ele>2102.99</ele><time>2026-03-11T14:23:19Z</time><extensions><gpxtpx:TrackPointExtension><gpxtpx:atemp>4.2</gpxtpx:atemp></gpxtpx:TrackPointExtension></extensions></trkpt><trkpt lat="42.1793778520" lon="13.3919602353"><ele>2102.82</ele><time>2026-03-11T14:23:20Z</time><extensions><gpxtpx:TrackPointExtension><gpxtpx:atemp>4.2</gpxtpx:atemp></gpxtpx:TrackPointExtension></extensions></trkpt><trkpt lat="42.1793933585" lon="13.3919534460"><ele>2102.59</ele><time>2026-03-11T14:23:21Z</time><extensions><gpxtpx:TrackPointExtension><gpxtpx:atemp>4.2</gpxtpx:atemp></gpxtpx:TrackPointExtension></extensions></trkpt><trkpt lat="42.1794074401" lon="13.3919405378"><ele>2102.31</ele><time>2026-03-11T14:23:22Z</time><extensions><gpxtpx:TrackPointExtension><gpxtpx:atemp>4.2</gpxtpx:atemp></gpxtpx:TrackPointExtension></extensions></trkpt><trkpt lat="42.1794187557" lon="13.3919234388"><ele>2101.96</ele><time>2026-03-11T14:23:23Z</time><extensions><gpxtpx:TrackPointExtension><gpxtpx:atemp>4.2</gpxtpx:atemp></gpxtpx:TrackPointExtension></extensions></trkpt><trkpt lat="42.1794265509" lon="13.3919057529"><ele>2101.56</ele><time>2026-03-11T14:23:24Z</time><extensions><gpxtpx:TrackPointExtension><gpxtpx:atemp>4.2</gpxtpx:atemp></gpxtpx:TrackPointExtension></extensions></trkpt><trkpt lat="42.1794318315" lon="13.3918898273"><ele>2101.17</ele><time>2026-03-11T14:23:25Z</time><extensions><gpxtpx:TrackPointExtension><gpxtpx:atemp>4.2</gpxtpx:atemp></gpxtpx:TrackPointExtension></extensions></trkpt><trkpt lat="42.1794359386" lon="13.3918759972"><ele>2100.88</ele><time>2026-03-11T14:23:26Z</time><extensions><gpxtpx:TrackPointExtension><gpxtpx:atemp>4.2</gpxtpx:atemp></gpxtpx:TrackPointExtension></extensions></trkpt><trkpt lat="42.1794412192" lon="13.3918623347"><ele>2100.69</ele><time>2026-03-11T14:23:27Z</time><extensions><gpxtpx:TrackPointExtension><gpxtpx:atemp>4.2</gpxtpx:atemp></gpxtpx:TrackPointExtension></extensions></trkpt><trkpt lat="42.1794507746" lon="13.3918492589"><ele>2100.54</ele><time>2026-03-11T14:23:28Z</time><extensions><gpxtpx:TrackPointExtension><gpxtpx:atemp>4.2</gpxtpx:atemp></gpxtpx:TrackPointExtension></extensions></trkpt><trkpt lat="42.1794653591" lon="13.3918389492"><ele>2100.36</ele><time>2026-03-11T14:23:29Z</time><extensions><gpxtpx:TrackPointExtension><gpxtpx:atemp>4.2</gpxtpx:atemp></gpxtpx:TrackPointExtension></extensions></trkpt><trkpt lat="42.1794840507" lon="13.3918346744"><ele>2100.16</ele><time>2026-03-11T14:23:30Z</time><extensions><gpxtpx:TrackPointExtension><gpxtpx:atemp>4.2</gpxtpx:atemp></gpxtpx:TrackPointExtension></extensions></trkpt><trkpt lat="42.1795036644" lon="13.3918366861"><ele>2099.95</ele><time>2026-03-11T14:23:31Z</time><extensions><gpxtpx:TrackPointExtension><gpxtpx:atemp>4.1</gpxtpx:atemp></gpxtpx:TrackPointExtension></extensions></trkpt><trkpt lat="42.1795215178" lon="13.3918433916"><ele>2099.58</ele><time>2026-03-11T14:23:32Z</time><extensions><gpxtpx:TrackPointExtension><gpxtpx:atemp>4.1</gpxtpx:atemp></gpxtpx:TrackPointExtension></extensions></trkpt><trkpt lat="42.1795372758" lon="13.3918524440"><ele>2099.43</ele><time>2026-03-11T14:23:33Z</time><extensions><gpxtpx:TrackPointExtension><gpxtpx:atemp>4.1</gpxtpx:atemp></gpxtpx:TrackPointExtension></extensions></trkpt><trkpt lat="42.1795506869" lon="13.3918625861"><ele>2099.33</ele><time>2026-03-11T14:23:34Z</time><extensions><gpxtpx:TrackPointExtension><gpxtpx:atemp>4.1</gpxtpx:atemp></gpxtpx:TrackPointExtension></extensions></trkpt><trkpt lat="42.1795629244" lon="13.3918734826"><ele>2099.23</ele><time>2026-03-11T14:23:35Z</time><extensions><gpxtpx:TrackPointExtension><gpxtpx:atemp>4.1</gpxtpx:atemp></gpxtpx:TrackPointExtension></extensions></trkpt><trkpt lat="42.1795738209" lon="13.3918844629"><ele>2099.12</ele><time>2026-03-11T14:23:36Z</time><extensions><gpxtpx:TrackPointExtension><gpxtpx:atemp>4.1</gpxtpx:atemp></gpxtpx:TrackPointExtension></extensions></trkpt><trkpt lat="42.1795834601" lon="13.3918949403"><ele>2099.03</ele><time>2026-03-11T14:23:37Z</time><extensions><gpxtpx:TrackPointExtension><gpxtpx:atemp>4.1</gpxtpx:atemp></gpxtpx:TrackPointExtension></extensions></trkpt><trkpt lat="42.1795915905" lon="13.3919047471"><ele>2098.96</ele><time>2026-03-11T14:23:38Z</time><extensions><gpxtpx:TrackPointExtension><gpxtpx:atemp>4.1</gpxtpx:atemp></gpxtpx:TrackPointExtension></extensions></trkpt><trkpt lat="42.1795981284" lon="13.3919133805"><ele>2098.91</ele><time>2026-03-11T14:23:39Z</time><extensions><gpxtpx:TrackPointExtension><gpxtpx:atemp>4.1</gpxtpx:atemp></gpxtpx:TrackPointExtension></extensions></trkpt><trkpt lat="42.1796041634" lon="13.3919212595"><ele>2098.85</ele><time>2026-03-11T14:23:40Z</time><extensions><gpxtpx:TrackPointExtension><gpxtpx:atemp>4.1</gpxtpx:atemp></gpxtpx:TrackPointExtension></extensions></trkpt><trkpt lat="42.1796106175" lon="13.3919290546"><ele>2098.78</ele><time>2026-03-11T14:23:41Z</time><extensions><gpxtpx:TrackPointExtension><gpxtpx:atemp>4.1</gpxtpx:atemp></gpxtpx:TrackPointExtension></extensions></trkpt><trkpt lat="42.1796191670" lon="13.3919374365"><ele>2098.64</ele><time>2026-03-11T14:23:42Z</time><extensions><gpxtpx:TrackPointExtension><gpxtpx:atemp>4.1</gpxtpx:atemp></gpxtpx:TrackPointExtension></extensions></trkpt><trkpt lat="42.1796308178" lon="13.3919428848"><ele>2098.28</ele><time>2026-03-11T14:23:43Z</time><extensions><gpxtpx:TrackPointExtension><gpxtpx:atemp>4.1</gpxtpx:atemp></gpxtpx:TrackPointExtension></extensions></trkpt><trkpt lat="42.1796455700" lon="13.3919403702"><ele>2098.15</ele><time>2026-03-11T14:23:44Z</time><extensions><gpxtpx:TrackPointExtension><gpxtpx:atemp>4.1</gpxtpx:atemp></gpxtpx:TrackPointExtension></extensions></trkpt><trkpt lat="42.1796606574" lon="13.3919277973"><ele>2097.94</ele><time>2026-03-11T14:23:45Z</time><extensions><gpxtpx:TrackPointExtension><gpxtpx:atemp>4.1</gpxtpx:atemp></gpxtpx:TrackPointExtension></extensions></trkpt><trkpt lat="42.1796730626" lon="13.3919092733"><ele>2097.56</ele><time>2026-03-11T14:23:46Z</time><extensions><gpxtpx:TrackPointExtension><gpxtpx:atemp>4.1</gpxtpx:atemp></gpxtpx:TrackPointExtension></extensions></trkpt><trkpt lat="42.1796815284" lon="13.3918892406"><ele>2097.02</ele><time>2026-03-11T14:23:47Z</time><extensions><gpxtpx:TrackPointExtension><gpxtpx:atemp>4.1</gpxtpx:atemp></gpxtpx:TrackPointExtension></extensions></trkpt><trkpt lat="42.1796874795" lon="13.3918708842"><ele>2096.38</ele><time>2026-03-11T14:23:48Z</time><extensions><gpxtpx:TrackPointExtension><gpxtpx:atemp>4.1</gpxtpx:atemp></gpxtpx:TrackPointExtension></extensions></trkpt><trkpt lat="42.1796929277" lon="13.3918531984"><ele>2095.77</ele><time>2026-03-11T14:23:49Z</time><extensions><gpxtpx:TrackPointExtension><gpxtpx:atemp>4.1</gpxtpx:atemp></gpxtpx:TrackPointExtension></extensions></trkpt><trkpt lat="42.1796994656" lon="13.3918355964"><ele>2095.31</ele><time>2026-03-11T14:23:50Z</time><extensions><gpxtpx:TrackPointExtension><gpxtpx:atemp>4.1</gpxtpx:atemp></gpxtpx:TrackPointExtension></extensions></trkpt><trkpt lat="42.1797075961" lon="13.3918169886"><ele>2095.02</ele><time>2026-03-11T14:23:51Z</time><extensions><gpxtpx:TrackPointExtension><gpxtpx:atemp>4.1</gpxtpx:atemp></gpxtpx:TrackPointExtension></extensions></trkpt><trkpt lat="42.1797167324" lon="13.3917964529"><ele>2094.85</ele><time>2026-03-11T14:23:52Z</time><extensions><gpxtpx:TrackPointExtension><gpxtpx:atemp>4.1</gpxtpx:atemp></gpxtpx:TrackPointExtension></extensions></trkpt><trkpt lat="42.1797257848" lon="13.3917748276"><ele>2094.71</ele><time>2026-03-11T14:23:53Z</time><extensions><gpxtpx:TrackPointExtension><gpxtpx:atemp>4.1</gpxtpx:atemp></gpxtpx:TrackPointExtension></extensions></trkpt><trkpt lat="42.1797339991" lon="13.3917537890"><ele>2094.34</ele><time>2026-03-11T14:23:54Z</time><extensions><gpxtpx:TrackPointExtension><gpxtpx:atemp>4.1</gpxtpx:atemp></gpxtpx:TrackPointExtension></extensions></trkpt><trkpt lat="42.1797400340" lon="13.3917363547"><ele>2094.08</ele><time>2026-03-11T14:23:55Z</time><extensions><gpxtpx:TrackPointExtension><gpxtpx:atemp>4.1</gpxtpx:atemp></gpxtpx:TrackPointExtension></extensions></trkpt><trkpt lat="42.1797453985" lon="13.3917233627"><ele>2093.83</ele><time>2026-03-11T14:23:56Z</time><extensions><gpxtpx:TrackPointExtension><gpxtpx:atemp>4.1</gpxtpx:atemp></gpxtpx:TrackPointExtension></extensions></trkpt><trkpt lat="42.1797506791" lon="13.3917141426"><ele>2093.62</ele><time>2026-03-11T14:23:57Z</time><extensions><gpxtpx:TrackPointExtension><gpxtpx:atemp>4.1</gpxtpx:atemp></gpxtpx:TrackPointExtension></extensions></trkpt><trkpt lat="42.1797587257" lon="13.3917066827"><ele>2093.52</ele><time>2026-03-11T14:23:58Z</time><extensions><gpxtpx:TrackPointExtension><gpxtpx:atemp>4.1</gpxtpx:atemp></gpxtpx:TrackPointExtension></extensions></trkpt><trkpt lat="42.1797694545" lon="13.3917028271"><ele>2093.47</ele><time>2026-03-11T14:23:59Z</time><extensions><gpxtpx:TrackPointExtension><gpxtpx:atemp>4.1</gpxtpx:atemp></gpxtpx:TrackPointExtension></extensions></trkpt><trkpt lat="42.1797807701" lon="13.3917038329"><ele>2093.44</ele><time>2026-03-11T14:24:00Z</time><extensions><gpxtpx:TrackPointExtension><gpxtpx:atemp>4.1</gpxtpx:atemp></gpxtpx:TrackPointExtension></extensions></trkpt><trkpt lat="42.1797903255" lon="13.3917096164"><ele>2093.36</ele><time>2026-03-11T14:24:01Z</time><extensions><gpxtpx:TrackPointExtension><gpxtpx:atemp>4.1</gpxtpx:atemp></gpxtpx:TrackPointExtension></extensions></trkpt><trkpt lat="42.1797974501" lon="13.3917154837"><ele>2093.32</ele><time>2026-03-11T14:24:02Z</time><extensions><gpxtpx:TrackPointExtension><gpxtpx:atemp>4.1</gpxtpx:atemp></gpxtpx:TrackPointExtension></extensions></trkpt><trkpt lat="42.1798047423" lon="13.3917188365"><ele>2093.28</ele><time>2026-03-11T14:24:03Z</time><extensions><gpxtpx:TrackPointExtension><gpxtpx:atemp>4.1</gpxtpx:atemp></gpxtpx:TrackPointExtension></extensions></trkpt><trkpt lat="42.1798143815" lon="13.3917170763"><ele>2093.24</ele><time>2026-03-11T14:24:04Z</time><extensions><gpxtpx:TrackPointExtension><gpxtpx:atemp>4.1</gpxtpx:atemp></gpxtpx:TrackPointExtension></extensions></trkpt><trkpt lat="42.1798257809" lon="13.3917104546"><ele>2093.14</ele><time>2026-03-11T14:24:05Z</time><extensions><gpxtpx:TrackPointExtension><gpxtpx:atemp>4.1</gpxtpx:atemp></gpxtpx:TrackPointExtension></extensions></trkpt><trkpt lat="42.1798361745" lon="13.3916992228"><ele>2092.80</ele><time>2026-03-11T14:24:06Z</time><extensions><gpxtpx:TrackPointExtension><gpxtpx:atemp>4.1</gpxtpx:atemp></gpxtpx:TrackPointExtension></extensions></trkpt><trkpt lat="42.1798441373" lon="13.3916855603"><ele>2092.54</ele><time>2026-03-11T14:24:07Z</time><extensions><gpxtpx:TrackPointExtension><gpxtpx:atemp>4.1</gpxtpx:atemp></gpxtpx:TrackPointExtension></extensions></trkpt><trkpt lat="42.1798506752" lon="13.3916703891"><ele>2092.22</ele><time>2026-03-11T14:24:08Z</time><extensions><gpxtpx:TrackPointExtension><gpxtpx:atemp>4.1</gpxtpx:atemp></gpxtpx:TrackPointExtension></extensions></trkpt><trkpt lat="42.1798564587" lon="13.3916541282"><ele>2091.86</ele><time>2026-03-11T14:24:09Z</time><extensions><gpxtpx:TrackPointExtension><gpxtpx:atemp>4.1</gpxtpx:atemp></gpxtpx:TrackPointExtension></extensions></trkpt><trkpt lat="42.1798619907" lon="13.3916377835"><ele>2091.53</ele><time>2026-03-11T14:24:10Z</time><extensions><gpxtpx:TrackPointExtension><gpxtpx:atemp>4.1</gpxtpx:atemp></gpxtpx:TrackPointExtension></extensions></trkpt><trkpt lat="42.1798666846" lon="13.3916220255"><ele>2091.23</ele><time>2026-03-11T14:24:11Z</time><extensions><gpxtpx:TrackPointExtension><gpxtpx:atemp>4.1</gpxtpx:atemp></gpxtpx:TrackPointExtension></extensions></trkpt><trkpt lat="42.1798697859" lon="13.3916080277"><ele>2090.93</ele><time>2026-03-11T14:24:12Z</time><extensions><gpxtpx:TrackPointExtension><gpxtpx:atemp>4.1</gpxtpx:atemp></gpxtpx:TrackPointExtension></extensions></trkpt><trkpt lat="42.1798713785" lon="13.3915961254"><ele>2090.66</ele><time>2026-03-11T14:24:13Z</time><extensions><gpxtpx:TrackPointExtension><gpxtpx:atemp>4.1</gpxtpx:atemp></gpxtpx:TrackPointExtension></extensions></trkpt><trkpt lat="42.1798718814" lon="13.3915858995"><ele>2090.44</ele><time>2026-03-11T14:24:14Z</time><extensions><gpxtpx:TrackPointExtension><gpxtpx:atemp>4.1</gpxtpx:atemp></gpxtpx:TrackPointExtension></extensions></trkpt><trkpt lat="42.1798723843" lon="13.3915748354"><ele>2090.31</ele><time>2026-03-11T14:24:15Z</time><extensions><gpxtpx:TrackPointExtension><gpxtpx:atemp>4.1</gpxtpx:atemp></gpxtpx:TrackPointExtension></extensions></trkpt><trkpt lat="42.1798726358" lon="13.3915637713"><ele>2090.23</ele><time>2026-03-11T14:24:16Z</time><extensions><gpxtpx:TrackPointExtension><gpxtpx:atemp>4.1</gpxtpx:atemp></gpxtpx:TrackPointExtension></extensions></trkpt><trkpt lat="42.1798730548" lon="13.3915525395"><ele>2090.15</ele><time>2026-03-11T14:24:17Z</time><extensions><gpxtpx:TrackPointExtension><gpxtpx:atemp>4.1</gpxtpx:atemp></gpxtpx:TrackPointExtension></extensions></trkpt><trkpt lat="42.1798736416" lon="13.3915429842"><ele>2090.07</ele><time>2026-03-11T14:24:18Z</time><extensions><gpxtpx:TrackPointExtension><gpxtpx:atemp>4.1</gpxtpx:atemp></gpxtpx:TrackPointExtension></extensions></trkpt><trkpt lat="42.1798750665" lon="13.3915336803"><ele>2090.05</ele><time>2026-03-11T14:24:19Z</time><extensions><gpxtpx:TrackPointExtension><gpxtpx:atemp>4.1</gpxtpx:atemp></gpxtpx:TrackPointExtension></extensions></trkpt><trkpt lat="42.1798770782" lon="13.3915255498"><ele>2090.04</ele><time>2026-03-11T14:24:20Z</time><extensions><gpxtpx:TrackPointExtension><gpxtpx:atemp>4.1</gpxtpx:atemp></gpxtpx:TrackPointExtension></extensions></trkpt><trkpt lat="42.1798794251" lon="13.3915184252"><ele>2090.04</ele><time>2026-03-11T14:24:21Z</time><extensions><gpxtpx:TrackPointExtension><gpxtpx:atemp>4.1</gpxtpx:atemp></gpxtpx:TrackPointExtension></extensions></trkpt><trkpt lat="42.1798834484" lon="13.3915113844"><ele>2090.04</ele><time>2026-03-11T14:24:22Z</time><extensions><gpxtpx:TrackPointExtension><gpxtpx:atemp>4.1</gpxtpx:atemp></gpxtpx:TrackPointExtension></extensions></trkpt><trkpt lat="42.1798911598" lon="13.3915032540"><ele>2090.04</ele><time>2026-03-11T14:24:23Z</time><extensions><gpxtpx:TrackPointExtension><gpxtpx:atemp>4.1</gpxtpx:atemp></gpxtpx:TrackPointExtension></extensions></trkpt><trkpt lat="42.1799031459" lon="13.3914972190"><ele>2090.04</ele><time>2026-03-11T14:24:24Z</time><extensions><gpxtpx:TrackPointExtension><gpxtpx:atemp>4.1</gpxtpx:atemp></gpxtpx:TrackPointExtension></extensions></trkpt><trkpt lat="42.1799174789" lon="13.3914962970"><ele>2090.04</ele><time>2026-03-11T14:24:25Z</time><extensions><gpxtpx:TrackPointExtension><gpxtpx:atemp>4.1</gpxtpx:atemp></gpxtpx:TrackPointExtension></extensions></trkpt><trkpt lat="42.1799316444" lon="13.3915003203"><ele>2090.00</ele><time>2026-03-11T14:24:26Z</time><extensions><gpxtpx:TrackPointExtension><gpxtpx:atemp>4.1</gpxtpx:atemp></gpxtpx:TrackPointExtension></extensions></trkpt><trkpt lat="42.1799450554" lon="13.3915047627"><ele>2089.94</ele><time>2026-03-11T14:24:27Z</time><extensions><gpxtpx:TrackPointExtension><gpxtpx:atemp>4.1</gpxtpx:atemp></gpxtpx:TrackPointExtension></extensions></trkpt><trkpt lat="42.1799582988" lon="13.3915065229"><ele>2089.87</ele><time>2026-03-11T14:24:28Z</time><extensions><gpxtpx:TrackPointExtension><gpxtpx:atemp>4.1</gpxtpx:atemp></gpxtpx:TrackPointExtension></extensions></trkpt><trkpt lat="42.1799710393" lon="13.3915039245"><ele>2089.79</ele><time>2026-03-11T14:24:29Z</time><extensions><gpxtpx:TrackPointExtension><gpxtpx:atemp>4.1</gpxtpx:atemp></gpxtpx:TrackPointExtension></extensions></trkpt><trkpt lat="42.1799824387" lon="13.3914980572"><ele>2089.35</ele><time>2026-03-11T14:24:30Z</time><extensions><gpxtpx:TrackPointExtension><gpxtpx:atemp>4.1</gpxtpx:atemp></gpxtpx:TrackPointExtension></extensions></trkpt><trkpt lat="42.1799921617" lon="13.3914892562"><ele>2089.08</ele><time>2026-03-11T14:24:31Z</time><extensions><gpxtpx:TrackPointExtension><gpxtpx:atemp>3.9</gpxtpx:atemp></gpxtpx:TrackPointExtension></extensions></trkpt><trkpt lat="42.1800017171" lon="13.3914772701"><ele>2088.87</ele><time>2026-03-11T14:24:32Z</time><extensions><gpxtpx:TrackPointExtension><gpxtpx:atemp>3.9</gpxtpx:atemp></gpxtpx:TrackPointExtension></extensions></trkpt><trkpt lat="42.1800130326" lon="13.3914618474"><ele>2088.70</ele><time>2026-03-11T14:24:33Z</time><extensions><gpxtpx:TrackPointExtension><gpxtpx:atemp>3.9</gpxtpx:atemp></gpxtpx:TrackPointExtension></extensions></trkpt><trkpt lat="42.1800257731" lon="13.3914432395"><ele>2088.47</ele><time>2026-03-11T14:24:34Z</time><extensions><gpxtpx:TrackPointExtension><gpxtpx:atemp>3.9</gpxtpx:atemp></gpxtpx:TrackPointExtension></extensions></trkpt><trkpt lat="42.1800373401" lon="13.3914226200"><ele>2088.14</ele><time>2026-03-11T14:24:35Z</time><extensions><gpxtpx:TrackPointExtension><gpxtpx:atemp>3.9</gpxtpx:atemp></gpxtpx:TrackPointExtension></extensions></trkpt><trkpt lat="42.1800474823" lon="13.3914003242"><ele>2087.79</ele><time>2026-03-11T14:24:36Z</time><extensions><gpxtpx:TrackPointExtension><gpxtpx:atemp>3.9</gpxtpx:atemp></gpxtpx:TrackPointExtension></extensions></trkpt><trkpt lat="42.1800574567" lon="13.3913761843"><ele>2087.43</ele><time>2026-03-11T14:24:37Z</time><extensions><gpxtpx:TrackPointExtension><gpxtpx:atemp>3.9</gpxtpx:atemp></gpxtpx:TrackPointExtension></extensions></trkpt><trkpt lat="42.1800684370" lon="13.3913485240"><ele>2087.04</ele><time>2026-03-11T14:24:38Z</time><extensions><gpxtpx:TrackPointExtension><gpxtpx:atemp>3.9</gpxtpx:atemp></gpxtpx:TrackPointExtension></extensions></trkpt><trkpt lat="42.1800785791" lon="13.3913171757"><ele>2086.59</ele><time>2026-03-11T14:24:39Z</time><extensions><gpxtpx:TrackPointExtension><gpxtpx:atemp>3.9</gpxtpx:atemp></gpxtpx:TrackPointExtension></extensions></trkpt><trkpt lat="42.1800854523" lon="13.3912843186"><ele>2086.09</ele><time>2026-03-11T14:24:40Z</time><extensions><gpxtpx:TrackPointExtension><gpxtpx:atemp>3.9</gpxtpx:atemp></gpxtpx:TrackPointExtension></extensions></trkpt><trkpt lat="42.1800880507" lon="13.3912533894"><ele>2085.31</ele><time>2026-03-11T14:24:41Z</time><extensions><gpxtpx:TrackPointExtension><gpxtpx:atemp>3.9</gpxtpx:atemp></gpxtpx:TrackPointExtension></extensions></trkpt><trkpt lat="42.1800880507" lon="13.3912275732"><ele>2084.97</ele><time>2026-03-11T14:24:42Z</time><extensions><gpxtpx:TrackPointExtension><gpxtpx:atemp>3.9</gpxtpx:atemp></gpxtpx:TrackPointExtension></extensions></trkpt><trkpt lat="42.1800876316" lon="13.3912064508"><ele>2084.67</ele><time>2026-03-11T14:24:43Z</time><extensions><gpxtpx:TrackPointExtension><gpxtpx:atemp>3.9</gpxtpx:atemp></gpxtpx:TrackPointExtension></extensions></trkpt><trkpt lat="42.1800888889" lon="13.3911899384"><ele>2084.38</ele><time>2026-03-11T14:24:44Z</time><extensions><gpxtpx:TrackPointExtension><gpxtpx:atemp>3.9</gpxtpx:atemp></gpxtpx:TrackPointExtension></extensions></trkpt><trkpt lat="42.1800917387" lon="13.3911757730"><ele>2084.11</ele><time>2026-03-11T14:24:45Z</time><extensions><gpxtpx:TrackPointExtension><gpxtpx:atemp>3.9</gpxtpx:atemp></gpxtpx:TrackPointExtension></extensions></trkpt><trkpt lat="42.1800963487" lon="13.3911630325"><ele>2083.88</ele><time>2026-03-11T14:24:46Z</time><extensions><gpxtpx:TrackPointExtension><gpxtpx:atemp>3.9</gpxtpx:atemp></gpxtpx:TrackPointExtension></extensions></trkpt><trkpt lat="42.1801039763" lon="13.3911516331"><ele>2083.70</ele><time>2026-03-11T14:24:47Z</time><extensions><gpxtpx:TrackPointExtension><gpxtpx:atemp>3.9</gpxtpx:atemp></gpxtpx:TrackPointExtension></extensions></trkpt><trkpt lat="42.1801176388" lon="13.3911431674"><ele>2083.54</ele><time>2026-03-11T14:24:48Z</time><extensions><gpxtpx:TrackPointExtension><gpxtpx:atemp>3.9</gpxtpx:atemp></gpxtpx:TrackPointExtension></extensions></trkpt><trkpt lat="42.1801378392" lon="13.3911341988"><ele>2083.37</ele><time>2026-03-11T14:24:49Z</time><extensions><gpxtpx:TrackPointExtension><gpxtpx:atemp>3.9</gpxtpx:atemp></gpxtpx:TrackPointExtension></extensions></trkpt><trkpt lat="42.1801593807" lon="13.3911176864"><ele>2083.14</ele><time>2026-03-11T14:24:50Z</time><extensions><gpxtpx:TrackPointExtension><gpxtpx:atemp>3.9</gpxtpx:atemp></gpxtpx:TrackPointExtension></extensions></trkpt><trkpt lat="42.1801747195" lon="13.3910932951"><ele>2082.76</ele><time>2026-03-11T14:24:51Z</time><extensions><gpxtpx:TrackPointExtension><gpxtpx:atemp>3.9</gpxtpx:atemp></gpxtpx:TrackPointExtension></extensions></trkpt><trkpt lat="42.1801822633" lon="13.3910664730"><ele>2082.31</ele><time>2026-03-11T14:24:52Z</time><extensions><gpxtpx:TrackPointExtension><gpxtpx:atemp>3.9</gpxtpx:atemp></gpxtpx:TrackPointExtension></extensions></trkpt><trkpt lat="42.1801868733" lon="13.3910443448"><ele>2081.45</ele><time>2026-03-11T14:24:53Z</time><extensions><gpxtpx:TrackPointExtension><gpxtpx:atemp>3.9</gpxtpx:atemp></gpxtpx:TrackPointExtension></extensions></trkpt><trkpt lat="42.1801969316" lon="13.3910275809"><ele>2081.09</ele><time>2026-03-11T14:24:54Z</time><extensions><gpxtpx:TrackPointExtension><gpxtpx:atemp>3.9</gpxtpx:atemp></gpxtpx:TrackPointExtension></extensions></trkpt><trkpt lat="42.1802147850" lon="13.3910102304"><ele>2080.78</ele><time>2026-03-11T14:24:55Z</time><extensions><gpxtpx:TrackPointExtension><gpxtpx:atemp>3.9</gpxtpx:atemp></gpxtpx:TrackPointExtension></extensions></trkpt><trkpt lat="42.1802321356" lon="13.3909892756"><ele>2080.39</ele><time>2026-03-11T14:24:56Z</time><extensions><gpxtpx:TrackPointExtension><gpxtpx:atemp>3.9</gpxtpx:atemp></gpxtpx:TrackPointExtension></extensions></trkpt><trkpt lat="42.1802432835" lon="13.3909658901"><ele>2079.91</ele><time>2026-03-11T14:24:57Z</time><extensions><gpxtpx:TrackPointExtension><gpxtpx:atemp>3.9</gpxtpx:atemp></gpxtpx:TrackPointExtension></extensions></trkpt><trkpt lat="42.1802469715" lon="13.3909451868"><ele>2079.42</ele><time>2026-03-11T14:24:58Z</time><extensions><gpxtpx:TrackPointExtension><gpxtpx:atemp>3.9</gpxtpx:atemp></gpxtpx:TrackPointExtension></extensions></trkpt><trkpt lat="42.1802490670" lon="13.3909306861"><ele>2079.02</ele><time>2026-03-11T14:24:59Z</time><extensions><gpxtpx:TrackPointExtension><gpxtpx:atemp>3.9</gpxtpx:atemp></gpxtpx:TrackPointExtension></extensions></trkpt><trkpt lat="42.1802517492" lon="13.3909204602"><ele>2078.71</ele><time>2026-03-11T14:25:00Z</time><extensions><gpxtpx:TrackPointExtension><gpxtpx:atemp>3.9</gpxtpx:atemp></gpxtpx:TrackPointExtension></extensions></trkpt><trkpt lat="42.1802546829" lon="13.3909127489"><ele>2078.48</ele><time>2026-03-11T14:25:01Z</time><extensions><gpxtpx:TrackPointExtension><gpxtpx:atemp>3.9</gpxtpx:atemp></gpxtpx:TrackPointExtension></extensions></trkpt><trkpt lat="42.1802563593" lon="13.3909070492"><ele>2078.32</ele><time>2026-03-11T14:25:02Z</time><extensions><gpxtpx:TrackPointExtension><gpxtpx:atemp>3.9</gpxtpx:atemp></gpxtpx:TrackPointExtension></extensions></trkpt><trkpt lat="42.1802571975" lon="13.3909026906"><ele>2078.24</ele><time>2026-03-11T14:25:03Z</time><extensions><gpxtpx:TrackPointExtension><gpxtpx:atemp>3.9</gpxtpx:atemp></gpxtpx:TrackPointExtension></extensions></trkpt><trkpt lat="42.1802570298" lon="13.3909006789"><ele>2078.18</ele><time>2026-03-11T14:25:04Z</time><extensions><gpxtpx:TrackPointExtension><gpxtpx:atemp>3.9</gpxtpx:atemp></gpxtpx:TrackPointExtension></extensions></trkpt><trkpt lat="42.1802572813" lon="13.3908999246"><ele>2078.18</ele><time>2026-03-11T14:25:05Z</time><extensions><gpxtpx:TrackPointExtension><gpxtpx:atemp>3.9</gpxtpx:atemp></gpxtpx:TrackPointExtension></extensions></trkpt><trkpt lat="42.1802577842" lon="13.3909001760"><ele>2078.25</ele><time>2026-03-11T14:25:06Z</time><extensions><gpxtpx:TrackPointExtension><gpxtpx:atemp>3.9</gpxtpx:atemp></gpxtpx:TrackPointExtension></extensions></trkpt><trkpt lat="42.1802585386" lon="13.3909004275"><ele>2078.29</ele><time>2026-03-11T14:25:07Z</time><extensions><gpxtpx:TrackPointExtension><gpxtpx:atemp>3.9</gpxtpx:atemp></gpxtpx:TrackPointExtension></extensions></trkpt><trkpt lat="42.1802590415" lon="13.3909003437"><ele>2078.31</ele><time>2026-03-11T14:25:08Z</time><extensions><gpxtpx:TrackPointExtension><gpxtpx:atemp>3.9</gpxtpx:atemp></gpxtpx:TrackPointExtension></extensions></trkpt><trkpt lat="42.1802592929" lon="13.3908997569"><ele>2078.33</ele><time>2026-03-11T14:25:09Z</time><extensions><gpxtpx:TrackPointExtension><gpxtpx:atemp>3.9</gpxtpx:atemp></gpxtpx:TrackPointExtension></extensions></trkpt><trkpt lat="42.1802595444" lon="13.3908990864"><ele>2078.32</ele><time>2026-03-11T14:25:10Z</time><extensions><gpxtpx:TrackPointExtension><gpxtpx:atemp>3.9</gpxtpx:atemp></gpxtpx:TrackPointExtension></extensions></trkpt><trkpt lat="42.1802606340" lon="13.3908976614"><ele>2078.31</ele><time>2026-03-11T14:25:11Z</time><extensions><gpxtpx:TrackPointExtension><gpxtpx:atemp>3.9</gpxtpx:atemp></gpxtpx:TrackPointExtension></extensions></trkpt><trkpt lat="42.1802632324" lon="13.3908938896"><ele>2078.22</ele><time>2026-03-11T14:25:12Z</time><extensions><gpxtpx:TrackPointExtension><gpxtpx:atemp>3.9</gpxtpx:atemp></gpxtpx:TrackPointExtension></extensions></trkpt><trkpt lat="42.1802672558" lon="13.3908874355"><ele>2078.07</ele><time>2026-03-11T14:25:13Z</time><extensions><gpxtpx:TrackPointExtension><gpxtpx:atemp>3.9</gpxtpx:atemp></gpxtpx:TrackPointExtension></extensions></trkpt><trkpt lat="42.1802742966" lon="13.3908792213"><ele>2077.92</ele><time>2026-03-11T14:25:14Z</time><extensions><gpxtpx:TrackPointExtension><gpxtpx:atemp>3.9</gpxtpx:atemp></gpxtpx:TrackPointExtension></extensions></trkpt><trkpt lat="42.1802828461" lon="13.3908701688"><ele>2077.75</ele><time>2026-03-11T14:25:15Z</time><extensions><gpxtpx:TrackPointExtension><gpxtpx:atemp>3.9</gpxtpx:atemp></gpxtpx:TrackPointExtension></extensions></trkpt><trkpt lat="42.1802922338" lon="13.3908619545"><ele>2077.28</ele><time>2026-03-11T14:25:16Z</time><extensions><gpxtpx:TrackPointExtension><gpxtpx:atemp>3.9</gpxtpx:atemp></gpxtpx:TrackPointExtension></extensions></trkpt><trkpt lat="42.1803000290" lon="13.3908548299"><ele>2077.12</ele><time>2026-03-11T14:25:17Z</time><extensions><gpxtpx:TrackPointExtension><gpxtpx:atemp>3.9</gpxtpx:atemp></gpxtpx:TrackPointExtension></extensions></trkpt><trkpt lat="42.1803063992" lon="13.3908497170"><ele>2077.00</ele><time>2026-03-11T14:25:18Z</time><extensions><gpxtpx:TrackPointExtension><gpxtpx:atemp>3.9</gpxtpx:atemp></gpxtpx:TrackPointExtension></extensions></trkpt><trkpt lat="42.1803119313" lon="13.3908442687"><ele>2076.88</ele><time>2026-03-11T14:25:19Z</time><extensions><gpxtpx:TrackPointExtension><gpxtpx:atemp>3.9</gpxtpx:atemp></gpxtpx:TrackPointExtension></extensions></trkpt><trkpt lat="42.1803175472" lon="13.3908374794"><ele>2076.74</ele><time>2026-03-11T14:25:20Z</time><extensions><gpxtpx:TrackPointExtension><gpxtpx:atemp>3.9</gpxtpx:atemp></gpxtpx:TrackPointExtension></extensions></trkpt><trkpt lat="42.1803243365" lon="13.3908292651"><ele>2076.61</ele><time>2026-03-11T14:25:21Z</time><extensions><gpxtpx:TrackPointExtension><gpxtpx:atemp>3.9</gpxtpx:atemp></gpxtpx:TrackPointExtension></extensions></trkpt><trkpt lat="42.1803313773" lon="13.3908200450"><ele>2076.50</ele><time>2026-03-11T14:25:22Z</time><extensions><gpxtpx:TrackPointExtension><gpxtpx:atemp>3.9</gpxtpx:atemp></gpxtpx:TrackPointExtension></extensions></trkpt><trkpt lat="42.1803388372" lon="13.3908094838"><ele>2076.41</ele><time>2026-03-11T14:25:23Z</time><extensions><gpxtpx:TrackPointExtension><gpxtpx:atemp>3.9</gpxtpx:atemp></gpxtpx:TrackPointExtension></extensions></trkpt><trkpt lat="42.1803475544" lon="13.3907975815"><ele>2076.31</ele><time>2026-03-11T14:25:24Z</time><extensions><gpxtpx:TrackPointExtension><gpxtpx:atemp>3.9</gpxtpx:atemp></gpxtpx:TrackPointExtension></extensions></trkpt><trkpt lat="42.1803581994" lon="13.3907850925"><ele>2076.18</ele><time>2026-03-11T14:25:25Z</time><extensions><gpxtpx:TrackPointExtension><gpxtpx:atemp>3.9</gpxtpx:atemp></gpxtpx:TrackPointExtension></extensions></trkpt><trkpt lat="42.1803693473" lon="13.3907724358"><ele>2076.00</ele><time>2026-03-11T14:25:26Z</time><extensions><gpxtpx:TrackPointExtension><gpxtpx:atemp>3.9</gpxtpx:atemp></gpxtpx:TrackPointExtension></extensions></trkpt><trkpt lat="42.1803797409" lon="13.3907598630"><ele>2075.43</ele><time>2026-03-11T14:25:27Z</time><extensions><gpxtpx:TrackPointExtension><gpxtpx:atemp>3.9</gpxtpx:atemp></gpxtpx:TrackPointExtension></extensions></trkpt><trkpt lat="42.1803891286" lon="13.3907459490"><ele>2075.09</ele><time>2026-03-11T14:25:28Z</time><extensions><gpxtpx:TrackPointExtension><gpxtpx:atemp>3.9</gpxtpx:atemp></gpxtpx:TrackPointExtension></extensions></trkpt><trkpt lat="42.1803972591" lon="13.3907308616"><ele>2074.78</ele><time>2026-03-11T14:25:29Z</time><extensions><gpxtpx:TrackPointExtension><gpxtpx:atemp>3.9</gpxtpx:atemp></gpxtpx:TrackPointExtension></extensions></trkpt><trkpt lat="42.1804040484" lon="13.3907143492"><ele>2074.48</ele><time>2026-03-11T14:25:30Z</time><extensions><gpxtpx:TrackPointExtension><gpxtpx:atemp>3.9</gpxtpx:atemp></gpxtpx:TrackPointExtension></extensions></trkpt><trkpt lat="42.1804091614" lon="13.3906974178"><ele>2074.24</ele><time>2026-03-11T14:25:31Z</time><extensions><gpxtpx:TrackPointExtension><gpxtpx:atemp>4.2</gpxtpx:atemp></gpxtpx:TrackPointExtension></extensions></trkpt><trkpt lat="42.1804142743" lon="13.3906795643"><ele>2074.01</ele><time>2026-03-11T14:25:32Z</time><extensions><gpxtpx:TrackPointExtension><gpxtpx:atemp>4.2</gpxtpx:atemp></gpxtpx:TrackPointExtension></extensions></trkpt><trkpt lat="42.1804194711" lon="13.3906604536"><ele>2073.81</ele><time>2026-03-11T14:25:33Z</time><extensions><gpxtpx:TrackPointExtension><gpxtpx:atemp>4.2</gpxtpx:atemp></gpxtpx:TrackPointExtension></extensions></trkpt><trkpt lat="42.1804234944" lon="13.3906423487"><ele>2073.59</ele><time>2026-03-11T14:25:34Z</time><extensions><gpxtpx:TrackPointExtension><gpxtpx:atemp>4.2</gpxtpx:atemp></gpxtpx:TrackPointExtension></extensions></trkpt><trkpt lat="42.1804253384" lon="13.3906270936"><ele>2073.34</ele><time>2026-03-11T14:25:35Z</time><extensions><gpxtpx:TrackPointExtension><gpxtpx:atemp>4.2</gpxtpx:atemp></gpxtpx:TrackPointExtension></extensions></trkpt><trkpt lat="42.1804257575" lon="13.3906165324"><ele>2073.13</ele><time>2026-03-11T14:25:36Z</time><extensions><gpxtpx:TrackPointExtension><gpxtpx:atemp>4.2</gpxtpx:atemp></gpxtpx:TrackPointExtension></extensions></trkpt><trkpt lat="42.1804261766" lon="13.3906090725"><ele>2072.99</ele><time>2026-03-11T14:25:37Z</time><extensions><gpxtpx:TrackPointExtension><gpxtpx:atemp>4.2</gpxtpx:atemp></gpxtpx:TrackPointExtension></extensions></trkpt><trkpt lat="42.1804268472" lon="13.3906040434"><ele>2072.88</ele><time>2026-03-11T14:25:38Z</time><extensions><gpxtpx:TrackPointExtension><gpxtpx:atemp>4.2</gpxtpx:atemp></gpxtpx:TrackPointExtension></extensions></trkpt><trkpt lat="42.1804283559" lon="13.3905992657"><ele>2072.67</ele><time>2026-03-11T14:25:39Z</time><extensions><gpxtpx:TrackPointExtension><gpxtpx:atemp>4.2</gpxtpx:atemp></gpxtpx:TrackPointExtension></extensions></trkpt><trkpt lat="42.1804306190" lon="13.3905941527"><ele>2072.59</ele><time>2026-03-11T14:25:40Z</time><extensions><gpxtpx:TrackPointExtension><gpxtpx:atemp>4.2</gpxtpx:atemp></gpxtpx:TrackPointExtension></extensions></trkpt><trkpt lat="42.1804339718" lon="13.3905870281"><ele>2072.54</ele><time>2026-03-11T14:25:41Z</time><extensions><gpxtpx:TrackPointExtension><gpxtpx:atemp>4.2</gpxtpx:atemp></gpxtpx:TrackPointExtension></extensions></trkpt><trkpt lat="42.1804396715" lon="13.3905766346"><ele>2072.44</ele><time>2026-03-11T14:25:42Z</time><extensions><gpxtpx:TrackPointExtension><gpxtpx:atemp>4.2</gpxtpx:atemp></gpxtpx:TrackPointExtension></extensions></trkpt><trkpt lat="42.1804472990" lon="13.3905618824"><ele>2072.33</ele><time>2026-03-11T14:25:43Z</time><extensions><gpxtpx:TrackPointExtension><gpxtpx:atemp>4.2</gpxtpx:atemp></gpxtpx:TrackPointExtension></extensions></trkpt><trkpt lat="42.1804554295" lon="13.3905449510"><ele>2072.18</ele><time>2026-03-11T14:25:44Z</time><extensions><gpxtpx:TrackPointExtension><gpxtpx:atemp>4.2</gpxtpx:atemp></gpxtpx:TrackPointExtension></extensions></trkpt><trkpt lat="42.1804621350" lon="13.3905287739"><ele>2072.02</ele><time>2026-03-11T14:25:45Z</time><extensions><gpxtpx:TrackPointExtension><gpxtpx:atemp>4.2</gpxtpx:atemp></gpxtpx:TrackPointExtension></extensions></trkpt><trkpt lat="42.1804672480" lon="13.3905149437"><ele>2071.88</ele><time>2026-03-11T14:25:46Z</time><extensions><gpxtpx:TrackPointExtension><gpxtpx:atemp>4.2</gpxtpx:atemp></gpxtpx:TrackPointExtension></extensions></trkpt><trkpt lat="42.1804722771" lon="13.3905030414"><ele>2071.69</ele><time>2026-03-11T14:25:47Z</time><extensions><gpxtpx:TrackPointExtension><gpxtpx:atemp>4.2</gpxtpx:atemp></gpxtpx:TrackPointExtension></extensions></trkpt><trkpt lat="42.1804814972" lon="13.3904945757"><ele>2071.46</ele><time>2026-03-11T14:25:48Z</time><extensions><gpxtpx:TrackPointExtension><gpxtpx:atemp>4.2</gpxtpx:atemp></gpxtpx:TrackPointExtension></extensions></trkpt><trkpt lat="42.1804953273" lon="13.3904899657"><ele>2071.23</ele><time>2026-03-11T14:25:49Z</time><extensions><gpxtpx:TrackPointExtension><gpxtpx:atemp>4.2</gpxtpx:atemp></gpxtpx:TrackPointExtension></extensions></trkpt><trkpt lat="42.1805076487" lon="13.3904971741"><ele>2070.80</ele><time>2026-03-11T14:25:50Z</time><extensions><gpxtpx:TrackPointExtension><gpxtpx:atemp>4.2</gpxtpx:atemp></gpxtpx:TrackPointExtension></extensions></trkpt><trkpt lat="42.1805149410" lon="13.3905091602"><ele>2070.54</ele><time>2026-03-11T14:25:51Z</time><extensions><gpxtpx:TrackPointExtension><gpxtpx:atemp>4.2</gpxtpx:atemp></gpxtpx:TrackPointExtension></extensions></trkpt><trkpt lat="42.1805165336" lon="13.3905228227"><ele>2070.29</ele><time>2026-03-11T14:25:52Z</time><extensions><gpxtpx:TrackPointExtension><gpxtpx:atemp>4.2</gpxtpx:atemp></gpxtpx:TrackPointExtension></extensions></trkpt><trkpt lat="42.1805178747" lon="13.3905287739"><ele>2070.09</ele><time>2026-03-11T14:25:53Z</time><extensions><gpxtpx:TrackPointExtension><gpxtpx:atemp>4.2</gpxtpx:atemp></gpxtpx:TrackPointExtension></extensions></trkpt><trkpt lat="42.1805190481" lon="13.3905318752"><ele>2069.97</ele><time>2026-03-11T14:25:54Z</time><extensions><gpxtpx:TrackPointExtension><gpxtpx:atemp>4.2</gpxtpx:atemp></gpxtpx:TrackPointExtension></extensions></trkpt><trkpt lat="42.1805202216" lon="13.3905346412"><ele>2069.90</ele><time>2026-03-11T14:25:55Z</time><extensions><gpxtpx:TrackPointExtension><gpxtpx:atemp>4.2</gpxtpx:atemp></gpxtpx:TrackPointExtension></extensions></trkpt><trkpt lat="42.1805223171" lon="13.3905381616"><ele>2069.84</ele><time>2026-03-11T14:25:56Z</time><extensions><gpxtpx:TrackPointExtension><gpxtpx:atemp>4.2</gpxtpx:atemp></gpxtpx:TrackPointExtension></extensions></trkpt><trkpt lat="42.1805273462" lon="13.3905426878"><ele>2069.79</ele><time>2026-03-11T14:25:57Z</time><extensions><gpxtpx:TrackPointExtension><gpxtpx:atemp>4.2</gpxtpx:atemp></gpxtpx:TrackPointExtension></extensions></trkpt><trkpt lat="42.1805375721" lon="13.3905435260"><ele>2069.74</ele><time>2026-03-11T14:25:58Z</time><extensions><gpxtpx:TrackPointExtension><gpxtpx:atemp>4.2</gpxtpx:atemp></gpxtpx:TrackPointExtension></extensions></trkpt><trkpt lat="42.1805522405" lon="13.3905341383"><ele>2069.65</ele><time>2026-03-11T14:25:59Z</time><extensions><gpxtpx:TrackPointExtension><gpxtpx:atemp>4.2</gpxtpx:atemp></gpxtpx:TrackPointExtension></extensions></trkpt><trkpt lat="42.1805671602" lon="13.3905117586"><ele>2069.51</ele><time>2026-03-11T14:26:00Z</time><extensions><gpxtpx:TrackPointExtension><gpxtpx:atemp>4.2</gpxtpx:atemp></gpxtpx:TrackPointExtension></extensions></trkpt><trkpt lat="42.1805793978" lon="13.3904815838"><ele>2069.26</ele><time>2026-03-11T14:26:01Z</time><extensions><gpxtpx:TrackPointExtension><gpxtpx:atemp>4.2</gpxtpx:atemp></gpxtpx:TrackPointExtension></extensions></trkpt><trkpt lat="42.1805887856" lon="13.3904511575"><ele>2068.40</ele><time>2026-03-11T14:26:02Z</time><extensions><gpxtpx:TrackPointExtension><gpxtpx:atemp>4.2</gpxtpx:atemp></gpxtpx:TrackPointExtension></extensions></trkpt><trkpt lat="42.1805974189" lon="13.3904224914"><ele>2067.96</ele><time>2026-03-11T14:26:03Z</time><extensions><gpxtpx:TrackPointExtension><gpxtpx:atemp>4.2</gpxtpx:atemp></gpxtpx:TrackPointExtension></extensions></trkpt><trkpt lat="42.1806049626" lon="13.3903931547"><ele>2067.52</ele><time>2026-03-11T14:26:04Z</time><extensions><gpxtpx:TrackPointExtension><gpxtpx:atemp>4.2</gpxtpx:atemp></gpxtpx:TrackPointExtension></extensions></trkpt><trkpt lat="42.1806110814" lon="13.3903642371"><ele>2067.14</ele><time>2026-03-11T14:26:05Z</time><extensions><gpxtpx:TrackPointExtension><gpxtpx:atemp>4.2</gpxtpx:atemp></gpxtpx:TrackPointExtension></extensions></trkpt><trkpt lat="42.1806168649" lon="13.3903347328"><ele>2066.81</ele><time>2026-03-11T14:26:06Z</time><extensions><gpxtpx:TrackPointExtension><gpxtpx:atemp>4.2</gpxtpx:atemp></gpxtpx:TrackPointExtension></extensions></trkpt><trkpt lat="42.1806229837" lon="13.3903062344"><ele>2066.49</ele><time>2026-03-11T14:26:07Z</time><extensions><gpxtpx:TrackPointExtension><gpxtpx:atemp>4.2</gpxtpx:atemp></gpxtpx:TrackPointExtension></extensions></trkpt><trkpt lat="42.1806280967" lon="13.3902813401"><ele>2066.16</ele><time>2026-03-11T14:26:08Z</time><extensions><gpxtpx:TrackPointExtension><gpxtpx:atemp>4.2</gpxtpx:atemp></gpxtpx:TrackPointExtension></extensions></trkpt><trkpt lat="42.1806302760" lon="13.3902645763"><ele>2065.84</ele><time>2026-03-11T14:26:09Z</time><extensions><gpxtpx:TrackPointExtension><gpxtpx:atemp>4.2</gpxtpx:atemp></gpxtpx:TrackPointExtension></extensions></trkpt><trkpt lat="42.1806306951" lon="13.3902572840"><ele>2065.56</ele><time>2026-03-11T14:26:10Z</time><extensions><gpxtpx:TrackPointExtension><gpxtpx:atemp>4.2</gpxtpx:atemp></gpxtpx:TrackPointExtension></extensions></trkpt><trkpt lat="42.1806311980" lon="13.3902544342"><ele>2065.35</ele><time>2026-03-11T14:26:11Z</time><extensions><gpxtpx:TrackPointExtension><gpxtpx:atemp>4.2</gpxtpx:atemp></gpxtpx:TrackPointExtension></extensions></trkpt><trkpt lat="42.1806326229" lon="13.3902522549"><ele>2065.21</ele><time>2026-03-11T14:26:12Z</time><extensions><gpxtpx:TrackPointExtension><gpxtpx:atemp>4.2</gpxtpx:atemp></gpxtpx:TrackPointExtension></extensions></trkpt><trkpt lat="42.1806351375" lon="13.3902490698"><ele>2065.05</ele><time>2026-03-11T14:26:13Z</time><extensions><gpxtpx:TrackPointExtension><gpxtpx:atemp>4.2</gpxtpx:atemp></gpxtpx:TrackPointExtension></extensions></trkpt><trkpt lat="42.1806389932" lon="13.3902436215"><ele>2065.02</ele><time>2026-03-11T14:26:14Z</time><extensions><gpxtpx:TrackPointExtension><gpxtpx:atemp>4.2</gpxtpx:atemp></gpxtpx:TrackPointExtension></extensions></trkpt><trkpt lat="42.1806446929" lon="13.3902356587"><ele>2064.98</ele><time>2026-03-11T14:26:15Z</time><extensions><gpxtpx:TrackPointExtension><gpxtpx:atemp>4.2</gpxtpx:atemp></gpxtpx:TrackPointExtension></extensions></trkpt><trkpt lat="42.1806520689" lon="13.3902249299"><ele>2064.91</ele><time>2026-03-11T14:26:16Z</time><extensions><gpxtpx:TrackPointExtension><gpxtpx:atemp>4.2</gpxtpx:atemp></gpxtpx:TrackPointExtension></extensions></trkpt><trkpt lat="42.1806606185" lon="13.3902121894"><ele>2064.78</ele><time>2026-03-11T14:26:17Z</time><extensions><gpxtpx:TrackPointExtension><gpxtpx:atemp>4.2</gpxtpx:atemp></gpxtpx:TrackPointExtension></extensions></trkpt><trkpt lat="42.1806702577" lon="13.3901965991"><ele>2064.63</ele><time>2026-03-11T14:26:18Z</time><extensions><gpxtpx:TrackPointExtension><gpxtpx:atemp>4.2</gpxtpx:atemp></gpxtpx:TrackPointExtension></extensions></trkpt><trkpt lat="42.1806792263" lon="13.3901788294"><ele>2064.47</ele><time>2026-03-11T14:26:19Z</time><extensions><gpxtpx:TrackPointExtension><gpxtpx:atemp>4.2</gpxtpx:atemp></gpxtpx:TrackPointExtension></extensions></trkpt><trkpt lat="42.1806867700" lon="13.3901617303"><ele>2064.24</ele><time>2026-03-11T14:26:20Z</time><extensions><gpxtpx:TrackPointExtension><gpxtpx:atemp>4.2</gpxtpx:atemp></gpxtpx:TrackPointExtension></extensions></trkpt><trkpt lat="42.1806926373" lon="13.3901469782"><ele>2063.93</ele><time>2026-03-11T14:26:21Z</time><extensions><gpxtpx:TrackPointExtension><gpxtpx:atemp>4.2</gpxtpx:atemp></gpxtpx:TrackPointExtension></extensions></trkpt><trkpt lat="42.1806986723" lon="13.3901340701"><ele>2063.61</ele><time>2026-03-11T14:26:22Z</time><extensions><gpxtpx:TrackPointExtension><gpxtpx:atemp>4.2</gpxtpx:atemp></gpxtpx:TrackPointExtension></extensions></trkpt><trkpt lat="42.1807051264" lon="13.3901224192"><ele>2063.36</ele><time>2026-03-11T14:26:23Z</time><extensions><gpxtpx:TrackPointExtension><gpxtpx:atemp>4.2</gpxtpx:atemp></gpxtpx:TrackPointExtension></extensions></trkpt><trkpt lat="42.1807119995" lon="13.3901118580"><ele>2063.17</ele><time>2026-03-11T14:26:24Z</time><extensions><gpxtpx:TrackPointExtension><gpxtpx:atemp>4.2</gpxtpx:atemp></gpxtpx:TrackPointExtension></extensions></trkpt><trkpt lat="42.1807188727" lon="13.3901023865"><ele>2062.75</ele><time>2026-03-11T14:26:25Z</time><extensions><gpxtpx:TrackPointExtension><gpxtpx:atemp>4.2</gpxtpx:atemp></gpxtpx:TrackPointExtension></extensions></trkpt><trkpt lat="42.1807264164" lon="13.3900930826"><ele>2062.55</ele><time>2026-03-11T14:26:26Z</time><extensions><gpxtpx:TrackPointExtension><gpxtpx:atemp>4.2</gpxtpx:atemp></gpxtpx:TrackPointExtension></extensions></trkpt><trkpt lat="42.1807348821" lon="13.3900837786"><ele>2062.41</ele><time>2026-03-11T14:26:27Z</time><extensions><gpxtpx:TrackPointExtension><gpxtpx:atemp>4.2</gpxtpx:atemp></gpxtpx:TrackPointExtension></extensions></trkpt><trkpt lat="42.1807422582" lon="13.3900751453"><ele>2062.29</ele><time>2026-03-11T14:26:28Z</time><extensions><gpxtpx:TrackPointExtension><gpxtpx:atemp>4.2</gpxtpx:atemp></gpxtpx:TrackPointExtension></extensions></trkpt><trkpt lat="42.1807472873" lon="13.3900697809"><ele>2062.18</ele><time>2026-03-11T14:26:29Z</time><extensions><gpxtpx:TrackPointExtension><gpxtpx:atemp>4.2</gpxtpx:atemp></gpxtpx:TrackPointExtension></extensions></trkpt><trkpt lat="42.1807493828" lon="13.3900676854"><ele>2062.09</ele><time>2026-03-11T14:26:30Z</time><extensions><gpxtpx:TrackPointExtension><gpxtpx:atemp>4.2</gpxtpx:atemp></gpxtpx:TrackPointExtension></extensions></trkpt><trkpt lat="42.1807496343" lon="13.3900675178"><ele>2062.02</ele><time>2026-03-11T14:26:31Z</time><extensions><gpxtpx:TrackPointExtension><gpxtpx:atemp>4.2</gpxtpx:atemp></gpxtpx:TrackPointExtension></extensions></trkpt><trkpt lat="42.1807497181" lon="13.3900676854"><ele>2061.98</ele><time>2026-03-11T14:26:32Z</time><extensions><gpxtpx:TrackPointExtension><gpxtpx:atemp>4.2</gpxtpx:atemp></gpxtpx:TrackPointExtension></extensions></trkpt><trkpt lat="42.1807497181" lon="13.3900674339"><ele>2061.93</ele><time>2026-03-11T14:26:33Z</time><extensions><gpxtpx:TrackPointExtension><gpxtpx:atemp>4.0</gpxtpx:atemp></gpxtpx:TrackPointExtension></extensions></trkpt><trkpt lat="42.1807503887" lon="13.3900666796"><ele>2061.85</ele><time>2026-03-11T14:26:34Z</time><extensions><gpxtpx:TrackPointExtension><gpxtpx:atemp>4.0</gpxtpx:atemp></gpxtpx:TrackPointExtension></extensions></trkpt><trkpt lat="42.1807518974" lon="13.3900658414"><ele>2061.79</ele><time>2026-03-11T14:26:35Z</time><extensions><gpxtpx:TrackPointExtension><gpxtpx:atemp>4.0</gpxtpx:atemp></gpxtpx:TrackPointExtension></extensions></trkpt><trkpt lat="42.1807540767" lon="13.3900641650"><ele>2061.72</ele><time>2026-03-11T14:26:36Z</time><extensions><gpxtpx:TrackPointExtension><gpxtpx:atemp>4.0</gpxtpx:atemp></gpxtpx:TrackPointExtension></extensions></trkpt><trkpt lat="42.1807567589" lon="13.3900631592"><ele>2061.70</ele><time>2026-03-11T14:26:37Z</time><extensions><gpxtpx:TrackPointExtension><gpxtpx:atemp>4.0</gpxtpx:atemp></gpxtpx:TrackPointExtension></extensions></trkpt><trkpt lat="42.1807602793" lon="13.3900610637"><ele>2061.69</ele><time>2026-03-11T14:26:38Z</time><extensions><gpxtpx:TrackPointExtension><gpxtpx:atemp>4.0</gpxtpx:atemp></gpxtpx:TrackPointExtension></extensions></trkpt><trkpt lat="42.1807667334" lon="13.3900582977"><ele>2061.64</ele><time>2026-03-11T14:26:39Z</time><extensions><gpxtpx:TrackPointExtension><gpxtpx:atemp>4.0</gpxtpx:atemp></gpxtpx:TrackPointExtension></extensions></trkpt><trkpt lat="42.1807767916" lon="13.3900526818"><ele>2061.54</ele><time>2026-03-11T14:26:40Z</time><extensions><gpxtpx:TrackPointExtension><gpxtpx:atemp>4.0</gpxtpx:atemp></gpxtpx:TrackPointExtension></extensions></trkpt><trkpt lat="42.1807883587" lon="13.3900456410"><ele>2061.43</ele><time>2026-03-11T14:26:41Z</time><extensions><gpxtpx:TrackPointExtension><gpxtpx:atemp>4.0</gpxtpx:atemp></gpxtpx:TrackPointExtension></extensions></trkpt><trkpt lat="42.1807988361" lon="13.3900375944"><ele>2061.33</ele><time>2026-03-11T14:26:42Z</time><extensions><gpxtpx:TrackPointExtension><gpxtpx:atemp>4.0</gpxtpx:atemp></gpxtpx:TrackPointExtension></extensions></trkpt><trkpt lat="42.1808074694" lon="13.3900298830"><ele>2061.24</ele><time>2026-03-11T14:26:43Z</time><extensions><gpxtpx:TrackPointExtension><gpxtpx:atemp>4.0</gpxtpx:atemp></gpxtpx:TrackPointExtension></extensions></trkpt><trkpt lat="42.1808156837" lon="13.3900220878"><ele>2061.16</ele><time>2026-03-11T14:26:44Z</time><extensions><gpxtpx:TrackPointExtension><gpxtpx:atemp>4.0</gpxtpx:atemp></gpxtpx:TrackPointExtension></extensions></trkpt><trkpt lat="42.1808251552" lon="13.3900141250"><ele>2061.09</ele><time>2026-03-11T14:26:45Z</time><extensions><gpxtpx:TrackPointExtension><gpxtpx:atemp>4.0</gpxtpx:atemp></gpxtpx:TrackPointExtension></extensions></trkpt><trkpt lat="42.1808365546" lon="13.3900056593"><ele>2060.96</ele><time>2026-03-11T14:26:46Z</time><extensions><gpxtpx:TrackPointExtension><gpxtpx:atemp>4.0</gpxtpx:atemp></gpxtpx:TrackPointExtension></extensions></trkpt><trkpt lat="42.1808491275" lon="13.3899960201"><ele>2060.79</ele><time>2026-03-11T14:26:47Z</time><extensions><gpxtpx:TrackPointExtension><gpxtpx:atemp>4.0</gpxtpx:atemp></gpxtpx:TrackPointExtension></extensions></trkpt><trkpt lat="42.1808615327" lon="13.3899851236"><ele>2060.28</ele><time>2026-03-11T14:26:48Z</time><extensions><gpxtpx:TrackPointExtension><gpxtpx:atemp>4.0</gpxtpx:atemp></gpxtpx:TrackPointExtension></extensions></trkpt><trkpt lat="42.1808729321" lon="13.3899729699"><ele>2060.04</ele><time>2026-03-11T14:26:49Z</time><extensions><gpxtpx:TrackPointExtension><gpxtpx:atemp>4.0</gpxtpx:atemp></gpxtpx:TrackPointExtension></extensions></trkpt><trkpt lat="42.1808824874" lon="13.3899596427"><ele>2059.84</ele><time>2026-03-11T14:26:50Z</time><extensions><gpxtpx:TrackPointExtension><gpxtpx:atemp>4.0</gpxtpx:atemp></gpxtpx:TrackPointExtension></extensions></trkpt><trkpt lat="42.1808897797" lon="13.3899464831"><ele>2059.63</ele><time>2026-03-11T14:26:51Z</time><extensions><gpxtpx:TrackPointExtension><gpxtpx:atemp>4.0</gpxtpx:atemp></gpxtpx:TrackPointExtension></extensions></trkpt><trkpt lat="42.1808957309" lon="13.3899352513"><ele>2059.44</ele><time>2026-03-11T14:26:52Z</time><extensions><gpxtpx:TrackPointExtension><gpxtpx:atemp>4.0</gpxtpx:atemp></gpxtpx:TrackPointExtension></extensions></trkpt><trkpt lat="42.1809022687" lon="13.3899279591"><ele>2059.29</ele><time>2026-03-11T14:26:53Z</time><extensions><gpxtpx:TrackPointExtension><gpxtpx:atemp>4.0</gpxtpx:atemp></gpxtpx:TrackPointExtension></extensions></trkpt><trkpt lat="42.1809123270" lon="13.3899267856"><ele>2059.15</ele><time>2026-03-11T14:26:54Z</time><extensions><gpxtpx:TrackPointExtension><gpxtpx:atemp>4.0</gpxtpx:atemp></gpxtpx:TrackPointExtension></extensions></trkpt><trkpt lat="42.1809256542" lon="13.3899308927"><ele>2058.96</ele><time>2026-03-11T14:26:55Z</time><extensions><gpxtpx:TrackPointExtension><gpxtpx:atemp>4.0</gpxtpx:atemp></gpxtpx:TrackPointExtension></extensions></trkpt><trkpt lat="42.1809379756" lon="13.3899448905"><ele>2058.73</ele><time>2026-03-11T14:26:56Z</time><extensions><gpxtpx:TrackPointExtension><gpxtpx:atemp>4.0</gpxtpx:atemp></gpxtpx:TrackPointExtension></extensions></trkpt><trkpt lat="42.1809469443" lon="13.3899634983"><ele>2058.47</ele><time>2026-03-11T14:26:57Z</time><extensions><gpxtpx:TrackPointExtension><gpxtpx:atemp>4.0</gpxtpx:atemp></gpxtpx:TrackPointExtension></extensions></trkpt><trkpt lat="42.1809529793" lon="13.3899853751"><ele>2058.23</ele><time>2026-03-11T14:26:58Z</time><extensions><gpxtpx:TrackPointExtension><gpxtpx:atemp>4.0</gpxtpx:atemp></gpxtpx:TrackPointExtension></extensions></trkpt><trkpt lat="42.1809582599" lon="13.3900064975"><ele>2058.00</ele><time>2026-03-11T14:26:59Z</time><extensions><gpxtpx:TrackPointExtension><gpxtpx:atemp>4.0</gpxtpx:atemp></gpxtpx:TrackPointExtension></extensions></trkpt><trkpt lat="42.1809623670" lon="13.3900285419"><ele>2057.66</ele><time>2026-03-11T14:27:00Z</time><extensions><gpxtpx:TrackPointExtension><gpxtpx:atemp>4.0</gpxtpx:atemp></gpxtpx:TrackPointExtension></extensions></trkpt><trkpt lat="42.1809647977" lon="13.3900518436"><ele>2057.55</ele><time>2026-03-11T14:27:01Z</time><extensions><gpxtpx:TrackPointExtension><gpxtpx:atemp>4.0</gpxtpx:atemp></gpxtpx:TrackPointExtension></extensions></trkpt><trkpt lat="42.1809664741" lon="13.3900746424"><ele>2057.44</ele><time>2026-03-11T14:27:02Z</time><extensions><gpxtpx:TrackPointExtension><gpxtpx:atemp>4.0</gpxtpx:atemp></gpxtpx:TrackPointExtension></extensions></trkpt><trkpt lat="42.1809686534" lon="13.3900981955"><ele>2057.32</ele><time>2026-03-11T14:27:03Z</time><extensions><gpxtpx:TrackPointExtension><gpxtpx:atemp>4.0</gpxtpx:atemp></gpxtpx:TrackPointExtension></extensions></trkpt><trkpt lat="42.1809722576" lon="13.3901235927"><ele>2057.15</ele><time>2026-03-11T14:27:04Z</time><extensions><gpxtpx:TrackPointExtension><gpxtpx:atemp>4.0</gpxtpx:atemp></gpxtpx:TrackPointExtension></extensions></trkpt><trkpt lat="42.1809771191" lon="13.3901519235"><ele>2056.95</ele><time>2026-03-11T14:27:05Z</time><extensions><gpxtpx:TrackPointExtension><gpxtpx:atemp>4.0</gpxtpx:atemp></gpxtpx:TrackPointExtension></extensions></trkpt><trkpt lat="42.1809829865" lon="13.3901814278"><ele>2056.73</ele><time>2026-03-11T14:27:06Z</time><extensions><gpxtpx:TrackPointExtension><gpxtpx:atemp>4.0</gpxtpx:atemp></gpxtpx:TrackPointExtension></extensions></trkpt><trkpt lat="42.1809890214" lon="13.3902088366"><ele>2056.48</ele><time>2026-03-11T14:27:07Z</time><extensions><gpxtpx:TrackPointExtension><gpxtpx:atemp>4.0</gpxtpx:atemp></gpxtpx:TrackPointExtension></extensions></trkpt><trkpt lat="42.1809966490" lon="13.3902323898"><ele>2056.18</ele><time>2026-03-11T14:27:08Z</time><extensions><gpxtpx:TrackPointExtension><gpxtpx:atemp>4.0</gpxtpx:atemp></gpxtpx:TrackPointExtension></extensions></trkpt><trkpt lat="42.1810070425" lon="13.3902543504"><ele>2055.86</ele><time>2026-03-11T14:27:09Z</time><extensions><gpxtpx:TrackPointExtension><gpxtpx:atemp>4.0</gpxtpx:atemp></gpxtpx:TrackPointExtension></extensions></trkpt><trkpt lat="42.1810207888" lon="13.3902778197"><ele>2055.57</ele><time>2026-03-11T14:27:10Z</time><extensions><gpxtpx:TrackPointExtension><gpxtpx:atemp>4.0</gpxtpx:atemp></gpxtpx:TrackPointExtension></extensions></trkpt><trkpt lat="42.1810370497" lon="13.3903044742"><ele>2055.03</ele><time>2026-03-11T14:27:11Z</time><extensions><gpxtpx:TrackPointExtension><gpxtpx:atemp>4.0</gpxtpx:atemp></gpxtpx:TrackPointExtension></extensions></trkpt><trkpt lat="42.1810549870" lon="13.3903332241"><ele>2054.72</ele><time>2026-03-11T14:27:12Z</time><extensions><gpxtpx:TrackPointExtension><gpxtpx:atemp>4.0</gpxtpx:atemp></gpxtpx:TrackPointExtension></extensions></trkpt><trkpt lat="42.1810788754" lon="13.3903575316"><ele>2054.32</ele><time>2026-03-11T14:27:13Z</time><extensions><gpxtpx:TrackPointExtension><gpxtpx:atemp>4.0</gpxtpx:atemp></gpxtpx:TrackPointExtension></extensions></trkpt><trkpt lat="42.1811058652" lon="13.3903686795"><ele>2053.89</ele><time>2026-03-11T14:27:14Z</time><extensions><gpxtpx:TrackPointExtension><gpxtpx:atemp>4.0</gpxtpx:atemp></gpxtpx:TrackPointExtension></extensions></trkpt><trkpt lat="42.1811314300" lon="13.3903638180"><ele>2053.36</ele><time>2026-03-11T14:27:15Z</time><extensions><gpxtpx:TrackPointExtension><gpxtpx:atemp>4.0</gpxtpx:atemp></gpxtpx:TrackPointExtension></extensions></trkpt><trkpt lat="42.1811483614" lon="13.3903504908"><ele>2052.77</ele><time>2026-03-11T14:27:16Z</time><extensions><gpxtpx:TrackPointExtension><gpxtpx:atemp>4.0</gpxtpx:atemp></gpxtpx:TrackPointExtension></extensions></trkpt><trkpt lat="42.1811581682" lon="13.3903382532"><ele>2052.25</ele><time>2026-03-11T14:27:17Z</time><extensions><gpxtpx:TrackPointExtension><gpxtpx:atemp>4.0</gpxtpx:atemp></gpxtpx:TrackPointExtension></extensions></trkpt><trkpt lat="42.1811641194" lon="13.3903303742"><ele>2051.88</ele><time>2026-03-11T14:27:18Z</time><extensions><gpxtpx:TrackPointExtension><gpxtpx:atemp>4.0</gpxtpx:atemp></gpxtpx:TrackPointExtension></extensions></trkpt><trkpt lat="42.1811684780" lon="13.3903243393"><ele>2051.61</ele><time>2026-03-11T14:27:19Z</time><extensions><gpxtpx:TrackPointExtension><gpxtpx:atemp>4.0</gpxtpx:atemp></gpxtpx:TrackPointExtension></extensions></trkpt><trkpt lat="42.1811715793" lon="13.3903186396"><ele>2051.38</ele><time>2026-03-11T14:27:20Z</time><extensions><gpxtpx:TrackPointExtension><gpxtpx:atemp>4.0</gpxtpx:atemp></gpxtpx:TrackPointExtension></extensions></trkpt><trkpt lat="42.1811752673" lon="13.3903133590"><ele>2051.20</ele><time>2026-03-11T14:27:21Z</time><extensions><gpxtpx:TrackPointExtension><gpxtpx:atemp>4.0</gpxtpx:atemp></gpxtpx:TrackPointExtension></extensions></trkpt><trkpt lat="42.1811803803" lon="13.3903090842"><ele>2051.07</ele><time>2026-03-11T14:27:22Z</time><extensions><gpxtpx:TrackPointExtension><gpxtpx:atemp>4.0</gpxtpx:atemp></gpxtpx:TrackPointExtension></extensions></trkpt><trkpt lat="42.1811864991" lon="13.3903052285"><ele>2050.83</ele><time>2026-03-11T14:27:23Z</time><extensions><gpxtpx:TrackPointExtension><gpxtpx:atemp>4.0</gpxtpx:atemp></gpxtpx:TrackPointExtension></extensions></trkpt><trkpt lat="42.1811922826" lon="13.3903004508"><ele>2050.72</ele><time>2026-03-11T14:27:24Z</time><extensions><gpxtpx:TrackPointExtension><gpxtpx:atemp>4.0</gpxtpx:atemp></gpxtpx:TrackPointExtension></extensions></trkpt><trkpt lat="42.1811976470" lon="13.3902945835"><ele>2050.67</ele><time>2026-03-11T14:27:25Z</time><extensions><gpxtpx:TrackPointExtension><gpxtpx:atemp>4.0</gpxtpx:atemp></gpxtpx:TrackPointExtension></extensions></trkpt><trkpt lat="42.1812035982" lon="13.3902886324"><ele>2050.64</ele><time>2026-03-11T14:27:26Z</time><extensions><gpxtpx:TrackPointExtension><gpxtpx:atemp>4.0</gpxtpx:atemp></gpxtpx:TrackPointExtension></extensions></trkpt><trkpt lat="42.1812102199" lon="13.3902835194"><ele>2050.61</ele><time>2026-03-11T14:27:27Z</time><extensions><gpxtpx:TrackPointExtension><gpxtpx:atemp>4.0</gpxtpx:atemp></gpxtpx:TrackPointExtension></extensions></trkpt><trkpt lat="42.1812167577" lon="13.3902791608"><ele>2050.60</ele><time>2026-03-11T14:27:28Z</time><extensions><gpxtpx:TrackPointExtension><gpxtpx:atemp>4.0</gpxtpx:atemp></gpxtpx:TrackPointExtension></extensions></trkpt><trkpt lat="42.1812231280" lon="13.3902738802"><ele>2050.58</ele><time>2026-03-11T14:27:29Z</time><extensions><gpxtpx:TrackPointExtension><gpxtpx:atemp>4.0</gpxtpx:atemp></gpxtpx:TrackPointExtension></extensions></trkpt><trkpt lat="42.1812290791" lon="13.3902685996"><ele>2050.57</ele><time>2026-03-11T14:27:30Z</time><extensions><gpxtpx:TrackPointExtension><gpxtpx:atemp>4.0</gpxtpx:atemp></gpxtpx:TrackPointExtension></extensions></trkpt><trkpt lat="42.1812346950" lon="13.3902635705"><ele>2050.57</ele><time>2026-03-11T14:27:31Z</time><extensions><gpxtpx:TrackPointExtension><gpxtpx:atemp>4.0</gpxtpx:atemp></gpxtpx:TrackPointExtension></extensions></trkpt><trkpt lat="42.1812394727" lon="13.3902595472"><ele>2050.57</ele><time>2026-03-11T14:27:32Z</time><extensions><gpxtpx:TrackPointExtension><gpxtpx:atemp>4.0</gpxtpx:atemp></gpxtpx:TrackPointExtension></extensions></trkpt><trkpt lat="42.1812438313" lon="13.3902547695"><ele>2050.57</ele><time>2026-03-11T14:27:33Z</time><extensions><gpxtpx:TrackPointExtension><gpxtpx:atemp>4.1</gpxtpx:atemp></gpxtpx:TrackPointExtension></extensions></trkpt><trkpt lat="42.1812488604" lon="13.3902484830"><ele>2050.60</ele><time>2026-03-11T14:27:34Z</time><extensions><gpxtpx:TrackPointExtension><gpxtpx:atemp>4.1</gpxtpx:atemp></gpxtpx:TrackPointExtension></extensions></trkpt><trkpt lat="42.1812546439" lon="13.3902413584"><ele>2050.61</ele><time>2026-03-11T14:27:35Z</time><extensions><gpxtpx:TrackPointExtension><gpxtpx:atemp>4.1</gpxtpx:atemp></gpxtpx:TrackPointExtension></extensions></trkpt><trkpt lat="42.1812614333" lon="13.3902352396"><ele>2050.62</ele><time>2026-03-11T14:27:36Z</time><extensions><gpxtpx:TrackPointExtension><gpxtpx:atemp>4.1</gpxtpx:atemp></gpxtpx:TrackPointExtension></extensions></trkpt><trkpt lat="42.1812680550" lon="13.3902304620"><ele>2050.62</ele><time>2026-03-11T14:27:37Z</time><extensions><gpxtpx:TrackPointExtension><gpxtpx:atemp>4.1</gpxtpx:atemp></gpxtpx:TrackPointExtension></extensions></trkpt><trkpt lat="42.1812751796" lon="13.3902256843"><ele>2050.62</ele><time>2026-03-11T14:27:38Z</time><extensions><gpxtpx:TrackPointExtension><gpxtpx:atemp>4.1</gpxtpx:atemp></gpxtpx:TrackPointExtension></extensions></trkpt><trkpt lat="42.1812822204" lon="13.3902200684"><ele>2050.64</ele><time>2026-03-11T14:27:39Z</time><extensions><gpxtpx:TrackPointExtension><gpxtpx:atemp>4.1</gpxtpx:atemp></gpxtpx:TrackPointExtension></extensions></trkpt><trkpt lat="42.1812891774" lon="13.3902150393"><ele>2050.65</ele><time>2026-03-11T14:27:40Z</time><extensions><gpxtpx:TrackPointExtension><gpxtpx:atemp>4.1</gpxtpx:atemp></gpxtpx:TrackPointExtension></extensions></trkpt><trkpt lat="42.1812946256" lon="13.3902100939"><ele>2050.69</ele><time>2026-03-11T14:27:41Z</time><extensions><gpxtpx:TrackPointExtension><gpxtpx:atemp>4.1</gpxtpx:atemp></gpxtpx:TrackPointExtension></extensions></trkpt><trkpt lat="42.1813004930" lon="13.3902059868"><ele>2050.72</ele><time>2026-03-11T14:27:42Z</time><extensions><gpxtpx:TrackPointExtension><gpxtpx:atemp>4.1</gpxtpx:atemp></gpxtpx:TrackPointExtension></extensions></trkpt><trkpt lat="42.1813069470" lon="13.3902022988"><ele>2050.77</ele><time>2026-03-11T14:27:43Z</time><extensions><gpxtpx:TrackPointExtension><gpxtpx:atemp>4.1</gpxtpx:atemp></gpxtpx:TrackPointExtension></extensions></trkpt><trkpt lat="42.1813144907" lon="13.3901997842"><ele>2050.81</ele><time>2026-03-11T14:27:44Z</time><extensions><gpxtpx:TrackPointExtension><gpxtpx:atemp>4.1</gpxtpx:atemp></gpxtpx:TrackPointExtension></extensions></trkpt><trkpt lat="42.1813214477" lon="13.3901985269"><ele>2050.83</ele><time>2026-03-11T14:27:45Z</time><extensions><gpxtpx:TrackPointExtension><gpxtpx:atemp>4.1</gpxtpx:atemp></gpxtpx:TrackPointExtension></extensions></trkpt><trkpt lat="42.1813281532" lon="13.3901970182"><ele>2050.83</ele><time>2026-03-11T14:27:46Z</time><extensions><gpxtpx:TrackPointExtension><gpxtpx:atemp>4.1</gpxtpx:atemp></gpxtpx:TrackPointExtension></extensions></trkpt><trkpt lat="42.1813352779" lon="13.3901953418"><ele>2050.83</ele><time>2026-03-11T14:27:47Z</time><extensions><gpxtpx:TrackPointExtension><gpxtpx:atemp>4.1</gpxtpx:atemp></gpxtpx:TrackPointExtension></extensions></trkpt><trkpt lat="42.1813438274" lon="13.3901919890"><ele>2050.84</ele><time>2026-03-11T14:27:48Z</time><extensions><gpxtpx:TrackPointExtension><gpxtpx:atemp>4.1</gpxtpx:atemp></gpxtpx:TrackPointExtension></extensions></trkpt><trkpt lat="42.1813522931" lon="13.3901896421"><ele>2050.87</ele><time>2026-03-11T14:27:49Z</time><extensions><gpxtpx:TrackPointExtension><gpxtpx:atemp>4.1</gpxtpx:atemp></gpxtpx:TrackPointExtension></extensions></trkpt><trkpt lat="42.1813604236" lon="13.3901875466"><ele>2050.94</ele><time>2026-03-11T14:27:50Z</time><extensions><gpxtpx:TrackPointExtension><gpxtpx:atemp>4.1</gpxtpx:atemp></gpxtpx:TrackPointExtension></extensions></trkpt><trkpt lat="42.1813666262" lon="13.3901863731"><ele>2050.98</ele><time>2026-03-11T14:27:51Z</time><extensions><gpxtpx:TrackPointExtension><gpxtpx:atemp>4.1</gpxtpx:atemp></gpxtpx:TrackPointExtension></extensions></trkpt><trkpt lat="42.1813730802" lon="13.3901844453"><ele>2051.02</ele><time>2026-03-11T14:27:52Z</time><extensions><gpxtpx:TrackPointExtension><gpxtpx:atemp>4.1</gpxtpx:atemp></gpxtpx:TrackPointExtension></extensions></trkpt><trkpt lat="42.1813795343" lon="13.3901825175"><ele>2051.04</ele><time>2026-03-11T14:27:53Z</time><extensions><gpxtpx:TrackPointExtension><gpxtpx:atemp>4.1</gpxtpx:atemp></gpxtpx:TrackPointExtension></extensions></trkpt><trkpt lat="42.1813861560" lon="13.3901806735"><ele>2051.09</ele><time>2026-03-11T14:27:54Z</time><extensions><gpxtpx:TrackPointExtension><gpxtpx:atemp>4.1</gpxtpx:atemp></gpxtpx:TrackPointExtension></extensions></trkpt><trkpt lat="42.1813929453" lon="13.3901782427"><ele>2051.11</ele><time>2026-03-11T14:27:55Z</time><extensions><gpxtpx:TrackPointExtension><gpxtpx:atemp>4.1</gpxtpx:atemp></gpxtpx:TrackPointExtension></extensions></trkpt><trkpt lat="42.1813993994" lon="13.3901752252"><ele>2051.12</ele><time>2026-03-11T14:27:56Z</time><extensions><gpxtpx:TrackPointExtension><gpxtpx:atemp>4.1</gpxtpx:atemp></gpxtpx:TrackPointExtension></extensions></trkpt><trkpt lat="42.1814053506" lon="13.3901722915"><ele>2051.15</ele><time>2026-03-11T14:27:57Z</time><extensions><gpxtpx:TrackPointExtension><gpxtpx:atemp>4.1</gpxtpx:atemp></gpxtpx:TrackPointExtension></extensions></trkpt><trkpt lat="42.1814101283" lon="13.3901693579"><ele>2051.19</ele><time>2026-03-11T14:27:58Z</time><extensions><gpxtpx:TrackPointExtension><gpxtpx:atemp>4.1</gpxtpx:atemp></gpxtpx:TrackPointExtension></extensions></trkpt><trkpt lat="42.1814160794" lon="13.3901667595"><ele>2051.24</ele><time>2026-03-11T14:27:59Z</time><extensions><gpxtpx:TrackPointExtension><gpxtpx:atemp>4.1</gpxtpx:atemp></gpxtpx:TrackPointExtension></extensions></trkpt><trkpt lat="42.1814232878" lon="13.3901631553"><ele>2051.27</ele><time>2026-03-11T14:28:00Z</time><extensions><gpxtpx:TrackPointExtension><gpxtpx:atemp>4.1</gpxtpx:atemp></gpxtpx:TrackPointExtension></extensions></trkpt><trkpt lat="42.1814320888" lon="13.3901593834"><ele>2051.30</ele><time>2026-03-11T14:28:01Z</time><extensions><gpxtpx:TrackPointExtension><gpxtpx:atemp>4.1</gpxtpx:atemp></gpxtpx:TrackPointExtension></extensions></trkpt><trkpt lat="42.1814411413" lon="13.3901560307"><ele>2051.31</ele><time>2026-03-11T14:28:02Z</time><extensions><gpxtpx:TrackPointExtension><gpxtpx:atemp>4.1</gpxtpx:atemp></gpxtpx:TrackPointExtension></extensions></trkpt><trkpt lat="42.1814498585" lon="13.3901538514"><ele>2051.31</ele><time>2026-03-11T14:28:03Z</time><extensions><gpxtpx:TrackPointExtension><gpxtpx:atemp>4.1</gpxtpx:atemp></gpxtpx:TrackPointExtension></extensions></trkpt><trkpt lat="42.1814580727" lon="13.3901529294"><ele>2051.31</ele><time>2026-03-11T14:28:04Z</time><extensions><gpxtpx:TrackPointExtension><gpxtpx:atemp>4.1</gpxtpx:atemp></gpxtpx:TrackPointExtension></extensions></trkpt><trkpt lat="42.1814665385" lon="13.3901506662"><ele>2051.28</ele><time>2026-03-11T14:28:05Z</time><extensions><gpxtpx:TrackPointExtension><gpxtpx:atemp>4.1</gpxtpx:atemp></gpxtpx:TrackPointExtension></extensions></trkpt><trkpt lat="42.1814758424" lon="13.3901483193"><ele>2051.22</ele><time>2026-03-11T14:28:06Z</time><extensions><gpxtpx:TrackPointExtension><gpxtpx:atemp>4.1</gpxtpx:atemp></gpxtpx:TrackPointExtension></extensions></trkpt><trkpt lat="42.1814850625" lon="13.3901452180"><ele>2051.18</ele><time>2026-03-11T14:28:07Z</time><extensions><gpxtpx:TrackPointExtension><gpxtpx:atemp>4.1</gpxtpx:atemp></gpxtpx:TrackPointExtension></extensions></trkpt><trkpt lat="42.1814924385" lon="13.3901437931"><ele>2051.13</ele><time>2026-03-11T14:28:08Z</time><extensions><gpxtpx:TrackPointExtension><gpxtpx:atemp>4.1</gpxtpx:atemp></gpxtpx:TrackPointExtension></extensions></trkpt><trkpt lat="42.1814986411" lon="13.3901423682"><ele>2051.09</ele><time>2026-03-11T14:28:09Z</time><extensions><gpxtpx:TrackPointExtension><gpxtpx:atemp>4.1</gpxtpx:atemp></gpxtpx:TrackPointExtension></extensions></trkpt><trkpt lat="42.1815051790" lon="13.3901425358"><ele>2051.09</ele><time>2026-03-11T14:28:10Z</time><extensions><gpxtpx:TrackPointExtension><gpxtpx:atemp>4.1</gpxtpx:atemp></gpxtpx:TrackPointExtension></extensions></trkpt><trkpt lat="42.1815119684" lon="13.3901432902"><ele>2051.10</ele><time>2026-03-11T14:28:11Z</time><extensions><gpxtpx:TrackPointExtension><gpxtpx:atemp>4.1</gpxtpx:atemp></gpxtpx:TrackPointExtension></extensions></trkpt><trkpt lat="42.1815187577" lon="13.3901444636"><ele>2051.13</ele><time>2026-03-11T14:28:12Z</time><extensions><gpxtpx:TrackPointExtension><gpxtpx:atemp>4.1</gpxtpx:atemp></gpxtpx:TrackPointExtension></extensions></trkpt><trkpt lat="42.1815251280" lon="13.3901444636"><ele>2051.13</ele><time>2026-03-11T14:28:13Z</time><extensions><gpxtpx:TrackPointExtension><gpxtpx:atemp>4.1</gpxtpx:atemp></gpxtpx:TrackPointExtension></extensions></trkpt><trkpt lat="42.1815316658" lon="13.3901443798"><ele>2051.16</ele><time>2026-03-11T14:28:14Z</time><extensions><gpxtpx:TrackPointExtension><gpxtpx:atemp>4.1</gpxtpx:atemp></gpxtpx:TrackPointExtension></extensions></trkpt><trkpt lat="42.1815386228" lon="13.3901439607"><ele>2051.17</ele><time>2026-03-11T14:28:15Z</time><extensions><gpxtpx:TrackPointExtension><gpxtpx:atemp>4.1</gpxtpx:atemp></gpxtpx:TrackPointExtension></extensions></trkpt><trkpt lat="42.1815463342" lon="13.3901436254"><ele>2051.18</ele><time>2026-03-11T14:28:16Z</time><extensions><gpxtpx:TrackPointExtension><gpxtpx:atemp>4.1</gpxtpx:atemp></gpxtpx:TrackPointExtension></extensions></trkpt><trkpt lat="42.1815549675" lon="13.3901430387"><ele>2051.16</ele><time>2026-03-11T14:28:17Z</time><extensions><gpxtpx:TrackPointExtension><gpxtpx:atemp>4.1</gpxtpx:atemp></gpxtpx:TrackPointExtension></extensions></trkpt><trkpt lat="42.1815638524" lon="13.3901424520"><ele>2051.15</ele><time>2026-03-11T14:28:18Z</time><extensions><gpxtpx:TrackPointExtension><gpxtpx:atemp>4.1</gpxtpx:atemp></gpxtpx:TrackPointExtension></extensions></trkpt><trkpt lat="42.1815715637" lon="13.3901421167"><ele>2051.12</ele><time>2026-03-11T14:28:19Z</time><extensions><gpxtpx:TrackPointExtension><gpxtpx:atemp>4.1</gpxtpx:atemp></gpxtpx:TrackPointExtension></extensions></trkpt><trkpt lat="42.1815778501" lon="13.3901414461"><ele>2051.10</ele><time>2026-03-11T14:28:20Z</time><extensions><gpxtpx:TrackPointExtension><gpxtpx:atemp>4.1</gpxtpx:atemp></gpxtpx:TrackPointExtension></extensions></trkpt><trkpt lat="42.1815841366" lon="13.3901405241"><ele>2051.08</ele><time>2026-03-11T14:28:21Z</time><extensions><gpxtpx:TrackPointExtension><gpxtpx:atemp>4.1</gpxtpx:atemp></gpxtpx:TrackPointExtension></extensions></trkpt><trkpt lat="42.1815913450" lon="13.3901401889"><ele>2051.04</ele><time>2026-03-11T14:28:22Z</time><extensions><gpxtpx:TrackPointExtension><gpxtpx:atemp>4.1</gpxtpx:atemp></gpxtpx:TrackPointExtension></extensions></trkpt><trkpt lat="42.1815996431" lon="13.3901391830"><ele>2051.01</ele><time>2026-03-11T14:28:23Z</time><extensions><gpxtpx:TrackPointExtension><gpxtpx:atemp>4.1</gpxtpx:atemp></gpxtpx:TrackPointExtension></extensions></trkpt><trkpt lat="42.1816070192" lon="13.3901378419"><ele>2050.99</ele><time>2026-03-11T14:28:24Z</time><extensions><gpxtpx:TrackPointExtension><gpxtpx:atemp>4.1</gpxtpx:atemp></gpxtpx:TrackPointExtension></extensions></trkpt><trkpt lat="42.1816137247" lon="13.3901354950"><ele>2050.98</ele><time>2026-03-11T14:28:25Z</time><extensions><gpxtpx:TrackPointExtension><gpxtpx:atemp>4.1</gpxtpx:atemp></gpxtpx:TrackPointExtension></extensions></trkpt><trkpt lat="42.1816197596" lon="13.3901335672"><ele>2050.97</ele><time>2026-03-11T14:28:26Z</time><extensions><gpxtpx:TrackPointExtension><gpxtpx:atemp>4.1</gpxtpx:atemp></gpxtpx:TrackPointExtension></extensions></trkpt><trkpt lat="42.1816265490" lon="13.3901317231"><ele>2050.97</ele><time>2026-03-11T14:28:27Z</time><extensions><gpxtpx:TrackPointExtension><gpxtpx:atemp>4.1</gpxtpx:atemp></gpxtpx:TrackPointExtension></extensions></trkpt><trkpt lat="42.1816337574" lon="13.3901297953"><ele>2050.96</ele><time>2026-03-11T14:28:28Z</time><extensions><gpxtpx:TrackPointExtension><gpxtpx:atemp>4.1</gpxtpx:atemp></gpxtpx:TrackPointExtension></extensions></trkpt><trkpt lat="42.1816419717" lon="13.3901271969"><ele>2050.94</ele><time>2026-03-11T14:28:29Z</time><extensions><gpxtpx:TrackPointExtension><gpxtpx:atemp>4.1</gpxtpx:atemp></gpxtpx:TrackPointExtension></extensions></trkpt><trkpt lat="42.1816506889" lon="13.3901234251"><ele>2050.91</ele><time>2026-03-11T14:28:30Z</time><extensions><gpxtpx:TrackPointExtension><gpxtpx:atemp>4.1</gpxtpx:atemp></gpxtpx:TrackPointExtension></extensions></trkpt><trkpt lat="42.1816599928" lon="13.3901180606"><ele>2050.83</ele><time>2026-03-11T14:28:31Z</time><extensions><gpxtpx:TrackPointExtension><gpxtpx:atemp>4.1</gpxtpx:atemp></gpxtpx:TrackPointExtension></extensions></trkpt><trkpt lat="42.1816687938" lon="13.3901099302"><ele>2050.75</ele><time>2026-03-11T14:28:32Z</time><extensions><gpxtpx:TrackPointExtension><gpxtpx:atemp>4.1</gpxtpx:atemp></gpxtpx:TrackPointExtension></extensions></trkpt><trkpt lat="42.1816763375" lon="13.3900989499"><ele>2050.62</ele><time>2026-03-11T14:28:33Z</time><extensions><gpxtpx:TrackPointExtension><gpxtpx:atemp>3.9</gpxtpx:atemp></gpxtpx:TrackPointExtension></extensions></trkpt><trkpt lat="42.1816830430" lon="13.3900858741"><ele>2050.45</ele><time>2026-03-11T14:28:34Z</time><extensions><gpxtpx:TrackPointExtension><gpxtpx:atemp>3.9</gpxtpx:atemp></gpxtpx:TrackPointExtension></extensions></trkpt><trkpt lat="42.1816898324" lon="13.3900708705"><ele>2050.27</ele><time>2026-03-11T14:28:35Z</time><extensions><gpxtpx:TrackPointExtension><gpxtpx:atemp>3.9</gpxtpx:atemp></gpxtpx:TrackPointExtension></extensions></trkpt><trkpt lat="42.1816977952" lon="13.3900546934"><ele>2050.08</ele><time>2026-03-11T14:28:36Z</time><extensions><gpxtpx:TrackPointExtension><gpxtpx:atemp>3.9</gpxtpx:atemp></gpxtpx:TrackPointExtension></extensions></trkpt><trkpt lat="42.1817077696" lon="13.3900382649"><ele>2049.90</ele><time>2026-03-11T14:28:37Z</time><extensions><gpxtpx:TrackPointExtension><gpxtpx:atemp>3.9</gpxtpx:atemp></gpxtpx:TrackPointExtension></extensions></trkpt><trkpt lat="42.1817190852" lon="13.3900232613"><ele>2049.72</ele><time>2026-03-11T14:28:38Z</time><extensions><gpxtpx:TrackPointExtension><gpxtpx:atemp>3.9</gpxtpx:atemp></gpxtpx:TrackPointExtension></extensions></trkpt><trkpt lat="42.1817308199" lon="13.3900102694"><ele>2049.51</ele><time>2026-03-11T14:28:39Z</time><extensions><gpxtpx:TrackPointExtension><gpxtpx:atemp>3.9</gpxtpx:atemp></gpxtpx:TrackPointExtension></extensions></trkpt><trkpt lat="42.1817415487" lon="13.3899986185"><ele>2049.25</ele><time>2026-03-11T14:28:40Z</time><extensions><gpxtpx:TrackPointExtension><gpxtpx:atemp>3.9</gpxtpx:atemp></gpxtpx:TrackPointExtension></extensions></trkpt><trkpt lat="42.1817510203" lon="13.3899875544"><ele>2049.03</ele><time>2026-03-11T14:28:41Z</time><extensions><gpxtpx:TrackPointExtension><gpxtpx:atemp>3.9</gpxtpx:atemp></gpxtpx:TrackPointExtension></extensions></trkpt><trkpt lat="42.1817596536" lon="13.3899764903"><ele>2048.88</ele><time>2026-03-11T14:28:42Z</time><extensions><gpxtpx:TrackPointExtension><gpxtpx:atemp>3.9</gpxtpx:atemp></gpxtpx:TrackPointExtension></extensions></trkpt><trkpt lat="42.1817687899" lon="13.3899654262"><ele>2048.60</ele><time>2026-03-11T14:28:43Z</time><extensions><gpxtpx:TrackPointExtension><gpxtpx:atemp>3.9</gpxtpx:atemp></gpxtpx:TrackPointExtension></extensions></trkpt><trkpt lat="42.1817787644" lon="13.3899544459"><ele>2048.46</ele><time>2026-03-11T14:28:44Z</time><extensions><gpxtpx:TrackPointExtension><gpxtpx:atemp>3.9</gpxtpx:atemp></gpxtpx:TrackPointExtension></extensions></trkpt><trkpt lat="42.1817903314" lon="13.3899429627"><ele>2048.34</ele><time>2026-03-11T14:28:45Z</time><extensions><gpxtpx:TrackPointExtension><gpxtpx:atemp>3.9</gpxtpx:atemp></gpxtpx:TrackPointExtension></extensions></trkpt><trkpt lat="42.1818032395" lon="13.3899306413"><ele>2048.21</ele><time>2026-03-11T14:28:46Z</time><extensions><gpxtpx:TrackPointExtension><gpxtpx:atemp>3.9</gpxtpx:atemp></gpxtpx:TrackPointExtension></extensions></trkpt><trkpt lat="42.1818174887" lon="13.3899164759"><ele>2048.04</ele><time>2026-03-11T14:28:47Z</time><extensions><gpxtpx:TrackPointExtension><gpxtpx:atemp>3.9</gpxtpx:atemp></gpxtpx:TrackPointExtension></extensions></trkpt><trkpt lat="42.1818321571" lon="13.3898996282"><ele>2047.81</ele><time>2026-03-11T14:28:48Z</time><extensions><gpxtpx:TrackPointExtension><gpxtpx:atemp>3.9</gpxtpx:atemp></gpxtpx:TrackPointExtension></extensions></trkpt><trkpt lat="42.1818469930" lon="13.3898806851"><ele>2047.54</ele><time>2026-03-11T14:28:49Z</time><extensions><gpxtpx:TrackPointExtension><gpxtpx:atemp>3.9</gpxtpx:atemp></gpxtpx:TrackPointExtension></extensions></trkpt><trkpt lat="42.1818620805" lon="13.3898595627"><ele>2047.29</ele><time>2026-03-11T14:28:50Z</time><extensions><gpxtpx:TrackPointExtension><gpxtpx:atemp>3.9</gpxtpx:atemp></gpxtpx:TrackPointExtension></extensions></trkpt><trkpt lat="42.1818787605" lon="13.3898377698"><ele>2047.05</ele><time>2026-03-11T14:28:51Z</time><extensions><gpxtpx:TrackPointExtension><gpxtpx:atemp>3.9</gpxtpx:atemp></gpxtpx:TrackPointExtension></extensions></trkpt><trkpt lat="42.1818977874" lon="13.3898153901"><ele>2046.72</ele><time>2026-03-11T14:28:52Z</time><extensions><gpxtpx:TrackPointExtension><gpxtpx:atemp>3.9</gpxtpx:atemp></gpxtpx:TrackPointExtension></extensions></trkpt><trkpt lat="42.1819181554" lon="13.3897924237"><ele>2046.37</ele><time>2026-03-11T14:28:53Z</time><extensions><gpxtpx:TrackPointExtension><gpxtpx:atemp>3.9</gpxtpx:atemp></gpxtpx:TrackPointExtension></extensions></trkpt><trkpt lat="42.1819393616" lon="13.3897698764"><ele>2045.64</ele><time>2026-03-11T14:28:54Z</time><extensions><gpxtpx:TrackPointExtension><gpxtpx:atemp>3.9</gpxtpx:atemp></gpxtpx:TrackPointExtension></extensions></trkpt><trkpt lat="42.1819605678" lon="13.3897497598"><ele>2045.22</ele><time>2026-03-11T14:28:55Z</time><extensions><gpxtpx:TrackPointExtension><gpxtpx:atemp>3.9</gpxtpx:atemp></gpxtpx:TrackPointExtension></extensions></trkpt><trkpt lat="42.1819813550" lon="13.3897336666"><ele>2044.83</ele><time>2026-03-11T14:28:56Z</time><extensions><gpxtpx:TrackPointExtension><gpxtpx:atemp>3.9</gpxtpx:atemp></gpxtpx:TrackPointExtension></extensions></trkpt><trkpt lat="42.1820014715" lon="13.3897207584"><ele>2044.48</ele><time>2026-03-11T14:28:57Z</time><extensions><gpxtpx:TrackPointExtension><gpxtpx:atemp>3.9</gpxtpx:atemp></gpxtpx:TrackPointExtension></extensions></trkpt><trkpt lat="42.1820210852" lon="13.3897093590"><ele>2044.14</ele><time>2026-03-11T14:28:58Z</time><extensions><gpxtpx:TrackPointExtension><gpxtpx:atemp>3.9</gpxtpx:atemp></gpxtpx:TrackPointExtension></extensions></trkpt><trkpt lat="42.1820422914" lon="13.3896980435"><ele>2043.79</ele><time>2026-03-11T14:28:59Z</time><extensions><gpxtpx:TrackPointExtension><gpxtpx:atemp>3.9</gpxtpx:atemp></gpxtpx:TrackPointExtension></extensions></trkpt><trkpt lat="42.1820664313" lon="13.3896858897"><ele>2043.49</ele><time>2026-03-11T14:29:00Z</time><extensions><gpxtpx:TrackPointExtension><gpxtpx:atemp>3.9</gpxtpx:atemp></gpxtpx:TrackPointExtension></extensions></trkpt><trkpt lat="42.1820928343" lon="13.3896711376"><ele>2043.25</ele><time>2026-03-11T14:29:01Z</time><extensions><gpxtpx:TrackPointExtension><gpxtpx:atemp>3.9</gpxtpx:atemp></gpxtpx:TrackPointExtension></extensions></trkpt><trkpt lat="42.1821203269" lon="13.3896549605"><ele>2042.99</ele><time>2026-03-11T14:29:02Z</time><extensions><gpxtpx:TrackPointExtension><gpxtpx:atemp>3.9</gpxtpx:atemp></gpxtpx:TrackPointExtension></extensions></trkpt><trkpt lat="42.1821482386" lon="13.3896385320"><ele>2042.64</ele><time>2026-03-11T14:29:03Z</time><extensions><gpxtpx:TrackPointExtension><gpxtpx:atemp>3.9</gpxtpx:atemp></gpxtpx:TrackPointExtension></extensions></trkpt><trkpt lat="42.1821769886" lon="13.3896231931"><ele>2042.24</ele><time>2026-03-11T14:29:04Z</time><extensions><gpxtpx:TrackPointExtension><gpxtpx:atemp>3.9</gpxtpx:atemp></gpxtpx:TrackPointExtension></extensions></trkpt><trkpt lat="42.1822054870" lon="13.3896086924"><ele>2041.84</ele><time>2026-03-11T14:29:05Z</time><extensions><gpxtpx:TrackPointExtension><gpxtpx:atemp>3.9</gpxtpx:atemp></gpxtpx:TrackPointExtension></extensions></trkpt><trkpt lat="42.1822328959" lon="13.3895955328"><ele>2040.91</ele><time>2026-03-11T14:29:06Z</time><extensions><gpxtpx:TrackPointExtension><gpxtpx:atemp>3.9</gpxtpx:atemp></gpxtpx:TrackPointExtension></extensions></trkpt><trkpt lat="42.1822598856" lon="13.3895848878"><ele>2040.42</ele><time>2026-03-11T14:29:07Z</time><extensions><gpxtpx:TrackPointExtension><gpxtpx:atemp>3.9</gpxtpx:atemp></gpxtpx:TrackPointExtension></extensions></trkpt><trkpt lat="42.1822861210" lon="13.3895766735"><ele>2039.97</ele><time>2026-03-11T14:29:08Z</time><extensions><gpxtpx:TrackPointExtension><gpxtpx:atemp>3.9</gpxtpx:atemp></gpxtpx:TrackPointExtension></extensions></trkpt><trkpt lat="42.1823112667" lon="13.3895709738"><ele>2039.56</ele><time>2026-03-11T14:29:09Z</time><extensions><gpxtpx:TrackPointExtension><gpxtpx:atemp>3.9</gpxtpx:atemp></gpxtpx:TrackPointExtension></extensions></trkpt><trkpt lat="42.1823345684" lon="13.3895670343"><ele>2039.18</ele><time>2026-03-11T14:29:10Z</time><extensions><gpxtpx:TrackPointExtension><gpxtpx:atemp>3.9</gpxtpx:atemp></gpxtpx:TrackPointExtension></extensions></trkpt><trkpt lat="42.1823562775" lon="13.3895645197"><ele>2038.84</ele><time>2026-03-11T14:29:11Z</time><extensions><gpxtpx:TrackPointExtension><gpxtpx:atemp>3.9</gpxtpx:atemp></gpxtpx:TrackPointExtension></extensions></trkpt><trkpt lat="42.1823754720" lon="13.3895629272"><ele>2038.52</ele><time>2026-03-11T14:29:12Z</time><extensions><gpxtpx:TrackPointExtension><gpxtpx:atemp>3.9</gpxtpx:atemp></gpxtpx:TrackPointExtension></extensions></trkpt><trkpt lat="42.1823923197" lon="13.3895617537"><ele>2038.28</ele><time>2026-03-11T14:29:13Z</time><extensions><gpxtpx:TrackPointExtension><gpxtpx:atemp>3.9</gpxtpx:atemp></gpxtpx:TrackPointExtension></extensions></trkpt><trkpt lat="42.1824074909" lon="13.3895613346"><ele>2038.08</ele><time>2026-03-11T14:29:14Z</time><extensions><gpxtpx:TrackPointExtension><gpxtpx:atemp>3.9</gpxtpx:atemp></gpxtpx:TrackPointExtension></extensions></trkpt><trkpt lat="42.1824222431" lon="13.3895609993"><ele>2037.86</ele><time>2026-03-11T14:29:15Z</time><extensions><gpxtpx:TrackPointExtension><gpxtpx:atemp>3.9</gpxtpx:atemp></gpxtpx:TrackPointExtension></extensions></trkpt><trkpt lat="42.1824369952" lon="13.3895617537"><ele>2037.64</ele><time>2026-03-11T14:29:16Z</time><extensions><gpxtpx:TrackPointExtension><gpxtpx:atemp>3.9</gpxtpx:atemp></gpxtpx:TrackPointExtension></extensions></trkpt><trkpt lat="42.1824505739" lon="13.3895633463"><ele>2037.35</ele><time>2026-03-11T14:29:17Z</time><extensions><gpxtpx:TrackPointExtension><gpxtpx:atemp>3.9</gpxtpx:atemp></gpxtpx:TrackPointExtension></extensions></trkpt><trkpt lat="42.1824640688" lon="13.3895648550"><ele>2037.22</ele><time>2026-03-11T14:29:18Z</time><extensions><gpxtpx:TrackPointExtension><gpxtpx:atemp>3.9</gpxtpx:atemp></gpxtpx:TrackPointExtension></extensions></trkpt><trkpt lat="42.1824768931" lon="13.3895657770"><ele>2037.07</ele><time>2026-03-11T14:29:19Z</time><extensions><gpxtpx:TrackPointExtension><gpxtpx:atemp>3.9</gpxtpx:atemp></gpxtpx:TrackPointExtension></extensions></trkpt><trkpt lat="42.1824896336" lon="13.3895665314"><ele>2036.95</ele><time>2026-03-11T14:29:20Z</time><extensions><gpxtpx:TrackPointExtension><gpxtpx:atemp>3.9</gpxtpx:atemp></gpxtpx:TrackPointExtension></extensions></trkpt><trkpt lat="42.1825029608" lon="13.3895681240"><ele>2036.85</ele><time>2026-03-11T14:29:21Z</time><extensions><gpxtpx:TrackPointExtension><gpxtpx:atemp>3.9</gpxtpx:atemp></gpxtpx:TrackPointExtension></extensions></trkpt><trkpt lat="42.1825175453" lon="13.3895696327"><ele>2036.75</ele><time>2026-03-11T14:29:22Z</time><extensions><gpxtpx:TrackPointExtension><gpxtpx:atemp>3.9</gpxtpx:atemp></gpxtpx:TrackPointExtension></extensions></trkpt><trkpt lat="42.1825328842" lon="13.3895704709"><ele>2036.66</ele><time>2026-03-11T14:29:23Z</time><extensions><gpxtpx:TrackPointExtension><gpxtpx:atemp>3.9</gpxtpx:atemp></gpxtpx:TrackPointExtension></extensions></trkpt><trkpt lat="42.1825483907" lon="13.3895714767"><ele>2036.61</ele><time>2026-03-11T14:29:24Z</time><extensions><gpxtpx:TrackPointExtension><gpxtpx:atemp>3.9</gpxtpx:atemp></gpxtpx:TrackPointExtension></extensions></trkpt><trkpt lat="42.1825635619" lon="13.3895729855"><ele>2036.54</ele><time>2026-03-11T14:29:25Z</time><extensions><gpxtpx:TrackPointExtension><gpxtpx:atemp>3.9</gpxtpx:atemp></gpxtpx:TrackPointExtension></extensions></trkpt><trkpt lat="42.1825790685" lon="13.3895740751"><ele>2036.46</ele><time>2026-03-11T14:29:26Z</time><extensions><gpxtpx:TrackPointExtension><gpxtpx:atemp>3.9</gpxtpx:atemp></gpxtpx:TrackPointExtension></extensions></trkpt><trkpt lat="42.1825956646" lon="13.3895739913"><ele>2036.34</ele><time>2026-03-11T14:29:27Z</time><extensions><gpxtpx:TrackPointExtension><gpxtpx:atemp>3.9</gpxtpx:atemp></gpxtpx:TrackPointExtension></extensions></trkpt><trkpt lat="42.1826131828" lon="13.3895731531"><ele>2036.21</ele><time>2026-03-11T14:29:28Z</time><extensions><gpxtpx:TrackPointExtension><gpxtpx:atemp>3.9</gpxtpx:atemp></gpxtpx:TrackPointExtension></extensions></trkpt><trkpt lat="42.1826311201" lon="13.3895720635"><ele>2035.98</ele><time>2026-03-11T14:29:29Z</time><extensions><gpxtpx:TrackPointExtension><gpxtpx:atemp>3.9</gpxtpx:atemp></gpxtpx:TrackPointExtension></extensions></trkpt><trkpt lat="42.1826489735" lon="13.3895714767"><ele>2035.87</ele><time>2026-03-11T14:29:30Z</time><extensions><gpxtpx:TrackPointExtension><gpxtpx:atemp>3.9</gpxtpx:atemp></gpxtpx:TrackPointExtension></extensions></trkpt><trkpt lat="42.1826667432" lon="13.3895703871"><ele>2035.74</ele><time>2026-03-11T14:29:31Z</time><extensions><gpxtpx:TrackPointExtension><gpxtpx:atemp>3.9</gpxtpx:atemp></gpxtpx:TrackPointExtension></extensions></trkpt><trkpt lat="42.1826841775" lon="13.3895694651"><ele>2035.60</ele><time>2026-03-11T14:29:32Z</time><extensions><gpxtpx:TrackPointExtension><gpxtpx:atemp>3.9</gpxtpx:atemp></gpxtpx:TrackPointExtension></extensions></trkpt><trkpt lat="42.1827008575" lon="13.3895684592"><ele>2035.47</ele><time>2026-03-11T14:29:33Z</time><extensions><gpxtpx:TrackPointExtension><gpxtpx:atemp>3.9</gpxtpx:atemp></gpxtpx:TrackPointExtension></extensions></trkpt><trkpt lat="42.1827163640" lon="13.3895679563"><ele>2035.36</ele><time>2026-03-11T14:29:34Z</time><extensions><gpxtpx:TrackPointExtension><gpxtpx:atemp>3.9</gpxtpx:atemp></gpxtpx:TrackPointExtension></extensions></trkpt><trkpt lat="42.1827320382" lon="13.3895683754"><ele>2035.25</ele><time>2026-03-11T14:29:35Z</time><extensions><gpxtpx:TrackPointExtension><gpxtpx:atemp>3.9</gpxtpx:atemp></gpxtpx:TrackPointExtension></extensions></trkpt><trkpt lat="42.1827479638" lon="13.3895699680"><ele>2035.12</ele><time>2026-03-11T14:29:36Z</time><extensions><gpxtpx:TrackPointExtension><gpxtpx:atemp>3.9</gpxtpx:atemp></gpxtpx:TrackPointExtension></extensions></trkpt><trkpt lat="42.1827638894" lon="13.3895726502"><ele>2035.00</ele><time>2026-03-11T14:29:37Z</time><extensions><gpxtpx:TrackPointExtension><gpxtpx:atemp>3.9</gpxtpx:atemp></gpxtpx:TrackPointExtension></extensions></trkpt><trkpt lat="42.1827791445" lon="13.3895756677"><ele>2034.88</ele><time>2026-03-11T14:29:38Z</time><extensions><gpxtpx:TrackPointExtension><gpxtpx:atemp>3.9</gpxtpx:atemp></gpxtpx:TrackPointExtension></extensions></trkpt><trkpt lat="42.1827939805" lon="13.3895772602"><ele>2034.73</ele><time>2026-03-11T14:29:39Z</time><extensions><gpxtpx:TrackPointExtension><gpxtpx:atemp>3.9</gpxtpx:atemp></gpxtpx:TrackPointExtension></extensions></trkpt><trkpt lat="42.1828076430" lon="13.3895765897"><ele>2034.53</ele><time>2026-03-11T14:29:40Z</time><extensions><gpxtpx:TrackPointExtension><gpxtpx:atemp>3.9</gpxtpx:atemp></gpxtpx:TrackPointExtension></extensions></trkpt><trkpt lat="42.1828198805" lon="13.3895733207"><ele>2034.23</ele><time>2026-03-11T14:29:41Z</time><extensions><gpxtpx:TrackPointExtension><gpxtpx:atemp>3.9</gpxtpx:atemp></gpxtpx:TrackPointExtension></extensions></trkpt><trkpt lat="42.1828310285" lon="13.3895683754"><ele>2034.10</ele><time>2026-03-11T14:29:42Z</time><extensions><gpxtpx:TrackPointExtension><gpxtpx:atemp>3.9</gpxtpx:atemp></gpxtpx:TrackPointExtension></extensions></trkpt><trkpt lat="42.1828420926" lon="13.3895624243"><ele>2033.96</ele><time>2026-03-11T14:29:43Z</time><extensions><gpxtpx:TrackPointExtension><gpxtpx:atemp>3.9</gpxtpx:atemp></gpxtpx:TrackPointExtension></extensions></trkpt><trkpt lat="42.1828547493" lon="13.3895560540"><ele>2033.82</ele><time>2026-03-11T14:29:44Z</time><extensions><gpxtpx:TrackPointExtension><gpxtpx:atemp>3.9</gpxtpx:atemp></gpxtpx:TrackPointExtension></extensions></trkpt><trkpt lat="42.1828701720" lon="13.3895498514"><ele>2033.63</ele><time>2026-03-11T14:29:45Z</time><extensions><gpxtpx:TrackPointExtension><gpxtpx:atemp>3.9</gpxtpx:atemp></gpxtpx:TrackPointExtension></extensions></trkpt><trkpt lat="42.1828873549" lon="13.3895429783"><ele>2033.40</ele><time>2026-03-11T14:29:46Z</time><extensions><gpxtpx:TrackPointExtension><gpxtpx:atemp>3.9</gpxtpx:atemp></gpxtpx:TrackPointExtension></extensions></trkpt><trkpt lat="42.1829045378" lon="13.3895351831"><ele>2033.23</ele><time>2026-03-11T14:29:47Z</time><extensions><gpxtpx:TrackPointExtension><gpxtpx:atemp>3.9</gpxtpx:atemp></gpxtpx:TrackPointExtension></extensions></trkpt><trkpt lat="42.1829209663" lon="13.3895287290"><ele>2033.09</ele><time>2026-03-11T14:29:48Z</time><extensions><gpxtpx:TrackPointExtension><gpxtpx:atemp>3.9</gpxtpx:atemp></gpxtpx:TrackPointExtension></extensions></trkpt><trkpt lat="42.1829365566" lon="13.3895274717"><ele>2032.91</ele><time>2026-03-11T14:29:49Z</time><extensions><gpxtpx:TrackPointExtension><gpxtpx:atemp>3.9</gpxtpx:atemp></gpxtpx:TrackPointExtension></extensions></trkpt><trkpt lat="42.1829502191" lon="13.3895323332"><ele>2032.71</ele><time>2026-03-11T14:29:50Z</time><extensions><gpxtpx:TrackPointExtension><gpxtpx:atemp>3.9</gpxtpx:atemp></gpxtpx:TrackPointExtension></extensions></trkpt><trkpt lat="42.1829612833" lon="13.3895395417"><ele>2032.53</ele><time>2026-03-11T14:29:51Z</time><extensions><gpxtpx:TrackPointExtension><gpxtpx:atemp>3.9</gpxtpx:atemp></gpxtpx:TrackPointExtension></extensions></trkpt><trkpt lat="42.1829707548" lon="13.3895451576"><ele>2032.16</ele><time>2026-03-11T14:29:52Z</time><extensions><gpxtpx:TrackPointExtension><gpxtpx:atemp>3.9</gpxtpx:atemp></gpxtpx:TrackPointExtension></extensions></trkpt><trkpt lat="42.1829820704" lon="13.3895466663"><ele>2032.02</ele><time>2026-03-11T14:29:53Z</time><extensions><gpxtpx:TrackPointExtension><gpxtpx:atemp>3.9</gpxtpx:atemp></gpxtpx:TrackPointExtension></extensions></trkpt><trkpt lat="42.1829968225" lon="13.3895444870"><ele>2031.87</ele><time>2026-03-11T14:29:54Z</time><extensions><gpxtpx:TrackPointExtension><gpxtpx:atemp>3.9</gpxtpx:atemp></gpxtpx:TrackPointExtension></extensions></trkpt><trkpt lat="42.1830152627" lon="13.3895380329"><ele>2031.61</ele><time>2026-03-11T14:29:55Z</time><extensions><gpxtpx:TrackPointExtension><gpxtpx:atemp>3.9</gpxtpx:atemp></gpxtpx:TrackPointExtension></extensions></trkpt><trkpt lat="42.1830353793" lon="13.3895274717"><ele>2031.30</ele><time>2026-03-11T14:29:56Z</time><extensions><gpxtpx:TrackPointExtension><gpxtpx:atemp>3.9</gpxtpx:atemp></gpxtpx:TrackPointExtension></extensions></trkpt><trkpt lat="42.1830558311" lon="13.3895126358"><ele>2031.00</ele><time>2026-03-11T14:29:57Z</time><extensions><gpxtpx:TrackPointExtension><gpxtpx:atemp>3.9</gpxtpx:atemp></gpxtpx:TrackPointExtension></extensions></trkpt><trkpt lat="42.1830747742" lon="13.3894943632"><ele>2030.66</ele><time>2026-03-11T14:29:58Z</time><extensions><gpxtpx:TrackPointExtension><gpxtpx:atemp>3.9</gpxtpx:atemp></gpxtpx:TrackPointExtension></extensions></trkpt><trkpt lat="42.1830921248" lon="13.3894743305"><ele>2030.23</ele><time>2026-03-11T14:29:59Z</time><extensions><gpxtpx:TrackPointExtension><gpxtpx:atemp>3.9</gpxtpx:atemp></gpxtpx:TrackPointExtension></extensions></trkpt><trkpt lat="42.1831080504" lon="13.3894567285"><ele>2029.76</ele><time>2026-03-11T14:30:00Z</time><extensions><gpxtpx:TrackPointExtension><gpxtpx:atemp>3.9</gpxtpx:atemp></gpxtpx:TrackPointExtension></extensions></trkpt><trkpt lat="42.1831228863" lon="13.3894442394"><ele>2029.33</ele><time>2026-03-11T14:30:01Z</time><extensions><gpxtpx:TrackPointExtension><gpxtpx:atemp>3.9</gpxtpx:atemp></gpxtpx:TrackPointExtension></extensions></trkpt><trkpt lat="42.1831363812" lon="13.3894369472"><ele>2028.92</ele><time>2026-03-11T14:30:02Z</time><extensions><gpxtpx:TrackPointExtension><gpxtpx:atemp>3.9</gpxtpx:atemp></gpxtpx:TrackPointExtension></extensions></trkpt><trkpt lat="42.1831485350" lon="13.3894322533"><ele>2028.01</ele><time>2026-03-11T14:30:03Z</time><extensions><gpxtpx:TrackPointExtension><gpxtpx:atemp>3.9</gpxtpx:atemp></gpxtpx:TrackPointExtension></extensions></trkpt><trkpt lat="42.1831599344" lon="13.3894281462"><ele>2027.69</ele><time>2026-03-11T14:30:04Z</time><extensions><gpxtpx:TrackPointExtension><gpxtpx:atemp>3.9</gpxtpx:atemp></gpxtpx:TrackPointExtension></extensions></trkpt><trkpt lat="42.1831722558" lon="13.3894249611"><ele>2027.47</ele><time>2026-03-11T14:30:05Z</time><extensions><gpxtpx:TrackPointExtension><gpxtpx:atemp>3.9</gpxtpx:atemp></gpxtpx:TrackPointExtension></extensions></trkpt><trkpt lat="42.1831859183" lon="13.3894224465"><ele>2027.27</ele><time>2026-03-11T14:30:06Z</time><extensions><gpxtpx:TrackPointExtension><gpxtpx:atemp>3.9</gpxtpx:atemp></gpxtpx:TrackPointExtension></extensions></trkpt><trkpt lat="42.1832010895" lon="13.3894205187"><ele>2027.06</ele><time>2026-03-11T14:30:07Z</time><extensions><gpxtpx:TrackPointExtension><gpxtpx:atemp>3.9</gpxtpx:atemp></gpxtpx:TrackPointExtension></extensions></trkpt><trkpt lat="42.1832164284" lon="13.3894196805"><ele>2026.88</ele><time>2026-03-11T14:30:08Z</time><extensions><gpxtpx:TrackPointExtension><gpxtpx:atemp>3.9</gpxtpx:atemp></gpxtpx:TrackPointExtension></extensions></trkpt><trkpt lat="42.1832317673" lon="13.3894222789"><ele>2026.71</ele><time>2026-03-11T14:30:09Z</time><extensions><gpxtpx:TrackPointExtension><gpxtpx:atemp>3.9</gpxtpx:atemp></gpxtpx:TrackPointExtension></extensions></trkpt><trkpt lat="42.1832460165" lon="13.3894321695"><ele>2026.46</ele><time>2026-03-11T14:30:10Z</time><extensions><gpxtpx:TrackPointExtension><gpxtpx:atemp>3.9</gpxtpx:atemp></gpxtpx:TrackPointExtension></extensions></trkpt><trkpt lat="42.1832568292" lon="13.3894502744"><ele>2026.22</ele><time>2026-03-11T14:30:11Z</time><extensions><gpxtpx:TrackPointExtension><gpxtpx:atemp>3.9</gpxtpx:atemp></gpxtpx:TrackPointExtension></extensions></trkpt><trkpt lat="42.1832608525" lon="13.3894721512"><ele>2026.03</ele><time>2026-03-11T14:30:12Z</time><extensions><gpxtpx:TrackPointExtension><gpxtpx:atemp>3.9</gpxtpx:atemp></gpxtpx:TrackPointExtension></extensions></trkpt><trkpt lat="42.1832603496" lon="13.3894917648"><ele>2025.82</ele><time>2026-03-11T14:30:13Z</time><extensions><gpxtpx:TrackPointExtension><gpxtpx:atemp>3.9</gpxtpx:atemp></gpxtpx:TrackPointExtension></extensions></trkpt><trkpt lat="42.1832584217" lon="13.3895032480"><ele>2025.56</ele><time>2026-03-11T14:30:14Z</time><extensions><gpxtpx:TrackPointExtension><gpxtpx:atemp>3.9</gpxtpx:atemp></gpxtpx:TrackPointExtension></extensions></trkpt><trkpt lat="42.1832578350" lon="13.3895089477"><ele>2025.08</ele><time>2026-03-11T14:30:15Z</time><extensions><gpxtpx:TrackPointExtension><gpxtpx:atemp>3.9</gpxtpx:atemp></gpxtpx:TrackPointExtension></extensions></trkpt><trkpt lat="42.1832574997" lon="13.3895115461"><ele>2024.90</ele><time>2026-03-11T14:30:16Z</time><extensions><gpxtpx:TrackPointExtension><gpxtpx:atemp>3.9</gpxtpx:atemp></gpxtpx:TrackPointExtension></extensions></trkpt><trkpt lat="42.1832585894" lon="13.3895174973"><ele>2024.78</ele><time>2026-03-11T14:30:17Z</time><extensions><gpxtpx:TrackPointExtension><gpxtpx:atemp>3.9</gpxtpx:atemp></gpxtpx:TrackPointExtension></extensions></trkpt><trkpt lat="42.1832637861" lon="13.3895269688"><ele>2024.63</ele><time>2026-03-11T14:30:18Z</time><extensions><gpxtpx:TrackPointExtension><gpxtpx:atemp>3.9</gpxtpx:atemp></gpxtpx:TrackPointExtension></extensions></trkpt><trkpt lat="42.1832751855" lon="13.3895392902"><ele>2024.44</ele><time>2026-03-11T14:30:19Z</time><extensions><gpxtpx:TrackPointExtension><gpxtpx:atemp>3.9</gpxtpx:atemp></gpxtpx:TrackPointExtension></extensions></trkpt><trkpt lat="42.1832923684" lon="13.3895510249"><ele>2024.24</ele><time>2026-03-11T14:30:20Z</time><extensions><gpxtpx:TrackPointExtension><gpxtpx:atemp>3.9</gpxtpx:atemp></gpxtpx:TrackPointExtension></extensions></trkpt><trkpt lat="42.1833129879" lon="13.3895613346"><ele>2024.06</ele><time>2026-03-11T14:30:21Z</time><extensions><gpxtpx:TrackPointExtension><gpxtpx:atemp>3.9</gpxtpx:atemp></gpxtpx:TrackPointExtension></extensions></trkpt><trkpt lat="42.1833336912" lon="13.3895714767"><ele>2023.87</ele><time>2026-03-11T14:30:22Z</time><extensions><gpxtpx:TrackPointExtension><gpxtpx:atemp>3.9</gpxtpx:atemp></gpxtpx:TrackPointExtension></extensions></trkpt><trkpt lat="42.1833520476" lon="13.3895829599"><ele>2023.64</ele><time>2026-03-11T14:30:23Z</time><extensions><gpxtpx:TrackPointExtension><gpxtpx:atemp>3.9</gpxtpx:atemp></gpxtpx:TrackPointExtension></extensions></trkpt><trkpt lat="42.1833658777" lon="13.3895974606"><ele>2023.40</ele><time>2026-03-11T14:30:24Z</time><extensions><gpxtpx:TrackPointExtension><gpxtpx:atemp>3.9</gpxtpx:atemp></gpxtpx:TrackPointExtension></extensions></trkpt><trkpt lat="42.1833757684" lon="13.3896154817"><ele>2023.13</ele><time>2026-03-11T14:30:25Z</time><extensions><gpxtpx:TrackPointExtension><gpxtpx:atemp>3.9</gpxtpx:atemp></gpxtpx:TrackPointExtension></extensions></trkpt><trkpt lat="42.1833831444" lon="13.3896350954"><ele>2022.57</ele><time>2026-03-11T14:30:26Z</time><extensions><gpxtpx:TrackPointExtension><gpxtpx:atemp>3.9</gpxtpx:atemp></gpxtpx:TrackPointExtension></extensions></trkpt><trkpt lat="42.1833899338" lon="13.3896540385"><ele>2022.25</ele><time>2026-03-11T14:30:27Z</time><extensions><gpxtpx:TrackPointExtension><gpxtpx:atemp>3.9</gpxtpx:atemp></gpxtpx:TrackPointExtension></extensions></trkpt><trkpt lat="42.1833966393" lon="13.3896695450"><ele>2021.93</ele><time>2026-03-11T14:30:28Z</time><extensions><gpxtpx:TrackPointExtension><gpxtpx:atemp>3.9</gpxtpx:atemp></gpxtpx:TrackPointExtension></extensions></trkpt><trkpt lat="42.1834043507" lon="13.3896824531"><ele>2021.64</ele><time>2026-03-11T14:30:29Z</time><extensions><gpxtpx:TrackPointExtension><gpxtpx:atemp>3.9</gpxtpx:atemp></gpxtpx:TrackPointExtension></extensions></trkpt><trkpt lat="42.1834141575" lon="13.3896944392"><ele>2021.36</ele><time>2026-03-11T14:30:30Z</time><extensions><gpxtpx:TrackPointExtension><gpxtpx:atemp>3.9</gpxtpx:atemp></gpxtpx:TrackPointExtension></extensions></trkpt><trkpt lat="42.1834265627" lon="13.3897081856"><ele>2021.10</ele><time>2026-03-11T14:30:31Z</time><extensions><gpxtpx:TrackPointExtension><gpxtpx:atemp>3.9</gpxtpx:atemp></gpxtpx:TrackPointExtension></extensions></trkpt><trkpt lat="42.1834411472" lon="13.3897246979"><ele>2020.84</ele><time>2026-03-11T14:30:32Z</time><extensions><gpxtpx:TrackPointExtension><gpxtpx:atemp>3.9</gpxtpx:atemp></gpxtpx:TrackPointExtension></extensions></trkpt><trkpt lat="42.1834556479" lon="13.3897425514"><ele>2020.61</ele><time>2026-03-11T14:30:33Z</time><extensions><gpxtpx:TrackPointExtension><gpxtpx:atemp>4.0</gpxtpx:atemp></gpxtpx:TrackPointExtension></extensions></trkpt><trkpt lat="42.1834681369" lon="13.3897603210"><ele>2020.40</ele><time>2026-03-11T14:30:34Z</time><extensions><gpxtpx:TrackPointExtension><gpxtpx:atemp>4.0</gpxtpx:atemp></gpxtpx:TrackPointExtension></extensions></trkpt><trkpt lat="42.1834773570" lon="13.3897759952"><ele>2020.17</ele><time>2026-03-11T14:30:35Z</time><extensions><gpxtpx:TrackPointExtension><gpxtpx:atemp>4.0</gpxtpx:atemp></gpxtpx:TrackPointExtension></extensions></trkpt><trkpt lat="42.1834841464" lon="13.3897891548"><ele>2019.96</ele><time>2026-03-11T14:30:36Z</time><extensions><gpxtpx:TrackPointExtension><gpxtpx:atemp>4.0</gpxtpx:atemp></gpxtpx:TrackPointExtension></extensions></trkpt><trkpt lat="42.1834895946" lon="13.3898006380"><ele>2019.77</ele><time>2026-03-11T14:30:37Z</time><extensions><gpxtpx:TrackPointExtension><gpxtpx:atemp>4.0</gpxtpx:atemp></gpxtpx:TrackPointExtension></extensions></trkpt><trkpt lat="42.1834946238" lon="13.3898115344"><ele>2019.44</ele><time>2026-03-11T14:30:38Z</time><extensions><gpxtpx:TrackPointExtension><gpxtpx:atemp>4.0</gpxtpx:atemp></gpxtpx:TrackPointExtension></extensions></trkpt><trkpt lat="42.1835000720" lon="13.3898234367"><ele>2019.30</ele><time>2026-03-11T14:30:39Z</time><extensions><gpxtpx:TrackPointExtension><gpxtpx:atemp>4.0</gpxtpx:atemp></gpxtpx:TrackPointExtension></extensions></trkpt><trkpt lat="42.1835066937" lon="13.3898370992"><ele>2019.18</ele><time>2026-03-11T14:30:40Z</time><extensions><gpxtpx:TrackPointExtension><gpxtpx:atemp>4.0</gpxtpx:atemp></gpxtpx:TrackPointExtension></extensions></trkpt><trkpt lat="42.1835143212" lon="13.3898527734"><ele>2019.10</ele><time>2026-03-11T14:30:41Z</time><extensions><gpxtpx:TrackPointExtension><gpxtpx:atemp>4.0</gpxtpx:atemp></gpxtpx:TrackPointExtension></extensions></trkpt><trkpt lat="42.1835224517" lon="13.3898704592"><ele>2019.03</ele><time>2026-03-11T14:30:42Z</time><extensions><gpxtpx:TrackPointExtension><gpxtpx:atemp>4.0</gpxtpx:atemp></gpxtpx:TrackPointExtension></extensions></trkpt><trkpt lat="42.1835305821" lon="13.3898908272"><ele>2018.92</ele><time>2026-03-11T14:30:43Z</time><extensions><gpxtpx:TrackPointExtension><gpxtpx:atemp>4.0</gpxtpx:atemp></gpxtpx:TrackPointExtension></extensions></trkpt><trkpt lat="42.1835376229" lon="13.3899121173"><ele>2018.82</ele><time>2026-03-11T14:30:44Z</time><extensions><gpxtpx:TrackPointExtension><gpxtpx:atemp>4.0</gpxtpx:atemp></gpxtpx:TrackPointExtension></extensions></trkpt><trkpt lat="42.1835438255" lon="13.3899334911"><ele>2018.69</ele><time>2026-03-11T14:30:45Z</time><extensions><gpxtpx:TrackPointExtension><gpxtpx:atemp>4.0</gpxtpx:atemp></gpxtpx:TrackPointExtension></extensions></trkpt><trkpt lat="42.1835481841" lon="13.3899533562"><ele>2018.49</ele><time>2026-03-11T14:30:46Z</time><extensions><gpxtpx:TrackPointExtension><gpxtpx:atemp>4.0</gpxtpx:atemp></gpxtpx:TrackPointExtension></extensions></trkpt><trkpt lat="42.1835506987" lon="13.3899716288"><ele>2018.33</ele><time>2026-03-11T14:30:47Z</time><extensions><gpxtpx:TrackPointExtension><gpxtpx:atemp>4.0</gpxtpx:atemp></gpxtpx:TrackPointExtension></extensions></trkpt><trkpt lat="42.1835511178" lon="13.3899883926"><ele>2018.21</ele><time>2026-03-11T14:30:48Z</time><extensions><gpxtpx:TrackPointExtension><gpxtpx:atemp>4.0</gpxtpx:atemp></gpxtpx:TrackPointExtension></extensions></trkpt><trkpt lat="42.1835516207" lon="13.3900034800"><ele>2017.98</ele><time>2026-03-11T14:30:49Z</time><extensions><gpxtpx:TrackPointExtension><gpxtpx:atemp>4.0</gpxtpx:atemp></gpxtpx:TrackPointExtension></extensions></trkpt><trkpt lat="42.1835532971" lon="13.3900185674"><ele>2017.83</ele><time>2026-03-11T14:30:50Z</time><extensions><gpxtpx:TrackPointExtension><gpxtpx:atemp>4.0</gpxtpx:atemp></gpxtpx:TrackPointExtension></extensions></trkpt><trkpt lat="42.1835565660" lon="13.3900334872"><ele>2017.67</ele><time>2026-03-11T14:30:51Z</time><extensions><gpxtpx:TrackPointExtension><gpxtpx:atemp>4.0</gpxtpx:atemp></gpxtpx:TrackPointExtension></extensions></trkpt><trkpt lat="42.1835613437" lon="13.3900486585"><ele>2017.53</ele><time>2026-03-11T14:30:52Z</time><extensions><gpxtpx:TrackPointExtension><gpxtpx:atemp>4.0</gpxtpx:atemp></gpxtpx:TrackPointExtension></extensions></trkpt><trkpt lat="42.1835676301" lon="13.3900630753"><ele>2017.39</ele><time>2026-03-11T14:30:53Z</time><extensions><gpxtpx:TrackPointExtension><gpxtpx:atemp>4.0</gpxtpx:atemp></gpxtpx:TrackPointExtension></extensions></trkpt><trkpt lat="42.1835761797" lon="13.3900765702"><ele>2017.23</ele><time>2026-03-11T14:30:54Z</time><extensions><gpxtpx:TrackPointExtension><gpxtpx:atemp>4.0</gpxtpx:atemp></gpxtpx:TrackPointExtension></extensions></trkpt><trkpt lat="42.1835869923" lon="13.3900888916"><ele>2017.06</ele><time>2026-03-11T14:30:55Z</time><extensions><gpxtpx:TrackPointExtension><gpxtpx:atemp>4.0</gpxtpx:atemp></gpxtpx:TrackPointExtension></extensions></trkpt><trkpt lat="42.1835989784" lon="13.3900995366"><ele>2016.90</ele><time>2026-03-11T14:30:56Z</time><extensions><gpxtpx:TrackPointExtension><gpxtpx:atemp>4.0</gpxtpx:atemp></gpxtpx:TrackPointExtension></extensions></trkpt><trkpt lat="42.1836111322" lon="13.3901084214"><ele>2016.74</ele><time>2026-03-11T14:30:57Z</time><extensions><gpxtpx:TrackPointExtension><gpxtpx:atemp>4.0</gpxtpx:atemp></gpxtpx:TrackPointExtension></extensions></trkpt><trkpt lat="42.1836235374" lon="13.3901165519"><ele>2016.54</ele><time>2026-03-11T14:30:58Z</time><extensions><gpxtpx:TrackPointExtension><gpxtpx:atemp>4.0</gpxtpx:atemp></gpxtpx:TrackPointExtension></extensions></trkpt><trkpt lat="42.1836369485" lon="13.3901258558"><ele>2016.33</ele><time>2026-03-11T14:30:59Z</time><extensions><gpxtpx:TrackPointExtension><gpxtpx:atemp>4.0</gpxtpx:atemp></gpxtpx:TrackPointExtension></extensions></trkpt><trkpt lat="42.1836517844" lon="13.3901357464"><ele>2016.11</ele><time>2026-03-11T14:31:00Z</time><extensions><gpxtpx:TrackPointExtension><gpxtpx:atemp>4.0</gpxtpx:atemp></gpxtpx:TrackPointExtension></extensions></trkpt><trkpt lat="42.1836668719" lon="13.3901441284"><ele>2015.74</ele><time>2026-03-11T14:31:01Z</time><extensions><gpxtpx:TrackPointExtension><gpxtpx:atemp>4.0</gpxtpx:atemp></gpxtpx:TrackPointExtension></extensions></trkpt><trkpt lat="42.1836815402" lon="13.3901494928"><ele>2015.51</ele><time>2026-03-11T14:31:02Z</time><extensions><gpxtpx:TrackPointExtension><gpxtpx:atemp>4.0</gpxtpx:atemp></gpxtpx:TrackPointExtension></extensions></trkpt><trkpt lat="42.1836969629" lon="13.3901516721"><ele>2015.29</ele><time>2026-03-11T14:31:03Z</time><extensions><gpxtpx:TrackPointExtension><gpxtpx:atemp>4.0</gpxtpx:atemp></gpxtpx:TrackPointExtension></extensions></trkpt><trkpt lat="42.1837144811" lon="13.3901521750"><ele>2015.14</ele><time>2026-03-11T14:31:04Z</time><extensions><gpxtpx:TrackPointExtension><gpxtpx:atemp>4.0</gpxtpx:atemp></gpxtpx:TrackPointExtension></extensions></trkpt><trkpt lat="42.1837337594" lon="13.3901526779"><ele>2014.97</ele><time>2026-03-11T14:31:05Z</time><extensions><gpxtpx:TrackPointExtension><gpxtpx:atemp>4.0</gpxtpx:atemp></gpxtpx:TrackPointExtension></extensions></trkpt><trkpt lat="42.1837532893" lon="13.3901541866"><ele>2014.75</ele><time>2026-03-11T14:31:06Z</time><extensions><gpxtpx:TrackPointExtension><gpxtpx:atemp>4.0</gpxtpx:atemp></gpxtpx:TrackPointExtension></extensions></trkpt><trkpt lat="42.1837705560" lon="13.3901567850"><ele>2014.54</ele><time>2026-03-11T14:31:07Z</time><extensions><gpxtpx:TrackPointExtension><gpxtpx:atemp>4.0</gpxtpx:atemp></gpxtpx:TrackPointExtension></extensions></trkpt><trkpt lat="42.1837850567" lon="13.3901588805"><ele>2014.32</ele><time>2026-03-11T14:31:08Z</time><extensions><gpxtpx:TrackPointExtension><gpxtpx:atemp>4.0</gpxtpx:atemp></gpxtpx:TrackPointExtension></extensions></trkpt><trkpt lat="42.1837970428" lon="13.3901607245"><ele>2014.11</ele><time>2026-03-11T14:31:09Z</time><extensions><gpxtpx:TrackPointExtension><gpxtpx:atemp>4.0</gpxtpx:atemp></gpxtpx:TrackPointExtension></extensions></trkpt><trkpt lat="42.1838072687" lon="13.3901620656"><ele>2013.88</ele><time>2026-03-11T14:31:10Z</time><extensions><gpxtpx:TrackPointExtension><gpxtpx:atemp>4.0</gpxtpx:atemp></gpxtpx:TrackPointExtension></extensions></trkpt><trkpt lat="42.1838163212" lon="13.3901631553"><ele>2013.67</ele><time>2026-03-11T14:31:11Z</time><extensions><gpxtpx:TrackPointExtension><gpxtpx:atemp>4.0</gpxtpx:atemp></gpxtpx:TrackPointExtension></extensions></trkpt><trkpt lat="42.1838239487" lon="13.3901640773"><ele>2013.50</ele><time>2026-03-11T14:31:12Z</time><extensions><gpxtpx:TrackPointExtension><gpxtpx:atemp>4.0</gpxtpx:atemp></gpxtpx:TrackPointExtension></extensions></trkpt><trkpt lat="42.1838294808" lon="13.3901646640"><ele>2013.29</ele><time>2026-03-11T14:31:13Z</time><extensions><gpxtpx:TrackPointExtension><gpxtpx:atemp>4.0</gpxtpx:atemp></gpxtpx:TrackPointExtension></extensions></trkpt><trkpt lat="42.1838320792" lon="13.3901649993"><ele>2013.22</ele><time>2026-03-11T14:31:14Z</time><extensions><gpxtpx:TrackPointExtension><gpxtpx:atemp>4.0</gpxtpx:atemp></gpxtpx:TrackPointExtension></extensions></trkpt><trkpt lat="42.1838334203" lon="13.3901649993"><ele>2013.15</ele><time>2026-03-11T14:31:15Z</time><extensions><gpxtpx:TrackPointExtension><gpxtpx:atemp>4.0</gpxtpx:atemp></gpxtpx:TrackPointExtension></extensions></trkpt><trkpt lat="42.1838347614" lon="13.3901654184"><ele>2013.07</ele><time>2026-03-11T14:31:16Z</time><extensions><gpxtpx:TrackPointExtension><gpxtpx:atemp>4.0</gpxtpx:atemp></gpxtpx:TrackPointExtension></extensions></trkpt><trkpt lat="42.1838370245" lon="13.3901662566"><ele>2013.03</ele><time>2026-03-11T14:31:17Z</time><extensions><gpxtpx:TrackPointExtension><gpxtpx:atemp>4.0</gpxtpx:atemp></gpxtpx:TrackPointExtension></extensions></trkpt><trkpt lat="42.1838425566" lon="13.3901684359"><ele>2012.98</ele><time>2026-03-11T14:31:18Z</time><extensions><gpxtpx:TrackPointExtension><gpxtpx:atemp>4.0</gpxtpx:atemp></gpxtpx:TrackPointExtension></extensions></trkpt><trkpt lat="42.1838505194" lon="13.3901719563"><ele>2012.91</ele><time>2026-03-11T14:31:19Z</time><extensions><gpxtpx:TrackPointExtension><gpxtpx:atemp>4.0</gpxtpx:atemp></gpxtpx:TrackPointExtension></extensions></trkpt><trkpt lat="42.1838609967" lon="13.3901759796"><ele>2012.83</ele><time>2026-03-11T14:31:20Z</time><extensions><gpxtpx:TrackPointExtension><gpxtpx:atemp>4.0</gpxtpx:atemp></gpxtpx:TrackPointExtension></extensions></trkpt><trkpt lat="42.1838706359" lon="13.3901795000"><ele>2012.76</ele><time>2026-03-11T14:31:21Z</time><extensions><gpxtpx:TrackPointExtension><gpxtpx:atemp>4.0</gpxtpx:atemp></gpxtpx:TrackPointExtension></extensions></trkpt><trkpt lat="42.1838806942" lon="13.3901824336"><ele>2012.70</ele><time>2026-03-11T14:31:22Z</time><extensions><gpxtpx:TrackPointExtension><gpxtpx:atemp>4.0</gpxtpx:atemp></gpxtpx:TrackPointExtension></extensions></trkpt><trkpt lat="42.1838912554" lon="13.3901854511"><ele>2012.64</ele><time>2026-03-11T14:31:23Z</time><extensions><gpxtpx:TrackPointExtension><gpxtpx:atemp>4.0</gpxtpx:atemp></gpxtpx:TrackPointExtension></extensions></trkpt><trkpt lat="42.1839023195" lon="13.3901878819"><ele>2012.58</ele><time>2026-03-11T14:31:24Z</time><extensions><gpxtpx:TrackPointExtension><gpxtpx:atemp>4.0</gpxtpx:atemp></gpxtpx:TrackPointExtension></extensions></trkpt><trkpt lat="42.1839131322" lon="13.3901905641"><ele>2012.54</ele><time>2026-03-11T14:31:25Z</time><extensions><gpxtpx:TrackPointExtension><gpxtpx:atemp>4.0</gpxtpx:atemp></gpxtpx:TrackPointExtension></extensions></trkpt><trkpt lat="42.1839235257" lon="13.3901937492"><ele>2012.52</ele><time>2026-03-11T14:31:26Z</time><extensions><gpxtpx:TrackPointExtension><gpxtpx:atemp>4.0</gpxtpx:atemp></gpxtpx:TrackPointExtension></extensions></trkpt><trkpt lat="42.1839331649" lon="13.3901966829"><ele>2012.49</ele><time>2026-03-11T14:31:27Z</time><extensions><gpxtpx:TrackPointExtension><gpxtpx:atemp>4.0</gpxtpx:atemp></gpxtpx:TrackPointExtension></extensions></trkpt><trkpt lat="42.1839415468" lon="13.3901988622"><ele>2012.45</ele><time>2026-03-11T14:31:28Z</time><extensions><gpxtpx:TrackPointExtension><gpxtpx:atemp>4.0</gpxtpx:atemp></gpxtpx:TrackPointExtension></extensions></trkpt><trkpt lat="42.1839487553" lon="13.3901995327"><ele>2012.44</ele><time>2026-03-11T14:31:29Z</time><extensions><gpxtpx:TrackPointExtension><gpxtpx:atemp>4.0</gpxtpx:atemp></gpxtpx:TrackPointExtension></extensions></trkpt><trkpt lat="42.1839550417" lon="13.3902007900"><ele>2012.43</ele><time>2026-03-11T14:31:30Z</time><extensions><gpxtpx:TrackPointExtension><gpxtpx:atemp>4.0</gpxtpx:atemp></gpxtpx:TrackPointExtension></extensions></trkpt><trkpt lat="42.1839612443" lon="13.3902018797"><ele>2012.43</ele><time>2026-03-11T14:31:31Z</time><extensions><gpxtpx:TrackPointExtension><gpxtpx:atemp>4.0</gpxtpx:atemp></gpxtpx:TrackPointExtension></extensions></trkpt><trkpt lat="42.1839677822" lon="13.3902030531"><ele>2012.44</ele><time>2026-03-11T14:31:32Z</time><extensions><gpxtpx:TrackPointExtension><gpxtpx:atemp>4.0</gpxtpx:atemp></gpxtpx:TrackPointExtension></extensions></trkpt><trkpt lat="42.1839723922" lon="13.3902031370"><ele>2012.45</ele><time>2026-03-11T14:31:33Z</time><extensions><gpxtpx:TrackPointExtension><gpxtpx:atemp>4.1</gpxtpx:atemp></gpxtpx:TrackPointExtension></extensions></trkpt><trkpt lat="42.1839760803" lon="13.3902033884"><ele>2012.48</ele><time>2026-03-11T14:31:34Z</time><extensions><gpxtpx:TrackPointExtension><gpxtpx:atemp>4.1</gpxtpx:atemp></gpxtpx:TrackPointExtension></extensions></trkpt><trkpt lat="42.1839777566" lon="13.3902047295"><ele>2012.57</ele><time>2026-03-11T14:31:35Z</time><extensions><gpxtpx:TrackPointExtension><gpxtpx:atemp>4.1</gpxtpx:atemp></gpxtpx:TrackPointExtension></extensions></trkpt><trkpt lat="42.1839789301" lon="13.3902070764"><ele>2012.63</ele><time>2026-03-11T14:31:36Z</time><extensions><gpxtpx:TrackPointExtension><gpxtpx:atemp>4.1</gpxtpx:atemp></gpxtpx:TrackPointExtension></extensions></trkpt><trkpt lat="42.1839803550" lon="13.3902072441"><ele>2012.68</ele><time>2026-03-11T14:31:37Z</time><extensions><gpxtpx:TrackPointExtension><gpxtpx:atemp>4.1</gpxtpx:atemp></gpxtpx:TrackPointExtension></extensions></trkpt><trkpt lat="42.1839822829" lon="13.3902076632"><ele>2012.75</ele><time>2026-03-11T14:31:38Z</time><extensions><gpxtpx:TrackPointExtension><gpxtpx:atemp>4.1</gpxtpx:atemp></gpxtpx:TrackPointExtension></extensions></trkpt><trkpt lat="42.1839855518" lon="13.3902077470"><ele>2012.84</ele><time>2026-03-11T14:31:39Z</time><extensions><gpxtpx:TrackPointExtension><gpxtpx:atemp>4.1</gpxtpx:atemp></gpxtpx:TrackPointExtension></extensions></trkpt><trkpt lat="42.1839889884" lon="13.3902084175"><ele>2012.92</ele><time>2026-03-11T14:31:40Z</time><extensions><gpxtpx:TrackPointExtension><gpxtpx:atemp>4.1</gpxtpx:atemp></gpxtpx:TrackPointExtension></extensions></trkpt><trkpt lat="42.1839904971" lon="13.3902067412"><ele>2012.96</ele><time>2026-03-11T14:31:41Z</time><extensions><gpxtpx:TrackPointExtension><gpxtpx:atemp>4.1</gpxtpx:atemp></gpxtpx:TrackPointExtension></extensions></trkpt><trkpt lat="42.1839911677" lon="13.3902031370"><ele>2012.99</ele><time>2026-03-11T14:31:42Z</time><extensions><gpxtpx:TrackPointExtension><gpxtpx:atemp>4.1</gpxtpx:atemp></gpxtpx:TrackPointExtension></extensions></trkpt><trkpt lat="42.1839898266" lon="13.3902005386"><ele>2013.03</ele><time>2026-03-11T14:31:43Z</time><extensions><gpxtpx:TrackPointExtension><gpxtpx:atemp>4.1</gpxtpx:atemp></gpxtpx:TrackPointExtension></extensions></trkpt><trkpt lat="42.1839888208" lon="13.3901991975"><ele>2013.05</ele><time>2026-03-11T14:31:44Z</time><extensions><gpxtpx:TrackPointExtension><gpxtpx:atemp>4.1</gpxtpx:atemp></gpxtpx:TrackPointExtension></extensions></trkpt><trkpt lat="42.1839870606" lon="13.3901991975"><ele>2013.05</ele><time>2026-03-11T14:31:45Z</time><extensions><gpxtpx:TrackPointExtension><gpxtpx:atemp>4.1</gpxtpx:atemp></gpxtpx:TrackPointExtension></extensions></trkpt><trkpt lat="42.1839868929" lon="13.3901999518"><ele>2013.09</ele><time>2026-03-11T14:31:46Z</time><extensions><gpxtpx:TrackPointExtension><gpxtpx:atemp>4.1</gpxtpx:atemp></gpxtpx:TrackPointExtension></extensions></trkpt><trkpt lat="42.1839887369" lon="13.3902008738"><ele>2013.16</ele><time>2026-03-11T14:31:47Z</time><extensions><gpxtpx:TrackPointExtension><gpxtpx:atemp>4.1</gpxtpx:atemp></gpxtpx:TrackPointExtension></extensions></trkpt><trkpt lat="42.1839927603" lon="13.3902026340"><ele>2013.17</ele><time>2026-03-11T14:31:48Z</time><extensions><gpxtpx:TrackPointExtension><gpxtpx:atemp>4.1</gpxtpx:atemp></gpxtpx:TrackPointExtension></extensions></trkpt><trkpt lat="42.1839972865" lon="13.3902034722"><ele>2013.18</ele><time>2026-03-11T14:31:49Z</time><extensions><gpxtpx:TrackPointExtension><gpxtpx:atemp>4.1</gpxtpx:atemp></gpxtpx:TrackPointExtension></extensions></trkpt><trkpt lat="42.1840019803" lon="13.3902046457"><ele>2013.18</ele><time>2026-03-11T14:31:50Z</time><extensions><gpxtpx:TrackPointExtension><gpxtpx:atemp>4.1</gpxtpx:atemp></gpxtpx:TrackPointExtension></extensions></trkpt><trkpt lat="42.1840062551" lon="13.3902061544"><ele>2013.19</ele><time>2026-03-11T14:31:51Z</time><extensions><gpxtpx:TrackPointExtension><gpxtpx:atemp>4.1</gpxtpx:atemp></gpxtpx:TrackPointExtension></extensions></trkpt><trkpt lat="42.1840129606" lon="13.3902081661"><ele>2013.19</ele><time>2026-03-11T14:31:52Z</time><extensions><gpxtpx:TrackPointExtension><gpxtpx:atemp>4.1</gpxtpx:atemp></gpxtpx:TrackPointExtension></extensions></trkpt><trkpt lat="42.1840208396" lon="13.3902103454"><ele>2013.18</ele><time>2026-03-11T14:31:53Z</time><extensions><gpxtpx:TrackPointExtension><gpxtpx:atemp>4.1</gpxtpx:atemp></gpxtpx:TrackPointExtension></extensions></trkpt><trkpt lat="42.1840306465" lon="13.3902120218"><ele>2013.16</ele><time>2026-03-11T14:31:54Z</time><extensions><gpxtpx:TrackPointExtension><gpxtpx:atemp>4.1</gpxtpx:atemp></gpxtpx:TrackPointExtension></extensions></trkpt><trkpt lat="42.1840404533" lon="13.3902147878"><ele>2013.15</ele><time>2026-03-11T14:31:55Z</time><extensions><gpxtpx:TrackPointExtension><gpxtpx:atemp>4.1</gpxtpx:atemp></gpxtpx:TrackPointExtension></extensions></trkpt><trkpt lat="42.1840505954" lon="13.3902179729"><ele>2013.13</ele><time>2026-03-11T14:31:56Z</time><extensions><gpxtpx:TrackPointExtension><gpxtpx:atemp>4.1</gpxtpx:atemp></gpxtpx:TrackPointExtension></extensions></trkpt><trkpt lat="42.1840610728" lon="13.3902223315"><ele>2013.11</ele><time>2026-03-11T14:31:57Z</time><extensions><gpxtpx:TrackPointExtension><gpxtpx:atemp>4.1</gpxtpx:atemp></gpxtpx:TrackPointExtension></extensions></trkpt><trkpt lat="42.1840714663" lon="13.3902265225"><ele>2013.03</ele><time>2026-03-11T14:31:58Z</time><extensions><gpxtpx:TrackPointExtension><gpxtpx:atemp>4.1</gpxtpx:atemp></gpxtpx:TrackPointExtension></extensions></trkpt><trkpt lat="42.1840833686" lon="13.3902311325"><ele>2012.97</ele><time>2026-03-11T14:31:59Z</time><extensions><gpxtpx:TrackPointExtension><gpxtpx:atemp>4.1</gpxtpx:atemp></gpxtpx:TrackPointExtension></extensions></trkpt><trkpt lat="42.1840960253" lon="13.3902365807"><ele>2012.91</ele><time>2026-03-11T14:32:00Z</time><extensions><gpxtpx:TrackPointExtension><gpxtpx:atemp>4.1</gpxtpx:atemp></gpxtpx:TrackPointExtension></extensions></trkpt><trkpt lat="42.1841095202" lon="13.3902430348"><ele>2012.82</ele><time>2026-03-11T14:32:01Z</time><extensions><gpxtpx:TrackPointExtension><gpxtpx:atemp>4.1</gpxtpx:atemp></gpxtpx:TrackPointExtension></extensions></trkpt><trkpt lat="42.1841238532" lon="13.3902523387"><ele>2012.75</ele><time>2026-03-11T14:32:02Z</time><extensions><gpxtpx:TrackPointExtension><gpxtpx:atemp>4.1</gpxtpx:atemp></gpxtpx:TrackPointExtension></extensions></trkpt><trkpt lat="42.1841385216" lon="13.3902626485"><ele>2012.70</ele><time>2026-03-11T14:32:03Z</time><extensions><gpxtpx:TrackPointExtension><gpxtpx:atemp>4.1</gpxtpx:atemp></gpxtpx:TrackPointExtension></extensions></trkpt><trkpt lat="42.1841543633" lon="13.3902736288"><ele>2012.65</ele><time>2026-03-11T14:32:04Z</time><extensions><gpxtpx:TrackPointExtension><gpxtpx:atemp>4.1</gpxtpx:atemp></gpxtpx:TrackPointExtension></extensions></trkpt><trkpt lat="42.1841706242" lon="13.3902812563"><ele>2012.59</ele><time>2026-03-11T14:32:05Z</time><extensions><gpxtpx:TrackPointExtension><gpxtpx:atemp>4.1</gpxtpx:atemp></gpxtpx:TrackPointExtension></extensions></trkpt><trkpt lat="42.1841872204" lon="13.3902846929"><ele>2012.55</ele><time>2026-03-11T14:32:06Z</time><extensions><gpxtpx:TrackPointExtension><gpxtpx:atemp>4.1</gpxtpx:atemp></gpxtpx:TrackPointExtension></extensions></trkpt><trkpt lat="42.1842022240" lon="13.3902845252"><ele>2012.50</ele><time>2026-03-11T14:32:07Z</time><extensions><gpxtpx:TrackPointExtension><gpxtpx:atemp>4.1</gpxtpx:atemp></gpxtpx:TrackPointExtension></extensions></trkpt><trkpt lat="42.1842120308" lon="13.3902835194"><ele>2012.43</ele><time>2026-03-11T14:32:08Z</time><extensions><gpxtpx:TrackPointExtension><gpxtpx:atemp>4.1</gpxtpx:atemp></gpxtpx:TrackPointExtension></extensions></trkpt><trkpt lat="42.1842171438" lon="13.3902830165"><ele>2012.35</ele><time>2026-03-11T14:32:09Z</time><extensions><gpxtpx:TrackPointExtension><gpxtpx:atemp>4.1</gpxtpx:atemp></gpxtpx:TrackPointExtension></extensions></trkpt><trkpt lat="42.1842189878" lon="13.3902831841"><ele>2012.16</ele><time>2026-03-11T14:32:10Z</time><extensions><gpxtpx:TrackPointExtension><gpxtpx:atemp>4.1</gpxtpx:atemp></gpxtpx:TrackPointExtension></extensions></trkpt><trkpt lat="42.1842204966" lon="13.3902825974"><ele>2012.08</ele><time>2026-03-11T14:32:11Z</time><extensions><gpxtpx:TrackPointExtension><gpxtpx:atemp>4.1</gpxtpx:atemp></gpxtpx:TrackPointExtension></extensions></trkpt><trkpt lat="42.1842224244" lon="13.3902826812"><ele>2012.04</ele><time>2026-03-11T14:32:12Z</time><extensions><gpxtpx:TrackPointExtension><gpxtpx:atemp>4.1</gpxtpx:atemp></gpxtpx:TrackPointExtension></extensions></trkpt><trkpt lat="42.1842253581" lon="13.3902833518"><ele>2012.02</ele><time>2026-03-11T14:32:13Z</time><extensions><gpxtpx:TrackPointExtension><gpxtpx:atemp>4.1</gpxtpx:atemp></gpxtpx:TrackPointExtension></extensions></trkpt><trkpt lat="42.1842304710" lon="13.3902847767"><ele>2012.02</ele><time>2026-03-11T14:32:14Z</time><extensions><gpxtpx:TrackPointExtension><gpxtpx:atemp>4.1</gpxtpx:atemp></gpxtpx:TrackPointExtension></extensions></trkpt><trkpt lat="42.1842367575" lon="13.3902873751"><ele>2012.02</ele><time>2026-03-11T14:32:15Z</time><extensions><gpxtpx:TrackPointExtension><gpxtpx:atemp>4.1</gpxtpx:atemp></gpxtpx:TrackPointExtension></extensions></trkpt><trkpt lat="42.1842430439" lon="13.3902905602"><ele>2012.03</ele><time>2026-03-11T14:32:16Z</time><extensions><gpxtpx:TrackPointExtension><gpxtpx:atemp>4.1</gpxtpx:atemp></gpxtpx:TrackPointExtension></extensions></trkpt><trkpt lat="42.1842475701" lon="13.3902935777"><ele>2012.05</ele><time>2026-03-11T14:32:17Z</time><extensions><gpxtpx:TrackPointExtension><gpxtpx:atemp>4.1</gpxtpx:atemp></gpxtpx:TrackPointExtension></extensions></trkpt><trkpt lat="42.1842512581" lon="13.3902943321"><ele>2012.09</ele><time>2026-03-11T14:32:18Z</time><extensions><gpxtpx:TrackPointExtension><gpxtpx:atemp>4.1</gpxtpx:atemp></gpxtpx:TrackPointExtension></extensions></trkpt><trkpt lat="42.1842557844" lon="13.3902920689"><ele>2012.18</ele><time>2026-03-11T14:32:19Z</time><extensions><gpxtpx:TrackPointExtension><gpxtpx:atemp>4.1</gpxtpx:atemp></gpxtpx:TrackPointExtension></extensions></trkpt><trkpt lat="42.1842598915" lon="13.3902900573"><ele>2012.26</ele><time>2026-03-11T14:32:20Z</time><extensions><gpxtpx:TrackPointExtension><gpxtpx:atemp>4.1</gpxtpx:atemp></gpxtpx:TrackPointExtension></extensions></trkpt><trkpt lat="42.1842634957" lon="13.3902884647"><ele>2012.33</ele><time>2026-03-11T14:32:21Z</time><extensions><gpxtpx:TrackPointExtension><gpxtpx:atemp>4.1</gpxtpx:atemp></gpxtpx:TrackPointExtension></extensions></trkpt><trkpt lat="42.1842646692" lon="13.3902896382"><ele>2012.35</ele><time>2026-03-11T14:32:22Z</time><extensions><gpxtpx:TrackPointExtension><gpxtpx:atemp>4.1</gpxtpx:atemp></gpxtpx:TrackPointExtension></extensions></trkpt><trkpt lat="42.1842650883" lon="13.3902902249"><ele>2012.35</ele><time>2026-03-11T14:32:23Z</time><extensions><gpxtpx:TrackPointExtension><gpxtpx:atemp>4.1</gpxtpx:atemp></gpxtpx:TrackPointExtension></extensions></trkpt><trkpt lat="42.1842646692" lon="13.3902914822"><ele>2012.36</ele><time>2026-03-11T14:32:24Z</time><extensions><gpxtpx:TrackPointExtension><gpxtpx:atemp>4.1</gpxtpx:atemp></gpxtpx:TrackPointExtension></extensions></trkpt><trkpt lat="42.1842643339" lon="13.3902913984"><ele>2012.37</ele><time>2026-03-11T14:32:25Z</time><extensions><gpxtpx:TrackPointExtension><gpxtpx:atemp>4.1</gpxtpx:atemp></gpxtpx:TrackPointExtension></extensions></trkpt><trkpt lat="42.1842645854" lon="13.3902909793"><ele>2012.37</ele><time>2026-03-11T14:32:26Z</time><extensions><gpxtpx:TrackPointExtension><gpxtpx:atemp>4.1</gpxtpx:atemp></gpxtpx:TrackPointExtension></extensions></trkpt><trkpt lat="42.1842639986" lon="13.3902904764"><ele>2012.38</ele><time>2026-03-11T14:32:27Z</time><extensions><gpxtpx:TrackPointExtension><gpxtpx:atemp>4.1</gpxtpx:atemp></gpxtpx:TrackPointExtension></extensions></trkpt><trkpt lat="42.1842634957" lon="13.3902903926"><ele>2012.42</ele><time>2026-03-11T14:32:28Z</time><extensions><gpxtpx:TrackPointExtension><gpxtpx:atemp>4.1</gpxtpx:atemp></gpxtpx:TrackPointExtension></extensions></trkpt><trkpt lat="42.1842630766" lon="13.3902904764"><ele>2012.42</ele><time>2026-03-11T14:32:29Z</time><extensions><gpxtpx:TrackPointExtension><gpxtpx:atemp>4.1</gpxtpx:atemp></gpxtpx:TrackPointExtension></extensions></trkpt><trkpt lat="42.1842636634" lon="13.3902904764"><ele>2012.42</ele><time>2026-03-11T14:32:30Z</time><extensions><gpxtpx:TrackPointExtension><gpxtpx:atemp>4.1</gpxtpx:atemp></gpxtpx:TrackPointExtension></extensions></trkpt><trkpt lat="42.1842639986" lon="13.3902904764"><ele>2012.42</ele><time>2026-03-11T14:32:31Z</time><extensions><gpxtpx:TrackPointExtension><gpxtpx:atemp>4.1</gpxtpx:atemp></gpxtpx:TrackPointExtension></extensions></trkpt><trkpt lat="42.1842637472" lon="13.3902906440"><ele>2012.43</ele><time>2026-03-11T14:32:32Z</time><extensions><gpxtpx:TrackPointExtension><gpxtpx:atemp>4.1</gpxtpx:atemp></gpxtpx:TrackPointExtension></extensions></trkpt><trkpt lat="42.1842628252" lon="13.3902909793"><ele>2012.43</ele><time>2026-03-11T14:32:33Z</time><extensions><gpxtpx:TrackPointExtension><gpxtpx:atemp>4.0</gpxtpx:atemp></gpxtpx:TrackPointExtension></extensions></trkpt><trkpt lat="42.1842625737" lon="13.3902905602"><ele>2012.43</ele><time>2026-03-11T14:32:34Z</time><extensions><gpxtpx:TrackPointExtension><gpxtpx:atemp>4.0</gpxtpx:atemp></gpxtpx:TrackPointExtension></extensions></trkpt><trkpt lat="42.1842629928" lon="13.3902906440"><ele>2012.41</ele><time>2026-03-11T14:32:35Z</time><extensions><gpxtpx:TrackPointExtension><gpxtpx:atemp>4.0</gpxtpx:atemp></gpxtpx:TrackPointExtension></extensions></trkpt><trkpt lat="42.1842636634" lon="13.3902916498"><ele>2012.40</ele><time>2026-03-11T14:32:36Z</time><extensions><gpxtpx:TrackPointExtension><gpxtpx:atemp>4.0</gpxtpx:atemp></gpxtpx:TrackPointExtension></extensions></trkpt><trkpt lat="42.1842645854" lon="13.3902930748"><ele>2012.40</ele><time>2026-03-11T14:32:37Z</time><extensions><gpxtpx:TrackPointExtension><gpxtpx:atemp>4.0</gpxtpx:atemp></gpxtpx:TrackPointExtension></extensions></trkpt><trkpt lat="42.1842652559" lon="13.3902954217"><ele>2012.39</ele><time>2026-03-11T14:32:38Z</time><extensions><gpxtpx:TrackPointExtension><gpxtpx:atemp>4.0</gpxtpx:atemp></gpxtpx:TrackPointExtension></extensions></trkpt><trkpt lat="42.1842655912" lon="13.3902992774"><ele>2012.38</ele><time>2026-03-11T14:32:39Z</time><extensions><gpxtpx:TrackPointExtension><gpxtpx:atemp>4.0</gpxtpx:atemp></gpxtpx:TrackPointExtension></extensions></trkpt><trkpt lat="42.1842639986" lon="13.3903063182"><ele>2012.34</ele><time>2026-03-11T14:32:40Z</time><extensions><gpxtpx:TrackPointExtension><gpxtpx:atemp>4.0</gpxtpx:atemp></gpxtpx:TrackPointExtension></extensions></trkpt><trkpt lat="42.1842593886" lon="13.3903149515"><ele>2012.24</ele><time>2026-03-11T14:32:41Z</time><extensions><gpxtpx:TrackPointExtension><gpxtpx:atemp>4.0</gpxtpx:atemp></gpxtpx:TrackPointExtension></extensions></trkpt><trkpt lat="42.1842517611" lon="13.3903240878"><ele>2012.15</ele><time>2026-03-11T14:32:42Z</time><extensions><gpxtpx:TrackPointExtension><gpxtpx:atemp>4.0</gpxtpx:atemp></gpxtpx:TrackPointExtension></extensions></trkpt><trkpt lat="42.1842410322" lon="13.3903333917"><ele>2012.07</ele><time>2026-03-11T14:32:43Z</time><extensions><gpxtpx:TrackPointExtension><gpxtpx:atemp>4.0</gpxtpx:atemp></gpxtpx:TrackPointExtension></extensions></trkpt><trkpt lat="42.1842282917" lon="13.3903440367"><ele>2012.01</ele><time>2026-03-11T14:32:44Z</time><extensions><gpxtpx:TrackPointExtension><gpxtpx:atemp>4.0</gpxtpx:atemp></gpxtpx:TrackPointExtension></extensions></trkpt><trkpt lat="42.1842167247" lon="13.3903546818"><ele>2011.82</ele><time>2026-03-11T14:32:45Z</time><extensions><gpxtpx:TrackPointExtension><gpxtpx:atemp>4.0</gpxtpx:atemp></gpxtpx:TrackPointExtension></extensions></trkpt><trkpt lat="42.1842090972" lon="13.3903621417"><ele>2011.71</ele><time>2026-03-11T14:32:46Z</time><extensions><gpxtpx:TrackPointExtension><gpxtpx:atemp>4.0</gpxtpx:atemp></gpxtpx:TrackPointExtension></extensions></trkpt><trkpt lat="42.1842068341" lon="13.3903671708"><ele>2011.61</ele><time>2026-03-11T14:32:47Z</time><extensions><gpxtpx:TrackPointExtension><gpxtpx:atemp>4.0</gpxtpx:atemp></gpxtpx:TrackPointExtension></extensions></trkpt><trkpt lat="42.1842068341" lon="13.3903723676"><ele>2011.52</ele><time>2026-03-11T14:32:48Z</time><extensions><gpxtpx:TrackPointExtension><gpxtpx:atemp>4.0</gpxtpx:atemp></gpxtpx:TrackPointExtension></extensions></trkpt><trkpt lat="42.1842082590" lon="13.3903805818"><ele>2011.46</ele><time>2026-03-11T14:32:49Z</time><extensions><gpxtpx:TrackPointExtension><gpxtpx:atemp>4.0</gpxtpx:atemp></gpxtpx:TrackPointExtension></extensions></trkpt><trkpt lat="42.1842102706" lon="13.3903922327"><ele>2011.38</ele><time>2026-03-11T14:32:50Z</time><extensions><gpxtpx:TrackPointExtension><gpxtpx:atemp>4.0</gpxtpx:atemp></gpxtpx:TrackPointExtension></extensions></trkpt><trkpt lat="42.1842133719" lon="13.3904070687"><ele>2011.28</ele><time>2026-03-11T14:32:51Z</time><extensions><gpxtpx:TrackPointExtension><gpxtpx:atemp>4.0</gpxtpx:atemp></gpxtpx:TrackPointExtension></extensions></trkpt><trkpt lat="42.1842175629" lon="13.3904260956"><ele>2011.17</ele><time>2026-03-11T14:32:52Z</time><extensions><gpxtpx:TrackPointExtension><gpxtpx:atemp>4.0</gpxtpx:atemp></gpxtpx:TrackPointExtension></extensions></trkpt><trkpt lat="42.1842228435" lon="13.3904481400"><ele>2011.07</ele><time>2026-03-11T14:32:53Z</time><extensions><gpxtpx:TrackPointExtension><gpxtpx:atemp>4.0</gpxtpx:atemp></gpxtpx:TrackPointExtension></extensions></trkpt><trkpt lat="42.1842280403" lon="13.3904713579"><ele>2010.96</ele><time>2026-03-11T14:32:54Z</time><extensions><gpxtpx:TrackPointExtension><gpxtpx:atemp>4.0</gpxtpx:atemp></gpxtpx:TrackPointExtension></extensions></trkpt><trkpt lat="42.1842321474" lon="13.3904938214"><ele>2010.86</ele><time>2026-03-11T14:32:55Z</time><extensions><gpxtpx:TrackPointExtension><gpxtpx:atemp>4.0</gpxtpx:atemp></gpxtpx:TrackPointExtension></extensions></trkpt><trkpt lat="42.1842341591" lon="13.3905132674"><ele>2010.50</ele><time>2026-03-11T14:32:56Z</time><extensions><gpxtpx:TrackPointExtension><gpxtpx:atemp>4.0</gpxtpx:atemp></gpxtpx:TrackPointExtension></extensions></trkpt><trkpt lat="42.1842352487" lon="13.3905296959"><ele>2010.28</ele><time>2026-03-11T14:32:57Z</time><extensions><gpxtpx:TrackPointExtension><gpxtpx:atemp>4.0</gpxtpx:atemp></gpxtpx:TrackPointExtension></extensions></trkpt><trkpt lat="42.1842368413" lon="13.3905425202"><ele>2010.12</ele><time>2026-03-11T14:32:58Z</time><extensions><gpxtpx:TrackPointExtension><gpxtpx:atemp>4.0</gpxtpx:atemp></gpxtpx:TrackPointExtension></extensions></trkpt><trkpt lat="42.1842434630" lon="13.3905523270"><ele>2009.97</ele><time>2026-03-11T14:32:59Z</time><extensions><gpxtpx:TrackPointExtension><gpxtpx:atemp>4.0</gpxtpx:atemp></gpxtpx:TrackPointExtension></extensions></trkpt><trkpt lat="42.1842558682" lon="13.3905523270"><ele>2009.81</ele><time>2026-03-11T14:33:00Z</time><extensions><gpxtpx:TrackPointExtension><gpxtpx:atemp>4.0</gpxtpx:atemp></gpxtpx:TrackPointExtension></extensions></trkpt><trkpt lat="42.1842697822" lon="13.3905427717"><ele>2009.64</ele><time>2026-03-11T14:33:01Z</time><extensions><gpxtpx:TrackPointExtension><gpxtpx:atemp>4.0</gpxtpx:atemp></gpxtpx:TrackPointExtension></extensions></trkpt><trkpt lat="42.1842807624" lon="13.3905261755"><ele>2009.45</ele><time>2026-03-11T14:33:02Z</time><extensions><gpxtpx:TrackPointExtension><gpxtpx:atemp>4.0</gpxtpx:atemp></gpxtpx:TrackPointExtension></extensions></trkpt><trkpt lat="42.1842861269" lon="13.3905108366"><ele>2009.21</ele><time>2026-03-11T14:33:03Z</time><extensions><gpxtpx:TrackPointExtension><gpxtpx:atemp>4.0</gpxtpx:atemp></gpxtpx:TrackPointExtension></extensions></trkpt><trkpt lat="42.1842895634" lon="13.3904997725"><ele>2008.93</ele><time>2026-03-11T14:33:04Z</time><extensions><gpxtpx:TrackPointExtension><gpxtpx:atemp>4.0</gpxtpx:atemp></gpxtpx:TrackPointExtension></extensions></trkpt><trkpt lat="42.1842917427" lon="13.3904927317"><ele>2008.66</ele><time>2026-03-11T14:33:05Z</time><extensions><gpxtpx:TrackPointExtension><gpxtpx:atemp>4.0</gpxtpx:atemp></gpxtpx:TrackPointExtension></extensions></trkpt><trkpt lat="42.1842959337" lon="13.3904875349"><ele>2008.43</ele><time>2026-03-11T14:33:06Z</time><extensions><gpxtpx:TrackPointExtension><gpxtpx:atemp>4.0</gpxtpx:atemp></gpxtpx:TrackPointExtension></extensions></trkpt><trkpt lat="42.1843054891" lon="13.3904860262"><ele>2008.24</ele><time>2026-03-11T14:33:07Z</time><extensions><gpxtpx:TrackPointExtension><gpxtpx:atemp>4.0</gpxtpx:atemp></gpxtpx:TrackPointExtension></extensions></trkpt><trkpt lat="42.1843178943" lon="13.3904958330"><ele>2007.91</ele><time>2026-03-11T14:33:08Z</time><extensions><gpxtpx:TrackPointExtension><gpxtpx:atemp>4.0</gpxtpx:atemp></gpxtpx:TrackPointExtension></extensions></trkpt><trkpt lat="42.1843305510" lon="13.3905151952"><ele>2007.72</ele><time>2026-03-11T14:33:09Z</time><extensions><gpxtpx:TrackPointExtension><gpxtpx:atemp>4.0</gpxtpx:atemp></gpxtpx:TrackPointExtension></extensions></trkpt><trkpt lat="42.1843362506" lon="13.3905339707"><ele>2007.46</ele><time>2026-03-11T14:33:10Z</time><extensions><gpxtpx:TrackPointExtension><gpxtpx:atemp>4.0</gpxtpx:atemp></gpxtpx:TrackPointExtension></extensions></trkpt><trkpt lat="42.1843381785" lon="13.3905423526"><ele>2007.05</ele><time>2026-03-11T14:33:11Z</time><extensions><gpxtpx:TrackPointExtension><gpxtpx:atemp>4.0</gpxtpx:atemp></gpxtpx:TrackPointExtension></extensions></trkpt><trkpt lat="42.1843380947" lon="13.3905440290"><ele>2006.61</ele><time>2026-03-11T14:33:12Z</time><extensions><gpxtpx:TrackPointExtension><gpxtpx:atemp>4.0</gpxtpx:atemp></gpxtpx:TrackPointExtension></extensions></trkpt><trkpt lat="42.1843385976" lon="13.3905453701"><ele>2006.26</ele><time>2026-03-11T14:33:13Z</time><extensions><gpxtpx:TrackPointExtension><gpxtpx:atemp>4.0</gpxtpx:atemp></gpxtpx:TrackPointExtension></extensions></trkpt><trkpt lat="42.1843396872" lon="13.3905496448"><ele>2005.98</ele><time>2026-03-11T14:33:14Z</time><extensions><gpxtpx:TrackPointExtension><gpxtpx:atemp>4.0</gpxtpx:atemp></gpxtpx:TrackPointExtension></extensions></trkpt><trkpt lat="42.1843398549" lon="13.3905574400"><ele>2005.75</ele><time>2026-03-11T14:33:15Z</time><extensions><gpxtpx:TrackPointExtension><gpxtpx:atemp>4.0</gpxtpx:atemp></gpxtpx:TrackPointExtension></extensions></trkpt><trkpt lat="42.1843423694" lon="13.3905688394"><ele>2005.54</ele><time>2026-03-11T14:33:16Z</time><extensions><gpxtpx:TrackPointExtension><gpxtpx:atemp>4.0</gpxtpx:atemp></gpxtpx:TrackPointExtension></extensions></trkpt><trkpt lat="42.1843512543" lon="13.3905785624"><ele>2005.36</ele><time>2026-03-11T14:33:17Z</time><extensions><gpxtpx:TrackPointExtension><gpxtpx:atemp>4.0</gpxtpx:atemp></gpxtpx:TrackPointExtension></extensions></trkpt><trkpt lat="42.1843665931" lon="13.3905836754"><ele>2005.19</ele><time>2026-03-11T14:33:18Z</time><extensions><gpxtpx:TrackPointExtension><gpxtpx:atemp>4.0</gpxtpx:atemp></gpxtpx:TrackPointExtension></extensions></trkpt><trkpt lat="42.1843816806" lon="13.3905749582"><ele>2004.87</ele><time>2026-03-11T14:33:19Z</time><extensions><gpxtpx:TrackPointExtension><gpxtpx:atemp>4.0</gpxtpx:atemp></gpxtpx:TrackPointExtension></extensions></trkpt><trkpt lat="42.1843911521" lon="13.3905591164"><ele>2004.67</ele><time>2026-03-11T14:33:20Z</time><extensions><gpxtpx:TrackPointExtension><gpxtpx:atemp>4.0</gpxtpx:atemp></gpxtpx:TrackPointExtension></extensions></trkpt><trkpt lat="42.1843950916" lon="13.3905390836"><ele>2004.40</ele><time>2026-03-11T14:33:21Z</time><extensions><gpxtpx:TrackPointExtension><gpxtpx:atemp>4.0</gpxtpx:atemp></gpxtpx:TrackPointExtension></extensions></trkpt><trkpt lat="42.1843970194" lon="13.3905296959"><ele>2004.13</ele><time>2026-03-11T14:33:22Z</time><extensions><gpxtpx:TrackPointExtension><gpxtpx:atemp>4.0</gpxtpx:atemp></gpxtpx:TrackPointExtension></extensions></trkpt><trkpt lat="42.1843980253" lon="13.3905276842"><ele>2003.91</ele><time>2026-03-11T14:33:23Z</time><extensions><gpxtpx:TrackPointExtension><gpxtpx:atemp>4.0</gpxtpx:atemp></gpxtpx:TrackPointExtension></extensions></trkpt><trkpt lat="42.1843982767" lon="13.3905302826"><ele>2003.74</ele><time>2026-03-11T14:33:24Z</time><extensions><gpxtpx:TrackPointExtension><gpxtpx:atemp>4.0</gpxtpx:atemp></gpxtpx:TrackPointExtension></extensions></trkpt><trkpt lat="42.1843987796" lon="13.3905319590"><ele>2003.64</ele><time>2026-03-11T14:33:25Z</time><extensions><gpxtpx:TrackPointExtension><gpxtpx:atemp>4.0</gpxtpx:atemp></gpxtpx:TrackPointExtension></extensions></trkpt><trkpt lat="42.1843997855" lon="13.3905325457"><ele>2003.55</ele><time>2026-03-11T14:33:26Z</time><extensions><gpxtpx:TrackPointExtension><gpxtpx:atemp>4.0</gpxtpx:atemp></gpxtpx:TrackPointExtension></extensions></trkpt><trkpt lat="42.1844030544" lon="13.3905349765"><ele>2003.46</ele><time>2026-03-11T14:33:27Z</time><extensions><gpxtpx:TrackPointExtension><gpxtpx:atemp>4.0</gpxtpx:atemp></gpxtpx:TrackPointExtension></extensions></trkpt><trkpt lat="42.1844081674" lon="13.3905453701"><ele>2003.40</ele><time>2026-03-11T14:33:28Z</time><extensions><gpxtpx:TrackPointExtension><gpxtpx:atemp>4.0</gpxtpx:atemp></gpxtpx:TrackPointExtension></extensions></trkpt><trkpt lat="42.1844124421" lon="13.3905655704"><ele>2003.28</ele><time>2026-03-11T14:33:29Z</time><extensions><gpxtpx:TrackPointExtension><gpxtpx:atemp>4.0</gpxtpx:atemp></gpxtpx:TrackPointExtension></extensions></trkpt><trkpt lat="42.1844139509" lon="13.3905886207"><ele>2003.14</ele><time>2026-03-11T14:33:30Z</time><extensions><gpxtpx:TrackPointExtension><gpxtpx:atemp>4.0</gpxtpx:atemp></gpxtpx:TrackPointExtension></extensions></trkpt><trkpt lat="42.1844136994" lon="13.3906050492"><ele>2002.69</ele><time>2026-03-11T14:33:31Z</time><extensions><gpxtpx:TrackPointExtension><gpxtpx:atemp>4.0</gpxtpx:atemp></gpxtpx:TrackPointExtension></extensions></trkpt><trkpt lat="42.1844133642" lon="13.3906117547"><ele>2002.40</ele><time>2026-03-11T14:33:32Z</time><extensions><gpxtpx:TrackPointExtension><gpxtpx:atemp>4.0</gpxtpx:atemp></gpxtpx:TrackPointExtension></extensions></trkpt><trkpt lat="42.1844132803" lon="13.3906135987"><ele>2002.20</ele><time>2026-03-11T14:33:33Z</time><extensions><gpxtpx:TrackPointExtension><gpxtpx:atemp>3.7</gpxtpx:atemp></gpxtpx:TrackPointExtension></extensions></trkpt><trkpt lat="42.1844134480" lon="13.3906142693"><ele>2002.09</ele><time>2026-03-11T14:33:34Z</time><extensions><gpxtpx:TrackPointExtension><gpxtpx:atemp>3.7</gpxtpx:atemp></gpxtpx:TrackPointExtension></extensions></trkpt><trkpt lat="42.1844152920" lon="13.3906169515"><ele>2002.02</ele><time>2026-03-11T14:33:35Z</time><extensions><gpxtpx:TrackPointExtension><gpxtpx:atemp>3.7</gpxtpx:atemp></gpxtpx:TrackPointExtension></extensions></trkpt><trkpt lat="42.1844229195" lon="13.3906219807"><ele>2001.93</ele><time>2026-03-11T14:33:36Z</time><extensions><gpxtpx:TrackPointExtension><gpxtpx:atemp>3.7</gpxtpx:atemp></gpxtpx:TrackPointExtension></extensions></trkpt><trkpt lat="42.1844401862" lon="13.3906229865"><ele>2001.82</ele><time>2026-03-11T14:33:37Z</time><extensions><gpxtpx:TrackPointExtension><gpxtpx:atemp>3.7</gpxtpx:atemp></gpxtpx:TrackPointExtension></extensions></trkpt><trkpt lat="42.1844627336" lon="13.3906206395"><ele>2001.73</ele><time>2026-03-11T14:33:38Z</time><extensions><gpxtpx:TrackPointExtension><gpxtpx:atemp>3.7</gpxtpx:atemp></gpxtpx:TrackPointExtension></extensions></trkpt><trkpt lat="42.1844867896" lon="13.3906153589"><ele>2001.56</ele><time>2026-03-11T14:33:39Z</time><extensions><gpxtpx:TrackPointExtension><gpxtpx:atemp>3.7</gpxtpx:atemp></gpxtpx:TrackPointExtension></extensions></trkpt><trkpt lat="42.1845061518" lon="13.3906116709"><ele>2001.33</ele><time>2026-03-11T14:33:40Z</time><extensions><gpxtpx:TrackPointExtension><gpxtpx:atemp>3.7</gpxtpx:atemp></gpxtpx:TrackPointExtension></extensions></trkpt><trkpt lat="42.1845207363" lon="13.3906083182"><ele>2001.05</ele><time>2026-03-11T14:33:41Z</time><extensions><gpxtpx:TrackPointExtension><gpxtpx:atemp>3.7</gpxtpx:atemp></gpxtpx:TrackPointExtension></extensions></trkpt><trkpt lat="42.1845281962" lon="13.3906056359"><ele>2000.47</ele><time>2026-03-11T14:33:42Z</time><extensions><gpxtpx:TrackPointExtension><gpxtpx:atemp>3.7</gpxtpx:atemp></gpxtpx:TrackPointExtension></extensions></trkpt><trkpt lat="42.1845302917" lon="13.3906053845"><ele>2000.22</ele><time>2026-03-11T14:33:43Z</time><extensions><gpxtpx:TrackPointExtension><gpxtpx:atemp>3.7</gpxtpx:atemp></gpxtpx:TrackPointExtension></extensions></trkpt><trkpt lat="42.1845300402" lon="13.3906062227"><ele>1999.98</ele><time>2026-03-11T14:33:44Z</time><extensions><gpxtpx:TrackPointExtension><gpxtpx:atemp>3.7</gpxtpx:atemp></gpxtpx:TrackPointExtension></extensions></trkpt><trkpt lat="42.1845297888" lon="13.3906072285"><ele>1999.83</ele><time>2026-03-11T14:33:45Z</time><extensions><gpxtpx:TrackPointExtension><gpxtpx:atemp>3.7</gpxtpx:atemp></gpxtpx:TrackPointExtension></extensions></trkpt><trkpt lat="42.1845303755" lon="13.3906076476"><ele>1999.72</ele><time>2026-03-11T14:33:46Z</time><extensions><gpxtpx:TrackPointExtension><gpxtpx:atemp>3.7</gpxtpx:atemp></gpxtpx:TrackPointExtension></extensions></trkpt><trkpt lat="42.1845325548" lon="13.3906076476"><ele>1999.63</ele><time>2026-03-11T14:33:47Z</time><extensions><gpxtpx:TrackPointExtension><gpxtpx:atemp>3.7</gpxtpx:atemp></gpxtpx:TrackPointExtension></extensions></trkpt><trkpt lat="42.1845395956" lon="13.3906086534"><ele>1999.54</ele><time>2026-03-11T14:33:48Z</time><extensions><gpxtpx:TrackPointExtension><gpxtpx:atemp>3.7</gpxtpx:atemp></gpxtpx:TrackPointExtension></extensions></trkpt><trkpt lat="42.1845522523" lon="13.3906099945"><ele>1999.47</ele><time>2026-03-11T14:33:49Z</time><extensions><gpxtpx:TrackPointExtension><gpxtpx:atemp>3.7</gpxtpx:atemp></gpxtpx:TrackPointExtension></extensions></trkpt><trkpt lat="42.1845693514" lon="13.3906104974"><ele>1999.40</ele><time>2026-03-11T14:33:50Z</time><extensions><gpxtpx:TrackPointExtension><gpxtpx:atemp>3.7</gpxtpx:atemp></gpxtpx:TrackPointExtension></extensions></trkpt><trkpt lat="42.1845867857" lon="13.3906095754"><ele>1999.28</ele><time>2026-03-11T14:33:51Z</time><extensions><gpxtpx:TrackPointExtension><gpxtpx:atemp>3.7</gpxtpx:atemp></gpxtpx:TrackPointExtension></extensions></trkpt><trkpt lat="42.1846010350" lon="13.3906070609"><ele>1999.09</ele><time>2026-03-11T14:33:52Z</time><extensions><gpxtpx:TrackPointExtension><gpxtpx:atemp>3.7</gpxtpx:atemp></gpxtpx:TrackPointExtension></extensions></trkpt><trkpt lat="42.1846113447" lon="13.3906039596"><ele>1998.85</ele><time>2026-03-11T14:33:53Z</time><extensions><gpxtpx:TrackPointExtension><gpxtpx:atemp>3.7</gpxtpx:atemp></gpxtpx:TrackPointExtension></extensions></trkpt><trkpt lat="42.1846173797" lon="13.3906010259"><ele>1998.37</ele><time>2026-03-11T14:33:54Z</time><extensions><gpxtpx:TrackPointExtension><gpxtpx:atemp>3.7</gpxtpx:atemp></gpxtpx:TrackPointExtension></extensions></trkpt><trkpt lat="42.1846196428" lon="13.3906000201"><ele>1998.13</ele><time>2026-03-11T14:33:55Z</time><extensions><gpxtpx:TrackPointExtension><gpxtpx:atemp>3.7</gpxtpx:atemp></gpxtpx:TrackPointExtension></extensions></trkpt><trkpt lat="42.1846198943" lon="13.3905999362"><ele>1997.91</ele><time>2026-03-11T14:33:56Z</time><extensions><gpxtpx:TrackPointExtension><gpxtpx:atemp>3.7</gpxtpx:atemp></gpxtpx:TrackPointExtension></extensions></trkpt><trkpt lat="42.1846196428" lon="13.3906000201"><ele>1997.72</ele><time>2026-03-11T14:33:57Z</time><extensions><gpxtpx:TrackPointExtension><gpxtpx:atemp>3.7</gpxtpx:atemp></gpxtpx:TrackPointExtension></extensions></trkpt><trkpt lat="42.1846194752" lon="13.3905999362"><ele>1997.57</ele><time>2026-03-11T14:33:58Z</time><extensions><gpxtpx:TrackPointExtension><gpxtpx:atemp>3.7</gpxtpx:atemp></gpxtpx:TrackPointExtension></extensions></trkpt><trkpt lat="42.1846192237" lon="13.3906000201"><ele>1997.43</ele><time>2026-03-11T14:33:59Z</time><extensions><gpxtpx:TrackPointExtension><gpxtpx:atemp>3.7</gpxtpx:atemp></gpxtpx:TrackPointExtension></extensions></trkpt><trkpt lat="42.1846193913" lon="13.3905998524"><ele>1997.32</ele><time>2026-03-11T14:34:00Z</time><extensions><gpxtpx:TrackPointExtension><gpxtpx:atemp>3.7</gpxtpx:atemp></gpxtpx:TrackPointExtension></extensions></trkpt><trkpt lat="42.1846199781" lon="13.3905995172"><ele>1997.25</ele><time>2026-03-11T14:34:01Z</time><extensions><gpxtpx:TrackPointExtension><gpxtpx:atemp>3.7</gpxtpx:atemp></gpxtpx:TrackPointExtension></extensions></trkpt><trkpt lat="42.1846208163" lon="13.3905995172"><ele>1997.19</ele><time>2026-03-11T14:34:02Z</time><extensions><gpxtpx:TrackPointExtension><gpxtpx:atemp>3.7</gpxtpx:atemp></gpxtpx:TrackPointExtension></extensions></trkpt><trkpt lat="42.1846214868" lon="13.3906003553"><ele>1997.13</ele><time>2026-03-11T14:34:03Z</time><extensions><gpxtpx:TrackPointExtension><gpxtpx:atemp>3.7</gpxtpx:atemp></gpxtpx:TrackPointExtension></extensions></trkpt><trkpt lat="42.1846213192" lon="13.3906014450"><ele>1997.08</ele><time>2026-03-11T14:34:04Z</time><extensions><gpxtpx:TrackPointExtension><gpxtpx:atemp>3.7</gpxtpx:atemp></gpxtpx:TrackPointExtension></extensions></trkpt><trkpt lat="42.1846212354" lon="13.3906021994"><ele>1997.01</ele><time>2026-03-11T14:34:05Z</time><extensions><gpxtpx:TrackPointExtension><gpxtpx:atemp>3.7</gpxtpx:atemp></gpxtpx:TrackPointExtension></extensions></trkpt><trkpt lat="42.1846219897" lon="13.3906022832"><ele>1996.96</ele><time>2026-03-11T14:34:06Z</time><extensions><gpxtpx:TrackPointExtension><gpxtpx:atemp>3.7</gpxtpx:atemp></gpxtpx:TrackPointExtension></extensions></trkpt><trkpt lat="42.1846250910" lon="13.3906018641"><ele>1996.92</ele><time>2026-03-11T14:34:07Z</time><extensions><gpxtpx:TrackPointExtension><gpxtpx:atemp>3.7</gpxtpx:atemp></gpxtpx:TrackPointExtension></extensions></trkpt><trkpt lat="42.1846314613" lon="13.3906007744"><ele>1996.88</ele><time>2026-03-11T14:34:08Z</time><extensions><gpxtpx:TrackPointExtension><gpxtpx:atemp>3.7</gpxtpx:atemp></gpxtpx:TrackPointExtension></extensions></trkpt><trkpt lat="42.1846401785" lon="13.3905987628"><ele>1996.85</ele><time>2026-03-11T14:34:09Z</time><extensions><gpxtpx:TrackPointExtension><gpxtpx:atemp>3.7</gpxtpx:atemp></gpxtpx:TrackPointExtension></extensions></trkpt><trkpt lat="42.1846494824" lon="13.3905952424"><ele>1996.83</ele><time>2026-03-11T14:34:10Z</time><extensions><gpxtpx:TrackPointExtension><gpxtpx:atemp>3.7</gpxtpx:atemp></gpxtpx:TrackPointExtension></extensions></trkpt><trkpt lat="42.1846566908" lon="13.3905913867"><ele>1996.80</ele><time>2026-03-11T14:34:11Z</time><extensions><gpxtpx:TrackPointExtension><gpxtpx:atemp>3.7</gpxtpx:atemp></gpxtpx:TrackPointExtension></extensions></trkpt><trkpt lat="42.1846608818" lon="13.3905883692"><ele>1996.74</ele><time>2026-03-11T14:34:12Z</time><extensions><gpxtpx:TrackPointExtension><gpxtpx:atemp>3.7</gpxtpx:atemp></gpxtpx:TrackPointExtension></extensions></trkpt><trkpt lat="42.1846627258" lon="13.3905863576"><ele>1996.65</ele><time>2026-03-11T14:34:13Z</time><extensions><gpxtpx:TrackPointExtension><gpxtpx:atemp>3.7</gpxtpx:atemp></gpxtpx:TrackPointExtension></extensions></trkpt><trkpt lat="42.1846642345" lon="13.3905850165"><ele>1996.52</ele><time>2026-03-11T14:34:14Z</time><extensions><gpxtpx:TrackPointExtension><gpxtpx:atemp>3.7</gpxtpx:atemp></gpxtpx:TrackPointExtension></extensions></trkpt><trkpt lat="42.1846661624" lon="13.3905832563"><ele>1996.40</ele><time>2026-03-11T14:34:15Z</time><extensions><gpxtpx:TrackPointExtension><gpxtpx:atemp>3.7</gpxtpx:atemp></gpxtpx:TrackPointExtension></extensions></trkpt><trkpt lat="42.1846683417" lon="13.3905818313"><ele>1996.24</ele><time>2026-03-11T14:34:16Z</time><extensions><gpxtpx:TrackPointExtension><gpxtpx:atemp>3.7</gpxtpx:atemp></gpxtpx:TrackPointExtension></extensions></trkpt><trkpt lat="42.1846710239" lon="13.3905799873"><ele>1996.18</ele><time>2026-03-11T14:34:17Z</time><extensions><gpxtpx:TrackPointExtension><gpxtpx:atemp>3.7</gpxtpx:atemp></gpxtpx:TrackPointExtension></extensions></trkpt><trkpt lat="42.1846748795" lon="13.3905773889"><ele>1996.14</ele><time>2026-03-11T14:34:18Z</time><extensions><gpxtpx:TrackPointExtension><gpxtpx:atemp>3.7</gpxtpx:atemp></gpxtpx:TrackPointExtension></extensions></trkpt><trkpt lat="42.1846806630" lon="13.3905734494"><ele>1996.09</ele><time>2026-03-11T14:34:19Z</time><extensions><gpxtpx:TrackPointExtension><gpxtpx:atemp>3.7</gpxtpx:atemp></gpxtpx:TrackPointExtension></extensions></trkpt><trkpt lat="42.1846880391" lon="13.3905681688"><ele>1996.04</ele><time>2026-03-11T14:34:20Z</time><extensions><gpxtpx:TrackPointExtension><gpxtpx:atemp>3.7</gpxtpx:atemp></gpxtpx:TrackPointExtension></extensions></trkpt><trkpt lat="42.1846964210" lon="13.3905606251"><ele>1995.98</ele><time>2026-03-11T14:34:21Z</time><extensions><gpxtpx:TrackPointExtension><gpxtpx:atemp>3.7</gpxtpx:atemp></gpxtpx:TrackPointExtension></extensions></trkpt><trkpt lat="42.1847050544" lon="13.3905519918"><ele>1995.90</ele><time>2026-03-11T14:34:22Z</time><extensions><gpxtpx:TrackPointExtension><gpxtpx:atemp>3.7</gpxtpx:atemp></gpxtpx:TrackPointExtension></extensions></trkpt><trkpt lat="42.1847130172" lon="13.3905428555"><ele>1995.83</ele><time>2026-03-11T14:34:23Z</time><extensions><gpxtpx:TrackPointExtension><gpxtpx:atemp>3.7</gpxtpx:atemp></gpxtpx:TrackPointExtension></extensions></trkpt><trkpt lat="42.1847195551" lon="13.3905351441"><ele>1995.76</ele><time>2026-03-11T14:34:24Z</time><extensions><gpxtpx:TrackPointExtension><gpxtpx:atemp>3.7</gpxtpx:atemp></gpxtpx:TrackPointExtension></extensions></trkpt><trkpt lat="42.1847249195" lon="13.3905282710"><ele>1995.65</ele><time>2026-03-11T14:34:25Z</time><extensions><gpxtpx:TrackPointExtension><gpxtpx:atemp>3.7</gpxtpx:atemp></gpxtpx:TrackPointExtension></extensions></trkpt><trkpt lat="42.1847294457" lon="13.3905212302"><ele>1995.50</ele><time>2026-03-11T14:34:26Z</time><extensions><gpxtpx:TrackPointExtension><gpxtpx:atemp>3.7</gpxtpx:atemp></gpxtpx:TrackPointExtension></extensions></trkpt><trkpt lat="42.1847334690" lon="13.3905143570"><ele>1995.37</ele><time>2026-03-11T14:34:27Z</time><extensions><gpxtpx:TrackPointExtension><gpxtpx:atemp>3.7</gpxtpx:atemp></gpxtpx:TrackPointExtension></extensions></trkpt><trkpt lat="42.1847361512" lon="13.3905099984"><ele>1995.21</ele><time>2026-03-11T14:34:28Z</time><extensions><gpxtpx:TrackPointExtension><gpxtpx:atemp>3.7</gpxtpx:atemp></gpxtpx:TrackPointExtension></extensions></trkpt><trkpt lat="42.1847373247" lon="13.3905082382"><ele>1995.17</ele><time>2026-03-11T14:34:29Z</time><extensions><gpxtpx:TrackPointExtension><gpxtpx:atemp>3.7</gpxtpx:atemp></gpxtpx:TrackPointExtension></extensions></trkpt><trkpt lat="42.1847375762" lon="13.3905085735"><ele>1995.11</ele><time>2026-03-11T14:34:30Z</time><extensions><gpxtpx:TrackPointExtension><gpxtpx:atemp>3.7</gpxtpx:atemp></gpxtpx:TrackPointExtension></extensions></trkpt><trkpt lat="42.1847374924" lon="13.3905087411"><ele>1995.06</ele><time>2026-03-11T14:34:31Z</time><extensions><gpxtpx:TrackPointExtension><gpxtpx:atemp>3.7</gpxtpx:atemp></gpxtpx:TrackPointExtension></extensions></trkpt><trkpt lat="42.1847373247" lon="13.3905087411"><ele>1995.03</ele><time>2026-03-11T14:34:32Z</time><extensions><gpxtpx:TrackPointExtension><gpxtpx:atemp>3.7</gpxtpx:atemp></gpxtpx:TrackPointExtension></extensions></trkpt><trkpt lat="42.1847373247" lon="13.3905089926"><ele>1995.01</ele><time>2026-03-11T14:34:33Z</time><extensions><gpxtpx:TrackPointExtension><gpxtpx:atemp>3.7</gpxtpx:atemp></gpxtpx:TrackPointExtension></extensions></trkpt><trkpt lat="42.1847373247" lon="13.3905092441"><ele>1994.99</ele><time>2026-03-11T14:34:34Z</time><extensions><gpxtpx:TrackPointExtension><gpxtpx:atemp>3.7</gpxtpx:atemp></gpxtpx:TrackPointExtension></extensions></trkpt><trkpt lat="42.1847376600" lon="13.3905091602"><ele>1994.97</ele><time>2026-03-11T14:34:35Z</time><extensions><gpxtpx:TrackPointExtension><gpxtpx:atemp>3.7</gpxtpx:atemp></gpxtpx:TrackPointExtension></extensions></trkpt><trkpt lat="42.1847392526" lon="13.3905084897"><ele>1994.93</ele><time>2026-03-11T14:34:36Z</time><extensions><gpxtpx:TrackPointExtension><gpxtpx:atemp>3.7</gpxtpx:atemp></gpxtpx:TrackPointExtension></extensions></trkpt><trkpt lat="42.1847443655" lon="13.3905095793"><ele>1994.90</ele><time>2026-03-11T14:34:37Z</time><extensions><gpxtpx:TrackPointExtension><gpxtpx:atemp>3.7</gpxtpx:atemp></gpxtpx:TrackPointExtension></extensions></trkpt><trkpt lat="42.1847508196" lon="13.3905198891"><ele>1994.82</ele><time>2026-03-11T14:34:38Z</time><extensions><gpxtpx:TrackPointExtension><gpxtpx:atemp>3.7</gpxtpx:atemp></gpxtpx:TrackPointExtension></extensions></trkpt><trkpt lat="42.1847545914" lon="13.3905378263"><ele>1994.78</ele><time>2026-03-11T14:34:39Z</time><extensions><gpxtpx:TrackPointExtension><gpxtpx:atemp>3.7</gpxtpx:atemp></gpxtpx:TrackPointExtension></extensions></trkpt><trkpt lat="42.1847526636" lon="13.3905587811"><ele>1994.60</ele><time>2026-03-11T14:34:40Z</time><extensions><gpxtpx:TrackPointExtension><gpxtpx:atemp>3.7</gpxtpx:atemp></gpxtpx:TrackPointExtension></extensions></trkpt><trkpt lat="42.1847464610" lon="13.3905760478"><ele>1994.42</ele><time>2026-03-11T14:34:41Z</time><extensions><gpxtpx:TrackPointExtension><gpxtpx:atemp>3.7</gpxtpx:atemp></gpxtpx:TrackPointExtension></extensions></trkpt><trkpt lat="42.1847404260" lon="13.3905886207"><ele>1994.21</ele><time>2026-03-11T14:34:42Z</time><extensions><gpxtpx:TrackPointExtension><gpxtpx:atemp>3.7</gpxtpx:atemp></gpxtpx:TrackPointExtension></extensions></trkpt><trkpt lat="42.1847366542" lon="13.3905967511"><ele>1993.96</ele><time>2026-03-11T14:34:43Z</time><extensions><gpxtpx:TrackPointExtension><gpxtpx:atemp>3.7</gpxtpx:atemp></gpxtpx:TrackPointExtension></extensions></trkpt><trkpt lat="42.1847354807" lon="13.3906017803"><ele>1993.75</ele><time>2026-03-11T14:34:44Z</time><extensions><gpxtpx:TrackPointExtension><gpxtpx:atemp>3.7</gpxtpx:atemp></gpxtpx:TrackPointExtension></extensions></trkpt><trkpt lat="42.1847374924" lon="13.3906085696"><ele>1993.57</ele><time>2026-03-11T14:34:45Z</time><extensions><gpxtpx:TrackPointExtension><gpxtpx:atemp>3.7</gpxtpx:atemp></gpxtpx:TrackPointExtension></extensions></trkpt><trkpt lat="42.1847470477" lon="13.3906178735"><ele>1993.38</ele><time>2026-03-11T14:34:46Z</time><extensions><gpxtpx:TrackPointExtension><gpxtpx:atemp>3.7</gpxtpx:atemp></gpxtpx:TrackPointExtension></extensions></trkpt><trkpt lat="42.1847641468" lon="13.3906276803"><ele>1993.21</ele><time>2026-03-11T14:34:47Z</time><extensions><gpxtpx:TrackPointExtension><gpxtpx:atemp>3.7</gpxtpx:atemp></gpxtpx:TrackPointExtension></extensions></trkpt><trkpt lat="42.1847835928" lon="13.3906293567"><ele>1993.04</ele><time>2026-03-11T14:34:48Z</time><extensions><gpxtpx:TrackPointExtension><gpxtpx:atemp>3.7</gpxtpx:atemp></gpxtpx:TrackPointExtension></extensions></trkpt><trkpt lat="42.1847990993" lon="13.3906227350"><ele>1992.73</ele><time>2026-03-11T14:34:49Z</time><extensions><gpxtpx:TrackPointExtension><gpxtpx:atemp>3.7</gpxtpx:atemp></gpxtpx:TrackPointExtension></extensions></trkpt><trkpt lat="42.1848072298" lon="13.3906142693"><ele>1992.29</ele><time>2026-03-11T14:34:50Z</time><extensions><gpxtpx:TrackPointExtension><gpxtpx:atemp>3.7</gpxtpx:atemp></gpxtpx:TrackPointExtension></extensions></trkpt><trkpt lat="42.1848103311" lon="13.3906086534"><ele>1991.61</ele><time>2026-03-11T14:34:51Z</time><extensions><gpxtpx:TrackPointExtension><gpxtpx:atemp>3.7</gpxtpx:atemp></gpxtpx:TrackPointExtension></extensions></trkpt><trkpt lat="42.1848106664" lon="13.3906072285"><ele>1991.41</ele><time>2026-03-11T14:34:52Z</time><extensions><gpxtpx:TrackPointExtension><gpxtpx:atemp>3.7</gpxtpx:atemp></gpxtpx:TrackPointExtension></extensions></trkpt><trkpt lat="42.1848125942" lon="13.3906042948"><ele>1991.29</ele><time>2026-03-11T14:34:53Z</time><extensions><gpxtpx:TrackPointExtension><gpxtpx:atemp>3.7</gpxtpx:atemp></gpxtpx:TrackPointExtension></extensions></trkpt><trkpt lat="42.1848188806" lon="13.3905997686"><ele>1991.18</ele><time>2026-03-11T14:34:54Z</time><extensions><gpxtpx:TrackPointExtension><gpxtpx:atemp>3.7</gpxtpx:atemp></gpxtpx:TrackPointExtension></extensions></trkpt><trkpt lat="42.1848291904" lon="13.3905944880"><ele>1991.07</ele><time>2026-03-11T14:34:55Z</time><extensions><gpxtpx:TrackPointExtension><gpxtpx:atemp>3.7</gpxtpx:atemp></gpxtpx:TrackPointExtension></extensions></trkpt><trkpt lat="42.1848424338" lon="13.3905888721"><ele>1990.95</ele><time>2026-03-11T14:34:56Z</time><extensions><gpxtpx:TrackPointExtension><gpxtpx:atemp>3.7</gpxtpx:atemp></gpxtpx:TrackPointExtension></extensions></trkpt><trkpt lat="42.1848564316" lon="13.3905847650"><ele>1990.77</ele><time>2026-03-11T14:34:57Z</time><extensions><gpxtpx:TrackPointExtension><gpxtpx:atemp>3.7</gpxtpx:atemp></gpxtpx:TrackPointExtension></extensions></trkpt><trkpt lat="42.1848684177" lon="13.3905818313"><ele>1990.57</ele><time>2026-03-11T14:34:58Z</time><extensions><gpxtpx:TrackPointExtension><gpxtpx:atemp>3.7</gpxtpx:atemp></gpxtpx:TrackPointExtension></extensions></trkpt><trkpt lat="42.1848772187" lon="13.3905799873"><ele>1990.35</ele><time>2026-03-11T14:34:59Z</time><extensions><gpxtpx:TrackPointExtension><gpxtpx:atemp>3.7</gpxtpx:atemp></gpxtpx:TrackPointExtension></extensions></trkpt><trkpt lat="42.1848820802" lon="13.3905791491"><ele>1990.15</ele><time>2026-03-11T14:35:00Z</time><extensions><gpxtpx:TrackPointExtension><gpxtpx:atemp>3.7</gpxtpx:atemp></gpxtpx:TrackPointExtension></extensions></trkpt><trkpt lat="42.1848841757" lon="13.3905787300"><ele>1989.99</ele><time>2026-03-11T14:35:01Z</time><extensions><gpxtpx:TrackPointExtension><gpxtpx:atemp>3.7</gpxtpx:atemp></gpxtpx:TrackPointExtension></extensions></trkpt><trkpt lat="42.1848855168" lon="13.3905790653"><ele>1989.76</ele><time>2026-03-11T14:35:02Z</time><extensions><gpxtpx:TrackPointExtension><gpxtpx:atemp>3.7</gpxtpx:atemp></gpxtpx:TrackPointExtension></extensions></trkpt><trkpt lat="42.1848883666" lon="13.3905796520"><ele>1989.66</ele><time>2026-03-11T14:35:03Z</time><extensions><gpxtpx:TrackPointExtension><gpxtpx:atemp>3.7</gpxtpx:atemp></gpxtpx:TrackPointExtension></extensions></trkpt><trkpt lat="42.1848933958" lon="13.3905834239"><ele>1989.61</ele><time>2026-03-11T14:35:04Z</time><extensions><gpxtpx:TrackPointExtension><gpxtpx:atemp>3.7</gpxtpx:atemp></gpxtpx:TrackPointExtension></extensions></trkpt><trkpt lat="42.1848991793" lon="13.3905908838"><ele>1989.52</ele><time>2026-03-11T14:35:05Z</time><extensions><gpxtpx:TrackPointExtension><gpxtpx:atemp>3.7</gpxtpx:atemp></gpxtpx:TrackPointExtension></extensions></trkpt><trkpt lat="42.1848995984" lon="13.3906066418"><ele>1989.40</ele><time>2026-03-11T14:35:06Z</time><extensions><gpxtpx:TrackPointExtension><gpxtpx:atemp>3.7</gpxtpx:atemp></gpxtpx:TrackPointExtension></extensions></trkpt><trkpt lat="42.1848929767" lon="13.3906270936"><ele>1989.30</ele><time>2026-03-11T14:35:07Z</time><extensions><gpxtpx:TrackPointExtension><gpxtpx:atemp>3.7</gpxtpx:atemp></gpxtpx:TrackPointExtension></extensions></trkpt><trkpt lat="42.1848808229" lon="13.3906509820"><ele>1989.13</ele><time>2026-03-11T14:35:08Z</time><extensions><gpxtpx:TrackPointExtension><gpxtpx:atemp>3.7</gpxtpx:atemp></gpxtpx:TrackPointExtension></extensions></trkpt><trkpt lat="42.1848694235" lon="13.3906726912"><ele>1988.89</ele><time>2026-03-11T14:35:09Z</time><extensions><gpxtpx:TrackPointExtension><gpxtpx:atemp>3.7</gpxtpx:atemp></gpxtpx:TrackPointExtension></extensions></trkpt><trkpt lat="42.1848602872" lon="13.3906936459"><ele>1988.62</ele><time>2026-03-11T14:35:10Z</time><extensions><gpxtpx:TrackPointExtension><gpxtpx:atemp>3.7</gpxtpx:atemp></gpxtpx:TrackPointExtension></extensions></trkpt><trkpt lat="42.1848514862" lon="13.3907132596"><ele>1988.39</ele><time>2026-03-11T14:35:11Z</time><extensions><gpxtpx:TrackPointExtension><gpxtpx:atemp>3.7</gpxtpx:atemp></gpxtpx:TrackPointExtension></extensions></trkpt><trkpt lat="42.1848431882" lon="13.3907299396"><ele>1988.15</ele><time>2026-03-11T14:35:12Z</time><extensions><gpxtpx:TrackPointExtension><gpxtpx:atemp>3.7</gpxtpx:atemp></gpxtpx:TrackPointExtension></extensions></trkpt><trkpt lat="42.1848368179" lon="13.3907414228"><ele>1987.86</ele><time>2026-03-11T14:35:13Z</time><extensions><gpxtpx:TrackPointExtension><gpxtpx:atemp>3.7</gpxtpx:atemp></gpxtpx:TrackPointExtension></extensions></trkpt><trkpt lat="42.1848338842" lon="13.3907469548"><ele>1987.37</ele><time>2026-03-11T14:35:14Z</time><extensions><gpxtpx:TrackPointExtension><gpxtpx:atemp>3.7</gpxtpx:atemp></gpxtpx:TrackPointExtension></extensions></trkpt><trkpt lat="42.1848333813" lon="13.3907492179"><ele>1987.19</ele><time>2026-03-11T14:35:15Z</time><extensions><gpxtpx:TrackPointExtension><gpxtpx:atemp>3.7</gpxtpx:atemp></gpxtpx:TrackPointExtension></extensions></trkpt><trkpt lat="42.1848334651" lon="13.3907509781"><ele>1987.06</ele><time>2026-03-11T14:35:16Z</time><extensions><gpxtpx:TrackPointExtension><gpxtpx:atemp>3.7</gpxtpx:atemp></gpxtpx:TrackPointExtension></extensions></trkpt><trkpt lat="42.1848332975" lon="13.3907529898"><ele>1986.98</ele><time>2026-03-11T14:35:17Z</time><extensions><gpxtpx:TrackPointExtension><gpxtpx:atemp>3.7</gpxtpx:atemp></gpxtpx:TrackPointExtension></extensions></trkpt><trkpt lat="42.1848334651" lon="13.3907546662"><ele>1986.93</ele><time>2026-03-11T14:35:18Z</time><extensions><gpxtpx:TrackPointExtension><gpxtpx:atemp>3.7</gpxtpx:atemp></gpxtpx:TrackPointExtension></extensions></trkpt><trkpt lat="42.1848336328" lon="13.3907558396"><ele>1986.90</ele><time>2026-03-11T14:35:19Z</time><extensions><gpxtpx:TrackPointExtension><gpxtpx:atemp>3.7</gpxtpx:atemp></gpxtpx:TrackPointExtension></extensions></trkpt><trkpt lat="42.1848338842" lon="13.3907565940"><ele>1986.87</ele><time>2026-03-11T14:35:20Z</time><extensions><gpxtpx:TrackPointExtension><gpxtpx:atemp>3.7</gpxtpx:atemp></gpxtpx:TrackPointExtension></extensions></trkpt><trkpt lat="42.1848342195" lon="13.3907570969"><ele>1986.87</ele><time>2026-03-11T14:35:21Z</time><extensions><gpxtpx:TrackPointExtension><gpxtpx:atemp>3.7</gpxtpx:atemp></gpxtpx:TrackPointExtension></extensions></trkpt><trkpt lat="42.1848347224" lon="13.3907577675"><ele>1986.86</ele><time>2026-03-11T14:35:22Z</time><extensions><gpxtpx:TrackPointExtension><gpxtpx:atemp>3.7</gpxtpx:atemp></gpxtpx:TrackPointExtension></extensions></trkpt><trkpt lat="42.1848349739" lon="13.3907592762"><ele>1986.85</ele><time>2026-03-11T14:35:23Z</time><extensions><gpxtpx:TrackPointExtension><gpxtpx:atemp>3.7</gpxtpx:atemp></gpxtpx:TrackPointExtension></extensions></trkpt><trkpt lat="42.1848346386" lon="13.3907632995"><ele>1986.84</ele><time>2026-03-11T14:35:24Z</time><extensions><gpxtpx:TrackPointExtension><gpxtpx:atemp>3.7</gpxtpx:atemp></gpxtpx:TrackPointExtension></extensions></trkpt><trkpt lat="42.1848362312" lon="13.3907727711"><ele>1986.81</ele><time>2026-03-11T14:35:25Z</time><extensions><gpxtpx:TrackPointExtension><gpxtpx:atemp>3.7</gpxtpx:atemp></gpxtpx:TrackPointExtension></extensions></trkpt><trkpt lat="42.1848461218" lon="13.3907854278"><ele>1986.70</ele><time>2026-03-11T14:35:26Z</time><extensions><gpxtpx:TrackPointExtension><gpxtpx:atemp>3.7</gpxtpx:atemp></gpxtpx:TrackPointExtension></extensions></trkpt><trkpt lat="42.1848646458" lon="13.3907983359"><ele>1986.54</ele><time>2026-03-11T14:35:27Z</time><extensions><gpxtpx:TrackPointExtension><gpxtpx:atemp>3.7</gpxtpx:atemp></gpxtpx:TrackPointExtension></extensions></trkpt><trkpt lat="42.1848856844" lon="13.3908009343"><ele>1986.30</ele><time>2026-03-11T14:35:28Z</time><extensions><gpxtpx:TrackPointExtension><gpxtpx:atemp>3.7</gpxtpx:atemp></gpxtpx:TrackPointExtension></extensions></trkpt><trkpt lat="42.1849017777" lon="13.3907968272"><ele>1986.00</ele><time>2026-03-11T14:35:29Z</time><extensions><gpxtpx:TrackPointExtension><gpxtpx:atemp>3.7</gpxtpx:atemp></gpxtpx:TrackPointExtension></extensions></trkpt><trkpt lat="42.1849103272" lon="13.3907883614"><ele>1985.68</ele><time>2026-03-11T14:35:30Z</time><extensions><gpxtpx:TrackPointExtension><gpxtpx:atemp>3.7</gpxtpx:atemp></gpxtpx:TrackPointExtension></extensions></trkpt><trkpt lat="42.1849144343" lon="13.3907839190"><ele>1985.38</ele><time>2026-03-11T14:35:31Z</time><extensions><gpxtpx:TrackPointExtension><gpxtpx:atemp>3.7</gpxtpx:atemp></gpxtpx:TrackPointExtension></extensions></trkpt><trkpt lat="42.1849179547" lon="13.3907832485"><ele>1985.12</ele><time>2026-03-11T14:35:32Z</time><extensions><gpxtpx:TrackPointExtension><gpxtpx:atemp>3.5</gpxtpx:atemp></gpxtpx:TrackPointExtension></extensions></trkpt><trkpt lat="42.1849239897" lon="13.3907899540"><ele>1984.89</ele><time>2026-03-11T14:35:33Z</time><extensions><gpxtpx:TrackPointExtension><gpxtpx:atemp>3.5</gpxtpx:atemp></gpxtpx:TrackPointExtension></extensions></trkpt><trkpt lat="42.1849295218" lon="13.3908085618"><ele>1984.68</ele><time>2026-03-11T14:35:34Z</time><extensions><gpxtpx:TrackPointExtension><gpxtpx:atemp>3.5</gpxtpx:atemp></gpxtpx:TrackPointExtension></extensions></trkpt><trkpt lat="42.1849310305" lon="13.3908374794"><ele>1984.43</ele><time>2026-03-11T14:35:35Z</time><extensions><gpxtpx:TrackPointExtension><gpxtpx:atemp>3.5</gpxtpx:atemp></gpxtpx:TrackPointExtension></extensions></trkpt><trkpt lat="42.1849239897" lon="13.3908661455"><ele>1984.18</ele><time>2026-03-11T14:35:36Z</time><extensions><gpxtpx:TrackPointExtension><gpxtpx:atemp>3.5</gpxtpx:atemp></gpxtpx:TrackPointExtension></extensions></trkpt><trkpt lat="42.1849139314" lon="13.3908880223"><ele>1983.89</ele><time>2026-03-11T14:35:37Z</time><extensions><gpxtpx:TrackPointExtension><gpxtpx:atemp>3.5</gpxtpx:atemp></gpxtpx:TrackPointExtension></extensions></trkpt><trkpt lat="42.1849037893" lon="13.3909020200"><ele>1983.51</ele><time>2026-03-11T14:35:38Z</time><extensions><gpxtpx:TrackPointExtension><gpxtpx:atemp>3.5</gpxtpx:atemp></gpxtpx:TrackPointExtension></extensions></trkpt><trkpt lat="42.1848957427" lon="13.3909130841"><ele>1983.09</ele><time>2026-03-11T14:35:39Z</time><extensions><gpxtpx:TrackPointExtension><gpxtpx:atemp>3.5</gpxtpx:atemp></gpxtpx:TrackPointExtension></extensions></trkpt><trkpt lat="42.1848902944" lon="13.3909227233"><ele>1982.69</ele><time>2026-03-11T14:35:40Z</time><extensions><gpxtpx:TrackPointExtension><gpxtpx:atemp>3.5</gpxtpx:atemp></gpxtpx:TrackPointExtension></extensions></trkpt><trkpt lat="42.1848876961" lon="13.3909349609"><ele>1982.12</ele><time>2026-03-11T14:35:41Z</time><extensions><gpxtpx:TrackPointExtension><gpxtpx:atemp>3.5</gpxtpx:atemp></gpxtpx:TrackPointExtension></extensions></trkpt><trkpt lat="42.1848942339" lon="13.3909497969"><ele>1981.94</ele><time>2026-03-11T14:35:42Z</time><extensions><gpxtpx:TrackPointExtension><gpxtpx:atemp>3.5</gpxtpx:atemp></gpxtpx:TrackPointExtension></extensions></trkpt><trkpt lat="42.1849078964" lon="13.3909658901"><ele>1981.74</ele><time>2026-03-11T14:35:43Z</time><extensions><gpxtpx:TrackPointExtension><gpxtpx:atemp>3.5</gpxtpx:atemp></gpxtpx:TrackPointExtension></extensions></trkpt><trkpt lat="42.1849276777" lon="13.3909706678"><ele>1981.43</ele><time>2026-03-11T14:35:44Z</time><extensions><gpxtpx:TrackPointExtension><gpxtpx:atemp>3.5</gpxtpx:atemp></gpxtpx:TrackPointExtension></extensions></trkpt><trkpt lat="42.1849448606" lon="13.3909667283"><ele>1981.00</ele><time>2026-03-11T14:35:45Z</time><extensions><gpxtpx:TrackPointExtension><gpxtpx:atemp>3.5</gpxtpx:atemp></gpxtpx:TrackPointExtension></extensions></trkpt><trkpt lat="42.1849569306" lon="13.3909565862"><ele>1980.54</ele><time>2026-03-11T14:35:46Z</time><extensions><gpxtpx:TrackPointExtension><gpxtpx:atemp>3.5</gpxtpx:atemp></gpxtpx:TrackPointExtension></extensions></trkpt><trkpt lat="42.1849626303" lon="13.3909513894"><ele>1980.07</ele><time>2026-03-11T14:35:47Z</time><extensions><gpxtpx:TrackPointExtension><gpxtpx:atemp>3.5</gpxtpx:atemp></gpxtpx:TrackPointExtension></extensions></trkpt><trkpt lat="42.1849655639" lon="13.3909493778"><ele>1979.70</ele><time>2026-03-11T14:35:48Z</time><extensions><gpxtpx:TrackPointExtension><gpxtpx:atemp>3.5</gpxtpx:atemp></gpxtpx:TrackPointExtension></extensions></trkpt><trkpt lat="42.1849703416" lon="13.3909482881"><ele>1979.43</ele><time>2026-03-11T14:35:49Z</time><extensions><gpxtpx:TrackPointExtension><gpxtpx:atemp>3.5</gpxtpx:atemp></gpxtpx:TrackPointExtension></extensions></trkpt><trkpt lat="42.1849781368" lon="13.3909468632"><ele>1979.18</ele><time>2026-03-11T14:35:50Z</time><extensions><gpxtpx:TrackPointExtension><gpxtpx:atemp>3.5</gpxtpx:atemp></gpxtpx:TrackPointExtension></extensions></trkpt><trkpt lat="42.1849879436" lon="13.3909451868"><ele>1978.93</ele><time>2026-03-11T14:35:51Z</time><extensions><gpxtpx:TrackPointExtension><gpxtpx:atemp>3.5</gpxtpx:atemp></gpxtpx:TrackPointExtension></extensions></trkpt><trkpt lat="42.1849961579" lon="13.3909432590"><ele>1978.58</ele><time>2026-03-11T14:35:52Z</time><extensions><gpxtpx:TrackPointExtension><gpxtpx:atemp>3.5</gpxtpx:atemp></gpxtpx:TrackPointExtension></extensions></trkpt><trkpt lat="42.1850004327" lon="13.3909422532"><ele>1978.44</ele><time>2026-03-11T14:35:53Z</time><extensions><gpxtpx:TrackPointExtension><gpxtpx:atemp>3.5</gpxtpx:atemp></gpxtpx:TrackPointExtension></extensions></trkpt><trkpt lat="42.1850026958" lon="13.3909418341"><ele>1978.28</ele><time>2026-03-11T14:35:54Z</time><extensions><gpxtpx:TrackPointExtension><gpxtpx:atemp>3.5</gpxtpx:atemp></gpxtpx:TrackPointExtension></extensions></trkpt><trkpt lat="42.1850053780" lon="13.3909424208"><ele>1978.14</ele><time>2026-03-11T14:35:55Z</time><extensions><gpxtpx:TrackPointExtension><gpxtpx:atemp>3.5</gpxtpx:atemp></gpxtpx:TrackPointExtension></extensions></trkpt><trkpt lat="42.1850130893" lon="13.3909442648"><ele>1978.04</ele><time>2026-03-11T14:35:56Z</time><extensions><gpxtpx:TrackPointExtension><gpxtpx:atemp>3.5</gpxtpx:atemp></gpxtpx:TrackPointExtension></extensions></trkpt><trkpt lat="42.1850254945" lon="13.3909463603"><ele>1977.94</ele><time>2026-03-11T14:35:57Z</time><extensions><gpxtpx:TrackPointExtension><gpxtpx:atemp>3.5</gpxtpx:atemp></gpxtpx:TrackPointExtension></extensions></trkpt><trkpt lat="42.1850393247" lon="13.3909483720"><ele>1977.85</ele><time>2026-03-11T14:35:58Z</time><extensions><gpxtpx:TrackPointExtension><gpxtpx:atemp>3.5</gpxtpx:atemp></gpxtpx:TrackPointExtension></extensions></trkpt><trkpt lat="42.1850499697" lon="13.3909488749"><ele>1977.75</ele><time>2026-03-11T14:35:59Z</time><extensions><gpxtpx:TrackPointExtension><gpxtpx:atemp>3.5</gpxtpx:atemp></gpxtpx:TrackPointExtension></extensions></trkpt><trkpt lat="42.1850556694" lon="13.3909488749"><ele>1977.64</ele><time>2026-03-11T14:36:00Z</time><extensions><gpxtpx:TrackPointExtension><gpxtpx:atemp>3.5</gpxtpx:atemp></gpxtpx:TrackPointExtension></extensions></trkpt><trkpt lat="42.1850584354" lon="13.3909493778"><ele>1977.47</ele><time>2026-03-11T14:36:01Z</time><extensions><gpxtpx:TrackPointExtension><gpxtpx:atemp>3.5</gpxtpx:atemp></gpxtpx:TrackPointExtension></extensions></trkpt><trkpt lat="42.1850615367" lon="13.3909519762"><ele>1977.25</ele><time>2026-03-11T14:36:02Z</time><extensions><gpxtpx:TrackPointExtension><gpxtpx:atemp>3.5</gpxtpx:atemp></gpxtpx:TrackPointExtension></extensions></trkpt><trkpt lat="42.1850657277" lon="13.3909613639"><ele>1977.05</ele><time>2026-03-11T14:36:03Z</time><extensions><gpxtpx:TrackPointExtension><gpxtpx:atemp>3.5</gpxtpx:atemp></gpxtpx:TrackPointExtension></extensions></trkpt><trkpt lat="42.1850656439" lon="13.3909813967"><ele>1976.73</ele><time>2026-03-11T14:36:04Z</time><extensions><gpxtpx:TrackPointExtension><gpxtpx:atemp>3.5</gpxtpx:atemp></gpxtpx:TrackPointExtension></extensions></trkpt><trkpt lat="42.1850592736" lon="13.3910088893"><ele>1976.53</ele><time>2026-03-11T14:36:05Z</time><extensions><gpxtpx:TrackPointExtension><gpxtpx:atemp>3.5</gpxtpx:atemp></gpxtpx:TrackPointExtension></extensions></trkpt><trkpt lat="42.1850460302" lon="13.3910330292"><ele>1976.26</ele><time>2026-03-11T14:36:06Z</time><extensions><gpxtpx:TrackPointExtension><gpxtpx:atemp>3.5</gpxtpx:atemp></gpxtpx:TrackPointExtension></extensions></trkpt><trkpt lat="42.1850349661" lon="13.3910472784"><ele>1975.96</ele><time>2026-03-11T14:36:07Z</time><extensions><gpxtpx:TrackPointExtension><gpxtpx:atemp>3.5</gpxtpx:atemp></gpxtpx:TrackPointExtension></extensions></trkpt><trkpt lat="42.1850274224" lon="13.3910531458"><ele>1975.61</ele><time>2026-03-11T14:36:08Z</time><extensions><gpxtpx:TrackPointExtension><gpxtpx:atemp>3.5</gpxtpx:atemp></gpxtpx:TrackPointExtension></extensions></trkpt><trkpt lat="42.1850244887" lon="13.3910566662"><ele>1975.28</ele><time>2026-03-11T14:36:09Z</time><extensions><gpxtpx:TrackPointExtension><gpxtpx:atemp>3.5</gpxtpx:atemp></gpxtpx:TrackPointExtension></extensions></trkpt><trkpt lat="42.1850227285" lon="13.3910612762"><ele>1975.03</ele><time>2026-03-11T14:36:10Z</time><extensions><gpxtpx:TrackPointExtension><gpxtpx:atemp>3.5</gpxtpx:atemp></gpxtpx:TrackPointExtension></extensions></trkpt><trkpt lat="42.1850243211" lon="13.3910705801"><ele>1974.84</ele><time>2026-03-11T14:36:11Z</time><extensions><gpxtpx:TrackPointExtension><gpxtpx:atemp>3.5</gpxtpx:atemp></gpxtpx:TrackPointExtension></extensions></trkpt><trkpt lat="42.1850346308" lon="13.3910833206"><ele>1974.65</ele><time>2026-03-11T14:36:12Z</time><extensions><gpxtpx:TrackPointExtension><gpxtpx:atemp>3.5</gpxtpx:atemp></gpxtpx:TrackPointExtension></extensions></trkpt><trkpt lat="42.1850540768" lon="13.3910935465"><ele>1974.44</ele><time>2026-03-11T14:36:13Z</time><extensions><gpxtpx:TrackPointExtension><gpxtpx:atemp>3.5</gpxtpx:atemp></gpxtpx:TrackPointExtension></extensions></trkpt><trkpt lat="42.1850758698" lon="13.3910967316"><ele>1974.18</ele><time>2026-03-11T14:36:14Z</time><extensions><gpxtpx:TrackPointExtension><gpxtpx:atemp>3.5</gpxtpx:atemp></gpxtpx:TrackPointExtension></extensions></trkpt><trkpt lat="42.1850911248" lon="13.3910962287"><ele>1973.56</ele><time>2026-03-11T14:36:15Z</time><extensions><gpxtpx:TrackPointExtension><gpxtpx:atemp>3.5</gpxtpx:atemp></gpxtpx:TrackPointExtension></extensions></trkpt><trkpt lat="42.1850987524" lon="13.3910968993"><ele>1973.19</ele><time>2026-03-11T14:36:16Z</time><extensions><gpxtpx:TrackPointExtension><gpxtpx:atemp>3.5</gpxtpx:atemp></gpxtpx:TrackPointExtension></extensions></trkpt><trkpt lat="42.1851038653" lon="13.3911004197"><ele>1972.90</ele><time>2026-03-11T14:36:17Z</time><extensions><gpxtpx:TrackPointExtension><gpxtpx:atemp>3.5</gpxtpx:atemp></gpxtpx:TrackPointExtension></extensions></trkpt><trkpt lat="42.1851100679" lon="13.3911054488"><ele>1972.71</ele><time>2026-03-11T14:36:18Z</time><extensions><gpxtpx:TrackPointExtension><gpxtpx:atemp>3.5</gpxtpx:atemp></gpxtpx:TrackPointExtension></extensions></trkpt><trkpt lat="42.1851202939" lon="13.3911124896"><ele>1972.53</ele><time>2026-03-11T14:36:19Z</time><extensions><gpxtpx:TrackPointExtension><gpxtpx:atemp>3.5</gpxtpx:atemp></gpxtpx:TrackPointExtension></extensions></trkpt><trkpt lat="42.1851321962" lon="13.3911192790"><ele>1972.34</ele><time>2026-03-11T14:36:20Z</time><extensions><gpxtpx:TrackPointExtension><gpxtpx:atemp>3.5</gpxtpx:atemp></gpxtpx:TrackPointExtension></extensions></trkpt><trkpt lat="42.1851441823" lon="13.3911235537"><ele>1972.11</ele><time>2026-03-11T14:36:21Z</time><extensions><gpxtpx:TrackPointExtension><gpxtpx:atemp>3.5</gpxtpx:atemp></gpxtpx:TrackPointExtension></extensions></trkpt><trkpt lat="42.1851512231" lon="13.3911246434"><ele>1971.88</ele><time>2026-03-11T14:36:22Z</time><extensions><gpxtpx:TrackPointExtension><gpxtpx:atemp>3.5</gpxtpx:atemp></gpxtpx:TrackPointExtension></extensions></trkpt><trkpt lat="42.1851540729" lon="13.3911240567"><ele>1971.64</ele><time>2026-03-11T14:36:23Z</time><extensions><gpxtpx:TrackPointExtension><gpxtpx:atemp>3.5</gpxtpx:atemp></gpxtpx:TrackPointExtension></extensions></trkpt><trkpt lat="42.1851547435" lon="13.3911233861"><ele>1971.43</ele><time>2026-03-11T14:36:24Z</time><extensions><gpxtpx:TrackPointExtension><gpxtpx:atemp>3.5</gpxtpx:atemp></gpxtpx:TrackPointExtension></extensions></trkpt><trkpt lat="42.1851563361" lon="13.3911230508"><ele>1971.25</ele><time>2026-03-11T14:36:25Z</time><extensions><gpxtpx:TrackPointExtension><gpxtpx:atemp>3.5</gpxtpx:atemp></gpxtpx:TrackPointExtension></extensions></trkpt><trkpt lat="42.1851601917" lon="13.3911233861"><ele>1971.10</ele><time>2026-03-11T14:36:26Z</time><extensions><gpxtpx:TrackPointExtension><gpxtpx:atemp>3.5</gpxtpx:atemp></gpxtpx:TrackPointExtension></extensions></trkpt><trkpt lat="42.1851659752" lon="13.3911245596"><ele>1970.85</ele><time>2026-03-11T14:36:27Z</time><extensions><gpxtpx:TrackPointExtension><gpxtpx:atemp>3.5</gpxtpx:atemp></gpxtpx:TrackPointExtension></extensions></trkpt><trkpt lat="42.1851727646" lon="13.3911260683"><ele>1970.77</ele><time>2026-03-11T14:36:28Z</time><extensions><gpxtpx:TrackPointExtension><gpxtpx:atemp>3.5</gpxtpx:atemp></gpxtpx:TrackPointExtension></extensions></trkpt><trkpt lat="42.1851775423" lon="13.3911275771"><ele>1970.69</ele><time>2026-03-11T14:36:29Z</time><extensions><gpxtpx:TrackPointExtension><gpxtpx:atemp>3.5</gpxtpx:atemp></gpxtpx:TrackPointExtension></extensions></trkpt><trkpt lat="42.1851793863" lon="13.3911285829"><ele>1970.62</ele><time>2026-03-11T14:36:30Z</time><extensions><gpxtpx:TrackPointExtension><gpxtpx:atemp>3.5</gpxtpx:atemp></gpxtpx:TrackPointExtension></extensions></trkpt><trkpt lat="42.1851781290" lon="13.3911296725"><ele>1970.55</ele><time>2026-03-11T14:36:31Z</time><extensions><gpxtpx:TrackPointExtension><gpxtpx:atemp>3.5</gpxtpx:atemp></gpxtpx:TrackPointExtension></extensions></trkpt><trkpt lat="42.1851765364" lon="13.3911304269"><ele>1970.51</ele><time>2026-03-11T14:36:32Z</time><extensions><gpxtpx:TrackPointExtension><gpxtpx:atemp>3.5</gpxtpx:atemp></gpxtpx:TrackPointExtension></extensions></trkpt><trkpt lat="42.1851750277" lon="13.3911316842"><ele>1970.44</ele><time>2026-03-11T14:36:33Z</time><extensions><gpxtpx:TrackPointExtension><gpxtpx:atemp>3.5</gpxtpx:atemp></gpxtpx:TrackPointExtension></extensions></trkpt><trkpt lat="42.1851748601" lon="13.3911324386"><ele>1970.36</ele><time>2026-03-11T14:36:34Z</time><extensions><gpxtpx:TrackPointExtension><gpxtpx:atemp>3.5</gpxtpx:atemp></gpxtpx:TrackPointExtension></extensions></trkpt><trkpt lat="42.1851750277" lon="13.3911332767"><ele>1970.27</ele><time>2026-03-11T14:36:35Z</time><extensions><gpxtpx:TrackPointExtension><gpxtpx:atemp>3.5</gpxtpx:atemp></gpxtpx:TrackPointExtension></extensions></trkpt><trkpt lat="42.1851755306" lon="13.3911347855"><ele>1970.21</ele><time>2026-03-11T14:36:36Z</time><extensions><gpxtpx:TrackPointExtension><gpxtpx:atemp>3.5</gpxtpx:atemp></gpxtpx:TrackPointExtension></extensions></trkpt><trkpt lat="42.1851759497" lon="13.3911360428"><ele>1970.15</ele><time>2026-03-11T14:36:37Z</time><extensions><gpxtpx:TrackPointExtension><gpxtpx:atemp>3.5</gpxtpx:atemp></gpxtpx:TrackPointExtension></extensions></trkpt><trkpt lat="42.1851760335" lon="13.3911383897"><ele>1970.11</ele><time>2026-03-11T14:36:38Z</time><extensions><gpxtpx:TrackPointExtension><gpxtpx:atemp>3.5</gpxtpx:atemp></gpxtpx:TrackPointExtension></extensions></trkpt><trkpt lat="42.1851768717" lon="13.3911393955"><ele>1970.05</ele><time>2026-03-11T14:36:39Z</time><extensions><gpxtpx:TrackPointExtension><gpxtpx:atemp>3.5</gpxtpx:atemp></gpxtpx:TrackPointExtension></extensions></trkpt><trkpt lat="42.1851765364" lon="13.3911410719"><ele>1970.02</ele><time>2026-03-11T14:36:40Z</time><extensions><gpxtpx:TrackPointExtension><gpxtpx:atemp>3.5</gpxtpx:atemp></gpxtpx:TrackPointExtension></extensions></trkpt><trkpt lat="42.1851763688" lon="13.3911410719"><ele>1970.00</ele><time>2026-03-11T14:36:41Z</time><extensions><gpxtpx:TrackPointExtension><gpxtpx:atemp>3.5</gpxtpx:atemp></gpxtpx:TrackPointExtension></extensions></trkpt><trkpt lat="42.1851755306" lon="13.3911418263"><ele>1969.95</ele><time>2026-03-11T14:36:42Z</time><extensions><gpxtpx:TrackPointExtension><gpxtpx:atemp>3.5</gpxtpx:atemp></gpxtpx:TrackPointExtension></extensions></trkpt><trkpt lat="42.1851749439" lon="13.3911419939"><ele>1969.91</ele><time>2026-03-11T14:36:43Z</time><extensions><gpxtpx:TrackPointExtension><gpxtpx:atemp>3.5</gpxtpx:atemp></gpxtpx:TrackPointExtension></extensions></trkpt><trkpt lat="42.1851746924" lon="13.3911425807"><ele>1969.84</ele><time>2026-03-11T14:36:44Z</time><extensions><gpxtpx:TrackPointExtension><gpxtpx:atemp>3.5</gpxtpx:atemp></gpxtpx:TrackPointExtension></extensions></trkpt><trkpt lat="42.1851749439" lon="13.3911429998"><ele>1969.81</ele><time>2026-03-11T14:36:45Z</time><extensions><gpxtpx:TrackPointExtension><gpxtpx:atemp>3.5</gpxtpx:atemp></gpxtpx:TrackPointExtension></extensions></trkpt><trkpt lat="42.1851764526" lon="13.3911455981"><ele>1969.78</ele><time>2026-03-11T14:36:46Z</time><extensions><gpxtpx:TrackPointExtension><gpxtpx:atemp>3.5</gpxtpx:atemp></gpxtpx:TrackPointExtension></extensions></trkpt><trkpt lat="42.1851783805" lon="13.3911524713"><ele>1969.74</ele><time>2026-03-11T14:36:47Z</time><extensions><gpxtpx:TrackPointExtension><gpxtpx:atemp>3.5</gpxtpx:atemp></gpxtpx:TrackPointExtension></extensions></trkpt><trkpt lat="42.1851744410" lon="13.3911691513"><ele>1969.69</ele><time>2026-03-11T14:36:48Z</time><extensions><gpxtpx:TrackPointExtension><gpxtpx:atemp>3.5</gpxtpx:atemp></gpxtpx:TrackPointExtension></extensions></trkpt><trkpt lat="42.1851648856" lon="13.3911936264"><ele>1969.61</ele><time>2026-03-11T14:36:49Z</time><extensions><gpxtpx:TrackPointExtension><gpxtpx:atemp>3.5</gpxtpx:atemp></gpxtpx:TrackPointExtension></extensions></trkpt><trkpt lat="42.1851521451" lon="13.3912187722"><ele>1969.34</ele><time>2026-03-11T14:36:50Z</time><extensions><gpxtpx:TrackPointExtension><gpxtpx:atemp>3.5</gpxtpx:atemp></gpxtpx:TrackPointExtension></extensions></trkpt><trkpt lat="42.1851436794" lon="13.3912379667"><ele>1969.06</ele><time>2026-03-11T14:36:51Z</time><extensions><gpxtpx:TrackPointExtension><gpxtpx:atemp>3.5</gpxtpx:atemp></gpxtpx:TrackPointExtension></extensions></trkpt><trkpt lat="42.1851380635" lon="13.3912520483"><ele>1968.81</ele><time>2026-03-11T14:36:52Z</time><extensions><gpxtpx:TrackPointExtension><gpxtpx:atemp>3.5</gpxtpx:atemp></gpxtpx:TrackPointExtension></extensions></trkpt><trkpt lat="42.1851322800" lon="13.3912676387"><ele>1968.63</ele><time>2026-03-11T14:36:53Z</time><extensions><gpxtpx:TrackPointExtension><gpxtpx:atemp>3.5</gpxtpx:atemp></gpxtpx:TrackPointExtension></extensions></trkpt><trkpt lat="42.1851238981" lon="13.3912885934"><ele>1968.50</ele><time>2026-03-11T14:36:54Z</time><extensions><gpxtpx:TrackPointExtension><gpxtpx:atemp>3.5</gpxtpx:atemp></gpxtpx:TrackPointExtension></extensions></trkpt><trkpt lat="42.1851101518" lon="13.3913131524"><ele>1968.36</ele><time>2026-03-11T14:36:55Z</time><extensions><gpxtpx:TrackPointExtension><gpxtpx:atemp>3.5</gpxtpx:atemp></gpxtpx:TrackPointExtension></extensions></trkpt><trkpt lat="42.1850907896" lon="13.3913364541"><ele>1968.18</ele><time>2026-03-11T14:36:56Z</time><extensions><gpxtpx:TrackPointExtension><gpxtpx:atemp>3.5</gpxtpx:atemp></gpxtpx:TrackPointExtension></extensions></trkpt><trkpt lat="42.1850688290" lon="13.3913541399"><ele>1967.95</ele><time>2026-03-11T14:36:57Z</time><extensions><gpxtpx:TrackPointExtension><gpxtpx:atemp>3.5</gpxtpx:atemp></gpxtpx:TrackPointExtension></extensions></trkpt><trkpt lat="42.1850502212" lon="13.3913656231"><ele>1967.63</ele><time>2026-03-11T14:36:58Z</time><extensions><gpxtpx:TrackPointExtension><gpxtpx:atemp>3.5</gpxtpx:atemp></gpxtpx:TrackPointExtension></extensions></trkpt><trkpt lat="42.1850373968" lon="13.3913748432"><ele>1967.22</ele><time>2026-03-11T14:36:59Z</time><extensions><gpxtpx:TrackPointExtension><gpxtpx:atemp>3.5</gpxtpx:atemp></gpxtpx:TrackPointExtension></extensions></trkpt><trkpt lat="42.1850282606" lon="13.3913826384"><ele>1966.79</ele><time>2026-03-11T14:37:00Z</time><extensions><gpxtpx:TrackPointExtension><gpxtpx:atemp>3.5</gpxtpx:atemp></gpxtpx:TrackPointExtension></extensions></trkpt><trkpt lat="42.1850197949" lon="13.3913896792"><ele>1966.37</ele><time>2026-03-11T14:37:01Z</time><extensions><gpxtpx:TrackPointExtension><gpxtpx:atemp>3.5</gpxtpx:atemp></gpxtpx:TrackPointExtension></extensions></trkpt><trkpt lat="42.1850109939" lon="13.3913953789"><ele>1965.74</ele><time>2026-03-11T14:37:02Z</time><extensions><gpxtpx:TrackPointExtension><gpxtpx:atemp>3.5</gpxtpx:atemp></gpxtpx:TrackPointExtension></extensions></trkpt><trkpt lat="42.1850040369" lon="13.3913992345"><ele>1965.47</ele><time>2026-03-11T14:37:03Z</time><extensions><gpxtpx:TrackPointExtension><gpxtpx:atemp>3.5</gpxtpx:atemp></gpxtpx:TrackPointExtension></extensions></trkpt><trkpt lat="42.1850008518" lon="13.3914019167"><ele>1965.23</ele><time>2026-03-11T14:37:04Z</time><extensions><gpxtpx:TrackPointExtension><gpxtpx:atemp>3.5</gpxtpx:atemp></gpxtpx:TrackPointExtension></extensions></trkpt><trkpt lat="42.1850003488" lon="13.3914032578"><ele>1965.05</ele><time>2026-03-11T14:37:05Z</time><extensions><gpxtpx:TrackPointExtension><gpxtpx:atemp>3.5</gpxtpx:atemp></gpxtpx:TrackPointExtension></extensions></trkpt><trkpt lat="42.1849998459" lon="13.3914054371"><ele>1964.91</ele><time>2026-03-11T14:37:06Z</time><extensions><gpxtpx:TrackPointExtension><gpxtpx:atemp>3.5</gpxtpx:atemp></gpxtpx:TrackPointExtension></extensions></trkpt><trkpt lat="42.1849982534" lon="13.3914145734"><ele>1964.73</ele><time>2026-03-11T14:37:07Z</time><extensions><gpxtpx:TrackPointExtension><gpxtpx:atemp>3.5</gpxtpx:atemp></gpxtpx:TrackPointExtension></extensions></trkpt><trkpt lat="42.1849961579" lon="13.3914322592"><ele>1964.52</ele><time>2026-03-11T14:37:08Z</time><extensions><gpxtpx:TrackPointExtension><gpxtpx:atemp>3.5</gpxtpx:atemp></gpxtpx:TrackPointExtension></extensions></trkpt><trkpt lat="42.1849985886" lon="13.3914577402"><ele>1964.32</ele><time>2026-03-11T14:37:09Z</time><extensions><gpxtpx:TrackPointExtension><gpxtpx:atemp>3.5</gpxtpx:atemp></gpxtpx:TrackPointExtension></extensions></trkpt><trkpt lat="42.1850063838" lon="13.3914769348"><ele>1964.10</ele><time>2026-03-11T14:37:10Z</time><extensions><gpxtpx:TrackPointExtension><gpxtpx:atemp>3.5</gpxtpx:atemp></gpxtpx:TrackPointExtension></extensions></trkpt><trkpt lat="42.1850158554" lon="13.3914886694"><ele>1963.72</ele><time>2026-03-11T14:37:11Z</time><extensions><gpxtpx:TrackPointExtension><gpxtpx:atemp>3.5</gpxtpx:atemp></gpxtpx:TrackPointExtension></extensions></trkpt><trkpt lat="42.1850219741" lon="13.3914915193"><ele>1963.22</ele><time>2026-03-11T14:37:12Z</time><extensions><gpxtpx:TrackPointExtension><gpxtpx:atemp>3.5</gpxtpx:atemp></gpxtpx:TrackPointExtension></extensions></trkpt><trkpt lat="42.1850241534" lon="13.3914931957"><ele>1962.16</ele><time>2026-03-11T14:37:13Z</time><extensions><gpxtpx:TrackPointExtension><gpxtpx:atemp>3.5</gpxtpx:atemp></gpxtpx:TrackPointExtension></extensions></trkpt><trkpt lat="42.1850265842" lon="13.3914930280"><ele>1961.67</ele><time>2026-03-11T14:37:14Z</time><extensions><gpxtpx:TrackPointExtension><gpxtpx:atemp>3.5</gpxtpx:atemp></gpxtpx:TrackPointExtension></extensions></trkpt><trkpt lat="42.1850293502" lon="13.3914921898"><ele>1961.28</ele><time>2026-03-11T14:37:15Z</time><extensions><gpxtpx:TrackPointExtension><gpxtpx:atemp>3.5</gpxtpx:atemp></gpxtpx:TrackPointExtension></extensions></trkpt><trkpt lat="42.1850319486" lon="13.3914913516"><ele>1961.02</ele><time>2026-03-11T14:37:16Z</time><extensions><gpxtpx:TrackPointExtension><gpxtpx:atemp>3.5</gpxtpx:atemp></gpxtpx:TrackPointExtension></extensions></trkpt><trkpt lat="42.1850334574" lon="13.3914910164"><ele>1960.86</ele><time>2026-03-11T14:37:17Z</time><extensions><gpxtpx:TrackPointExtension><gpxtpx:atemp>3.5</gpxtpx:atemp></gpxtpx:TrackPointExtension></extensions></trkpt><trkpt lat="42.1850349661" lon="13.3914907649"><ele>1960.74</ele><time>2026-03-11T14:37:18Z</time><extensions><gpxtpx:TrackPointExtension><gpxtpx:atemp>3.5</gpxtpx:atemp></gpxtpx:TrackPointExtension></extensions></trkpt><trkpt lat="42.1850366425" lon="13.3914904296"><ele>1960.63</ele><time>2026-03-11T14:37:19Z</time><extensions><gpxtpx:TrackPointExtension><gpxtpx:atemp>3.5</gpxtpx:atemp></gpxtpx:TrackPointExtension></extensions></trkpt><trkpt lat="42.1850384865" lon="13.3914901782"><ele>1960.51</ele><time>2026-03-11T14:37:20Z</time><extensions><gpxtpx:TrackPointExtension><gpxtpx:atemp>3.5</gpxtpx:atemp></gpxtpx:TrackPointExtension></extensions></trkpt><trkpt lat="42.1850403305" lon="13.3914904296"><ele>1960.42</ele><time>2026-03-11T14:37:21Z</time><extensions><gpxtpx:TrackPointExtension><gpxtpx:atemp>3.5</gpxtpx:atemp></gpxtpx:TrackPointExtension></extensions></trkpt><trkpt lat="42.1850423422" lon="13.3914913516"><ele>1960.35</ele><time>2026-03-11T14:37:22Z</time><extensions><gpxtpx:TrackPointExtension><gpxtpx:atemp>3.5</gpxtpx:atemp></gpxtpx:TrackPointExtension></extensions></trkpt><trkpt lat="42.1850447729" lon="13.3914932795"><ele>1960.28</ele><time>2026-03-11T14:37:23Z</time><extensions><gpxtpx:TrackPointExtension><gpxtpx:atemp>3.5</gpxtpx:atemp></gpxtpx:TrackPointExtension></extensions></trkpt><trkpt lat="42.1850465331" lon="13.3914950397"><ele>1960.21</ele><time>2026-03-11T14:37:24Z</time><extensions><gpxtpx:TrackPointExtension><gpxtpx:atemp>3.5</gpxtpx:atemp></gpxtpx:TrackPointExtension></extensions></trkpt><trkpt lat="42.1850482933" lon="13.3914963808"><ele>1960.06</ele><time>2026-03-11T14:37:25Z</time><extensions><gpxtpx:TrackPointExtension><gpxtpx:atemp>3.5</gpxtpx:atemp></gpxtpx:TrackPointExtension></extensions></trkpt><trkpt lat="42.1850503888" lon="13.3914973866"><ele>1959.95</ele><time>2026-03-11T14:37:26Z</time><extensions><gpxtpx:TrackPointExtension><gpxtpx:atemp>3.5</gpxtpx:atemp></gpxtpx:TrackPointExtension></extensions></trkpt><trkpt lat="42.1850525681" lon="13.3914979734"><ele>1959.85</ele><time>2026-03-11T14:37:27Z</time><extensions><gpxtpx:TrackPointExtension><gpxtpx:atemp>3.5</gpxtpx:atemp></gpxtpx:TrackPointExtension></extensions></trkpt><trkpt lat="42.1850556694" lon="13.3915006556"><ele>1959.76</ele><time>2026-03-11T14:37:28Z</time><extensions><gpxtpx:TrackPointExtension><gpxtpx:atemp>3.5</gpxtpx:atemp></gpxtpx:TrackPointExtension></extensions></trkpt><trkpt lat="42.1850583516" lon="13.3915121388"><ele>1959.67</ele><time>2026-03-11T14:37:29Z</time><extensions><gpxtpx:TrackPointExtension><gpxtpx:atemp>3.5</gpxtpx:atemp></gpxtpx:TrackPointExtension></extensions></trkpt><trkpt lat="42.1850606985" lon="13.3915326744"><ele>1959.51</ele><time>2026-03-11T14:37:30Z</time><extensions><gpxtpx:TrackPointExtension><gpxtpx:atemp>3.5</gpxtpx:atemp></gpxtpx:TrackPointExtension></extensions></trkpt><trkpt lat="42.1850572620" lon="13.3915566467"><ele>1959.30</ele><time>2026-03-11T14:37:31Z</time><extensions><gpxtpx:TrackPointExtension><gpxtpx:atemp>3.5</gpxtpx:atemp></gpxtpx:TrackPointExtension></extensions></trkpt><trkpt lat="42.1850456949" lon="13.3915742487"><ele>1959.08</ele><time>2026-03-11T14:37:32Z</time><extensions><gpxtpx:TrackPointExtension><gpxtpx:atemp>3.3</gpxtpx:atemp></gpxtpx:TrackPointExtension></extensions></trkpt><trkpt lat="42.1850321162" lon="13.3915852290"><ele>1958.75</ele><time>2026-03-11T14:37:33Z</time><extensions><gpxtpx:TrackPointExtension><gpxtpx:atemp>3.3</gpxtpx:atemp></gpxtpx:TrackPointExtension></extensions></trkpt><trkpt lat="42.1850214712" lon="13.3915920183"><ele>1958.20</ele><time>2026-03-11T14:37:34Z</time><extensions><gpxtpx:TrackPointExtension><gpxtpx:atemp>3.3</gpxtpx:atemp></gpxtpx:TrackPointExtension></extensions></trkpt><trkpt lat="42.1850167774" lon="13.3915979695"><ele>1957.57</ele><time>2026-03-11T14:37:35Z</time><extensions><gpxtpx:TrackPointExtension><gpxtpx:atemp>3.3</gpxtpx:atemp></gpxtpx:TrackPointExtension></extensions></trkpt><trkpt lat="42.1850133408" lon="13.3916041721"><ele>1956.72</ele><time>2026-03-11T14:37:36Z</time><extensions><gpxtpx:TrackPointExtension><gpxtpx:atemp>3.3</gpxtpx:atemp></gpxtpx:TrackPointExtension></extensions></trkpt><trkpt lat="42.1850116644" lon="13.3916131407"><ele>1956.40</ele><time>2026-03-11T14:37:37Z</time><extensions><gpxtpx:TrackPointExtension><gpxtpx:atemp>3.3</gpxtpx:atemp></gpxtpx:TrackPointExtension></extensions></trkpt><trkpt lat="42.1850121673" lon="13.3916248754"><ele>1956.17</ele><time>2026-03-11T14:37:38Z</time><extensions><gpxtpx:TrackPointExtension><gpxtpx:atemp>3.3</gpxtpx:atemp></gpxtpx:TrackPointExtension></extensions></trkpt><trkpt lat="42.1850153524" lon="13.3916411363"><ele>1956.03</ele><time>2026-03-11T14:37:39Z</time><extensions><gpxtpx:TrackPointExtension><gpxtpx:atemp>3.3</gpxtpx:atemp></gpxtpx:TrackPointExtension></extensions></trkpt><trkpt lat="42.1850195434" lon="13.3916627616"><ele>1955.92</ele><time>2026-03-11T14:37:40Z</time><extensions><gpxtpx:TrackPointExtension><gpxtpx:atemp>3.3</gpxtpx:atemp></gpxtpx:TrackPointExtension></extensions></trkpt><trkpt lat="42.1850233991" lon="13.3916901704"><ele>1955.82</ele><time>2026-03-11T14:37:41Z</time><extensions><gpxtpx:TrackPointExtension><gpxtpx:atemp>3.3</gpxtpx:atemp></gpxtpx:TrackPointExtension></extensions></trkpt><trkpt lat="42.1850263327" lon="13.3917215187"><ele>1955.66</ele><time>2026-03-11T14:37:42Z</time><extensions><gpxtpx:TrackPointExtension><gpxtpx:atemp>3.3</gpxtpx:atemp></gpxtpx:TrackPointExtension></extensions></trkpt><trkpt lat="42.1850286797" lon="13.3917571418"><ele>1955.42</ele><time>2026-03-11T14:37:43Z</time><extensions><gpxtpx:TrackPointExtension><gpxtpx:atemp>3.3</gpxtpx:atemp></gpxtpx:TrackPointExtension></extensions></trkpt><trkpt lat="42.1850298531" lon="13.3917967882"><ele>1955.15</ele><time>2026-03-11T14:37:44Z</time><extensions><gpxtpx:TrackPointExtension><gpxtpx:atemp>3.3</gpxtpx:atemp></gpxtpx:TrackPointExtension></extensions></trkpt><trkpt lat="42.1850292664" lon="13.3918391168"><ele>1954.85</ele><time>2026-03-11T14:37:45Z</time><extensions><gpxtpx:TrackPointExtension><gpxtpx:atemp>3.3</gpxtpx:atemp></gpxtpx:TrackPointExtension></extensions></trkpt><trkpt lat="42.1850278415" lon="13.3918826189"><ele>1954.53</ele><time>2026-03-11T14:37:46Z</time><extensions><gpxtpx:TrackPointExtension><gpxtpx:atemp>3.3</gpxtpx:atemp></gpxtpx:TrackPointExtension></extensions></trkpt><trkpt lat="42.1850264166" lon="13.3919262886"><ele>1954.22</ele><time>2026-03-11T14:37:47Z</time><extensions><gpxtpx:TrackPointExtension><gpxtpx:atemp>3.3</gpxtpx:atemp></gpxtpx:TrackPointExtension></extensions></trkpt><trkpt lat="42.1850246564" lon="13.3919730596"><ele>1953.35</ele><time>2026-03-11T14:37:48Z</time><extensions><gpxtpx:TrackPointExtension><gpxtpx:atemp>3.3</gpxtpx:atemp></gpxtpx:TrackPointExtension></extensions></trkpt><trkpt lat="42.1850212198" lon="13.3920169808"><ele>1952.75</ele><time>2026-03-11T14:37:49Z</time><extensions><gpxtpx:TrackPointExtension><gpxtpx:atemp>3.3</gpxtpx:atemp></gpxtpx:TrackPointExtension></extensions></trkpt><trkpt lat="42.1850171965" lon="13.3920518495"><ele>1952.13</ele><time>2026-03-11T14:37:50Z</time><extensions><gpxtpx:TrackPointExtension><gpxtpx:atemp>3.3</gpxtpx:atemp></gpxtpx:TrackPointExtension></extensions></trkpt><trkpt lat="42.1850142628" lon="13.3920710441"><ele>1951.54</ele><time>2026-03-11T14:37:51Z</time><extensions><gpxtpx:TrackPointExtension><gpxtpx:atemp>3.3</gpxtpx:atemp></gpxtpx:TrackPointExtension></extensions></trkpt><trkpt lat="42.1850131731" lon="13.3920799289"><ele>1951.03</ele><time>2026-03-11T14:37:52Z</time><extensions><gpxtpx:TrackPointExtension><gpxtpx:atemp>3.3</gpxtpx:atemp></gpxtpx:TrackPointExtension></extensions></trkpt><trkpt lat="42.1850129217" lon="13.3920841198"><ele>1950.62</ele><time>2026-03-11T14:37:53Z</time><extensions><gpxtpx:TrackPointExtension><gpxtpx:atemp>3.3</gpxtpx:atemp></gpxtpx:TrackPointExtension></extensions></trkpt><trkpt lat="42.1850133408" lon="13.3920894843"><ele>1950.31</ele><time>2026-03-11T14:37:54Z</time><extensions><gpxtpx:TrackPointExtension><gpxtpx:atemp>3.3</gpxtpx:atemp></gpxtpx:TrackPointExtension></extensions></trkpt><trkpt lat="42.1850156877" lon="13.3920951840"><ele>1950.08</ele><time>2026-03-11T14:37:55Z</time><extensions><gpxtpx:TrackPointExtension><gpxtpx:atemp>3.3</gpxtpx:atemp></gpxtpx:TrackPointExtension></extensions></trkpt><trkpt lat="42.1850240696" lon="13.3920990396"><ele>1949.90</ele><time>2026-03-11T14:37:56Z</time><extensions><gpxtpx:TrackPointExtension><gpxtpx:atemp>3.3</gpxtpx:atemp></gpxtpx:TrackPointExtension></extensions></trkpt><trkpt lat="42.1850372292" lon="13.3920988720"><ele>1949.76</ele><time>2026-03-11T14:37:57Z</time><extensions><gpxtpx:TrackPointExtension><gpxtpx:atemp>3.3</gpxtpx:atemp></gpxtpx:TrackPointExtension></extensions></trkpt><trkpt lat="42.1850506403" lon="13.3920912445"><ele>1949.67</ele><time>2026-03-11T14:37:58Z</time><extensions><gpxtpx:TrackPointExtension><gpxtpx:atemp>3.3</gpxtpx:atemp></gpxtpx:TrackPointExtension></extensions></trkpt><trkpt lat="42.1850595251" lon="13.3920790907"><ele>1949.36</ele><time>2026-03-11T14:37:59Z</time><extensions><gpxtpx:TrackPointExtension><gpxtpx:atemp>3.3</gpxtpx:atemp></gpxtpx:TrackPointExtension></extensions></trkpt><trkpt lat="42.1850648895" lon="13.3920660987"><ele>1949.08</ele><time>2026-03-11T14:38:00Z</time><extensions><gpxtpx:TrackPointExtension><gpxtpx:atemp>3.3</gpxtpx:atemp></gpxtpx:TrackPointExtension></extensions></trkpt><trkpt lat="42.1850727685" lon="13.3920574654"><ele>1948.78</ele><time>2026-03-11T14:38:01Z</time><extensions><gpxtpx:TrackPointExtension><gpxtpx:atemp>3.3</gpxtpx:atemp></gpxtpx:TrackPointExtension></extensions></trkpt><trkpt lat="42.1850844193" lon="13.3920590580"><ele>1948.46</ele><time>2026-03-11T14:38:02Z</time><extensions><gpxtpx:TrackPointExtension><gpxtpx:atemp>3.3</gpxtpx:atemp></gpxtpx:TrackPointExtension></extensions></trkpt><trkpt lat="42.1850958187" lon="13.3920741454"><ele>1948.16</ele><time>2026-03-11T14:38:03Z</time><extensions><gpxtpx:TrackPointExtension><gpxtpx:atemp>3.3</gpxtpx:atemp></gpxtpx:TrackPointExtension></extensions></trkpt><trkpt lat="42.1851028595" lon="13.3921013866"><ele>1947.93</ele><time>2026-03-11T14:38:04Z</time><extensions><gpxtpx:TrackPointExtension><gpxtpx:atemp>3.3</gpxtpx:atemp></gpxtpx:TrackPointExtension></extensions></trkpt><trkpt lat="42.1851044521" lon="13.3921309747"><ele>1947.69</ele><time>2026-03-11T14:38:05Z</time><extensions><gpxtpx:TrackPointExtension><gpxtpx:atemp>3.3</gpxtpx:atemp></gpxtpx:TrackPointExtension></extensions></trkpt><trkpt lat="42.1851057932" lon="13.3921554498"><ele>1947.34</ele><time>2026-03-11T14:38:06Z</time><extensions><gpxtpx:TrackPointExtension><gpxtpx:atemp>3.3</gpxtpx:atemp></gpxtpx:TrackPointExtension></extensions></trkpt><trkpt lat="42.1851076372" lon="13.3921761531"><ele>1946.92</ele><time>2026-03-11T14:38:07Z</time><extensions><gpxtpx:TrackPointExtension><gpxtpx:atemp>3.3</gpxtpx:atemp></gpxtpx:TrackPointExtension></extensions></trkpt><trkpt lat="42.1851115767" lon="13.3921968564"><ele>1946.52</ele><time>2026-03-11T14:38:08Z</time><extensions><gpxtpx:TrackPointExtension><gpxtpx:atemp>3.3</gpxtpx:atemp></gpxtpx:TrackPointExtension></extensions></trkpt><trkpt lat="42.1851148456" lon="13.3922172245"><ele>1946.13</ele><time>2026-03-11T14:38:09Z</time><extensions><gpxtpx:TrackPointExtension><gpxtpx:atemp>3.3</gpxtpx:atemp></gpxtpx:TrackPointExtension></extensions></trkpt><trkpt lat="42.1851173602" lon="13.3922351617"><ele>1945.76</ele><time>2026-03-11T14:38:10Z</time><extensions><gpxtpx:TrackPointExtension><gpxtpx:atemp>3.3</gpxtpx:atemp></gpxtpx:TrackPointExtension></extensions></trkpt><trkpt lat="42.1851187851" lon="13.3922491595"><ele>1945.28</ele><time>2026-03-11T14:38:11Z</time><extensions><gpxtpx:TrackPointExtension><gpxtpx:atemp>3.3</gpxtpx:atemp></gpxtpx:TrackPointExtension></extensions></trkpt><trkpt lat="42.1851206291" lon="13.3922613971"><ele>1945.13</ele><time>2026-03-11T14:38:12Z</time><extensions><gpxtpx:TrackPointExtension><gpxtpx:atemp>3.3</gpxtpx:atemp></gpxtpx:TrackPointExtension></extensions></trkpt><trkpt lat="42.1851245686" lon="13.3922758978"><ele>1945.00</ele><time>2026-03-11T14:38:13Z</time><extensions><gpxtpx:TrackPointExtension><gpxtpx:atemp>3.3</gpxtpx:atemp></gpxtpx:TrackPointExtension></extensions></trkpt><trkpt lat="42.1851294301" lon="13.3922953438"><ele>1944.84</ele><time>2026-03-11T14:38:14Z</time><extensions><gpxtpx:TrackPointExtension><gpxtpx:atemp>3.3</gpxtpx:atemp></gpxtpx:TrackPointExtension></extensions></trkpt><trkpt lat="42.1851344593" lon="13.3923192322"><ele>1944.64</ele><time>2026-03-11T14:38:15Z</time><extensions><gpxtpx:TrackPointExtension><gpxtpx:atemp>3.3</gpxtpx:atemp></gpxtpx:TrackPointExtension></extensions></trkpt><trkpt lat="42.1851372253" lon="13.3923436236"><ele>1944.44</ele><time>2026-03-11T14:38:16Z</time><extensions><gpxtpx:TrackPointExtension><gpxtpx:atemp>3.3</gpxtpx:atemp></gpxtpx:TrackPointExtension></extensions></trkpt><trkpt lat="42.1851380635" lon="13.3923667576"><ele>1944.24</ele><time>2026-03-11T14:38:17Z</time><extensions><gpxtpx:TrackPointExtension><gpxtpx:atemp>3.3</gpxtpx:atemp></gpxtpx:TrackPointExtension></extensions></trkpt><trkpt lat="42.1851412486" lon="13.3923884667"><ele>1944.05</ele><time>2026-03-11T14:38:18Z</time><extensions><gpxtpx:TrackPointExtension><gpxtpx:atemp>3.3</gpxtpx:atemp></gpxtpx:TrackPointExtension></extensions></trkpt><trkpt lat="42.1851510555" lon="13.3924082480"><ele>1943.80</ele><time>2026-03-11T14:38:19Z</time><extensions><gpxtpx:TrackPointExtension><gpxtpx:atemp>3.3</gpxtpx:atemp></gpxtpx:TrackPointExtension></extensions></trkpt><trkpt lat="42.1851681545" lon="13.3924219944"><ele>1943.46</ele><time>2026-03-11T14:38:20Z</time><extensions><gpxtpx:TrackPointExtension><gpxtpx:atemp>3.3</gpxtpx:atemp></gpxtpx:TrackPointExtension></extensions></trkpt><trkpt lat="42.1851894446" lon="13.3924289513"><ele>1943.11</ele><time>2026-03-11T14:38:21Z</time><extensions><gpxtpx:TrackPointExtension><gpxtpx:atemp>3.3</gpxtpx:atemp></gpxtpx:TrackPointExtension></extensions></trkpt><trkpt lat="42.1852121595" lon="13.3924273588"><ele>1942.51</ele><time>2026-03-11T14:38:22Z</time><extensions><gpxtpx:TrackPointExtension><gpxtpx:atemp>3.3</gpxtpx:atemp></gpxtpx:TrackPointExtension></extensions></trkpt><trkpt lat="42.1852338687" lon="13.3924184740"><ele>1942.18</ele><time>2026-03-11T14:38:23Z</time><extensions><gpxtpx:TrackPointExtension><gpxtpx:atemp>3.3</gpxtpx:atemp></gpxtpx:TrackPointExtension></extensions></trkpt><trkpt lat="42.1852533985" lon="13.3924035542"><ele>1941.75</ele><time>2026-03-11T14:38:24Z</time><extensions><gpxtpx:TrackPointExtension><gpxtpx:atemp>3.3</gpxtpx:atemp></gpxtpx:TrackPointExtension></extensions></trkpt><trkpt lat="42.1852658875" lon="13.3923869580"><ele>1941.27</ele><time>2026-03-11T14:38:25Z</time><extensions><gpxtpx:TrackPointExtension><gpxtpx:atemp>3.3</gpxtpx:atemp></gpxtpx:TrackPointExtension></extensions></trkpt><trkpt lat="42.1852719225" lon="13.3923722897"><ele>1940.82</ele><time>2026-03-11T14:38:26Z</time><extensions><gpxtpx:TrackPointExtension><gpxtpx:atemp>3.3</gpxtpx:atemp></gpxtpx:TrackPointExtension></extensions></trkpt><trkpt lat="42.1852721740" lon="13.3923616447"><ele>1940.42</ele><time>2026-03-11T14:38:27Z</time><extensions><gpxtpx:TrackPointExtension><gpxtpx:atemp>3.3</gpxtpx:atemp></gpxtpx:TrackPointExtension></extensions></trkpt><trkpt lat="42.1852708329" lon="13.3923555259"><ele>1940.08</ele><time>2026-03-11T14:38:28Z</time><extensions><gpxtpx:TrackPointExtension><gpxtpx:atemp>3.3</gpxtpx:atemp></gpxtpx:TrackPointExtension></extensions></trkpt><trkpt lat="42.1852690727" lon="13.3923529275"><ele>1939.79</ele><time>2026-03-11T14:38:29Z</time><extensions><gpxtpx:TrackPointExtension><gpxtpx:atemp>3.3</gpxtpx:atemp></gpxtpx:TrackPointExtension></extensions></trkpt><trkpt lat="42.1852676477" lon="13.3923523407"><ele>1939.53</ele><time>2026-03-11T14:38:30Z</time><extensions><gpxtpx:TrackPointExtension><gpxtpx:atemp>3.3</gpxtpx:atemp></gpxtpx:TrackPointExtension></extensions></trkpt><trkpt lat="42.1852670610" lon="13.3923526760"><ele>1939.29</ele><time>2026-03-11T14:38:31Z</time><extensions><gpxtpx:TrackPointExtension><gpxtpx:atemp>3.3</gpxtpx:atemp></gpxtpx:TrackPointExtension></extensions></trkpt><trkpt lat="42.1852675639" lon="13.3923536818"><ele>1939.09</ele><time>2026-03-11T14:38:32Z</time><extensions><gpxtpx:TrackPointExtension><gpxtpx:atemp>3.3</gpxtpx:atemp></gpxtpx:TrackPointExtension></extensions></trkpt><trkpt lat="42.1852682345" lon="13.3923537657"><ele>1938.94</ele><time>2026-03-11T14:38:33Z</time><extensions><gpxtpx:TrackPointExtension><gpxtpx:atemp>3.3</gpxtpx:atemp></gpxtpx:TrackPointExtension></extensions></trkpt><trkpt lat="42.1852713358" lon="13.3923512511"><ele>1938.76</ele><time>2026-03-11T14:38:34Z</time><extensions><gpxtpx:TrackPointExtension><gpxtpx:atemp>3.3</gpxtpx:atemp></gpxtpx:TrackPointExtension></extensions></trkpt><trkpt lat="42.1852769516" lon="13.3923461381"><ele>1938.70</ele><time>2026-03-11T14:38:35Z</time><extensions><gpxtpx:TrackPointExtension><gpxtpx:atemp>3.3</gpxtpx:atemp></gpxtpx:TrackPointExtension></extensions></trkpt><trkpt lat="42.1852895245" lon="13.3923518378"><ele>1938.61</ele><time>2026-03-11T14:38:36Z</time><extensions><gpxtpx:TrackPointExtension><gpxtpx:atemp>3.3</gpxtpx:atemp></gpxtpx:TrackPointExtension></extensions></trkpt><trkpt lat="42.1853058692" lon="13.3923715353"><ele>1938.49</ele><time>2026-03-11T14:38:37Z</time><extensions><gpxtpx:TrackPointExtension><gpxtpx:atemp>3.3</gpxtpx:atemp></gpxtpx:TrackPointExtension></extensions></trkpt><trkpt lat="42.1853220463" lon="13.3924073260"><ele>1938.30</ele><time>2026-03-11T14:38:38Z</time><extensions><gpxtpx:TrackPointExtension><gpxtpx:atemp>3.3</gpxtpx:atemp></gpxtpx:TrackPointExtension></extensions></trkpt><trkpt lat="42.1853346191" lon="13.3924453799"><ele>1937.99</ele><time>2026-03-11T14:38:39Z</time><extensions><gpxtpx:TrackPointExtension><gpxtpx:atemp>3.3</gpxtpx:atemp></gpxtpx:TrackPointExtension></extensions></trkpt><trkpt lat="42.1853431687" lon="13.3924838528"><ele>1937.58</ele><time>2026-03-11T14:38:40Z</time><extensions><gpxtpx:TrackPointExtension><gpxtpx:atemp>3.3</gpxtpx:atemp></gpxtpx:TrackPointExtension></extensions></trkpt><trkpt lat="42.1853532270" lon="13.3925191406"><ele>1937.15</ele><time>2026-03-11T14:38:41Z</time><extensions><gpxtpx:TrackPointExtension><gpxtpx:atemp>3.3</gpxtpx:atemp></gpxtpx:TrackPointExtension></extensions></trkpt><trkpt lat="42.1853625309" lon="13.3925536741"><ele>1936.77</ele><time>2026-03-11T14:38:42Z</time><extensions><gpxtpx:TrackPointExtension><gpxtpx:atemp>3.3</gpxtpx:atemp></gpxtpx:TrackPointExtension></extensions></trkpt><trkpt lat="42.1853692364" lon="13.3925852738"><ele>1936.37</ele><time>2026-03-11T14:38:43Z</time><extensions><gpxtpx:TrackPointExtension><gpxtpx:atemp>3.3</gpxtpx:atemp></gpxtpx:TrackPointExtension></extensions></trkpt><trkpt lat="42.1853705775" lon="13.3926141914"><ele>1935.99</ele><time>2026-03-11T14:38:44Z</time><extensions><gpxtpx:TrackPointExtension><gpxtpx:atemp>3.3</gpxtpx:atemp></gpxtpx:TrackPointExtension></extensions></trkpt><trkpt lat="42.1853688173" lon="13.3926396724"><ele>1935.20</ele><time>2026-03-11T14:38:45Z</time><extensions><gpxtpx:TrackPointExtension><gpxtpx:atemp>3.3</gpxtpx:atemp></gpxtpx:TrackPointExtension></extensions></trkpt><trkpt lat="42.1853674762" lon="13.3926661592"><ele>1934.72</ele><time>2026-03-11T14:38:46Z</time><extensions><gpxtpx:TrackPointExtension><gpxtpx:atemp>3.3</gpxtpx:atemp></gpxtpx:TrackPointExtension></extensions></trkpt><trkpt lat="42.1853674762" lon="13.3926969208"><ele>1934.33</ele><time>2026-03-11T14:38:47Z</time><extensions><gpxtpx:TrackPointExtension><gpxtpx:atemp>3.3</gpxtpx:atemp></gpxtpx:TrackPointExtension></extensions></trkpt><trkpt lat="42.1853696555" lon="13.3927328791"><ele>1933.99</ele><time>2026-03-11T14:38:48Z</time><extensions><gpxtpx:TrackPointExtension><gpxtpx:atemp>3.3</gpxtpx:atemp></gpxtpx:TrackPointExtension></extensions></trkpt><trkpt lat="42.1853760257" lon="13.3927726932"><ele>1933.61</ele><time>2026-03-11T14:38:49Z</time><extensions><gpxtpx:TrackPointExtension><gpxtpx:atemp>3.3</gpxtpx:atemp></gpxtpx:TrackPointExtension></extensions></trkpt><trkpt lat="42.1853892691" lon="13.3928145189"><ele>1933.25</ele><time>2026-03-11T14:38:50Z</time><extensions><gpxtpx:TrackPointExtension><gpxtpx:atemp>3.3</gpxtpx:atemp></gpxtpx:TrackPointExtension></extensions></trkpt><trkpt lat="42.1854101401" lon="13.3928554226"><ele>1932.88</ele><time>2026-03-11T14:38:51Z</time><extensions><gpxtpx:TrackPointExtension><gpxtpx:atemp>3.3</gpxtpx:atemp></gpxtpx:TrackPointExtension></extensions></trkpt><trkpt lat="42.1854378842" lon="13.3928916324"><ele>1932.38</ele><time>2026-03-11T14:38:52Z</time><extensions><gpxtpx:TrackPointExtension><gpxtpx:atemp>3.3</gpxtpx:atemp></gpxtpx:TrackPointExtension></extensions></trkpt><trkpt lat="42.1854702383" lon="13.3929206338"><ele>1931.81</ele><time>2026-03-11T14:38:53Z</time><extensions><gpxtpx:TrackPointExtension><gpxtpx:atemp>3.3</gpxtpx:atemp></gpxtpx:TrackPointExtension></extensions></trkpt><trkpt lat="42.1855021734" lon="13.3929417562"><ele>1931.22</ele><time>2026-03-11T14:38:54Z</time><extensions><gpxtpx:TrackPointExtension><gpxtpx:atemp>3.3</gpxtpx:atemp></gpxtpx:TrackPointExtension></extensions></trkpt><trkpt lat="42.1855285764" lon="13.3929562569"><ele>1930.58</ele><time>2026-03-11T14:38:55Z</time><extensions><gpxtpx:TrackPointExtension><gpxtpx:atemp>3.3</gpxtpx:atemp></gpxtpx:TrackPointExtension></extensions></trkpt><trkpt lat="42.1855459269" lon="13.3929657284"><ele>1929.95</ele><time>2026-03-11T14:38:56Z</time><extensions><gpxtpx:TrackPointExtension><gpxtpx:atemp>3.3</gpxtpx:atemp></gpxtpx:TrackPointExtension></extensions></trkpt><trkpt lat="42.1855567396" lon="13.3929718472"><ele>1928.98</ele><time>2026-03-11T14:38:57Z</time><extensions><gpxtpx:TrackPointExtension><gpxtpx:atemp>3.3</gpxtpx:atemp></gpxtpx:TrackPointExtension></extensions></trkpt><trkpt lat="42.1855623554" lon="13.3929765411"><ele>1928.66</ele><time>2026-03-11T14:38:58Z</time><extensions><gpxtpx:TrackPointExtension><gpxtpx:atemp>3.3</gpxtpx:atemp></gpxtpx:TrackPointExtension></extensions></trkpt><trkpt lat="42.1855659597" lon="13.3929814864"><ele>1928.45</ele><time>2026-03-11T14:38:59Z</time><extensions><gpxtpx:TrackPointExtension><gpxtpx:atemp>3.3</gpxtpx:atemp></gpxtpx:TrackPointExtension></extensions></trkpt><trkpt lat="42.1855679713" lon="13.3929875214"><ele>1928.35</ele><time>2026-03-11T14:39:00Z</time><extensions><gpxtpx:TrackPointExtension><gpxtpx:atemp>3.3</gpxtpx:atemp></gpxtpx:TrackPointExtension></extensions></trkpt><trkpt lat="42.1855706535" lon="13.3929945622"><ele>1928.29</ele><time>2026-03-11T14:39:01Z</time><extensions><gpxtpx:TrackPointExtension><gpxtpx:atemp>3.3</gpxtpx:atemp></gpxtpx:TrackPointExtension></extensions></trkpt><trkpt lat="42.1855742577" lon="13.3930025250"><ele>1928.23</ele><time>2026-03-11T14:39:02Z</time><extensions><gpxtpx:TrackPointExtension><gpxtpx:atemp>3.3</gpxtpx:atemp></gpxtpx:TrackPointExtension></extensions></trkpt><trkpt lat="42.1855781972" lon="13.3930123318"><ele>1928.16</ele><time>2026-03-11T14:39:03Z</time><extensions><gpxtpx:TrackPointExtension><gpxtpx:atemp>3.3</gpxtpx:atemp></gpxtpx:TrackPointExtension></extensions></trkpt><trkpt lat="42.1855818853" lon="13.3930215519"><ele>1928.12</ele><time>2026-03-11T14:39:04Z</time><extensions><gpxtpx:TrackPointExtension><gpxtpx:atemp>3.3</gpxtpx:atemp></gpxtpx:TrackPointExtension></extensions></trkpt><trkpt lat="42.1855854895" lon="13.3930315264"><ele>1928.09</ele><time>2026-03-11T14:39:05Z</time><extensions><gpxtpx:TrackPointExtension><gpxtpx:atemp>3.3</gpxtpx:atemp></gpxtpx:TrackPointExtension></extensions></trkpt><trkpt lat="42.1855890937" lon="13.3930404950"><ele>1928.06</ele><time>2026-03-11T14:39:06Z</time><extensions><gpxtpx:TrackPointExtension><gpxtpx:atemp>3.3</gpxtpx:atemp></gpxtpx:TrackPointExtension></extensions></trkpt><trkpt lat="42.1855943743" lon="13.3930510562"><ele>1928.01</ele><time>2026-03-11T14:39:07Z</time><extensions><gpxtpx:TrackPointExtension><gpxtpx:atemp>3.3</gpxtpx:atemp></gpxtpx:TrackPointExtension></extensions></trkpt><trkpt lat="42.1856002416" lon="13.3930597734"><ele>1927.87</ele><time>2026-03-11T14:39:08Z</time><extensions><gpxtpx:TrackPointExtension><gpxtpx:atemp>3.3</gpxtpx:atemp></gpxtpx:TrackPointExtension></extensions></trkpt><trkpt lat="42.1856066957" lon="13.3930670656"><ele>1927.84</ele><time>2026-03-11T14:39:09Z</time><extensions><gpxtpx:TrackPointExtension><gpxtpx:atemp>3.3</gpxtpx:atemp></gpxtpx:TrackPointExtension></extensions></trkpt><trkpt lat="42.1856129821" lon="13.3930724300"><ele>1927.85</ele><time>2026-03-11T14:39:10Z</time><extensions><gpxtpx:TrackPointExtension><gpxtpx:atemp>3.3</gpxtpx:atemp></gpxtpx:TrackPointExtension></extensions></trkpt><trkpt lat="42.1856179275" lon="13.3930773754"><ele>1927.85</ele><time>2026-03-11T14:39:11Z</time><extensions><gpxtpx:TrackPointExtension><gpxtpx:atemp>3.3</gpxtpx:atemp></gpxtpx:TrackPointExtension></extensions></trkpt><trkpt lat="42.1856232919" lon="13.3930827398"><ele>1927.87</ele><time>2026-03-11T14:39:12Z</time><extensions><gpxtpx:TrackPointExtension><gpxtpx:atemp>3.3</gpxtpx:atemp></gpxtpx:TrackPointExtension></extensions></trkpt><trkpt lat="42.1856259741" lon="13.3930874337"><ele>1927.90</ele><time>2026-03-11T14:39:13Z</time><extensions><gpxtpx:TrackPointExtension><gpxtpx:atemp>3.3</gpxtpx:atemp></gpxtpx:TrackPointExtension></extensions></trkpt><trkpt lat="42.1856288239" lon="13.3930928819"><ele>1927.91</ele><time>2026-03-11T14:39:14Z</time><extensions><gpxtpx:TrackPointExtension><gpxtpx:atemp>3.3</gpxtpx:atemp></gpxtpx:TrackPointExtension></extensions></trkpt><trkpt lat="42.1856307518" lon="13.3930980787"><ele>1927.93</ele><time>2026-03-11T14:39:15Z</time><extensions><gpxtpx:TrackPointExtension><gpxtpx:atemp>3.3</gpxtpx:atemp></gpxtpx:TrackPointExtension></extensions></trkpt><trkpt lat="42.1856340207" lon="13.3931028564"><ele>1927.96</ele><time>2026-03-11T14:39:16Z</time><extensions><gpxtpx:TrackPointExtension><gpxtpx:atemp>3.3</gpxtpx:atemp></gpxtpx:TrackPointExtension></extensions></trkpt><trkpt lat="42.1856372897" lon="13.3931067958"><ele>1927.96</ele><time>2026-03-11T14:39:17Z</time><extensions><gpxtpx:TrackPointExtension><gpxtpx:atemp>3.3</gpxtpx:atemp></gpxtpx:TrackPointExtension></extensions></trkpt><trkpt lat="42.1856400557" lon="13.3931106515"><ele>1927.95</ele><time>2026-03-11T14:39:18Z</time><extensions><gpxtpx:TrackPointExtension><gpxtpx:atemp>3.3</gpxtpx:atemp></gpxtpx:TrackPointExtension></extensions></trkpt><trkpt lat="42.1856419835" lon="13.3931144234"><ele>1927.95</ele><time>2026-03-11T14:39:19Z</time><extensions><gpxtpx:TrackPointExtension><gpxtpx:atemp>3.3</gpxtpx:atemp></gpxtpx:TrackPointExtension></extensions></trkpt><trkpt lat="42.1856443305" lon="13.3931197878"><ele>1927.99</ele><time>2026-03-11T14:39:20Z</time><extensions><gpxtpx:TrackPointExtension><gpxtpx:atemp>3.3</gpxtpx:atemp></gpxtpx:TrackPointExtension></extensions></trkpt><trkpt lat="42.1856471803" lon="13.3931247331"><ele>1927.98</ele><time>2026-03-11T14:39:21Z</time><extensions><gpxtpx:TrackPointExtension><gpxtpx:atemp>3.3</gpxtpx:atemp></gpxtpx:TrackPointExtension></extensions></trkpt><trkpt lat="42.1856497787" lon="13.3931291755"><ele>1927.98</ele><time>2026-03-11T14:39:22Z</time><extensions><gpxtpx:TrackPointExtension><gpxtpx:atemp>3.3</gpxtpx:atemp></gpxtpx:TrackPointExtension></extensions></trkpt><trkpt lat="42.1856514551" lon="13.3931327797"><ele>1927.98</ele><time>2026-03-11T14:39:23Z</time><extensions><gpxtpx:TrackPointExtension><gpxtpx:atemp>3.3</gpxtpx:atemp></gpxtpx:TrackPointExtension></extensions></trkpt><trkpt lat="42.1856531315" lon="13.3931363840"><ele>1927.98</ele><time>2026-03-11T14:39:24Z</time><extensions><gpxtpx:TrackPointExtension><gpxtpx:atemp>3.3</gpxtpx:atemp></gpxtpx:TrackPointExtension></extensions></trkpt><trkpt lat="42.1856554784" lon="13.3931404911"><ele>1927.98</ele><time>2026-03-11T14:39:25Z</time><extensions><gpxtpx:TrackPointExtension><gpxtpx:atemp>3.3</gpxtpx:atemp></gpxtpx:TrackPointExtension></extensions></trkpt><trkpt lat="42.1856585797" lon="13.3931445982"><ele>1928.01</ele><time>2026-03-11T14:39:26Z</time><extensions><gpxtpx:TrackPointExtension><gpxtpx:atemp>3.3</gpxtpx:atemp></gpxtpx:TrackPointExtension></extensions></trkpt><trkpt lat="42.1856631897" lon="13.3931478672"><ele>1928.04</ele><time>2026-03-11T14:39:27Z</time><extensions><gpxtpx:TrackPointExtension><gpxtpx:atemp>3.3</gpxtpx:atemp></gpxtpx:TrackPointExtension></extensions></trkpt><trkpt lat="42.1856675483" lon="13.3931512199"><ele>1928.09</ele><time>2026-03-11T14:39:28Z</time><extensions><gpxtpx:TrackPointExtension><gpxtpx:atemp>3.3</gpxtpx:atemp></gpxtpx:TrackPointExtension></extensions></trkpt><trkpt lat="42.1856714878" lon="13.3931545727"><ele>1928.12</ele><time>2026-03-11T14:39:29Z</time><extensions><gpxtpx:TrackPointExtension><gpxtpx:atemp>3.3</gpxtpx:atemp></gpxtpx:TrackPointExtension></extensions></trkpt><trkpt lat="42.1856740862" lon="13.3931594342"><ele>1928.15</ele><time>2026-03-11T14:39:30Z</time><extensions><gpxtpx:TrackPointExtension><gpxtpx:atemp>3.3</gpxtpx:atemp></gpxtpx:TrackPointExtension></extensions></trkpt><trkpt lat="42.1856767684" lon="13.3931666426"><ele>1928.19</ele><time>2026-03-11T14:39:31Z</time><extensions><gpxtpx:TrackPointExtension><gpxtpx:atemp>3.3</gpxtpx:atemp></gpxtpx:TrackPointExtension></extensions></trkpt><trkpt lat="42.1856795345" lon="13.3931729291"><ele>1928.20</ele><time>2026-03-11T14:39:32Z</time><extensions><gpxtpx:TrackPointExtension><gpxtpx:atemp>3.3</gpxtpx:atemp></gpxtpx:TrackPointExtension></extensions></trkpt><trkpt lat="42.1856821328" lon="13.3931775391"><ele>1928.26</ele><time>2026-03-11T14:39:33Z</time><extensions><gpxtpx:TrackPointExtension><gpxtpx:atemp>3.3</gpxtpx:atemp></gpxtpx:TrackPointExtension></extensions></trkpt><trkpt lat="42.1856849827" lon="13.3931802213"><ele>1928.32</ele><time>2026-03-11T14:39:34Z</time><extensions><gpxtpx:TrackPointExtension><gpxtpx:atemp>3.3</gpxtpx:atemp></gpxtpx:TrackPointExtension></extensions></trkpt><trkpt lat="42.1856879164" lon="13.3931828197"><ele>1928.38</ele><time>2026-03-11T14:39:35Z</time><extensions><gpxtpx:TrackPointExtension><gpxtpx:atemp>3.3</gpxtpx:atemp></gpxtpx:TrackPointExtension></extensions></trkpt><trkpt lat="42.1856908500" lon="13.3931853343"><ele>1928.42</ele><time>2026-03-11T14:39:36Z</time><extensions><gpxtpx:TrackPointExtension><gpxtpx:atemp>3.3</gpxtpx:atemp></gpxtpx:TrackPointExtension></extensions></trkpt><trkpt lat="42.1856942866" lon="13.3931871783"><ele>1928.47</ele><time>2026-03-11T14:39:37Z</time><extensions><gpxtpx:TrackPointExtension><gpxtpx:atemp>3.3</gpxtpx:atemp></gpxtpx:TrackPointExtension></extensions></trkpt><trkpt lat="42.1856979746" lon="13.3931852505"><ele>1928.56</ele><time>2026-03-11T14:39:38Z</time><extensions><gpxtpx:TrackPointExtension><gpxtpx:atemp>3.3</gpxtpx:atemp></gpxtpx:TrackPointExtension></extensions></trkpt><trkpt lat="42.1857021656" lon="13.3931847475"><ele>1928.62</ele><time>2026-03-11T14:39:39Z</time><extensions><gpxtpx:TrackPointExtension><gpxtpx:atemp>3.3</gpxtpx:atemp></gpxtpx:TrackPointExtension></extensions></trkpt><trkpt lat="42.1857074462" lon="13.3931857534"><ele>1928.68</ele><time>2026-03-11T14:39:40Z</time><extensions><gpxtpx:TrackPointExtension><gpxtpx:atemp>3.3</gpxtpx:atemp></gpxtpx:TrackPointExtension></extensions></trkpt><trkpt lat="42.1857134812" lon="13.3931912854"><ele>1928.72</ele><time>2026-03-11T14:39:41Z</time><extensions><gpxtpx:TrackPointExtension><gpxtpx:atemp>3.3</gpxtpx:atemp></gpxtpx:TrackPointExtension></extensions></trkpt><trkpt lat="42.1857208572" lon="13.3931962308"><ele>1928.75</ele><time>2026-03-11T14:39:42Z</time><extensions><gpxtpx:TrackPointExtension><gpxtpx:atemp>3.3</gpxtpx:atemp></gpxtpx:TrackPointExtension></extensions></trkpt><trkpt lat="42.1857282333" lon="13.3932001702"><ele>1928.85</ele><time>2026-03-11T14:39:43Z</time><extensions><gpxtpx:TrackPointExtension><gpxtpx:atemp>3.3</gpxtpx:atemp></gpxtpx:TrackPointExtension></extensions></trkpt><trkpt lat="42.1857362799" lon="13.3932041936"><ele>1928.87</ele><time>2026-03-11T14:39:44Z</time><extensions><gpxtpx:TrackPointExtension><gpxtpx:atemp>3.3</gpxtpx:atemp></gpxtpx:TrackPointExtension></extensions></trkpt><trkpt lat="42.1857447457" lon="13.3932072949"><ele>1928.91</ele><time>2026-03-11T14:39:45Z</time><extensions><gpxtpx:TrackPointExtension><gpxtpx:atemp>3.3</gpxtpx:atemp></gpxtpx:TrackPointExtension></extensions></trkpt><trkpt lat="42.1857534628" lon="13.3932079654"><ele>1928.96</ele><time>2026-03-11T14:39:46Z</time><extensions><gpxtpx:TrackPointExtension><gpxtpx:atemp>3.3</gpxtpx:atemp></gpxtpx:TrackPointExtension></extensions></trkpt><trkpt lat="42.1857618447" lon="13.3932064567"><ele>1928.96</ele><time>2026-03-11T14:39:47Z</time><extensions><gpxtpx:TrackPointExtension><gpxtpx:atemp>3.3</gpxtpx:atemp></gpxtpx:TrackPointExtension></extensions></trkpt><trkpt lat="42.1857696399" lon="13.3932062890"><ele>1928.97</ele><time>2026-03-11T14:39:48Z</time><extensions><gpxtpx:TrackPointExtension><gpxtpx:atemp>3.3</gpxtpx:atemp></gpxtpx:TrackPointExtension></extensions></trkpt><trkpt lat="42.1857766807" lon="13.3932090551"><ele>1928.98</ele><time>2026-03-11T14:39:49Z</time><extensions><gpxtpx:TrackPointExtension><gpxtpx:atemp>3.3</gpxtpx:atemp></gpxtpx:TrackPointExtension></extensions></trkpt><trkpt lat="42.1857834700" lon="13.3932135813"><ele>1928.98</ele><time>2026-03-11T14:39:50Z</time><extensions><gpxtpx:TrackPointExtension><gpxtpx:atemp>3.3</gpxtpx:atemp></gpxtpx:TrackPointExtension></extensions></trkpt><trkpt lat="42.1857896727" lon="13.3932195324"><ele>1928.98</ele><time>2026-03-11T14:39:51Z</time><extensions><gpxtpx:TrackPointExtension><gpxtpx:atemp>3.3</gpxtpx:atemp></gpxtpx:TrackPointExtension></extensions></trkpt><trkpt lat="42.1857954562" lon="13.3932265732"><ele>1928.98</ele><time>2026-03-11T14:39:52Z</time><extensions><gpxtpx:TrackPointExtension><gpxtpx:atemp>3.3</gpxtpx:atemp></gpxtpx:TrackPointExtension></extensions></trkpt><trkpt lat="42.1858004853" lon="13.3932351228"><ele>1928.98</ele><time>2026-03-11T14:39:53Z</time><extensions><gpxtpx:TrackPointExtension><gpxtpx:atemp>3.3</gpxtpx:atemp></gpxtpx:TrackPointExtension></extensions></trkpt><trkpt lat="42.1858053468" lon="13.3932439238"><ele>1928.98</ele><time>2026-03-11T14:39:54Z</time><extensions><gpxtpx:TrackPointExtension><gpxtpx:atemp>3.3</gpxtpx:atemp></gpxtpx:TrackPointExtension></extensions></trkpt><trkpt lat="42.1858107951" lon="13.3932533953"><ele>1928.94</ele><time>2026-03-11T14:39:55Z</time><extensions><gpxtpx:TrackPointExtension><gpxtpx:atemp>3.3</gpxtpx:atemp></gpxtpx:TrackPointExtension></extensions></trkpt><trkpt lat="42.1858179197" lon="13.3932658844"><ele>1928.92</ele><time>2026-03-11T14:39:56Z</time><extensions><gpxtpx:TrackPointExtension><gpxtpx:atemp>3.3</gpxtpx:atemp></gpxtpx:TrackPointExtension></extensions></trkpt><trkpt lat="42.1858257987" lon="13.3932806365"><ele>1928.87</ele><time>2026-03-11T14:39:57Z</time><extensions><gpxtpx:TrackPointExtension><gpxtpx:atemp>3.3</gpxtpx:atemp></gpxtpx:TrackPointExtension></extensions></trkpt><trkpt lat="42.1858344320" lon="13.3932979871"><ele>1928.77</ele><time>2026-03-11T14:39:58Z</time><extensions><gpxtpx:TrackPointExtension><gpxtpx:atemp>3.3</gpxtpx:atemp></gpxtpx:TrackPointExtension></extensions></trkpt><trkpt lat="42.1858438198" lon="13.3933164272"><ele>1928.61</ele><time>2026-03-11T14:39:59Z</time><extensions><gpxtpx:TrackPointExtension><gpxtpx:atemp>3.3</gpxtpx:atemp></gpxtpx:TrackPointExtension></extensions></trkpt><trkpt lat="42.1858539619" lon="13.3933366276"><ele>1928.43</ele><time>2026-03-11T14:40:00Z</time><extensions><gpxtpx:TrackPointExtension><gpxtpx:atemp>3.3</gpxtpx:atemp></gpxtpx:TrackPointExtension></extensions></trkpt><trkpt lat="42.1858641878" lon="13.3933596779"><ele>1928.31</ele><time>2026-03-11T14:40:01Z</time><extensions><gpxtpx:TrackPointExtension><gpxtpx:atemp>3.3</gpxtpx:atemp></gpxtpx:TrackPointExtension></extensions></trkpt><trkpt lat="42.1858735755" lon="13.3933834825"><ele>1928.23</ele><time>2026-03-11T14:40:02Z</time><extensions><gpxtpx:TrackPointExtension><gpxtpx:atemp>3.3</gpxtpx:atemp></gpxtpx:TrackPointExtension></extensions></trkpt><trkpt lat="42.1858820412" lon="13.3934077900"><ele>1928.15</ele><time>2026-03-11T14:40:03Z</time><extensions><gpxtpx:TrackPointExtension><gpxtpx:atemp>3.3</gpxtpx:atemp></gpxtpx:TrackPointExtension></extensions></trkpt><trkpt lat="42.1858901717" lon="13.3934306726"><ele>1928.08</ele><time>2026-03-11T14:40:04Z</time><extensions><gpxtpx:TrackPointExtension><gpxtpx:atemp>3.3</gpxtpx:atemp></gpxtpx:TrackPointExtension></extensions></trkpt><trkpt lat="42.1858979668" lon="13.3934521303"><ele>1927.97</ele><time>2026-03-11T14:40:05Z</time><extensions><gpxtpx:TrackPointExtension><gpxtpx:atemp>3.3</gpxtpx:atemp></gpxtpx:TrackPointExtension></extensions></trkpt><trkpt lat="42.1859054267" lon="13.3934716601"><ele>1927.72</ele><time>2026-03-11T14:40:06Z</time><extensions><gpxtpx:TrackPointExtension><gpxtpx:atemp>3.3</gpxtpx:atemp></gpxtpx:TrackPointExtension></extensions></trkpt><trkpt lat="42.1859117970" lon="13.3934881724"><ele>1927.57</ele><time>2026-03-11T14:40:07Z</time><extensions><gpxtpx:TrackPointExtension><gpxtpx:atemp>3.3</gpxtpx:atemp></gpxtpx:TrackPointExtension></extensions></trkpt><trkpt lat="42.1859173290" lon="13.3935014997"><ele>1927.42</ele><time>2026-03-11T14:40:08Z</time><extensions><gpxtpx:TrackPointExtension><gpxtpx:atemp>3.3</gpxtpx:atemp></gpxtpx:TrackPointExtension></extensions></trkpt><trkpt lat="42.1859216876" lon="13.3935121447"><ele>1927.29</ele><time>2026-03-11T14:40:09Z</time><extensions><gpxtpx:TrackPointExtension><gpxtpx:atemp>3.3</gpxtpx:atemp></gpxtpx:TrackPointExtension></extensions></trkpt><trkpt lat="42.1859247889" lon="13.3935219515"><ele>1927.17</ele><time>2026-03-11T14:40:10Z</time><extensions><gpxtpx:TrackPointExtension><gpxtpx:atemp>3.3</gpxtpx:atemp></gpxtpx:TrackPointExtension></extensions></trkpt><trkpt lat="42.1859257948" lon="13.3935326803"><ele>1927.09</ele><time>2026-03-11T14:40:11Z</time><extensions><gpxtpx:TrackPointExtension><gpxtpx:atemp>3.3</gpxtpx:atemp></gpxtpx:TrackPointExtension></extensions></trkpt><trkpt lat="42.1859260462" lon="13.3935440797"><ele>1927.02</ele><time>2026-03-11T14:40:12Z</time><extensions><gpxtpx:TrackPointExtension><gpxtpx:atemp>3.3</gpxtpx:atemp></gpxtpx:TrackPointExtension></extensions></trkpt><trkpt lat="42.1859276388" lon="13.3935524616"><ele>1926.96</ele><time>2026-03-11T14:40:13Z</time><extensions><gpxtpx:TrackPointExtension><gpxtpx:atemp>3.3</gpxtpx:atemp></gpxtpx:TrackPointExtension></extensions></trkpt><trkpt lat="42.1859306563" lon="13.3935608435"><ele>1926.90</ele><time>2026-03-11T14:40:14Z</time><extensions><gpxtpx:TrackPointExtension><gpxtpx:atemp>3.3</gpxtpx:atemp></gpxtpx:TrackPointExtension></extensions></trkpt><trkpt lat="42.1859349310" lon="13.3935687225"><ele>1926.86</ele><time>2026-03-11T14:40:15Z</time><extensions><gpxtpx:TrackPointExtension><gpxtpx:atemp>3.3</gpxtpx:atemp></gpxtpx:TrackPointExtension></extensions></trkpt><trkpt lat="42.1859375294" lon="13.3935775235"><ele>1926.81</ele><time>2026-03-11T14:40:16Z</time><extensions><gpxtpx:TrackPointExtension><gpxtpx:atemp>3.3</gpxtpx:atemp></gpxtpx:TrackPointExtension></extensions></trkpt><trkpt lat="42.1859400440" lon="13.3935829718"><ele>1926.76</ele><time>2026-03-11T14:40:17Z</time><extensions><gpxtpx:TrackPointExtension><gpxtpx:atemp>3.3</gpxtpx:atemp></gpxtpx:TrackPointExtension></extensions></trkpt><trkpt lat="42.1859404631" lon="13.3935860731"><ele>1926.71</ele><time>2026-03-11T14:40:18Z</time><extensions><gpxtpx:TrackPointExtension><gpxtpx:atemp>3.3</gpxtpx:atemp></gpxtpx:TrackPointExtension></extensions></trkpt><trkpt lat="42.1859402955" lon="13.3935867436"><ele>1926.71</ele><time>2026-03-11T14:40:19Z</time><extensions><gpxtpx:TrackPointExtension><gpxtpx:atemp>3.3</gpxtpx:atemp></gpxtpx:TrackPointExtension></extensions></trkpt><trkpt lat="42.1859387867" lon="13.3935863245"><ele>1926.71</ele><time>2026-03-11T14:40:20Z</time><extensions><gpxtpx:TrackPointExtension><gpxtpx:atemp>3.3</gpxtpx:atemp></gpxtpx:TrackPointExtension></extensions></trkpt><trkpt lat="42.1859379485" lon="13.3935850672"><ele>1926.71</ele><time>2026-03-11T14:40:21Z</time><extensions><gpxtpx:TrackPointExtension><gpxtpx:atemp>3.3</gpxtpx:atemp></gpxtpx:TrackPointExtension></extensions></trkpt><trkpt lat="42.1859377809" lon="13.3935844805"><ele>1926.73</ele><time>2026-03-11T14:40:22Z</time><extensions><gpxtpx:TrackPointExtension><gpxtpx:atemp>3.3</gpxtpx:atemp></gpxtpx:TrackPointExtension></extensions></trkpt><trkpt lat="42.1859378647" lon="13.3935839776"><ele>1926.76</ele><time>2026-03-11T14:40:23Z</time><extensions><gpxtpx:TrackPointExtension><gpxtpx:atemp>3.3</gpxtpx:atemp></gpxtpx:TrackPointExtension></extensions></trkpt><trkpt lat="42.1859385353" lon="13.3935844805"><ele>1926.80</ele><time>2026-03-11T14:40:24Z</time><extensions><gpxtpx:TrackPointExtension><gpxtpx:atemp>3.3</gpxtpx:atemp></gpxtpx:TrackPointExtension></extensions></trkpt><trkpt lat="42.1859400440" lon="13.3935864922"><ele>1926.84</ele><time>2026-03-11T14:40:25Z</time><extensions><gpxtpx:TrackPointExtension><gpxtpx:atemp>3.3</gpxtpx:atemp></gpxtpx:TrackPointExtension></extensions></trkpt><trkpt lat="42.1859427262" lon="13.3935912699"><ele>1926.85</ele><time>2026-03-11T14:40:26Z</time><extensions><gpxtpx:TrackPointExtension><gpxtpx:atemp>3.3</gpxtpx:atemp></gpxtpx:TrackPointExtension></extensions></trkpt><trkpt lat="42.1859453246" lon="13.3935980592"><ele>1926.87</ele><time>2026-03-11T14:40:27Z</time><extensions><gpxtpx:TrackPointExtension><gpxtpx:atemp>3.3</gpxtpx:atemp></gpxtpx:TrackPointExtension></extensions></trkpt><trkpt lat="42.1859477554" lon="13.3936060220"><ele>1926.89</ele><time>2026-03-11T14:40:28Z</time><extensions><gpxtpx:TrackPointExtension><gpxtpx:atemp>3.3</gpxtpx:atemp></gpxtpx:TrackPointExtension></extensions></trkpt><trkpt lat="42.1859505214" lon="13.3936122246"><ele>1926.92</ele><time>2026-03-11T14:40:29Z</time><extensions><gpxtpx:TrackPointExtension><gpxtpx:atemp>3.3</gpxtpx:atemp></gpxtpx:TrackPointExtension></extensions></trkpt><trkpt lat="42.1859536227" lon="13.3936162479"><ele>1926.92</ele><time>2026-03-11T14:40:30Z</time><extensions><gpxtpx:TrackPointExtension><gpxtpx:atemp>3.3</gpxtpx:atemp></gpxtpx:TrackPointExtension></extensions></trkpt><trkpt lat="42.1859561373" lon="13.3936182596"><ele>1926.91</ele><time>2026-03-11T14:40:31Z</time><extensions><gpxtpx:TrackPointExtension><gpxtpx:atemp>3.3</gpxtpx:atemp></gpxtpx:TrackPointExtension></extensions></trkpt><trkpt lat="42.1859578975" lon="13.3936200198"><ele>1926.89</ele><time>2026-03-11T14:40:32Z</time><extensions><gpxtpx:TrackPointExtension><gpxtpx:atemp>3.4</gpxtpx:atemp></gpxtpx:TrackPointExtension></extensions></trkpt><trkpt lat="42.1859593224" lon="13.3936242945"><ele>1926.89</ele><time>2026-03-11T14:40:33Z</time><extensions><gpxtpx:TrackPointExtension><gpxtpx:atemp>3.4</gpxtpx:atemp></gpxtpx:TrackPointExtension></extensions></trkpt><trkpt lat="42.1859622560" lon="13.3936293237"><ele>1926.89</ele><time>2026-03-11T14:40:34Z</time><extensions><gpxtpx:TrackPointExtension><gpxtpx:atemp>3.4</gpxtpx:atemp></gpxtpx:TrackPointExtension></extensions></trkpt><trkpt lat="42.1859637648" lon="13.3936352748"><ele>1926.89</ele><time>2026-03-11T14:40:35Z</time><extensions><gpxtpx:TrackPointExtension><gpxtpx:atemp>3.4</gpxtpx:atemp></gpxtpx:TrackPointExtension></extensions></trkpt><trkpt lat="42.1859649383" lon="13.3936409745"><ele>1926.91</ele><time>2026-03-11T14:40:36Z</time><extensions><gpxtpx:TrackPointExtension><gpxtpx:atemp>3.4</gpxtpx:atemp></gpxtpx:TrackPointExtension></extensions></trkpt><trkpt lat="42.1859657764" lon="13.3936454169"><ele>1926.98</ele><time>2026-03-11T14:40:37Z</time><extensions><gpxtpx:TrackPointExtension><gpxtpx:atemp>3.4</gpxtpx:atemp></gpxtpx:TrackPointExtension></extensions></trkpt><trkpt lat="42.1859689616" lon="13.3936490212"><ele>1927.05</ele><time>2026-03-11T14:40:38Z</time><extensions><gpxtpx:TrackPointExtension><gpxtpx:atemp>3.4</gpxtpx:atemp></gpxtpx:TrackPointExtension></extensions></trkpt><trkpt lat="42.1859725658" lon="13.3936515357"><ele>1927.11</ele><time>2026-03-11T14:40:39Z</time><extensions><gpxtpx:TrackPointExtension><gpxtpx:atemp>3.4</gpxtpx:atemp></gpxtpx:TrackPointExtension></extensions></trkpt><trkpt lat="42.1859749965" lon="13.3936551400"><ele>1927.17</ele><time>2026-03-11T14:40:40Z</time><extensions><gpxtpx:TrackPointExtension><gpxtpx:atemp>3.4</gpxtpx:atemp></gpxtpx:TrackPointExtension></extensions></trkpt><trkpt lat="42.1859766729" lon="13.3936594985"><ele>1927.26</ele><time>2026-03-11T14:40:41Z</time><extensions><gpxtpx:TrackPointExtension><gpxtpx:atemp>3.4</gpxtpx:atemp></gpxtpx:TrackPointExtension></extensions></trkpt><trkpt lat="42.1859782655" lon="13.3936642762"><ele>1927.31</ele><time>2026-03-11T14:40:42Z</time><extensions><gpxtpx:TrackPointExtension><gpxtpx:atemp>3.4</gpxtpx:atemp></gpxtpx:TrackPointExtension></extensions></trkpt><trkpt lat="42.1859807801" lon="13.3936691377"><ele>1927.36</ele><time>2026-03-11T14:40:43Z</time><extensions><gpxtpx:TrackPointExtension><gpxtpx:atemp>3.4</gpxtpx:atemp></gpxtpx:TrackPointExtension></extensions></trkpt><trkpt lat="42.1859820373" lon="13.3936736640"><ele>1927.38</ele><time>2026-03-11T14:40:44Z</time><extensions><gpxtpx:TrackPointExtension><gpxtpx:atemp>3.4</gpxtpx:atemp></gpxtpx:TrackPointExtension></extensions></trkpt><trkpt lat="42.1859837975" lon="13.3936777711"><ele>1927.41</ele><time>2026-03-11T14:40:45Z</time><extensions><gpxtpx:TrackPointExtension><gpxtpx:atemp>3.4</gpxtpx:atemp></gpxtpx:TrackPointExtension></extensions></trkpt><trkpt lat="42.1859852225" lon="13.3936813753"><ele>1927.44</ele><time>2026-03-11T14:40:46Z</time><extensions><gpxtpx:TrackPointExtension><gpxtpx:atemp>3.4</gpxtpx:atemp></gpxtpx:TrackPointExtension></extensions></trkpt><trkpt lat="42.1859870665" lon="13.3936845604"><ele>1927.48</ele><time>2026-03-11T14:40:47Z</time><extensions><gpxtpx:TrackPointExtension><gpxtpx:atemp>3.4</gpxtpx:atemp></gpxtpx:TrackPointExtension></extensions></trkpt><trkpt lat="42.1859885752" lon="13.3936878294"><ele>1927.53</ele><time>2026-03-11T14:40:48Z</time><extensions><gpxtpx:TrackPointExtension><gpxtpx:atemp>3.4</gpxtpx:atemp></gpxtpx:TrackPointExtension></extensions></trkpt><trkpt lat="42.1859905869" lon="13.3936914336"><ele>1927.59</ele><time>2026-03-11T14:40:49Z</time><extensions><gpxtpx:TrackPointExtension><gpxtpx:atemp>3.4</gpxtpx:atemp></gpxtpx:TrackPointExtension></extensions></trkpt><trkpt lat="42.1859932691" lon="13.3936945349"><ele>1927.68</ele><time>2026-03-11T14:40:50Z</time><extensions><gpxtpx:TrackPointExtension><gpxtpx:atemp>3.4</gpxtpx:atemp></gpxtpx:TrackPointExtension></extensions></trkpt><trkpt lat="42.1859960351" lon="13.3936969656"><ele>1927.76</ele><time>2026-03-11T14:40:51Z</time><extensions><gpxtpx:TrackPointExtension><gpxtpx:atemp>3.4</gpxtpx:atemp></gpxtpx:TrackPointExtension></extensions></trkpt><trkpt lat="42.1859979630" lon="13.3937003184"><ele>1927.83</ele><time>2026-03-11T14:40:52Z</time><extensions><gpxtpx:TrackPointExtension><gpxtpx:atemp>3.4</gpxtpx:atemp></gpxtpx:TrackPointExtension></extensions></trkpt><trkpt lat="42.1860006452" lon="13.3937048446"><ele>1927.90</ele><time>2026-03-11T14:40:53Z</time><extensions><gpxtpx:TrackPointExtension><gpxtpx:atemp>3.4</gpxtpx:atemp></gpxtpx:TrackPointExtension></extensions></trkpt><trkpt lat="42.1860031597" lon="13.3937091194"><ele>1927.93</ele><time>2026-03-11T14:40:54Z</time><extensions><gpxtpx:TrackPointExtension><gpxtpx:atemp>3.4</gpxtpx:atemp></gpxtpx:TrackPointExtension></extensions></trkpt><trkpt lat="42.1860064287" lon="13.3937124722"><ele>1927.99</ele><time>2026-03-11T14:40:55Z</time><extensions><gpxtpx:TrackPointExtension><gpxtpx:atemp>3.4</gpxtpx:atemp></gpxtpx:TrackPointExtension></extensions></trkpt><trkpt lat="42.1860087756" lon="13.3937158249"><ele>1928.07</ele><time>2026-03-11T14:40:56Z</time><extensions><gpxtpx:TrackPointExtension><gpxtpx:atemp>3.4</gpxtpx:atemp></gpxtpx:TrackPointExtension></extensions></trkpt><trkpt lat="42.1860104520" lon="13.3937185910"><ele>1928.15</ele><time>2026-03-11T14:40:57Z</time><extensions><gpxtpx:TrackPointExtension><gpxtpx:atemp>3.4</gpxtpx:atemp></gpxtpx:TrackPointExtension></extensions></trkpt><trkpt lat="42.1860132180" lon="13.3937214408"><ele>1928.22</ele><time>2026-03-11T14:40:58Z</time><extensions><gpxtpx:TrackPointExtension><gpxtpx:atemp>3.4</gpxtpx:atemp></gpxtpx:TrackPointExtension></extensions></trkpt><trkpt lat="42.1860167384" lon="13.3937242907"><ele>1928.29</ele><time>2026-03-11T14:40:59Z</time><extensions><gpxtpx:TrackPointExtension><gpxtpx:atemp>3.4</gpxtpx:atemp></gpxtpx:TrackPointExtension></extensions></trkpt><trkpt lat="42.1860195883" lon="13.3937272243"><ele>1928.35</ele><time>2026-03-11T14:41:00Z</time><extensions><gpxtpx:TrackPointExtension><gpxtpx:atemp>3.4</gpxtpx:atemp></gpxtpx:TrackPointExtension></extensions></trkpt><trkpt lat="42.1860210970" lon="13.3937294874"><ele>1928.39</ele><time>2026-03-11T14:41:01Z</time><extensions><gpxtpx:TrackPointExtension><gpxtpx:atemp>3.4</gpxtpx:atemp></gpxtpx:TrackPointExtension></extensions></trkpt><trkpt lat="42.1860219352" lon="13.3937316667"><ele>1928.41</ele><time>2026-03-11T14:41:02Z</time><extensions><gpxtpx:TrackPointExtension><gpxtpx:atemp>3.4</gpxtpx:atemp></gpxtpx:TrackPointExtension></extensions></trkpt><trkpt lat="42.1860234439" lon="13.3937350195"><ele>1928.48</ele><time>2026-03-11T14:41:03Z</time><extensions><gpxtpx:TrackPointExtension><gpxtpx:atemp>3.4</gpxtpx:atemp></gpxtpx:TrackPointExtension></extensions></trkpt><trkpt lat="42.1860253718" lon="13.3937378693"><ele>1928.55</ele><time>2026-03-11T14:41:04Z</time><extensions><gpxtpx:TrackPointExtension><gpxtpx:atemp>3.4</gpxtpx:atemp></gpxtpx:TrackPointExtension></extensions></trkpt><trkpt lat="42.1860270482" lon="13.3937406354"><ele>1928.62</ele><time>2026-03-11T14:41:05Z</time><extensions><gpxtpx:TrackPointExtension><gpxtpx:atemp>3.4</gpxtpx:atemp></gpxtpx:TrackPointExtension></extensions></trkpt><trkpt lat="42.1860311553" lon="13.3937427308"><ele>1928.69</ele><time>2026-03-11T14:41:06Z</time><extensions><gpxtpx:TrackPointExtension><gpxtpx:atemp>3.4</gpxtpx:atemp></gpxtpx:TrackPointExtension></extensions></trkpt><trkpt lat="42.1860349271" lon="13.3937461674"><ele>1928.74</ele><time>2026-03-11T14:41:07Z</time><extensions><gpxtpx:TrackPointExtension><gpxtpx:atemp>3.4</gpxtpx:atemp></gpxtpx:TrackPointExtension></extensions></trkpt><trkpt lat="42.1860388666" lon="13.3937507775"><ele>1928.79</ele><time>2026-03-11T14:41:08Z</time><extensions><gpxtpx:TrackPointExtension><gpxtpx:atemp>3.4</gpxtpx:atemp></gpxtpx:TrackPointExtension></extensions></trkpt><trkpt lat="42.1860415488" lon="13.3937565610"><ele>1928.82</ele><time>2026-03-11T14:41:09Z</time><extensions><gpxtpx:TrackPointExtension><gpxtpx:atemp>3.4</gpxtpx:atemp></gpxtpx:TrackPointExtension></extensions></trkpt><trkpt lat="42.1860440634" lon="13.3937633503"><ele>1928.82</ele><time>2026-03-11T14:41:10Z</time><extensions><gpxtpx:TrackPointExtension><gpxtpx:atemp>3.4</gpxtpx:atemp></gpxtpx:TrackPointExtension></extensions></trkpt><trkpt lat="42.1860468294" lon="13.3937688824"><ele>1928.84</ele><time>2026-03-11T14:41:11Z</time><extensions><gpxtpx:TrackPointExtension><gpxtpx:atemp>3.4</gpxtpx:atemp></gpxtpx:TrackPointExtension></extensions></trkpt><trkpt lat="42.1860488411" lon="13.3937727381"><ele>1928.89</ele><time>2026-03-11T14:41:12Z</time><extensions><gpxtpx:TrackPointExtension><gpxtpx:atemp>3.4</gpxtpx:atemp></gpxtpx:TrackPointExtension></extensions></trkpt><trkpt lat="42.1860508528" lon="13.3937751688"><ele>1928.98</ele><time>2026-03-11T14:41:13Z</time><extensions><gpxtpx:TrackPointExtension><gpxtpx:atemp>3.4</gpxtpx:atemp></gpxtpx:TrackPointExtension></extensions></trkpt><trkpt lat="42.1860524453" lon="13.3937800303"><ele>1929.05</ele><time>2026-03-11T14:41:14Z</time><extensions><gpxtpx:TrackPointExtension><gpxtpx:atemp>3.4</gpxtpx:atemp></gpxtpx:TrackPointExtension></extensions></trkpt><trkpt lat="42.1860553790" lon="13.3937837183"><ele>1929.11</ele><time>2026-03-11T14:41:15Z</time><extensions><gpxtpx:TrackPointExtension><gpxtpx:atemp>3.4</gpxtpx:atemp></gpxtpx:TrackPointExtension></extensions></trkpt><trkpt lat="42.1860573906" lon="13.3937879931"><ele>1929.13</ele><time>2026-03-11T14:41:16Z</time><extensions><gpxtpx:TrackPointExtension><gpxtpx:atemp>3.4</gpxtpx:atemp></gpxtpx:TrackPointExtension></extensions></trkpt><trkpt lat="42.1860594861" lon="13.3937889989"><ele>1929.13</ele><time>2026-03-11T14:41:17Z</time><extensions><gpxtpx:TrackPointExtension><gpxtpx:atemp>3.4</gpxtpx:atemp></gpxtpx:TrackPointExtension></extensions></trkpt><trkpt lat="42.1860609949" lon="13.3937932737"><ele>1929.13</ele><time>2026-03-11T14:41:18Z</time><extensions><gpxtpx:TrackPointExtension><gpxtpx:atemp>3.4</gpxtpx:atemp></gpxtpx:TrackPointExtension></extensions></trkpt><trkpt lat="42.1860642638" lon="13.3937972970"><ele>1929.14</ele><time>2026-03-11T14:41:19Z</time><extensions><gpxtpx:TrackPointExtension><gpxtpx:atemp>3.4</gpxtpx:atemp></gpxtpx:TrackPointExtension></extensions></trkpt><trkpt lat="42.1860669460" lon="13.3938028291"><ele>1929.16</ele><time>2026-03-11T14:41:20Z</time><extensions><gpxtpx:TrackPointExtension><gpxtpx:atemp>3.4</gpxtpx:atemp></gpxtpx:TrackPointExtension></extensions></trkpt><trkpt lat="42.1860694606" lon="13.3938067686"><ele>1929.20</ele><time>2026-03-11T14:41:21Z</time><extensions><gpxtpx:TrackPointExtension><gpxtpx:atemp>3.4</gpxtpx:atemp></gpxtpx:TrackPointExtension></extensions></trkpt><trkpt lat="42.1860713884" lon="13.3938105404"><ele>1929.22</ele><time>2026-03-11T14:41:22Z</time><extensions><gpxtpx:TrackPointExtension><gpxtpx:atemp>3.4</gpxtpx:atemp></gpxtpx:TrackPointExtension></extensions></trkpt><trkpt lat="42.1860744897" lon="13.3938142285"><ele>1929.25</ele><time>2026-03-11T14:41:23Z</time><extensions><gpxtpx:TrackPointExtension><gpxtpx:atemp>3.4</gpxtpx:atemp></gpxtpx:TrackPointExtension></extensions></trkpt><trkpt lat="42.1860773396" lon="13.3938177489"><ele>1929.28</ele><time>2026-03-11T14:41:24Z</time><extensions><gpxtpx:TrackPointExtension><gpxtpx:atemp>3.4</gpxtpx:atemp></gpxtpx:TrackPointExtension></extensions></trkpt><trkpt lat="42.1860814467" lon="13.3938221913"><ele>1929.32</ele><time>2026-03-11T14:41:25Z</time><extensions><gpxtpx:TrackPointExtension><gpxtpx:atemp>3.4</gpxtpx:atemp></gpxtpx:TrackPointExtension></extensions></trkpt><trkpt lat="42.1860849671" lon="13.3938262984"><ele>1929.39</ele><time>2026-03-11T14:41:26Z</time><extensions><gpxtpx:TrackPointExtension><gpxtpx:atemp>3.4</gpxtpx:atemp></gpxtpx:TrackPointExtension></extensions></trkpt><trkpt lat="42.1860899962" lon="13.3938296512"><ele>1929.60</ele><time>2026-03-11T14:41:27Z</time><extensions><gpxtpx:TrackPointExtension><gpxtpx:atemp>3.4</gpxtpx:atemp></gpxtpx:TrackPointExtension></extensions></trkpt><trkpt lat="42.1860935166" lon="13.3938320819"><ele>1929.63</ele><time>2026-03-11T14:41:28Z</time><extensions><gpxtpx:TrackPointExtension><gpxtpx:atemp>3.4</gpxtpx:atemp></gpxtpx:TrackPointExtension></extensions></trkpt><trkpt lat="42.1860977914" lon="13.3938342612"><ele>1929.68</ele><time>2026-03-11T14:41:29Z</time><extensions><gpxtpx:TrackPointExtension><gpxtpx:atemp>3.4</gpxtpx:atemp></gpxtpx:TrackPointExtension></extensions></trkpt><trkpt lat="42.1861012280" lon="13.3938366920"><ele>1929.72</ele><time>2026-03-11T14:41:30Z</time><extensions><gpxtpx:TrackPointExtension><gpxtpx:atemp>3.4</gpxtpx:atemp></gpxtpx:TrackPointExtension></extensions></trkpt><trkpt lat="42.1861034911" lon="13.3938398771"><ele>1929.75</ele><time>2026-03-11T14:41:31Z</time><extensions><gpxtpx:TrackPointExtension><gpxtpx:atemp>3.4</gpxtpx:atemp></gpxtpx:TrackPointExtension></extensions></trkpt><trkpt lat="42.1861058380" lon="13.3938408829"><ele>1929.79</ele><time>2026-03-11T14:41:32Z</time><extensions><gpxtpx:TrackPointExtension><gpxtpx:atemp>3.5</gpxtpx:atemp></gpxtpx:TrackPointExtension></extensions></trkpt><trkpt lat="42.1861068439" lon="13.3938431460"><ele>1929.83</ele><time>2026-03-11T14:41:33Z</time><extensions><gpxtpx:TrackPointExtension><gpxtpx:atemp>3.5</gpxtpx:atemp></gpxtpx:TrackPointExtension></extensions></trkpt><trkpt lat="42.1861084364" lon="13.3938437328"><ele>1929.86</ele><time>2026-03-11T14:41:34Z</time><extensions><gpxtpx:TrackPointExtension><gpxtpx:atemp>3.5</gpxtpx:atemp></gpxtpx:TrackPointExtension></extensions></trkpt><trkpt lat="42.1861106995" lon="13.3938467503"><ele>1929.91</ele><time>2026-03-11T14:41:35Z</time><extensions><gpxtpx:TrackPointExtension><gpxtpx:atemp>3.5</gpxtpx:atemp></gpxtpx:TrackPointExtension></extensions></trkpt><trkpt lat="42.1861142199" lon="13.3938480914"><ele>1929.96</ele><time>2026-03-11T14:41:36Z</time><extensions><gpxtpx:TrackPointExtension><gpxtpx:atemp>3.5</gpxtpx:atemp></gpxtpx:TrackPointExtension></extensions></trkpt><trkpt lat="42.1861190815" lon="13.3938495163"><ele>1930.04</ele><time>2026-03-11T14:41:37Z</time><extensions><gpxtpx:TrackPointExtension><gpxtpx:atemp>3.5</gpxtpx:atemp></gpxtpx:TrackPointExtension></extensions></trkpt><trkpt lat="42.1861232724" lon="13.3938496839"><ele>1930.12</ele><time>2026-03-11T14:41:38Z</time><extensions><gpxtpx:TrackPointExtension><gpxtpx:atemp>3.5</gpxtpx:atemp></gpxtpx:TrackPointExtension></extensions></trkpt><trkpt lat="42.1861267928" lon="13.3938521985"><ele>1930.13</ele><time>2026-03-11T14:41:39Z</time><extensions><gpxtpx:TrackPointExtension><gpxtpx:atemp>3.5</gpxtpx:atemp></gpxtpx:TrackPointExtension></extensions></trkpt><trkpt lat="42.1861307323" lon="13.3938548807"><ele>1930.14</ele><time>2026-03-11T14:41:40Z</time><extensions><gpxtpx:TrackPointExtension><gpxtpx:atemp>3.5</gpxtpx:atemp></gpxtpx:TrackPointExtension></extensions></trkpt><trkpt lat="42.1861342527" lon="13.3938579820"><ele>1930.15</ele><time>2026-03-11T14:41:41Z</time><extensions><gpxtpx:TrackPointExtension><gpxtpx:atemp>3.5</gpxtpx:atemp></gpxtpx:TrackPointExtension></extensions></trkpt><trkpt lat="42.1861382760" lon="13.3938595746"><ele>1930.19</ele><time>2026-03-11T14:41:42Z</time><extensions><gpxtpx:TrackPointExtension><gpxtpx:atemp>3.5</gpxtpx:atemp></gpxtpx:TrackPointExtension></extensions></trkpt><trkpt lat="42.1861420479" lon="13.3938619215"><ele>1930.22</ele><time>2026-03-11T14:41:43Z</time><extensions><gpxtpx:TrackPointExtension><gpxtpx:atemp>3.5</gpxtpx:atemp></gpxtpx:TrackPointExtension></extensions></trkpt><trkpt lat="42.1861457359" lon="13.3938647714"><ele>1930.25</ele><time>2026-03-11T14:41:44Z</time><extensions><gpxtpx:TrackPointExtension><gpxtpx:atemp>3.5</gpxtpx:atemp></gpxtpx:TrackPointExtension></extensions></trkpt><trkpt lat="42.1861491725" lon="13.3938673697"><ele>1930.27</ele><time>2026-03-11T14:41:45Z</time><extensions><gpxtpx:TrackPointExtension><gpxtpx:atemp>3.5</gpxtpx:atemp></gpxtpx:TrackPointExtension></extensions></trkpt><trkpt lat="42.1861517709" lon="13.3938696329"><ele>1930.28</ele><time>2026-03-11T14:41:46Z</time><extensions><gpxtpx:TrackPointExtension><gpxtpx:atemp>3.5</gpxtpx:atemp></gpxtpx:TrackPointExtension></extensions></trkpt><trkpt lat="42.1861550398" lon="13.3938716445"><ele>1930.29</ele><time>2026-03-11T14:41:47Z</time><extensions><gpxtpx:TrackPointExtension><gpxtpx:atemp>3.5</gpxtpx:atemp></gpxtpx:TrackPointExtension></extensions></trkpt><trkpt lat="42.1861591469" lon="13.3938767575"><ele>1930.32</ele><time>2026-03-11T14:41:48Z</time><extensions><gpxtpx:TrackPointExtension><gpxtpx:atemp>3.5</gpxtpx:atemp></gpxtpx:TrackPointExtension></extensions></trkpt><trkpt lat="42.1861643437" lon="13.3938831277"><ele>1930.36</ele><time>2026-03-11T14:41:49Z</time><extensions><gpxtpx:TrackPointExtension><gpxtpx:atemp>3.5</gpxtpx:atemp></gpxtpx:TrackPointExtension></extensions></trkpt><trkpt lat="42.1861693729" lon="13.3938909229"><ele>1930.37</ele><time>2026-03-11T14:41:50Z</time><extensions><gpxtpx:TrackPointExtension><gpxtpx:atemp>3.5</gpxtpx:atemp></gpxtpx:TrackPointExtension></extensions></trkpt><trkpt lat="42.1861742344" lon="13.3938980475"><ele>1930.37</ele><time>2026-03-11T14:41:51Z</time><extensions><gpxtpx:TrackPointExtension><gpxtpx:atemp>3.5</gpxtpx:atemp></gpxtpx:TrackPointExtension></extensions></trkpt><trkpt lat="42.1861795988" lon="13.3939054236"><ele>1930.40</ele><time>2026-03-11T14:41:52Z</time><extensions><gpxtpx:TrackPointExtension><gpxtpx:atemp>3.5</gpxtpx:atemp></gpxtpx:TrackPointExtension></extensions></trkpt><trkpt lat="42.1861841250" lon="13.3939109556"><ele>1930.42</ele><time>2026-03-11T14:41:53Z</time><extensions><gpxtpx:TrackPointExtension><gpxtpx:atemp>3.5</gpxtpx:atemp></gpxtpx:TrackPointExtension></extensions></trkpt><trkpt lat="42.1861871425" lon="13.3939140569"><ele>1930.47</ele><time>2026-03-11T14:41:54Z</time><extensions><gpxtpx:TrackPointExtension><gpxtpx:atemp>3.5</gpxtpx:atemp></gpxtpx:TrackPointExtension></extensions></trkpt><trkpt lat="42.1861885674" lon="13.3939160686"><ele>1930.52</ele><time>2026-03-11T14:41:55Z</time><extensions><gpxtpx:TrackPointExtension><gpxtpx:atemp>3.5</gpxtpx:atemp></gpxtpx:TrackPointExtension></extensions></trkpt><trkpt lat="42.1861901600" lon="13.3939185832"><ele>1930.54</ele><time>2026-03-11T14:41:56Z</time><extensions><gpxtpx:TrackPointExtension><gpxtpx:atemp>3.5</gpxtpx:atemp></gpxtpx:TrackPointExtension></extensions></trkpt><trkpt lat="42.1861924231" lon="13.3939220197"><ele>1930.58</ele><time>2026-03-11T14:41:57Z</time><extensions><gpxtpx:TrackPointExtension><gpxtpx:atemp>3.5</gpxtpx:atemp></gpxtpx:TrackPointExtension></extensions></trkpt><trkpt lat="42.1861955244" lon="13.3939259592"><ele>1930.61</ele><time>2026-03-11T14:41:58Z</time><extensions><gpxtpx:TrackPointExtension><gpxtpx:atemp>3.5</gpxtpx:atemp></gpxtpx:TrackPointExtension></extensions></trkpt><trkpt lat="42.1861988772" lon="13.3939299826"><ele>1930.63</ele><time>2026-03-11T14:41:59Z</time><extensions><gpxtpx:TrackPointExtension><gpxtpx:atemp>3.5</gpxtpx:atemp></gpxtpx:TrackPointExtension></extensions></trkpt><trkpt lat="42.1862023976" lon="13.3939339221"><ele>1930.65</ele><time>2026-03-11T14:42:00Z</time><extensions><gpxtpx:TrackPointExtension><gpxtpx:atemp>3.5</gpxtpx:atemp></gpxtpx:TrackPointExtension></extensions></trkpt><trkpt lat="42.1862053312" lon="13.3939379454"><ele>1930.66</ele><time>2026-03-11T14:42:01Z</time><extensions><gpxtpx:TrackPointExtension><gpxtpx:atemp>3.5</gpxtpx:atemp></gpxtpx:TrackPointExtension></extensions></trkpt><trkpt lat="42.1862083487" lon="13.3939425554"><ele>1930.65</ele><time>2026-03-11T14:42:02Z</time><extensions><gpxtpx:TrackPointExtension><gpxtpx:atemp>3.5</gpxtpx:atemp></gpxtpx:TrackPointExtension></extensions></trkpt><trkpt lat="42.1862117853" lon="13.3939482551"><ele>1930.65</ele><time>2026-03-11T14:42:03Z</time><extensions><gpxtpx:TrackPointExtension><gpxtpx:atemp>3.5</gpxtpx:atemp></gpxtpx:TrackPointExtension></extensions></trkpt><trkpt lat="42.1862157248" lon="13.3939548768"><ele>1930.61</ele><time>2026-03-11T14:42:04Z</time><extensions><gpxtpx:TrackPointExtension><gpxtpx:atemp>3.5</gpxtpx:atemp></gpxtpx:TrackPointExtension></extensions></trkpt><trkpt lat="42.1862203348" lon="13.3939625882"><ele>1930.61</ele><time>2026-03-11T14:42:05Z</time><extensions><gpxtpx:TrackPointExtension><gpxtpx:atemp>3.5</gpxtpx:atemp></gpxtpx:TrackPointExtension></extensions></trkpt><trkpt lat="42.1862250287" lon="13.3939708862"><ele>1930.61</ele><time>2026-03-11T14:42:06Z</time><extensions><gpxtpx:TrackPointExtension><gpxtpx:atemp>3.5</gpxtpx:atemp></gpxtpx:TrackPointExtension></extensions></trkpt><trkpt lat="42.1862299740" lon="13.3939799387"><ele>1930.61</ele><time>2026-03-11T14:42:07Z</time><extensions><gpxtpx:TrackPointExtension><gpxtpx:atemp>3.5</gpxtpx:atemp></gpxtpx:TrackPointExtension></extensions></trkpt><trkpt lat="42.1862353384" lon="13.3939897455"><ele>1930.58</ele><time>2026-03-11T14:42:08Z</time><extensions><gpxtpx:TrackPointExtension><gpxtpx:atemp>3.5</gpxtpx:atemp></gpxtpx:TrackPointExtension></extensions></trkpt><trkpt lat="42.1862414572" lon="13.3940001391"><ele>1930.55</ele><time>2026-03-11T14:42:09Z</time><extensions><gpxtpx:TrackPointExtension><gpxtpx:atemp>3.5</gpxtpx:atemp></gpxtpx:TrackPointExtension></extensions></trkpt><trkpt lat="42.1862485819" lon="13.3940118738"><ele>1930.50</ele><time>2026-03-11T14:42:10Z</time><extensions><gpxtpx:TrackPointExtension><gpxtpx:atemp>3.5</gpxtpx:atemp></gpxtpx:TrackPointExtension></extensions></trkpt><trkpt lat="42.1862565447" lon="13.3940250333"><ele>1930.47</ele><time>2026-03-11T14:42:11Z</time><extensions><gpxtpx:TrackPointExtension><gpxtpx:atemp>3.5</gpxtpx:atemp></gpxtpx:TrackPointExtension></extensions></trkpt><trkpt lat="42.1862651780" lon="13.3940381929"><ele>1930.44</ele><time>2026-03-11T14:42:12Z</time><extensions><gpxtpx:TrackPointExtension><gpxtpx:atemp>3.5</gpxtpx:atemp></gpxtpx:TrackPointExtension></extensions></trkpt><trkpt lat="42.1862738952" lon="13.3940484188"><ele>1930.35</ele><time>2026-03-11T14:42:13Z</time><extensions><gpxtpx:TrackPointExtension><gpxtpx:atemp>3.5</gpxtpx:atemp></gpxtpx:TrackPointExtension></extensions></trkpt><trkpt lat="42.1862835344" lon="13.3940551244"><ele>1930.29</ele><time>2026-03-11T14:42:14Z</time><extensions><gpxtpx:TrackPointExtension><gpxtpx:atemp>3.5</gpxtpx:atemp></gpxtpx:TrackPointExtension></extensions></trkpt><trkpt lat="42.1862945985" lon="13.3940601535"><ele>1930.23</ele><time>2026-03-11T14:42:15Z</time><extensions><gpxtpx:TrackPointExtension><gpxtpx:atemp>3.5</gpxtpx:atemp></gpxtpx:TrackPointExtension></extensions></trkpt><trkpt lat="42.1863075905" lon="13.3940655179"><ele>1930.17</ele><time>2026-03-11T14:42:16Z</time><extensions><gpxtpx:TrackPointExtension><gpxtpx:atemp>3.5</gpxtpx:atemp></gpxtpx:TrackPointExtension></extensions></trkpt><trkpt lat="42.1863224264" lon="13.3940727264"><ele>1930.10</ele><time>2026-03-11T14:42:17Z</time><extensions><gpxtpx:TrackPointExtension><gpxtpx:atemp>3.5</gpxtpx:atemp></gpxtpx:TrackPointExtension></extensions></trkpt><trkpt lat="42.1863390226" lon="13.3940819465"><ele>1930.02</ele><time>2026-03-11T14:42:18Z</time><extensions><gpxtpx:TrackPointExtension><gpxtpx:atemp>3.5</gpxtpx:atemp></gpxtpx:TrackPointExtension></extensions></trkpt><trkpt lat="42.1863566246" lon="13.3940929268"><ele>1929.91</ele><time>2026-03-11T14:42:19Z</time><extensions><gpxtpx:TrackPointExtension><gpxtpx:atemp>3.5</gpxtpx:atemp></gpxtpx:TrackPointExtension></extensions></trkpt><trkpt lat="42.1863758191" lon="13.3941072598"><ele>1929.80</ele><time>2026-03-11T14:42:20Z</time><extensions><gpxtpx:TrackPointExtension><gpxtpx:atemp>3.5</gpxtpx:atemp></gpxtpx:TrackPointExtension></extensions></trkpt><trkpt lat="42.1863961872" lon="13.3941223472"><ele>1929.66</ele><time>2026-03-11T14:42:21Z</time><extensions><gpxtpx:TrackPointExtension><gpxtpx:atemp>3.5</gpxtpx:atemp></gpxtpx:TrackPointExtension></extensions></trkpt><trkpt lat="42.1864188183" lon="13.3941370994"><ele>1929.49</ele><time>2026-03-11T14:42:22Z</time><extensions><gpxtpx:TrackPointExtension><gpxtpx:atemp>3.5</gpxtpx:atemp></gpxtpx:TrackPointExtension></extensions></trkpt><trkpt lat="42.1864435449" lon="13.3941497561"><ele>1929.24</ele><time>2026-03-11T14:42:23Z</time><extensions><gpxtpx:TrackPointExtension><gpxtpx:atemp>3.5</gpxtpx:atemp></gpxtpx:TrackPointExtension></extensions></trkpt><trkpt lat="42.1864706185" lon="13.3941635862"><ele>1928.66</ele><time>2026-03-11T14:42:24Z</time><extensions><gpxtpx:TrackPointExtension><gpxtpx:atemp>3.5</gpxtpx:atemp></gpxtpx:TrackPointExtension></extensions></trkpt><trkpt lat="42.1864966862" lon="13.3941828646"><ele>1928.42</ele><time>2026-03-11T14:42:25Z</time><extensions><gpxtpx:TrackPointExtension><gpxtpx:atemp>3.5</gpxtpx:atemp></gpxtpx:TrackPointExtension></extensions></trkpt><trkpt lat="42.1865195688" lon="13.3942090999"><ele>1928.06</ele><time>2026-03-11T14:42:26Z</time><extensions><gpxtpx:TrackPointExtension><gpxtpx:atemp>3.5</gpxtpx:atemp></gpxtpx:TrackPointExtension></extensions></trkpt><trkpt lat="42.1865382604" lon="13.3942412864"><ele>1927.64</ele><time>2026-03-11T14:42:27Z</time><extensions><gpxtpx:TrackPointExtension><gpxtpx:atemp>3.5</gpxtpx:atemp></gpxtpx:TrackPointExtension></extensions></trkpt><trkpt lat="42.1865544375" lon="13.3942764904"><ele>1927.21</ele><time>2026-03-11T14:42:28Z</time><extensions><gpxtpx:TrackPointExtension><gpxtpx:atemp>3.5</gpxtpx:atemp></gpxtpx:TrackPointExtension></extensions></trkpt><trkpt lat="42.1865697764" lon="13.3943129517"><ele>1926.77</ele><time>2026-03-11T14:42:29Z</time><extensions><gpxtpx:TrackPointExtension><gpxtpx:atemp>3.5</gpxtpx:atemp></gpxtpx:TrackPointExtension></extensions></trkpt><trkpt lat="42.1865852829" lon="13.3943504188"><ele>1926.34</ele><time>2026-03-11T14:42:30Z</time><extensions><gpxtpx:TrackPointExtension><gpxtpx:atemp>3.5</gpxtpx:atemp></gpxtpx:TrackPointExtension></extensions></trkpt><trkpt lat="42.1866017953" lon="13.3943883888"><ele>1925.93</ele><time>2026-03-11T14:42:31Z</time><extensions><gpxtpx:TrackPointExtension><gpxtpx:atemp>3.5</gpxtpx:atemp></gpxtpx:TrackPointExtension></extensions></trkpt><trkpt lat="42.1866186429" lon="13.3944264427"><ele>1925.57</ele><time>2026-03-11T14:42:32Z</time><extensions><gpxtpx:TrackPointExtension><gpxtpx:atemp>3.5</gpxtpx:atemp></gpxtpx:TrackPointExtension></extensions></trkpt><trkpt lat="42.1866353229" lon="13.3944635745"><ele>1925.21</ele><time>2026-03-11T14:42:33Z</time><extensions><gpxtpx:TrackPointExtension><gpxtpx:atemp>3.5</gpxtpx:atemp></gpxtpx:TrackPointExtension></extensions></trkpt><trkpt lat="42.1866515838" lon="13.3944984432"><ele>1924.86</ele><time>2026-03-11T14:42:34Z</time><extensions><gpxtpx:TrackPointExtension><gpxtpx:atemp>3.5</gpxtpx:atemp></gpxtpx:TrackPointExtension></extensions></trkpt><trkpt lat="42.1866671741" lon="13.3945300430"><ele>1924.55</ele><time>2026-03-11T14:42:35Z</time><extensions><gpxtpx:TrackPointExtension><gpxtpx:atemp>3.5</gpxtpx:atemp></gpxtpx:TrackPointExtension></extensions></trkpt><trkpt lat="42.1866822615" lon="13.3945575356"><ele>1924.06</ele><time>2026-03-11T14:42:36Z</time><extensions><gpxtpx:TrackPointExtension><gpxtpx:atemp>3.5</gpxtpx:atemp></gpxtpx:TrackPointExtension></extensions></trkpt><trkpt lat="42.1866961755" lon="13.3945822623"><ele>1923.88</ele><time>2026-03-11T14:42:37Z</time><extensions><gpxtpx:TrackPointExtension><gpxtpx:atemp>3.5</gpxtpx:atemp></gpxtpx:TrackPointExtension></extensions></trkpt><trkpt lat="42.1867082454" lon="13.3946051449"><ele>1923.73</ele><time>2026-03-11T14:42:38Z</time><extensions><gpxtpx:TrackPointExtension><gpxtpx:atemp>3.5</gpxtpx:atemp></gpxtpx:TrackPointExtension></extensions></trkpt><trkpt lat="42.1867185552" lon="13.3946279436"><ele>1923.62</ele><time>2026-03-11T14:42:39Z</time><extensions><gpxtpx:TrackPointExtension><gpxtpx:atemp>3.5</gpxtpx:atemp></gpxtpx:TrackPointExtension></extensions></trkpt><trkpt lat="42.1867265180" lon="13.3946478926"><ele>1923.53</ele><time>2026-03-11T14:42:40Z</time><extensions><gpxtpx:TrackPointExtension><gpxtpx:atemp>3.5</gpxtpx:atemp></gpxtpx:TrackPointExtension></extensions></trkpt><trkpt lat="42.1867325529" lon="13.3946631476"><ele>1923.45</ele><time>2026-03-11T14:42:41Z</time><extensions><gpxtpx:TrackPointExtension><gpxtpx:atemp>3.5</gpxtpx:atemp></gpxtpx:TrackPointExtension></extensions></trkpt><trkpt lat="42.1867367439" lon="13.3946734574"><ele>1923.41</ele><time>2026-03-11T14:42:42Z</time><extensions><gpxtpx:TrackPointExtension><gpxtpx:atemp>3.5</gpxtpx:atemp></gpxtpx:TrackPointExtension></extensions></trkpt><trkpt lat="42.1867402643" lon="13.3946808334"><ele>1923.38</ele><time>2026-03-11T14:42:43Z</time><extensions><gpxtpx:TrackPointExtension><gpxtpx:atemp>3.5</gpxtpx:atemp></gpxtpx:TrackPointExtension></extensions></trkpt><trkpt lat="42.1867439523" lon="13.3946882933"><ele>1923.37</ele><time>2026-03-11T14:42:44Z</time><extensions><gpxtpx:TrackPointExtension><gpxtpx:atemp>3.5</gpxtpx:atemp></gpxtpx:TrackPointExtension></extensions></trkpt><trkpt lat="42.1867470536" lon="13.3946959209"><ele>1923.37</ele><time>2026-03-11T14:42:45Z</time><extensions><gpxtpx:TrackPointExtension><gpxtpx:atemp>3.5</gpxtpx:atemp></gpxtpx:TrackPointExtension></extensions></trkpt><trkpt lat="42.1867498197" lon="13.3947051410"><ele>1923.37</ele><time>2026-03-11T14:42:46Z</time><extensions><gpxtpx:TrackPointExtension><gpxtpx:atemp>3.5</gpxtpx:atemp></gpxtpx:TrackPointExtension></extensions></trkpt><trkpt lat="42.1867524181" lon="13.3947136905"><ele>1923.46</ele><time>2026-03-11T14:42:47Z</time><extensions><gpxtpx:TrackPointExtension><gpxtpx:atemp>3.5</gpxtpx:atemp></gpxtpx:TrackPointExtension></extensions></trkpt><trkpt lat="42.1867557708" lon="13.3947229944"><ele>1923.53</ele><time>2026-03-11T14:42:48Z</time><extensions><gpxtpx:TrackPointExtension><gpxtpx:atemp>3.5</gpxtpx:atemp></gpxtpx:TrackPointExtension></extensions></trkpt><trkpt lat="42.1867591236" lon="13.3947317954"><ele>1923.59</ele><time>2026-03-11T14:42:49Z</time><extensions><gpxtpx:TrackPointExtension><gpxtpx:atemp>3.5</gpxtpx:atemp></gpxtpx:TrackPointExtension></extensions></trkpt><trkpt lat="42.1867626440" lon="13.3947404288"><ele>1923.64</ele><time>2026-03-11T14:42:50Z</time><extensions><gpxtpx:TrackPointExtension><gpxtpx:atemp>3.5</gpxtpx:atemp></gpxtpx:TrackPointExtension></extensions></trkpt><trkpt lat="42.1867657453" lon="13.3947484754"><ele>1923.67</ele><time>2026-03-11T14:42:51Z</time><extensions><gpxtpx:TrackPointExtension><gpxtpx:atemp>3.5</gpxtpx:atemp></gpxtpx:TrackPointExtension></extensions></trkpt><trkpt lat="42.1867686789" lon="13.3947555162"><ele>1923.74</ele><time>2026-03-11T14:42:52Z</time><extensions><gpxtpx:TrackPointExtension><gpxtpx:atemp>3.5</gpxtpx:atemp></gpxtpx:TrackPointExtension></extensions></trkpt><trkpt lat="42.1867717803" lon="13.3947626408"><ele>1923.84</ele><time>2026-03-11T14:42:53Z</time><extensions><gpxtpx:TrackPointExtension><gpxtpx:atemp>3.5</gpxtpx:atemp></gpxtpx:TrackPointExtension></extensions></trkpt><trkpt lat="42.1867758874" lon="13.3947703522"><ele>1923.96</ele><time>2026-03-11T14:42:54Z</time><extensions><gpxtpx:TrackPointExtension><gpxtpx:atemp>3.5</gpxtpx:atemp></gpxtpx:TrackPointExtension></extensions></trkpt><trkpt lat="42.1867808327" lon="13.3947787341"><ele>1924.05</ele><time>2026-03-11T14:42:55Z</time><extensions><gpxtpx:TrackPointExtension><gpxtpx:atemp>3.5</gpxtpx:atemp></gpxtpx:TrackPointExtension></extensions></trkpt><trkpt lat="42.1867855266" lon="13.3947859425"><ele>1924.11</ele><time>2026-03-11T14:42:56Z</time><extensions><gpxtpx:TrackPointExtension><gpxtpx:atemp>3.5</gpxtpx:atemp></gpxtpx:TrackPointExtension></extensions></trkpt><trkpt lat="42.1867909748" lon="13.3947932348"><ele>1924.15</ele><time>2026-03-11T14:42:57Z</time><extensions><gpxtpx:TrackPointExtension><gpxtpx:atemp>3.5</gpxtpx:atemp></gpxtpx:TrackPointExtension></extensions></trkpt><trkpt lat="42.1867974289" lon="13.3947998565"><ele>1924.20</ele><time>2026-03-11T14:42:58Z</time><extensions><gpxtpx:TrackPointExtension><gpxtpx:atemp>3.5</gpxtpx:atemp></gpxtpx:TrackPointExtension></extensions></trkpt><trkpt lat="42.1868050564" lon="13.3948085736"><ele>1924.29</ele><time>2026-03-11T14:42:59Z</time><extensions><gpxtpx:TrackPointExtension><gpxtpx:atemp>3.5</gpxtpx:atemp></gpxtpx:TrackPointExtension></extensions></trkpt><trkpt lat="42.1868124325" lon="13.3948168717"><ele>1924.33</ele><time>2026-03-11T14:43:00Z</time><extensions><gpxtpx:TrackPointExtension><gpxtpx:atemp>3.5</gpxtpx:atemp></gpxtpx:TrackPointExtension></extensions></trkpt><trkpt lat="42.1868202277" lon="13.3948261756"><ele>1924.39</ele><time>2026-03-11T14:43:01Z</time><extensions><gpxtpx:TrackPointExtension><gpxtpx:atemp>3.5</gpxtpx:atemp></gpxtpx:TrackPointExtension></extensions></trkpt><trkpt lat="42.1868281905" lon="13.3948356472"><ele>1924.39</ele><time>2026-03-11T14:43:02Z</time><extensions><gpxtpx:TrackPointExtension><gpxtpx:atemp>3.5</gpxtpx:atemp></gpxtpx:TrackPointExtension></extensions></trkpt><trkpt lat="42.1868372429" lon="13.3948470466"><ele>1924.46</ele><time>2026-03-11T14:43:03Z</time><extensions><gpxtpx:TrackPointExtension><gpxtpx:atemp>3.5</gpxtpx:atemp></gpxtpx:TrackPointExtension></extensions></trkpt><trkpt lat="42.1868472174" lon="13.3948609605"><ele>1924.50</ele><time>2026-03-11T14:43:04Z</time><extensions><gpxtpx:TrackPointExtension><gpxtpx:atemp>3.5</gpxtpx:atemp></gpxtpx:TrackPointExtension></extensions></trkpt><trkpt lat="42.1868586168" lon="13.3948763832"><ele>1924.48</ele><time>2026-03-11T14:43:05Z</time><extensions><gpxtpx:TrackPointExtension><gpxtpx:atemp>3.5</gpxtpx:atemp></gpxtpx:TrackPointExtension></extensions></trkpt><trkpt lat="42.1868705191" lon="13.3948918898"><ele>1924.43</ele><time>2026-03-11T14:43:06Z</time><extensions><gpxtpx:TrackPointExtension><gpxtpx:atemp>3.5</gpxtpx:atemp></gpxtpx:TrackPointExtension></extensions></trkpt><trkpt lat="42.1868827567" lon="13.3949084859"><ele>1924.38</ele><time>2026-03-11T14:43:07Z</time><extensions><gpxtpx:TrackPointExtension><gpxtpx:atemp>3.5</gpxtpx:atemp></gpxtpx:TrackPointExtension></extensions></trkpt><trkpt lat="42.1868950780" lon="13.3949272614"><ele>1924.29</ele><time>2026-03-11T14:43:08Z</time><extensions><gpxtpx:TrackPointExtension><gpxtpx:atemp>3.5</gpxtpx:atemp></gpxtpx:TrackPointExtension></extensions></trkpt><trkpt lat="42.1869060583" lon="13.3949493896"><ele>1924.21</ele><time>2026-03-11T14:43:09Z</time><extensions><gpxtpx:TrackPointExtension><gpxtpx:atemp>3.5</gpxtpx:atemp></gpxtpx:TrackPointExtension></extensions></trkpt><trkpt lat="42.1869145241" lon="13.3949740324"><ele>1924.07</ele><time>2026-03-11T14:43:10Z</time><extensions><gpxtpx:TrackPointExtension><gpxtpx:atemp>3.5</gpxtpx:atemp></gpxtpx:TrackPointExtension></extensions></trkpt><trkpt lat="42.1869211458" lon="13.3949988429"><ele>1923.95</ele><time>2026-03-11T14:43:11Z</time><extensions><gpxtpx:TrackPointExtension><gpxtpx:atemp>3.5</gpxtpx:atemp></gpxtpx:TrackPointExtension></extensions></trkpt><trkpt lat="42.1869263425" lon="13.3950234856"><ele>1923.78</ele><time>2026-03-11T14:43:12Z</time><extensions><gpxtpx:TrackPointExtension><gpxtpx:atemp>3.5</gpxtpx:atemp></gpxtpx:TrackPointExtension></extensions></trkpt><trkpt lat="42.1869296953" lon="13.3950456977"><ele>1923.58</ele><time>2026-03-11T14:43:13Z</time><extensions><gpxtpx:TrackPointExtension><gpxtpx:atemp>3.5</gpxtpx:atemp></gpxtpx:TrackPointExtension></extensions></trkpt><trkpt lat="42.1869309526" lon="13.3950653952"><ele>1923.41</ele><time>2026-03-11T14:43:14Z</time><extensions><gpxtpx:TrackPointExtension><gpxtpx:atemp>3.5</gpxtpx:atemp></gpxtpx:TrackPointExtension></extensions></trkpt><trkpt lat="42.1869311202" lon="13.3950812370"><ele>1923.27</ele><time>2026-03-11T14:43:15Z</time><extensions><gpxtpx:TrackPointExtension><gpxtpx:atemp>3.5</gpxtpx:atemp></gpxtpx:TrackPointExtension></extensions></trkpt><trkpt lat="42.1869322937" lon="13.3950950671"><ele>1923.17</ele><time>2026-03-11T14:43:16Z</time><extensions><gpxtpx:TrackPointExtension><gpxtpx:atemp>3.5</gpxtpx:atemp></gpxtpx:TrackPointExtension></extensions></trkpt><trkpt lat="42.1869381610" lon="13.3951061312"><ele>1923.07</ele><time>2026-03-11T14:43:17Z</time><extensions><gpxtpx:TrackPointExtension><gpxtpx:atemp>3.5</gpxtpx:atemp></gpxtpx:TrackPointExtension></extensions></trkpt><trkpt lat="42.1869489737" lon="13.3951122500"><ele>1922.95</ele><time>2026-03-11T14:43:18Z</time><extensions><gpxtpx:TrackPointExtension><gpxtpx:atemp>3.5</gpxtpx:atemp></gpxtpx:TrackPointExtension></extensions></trkpt><trkpt lat="42.1869649831" lon="13.3951097354"><ele>1922.84</ele><time>2026-03-11T14:43:19Z</time><extensions><gpxtpx:TrackPointExtension><gpxtpx:atemp>3.5</gpxtpx:atemp></gpxtpx:TrackPointExtension></extensions></trkpt><trkpt lat="42.1869810764" lon="13.3951002639"><ele>1922.73</ele><time>2026-03-11T14:43:20Z</time><extensions><gpxtpx:TrackPointExtension><gpxtpx:atemp>3.5</gpxtpx:atemp></gpxtpx:TrackPointExtension></extensions></trkpt><trkpt lat="42.1869975887" lon="13.3950873557"><ele>1922.66</ele><time>2026-03-11T14:43:21Z</time><extensions><gpxtpx:TrackPointExtension><gpxtpx:atemp>3.5</gpxtpx:atemp></gpxtpx:TrackPointExtension></extensions></trkpt><trkpt lat="42.1870172862" lon="13.3950758725"><ele>1922.43</ele><time>2026-03-11T14:43:22Z</time><extensions><gpxtpx:TrackPointExtension><gpxtpx:atemp>3.5</gpxtpx:atemp></gpxtpx:TrackPointExtension></extensions></trkpt><trkpt lat="42.1870438568" lon="13.3950672392"><ele>1922.24</ele><time>2026-03-11T14:43:23Z</time><extensions><gpxtpx:TrackPointExtension><gpxtpx:atemp>3.5</gpxtpx:atemp></gpxtpx:TrackPointExtension></extensions></trkpt><trkpt lat="42.1870769653" lon="13.3950599469"><ele>1921.94</ele><time>2026-03-11T14:43:24Z</time><extensions><gpxtpx:TrackPointExtension><gpxtpx:atemp>3.5</gpxtpx:atemp></gpxtpx:TrackPointExtension></extensions></trkpt><trkpt lat="42.1871110797" lon="13.3950490505"><ele>1921.54</ele><time>2026-03-11T14:43:25Z</time><extensions><gpxtpx:TrackPointExtension><gpxtpx:atemp>3.5</gpxtpx:atemp></gpxtpx:TrackPointExtension></extensions></trkpt><trkpt lat="42.1871384885" lon="13.3950331248"><ele>1921.07</ele><time>2026-03-11T14:43:26Z</time><extensions><gpxtpx:TrackPointExtension><gpxtpx:atemp>3.5</gpxtpx:atemp></gpxtpx:TrackPointExtension></extensions></trkpt><trkpt lat="42.1871566772" lon="13.3950163610"><ele>1920.59</ele><time>2026-03-11T14:43:27Z</time><extensions><gpxtpx:TrackPointExtension><gpxtpx:atemp>3.5</gpxtpx:atemp></gpxtpx:TrackPointExtension></extensions></trkpt><trkpt lat="42.1871691663" lon="13.3950046264"><ele>1920.06</ele><time>2026-03-11T14:43:28Z</time><extensions><gpxtpx:TrackPointExtension><gpxtpx:atemp>3.5</gpxtpx:atemp></gpxtpx:TrackPointExtension></extensions></trkpt><trkpt lat="42.1871819906" lon="13.3949990943"><ele>1919.53</ele><time>2026-03-11T14:43:29Z</time><extensions><gpxtpx:TrackPointExtension><gpxtpx:atemp>3.5</gpxtpx:atemp></gpxtpx:TrackPointExtension></extensions></trkpt><trkpt lat="42.1871967427" lon="13.3949968312"><ele>1919.03</ele><time>2026-03-11T14:43:30Z</time><extensions><gpxtpx:TrackPointExtension><gpxtpx:atemp>3.5</gpxtpx:atemp></gpxtpx:TrackPointExtension></extensions></trkpt><trkpt lat="42.1872129198" lon="13.3949962445"><ele>1918.62</ele><time>2026-03-11T14:43:31Z</time><extensions><gpxtpx:TrackPointExtension><gpxtpx:atemp>3.5</gpxtpx:atemp></gpxtpx:TrackPointExtension></extensions></trkpt><trkpt lat="42.1872335393" lon="13.3949987590"><ele>1918.31</ele><time>2026-03-11T14:43:32Z</time><extensions><gpxtpx:TrackPointExtension><gpxtpx:atemp>3.5</gpxtpx:atemp></gpxtpx:TrackPointExtension></extensions></trkpt><trkpt lat="42.1872588526" lon="13.3950031176"><ele>1918.06</ele><time>2026-03-11T14:43:33Z</time><extensions><gpxtpx:TrackPointExtension><gpxtpx:atemp>3.5</gpxtpx:atemp></gpxtpx:TrackPointExtension></extensions></trkpt><trkpt lat="42.1872898657" lon="13.3950090688"><ele>1917.55</ele><time>2026-03-11T14:43:34Z</time><extensions><gpxtpx:TrackPointExtension><gpxtpx:atemp>3.3</gpxtpx:atemp></gpxtpx:TrackPointExtension></extensions></trkpt><trkpt lat="42.1873230580" lon="13.3950153552"><ele>1917.27</ele><time>2026-03-11T14:43:35Z</time><extensions><gpxtpx:TrackPointExtension><gpxtpx:atemp>3.3</gpxtpx:atemp></gpxtpx:TrackPointExtension></extensions></trkpt><trkpt lat="42.1873519756" lon="13.3950183727"><ele>1917.03</ele><time>2026-03-11T14:43:36Z</time><extensions><gpxtpx:TrackPointExtension><gpxtpx:atemp>3.3</gpxtpx:atemp></gpxtpx:TrackPointExtension></extensions></trkpt><trkpt lat="42.1873696614" lon="13.3950187918"><ele>1916.79</ele><time>2026-03-11T14:43:37Z</time><extensions><gpxtpx:TrackPointExtension><gpxtpx:atemp>3.3</gpxtpx:atemp></gpxtpx:TrackPointExtension></extensions></trkpt><trkpt lat="42.1873774566" lon="13.3950171992"><ele>1916.58</ele><time>2026-03-11T14:43:38Z</time><extensions><gpxtpx:TrackPointExtension><gpxtpx:atemp>3.3</gpxtpx:atemp></gpxtpx:TrackPointExtension></extensions></trkpt><trkpt lat="42.1873793844" lon="13.3950163610"><ele>1916.45</ele><time>2026-03-11T14:43:39Z</time><extensions><gpxtpx:TrackPointExtension><gpxtpx:atemp>3.3</gpxtpx:atemp></gpxtpx:TrackPointExtension></extensions></trkpt><trkpt lat="42.1873824857" lon="13.3950166963"><ele>1916.39</ele><time>2026-03-11T14:43:40Z</time><extensions><gpxtpx:TrackPointExtension><gpxtpx:atemp>3.3</gpxtpx:atemp></gpxtpx:TrackPointExtension></extensions></trkpt><trkpt lat="42.1873865929" lon="13.3950160258"><ele>1916.35</ele><time>2026-03-11T14:43:41Z</time><extensions><gpxtpx:TrackPointExtension><gpxtpx:atemp>3.3</gpxtpx:atemp></gpxtpx:TrackPointExtension></extensions></trkpt><trkpt lat="42.1873926278" lon="13.3950151876"><ele>1916.34</ele><time>2026-03-11T14:43:42Z</time><extensions><gpxtpx:TrackPointExtension><gpxtpx:atemp>3.3</gpxtpx:atemp></gpxtpx:TrackPointExtension></extensions></trkpt><trkpt lat="42.1873998363" lon="13.3950138465"><ele>1916.35</ele><time>2026-03-11T14:43:43Z</time><extensions><gpxtpx:TrackPointExtension><gpxtpx:atemp>3.3</gpxtpx:atemp></gpxtpx:TrackPointExtension></extensions></trkpt><trkpt lat="42.1874068771" lon="13.3950122539"><ele>1916.41</ele><time>2026-03-11T14:43:44Z</time><extensions><gpxtpx:TrackPointExtension><gpxtpx:atemp>3.3</gpxtpx:atemp></gpxtpx:TrackPointExtension></extensions></trkpt><trkpt lat="42.1874142531" lon="13.3950119186"><ele>1916.57</ele><time>2026-03-11T14:43:45Z</time><extensions><gpxtpx:TrackPointExtension><gpxtpx:atemp>3.3</gpxtpx:atemp></gpxtpx:TrackPointExtension></extensions></trkpt><trkpt lat="42.1874215454" lon="13.3950119186"><ele>1916.60</ele><time>2026-03-11T14:43:46Z</time><extensions><gpxtpx:TrackPointExtension><gpxtpx:atemp>3.3</gpxtpx:atemp></gpxtpx:TrackPointExtension></extensions></trkpt><trkpt lat="42.1874281671" lon="13.3950127568"><ele>1916.62</ele><time>2026-03-11T14:43:47Z</time><extensions><gpxtpx:TrackPointExtension><gpxtpx:atemp>3.3</gpxtpx:atemp></gpxtpx:TrackPointExtension></extensions></trkpt><trkpt lat="42.1874338668" lon="13.3950136788"><ele>1916.65</ele><time>2026-03-11T14:43:48Z</time><extensions><gpxtpx:TrackPointExtension><gpxtpx:atemp>3.3</gpxtpx:atemp></gpxtpx:TrackPointExtension></extensions></trkpt><trkpt lat="42.1874390636" lon="13.3950153552"><ele>1916.67</ele><time>2026-03-11T14:43:49Z</time><extensions><gpxtpx:TrackPointExtension><gpxtpx:atemp>3.3</gpxtpx:atemp></gpxtpx:TrackPointExtension></extensions></trkpt><trkpt lat="42.1874442603" lon="13.3950174507"><ele>1916.68</ele><time>2026-03-11T14:43:50Z</time><extensions><gpxtpx:TrackPointExtension><gpxtpx:atemp>3.3</gpxtpx:atemp></gpxtpx:TrackPointExtension></extensions></trkpt><trkpt lat="42.1874495409" lon="13.3950191271"><ele>1916.68</ele><time>2026-03-11T14:43:51Z</time><extensions><gpxtpx:TrackPointExtension><gpxtpx:atemp>3.3</gpxtpx:atemp></gpxtpx:TrackPointExtension></extensions></trkpt><trkpt lat="42.1874551568" lon="13.3950208873"><ele>1916.70</ele><time>2026-03-11T14:43:52Z</time><extensions><gpxtpx:TrackPointExtension><gpxtpx:atemp>3.3</gpxtpx:atemp></gpxtpx:TrackPointExtension></extensions></trkpt><trkpt lat="42.1874611918" lon="13.3950222284"><ele>1916.74</ele><time>2026-03-11T14:43:53Z</time><extensions><gpxtpx:TrackPointExtension><gpxtpx:atemp>3.3</gpxtpx:atemp></gpxtpx:TrackPointExtension></extensions></trkpt><trkpt lat="42.1874673944" lon="13.3950232342"><ele>1916.80</ele><time>2026-03-11T14:43:54Z</time><extensions><gpxtpx:TrackPointExtension><gpxtpx:atemp>3.3</gpxtpx:atemp></gpxtpx:TrackPointExtension></extensions></trkpt><trkpt lat="42.1874741837" lon="13.3950240724"><ele>1916.83</ele><time>2026-03-11T14:43:55Z</time><extensions><gpxtpx:TrackPointExtension><gpxtpx:atemp>3.3</gpxtpx:atemp></gpxtpx:TrackPointExtension></extensions></trkpt><trkpt lat="42.1874817275" lon="13.3950241562"><ele>1916.86</ele><time>2026-03-11T14:43:56Z</time><extensions><gpxtpx:TrackPointExtension><gpxtpx:atemp>3.3</gpxtpx:atemp></gpxtpx:TrackPointExtension></extensions></trkpt><trkpt lat="42.1874891873" lon="13.3950240724"><ele>1917.00</ele><time>2026-03-11T14:43:57Z</time><extensions><gpxtpx:TrackPointExtension><gpxtpx:atemp>3.3</gpxtpx:atemp></gpxtpx:TrackPointExtension></extensions></trkpt><trkpt lat="42.1874959767" lon="13.3950226475"><ele>1917.06</ele><time>2026-03-11T14:43:58Z</time><extensions><gpxtpx:TrackPointExtension><gpxtpx:atemp>3.3</gpxtpx:atemp></gpxtpx:TrackPointExtension></extensions></trkpt><trkpt lat="42.1875015926" lon="13.3950214740"><ele>1917.12</ele><time>2026-03-11T14:43:59Z</time><extensions><gpxtpx:TrackPointExtension><gpxtpx:atemp>3.3</gpxtpx:atemp></gpxtpx:TrackPointExtension></extensions></trkpt><trkpt lat="42.1875077952" lon="13.3950195462"><ele>1917.16</ele><time>2026-03-11T14:44:00Z</time><extensions><gpxtpx:TrackPointExtension><gpxtpx:atemp>3.3</gpxtpx:atemp></gpxtpx:TrackPointExtension></extensions></trkpt><trkpt lat="42.1875139978" lon="13.3950188756"><ele>1917.18</ele><time>2026-03-11T14:44:01Z</time><extensions><gpxtpx:TrackPointExtension><gpxtpx:atemp>3.3</gpxtpx:atemp></gpxtpx:TrackPointExtension></extensions></trkpt><trkpt lat="42.1875211224" lon="13.3950180374"><ele>1917.21</ele><time>2026-03-11T14:44:02Z</time><extensions><gpxtpx:TrackPointExtension><gpxtpx:atemp>3.3</gpxtpx:atemp></gpxtpx:TrackPointExtension></extensions></trkpt><trkpt lat="42.1875277441" lon="13.3950181212"><ele>1917.23</ele><time>2026-03-11T14:44:03Z</time><extensions><gpxtpx:TrackPointExtension><gpxtpx:atemp>3.3</gpxtpx:atemp></gpxtpx:TrackPointExtension></extensions></trkpt><trkpt lat="42.1875345334" lon="13.3950168639"><ele>1917.23</ele><time>2026-03-11T14:44:04Z</time><extensions><gpxtpx:TrackPointExtension><gpxtpx:atemp>3.3</gpxtpx:atemp></gpxtpx:TrackPointExtension></extensions></trkpt><trkpt lat="42.1875409875" lon="13.3950158581"><ele>1917.26</ele><time>2026-03-11T14:44:05Z</time><extensions><gpxtpx:TrackPointExtension><gpxtpx:atemp>3.3</gpxtpx:atemp></gpxtpx:TrackPointExtension></extensions></trkpt><trkpt lat="42.1875480283" lon="13.3950143494"><ele>1917.29</ele><time>2026-03-11T14:44:06Z</time><extensions><gpxtpx:TrackPointExtension><gpxtpx:atemp>3.3</gpxtpx:atemp></gpxtpx:TrackPointExtension></extensions></trkpt><trkpt lat="42.1875551529" lon="13.3950131759"><ele>1917.32</ele><time>2026-03-11T14:44:07Z</time><extensions><gpxtpx:TrackPointExtension><gpxtpx:atemp>3.3</gpxtpx:atemp></gpxtpx:TrackPointExtension></extensions></trkpt><trkpt lat="42.1875618584" lon="13.3950114995"><ele>1917.44</ele><time>2026-03-11T14:44:08Z</time><extensions><gpxtpx:TrackPointExtension><gpxtpx:atemp>3.3</gpxtpx:atemp></gpxtpx:TrackPointExtension></extensions></trkpt><trkpt lat="42.1875679772" lon="13.3950097393"><ele>1917.48</ele><time>2026-03-11T14:44:09Z</time><extensions><gpxtpx:TrackPointExtension><gpxtpx:atemp>3.3</gpxtpx:atemp></gpxtpx:TrackPointExtension></extensions></trkpt><trkpt lat="42.1875732578" lon="13.3950081468"><ele>1917.50</ele><time>2026-03-11T14:44:10Z</time><extensions><gpxtpx:TrackPointExtension><gpxtpx:atemp>3.3</gpxtpx:atemp></gpxtpx:TrackPointExtension></extensions></trkpt><trkpt lat="42.1875785384" lon="13.3950059675"><ele>1917.53</ele><time>2026-03-11T14:44:11Z</time><extensions><gpxtpx:TrackPointExtension><gpxtpx:atemp>3.3</gpxtpx:atemp></gpxtpx:TrackPointExtension></extensions></trkpt><trkpt lat="42.1875828970" lon="13.3950032853"><ele>1917.57</ele><time>2026-03-11T14:44:12Z</time><extensions><gpxtpx:TrackPointExtension><gpxtpx:atemp>3.3</gpxtpx:atemp></gpxtpx:TrackPointExtension></extensions></trkpt><trkpt lat="42.1875868365" lon="13.3949998487"><ele>1917.65</ele><time>2026-03-11T14:44:13Z</time><extensions><gpxtpx:TrackPointExtension><gpxtpx:atemp>3.3</gpxtpx:atemp></gpxtpx:TrackPointExtension></extensions></trkpt><trkpt lat="42.1875907760" lon="13.3949968312"><ele>1917.69</ele><time>2026-03-11T14:44:14Z</time><extensions><gpxtpx:TrackPointExtension><gpxtpx:atemp>3.3</gpxtpx:atemp></gpxtpx:TrackPointExtension></extensions></trkpt><trkpt lat="42.1875957213" lon="13.3949942328"><ele>1917.78</ele><time>2026-03-11T14:44:15Z</time><extensions><gpxtpx:TrackPointExtension><gpxtpx:atemp>3.3</gpxtpx:atemp></gpxtpx:TrackPointExtension></extensions></trkpt><trkpt lat="42.1876021754" lon="13.3949927241"><ele>1917.86</ele><time>2026-03-11T14:44:16Z</time><extensions><gpxtpx:TrackPointExtension><gpxtpx:atemp>3.3</gpxtpx:atemp></gpxtpx:TrackPointExtension></extensions></trkpt><trkpt lat="42.1876082942" lon="13.3949903771"><ele>1917.92</ele><time>2026-03-11T14:44:17Z</time><extensions><gpxtpx:TrackPointExtension><gpxtpx:atemp>3.3</gpxtpx:atemp></gpxtpx:TrackPointExtension></extensions></trkpt><trkpt lat="42.1876145806" lon="13.3949876949"><ele>1917.95</ele><time>2026-03-11T14:44:18Z</time><extensions><gpxtpx:TrackPointExtension><gpxtpx:atemp>3.3</gpxtpx:atemp></gpxtpx:TrackPointExtension></extensions></trkpt><trkpt lat="42.1876203641" lon="13.3949852642"><ele>1917.97</ele><time>2026-03-11T14:44:19Z</time><extensions><gpxtpx:TrackPointExtension><gpxtpx:atemp>3.3</gpxtpx:atemp></gpxtpx:TrackPointExtension></extensions></trkpt><trkpt lat="42.1876263991" lon="13.3949843422"><ele>1918.01</ele><time>2026-03-11T14:44:20Z</time><extensions><gpxtpx:TrackPointExtension><gpxtpx:atemp>3.3</gpxtpx:atemp></gpxtpx:TrackPointExtension></extensions></trkpt><trkpt lat="42.1876321826" lon="13.3949834201"><ele>1918.07</ele><time>2026-03-11T14:44:21Z</time><extensions><gpxtpx:TrackPointExtension><gpxtpx:atemp>3.3</gpxtpx:atemp></gpxtpx:TrackPointExtension></extensions></trkpt><trkpt lat="42.1876378823" lon="13.3949834201"><ele>1918.11</ele><time>2026-03-11T14:44:22Z</time><extensions><gpxtpx:TrackPointExtension><gpxtpx:atemp>3.3</gpxtpx:atemp></gpxtpx:TrackPointExtension></extensions></trkpt><trkpt lat="42.1876433305" lon="13.3949838392"><ele>1918.15</ele><time>2026-03-11T14:44:23Z</time><extensions><gpxtpx:TrackPointExtension><gpxtpx:atemp>3.3</gpxtpx:atemp></gpxtpx:TrackPointExtension></extensions></trkpt><trkpt lat="42.1876487788" lon="13.3949854318"><ele>1918.17</ele><time>2026-03-11T14:44:24Z</time><extensions><gpxtpx:TrackPointExtension><gpxtpx:atemp>3.3</gpxtpx:atemp></gpxtpx:TrackPointExtension></extensions></trkpt><trkpt lat="42.1876538917" lon="13.3949858509"><ele>1918.19</ele><time>2026-03-11T14:44:25Z</time><extensions><gpxtpx:TrackPointExtension><gpxtpx:atemp>3.3</gpxtpx:atemp></gpxtpx:TrackPointExtension></extensions></trkpt><trkpt lat="42.1876594238" lon="13.3949851803"><ele>1918.21</ele><time>2026-03-11T14:44:26Z</time><extensions><gpxtpx:TrackPointExtension><gpxtpx:atemp>3.3</gpxtpx:atemp></gpxtpx:TrackPointExtension></extensions></trkpt><trkpt lat="42.1876662970" lon="13.3949840907"><ele>1918.22</ele><time>2026-03-11T14:44:27Z</time><extensions><gpxtpx:TrackPointExtension><gpxtpx:atemp>3.3</gpxtpx:atemp></gpxtpx:TrackPointExtension></extensions></trkpt><trkpt lat="42.1876737569" lon="13.3949837554"><ele>1918.23</ele><time>2026-03-11T14:44:28Z</time><extensions><gpxtpx:TrackPointExtension><gpxtpx:atemp>3.3</gpxtpx:atemp></gpxtpx:TrackPointExtension></extensions></trkpt><trkpt lat="42.1876804624" lon="13.3949845936"><ele>1918.23</ele><time>2026-03-11T14:44:29Z</time><extensions><gpxtpx:TrackPointExtension><gpxtpx:atemp>3.3</gpxtpx:atemp></gpxtpx:TrackPointExtension></extensions></trkpt><trkpt lat="42.1876860783" lon="13.3949861862"><ele>1918.25</ele><time>2026-03-11T14:44:30Z</time><extensions><gpxtpx:TrackPointExtension><gpxtpx:atemp>3.3</gpxtpx:atemp></gpxtpx:TrackPointExtension></extensions></trkpt><trkpt lat="42.1876907721" lon="13.3949876949"><ele>1918.32</ele><time>2026-03-11T14:44:31Z</time><extensions><gpxtpx:TrackPointExtension><gpxtpx:atemp>3.3</gpxtpx:atemp></gpxtpx:TrackPointExtension></extensions></trkpt><trkpt lat="42.1876962204" lon="13.3949898742"><ele>1918.37</ele><time>2026-03-11T14:44:32Z</time><extensions><gpxtpx:TrackPointExtension><gpxtpx:atemp>3.3</gpxtpx:atemp></gpxtpx:TrackPointExtension></extensions></trkpt><trkpt lat="42.1877013333" lon="13.3949921373"><ele>1918.39</ele><time>2026-03-11T14:44:33Z</time><extensions><gpxtpx:TrackPointExtension><gpxtpx:atemp>3.3</gpxtpx:atemp></gpxtpx:TrackPointExtension></extensions></trkpt><trkpt lat="42.1877064463" lon="13.3949957415"><ele>1918.42</ele><time>2026-03-11T14:44:34Z</time><extensions><gpxtpx:TrackPointExtension><gpxtpx:atemp>3.3</gpxtpx:atemp></gpxtpx:TrackPointExtension></extensions></trkpt><trkpt lat="42.1877104696" lon="13.3950001840"><ele>1918.44</ele><time>2026-03-11T14:44:35Z</time><extensions><gpxtpx:TrackPointExtension><gpxtpx:atemp>3.3</gpxtpx:atemp></gpxtpx:TrackPointExtension></extensions></trkpt><trkpt lat="42.1877153311" lon="13.3950033691"><ele>1918.47</ele><time>2026-03-11T14:44:36Z</time><extensions><gpxtpx:TrackPointExtension><gpxtpx:atemp>3.3</gpxtpx:atemp></gpxtpx:TrackPointExtension></extensions></trkpt><trkpt lat="42.1877211984" lon="13.3950057998"><ele>1918.50</ele><time>2026-03-11T14:44:37Z</time><extensions><gpxtpx:TrackPointExtension><gpxtpx:atemp>3.3</gpxtpx:atemp></gpxtpx:TrackPointExtension></extensions></trkpt><trkpt lat="42.1877277363" lon="13.3950073924"><ele>1918.53</ele><time>2026-03-11T14:44:38Z</time><extensions><gpxtpx:TrackPointExtension><gpxtpx:atemp>3.3</gpxtpx:atemp></gpxtpx:TrackPointExtension></extensions></trkpt><trkpt lat="42.1877325978" lon="13.3950102422"><ele>1918.55</ele><time>2026-03-11T14:44:39Z</time><extensions><gpxtpx:TrackPointExtension><gpxtpx:atemp>3.3</gpxtpx:atemp></gpxtpx:TrackPointExtension></extensions></trkpt><trkpt lat="42.1877376270" lon="13.3950140979"><ele>1918.55</ele><time>2026-03-11T14:44:40Z</time><extensions><gpxtpx:TrackPointExtension><gpxtpx:atemp>3.3</gpxtpx:atemp></gpxtpx:TrackPointExtension></extensions></trkpt><trkpt lat="42.1877424885" lon="13.3950187918"><ele>1918.56</ele><time>2026-03-11T14:44:41Z</time><extensions><gpxtpx:TrackPointExtension><gpxtpx:atemp>3.3</gpxtpx:atemp></gpxtpx:TrackPointExtension></extensions></trkpt><trkpt lat="42.1877496969" lon="13.3950243238"><ele>1918.58</ele><time>2026-03-11T14:44:42Z</time><extensions><gpxtpx:TrackPointExtension><gpxtpx:atemp>3.3</gpxtpx:atemp></gpxtpx:TrackPointExtension></extensions></trkpt><trkpt lat="42.1877564862" lon="13.3950293530"><ele>1918.61</ele><time>2026-03-11T14:44:43Z</time><extensions><gpxtpx:TrackPointExtension><gpxtpx:atemp>3.3</gpxtpx:atemp></gpxtpx:TrackPointExtension></extensions></trkpt><trkpt lat="42.1877634432" lon="13.3950330410"><ele>1918.63</ele><time>2026-03-11T14:44:44Z</time><extensions><gpxtpx:TrackPointExtension><gpxtpx:atemp>3.3</gpxtpx:atemp></gpxtpx:TrackPointExtension></extensions></trkpt><trkpt lat="42.1877691429" lon="13.3950365614"><ele>1918.63</ele><time>2026-03-11T14:44:45Z</time><extensions><gpxtpx:TrackPointExtension><gpxtpx:atemp>3.3</gpxtpx:atemp></gpxtpx:TrackPointExtension></extensions></trkpt><trkpt lat="42.1877745911" lon="13.3950405847"><ele>1918.64</ele><time>2026-03-11T14:44:46Z</time><extensions><gpxtpx:TrackPointExtension><gpxtpx:atemp>3.3</gpxtpx:atemp></gpxtpx:TrackPointExtension></extensions></trkpt><trkpt lat="42.1877801232" lon="13.3950457815"><ele>1918.64</ele><time>2026-03-11T14:44:47Z</time><extensions><gpxtpx:TrackPointExtension><gpxtpx:atemp>3.3</gpxtpx:atemp></gpxtpx:TrackPointExtension></extensions></trkpt><trkpt lat="42.1877850685" lon="13.3950532414"><ele>1918.65</ele><time>2026-03-11T14:44:48Z</time><extensions><gpxtpx:TrackPointExtension><gpxtpx:atemp>3.3</gpxtpx:atemp></gpxtpx:TrackPointExtension></extensions></trkpt><trkpt lat="42.1877902653" lon="13.3950615395"><ele>1918.67</ele><time>2026-03-11T14:44:49Z</time><extensions><gpxtpx:TrackPointExtension><gpxtpx:atemp>3.3</gpxtpx:atemp></gpxtpx:TrackPointExtension></extensions></trkpt><trkpt lat="42.1877952944" lon="13.3950694185"><ele>1918.69</ele><time>2026-03-11T14:44:50Z</time><extensions><gpxtpx:TrackPointExtension><gpxtpx:atemp>3.3</gpxtpx:atemp></gpxtpx:TrackPointExtension></extensions></trkpt><trkpt lat="42.1878014971" lon="13.3950752858"><ele>1918.69</ele><time>2026-03-11T14:44:51Z</time><extensions><gpxtpx:TrackPointExtension><gpxtpx:atemp>3.3</gpxtpx:atemp></gpxtpx:TrackPointExtension></extensions></trkpt><trkpt lat="42.1878081188" lon="13.3950813208"><ele>1918.69</ele><time>2026-03-11T14:44:52Z</time><extensions><gpxtpx:TrackPointExtension><gpxtpx:atemp>3.3</gpxtpx:atemp></gpxtpx:TrackPointExtension></extensions></trkpt><trkpt lat="42.1878150757" lon="13.3950894512"><ele>1918.69</ele><time>2026-03-11T14:44:53Z</time><extensions><gpxtpx:TrackPointExtension><gpxtpx:atemp>3.3</gpxtpx:atemp></gpxtpx:TrackPointExtension></extensions></trkpt><trkpt lat="42.1878231224" lon="13.3950996771"><ele>1918.69</ele><time>2026-03-11T14:44:54Z</time><extensions><gpxtpx:TrackPointExtension><gpxtpx:atemp>3.3</gpxtpx:atemp></gpxtpx:TrackPointExtension></extensions></trkpt><trkpt lat="42.1878325939" lon="13.3951119985"><ele>1918.69</ele><time>2026-03-11T14:44:55Z</time><extensions><gpxtpx:TrackPointExtension><gpxtpx:atemp>3.3</gpxtpx:atemp></gpxtpx:TrackPointExtension></extensions></trkpt><trkpt lat="42.1878436580" lon="13.3951255772"><ele>1918.69</ele><time>2026-03-11T14:44:56Z</time><extensions><gpxtpx:TrackPointExtension><gpxtpx:atemp>3.3</gpxtpx:atemp></gpxtpx:TrackPointExtension></extensions></trkpt><trkpt lat="42.1878546383" lon="13.3951401617"><ele>1918.69</ele><time>2026-03-11T14:44:57Z</time><extensions><gpxtpx:TrackPointExtension><gpxtpx:atemp>3.3</gpxtpx:atemp></gpxtpx:TrackPointExtension></extensions></trkpt><trkpt lat="42.1878649481" lon="13.3951543272"><ele>1918.67</ele><time>2026-03-11T14:44:58Z</time><extensions><gpxtpx:TrackPointExtension><gpxtpx:atemp>3.3</gpxtpx:atemp></gpxtpx:TrackPointExtension></extensions></trkpt><trkpt lat="42.1878736652" lon="13.3951676544"><ele>1918.62</ele><time>2026-03-11T14:44:59Z</time><extensions><gpxtpx:TrackPointExtension><gpxtpx:atemp>3.3</gpxtpx:atemp></gpxtpx:TrackPointExtension></extensions></trkpt><trkpt lat="42.1878817957" lon="13.3951802272"><ele>1918.55</ele><time>2026-03-11T14:45:00Z</time><extensions><gpxtpx:TrackPointExtension><gpxtpx:atemp>3.3</gpxtpx:atemp></gpxtpx:TrackPointExtension></extensions></trkpt><trkpt lat="42.1878894232" lon="13.3951922972"><ele>1918.51</ele><time>2026-03-11T14:45:01Z</time><extensions><gpxtpx:TrackPointExtension><gpxtpx:atemp>3.3</gpxtpx:atemp></gpxtpx:TrackPointExtension></extensions></trkpt><trkpt lat="42.1878972184" lon="13.3952039480"><ele>1918.48</ele><time>2026-03-11T14:45:02Z</time><extensions><gpxtpx:TrackPointExtension><gpxtpx:atemp>3.3</gpxtpx:atemp></gpxtpx:TrackPointExtension></extensions></trkpt><trkpt lat="42.1879055165" lon="13.3952159341"><ele>1918.46</ele><time>2026-03-11T14:45:03Z</time><extensions><gpxtpx:TrackPointExtension><gpxtpx:atemp>3.3</gpxtpx:atemp></gpxtpx:TrackPointExtension></extensions></trkpt><trkpt lat="42.1879141498" lon="13.3952279203"><ele>1918.43</ele><time>2026-03-11T14:45:04Z</time><extensions><gpxtpx:TrackPointExtension><gpxtpx:atemp>3.3</gpxtpx:atemp></gpxtpx:TrackPointExtension></extensions></trkpt><trkpt lat="42.1879236214" lon="13.3952409960"><ele>1918.39</ele><time>2026-03-11T14:45:05Z</time><extensions><gpxtpx:TrackPointExtension><gpxtpx:atemp>3.3</gpxtpx:atemp></gpxtpx:TrackPointExtension></extensions></trkpt><trkpt lat="42.1879331768" lon="13.3952539880"><ele>1918.29</ele><time>2026-03-11T14:45:06Z</time><extensions><gpxtpx:TrackPointExtension><gpxtpx:atemp>3.3</gpxtpx:atemp></gpxtpx:TrackPointExtension></extensions></trkpt><trkpt lat="42.1879442409" lon="13.3952695783"><ele>1918.23</ele><time>2026-03-11T14:45:07Z</time><extensions><gpxtpx:TrackPointExtension><gpxtpx:atemp>3.3</gpxtpx:atemp></gpxtpx:TrackPointExtension></extensions></trkpt><trkpt lat="42.1879575681" lon="13.3952881861"><ele>1918.17</ele><time>2026-03-11T14:45:08Z</time><extensions><gpxtpx:TrackPointExtension><gpxtpx:atemp>3.3</gpxtpx:atemp></gpxtpx:TrackPointExtension></extensions></trkpt><trkpt lat="42.1879733261" lon="13.3953108173"><ele>1918.10</ele><time>2026-03-11T14:45:09Z</time><extensions><gpxtpx:TrackPointExtension><gpxtpx:atemp>3.3</gpxtpx:atemp></gpxtpx:TrackPointExtension></extensions></trkpt><trkpt lat="42.1879918501" lon="13.3953346219"><ele>1917.99</ele><time>2026-03-11T14:45:10Z</time><extensions><gpxtpx:TrackPointExtension><gpxtpx:atemp>3.3</gpxtpx:atemp></gpxtpx:TrackPointExtension></extensions></trkpt><trkpt lat="42.1880137268" lon="13.3953582589"><ele>1917.84</ele><time>2026-03-11T14:45:11Z</time><extensions><gpxtpx:TrackPointExtension><gpxtpx:atemp>3.3</gpxtpx:atemp></gpxtpx:TrackPointExtension></extensions></trkpt><trkpt lat="42.1880394593" lon="13.3953788783"><ele>1917.67</ele><time>2026-03-11T14:45:12Z</time><extensions><gpxtpx:TrackPointExtension><gpxtpx:atemp>3.3</gpxtpx:atemp></gpxtpx:TrackPointExtension></extensions></trkpt><trkpt lat="42.1880675387" lon="13.3953970671"><ele>1917.47</ele><time>2026-03-11T14:45:13Z</time><extensions><gpxtpx:TrackPointExtension><gpxtpx:atemp>3.3</gpxtpx:atemp></gpxtpx:TrackPointExtension></extensions></trkpt><trkpt lat="42.1880925167" lon="13.3954133280"><ele>1917.23</ele><time>2026-03-11T14:45:14Z</time><extensions><gpxtpx:TrackPointExtension><gpxtpx:atemp>3.3</gpxtpx:atemp></gpxtpx:TrackPointExtension></extensions></trkpt><trkpt lat="42.1881100349" lon="13.3954306785"><ele>1916.95</ele><time>2026-03-11T14:45:15Z</time><extensions><gpxtpx:TrackPointExtension><gpxtpx:atemp>3.3</gpxtpx:atemp></gpxtpx:TrackPointExtension></extensions></trkpt><trkpt lat="42.1881195903" lon="13.3954487834"><ele>1916.68</ele><time>2026-03-11T14:45:16Z</time><extensions><gpxtpx:TrackPointExtension><gpxtpx:atemp>3.3</gpxtpx:atemp></gpxtpx:TrackPointExtension></extensions></trkpt><trkpt lat="42.1881244518" lon="13.3954678942"><ele>1916.09</ele><time>2026-03-11T14:45:17Z</time><extensions><gpxtpx:TrackPointExtension><gpxtpx:atemp>3.3</gpxtpx:atemp></gpxtpx:TrackPointExtension></extensions></trkpt><trkpt lat="42.1881291457" lon="13.3954879269"><ele>1915.86</ele><time>2026-03-11T14:45:18Z</time><extensions><gpxtpx:TrackPointExtension><gpxtpx:atemp>3.3</gpxtpx:atemp></gpxtpx:TrackPointExtension></extensions></trkpt><trkpt lat="42.1881334204" lon="13.3955076244"><ele>1915.68</ele><time>2026-03-11T14:45:19Z</time><extensions><gpxtpx:TrackPointExtension><gpxtpx:atemp>3.3</gpxtpx:atemp></gpxtpx:TrackPointExtension></extensions></trkpt><trkpt lat="42.1881381981" lon="13.3955224603"><ele>1915.50</ele><time>2026-03-11T14:45:20Z</time><extensions><gpxtpx:TrackPointExtension><gpxtpx:atemp>3.3</gpxtpx:atemp></gpxtpx:TrackPointExtension></extensions></trkpt><trkpt lat="42.1881428920" lon="13.3955331892"><ele>1915.34</ele><time>2026-03-11T14:45:21Z</time><extensions><gpxtpx:TrackPointExtension><gpxtpx:atemp>3.3</gpxtpx:atemp></gpxtpx:TrackPointExtension></extensions></trkpt><trkpt lat="42.1881477535" lon="13.3955436666"><ele>1915.23</ele><time>2026-03-11T14:45:22Z</time><extensions><gpxtpx:TrackPointExtension><gpxtpx:atemp>3.3</gpxtpx:atemp></gpxtpx:TrackPointExtension></extensions></trkpt><trkpt lat="42.1881524473" lon="13.3955588378"><ele>1915.16</ele><time>2026-03-11T14:45:23Z</time><extensions><gpxtpx:TrackPointExtension><gpxtpx:atemp>3.3</gpxtpx:atemp></gpxtpx:TrackPointExtension></extensions></trkpt><trkpt lat="42.1881566383" lon="13.3955756854"><ele>1915.10</ele><time>2026-03-11T14:45:24Z</time><extensions><gpxtpx:TrackPointExtension><gpxtpx:atemp>3.3</gpxtpx:atemp></gpxtpx:TrackPointExtension></extensions></trkpt><trkpt lat="42.1881601587" lon="13.3955934551"><ele>1915.03</ele><time>2026-03-11T14:45:25Z</time><extensions><gpxtpx:TrackPointExtension><gpxtpx:atemp>3.3</gpxtpx:atemp></gpxtpx:TrackPointExtension></extensions></trkpt><trkpt lat="42.1881637629" lon="13.3956105541"><ele>1914.93</ele><time>2026-03-11T14:45:26Z</time><extensions><gpxtpx:TrackPointExtension><gpxtpx:atemp>3.3</gpxtpx:atemp></gpxtpx:TrackPointExtension></extensions></trkpt><trkpt lat="42.1881685406" lon="13.3956291620"><ele>1914.82</ele><time>2026-03-11T14:45:27Z</time><extensions><gpxtpx:TrackPointExtension><gpxtpx:atemp>3.3</gpxtpx:atemp></gpxtpx:TrackPointExtension></extensions></trkpt><trkpt lat="42.1881749947" lon="13.3956470992"><ele>1914.70</ele><time>2026-03-11T14:45:28Z</time><extensions><gpxtpx:TrackPointExtension><gpxtpx:atemp>3.3</gpxtpx:atemp></gpxtpx:TrackPointExtension></extensions></trkpt><trkpt lat="42.1881830413" lon="13.3956658747"><ele>1914.52</ele><time>2026-03-11T14:45:29Z</time><extensions><gpxtpx:TrackPointExtension><gpxtpx:atemp>3.3</gpxtpx:atemp></gpxtpx:TrackPointExtension></extensions></trkpt><trkpt lat="42.1881921776" lon="13.3956836443"><ele>1914.49</ele><time>2026-03-11T14:45:30Z</time><extensions><gpxtpx:TrackPointExtension><gpxtpx:atemp>3.3</gpxtpx:atemp></gpxtpx:TrackPointExtension></extensions></trkpt><trkpt lat="42.1882021520" lon="13.3957014978"><ele>1914.45</ele><time>2026-03-11T14:45:31Z</time><extensions><gpxtpx:TrackPointExtension><gpxtpx:atemp>3.3</gpxtpx:atemp></gpxtpx:TrackPointExtension></extensions></trkpt><trkpt lat="42.1882130485" lon="13.3957196865"><ele>1914.40</ele><time>2026-03-11T14:45:32Z</time><extensions><gpxtpx:TrackPointExtension><gpxtpx:atemp>3.3</gpxtpx:atemp></gpxtpx:TrackPointExtension></extensions></trkpt><trkpt lat="42.1882237773" lon="13.3957376238"><ele>1914.38</ele><time>2026-03-11T14:45:33Z</time><extensions><gpxtpx:TrackPointExtension><gpxtpx:atemp>3.3</gpxtpx:atemp></gpxtpx:TrackPointExtension></extensions></trkpt><trkpt lat="42.1882365178" lon="13.3957561478"><ele>1914.32</ele><time>2026-03-11T14:45:34Z</time><extensions><gpxtpx:TrackPointExtension><gpxtpx:atemp>3.0</gpxtpx:atemp></gpxtpx:TrackPointExtension></extensions></trkpt><trkpt lat="42.1882498451" lon="13.3957753424"><ele>1914.23</ele><time>2026-03-11T14:45:35Z</time><extensions><gpxtpx:TrackPointExtension><gpxtpx:atemp>3.0</gpxtpx:atemp></gpxtpx:TrackPointExtension></extensions></trkpt><trkpt lat="42.1882656869" lon="13.3957975544"><ele>1914.14</ele><time>2026-03-11T14:45:36Z</time><extensions><gpxtpx:TrackPointExtension><gpxtpx:atemp>3.0</gpxtpx:atemp></gpxtpx:TrackPointExtension></extensions></trkpt><trkpt lat="42.1882823668" lon="13.3958221972"><ele>1914.07</ele><time>2026-03-11T14:45:37Z</time><extensions><gpxtpx:TrackPointExtension><gpxtpx:atemp>3.0</gpxtpx:atemp></gpxtpx:TrackPointExtension></extensions></trkpt><trkpt lat="42.1883024834" lon="13.3958472591"><ele>1913.99</ele><time>2026-03-11T14:45:38Z</time><extensions><gpxtpx:TrackPointExtension><gpxtpx:atemp>3.0</gpxtpx:atemp></gpxtpx:TrackPointExtension></extensions></trkpt><trkpt lat="42.1883242764" lon="13.3958730754"><ele>1913.88</ele><time>2026-03-11T14:45:39Z</time><extensions><gpxtpx:TrackPointExtension><gpxtpx:atemp>3.0</gpxtpx:atemp></gpxtpx:TrackPointExtension></extensions></trkpt><trkpt lat="42.1883462369" lon="13.3958986402"><ele>1913.67</ele><time>2026-03-11T14:45:40Z</time><extensions><gpxtpx:TrackPointExtension><gpxtpx:atemp>3.0</gpxtpx:atemp></gpxtpx:TrackPointExtension></extensions></trkpt><trkpt lat="42.1883655991" lon="13.3959225286"><ele>1913.24</ele><time>2026-03-11T14:45:41Z</time><extensions><gpxtpx:TrackPointExtension><gpxtpx:atemp>3.0</gpxtpx:atemp></gpxtpx:TrackPointExtension></extensions></trkpt><trkpt lat="42.1883823629" lon="13.3959411364"><ele>1913.09</ele><time>2026-03-11T14:45:42Z</time><extensions><gpxtpx:TrackPointExtension><gpxtpx:atemp>3.0</gpxtpx:atemp></gpxtpx:TrackPointExtension></extensions></trkpt><trkpt lat="42.1883958578" lon="13.3959546313"><ele>1912.95</ele><time>2026-03-11T14:45:43Z</time><extensions><gpxtpx:TrackPointExtension><gpxtpx:atemp>3.0</gpxtpx:atemp></gpxtpx:TrackPointExtension></extensions></trkpt><trkpt lat="42.1884066705" lon="13.3959647734"><ele>1912.78</ele><time>2026-03-11T14:45:44Z</time><extensions><gpxtpx:TrackPointExtension><gpxtpx:atemp>3.0</gpxtpx:atemp></gpxtpx:TrackPointExtension></extensions></trkpt><trkpt lat="42.1884145495" lon="13.3959726524"><ele>1912.60</ele><time>2026-03-11T14:45:45Z</time><extensions><gpxtpx:TrackPointExtension><gpxtpx:atemp>3.0</gpxtpx:atemp></gpxtpx:TrackPointExtension></extensions></trkpt><trkpt lat="42.1884210873" lon="13.3959796932"><ele>1912.48</ele><time>2026-03-11T14:45:46Z</time><extensions><gpxtpx:TrackPointExtension><gpxtpx:atemp>3.0</gpxtpx:atemp></gpxtpx:TrackPointExtension></extensions></trkpt><trkpt lat="42.1884272899" lon="13.3959848899"><ele>1912.40</ele><time>2026-03-11T14:45:47Z</time><extensions><gpxtpx:TrackPointExtension><gpxtpx:atemp>3.0</gpxtpx:atemp></gpxtpx:TrackPointExtension></extensions></trkpt><trkpt lat="42.1884339955" lon="13.3959903382"><ele>1912.37</ele><time>2026-03-11T14:45:48Z</time><extensions><gpxtpx:TrackPointExtension><gpxtpx:atemp>3.0</gpxtpx:atemp></gpxtpx:TrackPointExtension></extensions></trkpt><trkpt lat="42.1884414554" lon="13.3959965408"><ele>1912.32</ele><time>2026-03-11T14:45:49Z</time><extensions><gpxtpx:TrackPointExtension><gpxtpx:atemp>3.0</gpxtpx:atemp></gpxtpx:TrackPointExtension></extensions></trkpt><trkpt lat="42.1884498373" lon="13.3960030787"><ele>1912.26</ele><time>2026-03-11T14:45:50Z</time><extensions><gpxtpx:TrackPointExtension><gpxtpx:atemp>3.0</gpxtpx:atemp></gpxtpx:TrackPointExtension></extensions></trkpt><trkpt lat="42.1884592250" lon="13.3960100356"><ele>1912.22</ele><time>2026-03-11T14:45:51Z</time><extensions><gpxtpx:TrackPointExtension><gpxtpx:atemp>3.0</gpxtpx:atemp></gpxtpx:TrackPointExtension></extensions></trkpt><trkpt lat="42.1884712949" lon="13.3960183337"><ele>1912.11</ele><time>2026-03-11T14:45:52Z</time><extensions><gpxtpx:TrackPointExtension><gpxtpx:atemp>3.0</gpxtpx:atemp></gpxtpx:TrackPointExtension></extensions></trkpt><trkpt lat="42.1884868853" lon="13.3960307389"><ele>1912.08</ele><time>2026-03-11T14:45:53Z</time><extensions><gpxtpx:TrackPointExtension><gpxtpx:atemp>3.0</gpxtpx:atemp></gpxtpx:TrackPointExtension></extensions></trkpt><trkpt lat="42.1885070857" lon="13.3960494306"><ele>1912.04</ele><time>2026-03-11T14:45:54Z</time><extensions><gpxtpx:TrackPointExtension><gpxtpx:atemp>3.0</gpxtpx:atemp></gpxtpx:TrackPointExtension></extensions></trkpt><trkpt lat="42.1885321476" lon="13.3960750792"><ele>1911.97</ele><time>2026-03-11T14:45:55Z</time><extensions><gpxtpx:TrackPointExtension><gpxtpx:atemp>3.0</gpxtpx:atemp></gpxtpx:TrackPointExtension></extensions></trkpt><trkpt lat="42.1885630768" lon="13.3961070981"><ele>1911.85</ele><time>2026-03-11T14:45:56Z</time><extensions><gpxtpx:TrackPointExtension><gpxtpx:atemp>3.0</gpxtpx:atemp></gpxtpx:TrackPointExtension></extensions></trkpt><trkpt lat="42.1885998733" lon="13.3961437270"><ele>1911.68</ele><time>2026-03-11T14:45:57Z</time><extensions><gpxtpx:TrackPointExtension><gpxtpx:atemp>3.0</gpxtpx:atemp></gpxtpx:TrackPointExtension></extensions></trkpt><trkpt lat="42.1886413638" lon="13.3961833734"><ele>1911.39</ele><time>2026-03-11T14:45:58Z</time><extensions><gpxtpx:TrackPointExtension><gpxtpx:atemp>3.0</gpxtpx:atemp></gpxtpx:TrackPointExtension></extensions></trkpt><trkpt lat="42.1886846982" lon="13.3962241933"><ele>1910.99</ele><time>2026-03-11T14:45:59Z</time><extensions><gpxtpx:TrackPointExtension><gpxtpx:atemp>3.0</gpxtpx:atemp></gpxtpx:TrackPointExtension></extensions></trkpt><trkpt lat="42.1887242608" lon="13.3962611575"><ele>1910.50</ele><time>2026-03-11T14:46:00Z</time><extensions><gpxtpx:TrackPointExtension><gpxtpx:atemp>3.0</gpxtpx:atemp></gpxtpx:TrackPointExtension></extensions></trkpt><trkpt lat="42.1887564473" lon="13.3962901589"><ele>1909.96</ele><time>2026-03-11T14:46:01Z</time><extensions><gpxtpx:TrackPointExtension><gpxtpx:atemp>3.0</gpxtpx:atemp></gpxtpx:TrackPointExtension></extensions></trkpt><trkpt lat="42.1887805872" lon="13.3963086829"><ele>1909.45</ele><time>2026-03-11T14:46:02Z</time><extensions><gpxtpx:TrackPointExtension><gpxtpx:atemp>3.0</gpxtpx:atemp></gpxtpx:TrackPointExtension></extensions></trkpt><trkpt lat="42.1887956746" lon="13.3963184897"><ele>1908.77</ele><time>2026-03-11T14:46:03Z</time><extensions><gpxtpx:TrackPointExtension><gpxtpx:atemp>3.0</gpxtpx:atemp></gpxtpx:TrackPointExtension></extensions></trkpt><trkpt lat="42.1888039727" lon="13.3963246923"><ele>1908.54</ele><time>2026-03-11T14:46:04Z</time><extensions><gpxtpx:TrackPointExtension><gpxtpx:atemp>3.0</gpxtpx:atemp></gpxtpx:TrackPointExtension></extensions></trkpt><trkpt lat="42.1888071578" lon="13.3963287994"><ele>1908.43</ele><time>2026-03-11T14:46:05Z</time><extensions><gpxtpx:TrackPointExtension><gpxtpx:atemp>3.0</gpxtpx:atemp></gpxtpx:TrackPointExtension></extensions></trkpt><trkpt lat="42.1888098400" lon="13.3963332418"><ele>1908.35</ele><time>2026-03-11T14:46:06Z</time><extensions><gpxtpx:TrackPointExtension><gpxtpx:atemp>3.0</gpxtpx:atemp></gpxtpx:TrackPointExtension></extensions></trkpt><trkpt lat="42.1888141986" lon="13.3963375166"><ele>1908.35</ele><time>2026-03-11T14:46:07Z</time><extensions><gpxtpx:TrackPointExtension><gpxtpx:atemp>3.0</gpxtpx:atemp></gpxtpx:TrackPointExtension></extensions></trkpt><trkpt lat="42.1888199821" lon="13.3963423781"><ele>1908.35</ele><time>2026-03-11T14:46:08Z</time><extensions><gpxtpx:TrackPointExtension><gpxtpx:atemp>3.0</gpxtpx:atemp></gpxtpx:TrackPointExtension></extensions></trkpt><trkpt lat="42.1888260171" lon="13.3963474911"><ele>1908.36</ele><time>2026-03-11T14:46:09Z</time><extensions><gpxtpx:TrackPointExtension><gpxtpx:atemp>3.0</gpxtpx:atemp></gpxtpx:TrackPointExtension></extensions></trkpt><trkpt lat="42.1888319682" lon="13.3963523526"><ele>1908.36</ele><time>2026-03-11T14:46:10Z</time><extensions><gpxtpx:TrackPointExtension><gpxtpx:atemp>3.0</gpxtpx:atemp></gpxtpx:TrackPointExtension></extensions></trkpt><trkpt lat="42.1888372488" lon="13.3963562921"><ele>1908.36</ele><time>2026-03-11T14:46:11Z</time><extensions><gpxtpx:TrackPointExtension><gpxtpx:atemp>3.0</gpxtpx:atemp></gpxtpx:TrackPointExtension></extensions></trkpt><trkpt lat="42.1888432000" lon="13.3963595610"><ele>1908.35</ele><time>2026-03-11T14:46:12Z</time><extensions><gpxtpx:TrackPointExtension><gpxtpx:atemp>3.0</gpxtpx:atemp></gpxtpx:TrackPointExtension></extensions></trkpt><trkpt lat="42.1888485644" lon="13.3963621594"><ele>1908.35</ele><time>2026-03-11T14:46:13Z</time><extensions><gpxtpx:TrackPointExtension><gpxtpx:atemp>3.0</gpxtpx:atemp></gpxtpx:TrackPointExtension></extensions></trkpt><trkpt lat="42.1888540965" lon="13.3963656798"><ele>1908.35</ele><time>2026-03-11T14:46:14Z</time><extensions><gpxtpx:TrackPointExtension><gpxtpx:atemp>3.0</gpxtpx:atemp></gpxtpx:TrackPointExtension></extensions></trkpt><trkpt lat="42.1888592932" lon="13.3963681944"><ele>1908.36</ele><time>2026-03-11T14:46:15Z</time><extensions><gpxtpx:TrackPointExtension><gpxtpx:atemp>3.0</gpxtpx:atemp></gpxtpx:TrackPointExtension></extensions></trkpt><trkpt lat="42.1888639871" lon="13.3963701222"><ele>1908.42</ele><time>2026-03-11T14:46:16Z</time><extensions><gpxtpx:TrackPointExtension><gpxtpx:atemp>3.0</gpxtpx:atemp></gpxtpx:TrackPointExtension></extensions></trkpt><trkpt lat="42.1888695192" lon="13.3963717986"><ele>1908.51</ele><time>2026-03-11T14:46:17Z</time><extensions><gpxtpx:TrackPointExtension><gpxtpx:atemp>3.0</gpxtpx:atemp></gpxtpx:TrackPointExtension></extensions></trkpt><trkpt lat="42.1888759732" lon="13.3963736426"><ele>1908.58</ele><time>2026-03-11T14:46:18Z</time><extensions><gpxtpx:TrackPointExtension><gpxtpx:atemp>3.0</gpxtpx:atemp></gpxtpx:TrackPointExtension></extensions></trkpt><trkpt lat="42.1888837684" lon="13.3963754866"><ele>1908.65</ele><time>2026-03-11T14:46:19Z</time><extensions><gpxtpx:TrackPointExtension><gpxtpx:atemp>3.0</gpxtpx:atemp></gpxtpx:TrackPointExtension></extensions></trkpt><trkpt lat="42.1888904739" lon="13.3963767439"><ele>1908.70</ele><time>2026-03-11T14:46:20Z</time><extensions><gpxtpx:TrackPointExtension><gpxtpx:atemp>3.0</gpxtpx:atemp></gpxtpx:TrackPointExtension></extensions></trkpt><trkpt lat="42.1888961736" lon="13.3963779174"><ele>1908.76</ele><time>2026-03-11T14:46:21Z</time><extensions><gpxtpx:TrackPointExtension><gpxtpx:atemp>3.0</gpxtpx:atemp></gpxtpx:TrackPointExtension></extensions></trkpt><trkpt lat="42.1889008675" lon="13.3963791747"><ele>1908.81</ele><time>2026-03-11T14:46:22Z</time><extensions><gpxtpx:TrackPointExtension><gpxtpx:atemp>3.0</gpxtpx:atemp></gpxtpx:TrackPointExtension></extensions></trkpt><trkpt lat="42.1889061481" lon="13.3963827789"><ele>1908.86</ele><time>2026-03-11T14:46:23Z</time><extensions><gpxtpx:TrackPointExtension><gpxtpx:atemp>3.0</gpxtpx:atemp></gpxtpx:TrackPointExtension></extensions></trkpt><trkpt lat="42.1889123507" lon="13.3963876404"><ele>1908.87</ele><time>2026-03-11T14:46:24Z</time><extensions><gpxtpx:TrackPointExtension><gpxtpx:atemp>3.0</gpxtpx:atemp></gpxtpx:TrackPointExtension></extensions></trkpt><trkpt lat="42.1889204811" lon="13.3963952679"><ele>1908.90</ele><time>2026-03-11T14:46:25Z</time><extensions><gpxtpx:TrackPointExtension><gpxtpx:atemp>3.0</gpxtpx:atemp></gpxtpx:TrackPointExtension></extensions></trkpt><trkpt lat="42.1889292821" lon="13.3964037336"><ele>1908.95</ele><time>2026-03-11T14:46:26Z</time><extensions><gpxtpx:TrackPointExtension><gpxtpx:atemp>3.0</gpxtpx:atemp></gpxtpx:TrackPointExtension></extensions></trkpt><trkpt lat="42.1889389213" lon="13.3964144625"><ele>1909.03</ele><time>2026-03-11T14:46:27Z</time><extensions><gpxtpx:TrackPointExtension><gpxtpx:atemp>3.0</gpxtpx:atemp></gpxtpx:TrackPointExtension></extensions></trkpt><trkpt lat="42.1889484767" lon="13.3964269515"><ele>1909.03</ele><time>2026-03-11T14:46:28Z</time><extensions><gpxtpx:TrackPointExtension><gpxtpx:atemp>3.0</gpxtpx:atemp></gpxtpx:TrackPointExtension></extensions></trkpt><trkpt lat="42.1889576968" lon="13.3964411169"><ele>1908.98</ele><time>2026-03-11T14:46:29Z</time><extensions><gpxtpx:TrackPointExtension><gpxtpx:atemp>3.0</gpxtpx:atemp></gpxtpx:TrackPointExtension></extensions></trkpt><trkpt lat="42.1889661625" lon="13.3964561205"><ele>1908.97</ele><time>2026-03-11T14:46:30Z</time><extensions><gpxtpx:TrackPointExtension><gpxtpx:atemp>3.0</gpxtpx:atemp></gpxtpx:TrackPointExtension></extensions></trkpt><trkpt lat="42.1889740415" lon="13.3964711241"><ele>1908.94</ele><time>2026-03-11T14:46:31Z</time><extensions><gpxtpx:TrackPointExtension><gpxtpx:atemp>3.0</gpxtpx:atemp></gpxtpx:TrackPointExtension></extensions></trkpt><trkpt lat="42.1889821719" lon="13.3964855410"><ele>1908.91</ele><time>2026-03-11T14:46:32Z</time><extensions><gpxtpx:TrackPointExtension><gpxtpx:atemp>3.0</gpxtpx:atemp></gpxtpx:TrackPointExtension></extensions></trkpt><trkpt lat="42.1889899671" lon="13.3965002932"><ele>1908.88</ele><time>2026-03-11T14:46:33Z</time><extensions><gpxtpx:TrackPointExtension><gpxtpx:atemp>3.0</gpxtpx:atemp></gpxtpx:TrackPointExtension></extensions></trkpt><trkpt lat="42.1889978461" lon="13.3965158835"><ele>1908.84</ele><time>2026-03-11T14:46:34Z</time><extensions><gpxtpx:TrackPointExtension><gpxtpx:atemp>3.3</gpxtpx:atemp></gpxtpx:TrackPointExtension></extensions></trkpt><trkpt lat="42.1890053898" lon="13.3965328988"><ele>1908.78</ele><time>2026-03-11T14:46:35Z</time><extensions><gpxtpx:TrackPointExtension><gpxtpx:atemp>3.3</gpxtpx:atemp></gpxtpx:TrackPointExtension></extensions></trkpt><trkpt lat="42.1890118439" lon="13.3965496626"><ele>1908.71</ele><time>2026-03-11T14:46:36Z</time><extensions><gpxtpx:TrackPointExtension><gpxtpx:atemp>3.3</gpxtpx:atemp></gpxtpx:TrackPointExtension></extensions></trkpt><trkpt lat="42.1890187170" lon="13.3965665940"><ele>1908.61</ele><time>2026-03-11T14:46:37Z</time><extensions><gpxtpx:TrackPointExtension><gpxtpx:atemp>3.3</gpxtpx:atemp></gpxtpx:TrackPointExtension></extensions></trkpt><trkpt lat="42.1890253387" lon="13.3965837769"><ele>1908.48</ele><time>2026-03-11T14:46:38Z</time><extensions><gpxtpx:TrackPointExtension><gpxtpx:atemp>3.3</gpxtpx:atemp></gpxtpx:TrackPointExtension></extensions></trkpt><trkpt lat="42.1890329663" lon="13.3966020495"><ele>1908.45</ele><time>2026-03-11T14:46:39Z</time><extensions><gpxtpx:TrackPointExtension><gpxtpx:atemp>3.3</gpxtpx:atemp></gpxtpx:TrackPointExtension></extensions></trkpt><trkpt lat="42.1890394203" lon="13.3966199867"><ele>1908.41</ele><time>2026-03-11T14:46:40Z</time><extensions><gpxtpx:TrackPointExtension><gpxtpx:atemp>3.3</gpxtpx:atemp></gpxtpx:TrackPointExtension></extensions></trkpt><trkpt lat="42.1890458744" lon="13.3966376726"><ele>1908.39</ele><time>2026-03-11T14:46:41Z</time><extensions><gpxtpx:TrackPointExtension><gpxtpx:atemp>3.3</gpxtpx:atemp></gpxtpx:TrackPointExtension></extensions></trkpt><trkpt lat="42.1890516579" lon="13.3966555260"><ele>1908.38</ele><time>2026-03-11T14:46:42Z</time><extensions><gpxtpx:TrackPointExtension><gpxtpx:atemp>3.3</gpxtpx:atemp></gpxtpx:TrackPointExtension></extensions></trkpt><trkpt lat="42.1890581958" lon="13.3966744691"><ele>1908.35</ele><time>2026-03-11T14:46:43Z</time><extensions><gpxtpx:TrackPointExtension><gpxtpx:atemp>3.3</gpxtpx:atemp></gpxtpx:TrackPointExtension></extensions></trkpt><trkpt lat="42.1890646499" lon="13.3966917358"><ele>1908.32</ele><time>2026-03-11T14:46:44Z</time><extensions><gpxtpx:TrackPointExtension><gpxtpx:atemp>3.3</gpxtpx:atemp></gpxtpx:TrackPointExtension></extensions></trkpt><trkpt lat="42.1890708525" lon="13.3967094216"><ele>1908.27</ele><time>2026-03-11T14:46:45Z</time><extensions><gpxtpx:TrackPointExtension><gpxtpx:atemp>3.3</gpxtpx:atemp></gpxtpx:TrackPointExtension></extensions></trkpt><trkpt lat="42.1890765522" lon="13.3967278618"><ele>1908.20</ele><time>2026-03-11T14:46:46Z</time><extensions><gpxtpx:TrackPointExtension><gpxtpx:atemp>3.3</gpxtpx:atemp></gpxtpx:TrackPointExtension></extensions></trkpt><trkpt lat="42.1890818328" lon="13.3967483975"><ele>1908.13</ele><time>2026-03-11T14:46:47Z</time><extensions><gpxtpx:TrackPointExtension><gpxtpx:atemp>3.3</gpxtpx:atemp></gpxtpx:TrackPointExtension></extensions></trkpt><trkpt lat="42.1890873648" lon="13.3967684302"><ele>1908.07</ele><time>2026-03-11T14:46:48Z</time><extensions><gpxtpx:TrackPointExtension><gpxtpx:atemp>3.3</gpxtpx:atemp></gpxtpx:TrackPointExtension></extensions></trkpt><trkpt lat="42.1890932322" lon="13.3967882954"><ele>1908.02</ele><time>2026-03-11T14:46:49Z</time><extensions><gpxtpx:TrackPointExtension><gpxtpx:atemp>3.3</gpxtpx:atemp></gpxtpx:TrackPointExtension></extensions></trkpt><trkpt lat="42.1890994348" lon="13.3968087472"><ele>1907.92</ele><time>2026-03-11T14:46:50Z</time><extensions><gpxtpx:TrackPointExtension><gpxtpx:atemp>3.3</gpxtpx:atemp></gpxtpx:TrackPointExtension></extensions></trkpt><trkpt lat="42.1891066432" lon="13.3968293667"><ele>1907.81</ele><time>2026-03-11T14:46:51Z</time><extensions><gpxtpx:TrackPointExtension><gpxtpx:atemp>3.3</gpxtpx:atemp></gpxtpx:TrackPointExtension></extensions></trkpt><trkpt lat="42.1891139355" lon="13.3968496509"><ele>1907.69</ele><time>2026-03-11T14:46:52Z</time><extensions><gpxtpx:TrackPointExtension><gpxtpx:atemp>3.3</gpxtpx:atemp></gpxtpx:TrackPointExtension></extensions></trkpt><trkpt lat="42.1891226526" lon="13.3968703542"><ele>1907.62</ele><time>2026-03-11T14:46:53Z</time><extensions><gpxtpx:TrackPointExtension><gpxtpx:atemp>3.3</gpxtpx:atemp></gpxtpx:TrackPointExtension></extensions></trkpt><trkpt lat="42.1891323756" lon="13.3968913928"><ele>1907.55</ele><time>2026-03-11T14:46:54Z</time><extensions><gpxtpx:TrackPointExtension><gpxtpx:atemp>3.3</gpxtpx:atemp></gpxtpx:TrackPointExtension></extensions></trkpt><trkpt lat="42.1891445294" lon="13.3969124313"><ele>1907.52</ele><time>2026-03-11T14:46:55Z</time><extensions><gpxtpx:TrackPointExtension><gpxtpx:atemp>3.3</gpxtpx:atemp></gpxtpx:TrackPointExtension></extensions></trkpt><trkpt lat="42.1891573537" lon="13.3969323803"><ele>1907.47</ele><time>2026-03-11T14:46:56Z</time><extensions><gpxtpx:TrackPointExtension><gpxtpx:atemp>3.3</gpxtpx:atemp></gpxtpx:TrackPointExtension></extensions></trkpt><trkpt lat="42.1891697589" lon="13.3969513234"><ele>1907.40</ele><time>2026-03-11T14:46:57Z</time><extensions><gpxtpx:TrackPointExtension><gpxtpx:atemp>3.3</gpxtpx:atemp></gpxtpx:TrackPointExtension></extensions></trkpt><trkpt lat="42.1891804878" lon="13.3969692606"><ele>1907.32</ele><time>2026-03-11T14:46:58Z</time><extensions><gpxtpx:TrackPointExtension><gpxtpx:atemp>3.3</gpxtpx:atemp></gpxtpx:TrackPointExtension></extensions></trkpt><trkpt lat="42.1891907975" lon="13.3969853539"><ele>1907.23</ele><time>2026-03-11T14:46:59Z</time><extensions><gpxtpx:TrackPointExtension><gpxtpx:atemp>3.3</gpxtpx:atemp></gpxtpx:TrackPointExtension></extensions></trkpt><trkpt lat="42.1891999338" lon="13.3970009442"><ele>1907.14</ele><time>2026-03-11T14:47:00Z</time><extensions><gpxtpx:TrackPointExtension><gpxtpx:atemp>3.3</gpxtpx:atemp></gpxtpx:TrackPointExtension></extensions></trkpt><trkpt lat="42.1892081480" lon="13.3970155288"><ele>1907.00</ele><time>2026-03-11T14:47:01Z</time><extensions><gpxtpx:TrackPointExtension><gpxtpx:atemp>3.3</gpxtpx:atemp></gpxtpx:TrackPointExtension></extensions></trkpt><trkpt lat="42.1892153565" lon="13.3970287722"><ele>1906.93</ele><time>2026-03-11T14:47:02Z</time><extensions><gpxtpx:TrackPointExtension><gpxtpx:atemp>3.3</gpxtpx:atemp></gpxtpx:TrackPointExtension></extensions></trkpt><trkpt lat="42.1892220620" lon="13.3970401715"><ele>1906.88</ele><time>2026-03-11T14:47:03Z</time><extensions><gpxtpx:TrackPointExtension><gpxtpx:atemp>3.3</gpxtpx:atemp></gpxtpx:TrackPointExtension></extensions></trkpt><trkpt lat="42.1892277617" lon="13.3970493916"><ele>1906.84</ele><time>2026-03-11T14:47:04Z</time><extensions><gpxtpx:TrackPointExtension><gpxtpx:atemp>3.3</gpxtpx:atemp></gpxtpx:TrackPointExtension></extensions></trkpt><trkpt lat="42.1892311983" lon="13.3970554266"><ele>1906.82</ele><time>2026-03-11T14:47:05Z</time><extensions><gpxtpx:TrackPointExtension><gpxtpx:atemp>3.3</gpxtpx:atemp></gpxtpx:TrackPointExtension></extensions></trkpt><trkpt lat="42.1892327908" lon="13.3970577735"><ele>1906.82</ele><time>2026-03-11T14:47:06Z</time><extensions><gpxtpx:TrackPointExtension><gpxtpx:atemp>3.3</gpxtpx:atemp></gpxtpx:TrackPointExtension></extensions></trkpt><trkpt lat="42.1892331261" lon="13.3970572706"><ele>1906.81</ele><time>2026-03-11T14:47:07Z</time><extensions><gpxtpx:TrackPointExtension><gpxtpx:atemp>3.3</gpxtpx:atemp></gpxtpx:TrackPointExtension></extensions></trkpt><trkpt lat="42.1892331261" lon="13.3970559295"><ele>1906.78</ele><time>2026-03-11T14:47:08Z</time><extensions><gpxtpx:TrackPointExtension><gpxtpx:atemp>3.3</gpxtpx:atemp></gpxtpx:TrackPointExtension></extensions></trkpt><trkpt lat="42.1892334614" lon="13.3970551752"><ele>1906.75</ele><time>2026-03-11T14:47:09Z</time><extensions><gpxtpx:TrackPointExtension><gpxtpx:atemp>3.3</gpxtpx:atemp></gpxtpx:TrackPointExtension></extensions></trkpt><trkpt lat="42.1892332938" lon="13.3970552590"><ele>1906.72</ele><time>2026-03-11T14:47:10Z</time><extensions><gpxtpx:TrackPointExtension><gpxtpx:atemp>3.3</gpxtpx:atemp></gpxtpx:TrackPointExtension></extensions></trkpt><trkpt lat="42.1892330423" lon="13.3970556781"><ele>1906.72</ele><time>2026-03-11T14:47:11Z</time><extensions><gpxtpx:TrackPointExtension><gpxtpx:atemp>3.3</gpxtpx:atemp></gpxtpx:TrackPointExtension></extensions></trkpt><trkpt lat="42.1892329585" lon="13.3970560972"><ele>1906.72</ele><time>2026-03-11T14:47:12Z</time><extensions><gpxtpx:TrackPointExtension><gpxtpx:atemp>3.3</gpxtpx:atemp></gpxtpx:TrackPointExtension></extensions></trkpt><trkpt lat="42.1892331261" lon="13.3970560972"><ele>1906.79</ele><time>2026-03-11T14:47:13Z</time><extensions><gpxtpx:TrackPointExtension><gpxtpx:atemp>3.3</gpxtpx:atemp></gpxtpx:TrackPointExtension></extensions></trkpt><trkpt lat="42.1892330423" lon="13.3970557619"><ele>1906.79</ele><time>2026-03-11T14:47:14Z</time><extensions><gpxtpx:TrackPointExtension><gpxtpx:atemp>3.3</gpxtpx:atemp></gpxtpx:TrackPointExtension></extensions></trkpt><trkpt lat="42.1892330423" lon="13.3970553428"><ele>1906.82</ele><time>2026-03-11T14:47:15Z</time><extensions><gpxtpx:TrackPointExtension><gpxtpx:atemp>3.3</gpxtpx:atemp></gpxtpx:TrackPointExtension></extensions></trkpt><trkpt lat="42.1892338805" lon="13.3970566839"><ele>1906.84</ele><time>2026-03-11T14:47:16Z</time><extensions><gpxtpx:TrackPointExtension><gpxtpx:atemp>3.3</gpxtpx:atemp></gpxtpx:TrackPointExtension></extensions></trkpt><trkpt lat="42.1892357245" lon="13.3970596176"><ele>1906.84</ele><time>2026-03-11T14:47:17Z</time><extensions><gpxtpx:TrackPointExtension><gpxtpx:atemp>3.3</gpxtpx:atemp></gpxtpx:TrackPointExtension></extensions></trkpt><trkpt lat="42.1892399993" lon="13.3970661554"><ele>1906.82</ele><time>2026-03-11T14:47:18Z</time><extensions><gpxtpx:TrackPointExtension><gpxtpx:atemp>3.3</gpxtpx:atemp></gpxtpx:TrackPointExtension></extensions></trkpt><trkpt lat="42.1892443579" lon="13.3970744535"><ele>1906.80</ele><time>2026-03-11T14:47:19Z</time><extensions><gpxtpx:TrackPointExtension><gpxtpx:atemp>3.3</gpxtpx:atemp></gpxtpx:TrackPointExtension></extensions></trkpt><trkpt lat="42.1892496385" lon="13.3970840927"><ele>1906.79</ele><time>2026-03-11T14:47:20Z</time><extensions><gpxtpx:TrackPointExtension><gpxtpx:atemp>3.3</gpxtpx:atemp></gpxtpx:TrackPointExtension></extensions></trkpt><trkpt lat="42.1892545838" lon="13.3970929775"><ele>1906.78</ele><time>2026-03-11T14:47:21Z</time><extensions><gpxtpx:TrackPointExtension><gpxtpx:atemp>3.3</gpxtpx:atemp></gpxtpx:TrackPointExtension></extensions></trkpt><trkpt lat="42.1892600320" lon="13.3971015271"><ele>1906.76</ele><time>2026-03-11T14:47:22Z</time><extensions><gpxtpx:TrackPointExtension><gpxtpx:atemp>3.3</gpxtpx:atemp></gpxtpx:TrackPointExtension></extensions></trkpt><trkpt lat="42.1892649774" lon="13.3971094899"><ele>1906.74</ele><time>2026-03-11T14:47:23Z</time><extensions><gpxtpx:TrackPointExtension><gpxtpx:atemp>3.3</gpxtpx:atemp></gpxtpx:TrackPointExtension></extensions></trkpt><trkpt lat="42.1892697550" lon="13.3971176203"><ele>1906.68</ele><time>2026-03-11T14:47:24Z</time><extensions><gpxtpx:TrackPointExtension><gpxtpx:atemp>3.3</gpxtpx:atemp></gpxtpx:TrackPointExtension></extensions></trkpt><trkpt lat="42.1892742813" lon="13.3971256670"><ele>1906.66</ele><time>2026-03-11T14:47:25Z</time><extensions><gpxtpx:TrackPointExtension><gpxtpx:atemp>3.3</gpxtpx:atemp></gpxtpx:TrackPointExtension></extensions></trkpt><trkpt lat="42.1892796457" lon="13.3971352223"><ele>1906.61</ele><time>2026-03-11T14:47:26Z</time><extensions><gpxtpx:TrackPointExtension><gpxtpx:atemp>3.3</gpxtpx:atemp></gpxtpx:TrackPointExtension></extensions></trkpt><trkpt lat="42.1892851777" lon="13.3971457835"><ele>1906.55</ele><time>2026-03-11T14:47:27Z</time><extensions><gpxtpx:TrackPointExtension><gpxtpx:atemp>3.3</gpxtpx:atemp></gpxtpx:TrackPointExtension></extensions></trkpt><trkpt lat="42.1892903745" lon="13.3971573506"><ele>1906.52</ele><time>2026-03-11T14:47:28Z</time><extensions><gpxtpx:TrackPointExtension><gpxtpx:atemp>3.3</gpxtpx:atemp></gpxtpx:TrackPointExtension></extensions></trkpt><trkpt lat="42.1892944816" lon="13.3971689176"><ele>1906.50</ele><time>2026-03-11T14:47:29Z</time><extensions><gpxtpx:TrackPointExtension><gpxtpx:atemp>3.3</gpxtpx:atemp></gpxtpx:TrackPointExtension></extensions></trkpt><trkpt lat="42.1892983373" lon="13.3971808199"><ele>1906.49</ele><time>2026-03-11T14:47:30Z</time><extensions><gpxtpx:TrackPointExtension><gpxtpx:atemp>3.3</gpxtpx:atemp></gpxtpx:TrackPointExtension></extensions></trkpt><trkpt lat="42.1893038694" lon="13.3971950691"><ele>1906.47</ele><time>2026-03-11T14:47:31Z</time><extensions><gpxtpx:TrackPointExtension><gpxtpx:atemp>3.3</gpxtpx:atemp></gpxtpx:TrackPointExtension></extensions></trkpt><trkpt lat="42.1893100720" lon="13.3972109947"><ele>1906.45</ele><time>2026-03-11T14:47:32Z</time><extensions><gpxtpx:TrackPointExtension><gpxtpx:atemp>3.3</gpxtpx:atemp></gpxtpx:TrackPointExtension></extensions></trkpt><trkpt lat="42.1893173642" lon="13.3972289320"><ele>1906.43</ele><time>2026-03-11T14:47:33Z</time><extensions><gpxtpx:TrackPointExtension><gpxtpx:atemp>3.3</gpxtpx:atemp></gpxtpx:TrackPointExtension></extensions></trkpt><trkpt lat="42.1893247403" lon="13.3972482942"><ele>1906.42</ele><time>2026-03-11T14:47:34Z</time><extensions><gpxtpx:TrackPointExtension><gpxtpx:atemp>3.2</gpxtpx:atemp></gpxtpx:TrackPointExtension></extensions></trkpt><trkpt lat="42.1893322840" lon="13.3972708415"><ele>1906.40</ele><time>2026-03-11T14:47:35Z</time><extensions><gpxtpx:TrackPointExtension><gpxtpx:atemp>3.2</gpxtpx:atemp></gpxtpx:TrackPointExtension></extensions></trkpt><trkpt lat="42.1893390734" lon="13.3972956520"><ele>1906.36</ele><time>2026-03-11T14:47:36Z</time><extensions><gpxtpx:TrackPointExtension><gpxtpx:atemp>3.2</gpxtpx:atemp></gpxtpx:TrackPointExtension></extensions></trkpt><trkpt lat="42.1893438511" lon="13.3973208815"><ele>1906.31</ele><time>2026-03-11T14:47:37Z</time><extensions><gpxtpx:TrackPointExtension><gpxtpx:atemp>3.2</gpxtpx:atemp></gpxtpx:TrackPointExtension></extensions></trkpt><trkpt lat="42.1893493831" lon="13.3973442670"><ele>1906.23</ele><time>2026-03-11T14:47:38Z</time><extensions><gpxtpx:TrackPointExtension><gpxtpx:atemp>3.2</gpxtpx:atemp></gpxtpx:TrackPointExtension></extensions></trkpt><trkpt lat="42.1893575974" lon="13.3973638806"><ele>1906.12</ele><time>2026-03-11T14:47:39Z</time><extensions><gpxtpx:TrackPointExtension><gpxtpx:atemp>3.2</gpxtpx:atemp></gpxtpx:TrackPointExtension></extensions></trkpt><trkpt lat="42.1893718466" lon="13.3973800577"><ele>1906.00</ele><time>2026-03-11T14:47:40Z</time><extensions><gpxtpx:TrackPointExtension><gpxtpx:atemp>3.2</gpxtpx:atemp></gpxtpx:TrackPointExtension></extensions></trkpt><trkpt lat="42.1893906221" lon="13.3973915409"><ele>1905.83</ele><time>2026-03-11T14:47:41Z</time><extensions><gpxtpx:TrackPointExtension><gpxtpx:atemp>3.2</gpxtpx:atemp></gpxtpx:TrackPointExtension></extensions></trkpt><trkpt lat="42.1894127503" lon="13.3973997552"><ele>1905.61</ele><time>2026-03-11T14:47:42Z</time><extensions><gpxtpx:TrackPointExtension><gpxtpx:atemp>3.2</gpxtpx:atemp></gpxtpx:TrackPointExtension></extensions></trkpt><trkpt lat="42.1894373931" lon="13.3974029403"><ele>1905.41</ele><time>2026-03-11T14:47:43Z</time><extensions><gpxtpx:TrackPointExtension><gpxtpx:atemp>3.2</gpxtpx:atemp></gpxtpx:TrackPointExtension></extensions></trkpt><trkpt lat="42.1894634608" lon="13.3974004257"><ele>1905.15</ele><time>2026-03-11T14:47:44Z</time><extensions><gpxtpx:TrackPointExtension><gpxtpx:atemp>3.2</gpxtpx:atemp></gpxtpx:TrackPointExtension></extensions></trkpt><trkpt lat="42.1894910373" lon="13.3973910380"><ele>1904.83</ele><time>2026-03-11T14:47:45Z</time><extensions><gpxtpx:TrackPointExtension><gpxtpx:atemp>3.2</gpxtpx:atemp></gpxtpx:TrackPointExtension></extensions></trkpt><trkpt lat="42.1895219665" lon="13.3973801415"><ele>1904.49</ele><time>2026-03-11T14:47:46Z</time><extensions><gpxtpx:TrackPointExtension><gpxtpx:atemp>3.2</gpxtpx:atemp></gpxtpx:TrackPointExtension></extensions></trkpt><trkpt lat="42.1895566676" lon="13.3973712567"><ele>1903.73</ele><time>2026-03-11T14:47:47Z</time><extensions><gpxtpx:TrackPointExtension><gpxtpx:atemp>3.2</gpxtpx:atemp></gpxtpx:TrackPointExtension></extensions></trkpt><trkpt lat="42.1895898599" lon="13.3973820694"><ele>1903.33</ele><time>2026-03-11T14:47:48Z</time><extensions><gpxtpx:TrackPointExtension><gpxtpx:atemp>3.2</gpxtpx:atemp></gpxtpx:TrackPointExtension></extensions></trkpt><trkpt lat="42.1896188613" lon="13.3974103164"><ele>1902.90</ele><time>2026-03-11T14:47:49Z</time><extensions><gpxtpx:TrackPointExtension><gpxtpx:atemp>3.2</gpxtpx:atemp></gpxtpx:TrackPointExtension></extensions></trkpt><trkpt lat="42.1896430850" lon="13.3974552434"><ele>1902.30</ele><time>2026-03-11T14:47:50Z</time><extensions><gpxtpx:TrackPointExtension><gpxtpx:atemp>3.2</gpxtpx:atemp></gpxtpx:TrackPointExtension></extensions></trkpt><trkpt lat="42.1896666382" lon="13.3975000866"><ele>1901.64</ele><time>2026-03-11T14:47:51Z</time><extensions><gpxtpx:TrackPointExtension><gpxtpx:atemp>3.2</gpxtpx:atemp></gpxtpx:TrackPointExtension></extensions></trkpt><trkpt lat="42.1896895207" lon="13.3975449298"><ele>1900.99</ele><time>2026-03-11T14:47:52Z</time><extensions><gpxtpx:TrackPointExtension><gpxtpx:atemp>3.2</gpxtpx:atemp></gpxtpx:TrackPointExtension></extensions></trkpt><trkpt lat="42.1897120681" lon="13.3975913655"><ele>1900.33</ele><time>2026-03-11T14:47:53Z</time><extensions><gpxtpx:TrackPointExtension><gpxtpx:atemp>3.2</gpxtpx:atemp></gpxtpx:TrackPointExtension></extensions></trkpt><trkpt lat="42.1897345316" lon="13.3976413216"><ele>1899.68</ele><time>2026-03-11T14:47:54Z</time><extensions><gpxtpx:TrackPointExtension><gpxtpx:atemp>3.2</gpxtpx:atemp></gpxtpx:TrackPointExtension></extensions></trkpt><trkpt lat="42.1897576656" lon="13.3976940438"><ele>1899.03</ele><time>2026-03-11T14:47:55Z</time><extensions><gpxtpx:TrackPointExtension><gpxtpx:atemp>3.2</gpxtpx:atemp></gpxtpx:TrackPointExtension></extensions></trkpt><trkpt lat="42.1897831466" lon="13.3977485262"><ele>1898.43</ele><time>2026-03-11T14:47:56Z</time><extensions><gpxtpx:TrackPointExtension><gpxtpx:atemp>3.2</gpxtpx:atemp></gpxtpx:TrackPointExtension></extensions></trkpt><trkpt lat="42.1898108907" lon="13.3978038467"><ele>1897.81</ele><time>2026-03-11T14:47:57Z</time><extensions><gpxtpx:TrackPointExtension><gpxtpx:atemp>3.2</gpxtpx:atemp></gpxtpx:TrackPointExtension></extensions></trkpt><trkpt lat="42.1898371261" lon="13.3978617657"><ele>1897.14</ele><time>2026-03-11T14:47:58Z</time><extensions><gpxtpx:TrackPointExtension><gpxtpx:atemp>3.2</gpxtpx:atemp></gpxtpx:TrackPointExtension></extensions></trkpt><trkpt lat="42.1898614336" lon="13.3979224507"><ele>1895.73</ele><time>2026-03-11T14:47:59Z</time><extensions><gpxtpx:TrackPointExtension><gpxtpx:atemp>3.2</gpxtpx:atemp></gpxtpx:TrackPointExtension></extensions></trkpt><trkpt lat="42.1899169218" lon="13.3980393782"><ele>1894.98</ele><time>2026-03-11T14:48:00Z</time><extensions><gpxtpx:TrackPointExtension><gpxtpx:atemp>3.2</gpxtpx:atemp></gpxtpx:TrackPointExtension></extensions></trkpt><trkpt lat="42.1899527963" lon="13.3980771806"><ele>1894.18</ele><time>2026-03-11T14:48:01Z</time><extensions><gpxtpx:TrackPointExtension><gpxtpx:atemp>3.2</gpxtpx:atemp></gpxtpx:TrackPointExtension></extensions></trkpt><trkpt lat="42.1899852343" lon="13.3980936930"><ele>1893.30</ele><time>2026-03-11T14:48:02Z</time><extensions><gpxtpx:TrackPointExtension><gpxtpx:atemp>3.2</gpxtpx:atemp></gpxtpx:TrackPointExtension></extensions></trkpt><trkpt lat="42.1900092904" lon="13.3981018234"><ele>1892.43</ele><time>2026-03-11T14:48:03Z</time><extensions><gpxtpx:TrackPointExtension><gpxtpx:atemp>3.2</gpxtpx:atemp></gpxtpx:TrackPointExtension></extensions></trkpt><trkpt lat="42.1900290716" lon="13.3981097862"><ele>1891.68</ele><time>2026-03-11T14:48:04Z</time><extensions><gpxtpx:TrackPointExtension><gpxtpx:atemp>3.2</gpxtpx:atemp></gpxtpx:TrackPointExtension></extensions></trkpt><trkpt lat="42.1900483500" lon="13.3981178328"><ele>1891.04</ele><time>2026-03-11T14:48:05Z</time><extensions><gpxtpx:TrackPointExtension><gpxtpx:atemp>3.2</gpxtpx:atemp></gpxtpx:TrackPointExtension></extensions></trkpt><trkpt lat="42.1900644433" lon="13.3981419727"><ele>1890.47</ele><time>2026-03-11T14:48:06Z</time><extensions><gpxtpx:TrackPointExtension><gpxtpx:atemp>3.2</gpxtpx:atemp></gpxtpx:TrackPointExtension></extensions></trkpt><trkpt lat="42.1900825482" lon="13.3981810324"><ele>1890.04</ele><time>2026-03-11T14:48:07Z</time><extensions><gpxtpx:TrackPointExtension><gpxtpx:atemp>3.2</gpxtpx:atemp></gpxtpx:TrackPointExtension></extensions></trkpt><trkpt lat="42.1901054308" lon="13.3982232772"><ele>1889.70</ele><time>2026-03-11T14:48:08Z</time><extensions><gpxtpx:TrackPointExtension><gpxtpx:atemp>3.2</gpxtpx:atemp></gpxtpx:TrackPointExtension></extensions></trkpt><trkpt lat="42.1901358571" lon="13.3982555475"><ele>1889.37</ele><time>2026-03-11T14:48:09Z</time><extensions><gpxtpx:TrackPointExtension><gpxtpx:atemp>3.2</gpxtpx:atemp></gpxtpx:TrackPointExtension></extensions></trkpt><trkpt lat="42.1901663672" lon="13.3982742392"><ele>1888.67</ele><time>2026-03-11T14:48:10Z</time><extensions><gpxtpx:TrackPointExtension><gpxtpx:atemp>3.2</gpxtpx:atemp></gpxtpx:TrackPointExtension></extensions></trkpt><trkpt lat="42.1901885793" lon="13.3982783463"><ele>1888.18</ele><time>2026-03-11T14:48:11Z</time><extensions><gpxtpx:TrackPointExtension><gpxtpx:atemp>3.2</gpxtpx:atemp></gpxtpx:TrackPointExtension></extensions></trkpt><trkpt lat="42.1901983861" lon="13.3982786816"><ele>1887.62</ele><time>2026-03-11T14:48:12Z</time><extensions><gpxtpx:TrackPointExtension><gpxtpx:atemp>3.2</gpxtpx:atemp></gpxtpx:TrackPointExtension></extensions></trkpt><trkpt lat="42.1902021579" lon="13.3982766699"><ele>1887.05</ele><time>2026-03-11T14:48:13Z</time><extensions><gpxtpx:TrackPointExtension><gpxtpx:atemp>3.2</gpxtpx:atemp></gpxtpx:TrackPointExtension></extensions></trkpt><trkpt lat="42.1902022418" lon="13.3982787654"><ele>1886.49</ele><time>2026-03-11T14:48:14Z</time><extensions><gpxtpx:TrackPointExtension><gpxtpx:atemp>3.2</gpxtpx:atemp></gpxtpx:TrackPointExtension></extensions></trkpt><trkpt lat="42.1902031638" lon="13.3982792683"><ele>1886.03</ele><time>2026-03-11T14:48:15Z</time><extensions><gpxtpx:TrackPointExtension><gpxtpx:atemp>3.2</gpxtpx:atemp></gpxtpx:TrackPointExtension></extensions></trkpt><trkpt lat="42.1902061813" lon="13.3982862253"><ele>1885.69</ele><time>2026-03-11T14:48:16Z</time><extensions><gpxtpx:TrackPointExtension><gpxtpx:atemp>3.2</gpxtpx:atemp></gpxtpx:TrackPointExtension></extensions></trkpt><trkpt lat="42.1902151499" lon="13.3983035758"><ele>1885.43</ele><time>2026-03-11T14:48:17Z</time><extensions><gpxtpx:TrackPointExtension><gpxtpx:atemp>3.2</gpxtpx:atemp></gpxtpx:TrackPointExtension></extensions></trkpt><trkpt lat="42.1902038343" lon="13.3983362652"><ele>1885.22</ele><time>2026-03-11T14:48:18Z</time><extensions><gpxtpx:TrackPointExtension><gpxtpx:atemp>3.2</gpxtpx:atemp></gpxtpx:TrackPointExtension></extensions></trkpt><trkpt lat="42.1901927702" lon="13.3983643446"><ele>1885.06</ele><time>2026-03-11T14:48:19Z</time><extensions><gpxtpx:TrackPointExtension><gpxtpx:atemp>3.2</gpxtpx:atemp></gpxtpx:TrackPointExtension></extensions></trkpt><trkpt lat="42.1901780181" lon="13.3983740676"><ele>1884.85</ele><time>2026-03-11T14:48:20Z</time><extensions><gpxtpx:TrackPointExtension><gpxtpx:atemp>3.2</gpxtpx:atemp></gpxtpx:TrackPointExtension></extensions></trkpt><trkpt lat="42.1901571471" lon="13.3983827848"><ele>1884.52</ele><time>2026-03-11T14:48:21Z</time><extensions><gpxtpx:TrackPointExtension><gpxtpx:atemp>3.2</gpxtpx:atemp></gpxtpx:TrackPointExtension></extensions></trkpt><trkpt lat="42.1901319176" lon="13.3983948547"><ele>1883.59</ele><time>2026-03-11T14:48:22Z</time><extensions><gpxtpx:TrackPointExtension><gpxtpx:atemp>3.2</gpxtpx:atemp></gpxtpx:TrackPointExtension></extensions></trkpt><trkpt lat="42.1901117172" lon="13.3984112833"><ele>1883.12</ele><time>2026-03-11T14:48:23Z</time><extensions><gpxtpx:TrackPointExtension><gpxtpx:atemp>3.2</gpxtpx:atemp></gpxtpx:TrackPointExtension></extensions></trkpt><trkpt lat="42.1900908463" lon="13.3984274603"><ele>1882.65</ele><time>2026-03-11T14:48:24Z</time><extensions><gpxtpx:TrackPointExtension><gpxtpx:atemp>3.2</gpxtpx:atemp></gpxtpx:TrackPointExtension></extensions></trkpt><trkpt lat="42.1900896728" lon="13.3984587248"><ele>1882.19</ele><time>2026-03-11T14:48:25Z</time><extensions><gpxtpx:TrackPointExtension><gpxtpx:atemp>3.2</gpxtpx:atemp></gpxtpx:TrackPointExtension></extensions></trkpt><trkpt lat="42.1901039220" lon="13.3984924201"><ele>1881.82</ele><time>2026-03-11T14:48:26Z</time><extensions><gpxtpx:TrackPointExtension><gpxtpx:atemp>3.2</gpxtpx:atemp></gpxtpx:TrackPointExtension></extensions></trkpt><trkpt lat="42.1901225299" lon="13.3985297196"><ele>1881.52</ele><time>2026-03-11T14:48:27Z</time><extensions><gpxtpx:TrackPointExtension><gpxtpx:atemp>3.2</gpxtpx:atemp></gpxtpx:TrackPointExtension></extensions></trkpt><trkpt lat="42.1901509445" lon="13.3985734731"><ele>1881.19</ele><time>2026-03-11T14:48:28Z</time><extensions><gpxtpx:TrackPointExtension><gpxtpx:atemp>3.2</gpxtpx:atemp></gpxtpx:TrackPointExtension></extensions></trkpt><trkpt lat="42.1901651938" lon="13.3986177295"><ele>1880.84</ele><time>2026-03-11T14:48:29Z</time><extensions><gpxtpx:TrackPointExtension><gpxtpx:atemp>3.2</gpxtpx:atemp></gpxtpx:TrackPointExtension></extensions></trkpt><trkpt lat="42.1901784372" lon="13.3986636624"><ele>1880.47</ele><time>2026-03-11T14:48:30Z</time><extensions><gpxtpx:TrackPointExtension><gpxtpx:atemp>3.2</gpxtpx:atemp></gpxtpx:TrackPointExtension></extensions></trkpt><trkpt lat="42.1902022418" lon="13.3987029735"><ele>1879.95</ele><time>2026-03-11T14:48:31Z</time><extensions><gpxtpx:TrackPointExtension><gpxtpx:atemp>3.2</gpxtpx:atemp></gpxtpx:TrackPointExtension></extensions></trkpt><trkpt lat="42.1902349312" lon="13.3987497445"><ele>1879.29</ele><time>2026-03-11T14:48:32Z</time><extensions><gpxtpx:TrackPointExtension><gpxtpx:atemp>3.2</gpxtpx:atemp></gpxtpx:TrackPointExtension></extensions></trkpt><trkpt lat="42.1902678721" lon="13.3988068253"><ele>1877.97</ele><time>2026-03-11T14:48:33Z</time><extensions><gpxtpx:TrackPointExtension><gpxtpx:atemp>3.2</gpxtpx:atemp></gpxtpx:TrackPointExtension></extensions></trkpt><trkpt lat="42.1902979631" lon="13.3988711983"><ele>1877.28</ele><time>2026-03-11T14:48:34Z</time><extensions><gpxtpx:TrackPointExtension><gpxtpx:atemp>3.2</gpxtpx:atemp></gpxtpx:TrackPointExtension></extensions></trkpt><trkpt lat="42.1903317422" lon="13.3989305422"><ele>1876.50</ele><time>2026-03-11T14:48:35Z</time><extensions><gpxtpx:TrackPointExtension><gpxtpx:atemp>3.2</gpxtpx:atemp></gpxtpx:TrackPointExtension></extensions></trkpt><trkpt lat="42.1903698798" lon="13.3989758883"><ele>1875.67</ele><time>2026-03-11T14:48:36Z</time><extensions><gpxtpx:TrackPointExtension><gpxtpx:atemp>3.2</gpxtpx:atemp></gpxtpx:TrackPointExtension></extensions></trkpt><trkpt lat="42.1904089395" lon="13.3990070689"><ele>1874.83</ele><time>2026-03-11T14:48:37Z</time><extensions><gpxtpx:TrackPointExtension><gpxtpx:atemp>3.2</gpxtpx:atemp></gpxtpx:TrackPointExtension></extensions></trkpt><trkpt lat="42.1904469933" lon="13.3990309574"><ele>1874.06</ele><time>2026-03-11T14:48:38Z</time><extensions><gpxtpx:TrackPointExtension><gpxtpx:atemp>3.2</gpxtpx:atemp></gpxtpx:TrackPointExtension></extensions></trkpt><trkpt lat="42.1904825326" lon="13.3990544267"><ele>1873.34</ele><time>2026-03-11T14:48:39Z</time><extensions><gpxtpx:TrackPointExtension><gpxtpx:atemp>3.2</gpxtpx:atemp></gpxtpx:TrackPointExtension></extensions></trkpt><trkpt lat="42.1905149706" lon="13.3990774769"><ele>1872.68</ele><time>2026-03-11T14:48:40Z</time><extensions><gpxtpx:TrackPointExtension><gpxtpx:atemp>3.2</gpxtpx:atemp></gpxtpx:TrackPointExtension></extensions></trkpt><trkpt lat="42.1905440558" lon="13.3990974259"><ele>1872.15</ele><time>2026-03-11T14:48:41Z</time><extensions><gpxtpx:TrackPointExtension><gpxtpx:atemp>3.2</gpxtpx:atemp></gpxtpx:TrackPointExtension></extensions></trkpt><trkpt lat="42.1905674413" lon="13.3991192188"><ele>1871.69</ele><time>2026-03-11T14:48:42Z</time><extensions><gpxtpx:TrackPointExtension><gpxtpx:atemp>3.2</gpxtpx:atemp></gpxtpx:TrackPointExtension></extensions></trkpt><trkpt lat="42.1905899886" lon="13.3991362341"><ele>1871.30</ele><time>2026-03-11T14:48:43Z</time><extensions><gpxtpx:TrackPointExtension><gpxtpx:atemp>3.2</gpxtpx:atemp></gpxtpx:TrackPointExtension></extensions></trkpt><trkpt lat="42.1906097699" lon="13.3991531655"><ele>1870.99</ele><time>2026-03-11T14:48:44Z</time><extensions><gpxtpx:TrackPointExtension><gpxtpx:atemp>3.2</gpxtpx:atemp></gpxtpx:TrackPointExtension></extensions></trkpt><trkpt lat="42.1906299703" lon="13.3991730306"><ele>1870.56</ele><time>2026-03-11T14:48:45Z</time><extensions><gpxtpx:TrackPointExtension><gpxtpx:atemp>3.2</gpxtpx:atemp></gpxtpx:TrackPointExtension></extensions></trkpt><trkpt lat="42.1906442195" lon="13.3991794847"><ele>1870.41</ele><time>2026-03-11T14:48:46Z</time><extensions><gpxtpx:TrackPointExtension><gpxtpx:atemp>3.2</gpxtpx:atemp></gpxtpx:TrackPointExtension></extensions></trkpt><trkpt lat="42.1906556189" lon="13.3991877828"><ele>1870.29</ele><time>2026-03-11T14:48:47Z</time><extensions><gpxtpx:TrackPointExtension><gpxtpx:atemp>3.2</gpxtpx:atemp></gpxtpx:TrackPointExtension></extensions></trkpt><trkpt lat="42.1906697843" lon="13.3991980925"><ele>1870.19</ele><time>2026-03-11T14:48:48Z</time><extensions><gpxtpx:TrackPointExtension><gpxtpx:atemp>3.2</gpxtpx:atemp></gpxtpx:TrackPointExtension></extensions></trkpt><trkpt lat="42.1906755678" lon="13.3991978411"><ele>1870.13</ele><time>2026-03-11T14:48:49Z</time><extensions><gpxtpx:TrackPointExtension><gpxtpx:atemp>3.2</gpxtpx:atemp></gpxtpx:TrackPointExtension></extensions></trkpt><trkpt lat="42.1906802617" lon="13.3992052171"><ele>1870.07</ele><time>2026-03-11T14:48:50Z</time><extensions><gpxtpx:TrackPointExtension><gpxtpx:atemp>3.2</gpxtpx:atemp></gpxtpx:TrackPointExtension></extensions></trkpt><trkpt lat="42.1906867996" lon="13.3992124256"><ele>1870.02</ele><time>2026-03-11T14:48:51Z</time><extensions><gpxtpx:TrackPointExtension><gpxtpx:atemp>3.2</gpxtpx:atemp></gpxtpx:TrackPointExtension></extensions></trkpt><trkpt lat="42.1906929184" lon="13.3992194664"><ele>1869.97</ele><time>2026-03-11T14:48:52Z</time><extensions><gpxtpx:TrackPointExtension><gpxtpx:atemp>3.2</gpxtpx:atemp></gpxtpx:TrackPointExtension></extensions></trkpt><trkpt lat="42.1906974446" lon="13.3992235735"><ele>1869.93</ele><time>2026-03-11T14:48:53Z</time><extensions><gpxtpx:TrackPointExtension><gpxtpx:atemp>3.2</gpxtpx:atemp></gpxtpx:TrackPointExtension></extensions></trkpt><trkpt lat="42.1907026414" lon="13.3992302790"><ele>1869.91</ele><time>2026-03-11T14:48:54Z</time><extensions><gpxtpx:TrackPointExtension><gpxtpx:atemp>3.2</gpxtpx:atemp></gpxtpx:TrackPointExtension></extensions></trkpt><trkpt lat="42.1907096822" lon="13.3992369846"><ele>1869.89</ele><time>2026-03-11T14:48:55Z</time><extensions><gpxtpx:TrackPointExtension><gpxtpx:atemp>3.2</gpxtpx:atemp></gpxtpx:TrackPointExtension></extensions></trkpt><trkpt lat="42.1907148790" lon="13.3992424328"><ele>1869.88</ele><time>2026-03-11T14:48:56Z</time><extensions><gpxtpx:TrackPointExtension><gpxtpx:atemp>3.2</gpxtpx:atemp></gpxtpx:TrackPointExtension></extensions></trkpt><trkpt lat="42.1907208301" lon="13.3992474619"><ele>1869.88</ele><time>2026-03-11T14:48:57Z</time><extensions><gpxtpx:TrackPointExtension><gpxtpx:atemp>3.2</gpxtpx:atemp></gpxtpx:TrackPointExtension></extensions></trkpt><trkpt lat="42.1907275356" lon="13.3992503956"><ele>1869.89</ele><time>2026-03-11T14:48:58Z</time><extensions><gpxtpx:TrackPointExtension><gpxtpx:atemp>3.2</gpxtpx:atemp></gpxtpx:TrackPointExtension></extensions></trkpt><trkpt lat="42.1907340735" lon="13.3992598671"><ele>1869.89</ele><time>2026-03-11T14:48:59Z</time><extensions><gpxtpx:TrackPointExtension><gpxtpx:atemp>3.2</gpxtpx:atemp></gpxtpx:TrackPointExtension></extensions></trkpt><trkpt lat="42.1907426231" lon="13.3992436901"><ele>1869.89</ele><time>2026-03-11T14:49:00Z</time><extensions><gpxtpx:TrackPointExtension><gpxtpx:atemp>3.2</gpxtpx:atemp></gpxtpx:TrackPointExtension></extensions></trkpt><trkpt lat="42.1907523461" lon="13.3992510661"><ele>1869.91</ele><time>2026-03-11T14:49:01Z</time><extensions><gpxtpx:TrackPointExtension><gpxtpx:atemp>3.2</gpxtpx:atemp></gpxtpx:TrackPointExtension></extensions></trkpt><trkpt lat="42.1907620691" lon="13.3992590290"><ele>1869.94</ele><time>2026-03-11T14:49:02Z</time><extensions><gpxtpx:TrackPointExtension><gpxtpx:atemp>3.2</gpxtpx:atemp></gpxtpx:TrackPointExtension></extensions></trkpt><trkpt lat="42.1907670982" lon="13.3992659859"><ele>1869.97</ele><time>2026-03-11T14:49:03Z</time><extensions><gpxtpx:TrackPointExtension><gpxtpx:atemp>3.2</gpxtpx:atemp></gpxtpx:TrackPointExtension></extensions></trkpt><trkpt lat="42.1907731332" lon="13.3992708474"><ele>1870.00</ele><time>2026-03-11T14:49:04Z</time><extensions><gpxtpx:TrackPointExtension><gpxtpx:atemp>3.2</gpxtpx:atemp></gpxtpx:TrackPointExtension></extensions></trkpt><trkpt lat="42.1907794196" lon="13.3992752898"><ele>1870.01</ele><time>2026-03-11T14:49:05Z</time><extensions><gpxtpx:TrackPointExtension><gpxtpx:atemp>3.2</gpxtpx:atemp></gpxtpx:TrackPointExtension></extensions></trkpt><trkpt lat="42.1907835267" lon="13.3992826659"><ele>1870.03</ele><time>2026-03-11T14:49:06Z</time><extensions><gpxtpx:TrackPointExtension><gpxtpx:atemp>3.2</gpxtpx:atemp></gpxtpx:TrackPointExtension></extensions></trkpt><trkpt lat="42.1907901485" lon="13.3992884494"><ele>1870.06</ele><time>2026-03-11T14:49:07Z</time><extensions><gpxtpx:TrackPointExtension><gpxtpx:atemp>3.2</gpxtpx:atemp></gpxtpx:TrackPointExtension></extensions></trkpt><trkpt lat="42.1907951776" lon="13.3992903773"><ele>1870.09</ele><time>2026-03-11T14:49:08Z</time><extensions><gpxtpx:TrackPointExtension><gpxtpx:atemp>3.2</gpxtpx:atemp></gpxtpx:TrackPointExtension></extensions></trkpt><trkpt lat="42.1908035595" lon="13.3992970828"><ele>1870.10</ele><time>2026-03-11T14:49:09Z</time><extensions><gpxtpx:TrackPointExtension><gpxtpx:atemp>3.2</gpxtpx:atemp></gpxtpx:TrackPointExtension></extensions></trkpt><trkpt lat="42.1908086725" lon="13.3992983401"><ele>1870.12</ele><time>2026-03-11T14:49:10Z</time><extensions><gpxtpx:TrackPointExtension><gpxtpx:atemp>3.2</gpxtpx:atemp></gpxtpx:TrackPointExtension></extensions></trkpt><trkpt lat="42.1908155456" lon="13.3993030339"><ele>1870.13</ele><time>2026-03-11T14:49:11Z</time><extensions><gpxtpx:TrackPointExtension><gpxtpx:atemp>3.2</gpxtpx:atemp></gpxtpx:TrackPointExtension></extensions></trkpt><trkpt lat="42.1908233408" lon="13.3993074764"><ele>1870.13</ele><time>2026-03-11T14:49:12Z</time><extensions><gpxtpx:TrackPointExtension><gpxtpx:atemp>3.2</gpxtpx:atemp></gpxtpx:TrackPointExtension></extensions></trkpt><trkpt lat="42.1908286214" lon="13.3993090689"><ele>1870.15</ele><time>2026-03-11T14:49:13Z</time><extensions><gpxtpx:TrackPointExtension><gpxtpx:atemp>3.2</gpxtpx:atemp></gpxtpx:TrackPointExtension></extensions></trkpt><trkpt lat="42.1908333991" lon="13.3993129246"><ele>1870.15</ele><time>2026-03-11T14:49:14Z</time><extensions><gpxtpx:TrackPointExtension><gpxtpx:atemp>3.2</gpxtpx:atemp></gpxtpx:TrackPointExtension></extensions></trkpt><trkpt lat="42.1908398531" lon="13.3993159421"><ele>1870.13</ele><time>2026-03-11T14:49:15Z</time><extensions><gpxtpx:TrackPointExtension><gpxtpx:atemp>3.2</gpxtpx:atemp></gpxtpx:TrackPointExtension></extensions></trkpt><trkpt lat="42.1908455528" lon="13.3993190434"><ele>1870.14</ele><time>2026-03-11T14:49:16Z</time><extensions><gpxtpx:TrackPointExtension><gpxtpx:atemp>3.2</gpxtpx:atemp></gpxtpx:TrackPointExtension></extensions></trkpt><trkpt lat="42.1908495761" lon="13.3993251622"><ele>1870.14</ele><time>2026-03-11T14:49:17Z</time><extensions><gpxtpx:TrackPointExtension><gpxtpx:atemp>3.2</gpxtpx:atemp></gpxtpx:TrackPointExtension></extensions></trkpt><trkpt lat="42.1908547729" lon="13.3993289340"><ele>1870.17</ele><time>2026-03-11T14:49:18Z</time><extensions><gpxtpx:TrackPointExtension><gpxtpx:atemp>3.2</gpxtpx:atemp></gpxtpx:TrackPointExtension></extensions></trkpt><trkpt lat="42.1908611432" lon="13.3993330412"><ele>1870.29</ele><time>2026-03-11T14:49:19Z</time><extensions><gpxtpx:TrackPointExtension><gpxtpx:atemp>3.2</gpxtpx:atemp></gpxtpx:TrackPointExtension></extensions></trkpt><trkpt lat="42.1908664238" lon="13.3993361425"><ele>1870.34</ele><time>2026-03-11T14:49:20Z</time><extensions><gpxtpx:TrackPointExtension><gpxtpx:atemp>3.2</gpxtpx:atemp></gpxtpx:TrackPointExtension></extensions></trkpt><trkpt lat="42.1908699442" lon="13.3993412554"><ele>1870.39</ele><time>2026-03-11T14:49:21Z</time><extensions><gpxtpx:TrackPointExtension><gpxtpx:atemp>3.2</gpxtpx:atemp></gpxtpx:TrackPointExtension></extensions></trkpt><trkpt lat="42.1908760630" lon="13.3993472904"><ele>1870.42</ele><time>2026-03-11T14:49:22Z</time><extensions><gpxtpx:TrackPointExtension><gpxtpx:atemp>3.2</gpxtpx:atemp></gpxtpx:TrackPointExtension></extensions></trkpt><trkpt lat="42.1908810921" lon="13.3993528225"><ele>1870.46</ele><time>2026-03-11T14:49:23Z</time><extensions><gpxtpx:TrackPointExtension><gpxtpx:atemp>3.2</gpxtpx:atemp></gpxtpx:TrackPointExtension></extensions></trkpt><trkpt lat="42.1908795834" lon="13.3993564267"><ele>1870.52</ele><time>2026-03-11T14:49:24Z</time><extensions><gpxtpx:TrackPointExtension><gpxtpx:atemp>3.2</gpxtpx:atemp></gpxtpx:TrackPointExtension></extensions></trkpt><trkpt lat="42.1908841934" lon="13.3993600309"><ele>1870.59</ele><time>2026-03-11T14:49:25Z</time><extensions><gpxtpx:TrackPointExtension><gpxtpx:atemp>3.2</gpxtpx:atemp></gpxtpx:TrackPointExtension></extensions></trkpt><trkpt lat="42.1908916533" lon="13.3993639704"><ele>1870.65</ele><time>2026-03-11T14:49:26Z</time><extensions><gpxtpx:TrackPointExtension><gpxtpx:atemp>3.2</gpxtpx:atemp></gpxtpx:TrackPointExtension></extensions></trkpt><trkpt lat="42.1908967663" lon="13.3993673231"><ele>1870.69</ele><time>2026-03-11T14:49:27Z</time><extensions><gpxtpx:TrackPointExtension><gpxtpx:atemp>3.2</gpxtpx:atemp></gpxtpx:TrackPointExtension></extensions></trkpt><trkpt lat="42.1909032203" lon="13.3993712626"><ele>1870.71</ele><time>2026-03-11T14:49:28Z</time><extensions><gpxtpx:TrackPointExtension><gpxtpx:atemp>3.2</gpxtpx:atemp></gpxtpx:TrackPointExtension></extensions></trkpt><trkpt lat="42.1909100935" lon="13.3993761241"><ele>1870.75</ele><time>2026-03-11T14:49:29Z</time><extensions><gpxtpx:TrackPointExtension><gpxtpx:atemp>3.2</gpxtpx:atemp></gpxtpx:TrackPointExtension></extensions></trkpt><trkpt lat="42.1909179725" lon="13.3993807342"><ele>1870.78</ele><time>2026-03-11T14:49:30Z</time><extensions><gpxtpx:TrackPointExtension><gpxtpx:atemp>3.2</gpxtpx:atemp></gpxtpx:TrackPointExtension></extensions></trkpt><trkpt lat="42.1909247618" lon="13.3993850928"><ele>1870.86</ele><time>2026-03-11T14:49:31Z</time><extensions><gpxtpx:TrackPointExtension><gpxtpx:atemp>3.2</gpxtpx:atemp></gpxtpx:TrackPointExtension></extensions></trkpt><trkpt lat="42.1909287851" lon="13.3993894514"><ele>1870.91</ele><time>2026-03-11T14:49:32Z</time><extensions><gpxtpx:TrackPointExtension><gpxtpx:atemp>3.2</gpxtpx:atemp></gpxtpx:TrackPointExtension></extensions></trkpt><trkpt lat="42.1909345686" lon="13.3993953187"><ele>1870.97</ele><time>2026-03-11T14:49:33Z</time><extensions><gpxtpx:TrackPointExtension><gpxtpx:atemp>3.2</gpxtpx:atemp></gpxtpx:TrackPointExtension></extensions></trkpt><trkpt lat="42.1909395978" lon="13.3994017728"><ele>1871.01</ele><time>2026-03-11T14:49:34Z</time><extensions><gpxtpx:TrackPointExtension><gpxtpx:atemp>3.4</gpxtpx:atemp></gpxtpx:TrackPointExtension></extensions></trkpt><trkpt lat="42.1909460519" lon="13.3994023595"><ele>1871.05</ele><time>2026-03-11T14:49:35Z</time><extensions><gpxtpx:TrackPointExtension><gpxtpx:atemp>3.4</gpxtpx:atemp></gpxtpx:TrackPointExtension></extensions></trkpt><trkpt lat="42.1909537632" lon="13.3994065505"><ele>1871.07</ele><time>2026-03-11T14:49:36Z</time><extensions><gpxtpx:TrackPointExtension><gpxtpx:atemp>3.4</gpxtpx:atemp></gpxtpx:TrackPointExtension></extensions></trkpt><trkpt lat="42.1909605525" lon="13.3994133398"><ele>1871.10</ele><time>2026-03-11T14:49:37Z</time><extensions><gpxtpx:TrackPointExtension><gpxtpx:atemp>3.4</gpxtpx:atemp></gpxtpx:TrackPointExtension></extensions></trkpt><trkpt lat="42.1909677610" lon="13.3994188718"><ele>1871.13</ele><time>2026-03-11T14:49:38Z</time><extensions><gpxtpx:TrackPointExtension><gpxtpx:atemp>3.4</gpxtpx:atemp></gpxtpx:TrackPointExtension></extensions></trkpt><trkpt lat="42.1909724548" lon="13.3994217217"><ele>1871.17</ele><time>2026-03-11T14:49:39Z</time><extensions><gpxtpx:TrackPointExtension><gpxtpx:atemp>3.4</gpxtpx:atemp></gpxtpx:TrackPointExtension></extensions></trkpt><trkpt lat="42.1909810882" lon="13.3994284272"><ele>1871.24</ele><time>2026-03-11T14:49:40Z</time><extensions><gpxtpx:TrackPointExtension><gpxtpx:atemp>3.4</gpxtpx:atemp></gpxtpx:TrackPointExtension></extensions></trkpt><trkpt lat="42.1909848601" lon="13.3994348813"><ele>1871.31</ele><time>2026-03-11T14:49:41Z</time><extensions><gpxtpx:TrackPointExtension><gpxtpx:atemp>3.4</gpxtpx:atemp></gpxtpx:TrackPointExtension></extensions></trkpt><trkpt lat="42.1909929905" lon="13.3994392399"><ele>1871.42</ele><time>2026-03-11T14:49:42Z</time><extensions><gpxtpx:TrackPointExtension><gpxtpx:atemp>3.4</gpxtpx:atemp></gpxtpx:TrackPointExtension></extensions></trkpt><trkpt lat="42.1910013724" lon="13.3994415868"><ele>1871.45</ele><time>2026-03-11T14:49:43Z</time><extensions><gpxtpx:TrackPointExtension><gpxtpx:atemp>3.4</gpxtpx:atemp></gpxtpx:TrackPointExtension></extensions></trkpt><trkpt lat="42.1910072397" lon="13.3994461969"><ele>1871.48</ele><time>2026-03-11T14:49:44Z</time><extensions><gpxtpx:TrackPointExtension><gpxtpx:atemp>3.4</gpxtpx:atemp></gpxtpx:TrackPointExtension></extensions></trkpt><trkpt lat="42.1910124365" lon="13.3994512260"><ele>1871.55</ele><time>2026-03-11T14:49:45Z</time><extensions><gpxtpx:TrackPointExtension><gpxtpx:atemp>3.4</gpxtpx:atemp></gpxtpx:TrackPointExtension></extensions></trkpt><trkpt lat="42.1910171304" lon="13.3994582668"><ele>1871.62</ele><time>2026-03-11T14:49:46Z</time><extensions><gpxtpx:TrackPointExtension><gpxtpx:atemp>3.4</gpxtpx:atemp></gpxtpx:TrackPointExtension></extensions></trkpt><trkpt lat="42.1910199802" lon="13.3994645532"><ele>1871.69</ele><time>2026-03-11T14:49:47Z</time><extensions><gpxtpx:TrackPointExtension><gpxtpx:atemp>3.4</gpxtpx:atemp></gpxtpx:TrackPointExtension></extensions></trkpt><trkpt lat="42.1910228301" lon="13.3994729351"><ele>1871.74</ele><time>2026-03-11T14:49:48Z</time><extensions><gpxtpx:TrackPointExtension><gpxtpx:atemp>3.4</gpxtpx:atemp></gpxtpx:TrackPointExtension></extensions></trkpt><trkpt lat="42.1910282783" lon="13.3994804788"><ele>1871.78</ele><time>2026-03-11T14:49:49Z</time><extensions><gpxtpx:TrackPointExtension><gpxtpx:atemp>3.4</gpxtpx:atemp></gpxtpx:TrackPointExtension></extensions></trkpt><trkpt lat="42.1910323855" lon="13.3994852565"><ele>1871.82</ele><time>2026-03-11T14:49:50Z</time><extensions><gpxtpx:TrackPointExtension><gpxtpx:atemp>3.4</gpxtpx:atemp></gpxtpx:TrackPointExtension></extensions></trkpt><trkpt lat="42.1910372470" lon="13.3994874358"><ele>1871.86</ele><time>2026-03-11T14:49:51Z</time><extensions><gpxtpx:TrackPointExtension><gpxtpx:atemp>3.4</gpxtpx:atemp></gpxtpx:TrackPointExtension></extensions></trkpt><trkpt lat="42.1910405997" lon="13.3994917944"><ele>1871.92</ele><time>2026-03-11T14:49:52Z</time><extensions><gpxtpx:TrackPointExtension><gpxtpx:atemp>3.4</gpxtpx:atemp></gpxtpx:TrackPointExtension></extensions></trkpt><trkpt lat="42.1910468861" lon="13.3994966559"><ele>1871.98</ele><time>2026-03-11T14:49:53Z</time><extensions><gpxtpx:TrackPointExtension><gpxtpx:atemp>3.4</gpxtpx:atemp></gpxtpx:TrackPointExtension></extensions></trkpt><trkpt lat="42.1910538431" lon="13.3994984999"><ele>1872.07</ele><time>2026-03-11T14:49:54Z</time><extensions><gpxtpx:TrackPointExtension><gpxtpx:atemp>3.4</gpxtpx:atemp></gpxtpx:TrackPointExtension></extensions></trkpt><trkpt lat="42.1910646558" lon="13.3995033614"><ele>1872.15</ele><time>2026-03-11T14:49:55Z</time><extensions><gpxtpx:TrackPointExtension><gpxtpx:atemp>3.4</gpxtpx:atemp></gpxtpx:TrackPointExtension></extensions></trkpt><trkpt lat="42.1910646558" lon="13.3995084744"><ele>1872.24</ele><time>2026-03-11T14:49:56Z</time><extensions><gpxtpx:TrackPointExtension><gpxtpx:atemp>3.4</gpxtpx:atemp></gpxtpx:TrackPointExtension></extensions></trkpt><trkpt lat="42.1910690982" lon="13.3995123301"><ele>1872.32</ele><time>2026-03-11T14:49:57Z</time><extensions><gpxtpx:TrackPointExtension><gpxtpx:atemp>3.4</gpxtpx:atemp></gpxtpx:TrackPointExtension></extensions></trkpt><trkpt lat="42.1910749655" lon="13.3995151799"><ele>1872.38</ele><time>2026-03-11T14:49:58Z</time><extensions><gpxtpx:TrackPointExtension><gpxtpx:atemp>3.4</gpxtpx:atemp></gpxtpx:TrackPointExtension></extensions></trkpt><trkpt lat="42.1910813358" lon="13.3995196223"><ele>1872.45</ele><time>2026-03-11T14:49:59Z</time><extensions><gpxtpx:TrackPointExtension><gpxtpx:atemp>3.4</gpxtpx:atemp></gpxtpx:TrackPointExtension></extensions></trkpt><trkpt lat="42.1910892986" lon="13.3995230589"><ele>1872.52</ele><time>2026-03-11T14:50:00Z</time><extensions><gpxtpx:TrackPointExtension><gpxtpx:atemp>3.4</gpxtpx:atemp></gpxtpx:TrackPointExtension></extensions></trkpt><trkpt lat="42.1910933219" lon="13.3995278366"><ele>1872.59</ele><time>2026-03-11T14:50:01Z</time><extensions><gpxtpx:TrackPointExtension><gpxtpx:atemp>3.4</gpxtpx:atemp></gpxtpx:TrackPointExtension></extensions></trkpt><trkpt lat="42.1910992730" lon="13.3995371405"><ele>1872.66</ele><time>2026-03-11T14:50:02Z</time><extensions><gpxtpx:TrackPointExtension><gpxtpx:atemp>3.4</gpxtpx:atemp></gpxtpx:TrackPointExtension></extensions></trkpt><trkpt lat="42.1911078226" lon="13.3995388169"><ele>1872.73</ele><time>2026-03-11T14:50:03Z</time><extensions><gpxtpx:TrackPointExtension><gpxtpx:atemp>3.4</gpxtpx:atemp></gpxtpx:TrackPointExtension></extensions></trkpt><trkpt lat="42.1911152825" lon="13.3995423373"><ele>1872.77</ele><time>2026-03-11T14:50:04Z</time><extensions><gpxtpx:TrackPointExtension><gpxtpx:atemp>3.4</gpxtpx:atemp></gpxtpx:TrackPointExtension></extensions></trkpt><trkpt lat="42.1911208984" lon="13.3995422535"><ele>1872.89</ele><time>2026-03-11T14:50:05Z</time><extensions><gpxtpx:TrackPointExtension><gpxtpx:atemp>3.4</gpxtpx:atemp></gpxtpx:TrackPointExtension></extensions></trkpt><trkpt lat="42.1911251731" lon="13.3995441813"><ele>1873.01</ele><time>2026-03-11T14:50:06Z</time><extensions><gpxtpx:TrackPointExtension><gpxtpx:atemp>3.4</gpxtpx:atemp></gpxtpx:TrackPointExtension></extensions></trkpt><trkpt lat="42.1911315434" lon="13.3995477855"><ele>1873.13</ele><time>2026-03-11T14:50:07Z</time><extensions><gpxtpx:TrackPointExtension><gpxtpx:atemp>3.4</gpxtpx:atemp></gpxtpx:TrackPointExtension></extensions></trkpt><trkpt lat="42.1911399253" lon="13.3995526470"><ele>1873.20</ele><time>2026-03-11T14:50:08Z</time><extensions><gpxtpx:TrackPointExtension><gpxtpx:atemp>3.4</gpxtpx:atemp></gpxtpx:TrackPointExtension></extensions></trkpt><trkpt lat="42.1911506541" lon="13.3995599393"><ele>1873.23</ele><time>2026-03-11T14:50:09Z</time><extensions><gpxtpx:TrackPointExtension><gpxtpx:atemp>3.4</gpxtpx:atemp></gpxtpx:TrackPointExtension></extensions></trkpt><trkpt lat="42.1911601257" lon="13.3995688241"><ele>1873.27</ele><time>2026-03-11T14:50:10Z</time><extensions><gpxtpx:TrackPointExtension><gpxtpx:atemp>3.4</gpxtpx:atemp></gpxtpx:TrackPointExtension></extensions></trkpt><trkpt lat="42.1911679208" lon="13.3995764516"><ele>1873.28</ele><time>2026-03-11T14:50:11Z</time><extensions><gpxtpx:TrackPointExtension><gpxtpx:atemp>3.4</gpxtpx:atemp></gpxtpx:TrackPointExtension></extensions></trkpt><trkpt lat="42.1911751293" lon="13.3995871805"><ele>1873.23</ele><time>2026-03-11T14:50:12Z</time><extensions><gpxtpx:TrackPointExtension><gpxtpx:atemp>3.4</gpxtpx:atemp></gpxtpx:TrackPointExtension></extensions></trkpt><trkpt lat="42.1911824215" lon="13.3995985799"><ele>1873.20</ele><time>2026-03-11T14:50:13Z</time><extensions><gpxtpx:TrackPointExtension><gpxtpx:atemp>3.4</gpxtpx:atemp></gpxtpx:TrackPointExtension></extensions></trkpt><trkpt lat="42.1911915578" lon="13.3996077999"><ele>1873.12</ele><time>2026-03-11T14:50:14Z</time><extensions><gpxtpx:TrackPointExtension><gpxtpx:atemp>3.4</gpxtpx:atemp></gpxtpx:TrackPointExtension></extensions></trkpt><trkpt lat="42.1911972575" lon="13.3996143378"><ele>1873.08</ele><time>2026-03-11T14:50:15Z</time><extensions><gpxtpx:TrackPointExtension><gpxtpx:atemp>3.4</gpxtpx:atemp></gpxtpx:TrackPointExtension></extensions></trkpt><trkpt lat="42.1912072320" lon="13.3996271621"><ele>1873.07</ele><time>2026-03-11T14:50:16Z</time><extensions><gpxtpx:TrackPointExtension><gpxtpx:atemp>3.4</gpxtpx:atemp></gpxtpx:TrackPointExtension></extensions></trkpt><trkpt lat="42.1912157815" lon="13.3996379748"><ele>1872.96</ele><time>2026-03-11T14:50:17Z</time><extensions><gpxtpx:TrackPointExtension><gpxtpx:atemp>3.4</gpxtpx:atemp></gpxtpx:TrackPointExtension></extensions></trkpt><trkpt lat="42.1912246663" lon="13.3996478654"><ele>1872.95</ele><time>2026-03-11T14:50:18Z</time><extensions><gpxtpx:TrackPointExtension><gpxtpx:atemp>3.4</gpxtpx:atemp></gpxtpx:TrackPointExtension></extensions></trkpt><trkpt lat="42.1912331320" lon="13.3996590972"><ele>1872.93</ele><time>2026-03-11T14:50:19Z</time><extensions><gpxtpx:TrackPointExtension><gpxtpx:atemp>3.4</gpxtpx:atemp></gpxtpx:TrackPointExtension></extensions></trkpt><trkpt lat="42.1912426874" lon="13.3996700775"><ele>1872.88</ele><time>2026-03-11T14:50:20Z</time><extensions><gpxtpx:TrackPointExtension><gpxtpx:atemp>3.4</gpxtpx:atemp></gpxtpx:TrackPointExtension></extensions></trkpt><trkpt lat="42.1912543382" lon="13.3996835724"><ele>1872.82</ele><time>2026-03-11T14:50:21Z</time><extensions><gpxtpx:TrackPointExtension><gpxtpx:atemp>3.4</gpxtpx:atemp></gpxtpx:TrackPointExtension></extensions></trkpt><trkpt lat="42.1912672464" lon="13.3996948879"><ele>1872.75</ele><time>2026-03-11T14:50:22Z</time><extensions><gpxtpx:TrackPointExtension><gpxtpx:atemp>3.4</gpxtpx:atemp></gpxtpx:TrackPointExtension></extensions></trkpt><trkpt lat="42.1912819985" lon="13.3997083828"><ele>1872.67</ele><time>2026-03-11T14:50:23Z</time><extensions><gpxtpx:TrackPointExtension><gpxtpx:atemp>3.4</gpxtpx:atemp></gpxtpx:TrackPointExtension></extensions></trkpt><trkpt lat="42.1912990976" lon="13.3997201174"><ele>1872.60</ele><time>2026-03-11T14:50:24Z</time><extensions><gpxtpx:TrackPointExtension><gpxtpx:atemp>3.4</gpxtpx:atemp></gpxtpx:TrackPointExtension></extensions></trkpt><trkpt lat="42.1913175378" lon="13.3997351211"><ele>1872.52</ele><time>2026-03-11T14:50:25Z</time><extensions><gpxtpx:TrackPointExtension><gpxtpx:atemp>3.4</gpxtpx:atemp></gpxtpx:TrackPointExtension></extensions></trkpt><trkpt lat="42.1913365647" lon="13.3997510467"><ele>1872.43</ele><time>2026-03-11T14:50:26Z</time><extensions><gpxtpx:TrackPointExtension><gpxtpx:atemp>3.4</gpxtpx:atemp></gpxtpx:TrackPointExtension></extensions></trkpt><trkpt lat="42.1913550887" lon="13.3997714985"><ele>1872.35</ele><time>2026-03-11T14:50:27Z</time><extensions><gpxtpx:TrackPointExtension><gpxtpx:atemp>3.4</gpxtpx:atemp></gpxtpx:TrackPointExtension></extensions></trkpt><trkpt lat="42.1913701762" lon="13.3998010866"><ele>1872.26</ele><time>2026-03-11T14:50:28Z</time><extensions><gpxtpx:TrackPointExtension><gpxtpx:atemp>3.4</gpxtpx:atemp></gpxtpx:TrackPointExtension></extensions></trkpt><trkpt lat="42.1913793962" lon="13.3998385537"><ele>1872.03</ele><time>2026-03-11T14:50:29Z</time><extensions><gpxtpx:TrackPointExtension><gpxtpx:atemp>3.4</gpxtpx:atemp></gpxtpx:TrackPointExtension></extensions></trkpt><trkpt lat="42.1913848445" lon="13.3998817205"><ele>1871.81</ele><time>2026-03-11T14:50:30Z</time><extensions><gpxtpx:TrackPointExtension><gpxtpx:atemp>3.4</gpxtpx:atemp></gpxtpx:TrackPointExtension></extensions></trkpt><trkpt lat="42.1913861856" lon="13.3999291621"><ele>1871.52</ele><time>2026-03-11T14:50:31Z</time><extensions><gpxtpx:TrackPointExtension><gpxtpx:atemp>3.4</gpxtpx:atemp></gpxtpx:TrackPointExtension></extensions></trkpt><trkpt lat="42.1913830843" lon="13.3999760170"><ele>1871.15</ele><time>2026-03-11T14:50:32Z</time><extensions><gpxtpx:TrackPointExtension><gpxtpx:atemp>3.2</gpxtpx:atemp></gpxtpx:TrackPointExtension></extensions></trkpt><trkpt lat="42.1913791448" lon="13.4000196867"><ele>1870.73</ele><time>2026-03-11T14:50:33Z</time><extensions><gpxtpx:TrackPointExtension><gpxtpx:atemp>3.2</gpxtpx:atemp></gpxtpx:TrackPointExtension></extensions></trkpt><trkpt lat="42.1913765464" lon="13.4000591654"><ele>1870.28</ele><time>2026-03-11T14:50:34Z</time><extensions><gpxtpx:TrackPointExtension><gpxtpx:atemp>3.2</gpxtpx:atemp></gpxtpx:TrackPointExtension></extensions></trkpt><trkpt lat="42.1913767979" lon="13.4000971355"><ele>1869.80</ele><time>2026-03-11T14:50:35Z</time><extensions><gpxtpx:TrackPointExtension><gpxtpx:atemp>3.2</gpxtpx:atemp></gpxtpx:TrackPointExtension></extensions></trkpt><trkpt lat="42.1913767979" lon="13.4001356922"><ele>1869.34</ele><time>2026-03-11T14:50:36Z</time><extensions><gpxtpx:TrackPointExtension><gpxtpx:atemp>3.2</gpxtpx:atemp></gpxtpx:TrackPointExtension></extensions></trkpt><trkpt lat="42.1913787257" lon="13.4001725726"><ele>1868.90</ele><time>2026-03-11T14:50:37Z</time><extensions><gpxtpx:TrackPointExtension><gpxtpx:atemp>3.2</gpxtpx:atemp></gpxtpx:TrackPointExtension></extensions></trkpt><trkpt lat="42.1913824975" lon="13.4002094530"><ele>1868.46</ele><time>2026-03-11T14:50:38Z</time><extensions><gpxtpx:TrackPointExtension><gpxtpx:atemp>3.2</gpxtpx:atemp></gpxtpx:TrackPointExtension></extensions></trkpt><trkpt lat="42.1913867723" lon="13.4002483450"><ele>1868.02</ele><time>2026-03-11T14:50:39Z</time><extensions><gpxtpx:TrackPointExtension><gpxtpx:atemp>3.2</gpxtpx:atemp></gpxtpx:TrackPointExtension></extensions></trkpt><trkpt lat="42.1913924720" lon="13.4002879914"><ele>1867.39</ele><time>2026-03-11T14:50:40Z</time><extensions><gpxtpx:TrackPointExtension><gpxtpx:atemp>3.2</gpxtpx:atemp></gpxtpx:TrackPointExtension></extensions></trkpt><trkpt lat="42.1913995966" lon="13.4003265481"><ele>1867.13</ele><time>2026-03-11T14:50:41Z</time><extensions><gpxtpx:TrackPointExtension><gpxtpx:atemp>3.2</gpxtpx:atemp></gpxtpx:TrackPointExtension></extensions></trkpt><trkpt lat="42.1914074756" lon="13.4003652725"><ele>1866.86</ele><time>2026-03-11T14:50:42Z</time><extensions><gpxtpx:TrackPointExtension><gpxtpx:atemp>3.2</gpxtpx:atemp></gpxtpx:TrackPointExtension></extensions></trkpt><trkpt lat="42.1914155222" lon="13.4004033264"><ele>1866.52</ele><time>2026-03-11T14:50:43Z</time><extensions><gpxtpx:TrackPointExtension><gpxtpx:atemp>3.2</gpxtpx:atemp></gpxtpx:TrackPointExtension></extensions></trkpt><trkpt lat="42.1914246585" lon="13.4004415479"><ele>1866.07</ele><time>2026-03-11T14:50:44Z</time><extensions><gpxtpx:TrackPointExtension><gpxtpx:atemp>3.2</gpxtpx:atemp></gpxtpx:TrackPointExtension></extensions></trkpt><trkpt lat="42.1914352197" lon="13.4004798532"><ele>1865.64</ele><time>2026-03-11T14:50:45Z</time><extensions><gpxtpx:TrackPointExtension><gpxtpx:atemp>3.2</gpxtpx:atemp></gpxtpx:TrackPointExtension></extensions></trkpt><trkpt lat="42.1914469544" lon="13.4005185775"><ele>1865.30</ele><time>2026-03-11T14:50:46Z</time><extensions><gpxtpx:TrackPointExtension><gpxtpx:atemp>3.2</gpxtpx:atemp></gpxtpx:TrackPointExtension></extensions></trkpt><trkpt lat="42.1914596949" lon="13.4005615767"><ele>1864.99</ele><time>2026-03-11T14:50:47Z</time><extensions><gpxtpx:TrackPointExtension><gpxtpx:atemp>3.2</gpxtpx:atemp></gpxtpx:TrackPointExtension></extensions></trkpt><trkpt lat="42.1914717648" lon="13.4006066713"><ele>1864.62</ele><time>2026-03-11T14:50:48Z</time><extensions><gpxtpx:TrackPointExtension><gpxtpx:atemp>3.2</gpxtpx:atemp></gpxtpx:TrackPointExtension></extensions></trkpt><trkpt lat="42.1914830804" lon="13.4006522689"><ele>1864.30</ele><time>2026-03-11T14:50:49Z</time><extensions><gpxtpx:TrackPointExtension><gpxtpx:atemp>3.2</gpxtpx:atemp></gpxtpx:TrackPointExtension></extensions></trkpt><trkpt lat="42.1914930549" lon="13.4006990399"><ele>1864.00</ele><time>2026-03-11T14:50:50Z</time><extensions><gpxtpx:TrackPointExtension><gpxtpx:atemp>3.2</gpxtpx:atemp></gpxtpx:TrackPointExtension></extensions></trkpt><trkpt lat="42.1915026940" lon="13.4007469844"><ele>1863.66</ele><time>2026-03-11T14:50:51Z</time><extensions><gpxtpx:TrackPointExtension><gpxtpx:atemp>3.2</gpxtpx:atemp></gpxtpx:TrackPointExtension></extensions></trkpt><trkpt lat="42.1915127523" lon="13.4007954318"><ele>1862.72</ele><time>2026-03-11T14:50:52Z</time><extensions><gpxtpx:TrackPointExtension><gpxtpx:atemp>3.2</gpxtpx:atemp></gpxtpx:TrackPointExtension></extensions></trkpt><trkpt lat="42.1915219724" lon="13.4008438792"><ele>1862.13</ele><time>2026-03-11T14:50:53Z</time><extensions><gpxtpx:TrackPointExtension><gpxtpx:atemp>3.2</gpxtpx:atemp></gpxtpx:TrackPointExtension></extensions></trkpt><trkpt lat="42.1915290970" lon="13.4008909855"><ele>1861.56</ele><time>2026-03-11T14:50:54Z</time><extensions><gpxtpx:TrackPointExtension><gpxtpx:atemp>3.2</gpxtpx:atemp></gpxtpx:TrackPointExtension></extensions></trkpt><trkpt lat="42.1915338747" lon="13.4009372536"><ele>1860.96</ele><time>2026-03-11T14:50:55Z</time><extensions><gpxtpx:TrackPointExtension><gpxtpx:atemp>3.2</gpxtpx:atemp></gpxtpx:TrackPointExtension></extensions></trkpt><trkpt lat="42.1915354673" lon="13.4009822644"><ele>1860.32</ele><time>2026-03-11T14:50:56Z</time><extensions><gpxtpx:TrackPointExtension><gpxtpx:atemp>3.2</gpxtpx:atemp></gpxtpx:TrackPointExtension></extensions></trkpt><trkpt lat="42.1915354673" lon="13.4010241739"><ele>1859.70</ele><time>2026-03-11T14:50:57Z</time><extensions><gpxtpx:TrackPointExtension><gpxtpx:atemp>3.2</gpxtpx:atemp></gpxtpx:TrackPointExtension></extensions></trkpt><trkpt lat="42.1915344615" lon="13.4010648262"><ele>1859.13</ele><time>2026-03-11T14:50:58Z</time><extensions><gpxtpx:TrackPointExtension><gpxtpx:atemp>3.2</gpxtpx:atemp></gpxtpx:TrackPointExtension></extensions></trkpt><trkpt lat="42.1915322822" lon="13.4011052269"><ele>1858.56</ele><time>2026-03-11T14:50:59Z</time><extensions><gpxtpx:TrackPointExtension><gpxtpx:atemp>3.2</gpxtpx:atemp></gpxtpx:TrackPointExtension></extensions></trkpt><trkpt lat="42.1915306896" lon="13.4011418559"><ele>1858.04</ele><time>2026-03-11T14:51:00Z</time><extensions><gpxtpx:TrackPointExtension><gpxtpx:atemp>3.2</gpxtpx:atemp></gpxtpx:TrackPointExtension></extensions></trkpt><trkpt lat="42.1915281750" lon="13.4011804964"><ele>1857.63</ele><time>2026-03-11T14:51:01Z</time><extensions><gpxtpx:TrackPointExtension><gpxtpx:atemp>3.2</gpxtpx:atemp></gpxtpx:TrackPointExtension></extensions></trkpt><trkpt lat="42.1915253252" lon="13.4012205619"><ele>1857.27</ele><time>2026-03-11T14:51:02Z</time><extensions><gpxtpx:TrackPointExtension><gpxtpx:atemp>3.2</gpxtpx:atemp></gpxtpx:TrackPointExtension></extensions></trkpt><trkpt lat="42.1915214695" lon="13.4012576938"><ele>1856.63</ele><time>2026-03-11T14:51:03Z</time><extensions><gpxtpx:TrackPointExtension><gpxtpx:atemp>3.2</gpxtpx:atemp></gpxtpx:TrackPointExtension></extensions></trkpt><trkpt lat="42.1915156860" lon="13.4012877848"><ele>1856.30</ele><time>2026-03-11T14:51:04Z</time><extensions><gpxtpx:TrackPointExtension><gpxtpx:atemp>3.2</gpxtpx:atemp></gpxtpx:TrackPointExtension></extensions></trkpt><trkpt lat="42.1915117465" lon="13.4013143554"><ele>1855.96</ele><time>2026-03-11T14:51:05Z</time><extensions><gpxtpx:TrackPointExtension><gpxtpx:atemp>3.2</gpxtpx:atemp></gpxtpx:TrackPointExtension></extensions></trkpt><trkpt lat="42.1915086452" lon="13.4013393335"><ele>1855.65</ele><time>2026-03-11T14:51:06Z</time><extensions><gpxtpx:TrackPointExtension><gpxtpx:atemp>3.2</gpxtpx:atemp></gpxtpx:TrackPointExtension></extensions></trkpt><trkpt lat="42.1915075555" lon="13.4013626352"><ele>1855.38</ele><time>2026-03-11T14:51:07Z</time><extensions><gpxtpx:TrackPointExtension><gpxtpx:atemp>3.2</gpxtpx:atemp></gpxtpx:TrackPointExtension></extensions></trkpt><trkpt lat="42.1915084776" lon="13.4013878647"><ele>1855.18</ele><time>2026-03-11T14:51:08Z</time><extensions><gpxtpx:TrackPointExtension><gpxtpx:atemp>3.2</gpxtpx:atemp></gpxtpx:TrackPointExtension></extensions></trkpt><trkpt lat="42.1915123332" lon="13.4014152735"><ele>1855.00</ele><time>2026-03-11T14:51:09Z</time><extensions><gpxtpx:TrackPointExtension><gpxtpx:atemp>3.2</gpxtpx:atemp></gpxtpx:TrackPointExtension></extensions></trkpt><trkpt lat="42.1915307734" lon="13.4014419280"><ele>1854.82</ele><time>2026-03-11T14:51:10Z</time><extensions><gpxtpx:TrackPointExtension><gpxtpx:atemp>3.2</gpxtpx:atemp></gpxtpx:TrackPointExtension></extensions></trkpt><trkpt lat="42.1915579308" lon="13.4014379885"><ele>1854.62</ele><time>2026-03-11T14:51:11Z</time><extensions><gpxtpx:TrackPointExtension><gpxtpx:atemp>3.2</gpxtpx:atemp></gpxtpx:TrackPointExtension></extensions></trkpt><trkpt lat="42.1915808972" lon="13.4014233202"><ele>1854.41</ele><time>2026-03-11T14:51:12Z</time><extensions><gpxtpx:TrackPointExtension><gpxtpx:atemp>3.2</gpxtpx:atemp></gpxtpx:TrackPointExtension></extensions></trkpt><trkpt lat="42.1916022711" lon="13.4014095739"><ele>1854.23</ele><time>2026-03-11T14:51:13Z</time><extensions><gpxtpx:TrackPointExtension><gpxtpx:atemp>3.2</gpxtpx:atemp></gpxtpx:TrackPointExtension></extensions></trkpt><trkpt lat="42.1916258242" lon="13.4014093224"><ele>1854.00</ele><time>2026-03-11T14:51:14Z</time><extensions><gpxtpx:TrackPointExtension><gpxtpx:atemp>3.2</gpxtpx:atemp></gpxtpx:TrackPointExtension></extensions></trkpt><trkpt lat="42.1916475333" lon="13.4014374856"><ele>1853.35</ele><time>2026-03-11T14:51:15Z</time><extensions><gpxtpx:TrackPointExtension><gpxtpx:atemp>3.2</gpxtpx:atemp></gpxtpx:TrackPointExtension></extensions></trkpt><trkpt lat="42.1916649677" lon="13.4014707617"><ele>1852.94</ele><time>2026-03-11T14:51:16Z</time><extensions><gpxtpx:TrackPointExtension><gpxtpx:atemp>3.2</gpxtpx:atemp></gpxtpx:TrackPointExtension></extensions></trkpt><trkpt lat="42.1916612796" lon="13.4015155211"><ele>1852.50</ele><time>2026-03-11T14:51:17Z</time><extensions><gpxtpx:TrackPointExtension><gpxtpx:atemp>3.2</gpxtpx:atemp></gpxtpx:TrackPointExtension></extensions></trkpt><trkpt lat="42.1916596871" lon="13.4015597776"><ele>1851.98</ele><time>2026-03-11T14:51:18Z</time><extensions><gpxtpx:TrackPointExtension><gpxtpx:atemp>3.2</gpxtpx:atemp></gpxtpx:TrackPointExtension></extensions></trkpt><trkpt lat="42.1916567534" lon="13.4016061295"><ele>1851.37</ele><time>2026-03-11T14:51:19Z</time><extensions><gpxtpx:TrackPointExtension><gpxtpx:atemp>3.2</gpxtpx:atemp></gpxtpx:TrackPointExtension></extensions></trkpt><trkpt lat="42.1916541550" lon="13.4016527329"><ele>1850.78</ele><time>2026-03-11T14:51:20Z</time><extensions><gpxtpx:TrackPointExtension><gpxtpx:atemp>3.2</gpxtpx:atemp></gpxtpx:TrackPointExtension></extensions></trkpt><trkpt lat="42.1916556638" lon="13.4017034434"><ele>1850.23</ele><time>2026-03-11T14:51:21Z</time><extensions><gpxtpx:TrackPointExtension><gpxtpx:atemp>3.2</gpxtpx:atemp></gpxtpx:TrackPointExtension></extensions></trkpt><trkpt lat="42.1916579269" lon="13.4017584287"><ele>1849.72</ele><time>2026-03-11T14:51:22Z</time><extensions><gpxtpx:TrackPointExtension><gpxtpx:atemp>3.2</gpxtpx:atemp></gpxtpx:TrackPointExtension></extensions></trkpt><trkpt lat="42.1916597709" lon="13.4018163476"><ele>1849.25</ele><time>2026-03-11T14:51:23Z</time><extensions><gpxtpx:TrackPointExtension><gpxtpx:atemp>3.2</gpxtpx:atemp></gpxtpx:TrackPointExtension></extensions></trkpt><trkpt lat="42.1916595194" lon="13.4018745180"><ele>1848.81</ele><time>2026-03-11T14:51:24Z</time><extensions><gpxtpx:TrackPointExtension><gpxtpx:atemp>3.2</gpxtpx:atemp></gpxtpx:TrackPointExtension></extensions></trkpt><trkpt lat="42.1916550770" lon="13.4019349515"><ele>1848.34</ele><time>2026-03-11T14:51:25Z</time><extensions><gpxtpx:TrackPointExtension><gpxtpx:atemp>3.2</gpxtpx:atemp></gpxtpx:TrackPointExtension></extensions></trkpt><trkpt lat="42.1916511375" lon="13.4019930381"><ele>1847.15</ele><time>2026-03-11T14:51:26Z</time><extensions><gpxtpx:TrackPointExtension><gpxtpx:atemp>3.2</gpxtpx:atemp></gpxtpx:TrackPointExtension></extensions></trkpt><trkpt lat="42.1916481201" lon="13.4020473529"><ele>1846.54</ele><time>2026-03-11T14:51:27Z</time><extensions><gpxtpx:TrackPointExtension><gpxtpx:atemp>3.2</gpxtpx:atemp></gpxtpx:TrackPointExtension></extensions></trkpt><trkpt lat="42.1916595194" lon="13.4020938724"><ele>1845.97</ele><time>2026-03-11T14:51:28Z</time><extensions><gpxtpx:TrackPointExtension><gpxtpx:atemp>3.2</gpxtpx:atemp></gpxtpx:TrackPointExtension></extensions></trkpt><trkpt lat="42.1916822344" lon="13.4021330997"><ele>1845.40</ele><time>2026-03-11T14:51:29Z</time><extensions><gpxtpx:TrackPointExtension><gpxtpx:atemp>3.2</gpxtpx:atemp></gpxtpx:TrackPointExtension></extensions></trkpt><trkpt lat="42.1917182766" lon="13.4021599218"><ele>1844.85</ele><time>2026-03-11T14:51:30Z</time><extensions><gpxtpx:TrackPointExtension><gpxtpx:atemp>3.2</gpxtpx:atemp></gpxtpx:TrackPointExtension></extensions></trkpt><trkpt lat="42.1917561628" lon="13.4021879174"><ele>1844.35</ele><time>2026-03-11T14:51:31Z</time><extensions><gpxtpx:TrackPointExtension><gpxtpx:atemp>3.2</gpxtpx:atemp></gpxtpx:TrackPointExtension></extensions></trkpt><trkpt lat="42.1917830687" lon="13.4022298269"><ele>1843.91</ele><time>2026-03-11T14:51:32Z</time><extensions><gpxtpx:TrackPointExtension><gpxtpx:atemp>3.3</gpxtpx:atemp></gpxtpx:TrackPointExtension></extensions></trkpt><trkpt lat="42.1918009222" lon="13.4022790287"><ele>1843.44</ele><time>2026-03-11T14:51:33Z</time><extensions><gpxtpx:TrackPointExtension><gpxtpx:atemp>3.3</gpxtpx:atemp></gpxtpx:TrackPointExtension></extensions></trkpt><trkpt lat="42.1918170992" lon="13.4023235366"><ele>1842.92</ele><time>2026-03-11T14:51:34Z</time><extensions><gpxtpx:TrackPointExtension><gpxtpx:atemp>3.3</gpxtpx:atemp></gpxtpx:TrackPointExtension></extensions></trkpt><trkpt lat="42.1918367967" lon="13.4023639373"><ele>1842.41</ele><time>2026-03-11T14:51:35Z</time><extensions><gpxtpx:TrackPointExtension><gpxtpx:atemp>3.3</gpxtpx:atemp></gpxtpx:TrackPointExtension></extensions></trkpt><trkpt lat="42.1918591764" lon="13.4024025779"><ele>1841.91</ele><time>2026-03-11T14:51:36Z</time><extensions><gpxtpx:TrackPointExtension><gpxtpx:atemp>3.3</gpxtpx:atemp></gpxtpx:TrackPointExtension></extensions></trkpt><trkpt lat="42.1918837354" lon="13.4024397936"><ele>1841.40</ele><time>2026-03-11T14:51:37Z</time><extensions><gpxtpx:TrackPointExtension><gpxtpx:atemp>3.3</gpxtpx:atemp></gpxtpx:TrackPointExtension></extensions></trkpt><trkpt lat="42.1919098869" lon="13.4024749976"><ele>1840.39</ele><time>2026-03-11T14:51:38Z</time><extensions><gpxtpx:TrackPointExtension><gpxtpx:atemp>3.3</gpxtpx:atemp></gpxtpx:TrackPointExtension></extensions></trkpt><trkpt lat="42.1919350326" lon="13.4025104530"><ele>1839.96</ele><time>2026-03-11T14:51:39Z</time><extensions><gpxtpx:TrackPointExtension><gpxtpx:atemp>3.3</gpxtpx:atemp></gpxtpx:TrackPointExtension></extensions></trkpt><trkpt lat="42.1919573285" lon="13.4025475848"><ele>1839.57</ele><time>2026-03-11T14:51:40Z</time><extensions><gpxtpx:TrackPointExtension><gpxtpx:atemp>3.3</gpxtpx:atemp></gpxtpx:TrackPointExtension></extensions></trkpt><trkpt lat="42.1919733379" lon="13.4025863931"><ele>1839.18</ele><time>2026-03-11T14:51:41Z</time><extensions><gpxtpx:TrackPointExtension><gpxtpx:atemp>3.3</gpxtpx:atemp></gpxtpx:TrackPointExtension></extensions></trkpt><trkpt lat="42.1919829771" lon="13.4026209265"><ele>1838.77</ele><time>2026-03-11T14:51:42Z</time><extensions><gpxtpx:TrackPointExtension><gpxtpx:atemp>3.3</gpxtpx:atemp></gpxtpx:TrackPointExtension></extensions></trkpt><trkpt lat="42.1919913590" lon="13.4026501793"><ele>1838.36</ele><time>2026-03-11T14:51:43Z</time><extensions><gpxtpx:TrackPointExtension><gpxtpx:atemp>3.3</gpxtpx:atemp></gpxtpx:TrackPointExtension></extensions></trkpt><trkpt lat="42.1919986513" lon="13.4026749898"><ele>1837.95</ele><time>2026-03-11T14:51:44Z</time><extensions><gpxtpx:TrackPointExtension><gpxtpx:atemp>3.3</gpxtpx:atemp></gpxtpx:TrackPointExtension></extensions></trkpt><trkpt lat="42.1920069493" lon="13.4027010575"><ele>1837.57</ele><time>2026-03-11T14:51:45Z</time><extensions><gpxtpx:TrackPointExtension><gpxtpx:atemp>3.3</gpxtpx:atemp></gpxtpx:TrackPointExtension></extensions></trkpt><trkpt lat="42.1920139901" lon="13.4027211741"><ele>1837.27</ele><time>2026-03-11T14:51:46Z</time><extensions><gpxtpx:TrackPointExtension><gpxtpx:atemp>3.3</gpxtpx:atemp></gpxtpx:TrackPointExtension></extensions></trkpt><trkpt lat="42.1920236293" lon="13.4027443919"><ele>1837.09</ele><time>2026-03-11T14:51:47Z</time><extensions><gpxtpx:TrackPointExtension><gpxtpx:atemp>3.3</gpxtpx:atemp></gpxtpx:TrackPointExtension></extensions></trkpt><trkpt lat="42.1920327656" lon="13.4027648438"><ele>1836.94</ele><time>2026-03-11T14:51:48Z</time><extensions><gpxtpx:TrackPointExtension><gpxtpx:atemp>3.3</gpxtpx:atemp></gpxtpx:TrackPointExtension></extensions></trkpt><trkpt lat="42.1920417342" lon="13.4027845412"><ele>1836.65</ele><time>2026-03-11T14:51:49Z</time><extensions><gpxtpx:TrackPointExtension><gpxtpx:atemp>3.3</gpxtpx:atemp></gpxtpx:TrackPointExtension></extensions></trkpt><trkpt lat="42.1920502838" lon="13.4028043225"><ele>1836.53</ele><time>2026-03-11T14:51:50Z</time><extensions><gpxtpx:TrackPointExtension><gpxtpx:atemp>3.3</gpxtpx:atemp></gpxtpx:TrackPointExtension></extensions></trkpt><trkpt lat="42.1920593362" lon="13.4028234333"><ele>1836.42</ele><time>2026-03-11T14:51:51Z</time><extensions><gpxtpx:TrackPointExtension><gpxtpx:atemp>3.3</gpxtpx:atemp></gpxtpx:TrackPointExtension></extensions></trkpt><trkpt lat="42.1920703165" lon="13.4028428793"><ele>1836.33</ele><time>2026-03-11T14:51:52Z</time><extensions><gpxtpx:TrackPointExtension><gpxtpx:atemp>3.3</gpxtpx:atemp></gpxtpx:TrackPointExtension></extensions></trkpt><trkpt lat="42.1920844819" lon="13.4028639179"><ele>1836.24</ele><time>2026-03-11T14:51:53Z</time><extensions><gpxtpx:TrackPointExtension><gpxtpx:atemp>3.3</gpxtpx:atemp></gpxtpx:TrackPointExtension></extensions></trkpt><trkpt lat="42.1921010781" lon="13.4028865490"><ele>1836.14</ele><time>2026-03-11T14:51:54Z</time><extensions><gpxtpx:TrackPointExtension><gpxtpx:atemp>3.3</gpxtpx:atemp></gpxtpx:TrackPointExtension></extensions></trkpt><trkpt lat="42.1921187639" lon="13.4029087611"><ele>1836.01</ele><time>2026-03-11T14:51:55Z</time><extensions><gpxtpx:TrackPointExtension><gpxtpx:atemp>3.3</gpxtpx:atemp></gpxtpx:TrackPointExtension></extensions></trkpt><trkpt lat="42.1921441611" lon="13.4029319789"><ele>1835.90</ele><time>2026-03-11T14:51:56Z</time><extensions><gpxtpx:TrackPointExtension><gpxtpx:atemp>3.3</gpxtpx:atemp></gpxtpx:TrackPointExtension></extensions></trkpt><trkpt lat="42.1921651997" lon="13.4029616509"><ele>1835.78</ele><time>2026-03-11T14:51:57Z</time><extensions><gpxtpx:TrackPointExtension><gpxtpx:atemp>3.3</gpxtpx:atemp></gpxtpx:TrackPointExtension></extensions></trkpt><trkpt lat="42.1921781916" lon="13.4029983636"><ele>1835.60</ele><time>2026-03-11T14:51:58Z</time><extensions><gpxtpx:TrackPointExtension><gpxtpx:atemp>3.3</gpxtpx:atemp></gpxtpx:TrackPointExtension></extensions></trkpt><trkpt lat="42.1921799518" lon="13.4030381776"><ele>1835.34</ele><time>2026-03-11T14:51:59Z</time><extensions><gpxtpx:TrackPointExtension><gpxtpx:atemp>3.3</gpxtpx:atemp></gpxtpx:TrackPointExtension></extensions></trkpt><trkpt lat="42.1921753418" lon="13.4030748904"><ele>1835.03</ele><time>2026-03-11T14:52:00Z</time><extensions><gpxtpx:TrackPointExtension><gpxtpx:atemp>3.3</gpxtpx:atemp></gpxtpx:TrackPointExtension></extensions></trkpt><trkpt lat="42.1921663731" lon="13.4031032212"><ele>1834.38</ele><time>2026-03-11T14:52:01Z</time><extensions><gpxtpx:TrackPointExtension><gpxtpx:atemp>3.3</gpxtpx:atemp></gpxtpx:TrackPointExtension></extensions></trkpt><trkpt lat="42.1921584941" lon="13.4031356592"><ele>1834.05</ele><time>2026-03-11T14:52:02Z</time><extensions><gpxtpx:TrackPointExtension><gpxtpx:atemp>3.3</gpxtpx:atemp></gpxtpx:TrackPointExtension></extensions></trkpt><trkpt lat="42.1921538841" lon="13.4031715337"><ele>1833.67</ele><time>2026-03-11T14:52:03Z</time><extensions><gpxtpx:TrackPointExtension><gpxtpx:atemp>3.3</gpxtpx:atemp></gpxtpx:TrackPointExtension></extensions></trkpt><trkpt lat="42.1921520401" lon="13.4032160416"><ele>1833.28</ele><time>2026-03-11T14:52:04Z</time><extensions><gpxtpx:TrackPointExtension><gpxtpx:atemp>3.3</gpxtpx:atemp></gpxtpx:TrackPointExtension></extensions></trkpt><trkpt lat="42.1921554767" lon="13.4032673389"><ele>1832.94</ele><time>2026-03-11T14:52:05Z</time><extensions><gpxtpx:TrackPointExtension><gpxtpx:atemp>3.3</gpxtpx:atemp></gpxtpx:TrackPointExtension></extensions></trkpt><trkpt lat="42.1921644453" lon="13.4033209831"><ele>1832.62</ele><time>2026-03-11T14:52:06Z</time><extensions><gpxtpx:TrackPointExtension><gpxtpx:atemp>3.3</gpxtpx:atemp></gpxtpx:TrackPointExtension></extensions></trkpt><trkpt lat="42.1921823826" lon="13.4033675864"><ele>1832.22</ele><time>2026-03-11T14:52:07Z</time><extensions><gpxtpx:TrackPointExtension><gpxtpx:atemp>3.3</gpxtpx:atemp></gpxtpx:TrackPointExtension></extensions></trkpt><trkpt lat="42.1922111325" lon="13.4034011979"><ele>1831.79</ele><time>2026-03-11T14:52:08Z</time><extensions><gpxtpx:TrackPointExtension><gpxtpx:atemp>3.3</gpxtpx:atemp></gpxtpx:TrackPointExtension></extensions></trkpt><trkpt lat="42.1922396310" lon="13.4034251701"><ele>1831.39</ele><time>2026-03-11T14:52:09Z</time><extensions><gpxtpx:TrackPointExtension><gpxtpx:atemp>3.3</gpxtpx:atemp></gpxtpx:TrackPointExtension></extensions></trkpt><trkpt lat="42.1922685485" lon="13.4034504835"><ele>1830.99</ele><time>2026-03-11T14:52:10Z</time><extensions><gpxtpx:TrackPointExtension><gpxtpx:atemp>3.3</gpxtpx:atemp></gpxtpx:TrackPointExtension></extensions></trkpt><trkpt lat="42.1922819596" lon="13.4034935664"><ele>1830.62</ele><time>2026-03-11T14:52:11Z</time><extensions><gpxtpx:TrackPointExtension><gpxtpx:atemp>3.3</gpxtpx:atemp></gpxtpx:TrackPointExtension></extensions></trkpt><trkpt lat="42.1922969632" lon="13.4035391640"><ele>1829.92</ele><time>2026-03-11T14:52:12Z</time><extensions><gpxtpx:TrackPointExtension><gpxtpx:atemp>3.3</gpxtpx:atemp></gpxtpx:TrackPointExtension></extensions></trkpt><trkpt lat="42.1923210192" lon="13.4035835881"><ele>1829.53</ele><time>2026-03-11T14:52:13Z</time><extensions><gpxtpx:TrackPointExtension><gpxtpx:atemp>3.3</gpxtpx:atemp></gpxtpx:TrackPointExtension></extensions></trkpt><trkpt lat="42.1923405491" lon="13.4036349691"><ele>1829.09</ele><time>2026-03-11T14:52:14Z</time><extensions><gpxtpx:TrackPointExtension><gpxtpx:atemp>3.3</gpxtpx:atemp></gpxtpx:TrackPointExtension></extensions></trkpt><trkpt lat="42.1923548821" lon="13.4036857635"><ele>1828.56</ele><time>2026-03-11T14:52:15Z</time><extensions><gpxtpx:TrackPointExtension><gpxtpx:atemp>3.3</gpxtpx:atemp></gpxtpx:TrackPointExtension></extensions></trkpt><trkpt lat="42.1923687961" lon="13.4037347976"><ele>1827.93</ele><time>2026-03-11T14:52:16Z</time><extensions><gpxtpx:TrackPointExtension><gpxtpx:atemp>3.3</gpxtpx:atemp></gpxtpx:TrackPointExtension></extensions></trkpt><trkpt lat="42.1923836321" lon="13.4037744440"><ele>1827.30</ele><time>2026-03-11T14:52:17Z</time><extensions><gpxtpx:TrackPointExtension><gpxtpx:atemp>3.3</gpxtpx:atemp></gpxtpx:TrackPointExtension></extensions></trkpt><trkpt lat="42.1924030781" lon="13.4038070496"><ele>1826.67</ele><time>2026-03-11T14:52:18Z</time><extensions><gpxtpx:TrackPointExtension><gpxtpx:atemp>3.3</gpxtpx:atemp></gpxtpx:TrackPointExtension></extensions></trkpt><trkpt lat="42.1924209315" lon="13.4038293455"><ele>1826.04</ele><time>2026-03-11T14:52:19Z</time><extensions><gpxtpx:TrackPointExtension><gpxtpx:atemp>3.3</gpxtpx:atemp></gpxtpx:TrackPointExtension></extensions></trkpt><trkpt lat="42.1924385335" lon="13.4038471989"><ele>1825.43</ele><time>2026-03-11T14:52:20Z</time><extensions><gpxtpx:TrackPointExtension><gpxtpx:atemp>3.3</gpxtpx:atemp></gpxtpx:TrackPointExtension></extensions></trkpt><trkpt lat="42.1924588177" lon="13.4038635436"><ele>1824.94</ele><time>2026-03-11T14:52:21Z</time><extensions><gpxtpx:TrackPointExtension><gpxtpx:atemp>3.3</gpxtpx:atemp></gpxtpx:TrackPointExtension></extensions></trkpt><trkpt lat="42.1924825385" lon="13.4038827382"><ele>1824.56</ele><time>2026-03-11T14:52:22Z</time><extensions><gpxtpx:TrackPointExtension><gpxtpx:atemp>3.3</gpxtpx:atemp></gpxtpx:TrackPointExtension></extensions></trkpt><trkpt lat="42.1925111208" lon="13.4039033577"><ele>1824.22</ele><time>2026-03-11T14:52:23Z</time><extensions><gpxtpx:TrackPointExtension><gpxtpx:atemp>3.3</gpxtpx:atemp></gpxtpx:TrackPointExtension></extensions></trkpt><trkpt lat="42.1925418824" lon="13.4039263241"><ele>1823.66</ele><time>2026-03-11T14:52:24Z</time><extensions><gpxtpx:TrackPointExtension><gpxtpx:atemp>3.3</gpxtpx:atemp></gpxtpx:TrackPointExtension></extensions></trkpt><trkpt lat="42.1925730631" lon="13.4039500449"><ele>1823.36</ele><time>2026-03-11T14:52:25Z</time><extensions><gpxtpx:TrackPointExtension><gpxtpx:atemp>3.3</gpxtpx:atemp></gpxtpx:TrackPointExtension></extensions></trkpt><trkpt lat="42.1926039923" lon="13.4039772861"><ele>1823.01</ele><time>2026-03-11T14:52:26Z</time><extensions><gpxtpx:TrackPointExtension><gpxtpx:atemp>3.3</gpxtpx:atemp></gpxtpx:TrackPointExtension></extensions></trkpt><trkpt lat="42.1926314849" lon="13.4040053654"><ele>1822.62</ele><time>2026-03-11T14:52:27Z</time><extensions><gpxtpx:TrackPointExtension><gpxtpx:atemp>3.3</gpxtpx:atemp></gpxtpx:TrackPointExtension></extensions></trkpt><trkpt lat="42.1926599834" lon="13.4040348697"><ele>1822.20</ele><time>2026-03-11T14:52:28Z</time><extensions><gpxtpx:TrackPointExtension><gpxtpx:atemp>3.3</gpxtpx:atemp></gpxtpx:TrackPointExtension></extensions></trkpt><trkpt lat="42.1926864702" lon="13.4040660504"><ele>1821.77</ele><time>2026-03-11T14:52:29Z</time><extensions><gpxtpx:TrackPointExtension><gpxtpx:atemp>3.3</gpxtpx:atemp></gpxtpx:TrackPointExtension></extensions></trkpt><trkpt lat="42.1927113645" lon="13.4040983208"><ele>1821.28</ele><time>2026-03-11T14:52:30Z</time><extensions><gpxtpx:TrackPointExtension><gpxtpx:atemp>3.3</gpxtpx:atemp></gpxtpx:TrackPointExtension></extensions></trkpt><trkpt lat="42.1927355882" lon="13.4041321836"><ele>1820.78</ele><time>2026-03-11T14:52:31Z</time><extensions><gpxtpx:TrackPointExtension><gpxtpx:atemp>3.3</gpxtpx:atemp></gpxtpx:TrackPointExtension></extensions></trkpt><trkpt lat="42.1927576326" lon="13.4041653760"><ele>1820.27</ele><time>2026-03-11T14:52:32Z</time><extensions><gpxtpx:TrackPointExtension><gpxtpx:atemp>3.3</gpxtpx:atemp></gpxtpx:TrackPointExtension></extensions></trkpt><trkpt lat="42.1927779168" lon="13.4041981492"><ele>1819.77</ele><time>2026-03-11T14:52:33Z</time><extensions><gpxtpx:TrackPointExtension><gpxtpx:atemp>3.3</gpxtpx:atemp></gpxtpx:TrackPointExtension></extensions></trkpt><trkpt lat="42.1927958541" lon="13.4042297490"><ele>1819.29</ele><time>2026-03-11T14:52:34Z</time><extensions><gpxtpx:TrackPointExtension><gpxtpx:atemp>3.3</gpxtpx:atemp></gpxtpx:TrackPointExtension></extensions></trkpt><trkpt lat="42.1928132884" lon="13.4042581636"><ele>1818.46</ele><time>2026-03-11T14:52:35Z</time><extensions><gpxtpx:TrackPointExtension><gpxtpx:atemp>3.3</gpxtpx:atemp></gpxtpx:TrackPointExtension></extensions></trkpt><trkpt lat="42.1928312257" lon="13.4042844828"><ele>1818.12</ele><time>2026-03-11T14:52:36Z</time><extensions><gpxtpx:TrackPointExtension><gpxtpx:atemp>3.3</gpxtpx:atemp></gpxtpx:TrackPointExtension></extensions></trkpt><trkpt lat="42.1928486601" lon="13.4043105505"><ele>1817.81</ele><time>2026-03-11T14:52:37Z</time><extensions><gpxtpx:TrackPointExtension><gpxtpx:atemp>3.3</gpxtpx:atemp></gpxtpx:TrackPointExtension></extensions></trkpt><trkpt lat="42.1928662620" lon="13.4043367859"><ele>1817.49</ele><time>2026-03-11T14:52:38Z</time><extensions><gpxtpx:TrackPointExtension><gpxtpx:atemp>3.3</gpxtpx:atemp></gpxtpx:TrackPointExtension></extensions></trkpt><trkpt lat="42.1928826906" lon="13.4043623507"><ele>1817.15</ele><time>2026-03-11T14:52:39Z</time><extensions><gpxtpx:TrackPointExtension><gpxtpx:atemp>3.3</gpxtpx:atemp></gpxtpx:TrackPointExtension></extensions></trkpt><trkpt lat="42.1928992867" lon="13.4043868259"><ele>1816.82</ele><time>2026-03-11T14:52:40Z</time><extensions><gpxtpx:TrackPointExtension><gpxtpx:atemp>3.3</gpxtpx:atemp></gpxtpx:TrackPointExtension></extensions></trkpt><trkpt lat="42.1929156315" lon="13.4044122230"><ele>1816.53</ele><time>2026-03-11T14:52:41Z</time><extensions><gpxtpx:TrackPointExtension><gpxtpx:atemp>3.3</gpxtpx:atemp></gpxtpx:TrackPointExtension></extensions></trkpt><trkpt lat="42.1929328982" lon="13.4044386260"><ele>1816.27</ele><time>2026-03-11T14:52:42Z</time><extensions><gpxtpx:TrackPointExtension><gpxtpx:atemp>3.3</gpxtpx:atemp></gpxtpx:TrackPointExtension></extensions></trkpt><trkpt lat="42.1929508355" lon="13.4044661187"><ele>1815.99</ele><time>2026-03-11T14:52:43Z</time><extensions><gpxtpx:TrackPointExtension><gpxtpx:atemp>3.3</gpxtpx:atemp></gpxtpx:TrackPointExtension></extensions></trkpt><trkpt lat="42.1929689404" lon="13.4044943657"><ele>1815.67</ele><time>2026-03-11T14:52:44Z</time><extensions><gpxtpx:TrackPointExtension><gpxtpx:atemp>3.3</gpxtpx:atemp></gpxtpx:TrackPointExtension></extensions></trkpt><trkpt lat="42.1929865424" lon="13.4045207687"><ele>1815.38</ele><time>2026-03-11T14:52:45Z</time><extensions><gpxtpx:TrackPointExtension><gpxtpx:atemp>3.3</gpxtpx:atemp></gpxtpx:TrackPointExtension></extensions></trkpt><trkpt lat="42.1930010431" lon="13.4045489319"><ele>1815.14</ele><time>2026-03-11T14:52:46Z</time><extensions><gpxtpx:TrackPointExtension><gpxtpx:atemp>3.3</gpxtpx:atemp></gpxtpx:TrackPointExtension></extensions></trkpt><trkpt lat="42.1930145379" lon="13.4045760892"><ele>1814.59</ele><time>2026-03-11T14:52:47Z</time><extensions><gpxtpx:TrackPointExtension><gpxtpx:atemp>3.3</gpxtpx:atemp></gpxtpx:TrackPointExtension></extensions></trkpt><trkpt lat="42.1930281166" lon="13.4046043362"><ele>1814.34</ele><time>2026-03-11T14:52:48Z</time><extensions><gpxtpx:TrackPointExtension><gpxtpx:atemp>3.3</gpxtpx:atemp></gpxtpx:TrackPointExtension></extensions></trkpt><trkpt lat="42.1930395998" lon="13.4046321642"><ele>1814.09</ele><time>2026-03-11T14:52:49Z</time><extensions><gpxtpx:TrackPointExtension><gpxtpx:atemp>3.3</gpxtpx:atemp></gpxtpx:TrackPointExtension></extensions></trkpt><trkpt lat="42.1930504963" lon="13.4046584833"><ele>1813.82</ele><time>2026-03-11T14:52:50Z</time><extensions><gpxtpx:TrackPointExtension><gpxtpx:atemp>3.3</gpxtpx:atemp></gpxtpx:TrackPointExtension></extensions></trkpt><trkpt lat="42.1930619795" lon="13.4046848863"><ele>1813.52</ele><time>2026-03-11T14:52:51Z</time><extensions><gpxtpx:TrackPointExtension><gpxtpx:atemp>3.3</gpxtpx:atemp></gpxtpx:TrackPointExtension></extensions></trkpt><trkpt lat="42.1930741332" lon="13.4047118761"><ele>1813.26</ele><time>2026-03-11T14:52:52Z</time><extensions><gpxtpx:TrackPointExtension><gpxtpx:atemp>3.3</gpxtpx:atemp></gpxtpx:TrackPointExtension></extensions></trkpt><trkpt lat="42.1930858679" lon="13.4047389496"><ele>1813.02</ele><time>2026-03-11T14:52:53Z</time><extensions><gpxtpx:TrackPointExtension><gpxtpx:atemp>3.3</gpxtpx:atemp></gpxtpx:TrackPointExtension></extensions></trkpt><trkpt lat="42.1930982731" lon="13.4047668613"><ele>1812.75</ele><time>2026-03-11T14:52:54Z</time><extensions><gpxtpx:TrackPointExtension><gpxtpx:atemp>3.3</gpxtpx:atemp></gpxtpx:TrackPointExtension></extensions></trkpt><trkpt lat="42.1931093372" lon="13.4047948569"><ele>1812.44</ele><time>2026-03-11T14:52:55Z</time><extensions><gpxtpx:TrackPointExtension><gpxtpx:atemp>3.3</gpxtpx:atemp></gpxtpx:TrackPointExtension></extensions></trkpt><trkpt lat="42.1931204852" lon="13.4048226848"><ele>1812.17</ele><time>2026-03-11T14:52:56Z</time><extensions><gpxtpx:TrackPointExtension><gpxtpx:atemp>3.3</gpxtpx:atemp></gpxtpx:TrackPointExtension></extensions></trkpt><trkpt lat="42.1931315493" lon="13.4048522729"><ele>1811.96</ele><time>2026-03-11T14:52:57Z</time><extensions><gpxtpx:TrackPointExtension><gpxtpx:atemp>3.3</gpxtpx:atemp></gpxtpx:TrackPointExtension></extensions></trkpt><trkpt lat="42.1931419428" lon="13.4048810229"><ele>1811.56</ele><time>2026-03-11T14:52:58Z</time><extensions><gpxtpx:TrackPointExtension><gpxtpx:atemp>3.3</gpxtpx:atemp></gpxtpx:TrackPointExtension></extensions></trkpt><trkpt lat="42.1931518335" lon="13.4049090184"><ele>1811.37</ele><time>2026-03-11T14:52:59Z</time><extensions><gpxtpx:TrackPointExtension><gpxtpx:atemp>3.3</gpxtpx:atemp></gpxtpx:TrackPointExtension></extensions></trkpt><trkpt lat="42.1931605507" lon="13.4049365949"><ele>1811.18</ele><time>2026-03-11T14:53:00Z</time><extensions><gpxtpx:TrackPointExtension><gpxtpx:atemp>3.3</gpxtpx:atemp></gpxtpx:TrackPointExtension></extensions></trkpt><trkpt lat="42.1931678429" lon="13.4049618244"><ele>1810.96</ele><time>2026-03-11T14:53:01Z</time><extensions><gpxtpx:TrackPointExtension><gpxtpx:atemp>3.3</gpxtpx:atemp></gpxtpx:TrackPointExtension></extensions></trkpt><trkpt lat="42.1931740455" lon="13.4049832821"><ele>1810.74</ele><time>2026-03-11T14:53:02Z</time><extensions><gpxtpx:TrackPointExtension><gpxtpx:atemp>3.3</gpxtpx:atemp></gpxtpx:TrackPointExtension></extensions></trkpt><trkpt lat="42.1931789909" lon="13.4050001297"><ele>1810.53</ele><time>2026-03-11T14:53:03Z</time><extensions><gpxtpx:TrackPointExtension><gpxtpx:atemp>3.3</gpxtpx:atemp></gpxtpx:TrackPointExtension></extensions></trkpt><trkpt lat="42.1931830980" lon="13.4050148819"><ele>1810.39</ele><time>2026-03-11T14:53:04Z</time><extensions><gpxtpx:TrackPointExtension><gpxtpx:atemp>3.3</gpxtpx:atemp></gpxtpx:TrackPointExtension></extensions></trkpt><trkpt lat="42.1931865346" lon="13.4050280415"><ele>1810.29</ele><time>2026-03-11T14:53:05Z</time><extensions><gpxtpx:TrackPointExtension><gpxtpx:atemp>3.3</gpxtpx:atemp></gpxtpx:TrackPointExtension></extensions></trkpt><trkpt lat="42.1931896359" lon="13.4050396923"><ele>1810.22</ele><time>2026-03-11T14:53:06Z</time><extensions><gpxtpx:TrackPointExtension><gpxtpx:atemp>3.3</gpxtpx:atemp></gpxtpx:TrackPointExtension></extensions></trkpt><trkpt lat="42.1931947488" lon="13.4050498344"><ele>1810.18</ele><time>2026-03-11T14:53:07Z</time><extensions><gpxtpx:TrackPointExtension><gpxtpx:atemp>3.3</gpxtpx:atemp></gpxtpx:TrackPointExtension></extensions></trkpt><trkpt lat="42.1931977663" lon="13.4050588869"><ele>1810.14</ele><time>2026-03-11T14:53:08Z</time><extensions><gpxtpx:TrackPointExtension><gpxtpx:atemp>3.3</gpxtpx:atemp></gpxtpx:TrackPointExtension></extensions></trkpt><trkpt lat="42.1932011191" lon="13.4050625749"><ele>1810.07</ele><time>2026-03-11T14:53:09Z</time><extensions><gpxtpx:TrackPointExtension><gpxtpx:atemp>3.3</gpxtpx:atemp></gpxtpx:TrackPointExtension></extensions></trkpt><trkpt lat="42.1932001971" lon="13.4050650895"><ele>1809.88</ele><time>2026-03-11T14:53:10Z</time><extensions><gpxtpx:TrackPointExtension><gpxtpx:atemp>3.3</gpxtpx:atemp></gpxtpx:TrackPointExtension></extensions></trkpt><trkpt lat="42.1931994427" lon="13.4050653409"><ele>1809.83</ele><time>2026-03-11T14:53:11Z</time><extensions><gpxtpx:TrackPointExtension><gpxtpx:atemp>3.3</gpxtpx:atemp></gpxtpx:TrackPointExtension></extensions></trkpt><trkpt lat="42.1932009514" lon="13.4050702862"><ele>1809.83</ele><time>2026-03-11T14:53:12Z</time><extensions><gpxtpx:TrackPointExtension><gpxtpx:atemp>3.3</gpxtpx:atemp></gpxtpx:TrackPointExtension></extensions></trkpt><trkpt lat="42.1932032984" lon="13.4050764889"><ele>1809.83</ele><time>2026-03-11T14:53:13Z</time><extensions><gpxtpx:TrackPointExtension><gpxtpx:atemp>3.3</gpxtpx:atemp></gpxtpx:TrackPointExtension></extensions></trkpt><trkpt lat="42.1932078246" lon="13.4050839487"><ele>1809.82</ele><time>2026-03-11T14:53:14Z</time><extensions><gpxtpx:TrackPointExtension><gpxtpx:atemp>3.3</gpxtpx:atemp></gpxtpx:TrackPointExtension></extensions></trkpt><trkpt lat="42.1932122670" lon="13.4050922468"><ele>1809.82</ele><time>2026-03-11T14:53:15Z</time><extensions><gpxtpx:TrackPointExtension><gpxtpx:atemp>3.3</gpxtpx:atemp></gpxtpx:TrackPointExtension></extensions></trkpt><trkpt lat="42.1932163741" lon="13.4050988685"><ele>1809.82</ele><time>2026-03-11T14:53:16Z</time><extensions><gpxtpx:TrackPointExtension><gpxtpx:atemp>3.3</gpxtpx:atemp></gpxtpx:TrackPointExtension></extensions></trkpt><trkpt lat="42.1932238340" lon="13.4051057417"><ele>1809.82</ele><time>2026-03-11T14:53:17Z</time><extensions><gpxtpx:TrackPointExtension><gpxtpx:atemp>3.3</gpxtpx:atemp></gpxtpx:TrackPointExtension></extensions></trkpt><trkpt lat="42.1932265162" lon="13.4051086754"><ele>1809.80</ele><time>2026-03-11T14:53:18Z</time><extensions><gpxtpx:TrackPointExtension><gpxtpx:atemp>3.3</gpxtpx:atemp></gpxtpx:TrackPointExtension></extensions></trkpt><trkpt lat="42.1932267677" lon="13.4051070828"><ele>1809.79</ele><time>2026-03-11T14:53:19Z</time><extensions><gpxtpx:TrackPointExtension><gpxtpx:atemp>3.3</gpxtpx:atemp></gpxtpx:TrackPointExtension></extensions></trkpt><trkpt lat="42.1932268515" lon="13.4051061608"><ele>1809.79</ele><time>2026-03-11T14:53:20Z</time><extensions><gpxtpx:TrackPointExtension><gpxtpx:atemp>3.3</gpxtpx:atemp></gpxtpx:TrackPointExtension></extensions></trkpt><trkpt lat="42.1932285279" lon="13.4051062446"><ele>1809.77</ele><time>2026-03-11T14:53:21Z</time><extensions><gpxtpx:TrackPointExtension><gpxtpx:atemp>3.3</gpxtpx:atemp></gpxtpx:TrackPointExtension></extensions></trkpt><trkpt lat="42.1932292823" lon="13.4051053226"><ele>1809.77</ele><time>2026-03-11T14:53:22Z</time><extensions><gpxtpx:TrackPointExtension><gpxtpx:atemp>3.3</gpxtpx:atemp></gpxtpx:TrackPointExtension></extensions></trkpt><trkpt lat="42.1932281926" lon="13.4051036462"><ele>1809.79</ele><time>2026-03-11T14:53:23Z</time><extensions><gpxtpx:TrackPointExtension><gpxtpx:atemp>3.3</gpxtpx:atemp></gpxtpx:TrackPointExtension></extensions></trkpt><trkpt lat="42.1932287794" lon="13.4051028918"><ele>1809.83</ele><time>2026-03-11T14:53:24Z</time><extensions><gpxtpx:TrackPointExtension><gpxtpx:atemp>3.3</gpxtpx:atemp></gpxtpx:TrackPointExtension></extensions></trkpt><trkpt lat="42.1932293661" lon="13.4051051550"><ele>1809.86</ele><time>2026-03-11T14:53:25Z</time><extensions><gpxtpx:TrackPointExtension><gpxtpx:atemp>3.3</gpxtpx:atemp></gpxtpx:TrackPointExtension></extensions></trkpt><trkpt lat="42.1932298690" lon="13.4051071666"><ele>1809.88</ele><time>2026-03-11T14:53:26Z</time><extensions><gpxtpx:TrackPointExtension><gpxtpx:atemp>3.3</gpxtpx:atemp></gpxtpx:TrackPointExtension></extensions></trkpt><trkpt lat="42.1932293661" lon="13.4051066637"><ele>1809.89</ele><time>2026-03-11T14:53:27Z</time><extensions><gpxtpx:TrackPointExtension><gpxtpx:atemp>3.3</gpxtpx:atemp></gpxtpx:TrackPointExtension></extensions></trkpt><trkpt lat="42.1932291985" lon="13.4051078372"><ele>1809.90</ele><time>2026-03-11T14:53:28Z</time><extensions><gpxtpx:TrackPointExtension><gpxtpx:atemp>3.3</gpxtpx:atemp></gpxtpx:TrackPointExtension></extensions></trkpt><trkpt lat="42.1932287794" lon="13.4051081724"><ele>1809.90</ele><time>2026-03-11T14:53:29Z</time><extensions><gpxtpx:TrackPointExtension><gpxtpx:atemp>3.3</gpxtpx:atemp></gpxtpx:TrackPointExtension></extensions></trkpt><trkpt lat="42.1932283603" lon="13.4051080886"><ele>1809.90</ele><time>2026-03-11T14:53:30Z</time><extensions><gpxtpx:TrackPointExtension><gpxtpx:atemp>3.3</gpxtpx:atemp></gpxtpx:TrackPointExtension></extensions></trkpt><trkpt lat="42.1932274383" lon="13.4051052388"><ele>1809.89</ele><time>2026-03-11T14:53:31Z</time><extensions><gpxtpx:TrackPointExtension><gpxtpx:atemp>3.3</gpxtpx:atemp></gpxtpx:TrackPointExtension></extensions></trkpt><trkpt lat="42.1932285279" lon="13.4051041491"><ele>1809.89</ele><time>2026-03-11T14:53:32Z</time><extensions><gpxtpx:TrackPointExtension><gpxtpx:atemp>3.4</gpxtpx:atemp></gpxtpx:TrackPointExtension></extensions></trkpt><trkpt lat="42.1932289470" lon="13.4051048197"><ele>1809.90</ele><time>2026-03-11T14:53:33Z</time><extensions><gpxtpx:TrackPointExtension><gpxtpx:atemp>3.4</gpxtpx:atemp></gpxtpx:TrackPointExtension></extensions></trkpt><trkpt lat="42.1932297852" lon="13.4051043168"><ele>1809.92</ele><time>2026-03-11T14:53:34Z</time><extensions><gpxtpx:TrackPointExtension><gpxtpx:atemp>3.4</gpxtpx:atemp></gpxtpx:TrackPointExtension></extensions></trkpt><trkpt lat="42.1932299528" lon="13.4051036462"><ele>1809.94</ele><time>2026-03-11T14:53:35Z</time><extensions><gpxtpx:TrackPointExtension><gpxtpx:atemp>3.4</gpxtpx:atemp></gpxtpx:TrackPointExtension></extensions></trkpt><trkpt lat="42.1932308748" lon="13.4051033948"><ele>1809.94</ele><time>2026-03-11T14:53:36Z</time><extensions><gpxtpx:TrackPointExtension><gpxtpx:atemp>3.4</gpxtpx:atemp></gpxtpx:TrackPointExtension></extensions></trkpt><trkpt lat="42.1932317968" lon="13.4051025566"><ele>1809.96</ele><time>2026-03-11T14:53:37Z</time><extensions><gpxtpx:TrackPointExtension><gpxtpx:atemp>3.4</gpxtpx:atemp></gpxtpx:TrackPointExtension></extensions></trkpt><trkpt lat="42.1932317968" lon="13.4051015507"><ele>1809.98</ele><time>2026-03-11T14:53:38Z</time><extensions><gpxtpx:TrackPointExtension><gpxtpx:atemp>3.4</gpxtpx:atemp></gpxtpx:TrackPointExtension></extensions></trkpt><trkpt lat="42.1932322998" lon="13.4051008802"><ele>1809.98</ele><time>2026-03-11T14:53:39Z</time><extensions><gpxtpx:TrackPointExtension><gpxtpx:atemp>3.4</gpxtpx:atemp></gpxtpx:TrackPointExtension></extensions></trkpt><trkpt lat="42.1932324674" lon="13.4051007964"><ele>1809.96</ele><time>2026-03-11T14:53:40Z</time><extensions><gpxtpx:TrackPointExtension><gpxtpx:atemp>3.4</gpxtpx:atemp></gpxtpx:TrackPointExtension></extensions></trkpt><trkpt lat="42.1932329703" lon="13.4051000420"><ele>1809.96</ele><time>2026-03-11T14:53:41Z</time><extensions><gpxtpx:TrackPointExtension><gpxtpx:atemp>3.4</gpxtpx:atemp></gpxtpx:TrackPointExtension></extensions></trkpt><trkpt lat="42.1932326350" lon="13.4050998744"><ele>1809.93</ele><time>2026-03-11T14:53:42Z</time><extensions><gpxtpx:TrackPointExtension><gpxtpx:atemp>3.4</gpxtpx:atemp></gpxtpx:TrackPointExtension></extensions></trkpt><trkpt lat="42.1932329703" lon="13.4050996229"><ele>1809.93</ele><time>2026-03-11T14:53:43Z</time><extensions><gpxtpx:TrackPointExtension><gpxtpx:atemp>3.4</gpxtpx:atemp></gpxtpx:TrackPointExtension></extensions></trkpt><trkpt lat="42.1932333894" lon="13.4050993714"><ele>1809.93</ele><time>2026-03-11T14:53:44Z</time><extensions><gpxtpx:TrackPointExtension><gpxtpx:atemp>3.4</gpxtpx:atemp></gpxtpx:TrackPointExtension></extensions></trkpt><trkpt lat="42.1932332218" lon="13.4050989524"><ele>1809.92</ele><time>2026-03-11T14:53:45Z</time><extensions><gpxtpx:TrackPointExtension><gpxtpx:atemp>3.4</gpxtpx:atemp></gpxtpx:TrackPointExtension></extensions></trkpt><trkpt lat="42.1932336409" lon="13.4050989524"><ele>1809.92</ele><time>2026-03-11T14:53:46Z</time><extensions><gpxtpx:TrackPointExtension><gpxtpx:atemp>3.4</gpxtpx:atemp></gpxtpx:TrackPointExtension></extensions></trkpt><trkpt lat="42.1932340600" lon="13.4050985333"><ele>1809.91</ele><time>2026-03-11T14:53:47Z</time><extensions><gpxtpx:TrackPointExtension><gpxtpx:atemp>3.4</gpxtpx:atemp></gpxtpx:TrackPointExtension></extensions></trkpt><trkpt lat="42.1932346467" lon="13.4050981980"><ele>1809.92</ele><time>2026-03-11T14:53:48Z</time><extensions><gpxtpx:TrackPointExtension><gpxtpx:atemp>3.4</gpxtpx:atemp></gpxtpx:TrackPointExtension></extensions></trkpt><trkpt lat="42.1932350658" lon="13.4050977789"><ele>1809.94</ele><time>2026-03-11T14:53:49Z</time><extensions><gpxtpx:TrackPointExtension><gpxtpx:atemp>3.4</gpxtpx:atemp></gpxtpx:TrackPointExtension></extensions></trkpt><trkpt lat="42.1932352334" lon="13.4050976951"><ele>1809.95</ele><time>2026-03-11T14:53:50Z</time><extensions><gpxtpx:TrackPointExtension><gpxtpx:atemp>3.4</gpxtpx:atemp></gpxtpx:TrackPointExtension></extensions></trkpt><trkpt lat="42.1932355687" lon="13.4050975274"><ele>1809.96</ele><time>2026-03-11T14:53:51Z</time><extensions><gpxtpx:TrackPointExtension><gpxtpx:atemp>3.4</gpxtpx:atemp></gpxtpx:TrackPointExtension></extensions></trkpt><trkpt lat="42.1932361554" lon="13.4050974436"><ele>1809.93</ele><time>2026-03-11T14:53:52Z</time><extensions><gpxtpx:TrackPointExtension><gpxtpx:atemp>3.4</gpxtpx:atemp></gpxtpx:TrackPointExtension></extensions></trkpt><trkpt lat="42.1932362393" lon="13.4050976951"><ele>1809.93</ele><time>2026-03-11T14:53:53Z</time><extensions><gpxtpx:TrackPointExtension><gpxtpx:atemp>3.4</gpxtpx:atemp></gpxtpx:TrackPointExtension></extensions></trkpt><trkpt lat="42.1932366583" lon="13.4050971922"><ele>1809.93</ele><time>2026-03-11T14:53:54Z</time><extensions><gpxtpx:TrackPointExtension><gpxtpx:atemp>3.4</gpxtpx:atemp></gpxtpx:TrackPointExtension></extensions></trkpt><trkpt lat="42.1932362393" lon="13.4050971922"><ele>1809.90</ele><time>2026-03-11T14:53:55Z</time><extensions><gpxtpx:TrackPointExtension><gpxtpx:atemp>3.4</gpxtpx:atemp></gpxtpx:TrackPointExtension></extensions></trkpt><trkpt lat="42.1932364907" lon="13.4050973598"><ele>1809.88</ele><time>2026-03-11T14:53:56Z</time><extensions><gpxtpx:TrackPointExtension><gpxtpx:atemp>3.4</gpxtpx:atemp></gpxtpx:TrackPointExtension></extensions></trkpt><trkpt lat="42.1932366583" lon="13.4050979465"><ele>1809.88</ele><time>2026-03-11T14:53:57Z</time><extensions><gpxtpx:TrackPointExtension><gpxtpx:atemp>3.4</gpxtpx:atemp></gpxtpx:TrackPointExtension></extensions></trkpt><trkpt lat="42.1932357363" lon="13.4050977789"><ele>1809.90</ele><time>2026-03-11T14:53:58Z</time><extensions><gpxtpx:TrackPointExtension><gpxtpx:atemp>3.4</gpxtpx:atemp></gpxtpx:TrackPointExtension></extensions></trkpt><trkpt lat="42.1932360716" lon="13.4050974436"><ele>1809.95</ele><time>2026-03-11T14:53:59Z</time><extensions><gpxtpx:TrackPointExtension><gpxtpx:atemp>3.4</gpxtpx:atemp></gpxtpx:TrackPointExtension></extensions></trkpt><trkpt lat="42.1932358202" lon="13.4050979465"><ele>1810.00</ele><time>2026-03-11T14:54:00Z</time><extensions><gpxtpx:TrackPointExtension><gpxtpx:atemp>3.4</gpxtpx:atemp></gpxtpx:TrackPointExtension></extensions></trkpt><trkpt lat="42.1932362393" lon="13.4050979465"><ele>1810.02</ele><time>2026-03-11T14:54:01Z</time><extensions><gpxtpx:TrackPointExtension><gpxtpx:atemp>3.4</gpxtpx:atemp></gpxtpx:TrackPointExtension></extensions></trkpt><trkpt lat="42.1932359878" lon="13.4050983656"><ele>1810.03</ele><time>2026-03-11T14:54:02Z</time><extensions><gpxtpx:TrackPointExtension><gpxtpx:atemp>3.4</gpxtpx:atemp></gpxtpx:TrackPointExtension></extensions></trkpt><trkpt lat="42.1932359878" lon="13.4050986171"><ele>1810.02</ele><time>2026-03-11T14:54:03Z</time><extensions><gpxtpx:TrackPointExtension><gpxtpx:atemp>3.4</gpxtpx:atemp></gpxtpx:TrackPointExtension></extensions></trkpt><trkpt lat="42.1932361554" lon="13.4050985333"><ele>1810.02</ele><time>2026-03-11T14:54:04Z</time><extensions><gpxtpx:TrackPointExtension><gpxtpx:atemp>3.4</gpxtpx:atemp></gpxtpx:TrackPointExtension></extensions></trkpt><trkpt lat="42.1932362393" lon="13.4050985333"><ele>1810.01</ele><time>2026-03-11T14:54:05Z</time><extensions><gpxtpx:TrackPointExtension><gpxtpx:atemp>3.4</gpxtpx:atemp></gpxtpx:TrackPointExtension></extensions></trkpt><trkpt lat="42.1932362393" lon="13.4050986171"><ele>1809.98</ele><time>2026-03-11T14:54:06Z</time><extensions><gpxtpx:TrackPointExtension><gpxtpx:atemp>3.4</gpxtpx:atemp></gpxtpx:TrackPointExtension></extensions></trkpt><trkpt lat="42.1932358202" lon="13.4050989524"><ele>1809.97</ele><time>2026-03-11T14:54:07Z</time><extensions><gpxtpx:TrackPointExtension><gpxtpx:atemp>3.4</gpxtpx:atemp></gpxtpx:TrackPointExtension></extensions></trkpt><trkpt lat="42.1932358202" lon="13.4050990362"><ele>1809.96</ele><time>2026-03-11T14:54:08Z</time><extensions><gpxtpx:TrackPointExtension><gpxtpx:atemp>3.4</gpxtpx:atemp></gpxtpx:TrackPointExtension></extensions></trkpt><trkpt lat="42.1932357363" lon="13.4050990362"><ele>1809.98</ele><time>2026-03-11T14:54:09Z</time><extensions><gpxtpx:TrackPointExtension><gpxtpx:atemp>3.4</gpxtpx:atemp></gpxtpx:TrackPointExtension></extensions></trkpt><trkpt lat="42.1932353172" lon="13.4050988685"><ele>1809.99</ele><time>2026-03-11T14:54:10Z</time><extensions><gpxtpx:TrackPointExtension><gpxtpx:atemp>3.4</gpxtpx:atemp></gpxtpx:TrackPointExtension></extensions></trkpt><trkpt lat="42.1932350658" lon="13.4050990362"><ele>1809.99</ele><time>2026-03-11T14:54:11Z</time><extensions><gpxtpx:TrackPointExtension><gpxtpx:atemp>3.4</gpxtpx:atemp></gpxtpx:TrackPointExtension></extensions></trkpt><trkpt lat="42.1932350658" lon="13.4050992876"><ele>1810.01</ele><time>2026-03-11T14:54:12Z</time><extensions><gpxtpx:TrackPointExtension><gpxtpx:atemp>3.4</gpxtpx:atemp></gpxtpx:TrackPointExtension></extensions></trkpt><trkpt lat="42.1932352334" lon="13.4050991200"><ele>1810.01</ele><time>2026-03-11T14:54:13Z</time><extensions><gpxtpx:TrackPointExtension><gpxtpx:atemp>3.4</gpxtpx:atemp></gpxtpx:TrackPointExtension></extensions></trkpt><trkpt lat="42.1932348981" lon="13.4050990362"><ele>1810.01</ele><time>2026-03-11T14:54:14Z</time><extensions><gpxtpx:TrackPointExtension><gpxtpx:atemp>3.4</gpxtpx:atemp></gpxtpx:TrackPointExtension></extensions></trkpt><trkpt lat="42.1932349820" lon="13.4050986171"><ele>1809.99</ele><time>2026-03-11T14:54:15Z</time><extensions><gpxtpx:TrackPointExtension><gpxtpx:atemp>3.4</gpxtpx:atemp></gpxtpx:TrackPointExtension></extensions></trkpt><trkpt lat="42.1932348981" lon="13.4050983656"><ele>1809.98</ele><time>2026-03-11T14:54:16Z</time><extensions><gpxtpx:TrackPointExtension><gpxtpx:atemp>3.4</gpxtpx:atemp></gpxtpx:TrackPointExtension></extensions></trkpt><trkpt lat="42.1932344791" lon="13.4050986171"><ele>1809.96</ele><time>2026-03-11T14:54:17Z</time><extensions><gpxtpx:TrackPointExtension><gpxtpx:atemp>3.4</gpxtpx:atemp></gpxtpx:TrackPointExtension></extensions></trkpt><trkpt lat="42.1932338923" lon="13.4050986171"><ele>1809.96</ele><time>2026-03-11T14:54:18Z</time><extensions><gpxtpx:TrackPointExtension><gpxtpx:atemp>3.4</gpxtpx:atemp></gpxtpx:TrackPointExtension></extensions></trkpt><trkpt lat="42.1932340600" lon="13.4050987847"><ele>1809.96</ele><time>2026-03-11T14:54:19Z</time><extensions><gpxtpx:TrackPointExtension><gpxtpx:atemp>3.4</gpxtpx:atemp></gpxtpx:TrackPointExtension></extensions></trkpt><trkpt lat="42.1932340600" lon="13.4050990362"><ele>1809.96</ele><time>2026-03-11T14:54:20Z</time><extensions><gpxtpx:TrackPointExtension><gpxtpx:atemp>3.4</gpxtpx:atemp></gpxtpx:TrackPointExtension></extensions></trkpt><trkpt lat="42.1932338923" lon="13.4050991200"><ele>1809.96</ele><time>2026-03-11T14:54:21Z</time><extensions><gpxtpx:TrackPointExtension><gpxtpx:atemp>3.4</gpxtpx:atemp></gpxtpx:TrackPointExtension></extensions></trkpt><trkpt lat="42.1932343952" lon="13.4050990362"><ele>1809.96</ele><time>2026-03-11T14:54:22Z</time><extensions><gpxtpx:TrackPointExtension><gpxtpx:atemp>3.4</gpxtpx:atemp></gpxtpx:TrackPointExtension></extensions></trkpt><trkpt lat="42.1932343952" lon="13.4050991200"><ele>1809.96</ele><time>2026-03-11T14:54:23Z</time><extensions><gpxtpx:TrackPointExtension><gpxtpx:atemp>3.4</gpxtpx:atemp></gpxtpx:TrackPointExtension></extensions></trkpt><trkpt lat="42.1932343952" lon="13.4050995391"><ele>1809.93</ele><time>2026-03-11T14:54:24Z</time><extensions><gpxtpx:TrackPointExtension><gpxtpx:atemp>3.4</gpxtpx:atemp></gpxtpx:TrackPointExtension></extensions></trkpt><trkpt lat="42.1932348981" lon="13.4050991200"><ele>1809.91</ele><time>2026-03-11T14:54:25Z</time><extensions><gpxtpx:TrackPointExtension><gpxtpx:atemp>3.4</gpxtpx:atemp></gpxtpx:TrackPointExtension></extensions></trkpt><trkpt lat="42.1932350658" lon="13.4050984494"><ele>1809.88</ele><time>2026-03-11T14:54:26Z</time><extensions><gpxtpx:TrackPointExtension><gpxtpx:atemp>3.4</gpxtpx:atemp></gpxtpx:TrackPointExtension></extensions></trkpt><trkpt lat="42.1932351496" lon="13.4050987847"><ele>1809.87</ele><time>2026-03-11T14:54:27Z</time><extensions><gpxtpx:TrackPointExtension><gpxtpx:atemp>3.4</gpxtpx:atemp></gpxtpx:TrackPointExtension></extensions></trkpt><trkpt lat="42.1932351496" lon="13.4050986171"><ele>1809.89</ele><time>2026-03-11T14:54:28Z</time><extensions><gpxtpx:TrackPointExtension><gpxtpx:atemp>3.4</gpxtpx:atemp></gpxtpx:TrackPointExtension></extensions></trkpt><trkpt lat="42.1932350658" lon="13.4050987847"><ele>1809.93</ele><time>2026-03-11T14:54:29Z</time><extensions><gpxtpx:TrackPointExtension><gpxtpx:atemp>3.4</gpxtpx:atemp></gpxtpx:TrackPointExtension></extensions></trkpt><trkpt lat="42.1932349820" lon="13.4050989524"><ele>1809.94</ele><time>2026-03-11T14:54:30Z</time><extensions><gpxtpx:TrackPointExtension><gpxtpx:atemp>3.4</gpxtpx:atemp></gpxtpx:TrackPointExtension></extensions></trkpt><trkpt lat="42.1932347305" lon="13.4050990362"><ele>1810.06</ele><time>2026-03-11T14:54:31Z</time><extensions><gpxtpx:TrackPointExtension><gpxtpx:atemp>3.4</gpxtpx:atemp></gpxtpx:TrackPointExtension></extensions></trkpt><trkpt lat="42.1932346467" lon="13.4050993714"><ele>1810.12</ele><time>2026-03-11T14:54:32Z</time><extensions><gpxtpx:TrackPointExtension><gpxtpx:atemp>3.3</gpxtpx:atemp></gpxtpx:TrackPointExtension></extensions></trkpt><trkpt lat="42.1932345629" lon="13.4050994553"><ele>1810.12</ele><time>2026-03-11T14:54:33Z</time><extensions><gpxtpx:TrackPointExtension><gpxtpx:atemp>3.3</gpxtpx:atemp></gpxtpx:TrackPointExtension></extensions></trkpt><trkpt lat="42.1932341438" lon="13.4051000420"><ele>1810.07</ele><time>2026-03-11T14:54:34Z</time><extensions><gpxtpx:TrackPointExtension><gpxtpx:atemp>3.3</gpxtpx:atemp></gpxtpx:TrackPointExtension></extensions></trkpt><trkpt lat="42.1932340600" lon="13.4051005449"><ele>1810.05</ele><time>2026-03-11T14:54:35Z</time><extensions><gpxtpx:TrackPointExtension><gpxtpx:atemp>3.3</gpxtpx:atemp></gpxtpx:TrackPointExtension></extensions></trkpt><trkpt lat="42.1932342276" lon="13.4051014669"><ele>1810.07</ele><time>2026-03-11T14:54:36Z</time><extensions><gpxtpx:TrackPointExtension><gpxtpx:atemp>3.3</gpxtpx:atemp></gpxtpx:TrackPointExtension></extensions></trkpt><trkpt lat="42.1932345629" lon="13.4051012993"><ele>1810.14</ele><time>2026-03-11T14:54:37Z</time><extensions><gpxtpx:TrackPointExtension><gpxtpx:atemp>3.3</gpxtpx:atemp></gpxtpx:TrackPointExtension></extensions></trkpt><trkpt lat="42.1932345629" lon="13.4051011316"><ele>1810.14</ele><time>2026-03-11T14:54:38Z</time><extensions><gpxtpx:TrackPointExtension><gpxtpx:atemp>3.3</gpxtpx:atemp></gpxtpx:TrackPointExtension></extensions></trkpt><trkpt lat="42.1932347305" lon="13.4051012993"><ele>1810.14</ele><time>2026-03-11T14:54:39Z</time><extensions><gpxtpx:TrackPointExtension><gpxtpx:atemp>3.3</gpxtpx:atemp></gpxtpx:TrackPointExtension></extensions></trkpt><trkpt lat="42.1932347305" lon="13.4051012993"><ele>1810.14</ele><time>2026-03-11T14:54:40Z</time><extensions><gpxtpx:TrackPointExtension><gpxtpx:atemp>3.3</gpxtpx:atemp></gpxtpx:TrackPointExtension></extensions></trkpt><trkpt lat="42.1932348981" lon="13.4051014669"><ele>1810.14</ele><time>2026-03-11T14:54:41Z</time><extensions><gpxtpx:TrackPointExtension><gpxtpx:atemp>3.3</gpxtpx:atemp></gpxtpx:TrackPointExtension></extensions></trkpt><trkpt lat="42.1932346467" lon="13.4051016346"><ele>1810.09</ele><time>2026-03-11T14:54:42Z</time><extensions><gpxtpx:TrackPointExtension><gpxtpx:atemp>3.3</gpxtpx:atemp></gpxtpx:TrackPointExtension></extensions></trkpt><trkpt lat="42.1932349820" lon="13.4051017184"><ele>1810.00</ele><time>2026-03-11T14:54:43Z</time><extensions><gpxtpx:TrackPointExtension><gpxtpx:atemp>3.3</gpxtpx:atemp></gpxtpx:TrackPointExtension></extensions></trkpt><trkpt lat="42.1932349820" lon="13.4051023889"><ele>1809.87</ele><time>2026-03-11T14:54:44Z</time><extensions><gpxtpx:TrackPointExtension><gpxtpx:atemp>3.3</gpxtpx:atemp></gpxtpx:TrackPointExtension></extensions></trkpt><trkpt lat="42.1932349820" lon="13.4051028918"><ele>1809.78</ele><time>2026-03-11T14:54:45Z</time><extensions><gpxtpx:TrackPointExtension><gpxtpx:atemp>3.3</gpxtpx:atemp></gpxtpx:TrackPointExtension></extensions></trkpt><trkpt lat="42.1932347305" lon="13.4051022213"><ele>1809.69</ele><time>2026-03-11T14:54:46Z</time><extensions><gpxtpx:TrackPointExtension><gpxtpx:atemp>3.3</gpxtpx:atemp></gpxtpx:TrackPointExtension></extensions></trkpt><trkpt lat="42.1932346467" lon="13.4051004611"><ele>1809.65</ele><time>2026-03-11T14:54:47Z</time><extensions><gpxtpx:TrackPointExtension><gpxtpx:atemp>3.3</gpxtpx:atemp></gpxtpx:TrackPointExtension></extensions></trkpt><trkpt lat="42.1932336409" lon="13.4051012993"><ele>1809.64</ele><time>2026-03-11T14:54:48Z</time><extensions><gpxtpx:TrackPointExtension><gpxtpx:atemp>3.3</gpxtpx:atemp></gpxtpx:TrackPointExtension></extensions></trkpt><trkpt lat="42.1932340600" lon="13.4051003773"><ele>1809.65</ele><time>2026-03-11T14:54:49Z</time><extensions><gpxtpx:TrackPointExtension><gpxtpx:atemp>3.3</gpxtpx:atemp></gpxtpx:TrackPointExtension></extensions></trkpt><trkpt lat="42.1932347305" lon="13.4050981980"><ele>1809.66</ele><time>2026-03-11T14:54:50Z</time><extensions><gpxtpx:TrackPointExtension><gpxtpx:atemp>3.3</gpxtpx:atemp></gpxtpx:TrackPointExtension></extensions></trkpt><trkpt lat="42.1932335570" lon="13.4050979465"><ele>1809.67</ele><time>2026-03-11T14:54:51Z</time><extensions><gpxtpx:TrackPointExtension><gpxtpx:atemp>3.3</gpxtpx:atemp></gpxtpx:TrackPointExtension></extensions></trkpt><trkpt lat="42.1932332218" lon="13.4050973598"><ele>1809.66</ele><time>2026-03-11T14:54:52Z</time><extensions><gpxtpx:TrackPointExtension><gpxtpx:atemp>3.3</gpxtpx:atemp></gpxtpx:TrackPointExtension></extensions></trkpt><trkpt lat="42.1932330541" lon="13.4050981980"><ele>1809.68</ele><time>2026-03-11T14:54:53Z</time><extensions><gpxtpx:TrackPointExtension><gpxtpx:atemp>3.3</gpxtpx:atemp></gpxtpx:TrackPointExtension></extensions></trkpt><trkpt lat="42.1932335570" lon="13.4050988685"><ele>1809.79</ele><time>2026-03-11T14:54:54Z</time><extensions><gpxtpx:TrackPointExtension><gpxtpx:atemp>3.3</gpxtpx:atemp></gpxtpx:TrackPointExtension></extensions></trkpt><trkpt lat="42.1932335570" lon="13.4050990362"><ele>1809.98</ele><time>2026-03-11T14:54:55Z</time><extensions><gpxtpx:TrackPointExtension><gpxtpx:atemp>3.3</gpxtpx:atemp></gpxtpx:TrackPointExtension></extensions></trkpt><trkpt lat="42.1932329703" lon="13.4051000420"><ele>1810.11</ele><time>2026-03-11T14:54:56Z</time><extensions><gpxtpx:TrackPointExtension><gpxtpx:atemp>3.3</gpxtpx:atemp></gpxtpx:TrackPointExtension></extensions></trkpt><trkpt lat="42.1932332218" lon="13.4050993714"><ele>1810.18</ele><time>2026-03-11T14:54:57Z</time><extensions><gpxtpx:TrackPointExtension><gpxtpx:atemp>3.3</gpxtpx:atemp></gpxtpx:TrackPointExtension></extensions></trkpt><trkpt lat="42.1932326350" lon="13.4050994553"><ele>1810.22</ele><time>2026-03-11T14:54:58Z</time><extensions><gpxtpx:TrackPointExtension><gpxtpx:atemp>3.3</gpxtpx:atemp></gpxtpx:TrackPointExtension></extensions></trkpt><trkpt lat="42.1932322998" lon="13.4050994553"><ele>1810.19</ele><time>2026-03-11T14:54:59Z</time><extensions><gpxtpx:TrackPointExtension><gpxtpx:atemp>3.3</gpxtpx:atemp></gpxtpx:TrackPointExtension></extensions></trkpt><trkpt lat="42.1932318807" lon="13.4050993714"><ele>1810.12</ele><time>2026-03-11T14:55:00Z</time><extensions><gpxtpx:TrackPointExtension><gpxtpx:atemp>3.3</gpxtpx:atemp></gpxtpx:TrackPointExtension></extensions></trkpt><trkpt lat="42.1932309587" lon="13.4050998744"><ele>1810.07</ele><time>2026-03-11T14:55:01Z</time><extensions><gpxtpx:TrackPointExtension><gpxtpx:atemp>3.3</gpxtpx:atemp></gpxtpx:TrackPointExtension></extensions></trkpt><trkpt lat="42.1932309587" lon="13.4051003773"><ele>1810.05</ele><time>2026-03-11T14:55:02Z</time><extensions><gpxtpx:TrackPointExtension><gpxtpx:atemp>3.3</gpxtpx:atemp></gpxtpx:TrackPointExtension></extensions></trkpt><trkpt lat="42.1932308748" lon="13.4051000420"><ele>1810.03</ele><time>2026-03-11T14:55:03Z</time><extensions><gpxtpx:TrackPointExtension><gpxtpx:atemp>3.3</gpxtpx:atemp></gpxtpx:TrackPointExtension></extensions></trkpt><trkpt lat="42.1932306234" lon="13.4051002935"><ele>1810.03</ele><time>2026-03-11T14:55:04Z</time><extensions><gpxtpx:TrackPointExtension><gpxtpx:atemp>3.3</gpxtpx:atemp></gpxtpx:TrackPointExtension></extensions></trkpt><trkpt lat="42.1932306234" lon="13.4051006287"><ele>1810.01</ele><time>2026-03-11T14:55:05Z</time><extensions><gpxtpx:TrackPointExtension><gpxtpx:atemp>3.3</gpxtpx:atemp></gpxtpx:TrackPointExtension></extensions></trkpt><trkpt lat="42.1932307910" lon="13.4051007964"><ele>1810.03</ele><time>2026-03-11T14:55:06Z</time><extensions><gpxtpx:TrackPointExtension><gpxtpx:atemp>3.3</gpxtpx:atemp></gpxtpx:TrackPointExtension></extensions></trkpt><trkpt lat="42.1932311263" lon="13.4051006287"><ele>1810.04</ele><time>2026-03-11T14:55:07Z</time><extensions><gpxtpx:TrackPointExtension><gpxtpx:atemp>3.3</gpxtpx:atemp></gpxtpx:TrackPointExtension></extensions></trkpt><trkpt lat="42.1932310425" lon="13.4051002935"><ele>1810.06</ele><time>2026-03-11T14:55:08Z</time><extensions><gpxtpx:TrackPointExtension><gpxtpx:atemp>3.3</gpxtpx:atemp></gpxtpx:TrackPointExtension></extensions></trkpt><trkpt lat="42.1932308748" lon="13.4051000420"><ele>1810.07</ele><time>2026-03-11T14:55:09Z</time><extensions><gpxtpx:TrackPointExtension><gpxtpx:atemp>3.3</gpxtpx:atemp></gpxtpx:TrackPointExtension></extensions></trkpt><trkpt lat="42.1932305396" lon="13.4051001258"><ele>1810.06</ele><time>2026-03-11T14:55:10Z</time><extensions><gpxtpx:TrackPointExtension><gpxtpx:atemp>3.3</gpxtpx:atemp></gpxtpx:TrackPointExtension></extensions></trkpt><trkpt lat="42.1932301205" lon="13.4050999582"><ele>1810.07</ele><time>2026-03-11T14:55:11Z</time><extensions><gpxtpx:TrackPointExtension><gpxtpx:atemp>3.3</gpxtpx:atemp></gpxtpx:TrackPointExtension></extensions></trkpt><trkpt lat="42.1932300366" lon="13.4050998744"><ele>1810.06</ele><time>2026-03-11T14:55:12Z</time><extensions><gpxtpx:TrackPointExtension><gpxtpx:atemp>3.3</gpxtpx:atemp></gpxtpx:TrackPointExtension></extensions></trkpt><trkpt lat="42.1932300366" lon="13.4051002935"><ele>1810.05</ele><time>2026-03-11T14:55:13Z</time><extensions><gpxtpx:TrackPointExtension><gpxtpx:atemp>3.3</gpxtpx:atemp></gpxtpx:TrackPointExtension></extensions></trkpt><trkpt lat="42.1932304557" lon="13.4051000420"><ele>1810.05</ele><time>2026-03-11T14:55:14Z</time><extensions><gpxtpx:TrackPointExtension><gpxtpx:atemp>3.3</gpxtpx:atemp></gpxtpx:TrackPointExtension></extensions></trkpt><trkpt lat="42.1932304557" lon="13.4050999582"><ele>1810.05</ele><time>2026-03-11T14:55:15Z</time><extensions><gpxtpx:TrackPointExtension><gpxtpx:atemp>3.3</gpxtpx:atemp></gpxtpx:TrackPointExtension></extensions></trkpt><trkpt lat="42.1932303719" lon="13.4050998744"><ele>1810.04</ele><time>2026-03-11T14:55:16Z</time><extensions><gpxtpx:TrackPointExtension><gpxtpx:atemp>3.3</gpxtpx:atemp></gpxtpx:TrackPointExtension></extensions></trkpt><trkpt lat="42.1932306234" lon="13.4051001258"><ele>1810.00</ele><time>2026-03-11T14:55:17Z</time><extensions><gpxtpx:TrackPointExtension><gpxtpx:atemp>3.3</gpxtpx:atemp></gpxtpx:TrackPointExtension></extensions></trkpt><trkpt lat="42.1932307910" lon="13.4051000420"><ele>1809.99</ele><time>2026-03-11T14:55:18Z</time><extensions><gpxtpx:TrackPointExtension><gpxtpx:atemp>3.3</gpxtpx:atemp></gpxtpx:TrackPointExtension></extensions></trkpt><trkpt lat="42.1932314616" lon="13.4050998744"><ele>1809.99</ele><time>2026-03-11T14:55:19Z</time><extensions><gpxtpx:TrackPointExtension><gpxtpx:atemp>3.3</gpxtpx:atemp></gpxtpx:TrackPointExtension></extensions></trkpt><trkpt lat="42.1932317968" lon="13.4050994553"><ele>1809.94</ele><time>2026-03-11T14:55:20Z</time><extensions><gpxtpx:TrackPointExtension><gpxtpx:atemp>3.3</gpxtpx:atemp></gpxtpx:TrackPointExtension></extensions></trkpt><trkpt lat="42.1932307910" lon="13.4050992876"><ele>1809.95</ele><time>2026-03-11T14:55:21Z</time><extensions><gpxtpx:TrackPointExtension><gpxtpx:atemp>3.3</gpxtpx:atemp></gpxtpx:TrackPointExtension></extensions></trkpt><trkpt lat="42.1932302881" lon="13.4050993714"><ele>1809.93</ele><time>2026-03-11T14:55:22Z</time><extensions><gpxtpx:TrackPointExtension><gpxtpx:atemp>3.3</gpxtpx:atemp></gpxtpx:TrackPointExtension></extensions></trkpt><trkpt lat="42.1932301205" lon="13.4050995391"><ele>1809.94</ele><time>2026-03-11T14:55:23Z</time><extensions><gpxtpx:TrackPointExtension><gpxtpx:atemp>3.3</gpxtpx:atemp></gpxtpx:TrackPointExtension></extensions></trkpt><trkpt lat="42.1932302881" lon="13.4050992876"><ele>1809.97</ele><time>2026-03-11T14:55:24Z</time><extensions><gpxtpx:TrackPointExtension><gpxtpx:atemp>3.3</gpxtpx:atemp></gpxtpx:TrackPointExtension></extensions></trkpt><trkpt lat="42.1932298690" lon="13.4050993714"><ele>1810.00</ele><time>2026-03-11T14:55:25Z</time><extensions><gpxtpx:TrackPointExtension><gpxtpx:atemp>3.3</gpxtpx:atemp></gpxtpx:TrackPointExtension></extensions></trkpt><trkpt lat="42.1932293661" lon="13.4050996229"><ele>1810.00</ele><time>2026-03-11T14:55:26Z</time><extensions><gpxtpx:TrackPointExtension><gpxtpx:atemp>3.3</gpxtpx:atemp></gpxtpx:TrackPointExtension></extensions></trkpt><trkpt lat="42.1932292823" lon="13.4050996229"><ele>1810.00</ele><time>2026-03-11T14:55:27Z</time><extensions><gpxtpx:TrackPointExtension><gpxtpx:atemp>3.3</gpxtpx:atemp></gpxtpx:TrackPointExtension></extensions></trkpt><trkpt lat="42.1932290308" lon="13.4050997905"><ele>1810.00</ele><time>2026-03-11T14:55:28Z</time><extensions><gpxtpx:TrackPointExtension><gpxtpx:atemp>3.3</gpxtpx:atemp></gpxtpx:TrackPointExtension></extensions></trkpt><trkpt lat="42.1932286955" lon="13.4050997905"><ele>1810.02</ele><time>2026-03-11T14:55:29Z</time><extensions><gpxtpx:TrackPointExtension><gpxtpx:atemp>3.3</gpxtpx:atemp></gpxtpx:TrackPointExtension></extensions></trkpt><trkpt lat="42.1932287794" lon="13.4050999582"><ele>1810.02</ele><time>2026-03-11T14:55:30Z</time><extensions><gpxtpx:TrackPointExtension><gpxtpx:atemp>3.3</gpxtpx:atemp></gpxtpx:TrackPointExtension></extensions></trkpt><trkpt lat="42.1932289470" lon="13.4051003773"><ele>1810.02</ele><time>2026-03-11T14:55:31Z</time><extensions><gpxtpx:TrackPointExtension><gpxtpx:atemp>3.3</gpxtpx:atemp></gpxtpx:TrackPointExtension></extensions></trkpt><trkpt lat="42.1932289470" lon="13.4051003773"><ele>1810.02</ele><time>2026-03-11T14:55:32Z</time><extensions><gpxtpx:TrackPointExtension><gpxtpx:atemp>3.3</gpxtpx:atemp></gpxtpx:TrackPointExtension></extensions></trkpt><trkpt lat="42.1932290308" lon="13.4051002935"><ele>1810.03</ele><time>2026-03-11T14:55:33Z</time><extensions><gpxtpx:TrackPointExtension><gpxtpx:atemp>3.3</gpxtpx:atemp></gpxtpx:TrackPointExtension></extensions></trkpt><trkpt lat="42.1932291985" lon="13.4051002935"><ele>1810.06</ele><time>2026-03-11T14:55:34Z</time><extensions><gpxtpx:TrackPointExtension><gpxtpx:atemp>3.3</gpxtpx:atemp></gpxtpx:TrackPointExtension></extensions></trkpt><trkpt lat="42.1932290308" lon="13.4051003773"><ele>1810.06</ele><time>2026-03-11T14:55:35Z</time><extensions><gpxtpx:TrackPointExtension><gpxtpx:atemp>3.3</gpxtpx:atemp></gpxtpx:TrackPointExtension></extensions></trkpt><trkpt lat="42.1932286955" lon="13.4051003773"><ele>1810.06</ele><time>2026-03-11T14:55:36Z</time><extensions><gpxtpx:TrackPointExtension><gpxtpx:atemp>3.3</gpxtpx:atemp></gpxtpx:TrackPointExtension></extensions></trkpt><trkpt lat="42.1932283603" lon="13.4051001258"><ele>1810.06</ele><time>2026-03-11T14:55:37Z</time><extensions><gpxtpx:TrackPointExtension><gpxtpx:atemp>3.3</gpxtpx:atemp></gpxtpx:TrackPointExtension></extensions></trkpt><trkpt lat="42.1932283603" lon="13.4051000420"><ele>1810.07</ele><time>2026-03-11T14:55:38Z</time><extensions><gpxtpx:TrackPointExtension><gpxtpx:atemp>3.3</gpxtpx:atemp></gpxtpx:TrackPointExtension></extensions></trkpt><trkpt lat="42.1932283603" lon="13.4050999582"><ele>1810.07</ele><time>2026-03-11T14:55:39Z</time><extensions><gpxtpx:TrackPointExtension><gpxtpx:atemp>3.3</gpxtpx:atemp></gpxtpx:TrackPointExtension></extensions></trkpt><trkpt lat="42.1932279412" lon="13.4051003773"><ele>1810.08</ele><time>2026-03-11T14:55:40Z</time><extensions><gpxtpx:TrackPointExtension><gpxtpx:atemp>3.3</gpxtpx:atemp></gpxtpx:TrackPointExtension></extensions></trkpt><trkpt lat="42.1932278574" lon="13.4051005449"><ele>1810.09</ele><time>2026-03-11T14:55:41Z</time><extensions><gpxtpx:TrackPointExtension><gpxtpx:atemp>3.3</gpxtpx:atemp></gpxtpx:TrackPointExtension></extensions></trkpt><trkpt lat="42.1932279412" lon="13.4051008802"><ele>1810.09</ele><time>2026-03-11T14:55:42Z</time><extensions><gpxtpx:TrackPointExtension><gpxtpx:atemp>3.3</gpxtpx:atemp></gpxtpx:TrackPointExtension></extensions></trkpt><trkpt lat="42.1932281926" lon="13.4051006287"><ele>1810.10</ele><time>2026-03-11T14:55:43Z</time><extensions><gpxtpx:TrackPointExtension><gpxtpx:atemp>3.3</gpxtpx:atemp></gpxtpx:TrackPointExtension></extensions></trkpt><trkpt lat="42.1932281926" lon="13.4051004611"><ele>1810.10</ele><time>2026-03-11T14:55:44Z</time><extensions><gpxtpx:TrackPointExtension><gpxtpx:atemp>3.3</gpxtpx:atemp></gpxtpx:TrackPointExtension></extensions></trkpt><trkpt lat="42.1932279412" lon="13.4051004611"><ele>1810.10</ele><time>2026-03-11T14:55:45Z</time><extensions><gpxtpx:TrackPointExtension><gpxtpx:atemp>3.3</gpxtpx:atemp></gpxtpx:TrackPointExtension></extensions></trkpt><trkpt lat="42.1932280250" lon="13.4051007964"><ele>1810.10</ele><time>2026-03-11T14:55:46Z</time><extensions><gpxtpx:TrackPointExtension><gpxtpx:atemp>3.3</gpxtpx:atemp></gpxtpx:TrackPointExtension></extensions></trkpt><trkpt lat="42.1932281926" lon="13.4051008802"><ele>1810.12</ele><time>2026-03-11T14:55:47Z</time><extensions><gpxtpx:TrackPointExtension><gpxtpx:atemp>3.3</gpxtpx:atemp></gpxtpx:TrackPointExtension></extensions></trkpt><trkpt lat="42.1932277735" lon="13.4051011316"><ele>1810.13</ele><time>2026-03-11T14:55:48Z</time><extensions><gpxtpx:TrackPointExtension><gpxtpx:atemp>3.3</gpxtpx:atemp></gpxtpx:TrackPointExtension></extensions></trkpt><trkpt lat="42.1932274383" lon="13.4051013831"><ele>1810.14</ele><time>2026-03-11T14:55:49Z</time><extensions><gpxtpx:TrackPointExtension><gpxtpx:atemp>3.3</gpxtpx:atemp></gpxtpx:TrackPointExtension></extensions></trkpt><trkpt lat="42.1932273544" lon="13.4051011316"><ele>1810.14</ele><time>2026-03-11T14:55:50Z</time><extensions><gpxtpx:TrackPointExtension><gpxtpx:atemp>3.3</gpxtpx:atemp></gpxtpx:TrackPointExtension></extensions></trkpt><trkpt lat="42.1932276897" lon="13.4051012993"><ele>1810.15</ele><time>2026-03-11T14:55:51Z</time><extensions><gpxtpx:TrackPointExtension><gpxtpx:atemp>3.3</gpxtpx:atemp></gpxtpx:TrackPointExtension></extensions></trkpt><trkpt lat="42.1932275221" lon="13.4051013831"><ele>1810.15</ele><time>2026-03-11T14:55:52Z</time><extensions><gpxtpx:TrackPointExtension><gpxtpx:atemp>3.3</gpxtpx:atemp></gpxtpx:TrackPointExtension></extensions></trkpt><trkpt lat="42.1932275221" lon="13.4051013831"><ele>1810.14</ele><time>2026-03-11T14:55:53Z</time><extensions><gpxtpx:TrackPointExtension><gpxtpx:atemp>3.3</gpxtpx:atemp></gpxtpx:TrackPointExtension></extensions></trkpt><trkpt lat="42.1932274383" lon="13.4051013831"><ele>1810.11</ele><time>2026-03-11T14:55:54Z</time><extensions><gpxtpx:TrackPointExtension><gpxtpx:atemp>3.3</gpxtpx:atemp></gpxtpx:TrackPointExtension></extensions></trkpt><trkpt lat="42.1932273544" lon="13.4051011316"><ele>1810.10</ele><time>2026-03-11T14:55:55Z</time><extensions><gpxtpx:TrackPointExtension><gpxtpx:atemp>3.3</gpxtpx:atemp></gpxtpx:TrackPointExtension></extensions></trkpt><trkpt lat="42.1932273544" lon="13.4051010478"><ele>1810.11</ele><time>2026-03-11T14:55:56Z</time><extensions><gpxtpx:TrackPointExtension><gpxtpx:atemp>3.3</gpxtpx:atemp></gpxtpx:TrackPointExtension></extensions></trkpt><trkpt lat="42.1932274383" lon="13.4051012993"><ele>1810.14</ele><time>2026-03-11T14:55:57Z</time><extensions><gpxtpx:TrackPointExtension><gpxtpx:atemp>3.3</gpxtpx:atemp></gpxtpx:TrackPointExtension></extensions></trkpt><trkpt lat="42.1932275221" lon="13.4051014669"><ele>1810.14</ele><time>2026-03-11T14:55:58Z</time><extensions><gpxtpx:TrackPointExtension><gpxtpx:atemp>3.3</gpxtpx:atemp></gpxtpx:TrackPointExtension></extensions></trkpt><trkpt lat="42.1932274383" lon="13.4051012993"><ele>1810.14</ele><time>2026-03-11T14:55:59Z</time><extensions><gpxtpx:TrackPointExtension><gpxtpx:atemp>3.3</gpxtpx:atemp></gpxtpx:TrackPointExtension></extensions></trkpt><trkpt lat="42.1932277735" lon="13.4051011316"><ele>1810.14</ele><time>2026-03-11T14:56:00Z</time><extensions><gpxtpx:TrackPointExtension><gpxtpx:atemp>3.3</gpxtpx:atemp></gpxtpx:TrackPointExtension></extensions></trkpt><trkpt lat="42.1932278574" lon="13.4051012993"><ele>1810.14</ele><time>2026-03-11T14:56:01Z</time><extensions><gpxtpx:TrackPointExtension><gpxtpx:atemp>3.3</gpxtpx:atemp></gpxtpx:TrackPointExtension></extensions></trkpt><trkpt lat="42.1932279412" lon="13.4051012993"><ele>1810.13</ele><time>2026-03-11T14:56:02Z</time><extensions><gpxtpx:TrackPointExtension><gpxtpx:atemp>3.3</gpxtpx:atemp></gpxtpx:TrackPointExtension></extensions></trkpt><trkpt lat="42.1932281926" lon="13.4051013831"><ele>1810.08</ele><time>2026-03-11T14:56:03Z</time><extensions><gpxtpx:TrackPointExtension><gpxtpx:atemp>3.3</gpxtpx:atemp></gpxtpx:TrackPointExtension></extensions></trkpt><trkpt lat="42.1932283603" lon="13.4051011316"><ele>1810.08</ele><time>2026-03-11T14:56:04Z</time><extensions><gpxtpx:TrackPointExtension><gpxtpx:atemp>3.3</gpxtpx:atemp></gpxtpx:TrackPointExtension></extensions></trkpt><trkpt lat="42.1932286955" lon="13.4051011316"><ele>1810.08</ele><time>2026-03-11T14:56:05Z</time><extensions><gpxtpx:TrackPointExtension><gpxtpx:atemp>3.3</gpxtpx:atemp></gpxtpx:TrackPointExtension></extensions></trkpt><trkpt lat="42.1932284441" lon="13.4051012993"><ele>1810.10</ele><time>2026-03-11T14:56:06Z</time><extensions><gpxtpx:TrackPointExtension><gpxtpx:atemp>3.3</gpxtpx:atemp></gpxtpx:TrackPointExtension></extensions></trkpt><trkpt lat="42.1932285279" lon="13.4051016346"><ele>1810.12</ele><time>2026-03-11T14:56:07Z</time><extensions><gpxtpx:TrackPointExtension><gpxtpx:atemp>3.3</gpxtpx:atemp></gpxtpx:TrackPointExtension></extensions></trkpt><trkpt lat="42.1932272706" lon="13.4051035624"><ele>1810.14</ele><time>2026-03-11T14:56:08Z</time><extensions><gpxtpx:TrackPointExtension><gpxtpx:atemp>3.3</gpxtpx:atemp></gpxtpx:TrackPointExtension></extensions></trkpt><trkpt lat="42.1932290308" lon="13.4051015507"><ele>1810.15</ele><time>2026-03-11T14:56:09Z</time><extensions><gpxtpx:TrackPointExtension><gpxtpx:atemp>3.3</gpxtpx:atemp></gpxtpx:TrackPointExtension></extensions></trkpt><trkpt lat="42.1932293661" lon="13.4051009640"><ele>1810.17</ele><time>2026-03-11T14:56:10Z</time><extensions><gpxtpx:TrackPointExtension><gpxtpx:atemp>3.3</gpxtpx:atemp></gpxtpx:TrackPointExtension></extensions></trkpt><trkpt lat="42.1932287794" lon="13.4051010478"><ele>1810.20</ele><time>2026-03-11T14:56:11Z</time><extensions><gpxtpx:TrackPointExtension><gpxtpx:atemp>3.3</gpxtpx:atemp></gpxtpx:TrackPointExtension></extensions></trkpt><trkpt lat="42.1932284441" lon="13.4051021375"><ele>1810.21</ele><time>2026-03-11T14:56:12Z</time><extensions><gpxtpx:TrackPointExtension><gpxtpx:atemp>3.3</gpxtpx:atemp></gpxtpx:TrackPointExtension></extensions></trkpt><trkpt lat="42.1932280250" lon="13.4051026404"><ele>1810.21</ele><time>2026-03-11T14:56:13Z</time><extensions><gpxtpx:TrackPointExtension><gpxtpx:atemp>3.3</gpxtpx:atemp></gpxtpx:TrackPointExtension></extensions></trkpt><trkpt lat="42.1932283603" lon="13.4051024728"><ele>1810.21</ele><time>2026-03-11T14:56:14Z</time><extensions><gpxtpx:TrackPointExtension><gpxtpx:atemp>3.3</gpxtpx:atemp></gpxtpx:TrackPointExtension></extensions></trkpt><trkpt lat="42.1932285279" lon="13.4051023889"><ele>1810.21</ele><time>2026-03-11T14:56:15Z</time><extensions><gpxtpx:TrackPointExtension><gpxtpx:atemp>3.3</gpxtpx:atemp></gpxtpx:TrackPointExtension></extensions></trkpt><trkpt lat="42.1932288632" lon="13.4051018860"><ele>1810.19</ele><time>2026-03-11T14:56:16Z</time><extensions><gpxtpx:TrackPointExtension><gpxtpx:atemp>3.3</gpxtpx:atemp></gpxtpx:TrackPointExtension></extensions></trkpt><trkpt lat="42.1932290308" lon="13.4051024728"><ele>1810.12</ele><time>2026-03-11T14:56:17Z</time><extensions><gpxtpx:TrackPointExtension><gpxtpx:atemp>3.3</gpxtpx:atemp></gpxtpx:TrackPointExtension></extensions></trkpt><trkpt lat="42.1932290308" lon="13.4051024728"><ele>1810.04</ele><time>2026-03-11T14:56:18Z</time><extensions><gpxtpx:TrackPointExtension><gpxtpx:atemp>3.3</gpxtpx:atemp></gpxtpx:TrackPointExtension></extensions></trkpt><trkpt lat="42.1932292823" lon="13.4051023889"><ele>1809.82</ele><time>2026-03-11T14:56:19Z</time><extensions><gpxtpx:TrackPointExtension><gpxtpx:atemp>3.3</gpxtpx:atemp></gpxtpx:TrackPointExtension></extensions></trkpt><trkpt lat="42.1932294499" lon="13.4051022213"><ele>1809.37</ele><time>2026-03-11T14:56:20Z</time><extensions><gpxtpx:TrackPointExtension><gpxtpx:atemp>3.3</gpxtpx:atemp></gpxtpx:TrackPointExtension></extensions></trkpt><trkpt lat="42.1932295337" lon="13.4051022213"><ele>1808.99</ele><time>2026-03-11T14:56:21Z</time><extensions><gpxtpx:TrackPointExtension><gpxtpx:atemp>3.3</gpxtpx:atemp></gpxtpx:TrackPointExtension></extensions></trkpt><trkpt lat="42.1932294499" lon="13.4051021375"><ele>1808.79</ele><time>2026-03-11T14:56:22Z</time><extensions><gpxtpx:TrackPointExtension><gpxtpx:atemp>3.3</gpxtpx:atemp></gpxtpx:TrackPointExtension></extensions></trkpt><trkpt lat="42.1932293661" lon="13.4051020537"><ele>1808.68</ele><time>2026-03-11T14:56:23Z</time><extensions><gpxtpx:TrackPointExtension><gpxtpx:atemp>3.3</gpxtpx:atemp></gpxtpx:TrackPointExtension></extensions></trkpt><trkpt lat="42.1932292823" lon="13.4051020537"><ele>1808.68</ele><time>2026-03-11T14:56:24Z</time><extensions><gpxtpx:TrackPointExtension><gpxtpx:atemp>3.3</gpxtpx:atemp></gpxtpx:TrackPointExtension></extensions></trkpt><trkpt lat="42.1932292823" lon="13.4051021375"><ele>1808.79</ele><time>2026-03-11T14:56:25Z</time><extensions><gpxtpx:TrackPointExtension><gpxtpx:atemp>3.3</gpxtpx:atemp></gpxtpx:TrackPointExtension></extensions></trkpt><trkpt lat="42.1932288632" lon="13.4051023889"><ele>1810.21</ele><time>2026-03-11T14:56:26Z</time><extensions><gpxtpx:TrackPointExtension><gpxtpx:atemp>3.3</gpxtpx:atemp></gpxtpx:TrackPointExtension></extensions></trkpt><trkpt lat="42.1932288632" lon="13.4051026404"><ele>1811.01</ele><time>2026-03-11T14:56:27Z</time><extensions><gpxtpx:TrackPointExtension><gpxtpx:atemp>3.3</gpxtpx:atemp></gpxtpx:TrackPointExtension></extensions></trkpt><trkpt lat="42.1932289470" lon="13.4051028918"><ele>1811.42</ele><time>2026-03-11T14:56:28Z</time><extensions><gpxtpx:TrackPointExtension><gpxtpx:atemp>3.3</gpxtpx:atemp></gpxtpx:TrackPointExtension></extensions></trkpt><trkpt lat="42.1932287794" lon="13.4051028918"><ele>1811.63</ele><time>2026-03-11T14:56:29Z</time><extensions><gpxtpx:TrackPointExtension><gpxtpx:atemp>3.3</gpxtpx:atemp></gpxtpx:TrackPointExtension></extensions></trkpt><trkpt lat="42.1932286955" lon="13.4051027242"><ele>1811.66</ele><time>2026-03-11T14:56:30Z</time><extensions><gpxtpx:TrackPointExtension><gpxtpx:atemp>3.3</gpxtpx:atemp></gpxtpx:TrackPointExtension></extensions></trkpt><trkpt lat="42.1932287794" lon="13.4051029757"><ele>1811.59</ele><time>2026-03-11T14:56:31Z</time><extensions><gpxtpx:TrackPointExtension><gpxtpx:atemp>3.3</gpxtpx:atemp></gpxtpx:TrackPointExtension></extensions></trkpt><trkpt lat="42.1932286955" lon="13.4051033948"><ele>1811.47</ele><time>2026-03-11T14:56:32Z</time><extensions><gpxtpx:TrackPointExtension><gpxtpx:atemp>3.1</gpxtpx:atemp></gpxtpx:TrackPointExtension></extensions></trkpt><trkpt lat="42.1932285279" lon="13.4051028918"><ele>1811.36</ele><time>2026-03-11T14:56:33Z</time><extensions><gpxtpx:TrackPointExtension><gpxtpx:atemp>3.1</gpxtpx:atemp></gpxtpx:TrackPointExtension></extensions></trkpt><trkpt lat="42.1932284441" lon="13.4051026404"><ele>1811.25</ele><time>2026-03-11T14:56:34Z</time><extensions><gpxtpx:TrackPointExtension><gpxtpx:atemp>3.1</gpxtpx:atemp></gpxtpx:TrackPointExtension></extensions></trkpt><trkpt lat="42.1932284441" lon="13.4051027242"><ele>1811.17</ele><time>2026-03-11T14:56:35Z</time><extensions><gpxtpx:TrackPointExtension><gpxtpx:atemp>3.1</gpxtpx:atemp></gpxtpx:TrackPointExtension></extensions></trkpt><trkpt lat="42.1932283603" lon="13.4051027242"><ele>1811.00</ele><time>2026-03-11T14:56:36Z</time><extensions><gpxtpx:TrackPointExtension><gpxtpx:atemp>3.1</gpxtpx:atemp></gpxtpx:TrackPointExtension></extensions></trkpt><trkpt lat="42.1932283603" lon="13.4051029757"><ele>1810.63</ele><time>2026-03-11T14:56:37Z</time><extensions><gpxtpx:TrackPointExtension><gpxtpx:atemp>3.1</gpxtpx:atemp></gpxtpx:TrackPointExtension></extensions></trkpt><trkpt lat="42.1932282764" lon="13.4051029757"><ele>1810.54</ele><time>2026-03-11T14:56:38Z</time><extensions><gpxtpx:TrackPointExtension><gpxtpx:atemp>3.1</gpxtpx:atemp></gpxtpx:TrackPointExtension></extensions></trkpt><trkpt lat="42.1932282764" lon="13.4051021375"><ele>1810.48</ele><time>2026-03-11T14:56:39Z</time><extensions><gpxtpx:TrackPointExtension><gpxtpx:atemp>3.1</gpxtpx:atemp></gpxtpx:TrackPointExtension></extensions></trkpt><trkpt lat="42.1932266839" lon="13.4051023889"><ele>1810.39</ele><time>2026-03-11T14:56:40Z</time><extensions><gpxtpx:TrackPointExtension><gpxtpx:atemp>3.1</gpxtpx:atemp></gpxtpx:TrackPointExtension></extensions></trkpt><trkpt lat="42.1932241693" lon="13.4051033948"><ele>1810.37</ele><time>2026-03-11T14:56:41Z</time><extensions><gpxtpx:TrackPointExtension><gpxtpx:atemp>3.1</gpxtpx:atemp></gpxtpx:TrackPointExtension></extensions></trkpt><trkpt lat="42.1932229958" lon="13.4051033948"><ele>1810.39</ele><time>2026-03-11T14:56:42Z</time><extensions><gpxtpx:TrackPointExtension><gpxtpx:atemp>3.1</gpxtpx:atemp></gpxtpx:TrackPointExtension></extensions></trkpt><trkpt lat="42.1932245884" lon="13.4051040653"><ele>1810.36</ele><time>2026-03-11T14:56:43Z</time><extensions><gpxtpx:TrackPointExtension><gpxtpx:atemp>3.1</gpxtpx:atemp></gpxtpx:TrackPointExtension></extensions></trkpt><trkpt lat="42.1932212356" lon="13.4051041491"><ele>1810.35</ele><time>2026-03-11T14:56:44Z</time><extensions><gpxtpx:TrackPointExtension><gpxtpx:atemp>3.1</gpxtpx:atemp></gpxtpx:TrackPointExtension></extensions></trkpt><trkpt lat="42.1932209842" lon="13.4051077534"><ele>1810.35</ele><time>2026-03-11T14:56:45Z</time><extensions><gpxtpx:TrackPointExtension><gpxtpx:atemp>3.1</gpxtpx:atemp></gpxtpx:TrackPointExtension></extensions></trkpt><trkpt lat="42.1932228282" lon="13.4051080886"><ele>1810.28</ele><time>2026-03-11T14:56:46Z</time><extensions><gpxtpx:TrackPointExtension><gpxtpx:atemp>3.1</gpxtpx:atemp></gpxtpx:TrackPointExtension></extensions></trkpt><trkpt lat="42.1932224929" lon="13.4051081724"><ele>1810.23</ele><time>2026-03-11T14:56:47Z</time><extensions><gpxtpx:TrackPointExtension><gpxtpx:atemp>3.1</gpxtpx:atemp></gpxtpx:TrackPointExtension></extensions></trkpt><trkpt lat="42.1932227444" lon="13.4051052388"><ele>1810.10</ele><time>2026-03-11T14:56:48Z</time><extensions><gpxtpx:TrackPointExtension><gpxtpx:atemp>3.1</gpxtpx:atemp></gpxtpx:TrackPointExtension></extensions></trkpt><trkpt lat="42.1932223253" lon="13.4051073343"><ele>1809.97</ele><time>2026-03-11T14:56:49Z</time><extensions><gpxtpx:TrackPointExtension><gpxtpx:atemp>3.1</gpxtpx:atemp></gpxtpx:TrackPointExtension></extensions></trkpt><trkpt lat="42.1932211518" lon="13.4051039815"><ele>1809.89</ele><time>2026-03-11T14:56:50Z</time><extensions><gpxtpx:TrackPointExtension><gpxtpx:atemp>3.1</gpxtpx:atemp></gpxtpx:TrackPointExtension></extensions></trkpt><trkpt lat="42.1932203975" lon="13.4051038977"><ele>1809.74</ele><time>2026-03-11T14:56:51Z</time><extensions><gpxtpx:TrackPointExtension><gpxtpx:atemp>3.1</gpxtpx:atemp></gpxtpx:TrackPointExtension></extensions></trkpt><trkpt lat="42.1932199784" lon="13.4051050711"><ele>1809.57</ele><time>2026-03-11T14:56:52Z</time><extensions><gpxtpx:TrackPointExtension><gpxtpx:atemp>3.1</gpxtpx:atemp></gpxtpx:TrackPointExtension></extensions></trkpt><trkpt lat="42.1932201460" lon="13.4051066637"><ele>1809.43</ele><time>2026-03-11T14:56:53Z</time><extensions><gpxtpx:TrackPointExtension><gpxtpx:atemp>3.1</gpxtpx:atemp></gpxtpx:TrackPointExtension></extensions></trkpt><trkpt lat="42.1932181343" lon="13.4051067475"><ele>1809.30</ele><time>2026-03-11T14:56:54Z</time><extensions><gpxtpx:TrackPointExtension><gpxtpx:atemp>3.1</gpxtpx:atemp></gpxtpx:TrackPointExtension></extensions></trkpt><trkpt lat="42.1932181343" lon="13.4051068313"><ele>1809.17</ele><time>2026-03-11T14:56:55Z</time><extensions><gpxtpx:TrackPointExtension><gpxtpx:atemp>3.1</gpxtpx:atemp></gpxtpx:TrackPointExtension></extensions></trkpt><trkpt lat="42.1932181343" lon="13.4051069990"><ele>1809.09</ele><time>2026-03-11T14:56:56Z</time><extensions><gpxtpx:TrackPointExtension><gpxtpx:atemp>3.1</gpxtpx:atemp></gpxtpx:TrackPointExtension></extensions></trkpt><trkpt lat="42.1932199784" lon="13.4051047359"><ele>1809.06</ele><time>2026-03-11T14:56:57Z</time><extensions><gpxtpx:TrackPointExtension><gpxtpx:atemp>3.1</gpxtpx:atemp></gpxtpx:TrackPointExtension></extensions></trkpt><trkpt lat="42.1932193916" lon="13.4051043168"><ele>1809.00</ele><time>2026-03-11T14:56:58Z</time><extensions><gpxtpx:TrackPointExtension><gpxtpx:atemp>3.1</gpxtpx:atemp></gpxtpx:TrackPointExtension></extensions></trkpt><trkpt lat="42.1932192240" lon="13.4051017184"><ele>1808.97</ele><time>2026-03-11T14:56:59Z</time><extensions><gpxtpx:TrackPointExtension><gpxtpx:atemp>3.1</gpxtpx:atemp></gpxtpx:TrackPointExtension></extensions></trkpt><trkpt lat="42.1932183858" lon="13.4051005449"><ele>1809.02</ele><time>2026-03-11T14:57:00Z</time><extensions><gpxtpx:TrackPointExtension><gpxtpx:atemp>3.1</gpxtpx:atemp></gpxtpx:TrackPointExtension></extensions></trkpt><trkpt lat="42.1932178829" lon="13.4050997905"><ele>1809.09</ele><time>2026-03-11T14:57:01Z</time><extensions><gpxtpx:TrackPointExtension><gpxtpx:atemp>3.1</gpxtpx:atemp></gpxtpx:TrackPointExtension></extensions></trkpt><trkpt lat="42.1932180505" lon="13.4051009640"><ele>1809.11</ele><time>2026-03-11T14:57:02Z</time><extensions><gpxtpx:TrackPointExtension><gpxtpx:atemp>3.1</gpxtpx:atemp></gpxtpx:TrackPointExtension></extensions></trkpt><trkpt lat="42.1932184696" lon="13.4051019698"><ele>1809.12</ele><time>2026-03-11T14:57:03Z</time><extensions><gpxtpx:TrackPointExtension><gpxtpx:atemp>3.1</gpxtpx:atemp></gpxtpx:TrackPointExtension></extensions></trkpt><trkpt lat="42.1932199784" lon="13.4051011316"><ele>1809.13</ele><time>2026-03-11T14:57:04Z</time><extensions><gpxtpx:TrackPointExtension><gpxtpx:atemp>3.1</gpxtpx:atemp></gpxtpx:TrackPointExtension></extensions></trkpt><trkpt lat="42.1932197269" lon="13.4050998744"><ele>1809.13</ele><time>2026-03-11T14:57:05Z</time><extensions><gpxtpx:TrackPointExtension><gpxtpx:atemp>3.1</gpxtpx:atemp></gpxtpx:TrackPointExtension></extensions></trkpt><trkpt lat="42.1932187211" lon="13.4050972760"><ele>1809.13</ele><time>2026-03-11T14:57:06Z</time><extensions><gpxtpx:TrackPointExtension><gpxtpx:atemp>3.1</gpxtpx:atemp></gpxtpx:TrackPointExtension></extensions></trkpt><trkpt lat="42.1932199784" lon="13.4050960187"><ele>1809.10</ele><time>2026-03-11T14:57:07Z</time><extensions><gpxtpx:TrackPointExtension><gpxtpx:atemp>3.1</gpxtpx:atemp></gpxtpx:TrackPointExtension></extensions></trkpt><trkpt lat="42.1932207327" lon="13.4050962701"><ele>1808.95</ele><time>2026-03-11T14:57:08Z</time><extensions><gpxtpx:TrackPointExtension><gpxtpx:atemp>3.1</gpxtpx:atemp></gpxtpx:TrackPointExtension></extensions></trkpt><trkpt lat="42.1932211518" lon="13.4050953481"><ele>1808.73</ele><time>2026-03-11T14:57:09Z</time><extensions><gpxtpx:TrackPointExtension><gpxtpx:atemp>3.1</gpxtpx:atemp></gpxtpx:TrackPointExtension></extensions></trkpt><trkpt lat="42.1932206489" lon="13.4050939232"><ele>1808.58</ele><time>2026-03-11T14:57:10Z</time><extensions><gpxtpx:TrackPointExtension><gpxtpx:atemp>3.1</gpxtpx:atemp></gpxtpx:TrackPointExtension></extensions></trkpt><trkpt lat="42.1932199784" lon="13.4050940908"><ele>1808.48</ele><time>2026-03-11T14:57:11Z</time><extensions><gpxtpx:TrackPointExtension><gpxtpx:atemp>3.1</gpxtpx:atemp></gpxtpx:TrackPointExtension></extensions></trkpt><trkpt lat="42.1932197269" lon="13.4050940908"><ele>1808.49</ele><time>2026-03-11T14:57:12Z</time><extensions><gpxtpx:TrackPointExtension><gpxtpx:atemp>3.1</gpxtpx:atemp></gpxtpx:TrackPointExtension></extensions></trkpt><trkpt lat="42.1932195593" lon="13.4050943423"><ele>1808.57</ele><time>2026-03-11T14:57:13Z</time><extensions><gpxtpx:TrackPointExtension><gpxtpx:atemp>3.1</gpxtpx:atemp></gpxtpx:TrackPointExtension></extensions></trkpt><trkpt lat="42.1932194754" lon="13.4050941747"><ele>1808.65</ele><time>2026-03-11T14:57:14Z</time><extensions><gpxtpx:TrackPointExtension><gpxtpx:atemp>3.1</gpxtpx:atemp></gpxtpx:TrackPointExtension></extensions></trkpt><trkpt lat="42.1932196431" lon="13.4050935879"><ele>1808.74</ele><time>2026-03-11T14:57:15Z</time><extensions><gpxtpx:TrackPointExtension><gpxtpx:atemp>3.1</gpxtpx:atemp></gpxtpx:TrackPointExtension></extensions></trkpt><trkpt lat="42.1932198945" lon="13.4050941747"><ele>1808.82</ele><time>2026-03-11T14:57:16Z</time><extensions><gpxtpx:TrackPointExtension><gpxtpx:atemp>3.1</gpxtpx:atemp></gpxtpx:TrackPointExtension></extensions></trkpt><trkpt lat="42.1932205651" lon="13.4050938394"><ele>1808.88</ele><time>2026-03-11T14:57:17Z</time><extensions><gpxtpx:TrackPointExtension><gpxtpx:atemp>3.1</gpxtpx:atemp></gpxtpx:TrackPointExtension></extensions></trkpt><trkpt lat="42.1932197269" lon="13.4050944261"><ele>1808.91</ele><time>2026-03-11T14:57:18Z</time><extensions><gpxtpx:TrackPointExtension><gpxtpx:atemp>3.1</gpxtpx:atemp></gpxtpx:TrackPointExtension></extensions></trkpt><trkpt lat="42.1932189725" lon="13.4050945938"><ele>1808.93</ele><time>2026-03-11T14:57:19Z</time><extensions><gpxtpx:TrackPointExtension><gpxtpx:atemp>3.1</gpxtpx:atemp></gpxtpx:TrackPointExtension></extensions></trkpt><trkpt lat="42.1932194754" lon="13.4050938394"><ele>1808.95</ele><time>2026-03-11T14:57:20Z</time><extensions><gpxtpx:TrackPointExtension><gpxtpx:atemp>3.1</gpxtpx:atemp></gpxtpx:TrackPointExtension></extensions></trkpt><trkpt lat="42.1932196431" lon="13.4050940908"><ele>1808.99</ele><time>2026-03-11T14:57:21Z</time><extensions><gpxtpx:TrackPointExtension><gpxtpx:atemp>3.1</gpxtpx:atemp></gpxtpx:TrackPointExtension></extensions></trkpt><trkpt lat="42.1932186373" lon="13.4050942585"><ele>1809.01</ele><time>2026-03-11T14:57:22Z</time><extensions><gpxtpx:TrackPointExtension><gpxtpx:atemp>3.1</gpxtpx:atemp></gpxtpx:TrackPointExtension></extensions></trkpt><trkpt lat="42.1932185534" lon="13.4050945938"><ele>1809.09</ele><time>2026-03-11T14:57:23Z</time><extensions><gpxtpx:TrackPointExtension><gpxtpx:atemp>3.1</gpxtpx:atemp></gpxtpx:TrackPointExtension></extensions></trkpt><trkpt lat="42.1932183858" lon="13.4050950967"><ele>1809.13</ele><time>2026-03-11T14:57:24Z</time><extensions><gpxtpx:TrackPointExtension><gpxtpx:atemp>3.1</gpxtpx:atemp></gpxtpx:TrackPointExtension></extensions></trkpt><trkpt lat="42.1932186373" lon="13.4050952643"><ele>1809.15</ele><time>2026-03-11T14:57:25Z</time><extensions><gpxtpx:TrackPointExtension><gpxtpx:atemp>3.1</gpxtpx:atemp></gpxtpx:TrackPointExtension></extensions></trkpt><trkpt lat="42.1932177991" lon="13.4050955996"><ele>1809.18</ele><time>2026-03-11T14:57:26Z</time><extensions><gpxtpx:TrackPointExtension><gpxtpx:atemp>3.1</gpxtpx:atemp></gpxtpx:TrackPointExtension></extensions></trkpt><trkpt lat="42.1932172962" lon="13.4050954320"><ele>1809.22</ele><time>2026-03-11T14:57:27Z</time><extensions><gpxtpx:TrackPointExtension><gpxtpx:atemp>3.1</gpxtpx:atemp></gpxtpx:TrackPointExtension></extensions></trkpt><trkpt lat="42.1932172962" lon="13.4050956834"><ele>1809.23</ele><time>2026-03-11T14:57:28Z</time><extensions><gpxtpx:TrackPointExtension><gpxtpx:atemp>3.1</gpxtpx:atemp></gpxtpx:TrackPointExtension></extensions></trkpt><trkpt lat="42.1932171285" lon="13.4050955996"><ele>1809.24</ele><time>2026-03-11T14:57:29Z</time><extensions><gpxtpx:TrackPointExtension><gpxtpx:atemp>3.1</gpxtpx:atemp></gpxtpx:TrackPointExtension></extensions></trkpt><trkpt lat="42.1932165418" lon="13.4050958510"><ele>1809.25</ele><time>2026-03-11T14:57:30Z</time><extensions><gpxtpx:TrackPointExtension><gpxtpx:atemp>3.1</gpxtpx:atemp></gpxtpx:TrackPointExtension></extensions></trkpt><trkpt lat="42.1932159550" lon="13.4050960187"><ele>1809.27</ele><time>2026-03-11T14:57:31Z</time><extensions><gpxtpx:TrackPointExtension><gpxtpx:atemp>3.1</gpxtpx:atemp></gpxtpx:TrackPointExtension></extensions></trkpt><trkpt lat="42.1932158712" lon="13.4050959349"><ele>1809.28</ele><time>2026-03-11T14:57:32Z</time><extensions><gpxtpx:TrackPointExtension><gpxtpx:atemp>3.1</gpxtpx:atemp></gpxtpx:TrackPointExtension></extensions></trkpt><trkpt lat="42.1932158712" lon="13.4050957672"><ele>1809.26</ele><time>2026-03-11T14:57:33Z</time><extensions><gpxtpx:TrackPointExtension><gpxtpx:atemp>3.1</gpxtpx:atemp></gpxtpx:TrackPointExtension></extensions></trkpt><trkpt lat="42.1932152845" lon="13.4050960187"><ele>1809.21</ele><time>2026-03-11T14:57:34Z</time><extensions><gpxtpx:TrackPointExtension><gpxtpx:atemp>3.1</gpxtpx:atemp></gpxtpx:TrackPointExtension></extensions></trkpt><trkpt lat="42.1932150330" lon="13.4050963540"><ele>1809.18</ele><time>2026-03-11T14:57:35Z</time><extensions><gpxtpx:TrackPointExtension><gpxtpx:atemp>3.1</gpxtpx:atemp></gpxtpx:TrackPointExtension></extensions></trkpt><trkpt lat="42.1932155360" lon="13.4050961863"><ele>1809.21</ele><time>2026-03-11T14:57:36Z</time><extensions><gpxtpx:TrackPointExtension><gpxtpx:atemp>3.3</gpxtpx:atemp></gpxtpx:TrackPointExtension></extensions></trkpt><trkpt lat="42.1932156198" lon="13.4050959349"><ele>1809.23</ele><time>2026-03-11T14:57:37Z</time><extensions><gpxtpx:TrackPointExtension><gpxtpx:atemp>3.3</gpxtpx:atemp></gpxtpx:TrackPointExtension></extensions></trkpt><trkpt lat="42.1932152845" lon="13.4050957672"><ele>1809.25</ele><time>2026-03-11T14:57:38Z</time><extensions><gpxtpx:TrackPointExtension><gpxtpx:atemp>3.3</gpxtpx:atemp></gpxtpx:TrackPointExtension></extensions></trkpt><trkpt lat="42.1932158712" lon="13.4050957672"><ele>1809.26</ele><time>2026-03-11T14:57:39Z</time><extensions><gpxtpx:TrackPointExtension><gpxtpx:atemp>3.3</gpxtpx:atemp></gpxtpx:TrackPointExtension></extensions></trkpt><trkpt lat="42.1932164580" lon="13.4050959349"><ele>1809.27</ele><time>2026-03-11T14:57:40Z</time><extensions><gpxtpx:TrackPointExtension><gpxtpx:atemp>3.3</gpxtpx:atemp></gpxtpx:TrackPointExtension></extensions></trkpt><trkpt lat="42.1932167932" lon="13.4050958510"><ele>1809.23</ele><time>2026-03-11T14:57:41Z</time><extensions><gpxtpx:TrackPointExtension><gpxtpx:atemp>3.3</gpxtpx:atemp></gpxtpx:TrackPointExtension></extensions></trkpt><trkpt lat="42.1932164580" lon="13.4050957672"><ele>1809.03</ele><time>2026-03-11T14:57:42Z</time><extensions><gpxtpx:TrackPointExtension><gpxtpx:atemp>3.3</gpxtpx:atemp></gpxtpx:TrackPointExtension></extensions></trkpt><trkpt lat="42.1932166256" lon="13.4050955996"><ele>1808.90</ele><time>2026-03-11T14:57:43Z</time><extensions><gpxtpx:TrackPointExtension><gpxtpx:atemp>3.3</gpxtpx:atemp></gpxtpx:TrackPointExtension></extensions></trkpt><trkpt lat="42.1932168771" lon="13.4050957672"><ele>1808.83</ele><time>2026-03-11T14:57:44Z</time><extensions><gpxtpx:TrackPointExtension><gpxtpx:atemp>3.3</gpxtpx:atemp></gpxtpx:TrackPointExtension></extensions></trkpt><trkpt lat="42.1932168771" lon="13.4050957672"><ele>1808.80</ele><time>2026-03-11T14:57:45Z</time><extensions><gpxtpx:TrackPointExtension><gpxtpx:atemp>3.3</gpxtpx:atemp></gpxtpx:TrackPointExtension></extensions></trkpt><trkpt lat="42.1932165418" lon="13.4050955996"><ele>1808.87</ele><time>2026-03-11T14:57:46Z</time><extensions><gpxtpx:TrackPointExtension><gpxtpx:atemp>3.3</gpxtpx:atemp></gpxtpx:TrackPointExtension></extensions></trkpt><trkpt lat="42.1932164580" lon="13.4050953481"><ele>1808.94</ele><time>2026-03-11T14:57:47Z</time><extensions><gpxtpx:TrackPointExtension><gpxtpx:atemp>3.3</gpxtpx:atemp></gpxtpx:TrackPointExtension></extensions></trkpt><trkpt lat="42.1932187211" lon="13.4050945938"><ele>1809.01</ele><time>2026-03-11T14:57:48Z</time><extensions><gpxtpx:TrackPointExtension><gpxtpx:atemp>3.3</gpxtpx:atemp></gpxtpx:TrackPointExtension></extensions></trkpt><trkpt lat="42.1932182182" lon="13.4050969407"><ele>1809.25</ele><time>2026-03-11T14:57:49Z</time><extensions><gpxtpx:TrackPointExtension><gpxtpx:atemp>3.3</gpxtpx:atemp></gpxtpx:TrackPointExtension></extensions></trkpt><trkpt lat="42.1932187211" lon="13.4051037300"><ele>1809.70</ele><time>2026-03-11T14:57:50Z</time><extensions><gpxtpx:TrackPointExtension><gpxtpx:atemp>3.3</gpxtpx:atemp></gpxtpx:TrackPointExtension></extensions></trkpt><trkpt lat="42.1932271868" lon="13.4050986171"><ele>1810.10</ele><time>2026-03-11T14:57:51Z</time><extensions><gpxtpx:TrackPointExtension><gpxtpx:atemp>3.3</gpxtpx:atemp></gpxtpx:TrackPointExtension></extensions></trkpt><trkpt lat="42.1932228282" lon="13.4050983656"><ele>1810.33</ele><time>2026-03-11T14:57:52Z</time><extensions><gpxtpx:TrackPointExtension><gpxtpx:atemp>3.3</gpxtpx:atemp></gpxtpx:TrackPointExtension></extensions></trkpt><trkpt lat="42.1932190564" lon="13.4050980303"><ele>1810.44</ele><time>2026-03-11T14:57:53Z</time><extensions><gpxtpx:TrackPointExtension><gpxtpx:atemp>3.3</gpxtpx:atemp></gpxtpx:TrackPointExtension></extensions></trkpt><trkpt lat="42.1932184696" lon="13.4050971922"><ele>1810.52</ele><time>2026-03-11T14:57:54Z</time><extensions><gpxtpx:TrackPointExtension><gpxtpx:atemp>3.3</gpxtpx:atemp></gpxtpx:TrackPointExtension></extensions></trkpt><trkpt lat="42.1932162903" lon="13.4050970245"><ele>1810.60</ele><time>2026-03-11T14:57:55Z</time><extensions><gpxtpx:TrackPointExtension><gpxtpx:atemp>3.3</gpxtpx:atemp></gpxtpx:TrackPointExtension></extensions></trkpt><trkpt lat="42.1932149492" lon="13.4050995391"><ele>1810.63</ele><time>2026-03-11T14:57:56Z</time><extensions><gpxtpx:TrackPointExtension><gpxtpx:atemp>3.3</gpxtpx:atemp></gpxtpx:TrackPointExtension></extensions></trkpt><trkpt lat="42.1932126861" lon="13.4050997905"><ele>1810.66</ele><time>2026-03-11T14:57:57Z</time><extensions><gpxtpx:TrackPointExtension><gpxtpx:atemp>3.3</gpxtpx:atemp></gpxtpx:TrackPointExtension></extensions></trkpt><trkpt lat="42.1932110935" lon="13.4050997905"><ele>1810.69</ele><time>2026-03-11T14:57:58Z</time><extensions><gpxtpx:TrackPointExtension><gpxtpx:atemp>3.3</gpxtpx:atemp></gpxtpx:TrackPointExtension></extensions></trkpt><trkpt lat="42.1932127699" lon="13.4051017184"><ele>1810.69</ele><time>2026-03-11T14:57:59Z</time><extensions><gpxtpx:TrackPointExtension><gpxtpx:atemp>3.3</gpxtpx:atemp></gpxtpx:TrackPointExtension></extensions></trkpt><trkpt lat="42.1932138596" lon="13.4051032271"><ele>1810.69</ele><time>2026-03-11T14:58:00Z</time><extensions><gpxtpx:TrackPointExtension><gpxtpx:atemp>3.3</gpxtpx:atemp></gpxtpx:TrackPointExtension></extensions></trkpt><trkpt lat="42.1932161227" lon="13.4051045682"><ele>1810.69</ele><time>2026-03-11T14:58:01Z</time><extensions><gpxtpx:TrackPointExtension><gpxtpx:atemp>3.3</gpxtpx:atemp></gpxtpx:TrackPointExtension></extensions></trkpt><trkpt lat="42.1932168771" lon="13.4051050711"><ele>1810.71</ele><time>2026-03-11T14:58:02Z</time><extensions><gpxtpx:TrackPointExtension><gpxtpx:atemp>3.3</gpxtpx:atemp></gpxtpx:TrackPointExtension></extensions></trkpt><trkpt lat="42.1932161227" lon="13.4051080886"><ele>1810.75</ele><time>2026-03-11T14:58:03Z</time><extensions><gpxtpx:TrackPointExtension><gpxtpx:atemp>3.3</gpxtpx:atemp></gpxtpx:TrackPointExtension></extensions></trkpt><trkpt lat="42.1932149492" lon="13.4051080886"><ele>1810.77</ele><time>2026-03-11T14:58:04Z</time><extensions><gpxtpx:TrackPointExtension><gpxtpx:atemp>3.3</gpxtpx:atemp></gpxtpx:TrackPointExtension></extensions></trkpt><trkpt lat="42.1932141948" lon="13.4051076695"><ele>1810.78</ele><time>2026-03-11T14:58:05Z</time><extensions><gpxtpx:TrackPointExtension><gpxtpx:atemp>3.3</gpxtpx:atemp></gpxtpx:TrackPointExtension></extensions></trkpt><trkpt lat="42.1932142787" lon="13.4051076695"><ele>1810.79</ele><time>2026-03-11T14:58:06Z</time><extensions><gpxtpx:TrackPointExtension><gpxtpx:atemp>3.3</gpxtpx:atemp></gpxtpx:TrackPointExtension></extensions></trkpt><trkpt lat="42.1932161227" lon="13.4051084239"><ele>1810.77</ele><time>2026-03-11T14:58:07Z</time><extensions><gpxtpx:TrackPointExtension><gpxtpx:atemp>3.3</gpxtpx:atemp></gpxtpx:TrackPointExtension></extensions></trkpt><trkpt lat="42.1932169609" lon="13.4051091783"><ele>1810.76</ele><time>2026-03-11T14:58:08Z</time><extensions><gpxtpx:TrackPointExtension><gpxtpx:atemp>3.3</gpxtpx:atemp></gpxtpx:TrackPointExtension></extensions></trkpt><trkpt lat="42.1932168771" lon="13.4051089268"><ele>1810.69</ele><time>2026-03-11T14:58:09Z</time><extensions><gpxtpx:TrackPointExtension><gpxtpx:atemp>3.3</gpxtpx:atemp></gpxtpx:TrackPointExtension></extensions></trkpt><trkpt lat="42.1932178829" lon="13.4051077534"><ele>1810.67</ele><time>2026-03-11T14:58:10Z</time><extensions><gpxtpx:TrackPointExtension><gpxtpx:atemp>3.3</gpxtpx:atemp></gpxtpx:TrackPointExtension></extensions></trkpt><trkpt lat="42.1932201460" lon="13.4051062446"><ele>1810.62</ele><time>2026-03-11T14:58:11Z</time><extensions><gpxtpx:TrackPointExtension><gpxtpx:atemp>3.3</gpxtpx:atemp></gpxtpx:TrackPointExtension></extensions></trkpt><trkpt lat="42.1932193916" lon="13.4051066637"><ele>1810.58</ele><time>2026-03-11T14:58:12Z</time><extensions><gpxtpx:TrackPointExtension><gpxtpx:atemp>3.3</gpxtpx:atemp></gpxtpx:TrackPointExtension></extensions></trkpt><trkpt lat="42.1932197269" lon="13.4051077534"><ele>1810.58</ele><time>2026-03-11T14:58:13Z</time><extensions><gpxtpx:TrackPointExtension><gpxtpx:atemp>3.3</gpxtpx:atemp></gpxtpx:TrackPointExtension></extensions></trkpt><trkpt lat="42.1932202298" lon="13.4051095974"><ele>1810.61</ele><time>2026-03-11T14:58:14Z</time><extensions><gpxtpx:TrackPointExtension><gpxtpx:atemp>3.3</gpxtpx:atemp></gpxtpx:TrackPointExtension></extensions></trkpt><trkpt lat="42.1932196431" lon="13.4051094297"><ele>1810.61</ele><time>2026-03-11T14:58:15Z</time><extensions><gpxtpx:TrackPointExtension><gpxtpx:atemp>3.3</gpxtpx:atemp></gpxtpx:TrackPointExtension></extensions></trkpt><trkpt lat="42.1932195593" lon="13.4051099326"><ele>1810.62</ele><time>2026-03-11T14:58:16Z</time><extensions><gpxtpx:TrackPointExtension><gpxtpx:atemp>3.3</gpxtpx:atemp></gpxtpx:TrackPointExtension></extensions></trkpt><trkpt lat="42.1932213195" lon="13.4051097650"><ele>1810.63</ele><time>2026-03-11T14:58:17Z</time><extensions><gpxtpx:TrackPointExtension><gpxtpx:atemp>3.3</gpxtpx:atemp></gpxtpx:TrackPointExtension></extensions></trkpt><trkpt lat="42.1932205651" lon="13.4051095974"><ele>1810.66</ele><time>2026-03-11T14:58:18Z</time><extensions><gpxtpx:TrackPointExtension><gpxtpx:atemp>3.3</gpxtpx:atemp></gpxtpx:TrackPointExtension></extensions></trkpt><trkpt lat="42.1932237502" lon="13.4051093459"><ele>1810.68</ele><time>2026-03-11T14:58:19Z</time><extensions><gpxtpx:TrackPointExtension><gpxtpx:atemp>3.3</gpxtpx:atemp></gpxtpx:TrackPointExtension></extensions></trkpt><trkpt lat="42.1932236664" lon="13.4051095974"><ele>1810.68</ele><time>2026-03-11T14:58:20Z</time><extensions><gpxtpx:TrackPointExtension><gpxtpx:atemp>3.3</gpxtpx:atemp></gpxtpx:TrackPointExtension></extensions></trkpt><trkpt lat="42.1932218224" lon="13.4051077534"><ele>1810.77</ele><time>2026-03-11T14:58:21Z</time><extensions><gpxtpx:TrackPointExtension><gpxtpx:atemp>3.3</gpxtpx:atemp></gpxtpx:TrackPointExtension></extensions></trkpt><trkpt lat="42.1932221577" lon="13.4051071666"><ele>1810.73</ele><time>2026-03-11T14:58:22Z</time><extensions><gpxtpx:TrackPointExtension><gpxtpx:atemp>3.3</gpxtpx:atemp></gpxtpx:TrackPointExtension></extensions></trkpt><trkpt lat="42.1932239179" lon="13.4051084239"><ele>1810.67</ele><time>2026-03-11T14:58:23Z</time><extensions><gpxtpx:TrackPointExtension><gpxtpx:atemp>3.3</gpxtpx:atemp></gpxtpx:TrackPointExtension></extensions></trkpt><trkpt lat="42.1932238340" lon="13.4051096812"><ele>1810.64</ele><time>2026-03-11T14:58:24Z</time><extensions><gpxtpx:TrackPointExtension><gpxtpx:atemp>3.3</gpxtpx:atemp></gpxtpx:TrackPointExtension></extensions></trkpt><trkpt lat="42.1932229958" lon="13.4051108547"><ele>1810.63</ele><time>2026-03-11T14:58:25Z</time><extensions><gpxtpx:TrackPointExtension><gpxtpx:atemp>3.3</gpxtpx:atemp></gpxtpx:TrackPointExtension></extensions></trkpt><trkpt lat="42.1932211518" lon="13.4051102679"><ele>1810.63</ele><time>2026-03-11T14:58:26Z</time><extensions><gpxtpx:TrackPointExtension><gpxtpx:atemp>3.3</gpxtpx:atemp></gpxtpx:TrackPointExtension></extensions></trkpt><trkpt lat="42.1932214871" lon="13.4051108547"><ele>1810.62</ele><time>2026-03-11T14:58:27Z</time><extensions><gpxtpx:TrackPointExtension><gpxtpx:atemp>3.3</gpxtpx:atemp></gpxtpx:TrackPointExtension></extensions></trkpt><trkpt lat="42.1932225768" lon="13.4051103517"><ele>1810.61</ele><time>2026-03-11T14:58:28Z</time><extensions><gpxtpx:TrackPointExtension><gpxtpx:atemp>3.3</gpxtpx:atemp></gpxtpx:TrackPointExtension></extensions></trkpt><trkpt lat="42.1932214871" lon="13.4051102679"><ele>1810.61</ele><time>2026-03-11T14:58:29Z</time><extensions><gpxtpx:TrackPointExtension><gpxtpx:atemp>3.3</gpxtpx:atemp></gpxtpx:TrackPointExtension></extensions></trkpt><trkpt lat="42.1932201460" lon="13.4051117767"><ele>1810.61</ele><time>2026-03-11T14:58:30Z</time><extensions><gpxtpx:TrackPointExtension><gpxtpx:atemp>3.3</gpxtpx:atemp></gpxtpx:TrackPointExtension></extensions></trkpt><trkpt lat="42.1932193916" lon="13.4051116928"><ele>1810.61</ele><time>2026-03-11T14:58:31Z</time><extensions><gpxtpx:TrackPointExtension><gpxtpx:atemp>3.3</gpxtpx:atemp></gpxtpx:TrackPointExtension></extensions></trkpt><trkpt lat="42.1932191402" lon="13.4051123634"><ele>1810.61</ele><time>2026-03-11T14:58:32Z</time><extensions><gpxtpx:TrackPointExtension><gpxtpx:atemp>3.3</gpxtpx:atemp></gpxtpx:TrackPointExtension></extensions></trkpt><trkpt lat="42.1932204813" lon="13.4051123634"><ele>1810.61</ele><time>2026-03-11T14:58:33Z</time><extensions><gpxtpx:TrackPointExtension><gpxtpx:atemp>3.3</gpxtpx:atemp></gpxtpx:TrackPointExtension></extensions></trkpt><trkpt lat="42.1932200622" lon="13.4051116928"><ele>1810.62</ele><time>2026-03-11T14:58:34Z</time><extensions><gpxtpx:TrackPointExtension><gpxtpx:atemp>3.3</gpxtpx:atemp></gpxtpx:TrackPointExtension></extensions></trkpt><trkpt lat="42.1932174638" lon="13.4051113576"><ele>1810.62</ele><time>2026-03-11T14:58:35Z</time><extensions><gpxtpx:TrackPointExtension><gpxtpx:atemp>3.3</gpxtpx:atemp></gpxtpx:TrackPointExtension></extensions></trkpt><trkpt lat="42.1932170447" lon="13.4051116928"><ele>1810.63</ele><time>2026-03-11T14:58:36Z</time><extensions><gpxtpx:TrackPointExtension><gpxtpx:atemp>3.3</gpxtpx:atemp></gpxtpx:TrackPointExtension></extensions></trkpt><trkpt lat="42.1932165418" lon="13.4051123634"><ele>1810.63</ele><time>2026-03-11T14:58:37Z</time><extensions><gpxtpx:TrackPointExtension><gpxtpx:atemp>3.3</gpxtpx:atemp></gpxtpx:TrackPointExtension></extensions></trkpt><trkpt lat="42.1932170447" lon="13.4051125310"><ele>1810.63</ele><time>2026-03-11T14:58:38Z</time><extensions><gpxtpx:TrackPointExtension><gpxtpx:atemp>3.3</gpxtpx:atemp></gpxtpx:TrackPointExtension></extensions></trkpt><trkpt lat="42.1932162903" lon="13.4051132854"><ele>1810.61</ele><time>2026-03-11T14:58:39Z</time><extensions><gpxtpx:TrackPointExtension><gpxtpx:atemp>3.3</gpxtpx:atemp></gpxtpx:TrackPointExtension></extensions></trkpt><trkpt lat="42.1932161227" lon="13.4051133692"><ele>1810.59</ele><time>2026-03-11T14:58:40Z</time><extensions><gpxtpx:TrackPointExtension><gpxtpx:atemp>3.3</gpxtpx:atemp></gpxtpx:TrackPointExtension></extensions></trkpt><trkpt lat="42.1932158712" lon="13.4051134530"><ele>1810.59</ele><time>2026-03-11T14:58:41Z</time><extensions><gpxtpx:TrackPointExtension><gpxtpx:atemp>3.3</gpxtpx:atemp></gpxtpx:TrackPointExtension></extensions></trkpt><trkpt lat="42.1932150330" lon="13.4051117767"><ele>1810.59</ele><time>2026-03-11T14:58:42Z</time><extensions><gpxtpx:TrackPointExtension><gpxtpx:atemp>3.3</gpxtpx:atemp></gpxtpx:TrackPointExtension></extensions></trkpt><trkpt lat="42.1932154521" lon="13.4051107708"><ele>1810.59</ele><time>2026-03-11T14:58:43Z</time><extensions><gpxtpx:TrackPointExtension><gpxtpx:atemp>3.3</gpxtpx:atemp></gpxtpx:TrackPointExtension></extensions></trkpt><trkpt lat="42.1932154521" lon="13.4051106870"><ele>1810.56</ele><time>2026-03-11T14:58:44Z</time><extensions><gpxtpx:TrackPointExtension><gpxtpx:atemp>3.3</gpxtpx:atemp></gpxtpx:TrackPointExtension></extensions></trkpt><trkpt lat="42.1932156198" lon="13.4051104356"><ele>1810.58</ele><time>2026-03-11T14:58:45Z</time><extensions><gpxtpx:TrackPointExtension><gpxtpx:atemp>3.3</gpxtpx:atemp></gpxtpx:TrackPointExtension></extensions></trkpt><trkpt lat="42.1932150330" lon="13.4051100165"><ele>1810.59</ele><time>2026-03-11T14:58:46Z</time><extensions><gpxtpx:TrackPointExtension><gpxtpx:atemp>3.3</gpxtpx:atemp></gpxtpx:TrackPointExtension></extensions></trkpt><trkpt lat="42.1932148654" lon="13.4051094297"><ele>1810.60</ele><time>2026-03-11T14:58:47Z</time><extensions><gpxtpx:TrackPointExtension><gpxtpx:atemp>3.3</gpxtpx:atemp></gpxtpx:TrackPointExtension></extensions></trkpt><trkpt lat="42.1932149492" lon="13.4051096812"><ele>1810.59</ele><time>2026-03-11T14:58:48Z</time><extensions><gpxtpx:TrackPointExtension><gpxtpx:atemp>3.3</gpxtpx:atemp></gpxtpx:TrackPointExtension></extensions></trkpt><trkpt lat="42.1932145301" lon="13.4051095974"><ele>1810.56</ele><time>2026-03-11T14:58:49Z</time><extensions><gpxtpx:TrackPointExtension><gpxtpx:atemp>3.3</gpxtpx:atemp></gpxtpx:TrackPointExtension></extensions></trkpt><trkpt lat="42.1932141948" lon="13.4051105194"><ele>1810.53</ele><time>2026-03-11T14:58:50Z</time><extensions><gpxtpx:TrackPointExtension><gpxtpx:atemp>3.3</gpxtpx:atemp></gpxtpx:TrackPointExtension></extensions></trkpt><trkpt lat="42.1932145301" lon="13.4051106870"><ele>1810.53</ele><time>2026-03-11T14:58:51Z</time><extensions><gpxtpx:TrackPointExtension><gpxtpx:atemp>3.3</gpxtpx:atemp></gpxtpx:TrackPointExtension></extensions></trkpt><trkpt lat="42.1932143625" lon="13.4051107708"><ele>1810.50</ele><time>2026-03-11T14:58:52Z</time><extensions><gpxtpx:TrackPointExtension><gpxtpx:atemp>3.3</gpxtpx:atemp></gpxtpx:TrackPointExtension></extensions></trkpt><trkpt lat="42.1932144463" lon="13.4051102679"><ele>1810.47</ele><time>2026-03-11T14:58:53Z</time><extensions><gpxtpx:TrackPointExtension><gpxtpx:atemp>3.3</gpxtpx:atemp></gpxtpx:TrackPointExtension></extensions></trkpt><trkpt lat="42.1932145301" lon="13.4051105194"><ele>1810.45</ele><time>2026-03-11T14:58:54Z</time><extensions><gpxtpx:TrackPointExtension><gpxtpx:atemp>3.3</gpxtpx:atemp></gpxtpx:TrackPointExtension></extensions></trkpt><trkpt lat="42.1932146978" lon="13.4051105194"><ele>1810.45</ele><time>2026-03-11T14:58:55Z</time><extensions><gpxtpx:TrackPointExtension><gpxtpx:atemp>3.3</gpxtpx:atemp></gpxtpx:TrackPointExtension></extensions></trkpt><trkpt lat="42.1932146978" lon="13.4051107708"><ele>1810.52</ele><time>2026-03-11T14:58:56Z</time><extensions><gpxtpx:TrackPointExtension><gpxtpx:atemp>3.3</gpxtpx:atemp></gpxtpx:TrackPointExtension></extensions></trkpt><trkpt lat="42.1932151169" lon="13.4051108547"><ele>1810.57</ele><time>2026-03-11T14:58:57Z</time><extensions><gpxtpx:TrackPointExtension><gpxtpx:atemp>3.3</gpxtpx:atemp></gpxtpx:TrackPointExtension></extensions></trkpt><trkpt lat="42.1932162903" lon="13.4051104356"><ele>1810.59</ele><time>2026-03-11T14:58:58Z</time><extensions><gpxtpx:TrackPointExtension><gpxtpx:atemp>3.3</gpxtpx:atemp></gpxtpx:TrackPointExtension></extensions></trkpt><trkpt lat="42.1932164580" lon="13.4051103517"><ele>1810.61</ele><time>2026-03-11T14:58:59Z</time><extensions><gpxtpx:TrackPointExtension><gpxtpx:atemp>3.3</gpxtpx:atemp></gpxtpx:TrackPointExtension></extensions></trkpt><trkpt lat="42.1932164580" lon="13.4051100165"><ele>1810.62</ele><time>2026-03-11T14:59:00Z</time><extensions><gpxtpx:TrackPointExtension><gpxtpx:atemp>3.3</gpxtpx:atemp></gpxtpx:TrackPointExtension></extensions></trkpt><trkpt lat="42.1932166256" lon="13.4051097650"><ele>1810.62</ele><time>2026-03-11T14:59:01Z</time><extensions><gpxtpx:TrackPointExtension><gpxtpx:atemp>3.3</gpxtpx:atemp></gpxtpx:TrackPointExtension></extensions></trkpt><trkpt lat="42.1932173800" lon="13.4051091783"><ele>1810.62</ele><time>2026-03-11T14:59:02Z</time><extensions><gpxtpx:TrackPointExtension><gpxtpx:atemp>3.3</gpxtpx:atemp></gpxtpx:TrackPointExtension></extensions></trkpt><trkpt lat="42.1932176314" lon="13.4051090945"><ele>1810.62</ele><time>2026-03-11T14:59:03Z</time><extensions><gpxtpx:TrackPointExtension><gpxtpx:atemp>3.3</gpxtpx:atemp></gpxtpx:TrackPointExtension></extensions></trkpt><trkpt lat="42.1932170447" lon="13.4051085915"><ele>1810.60</ele><time>2026-03-11T14:59:04Z</time><extensions><gpxtpx:TrackPointExtension><gpxtpx:atemp>3.3</gpxtpx:atemp></gpxtpx:TrackPointExtension></extensions></trkpt><trkpt lat="42.1932166256" lon="13.4051082563"><ele>1810.60</ele><time>2026-03-11T14:59:05Z</time><extensions><gpxtpx:TrackPointExtension><gpxtpx:atemp>3.3</gpxtpx:atemp></gpxtpx:TrackPointExtension></extensions></trkpt><trkpt lat="42.1932167932" lon="13.4051084239"><ele>1810.61</ele><time>2026-03-11T14:59:06Z</time><extensions><gpxtpx:TrackPointExtension><gpxtpx:atemp>3.3</gpxtpx:atemp></gpxtpx:TrackPointExtension></extensions></trkpt><trkpt lat="42.1932166256" lon="13.4051082563"><ele>1810.62</ele><time>2026-03-11T14:59:07Z</time><extensions><gpxtpx:TrackPointExtension><gpxtpx:atemp>3.3</gpxtpx:atemp></gpxtpx:TrackPointExtension></extensions></trkpt><trkpt lat="42.1932165418" lon="13.4051081724"><ele>1810.59</ele><time>2026-03-11T14:59:08Z</time><extensions><gpxtpx:TrackPointExtension><gpxtpx:atemp>3.3</gpxtpx:atemp></gpxtpx:TrackPointExtension></extensions></trkpt><trkpt lat="42.1932165418" lon="13.4051085915"><ele>1810.58</ele><time>2026-03-11T14:59:09Z</time><extensions><gpxtpx:TrackPointExtension><gpxtpx:atemp>3.3</gpxtpx:atemp></gpxtpx:TrackPointExtension></extensions></trkpt><trkpt lat="42.1932167932" lon="13.4051086754"><ele>1810.60</ele><time>2026-03-11T14:59:10Z</time><extensions><gpxtpx:TrackPointExtension><gpxtpx:atemp>3.3</gpxtpx:atemp></gpxtpx:TrackPointExtension></extensions></trkpt><trkpt lat="42.1932169609" lon="13.4051086754"><ele>1810.64</ele><time>2026-03-11T14:59:11Z</time><extensions><gpxtpx:TrackPointExtension><gpxtpx:atemp>3.3</gpxtpx:atemp></gpxtpx:TrackPointExtension></extensions></trkpt><trkpt lat="42.1932169609" lon="13.4051087592"><ele>1810.67</ele><time>2026-03-11T14:59:12Z</time><extensions><gpxtpx:TrackPointExtension><gpxtpx:atemp>3.3</gpxtpx:atemp></gpxtpx:TrackPointExtension></extensions></trkpt><trkpt lat="42.1932164580" lon="13.4051089268"><ele>1810.74</ele><time>2026-03-11T14:59:13Z</time><extensions><gpxtpx:TrackPointExtension><gpxtpx:atemp>3.3</gpxtpx:atemp></gpxtpx:TrackPointExtension></extensions></trkpt><trkpt lat="42.1932164580" lon="13.4051087592"><ele>1810.77</ele><time>2026-03-11T14:59:14Z</time><extensions><gpxtpx:TrackPointExtension><gpxtpx:atemp>3.3</gpxtpx:atemp></gpxtpx:TrackPointExtension></extensions></trkpt><trkpt lat="42.1932166256" lon="13.4051080886"><ele>1810.80</ele><time>2026-03-11T14:59:15Z</time><extensions><gpxtpx:TrackPointExtension><gpxtpx:atemp>3.3</gpxtpx:atemp></gpxtpx:TrackPointExtension></extensions></trkpt><trkpt lat="42.1932166256" lon="13.4051077534"><ele>1810.82</ele><time>2026-03-11T14:59:16Z</time><extensions><gpxtpx:TrackPointExtension><gpxtpx:atemp>3.3</gpxtpx:atemp></gpxtpx:TrackPointExtension></extensions></trkpt><trkpt lat="42.1932164580" lon="13.4051074181"><ele>1810.82</ele><time>2026-03-11T14:59:17Z</time><extensions><gpxtpx:TrackPointExtension><gpxtpx:atemp>3.3</gpxtpx:atemp></gpxtpx:TrackPointExtension></extensions></trkpt><trkpt lat="42.1932166256" lon="13.4051069990"><ele>1810.81</ele><time>2026-03-11T14:59:18Z</time><extensions><gpxtpx:TrackPointExtension><gpxtpx:atemp>3.3</gpxtpx:atemp></gpxtpx:TrackPointExtension></extensions></trkpt><trkpt lat="42.1932170447" lon="13.4051068313"><ele>1810.77</ele><time>2026-03-11T14:59:19Z</time><extensions><gpxtpx:TrackPointExtension><gpxtpx:atemp>3.3</gpxtpx:atemp></gpxtpx:TrackPointExtension></extensions></trkpt><trkpt lat="42.1932170447" lon="13.4051067475"><ele>1810.75</ele><time>2026-03-11T14:59:20Z</time><extensions><gpxtpx:TrackPointExtension><gpxtpx:atemp>3.3</gpxtpx:atemp></gpxtpx:TrackPointExtension></extensions></trkpt><trkpt lat="42.1932171285" lon="13.4051067475"><ele>1810.74</ele><time>2026-03-11T14:59:21Z</time><extensions><gpxtpx:TrackPointExtension><gpxtpx:atemp>3.3</gpxtpx:atemp></gpxtpx:TrackPointExtension></extensions></trkpt><trkpt lat="42.1932172962" lon="13.4051067475"><ele>1810.73</ele><time>2026-03-11T14:59:22Z</time><extensions><gpxtpx:TrackPointExtension><gpxtpx:atemp>3.3</gpxtpx:atemp></gpxtpx:TrackPointExtension></extensions></trkpt><trkpt lat="42.1932172962" lon="13.4051064961"><ele>1810.73</ele><time>2026-03-11T14:59:23Z</time><extensions><gpxtpx:TrackPointExtension><gpxtpx:atemp>3.3</gpxtpx:atemp></gpxtpx:TrackPointExtension></extensions></trkpt><trkpt lat="42.1932179667" lon="13.4051064961"><ele>1810.72</ele><time>2026-03-11T14:59:24Z</time><extensions><gpxtpx:TrackPointExtension><gpxtpx:atemp>3.3</gpxtpx:atemp></gpxtpx:TrackPointExtension></extensions></trkpt><trkpt lat="42.1932177991" lon="13.4051062446"><ele>1810.75</ele><time>2026-03-11T14:59:25Z</time><extensions><gpxtpx:TrackPointExtension><gpxtpx:atemp>3.3</gpxtpx:atemp></gpxtpx:TrackPointExtension></extensions></trkpt><trkpt lat="42.1932182182" lon="13.4051054902"><ele>1810.77</ele><time>2026-03-11T14:59:26Z</time><extensions><gpxtpx:TrackPointExtension><gpxtpx:atemp>3.3</gpxtpx:atemp></gpxtpx:TrackPointExtension></extensions></trkpt><trkpt lat="42.1932181343" lon="13.4051060770"><ele>1810.79</ele><time>2026-03-11T14:59:27Z</time><extensions><gpxtpx:TrackPointExtension><gpxtpx:atemp>3.3</gpxtpx:atemp></gpxtpx:TrackPointExtension></extensions></trkpt><trkpt lat="42.1932189725" lon="13.4051055741"><ele>1810.79</ele><time>2026-03-11T14:59:28Z</time><extensions><gpxtpx:TrackPointExtension><gpxtpx:atemp>3.3</gpxtpx:atemp></gpxtpx:TrackPointExtension></extensions></trkpt><trkpt lat="42.1932191402" lon="13.4051056579"><ele>1810.77</ele><time>2026-03-11T14:59:29Z</time><extensions><gpxtpx:TrackPointExtension><gpxtpx:atemp>3.3</gpxtpx:atemp></gpxtpx:TrackPointExtension></extensions></trkpt><trkpt lat="42.1932187211" lon="13.4051056579"><ele>1810.74</ele><time>2026-03-11T14:59:30Z</time><extensions><gpxtpx:TrackPointExtension><gpxtpx:atemp>3.3</gpxtpx:atemp></gpxtpx:TrackPointExtension></extensions></trkpt><trkpt lat="42.1932185534" lon="13.4051052388"><ele>1810.74</ele><time>2026-03-11T14:59:31Z</time><extensions><gpxtpx:TrackPointExtension><gpxtpx:atemp>3.3</gpxtpx:atemp></gpxtpx:TrackPointExtension></extensions></trkpt><trkpt lat="42.1932186373" lon="13.4051056579"><ele>1810.74</ele><time>2026-03-11T14:59:32Z</time><extensions><gpxtpx:TrackPointExtension><gpxtpx:atemp>3.3</gpxtpx:atemp></gpxtpx:TrackPointExtension></extensions></trkpt><trkpt lat="42.1932189725" lon="13.4051057417"><ele>1810.72</ele><time>2026-03-11T14:59:33Z</time><extensions><gpxtpx:TrackPointExtension><gpxtpx:atemp>3.3</gpxtpx:atemp></gpxtpx:TrackPointExtension></extensions></trkpt><trkpt lat="42.1932191402" lon="13.4051059932"><ele>1810.71</ele><time>2026-03-11T14:59:34Z</time><extensions><gpxtpx:TrackPointExtension><gpxtpx:atemp>3.0</gpxtpx:atemp></gpxtpx:TrackPointExtension></extensions></trkpt><trkpt lat="42.1932188887" lon="13.4051063284"><ele>1810.71</ele><time>2026-03-11T14:59:35Z</time><extensions><gpxtpx:TrackPointExtension><gpxtpx:atemp>3.0</gpxtpx:atemp></gpxtpx:TrackPointExtension></extensions></trkpt><trkpt lat="42.1932190564" lon="13.4051059932"><ele>1810.72</ele><time>2026-03-11T14:59:36Z</time><extensions><gpxtpx:TrackPointExtension><gpxtpx:atemp>3.0</gpxtpx:atemp></gpxtpx:TrackPointExtension></extensions></trkpt><trkpt lat="42.1932191402" lon="13.4051060770"><ele>1810.72</ele><time>2026-03-11T14:59:37Z</time><extensions><gpxtpx:TrackPointExtension><gpxtpx:atemp>3.0</gpxtpx:atemp></gpxtpx:TrackPointExtension></extensions></trkpt><trkpt lat="42.1932192240" lon="13.4051059932"><ele>1810.71</ele><time>2026-03-11T14:59:38Z</time><extensions><gpxtpx:TrackPointExtension><gpxtpx:atemp>3.0</gpxtpx:atemp></gpxtpx:TrackPointExtension></extensions></trkpt><trkpt lat="42.1932190564" lon="13.4051060770"><ele>1810.71</ele><time>2026-03-11T14:59:39Z</time><extensions><gpxtpx:TrackPointExtension><gpxtpx:atemp>3.0</gpxtpx:atemp></gpxtpx:TrackPointExtension></extensions></trkpt><trkpt lat="42.1932191402" lon="13.4051057417"><ele>1810.71</ele><time>2026-03-11T14:59:40Z</time><extensions><gpxtpx:TrackPointExtension><gpxtpx:atemp>3.0</gpxtpx:atemp></gpxtpx:TrackPointExtension></extensions></trkpt><trkpt lat="42.1932193916" lon="13.4051057417"><ele>1810.68</ele><time>2026-03-11T14:59:41Z</time><extensions><gpxtpx:TrackPointExtension><gpxtpx:atemp>3.0</gpxtpx:atemp></gpxtpx:TrackPointExtension></extensions></trkpt><trkpt lat="42.1932192240" lon="13.4051054902"><ele>1810.60</ele><time>2026-03-11T14:59:42Z</time><extensions><gpxtpx:TrackPointExtension><gpxtpx:atemp>3.0</gpxtpx:atemp></gpxtpx:TrackPointExtension></extensions></trkpt><trkpt lat="42.1932199784" lon="13.4051052388"><ele>1810.56</ele><time>2026-03-11T14:59:43Z</time><extensions><gpxtpx:TrackPointExtension><gpxtpx:atemp>3.0</gpxtpx:atemp></gpxtpx:TrackPointExtension></extensions></trkpt><trkpt lat="42.1932206489" lon="13.4051050711"><ele>1810.54</ele><time>2026-03-11T14:59:44Z</time><extensions><gpxtpx:TrackPointExtension><gpxtpx:atemp>3.0</gpxtpx:atemp></gpxtpx:TrackPointExtension></extensions></trkpt><trkpt lat="42.1932204813" lon="13.4051053226"><ele>1810.54</ele><time>2026-03-11T14:59:45Z</time><extensions><gpxtpx:TrackPointExtension><gpxtpx:atemp>3.0</gpxtpx:atemp></gpxtpx:TrackPointExtension></extensions></trkpt><trkpt lat="42.1932205651" lon="13.4051054902"><ele>1810.54</ele><time>2026-03-11T14:59:46Z</time><extensions><gpxtpx:TrackPointExtension><gpxtpx:atemp>3.0</gpxtpx:atemp></gpxtpx:TrackPointExtension></extensions></trkpt><trkpt lat="42.1932207327" lon="13.4051056579"><ele>1810.57</ele><time>2026-03-11T14:59:47Z</time><extensions><gpxtpx:TrackPointExtension><gpxtpx:atemp>3.0</gpxtpx:atemp></gpxtpx:TrackPointExtension></extensions></trkpt><trkpt lat="42.1932209842" lon="13.4051056579"><ele>1810.59</ele><time>2026-03-11T14:59:48Z</time><extensions><gpxtpx:TrackPointExtension><gpxtpx:atemp>3.0</gpxtpx:atemp></gpxtpx:TrackPointExtension></extensions></trkpt><trkpt lat="42.1932205651" lon="13.4051058255"><ele>1810.59</ele><time>2026-03-11T14:59:49Z</time><extensions><gpxtpx:TrackPointExtension><gpxtpx:atemp>3.0</gpxtpx:atemp></gpxtpx:TrackPointExtension></extensions></trkpt><trkpt lat="42.1932205651" lon="13.4051055741"><ele>1810.59</ele><time>2026-03-11T14:59:50Z</time><extensions><gpxtpx:TrackPointExtension><gpxtpx:atemp>3.0</gpxtpx:atemp></gpxtpx:TrackPointExtension></extensions></trkpt><trkpt lat="42.1932206489" lon="13.4051053226"><ele>1810.59</ele><time>2026-03-11T14:59:51Z</time><extensions><gpxtpx:TrackPointExtension><gpxtpx:atemp>3.0</gpxtpx:atemp></gpxtpx:TrackPointExtension></extensions></trkpt><trkpt lat="42.1932205651" lon="13.4051058255"><ele>1810.59</ele><time>2026-03-11T14:59:52Z</time><extensions><gpxtpx:TrackPointExtension><gpxtpx:atemp>3.0</gpxtpx:atemp></gpxtpx:TrackPointExtension></extensions></trkpt><trkpt lat="42.1932204813" lon="13.4051054902"><ele>1810.56</ele><time>2026-03-11T14:59:53Z</time><extensions><gpxtpx:TrackPointExtension><gpxtpx:atemp>3.0</gpxtpx:atemp></gpxtpx:TrackPointExtension></extensions></trkpt><trkpt lat="42.1932204813" lon="13.4051057417"><ele>1810.56</ele><time>2026-03-11T14:59:54Z</time><extensions><gpxtpx:TrackPointExtension><gpxtpx:atemp>3.0</gpxtpx:atemp></gpxtpx:TrackPointExtension></extensions></trkpt><trkpt lat="42.1932204813" lon="13.4051058255"><ele>1810.56</ele><time>2026-03-11T14:59:55Z</time><extensions><gpxtpx:TrackPointExtension><gpxtpx:atemp>3.0</gpxtpx:atemp></gpxtpx:TrackPointExtension></extensions></trkpt><trkpt lat="42.1932203975" lon="13.4051055741"><ele>1810.56</ele><time>2026-03-11T14:59:56Z</time><extensions><gpxtpx:TrackPointExtension><gpxtpx:atemp>3.0</gpxtpx:atemp></gpxtpx:TrackPointExtension></extensions></trkpt><trkpt lat="42.1932203975" lon="13.4051059932"><ele>1810.58</ele><time>2026-03-11T14:59:57Z</time><extensions><gpxtpx:TrackPointExtension><gpxtpx:atemp>3.0</gpxtpx:atemp></gpxtpx:TrackPointExtension></extensions></trkpt><trkpt lat="42.1932201460" lon="13.4051059932"><ele>1810.58</ele><time>2026-03-11T14:59:58Z</time><extensions><gpxtpx:TrackPointExtension><gpxtpx:atemp>3.0</gpxtpx:atemp></gpxtpx:TrackPointExtension></extensions></trkpt><trkpt lat="42.1932201460" lon="13.4051055741"><ele>1810.60</ele><time>2026-03-11T14:59:59Z</time><extensions><gpxtpx:TrackPointExtension><gpxtpx:atemp>3.0</gpxtpx:atemp></gpxtpx:TrackPointExtension></extensions></trkpt><trkpt lat="42.1932201460" lon="13.4051054902"><ele>1810.60</ele><time>2026-03-11T15:00:00Z</time><extensions><gpxtpx:TrackPointExtension><gpxtpx:atemp>3.0</gpxtpx:atemp></gpxtpx:TrackPointExtension></extensions></trkpt><trkpt lat="42.1932199784" lon="13.4051053226"><ele>1810.60</ele><time>2026-03-11T15:00:01Z</time><extensions><gpxtpx:TrackPointExtension><gpxtpx:atemp>3.0</gpxtpx:atemp></gpxtpx:TrackPointExtension></extensions></trkpt><trkpt lat="42.1932200622" lon="13.4051053226"><ele>1810.60</ele><time>2026-03-11T15:00:02Z</time><extensions><gpxtpx:TrackPointExtension><gpxtpx:atemp>3.0</gpxtpx:atemp></gpxtpx:TrackPointExtension></extensions></trkpt><trkpt lat="42.1932200622" lon="13.4051054902"><ele>1810.60</ele><time>2026-03-11T15:00:03Z</time><extensions><gpxtpx:TrackPointExtension><gpxtpx:atemp>3.0</gpxtpx:atemp></gpxtpx:TrackPointExtension></extensions></trkpt><trkpt lat="42.1932201460" lon="13.4051052388"><ele>1810.60</ele><time>2026-03-11T15:00:04Z</time><extensions><gpxtpx:TrackPointExtension><gpxtpx:atemp>3.0</gpxtpx:atemp></gpxtpx:TrackPointExtension></extensions></trkpt><trkpt lat="42.1932202298" lon="13.4051053226"><ele>1810.60</ele><time>2026-03-11T15:00:05Z</time><extensions><gpxtpx:TrackPointExtension><gpxtpx:atemp>3.0</gpxtpx:atemp></gpxtpx:TrackPointExtension></extensions></trkpt><trkpt lat="42.1932202298" lon="13.4051052388"><ele>1810.59</ele><time>2026-03-11T15:00:06Z</time><extensions><gpxtpx:TrackPointExtension><gpxtpx:atemp>3.0</gpxtpx:atemp></gpxtpx:TrackPointExtension></extensions></trkpt><trkpt lat="42.1932204813" lon="13.4051050711"><ele>1810.58</ele><time>2026-03-11T15:00:07Z</time><extensions><gpxtpx:TrackPointExtension><gpxtpx:atemp>3.0</gpxtpx:atemp></gpxtpx:TrackPointExtension></extensions></trkpt><trkpt lat="42.1932206489" lon="13.4051049873"><ele>1810.57</ele><time>2026-03-11T15:00:08Z</time><extensions><gpxtpx:TrackPointExtension><gpxtpx:atemp>3.0</gpxtpx:atemp></gpxtpx:TrackPointExtension></extensions></trkpt><trkpt lat="42.1932206489" lon="13.4051048197"><ele>1810.56</ele><time>2026-03-11T15:00:09Z</time><extensions><gpxtpx:TrackPointExtension><gpxtpx:atemp>3.0</gpxtpx:atemp></gpxtpx:TrackPointExtension></extensions></trkpt><trkpt lat="42.1932204813" lon="13.4051050711"><ele>1810.55</ele><time>2026-03-11T15:00:10Z</time><extensions><gpxtpx:TrackPointExtension><gpxtpx:atemp>3.0</gpxtpx:atemp></gpxtpx:TrackPointExtension></extensions></trkpt><trkpt lat="42.1932206489" lon="13.4051049873"><ele>1810.55</ele><time>2026-03-11T15:00:11Z</time><extensions><gpxtpx:TrackPointExtension><gpxtpx:atemp>3.0</gpxtpx:atemp></gpxtpx:TrackPointExtension></extensions></trkpt><trkpt lat="42.1932204813" lon="13.4051048197"><ele>1810.55</ele><time>2026-03-11T15:00:12Z</time><extensions><gpxtpx:TrackPointExtension><gpxtpx:atemp>3.0</gpxtpx:atemp></gpxtpx:TrackPointExtension></extensions></trkpt><trkpt lat="42.1932209842" lon="13.4051050711"><ele>1810.55</ele><time>2026-03-11T15:00:13Z</time><extensions><gpxtpx:TrackPointExtension><gpxtpx:atemp>3.0</gpxtpx:atemp></gpxtpx:TrackPointExtension></extensions></trkpt><trkpt lat="42.1932211518" lon="13.4051049873"><ele>1810.55</ele><time>2026-03-11T15:00:14Z</time><extensions><gpxtpx:TrackPointExtension><gpxtpx:atemp>3.0</gpxtpx:atemp></gpxtpx:TrackPointExtension></extensions></trkpt><trkpt lat="42.1932214871" lon="13.4051048197"><ele>1810.56</ele><time>2026-03-11T15:00:15Z</time><extensions><gpxtpx:TrackPointExtension><gpxtpx:atemp>3.0</gpxtpx:atemp></gpxtpx:TrackPointExtension></extensions></trkpt><trkpt lat="42.1932217386" lon="13.4051048197"><ele>1810.58</ele><time>2026-03-11T15:00:16Z</time><extensions><gpxtpx:TrackPointExtension><gpxtpx:atemp>3.0</gpxtpx:atemp></gpxtpx:TrackPointExtension></extensions></trkpt><trkpt lat="42.1932219900" lon="13.4051044844"><ele>1810.58</ele><time>2026-03-11T15:00:17Z</time><extensions><gpxtpx:TrackPointExtension><gpxtpx:atemp>3.0</gpxtpx:atemp></gpxtpx:TrackPointExtension></extensions></trkpt><trkpt lat="42.1932219900" lon="13.4051043168"><ele>1810.57</ele><time>2026-03-11T15:00:18Z</time><extensions><gpxtpx:TrackPointExtension><gpxtpx:atemp>3.0</gpxtpx:atemp></gpxtpx:TrackPointExtension></extensions></trkpt><trkpt lat="42.1932215709" lon="13.4051041491"><ele>1810.58</ele><time>2026-03-11T15:00:19Z</time><extensions><gpxtpx:TrackPointExtension><gpxtpx:atemp>3.0</gpxtpx:atemp></gpxtpx:TrackPointExtension></extensions></trkpt><trkpt lat="42.1932213195" lon="13.4051040653"><ele>1810.58</ele><time>2026-03-11T15:00:20Z</time><extensions><gpxtpx:TrackPointExtension><gpxtpx:atemp>3.0</gpxtpx:atemp></gpxtpx:TrackPointExtension></extensions></trkpt><trkpt lat="42.1932216547" lon="13.4051040653"><ele>1810.57</ele><time>2026-03-11T15:00:21Z</time><extensions><gpxtpx:TrackPointExtension><gpxtpx:atemp>3.0</gpxtpx:atemp></gpxtpx:TrackPointExtension></extensions></trkpt><trkpt lat="42.1932216547" lon="13.4051039815"><ele>1810.57</ele><time>2026-03-11T15:00:22Z</time><extensions><gpxtpx:TrackPointExtension><gpxtpx:atemp>3.0</gpxtpx:atemp></gpxtpx:TrackPointExtension></extensions></trkpt><trkpt lat="42.1932223253" lon="13.4051045682"><ele>1810.57</ele><time>2026-03-11T15:00:23Z</time><extensions><gpxtpx:TrackPointExtension><gpxtpx:atemp>3.0</gpxtpx:atemp></gpxtpx:TrackPointExtension></extensions></trkpt><trkpt lat="42.1932224929" lon="13.4051042330"><ele>1810.57</ele><time>2026-03-11T15:00:24Z</time><extensions><gpxtpx:TrackPointExtension><gpxtpx:atemp>3.0</gpxtpx:atemp></gpxtpx:TrackPointExtension></extensions></trkpt><trkpt lat="42.1932224929" lon="13.4051045682"><ele>1810.57</ele><time>2026-03-11T15:00:25Z</time><extensions><gpxtpx:TrackPointExtension><gpxtpx:atemp>3.0</gpxtpx:atemp></gpxtpx:TrackPointExtension></extensions></trkpt><trkpt lat="42.1932223253" lon="13.4051045682"><ele>1810.57</ele><time>2026-03-11T15:00:26Z</time><extensions><gpxtpx:TrackPointExtension><gpxtpx:atemp>3.0</gpxtpx:atemp></gpxtpx:TrackPointExtension></extensions></trkpt><trkpt lat="42.1932222415" lon="13.4051045682"><ele>1810.57</ele><time>2026-03-11T15:00:27Z</time><extensions><gpxtpx:TrackPointExtension><gpxtpx:atemp>3.0</gpxtpx:atemp></gpxtpx:TrackPointExtension></extensions></trkpt><trkpt lat="42.1932222415" lon="13.4051045682"><ele>1810.58</ele><time>2026-03-11T15:00:28Z</time><extensions><gpxtpx:TrackPointExtension><gpxtpx:atemp>3.0</gpxtpx:atemp></gpxtpx:TrackPointExtension></extensions></trkpt><trkpt lat="42.1932222415" lon="13.4051046520"><ele>1810.59</ele><time>2026-03-11T15:00:29Z</time><extensions><gpxtpx:TrackPointExtension><gpxtpx:atemp>3.0</gpxtpx:atemp></gpxtpx:TrackPointExtension></extensions></trkpt><trkpt lat="42.1932219900" lon="13.4051047359"><ele>1810.61</ele><time>2026-03-11T15:00:30Z</time><extensions><gpxtpx:TrackPointExtension><gpxtpx:atemp>3.0</gpxtpx:atemp></gpxtpx:TrackPointExtension></extensions></trkpt><trkpt lat="42.1932218224" lon="13.4051045682"><ele>1810.62</ele><time>2026-03-11T15:00:31Z</time><extensions><gpxtpx:TrackPointExtension><gpxtpx:atemp>3.0</gpxtpx:atemp></gpxtpx:TrackPointExtension></extensions></trkpt><trkpt lat="42.1932215709" lon="13.4051042330"><ele>1810.62</ele><time>2026-03-11T15:00:32Z</time><extensions><gpxtpx:TrackPointExtension><gpxtpx:atemp>3.0</gpxtpx:atemp></gpxtpx:TrackPointExtension></extensions></trkpt><trkpt lat="42.1932216547" lon="13.4051041491"><ele>1810.62</ele><time>2026-03-11T15:00:33Z</time><extensions><gpxtpx:TrackPointExtension><gpxtpx:atemp>3.0</gpxtpx:atemp></gpxtpx:TrackPointExtension></extensions></trkpt><trkpt lat="42.1932217386" lon="13.4051038977"><ele>1810.61</ele><time>2026-03-11T15:00:34Z</time><extensions><gpxtpx:TrackPointExtension><gpxtpx:atemp>3.1</gpxtpx:atemp></gpxtpx:TrackPointExtension></extensions></trkpt><trkpt lat="42.1932218224" lon="13.4051038977"><ele>1810.61</ele><time>2026-03-11T15:00:35Z</time><extensions><gpxtpx:TrackPointExtension><gpxtpx:atemp>3.1</gpxtpx:atemp></gpxtpx:TrackPointExtension></extensions></trkpt><trkpt lat="42.1932217386" lon="13.4051038977"><ele>1810.60</ele><time>2026-03-11T15:00:36Z</time><extensions><gpxtpx:TrackPointExtension><gpxtpx:atemp>3.1</gpxtpx:atemp></gpxtpx:TrackPointExtension></extensions></trkpt><trkpt lat="42.1932216547" lon="13.4051034786"><ele>1810.59</ele><time>2026-03-11T15:00:37Z</time><extensions><gpxtpx:TrackPointExtension><gpxtpx:atemp>3.1</gpxtpx:atemp></gpxtpx:TrackPointExtension></extensions></trkpt><trkpt lat="42.1932216547" lon="13.4051037300"><ele>1810.58</ele><time>2026-03-11T15:00:38Z</time><extensions><gpxtpx:TrackPointExtension><gpxtpx:atemp>3.1</gpxtpx:atemp></gpxtpx:TrackPointExtension></extensions></trkpt><trkpt lat="42.1932218224" lon="13.4051038977"><ele>1810.54</ele><time>2026-03-11T15:00:39Z</time><extensions><gpxtpx:TrackPointExtension><gpxtpx:atemp>3.1</gpxtpx:atemp></gpxtpx:TrackPointExtension></extensions></trkpt><trkpt lat="42.1932223253" lon="13.4051040653"><ele>1810.53</ele><time>2026-03-11T15:00:40Z</time><extensions><gpxtpx:TrackPointExtension><gpxtpx:atemp>3.1</gpxtpx:atemp></gpxtpx:TrackPointExtension></extensions></trkpt><trkpt lat="42.1932222415" lon="13.4051039815"><ele>1810.53</ele><time>2026-03-11T15:00:41Z</time><extensions><gpxtpx:TrackPointExtension><gpxtpx:atemp>3.1</gpxtpx:atemp></gpxtpx:TrackPointExtension></extensions></trkpt><trkpt lat="42.1932222415" lon="13.4051040653"><ele>1810.53</ele><time>2026-03-11T15:00:42Z</time><extensions><gpxtpx:TrackPointExtension><gpxtpx:atemp>3.1</gpxtpx:atemp></gpxtpx:TrackPointExtension></extensions></trkpt><trkpt lat="42.1932224929" lon="13.4051041491"><ele>1810.53</ele><time>2026-03-11T15:00:43Z</time><extensions><gpxtpx:TrackPointExtension><gpxtpx:atemp>3.1</gpxtpx:atemp></gpxtpx:TrackPointExtension></extensions></trkpt><trkpt lat="42.1932225768" lon="13.4051040653"><ele>1810.53</ele><time>2026-03-11T15:00:44Z</time><extensions><gpxtpx:TrackPointExtension><gpxtpx:atemp>3.1</gpxtpx:atemp></gpxtpx:TrackPointExtension></extensions></trkpt><trkpt lat="42.1932226606" lon="13.4051040653"><ele>1810.55</ele><time>2026-03-11T15:00:45Z</time><extensions><gpxtpx:TrackPointExtension><gpxtpx:atemp>3.1</gpxtpx:atemp></gpxtpx:TrackPointExtension></extensions></trkpt><trkpt lat="42.1932226606" lon="13.4051039815"><ele>1810.55</ele><time>2026-03-11T15:00:46Z</time><extensions><gpxtpx:TrackPointExtension><gpxtpx:atemp>3.1</gpxtpx:atemp></gpxtpx:TrackPointExtension></extensions></trkpt><trkpt lat="42.1932226606" lon="13.4051039815"><ele>1810.55</ele><time>2026-03-11T15:00:47Z</time><extensions><gpxtpx:TrackPointExtension><gpxtpx:atemp>3.1</gpxtpx:atemp></gpxtpx:TrackPointExtension></extensions></trkpt><trkpt lat="42.1932225768" lon="13.4051040653"><ele>1810.51</ele><time>2026-03-11T15:00:48Z</time><extensions><gpxtpx:TrackPointExtension><gpxtpx:atemp>3.1</gpxtpx:atemp></gpxtpx:TrackPointExtension></extensions></trkpt><trkpt lat="42.1932224929" lon="13.4051040653"><ele>1810.48</ele><time>2026-03-11T15:00:49Z</time><extensions><gpxtpx:TrackPointExtension><gpxtpx:atemp>3.1</gpxtpx:atemp></gpxtpx:TrackPointExtension></extensions></trkpt><trkpt lat="42.1932224929" lon="13.4051039815"><ele>1810.48</ele><time>2026-03-11T15:00:50Z</time><extensions><gpxtpx:TrackPointExtension><gpxtpx:atemp>3.1</gpxtpx:atemp></gpxtpx:TrackPointExtension></extensions></trkpt><trkpt lat="42.1932224929" lon="13.4051038977"><ele>1810.46</ele><time>2026-03-11T15:00:51Z</time><extensions><gpxtpx:TrackPointExtension><gpxtpx:atemp>3.1</gpxtpx:atemp></gpxtpx:TrackPointExtension></extensions></trkpt><trkpt lat="42.1932222415" lon="13.4051040653"><ele>1810.46</ele><time>2026-03-11T15:00:52Z</time><extensions><gpxtpx:TrackPointExtension><gpxtpx:atemp>3.1</gpxtpx:atemp></gpxtpx:TrackPointExtension></extensions></trkpt><trkpt lat="42.1932224929" lon="13.4051039815"><ele>1810.46</ele><time>2026-03-11T15:00:53Z</time><extensions><gpxtpx:TrackPointExtension><gpxtpx:atemp>3.1</gpxtpx:atemp></gpxtpx:TrackPointExtension></extensions></trkpt><trkpt lat="42.1932225768" lon="13.4051041491"><ele>1810.49</ele><time>2026-03-11T15:00:54Z</time><extensions><gpxtpx:TrackPointExtension><gpxtpx:atemp>3.1</gpxtpx:atemp></gpxtpx:TrackPointExtension></extensions></trkpt><trkpt lat="42.1932224929" lon="13.4051042330"><ele>1810.50</ele><time>2026-03-11T15:00:55Z</time><extensions><gpxtpx:TrackPointExtension><gpxtpx:atemp>3.1</gpxtpx:atemp></gpxtpx:TrackPointExtension></extensions></trkpt><trkpt lat="42.1932225768" lon="13.4051040653"><ele>1810.51</ele><time>2026-03-11T15:00:56Z</time><extensions><gpxtpx:TrackPointExtension><gpxtpx:atemp>3.1</gpxtpx:atemp></gpxtpx:TrackPointExtension></extensions></trkpt><trkpt lat="42.1932225768" lon="13.4051039815"><ele>1810.52</ele><time>2026-03-11T15:00:57Z</time><extensions><gpxtpx:TrackPointExtension><gpxtpx:atemp>3.1</gpxtpx:atemp></gpxtpx:TrackPointExtension></extensions></trkpt><trkpt lat="42.1932226606" lon="13.4051039815"><ele>1810.53</ele><time>2026-03-11T15:00:58Z</time><extensions><gpxtpx:TrackPointExtension><gpxtpx:atemp>3.1</gpxtpx:atemp></gpxtpx:TrackPointExtension></extensions></trkpt><trkpt lat="42.1932223253" lon="13.4051036462"><ele>1810.52</ele><time>2026-03-11T15:00:59Z</time><extensions><gpxtpx:TrackPointExtension><gpxtpx:atemp>3.1</gpxtpx:atemp></gpxtpx:TrackPointExtension></extensions></trkpt><trkpt lat="42.1932221577" lon="13.4051039815"><ele>1810.53</ele><time>2026-03-11T15:01:00Z</time><extensions><gpxtpx:TrackPointExtension><gpxtpx:atemp>3.1</gpxtpx:atemp></gpxtpx:TrackPointExtension></extensions></trkpt><trkpt lat="42.1932219900" lon="13.4051041491"><ele>1810.53</ele><time>2026-03-11T15:01:01Z</time><extensions><gpxtpx:TrackPointExtension><gpxtpx:atemp>3.1</gpxtpx:atemp></gpxtpx:TrackPointExtension></extensions></trkpt><trkpt lat="42.1932218224" lon="13.4051040653"><ele>1810.50</ele><time>2026-03-11T15:01:02Z</time><extensions><gpxtpx:TrackPointExtension><gpxtpx:atemp>3.1</gpxtpx:atemp></gpxtpx:TrackPointExtension></extensions></trkpt><trkpt lat="42.1932220738" lon="13.4051038977"><ele>1810.45</ele><time>2026-03-11T15:01:03Z</time><extensions><gpxtpx:TrackPointExtension><gpxtpx:atemp>3.1</gpxtpx:atemp></gpxtpx:TrackPointExtension></extensions></trkpt><trkpt lat="42.1932220738" lon="13.4051039815"><ele>1810.41</ele><time>2026-03-11T15:01:04Z</time><extensions><gpxtpx:TrackPointExtension><gpxtpx:atemp>3.1</gpxtpx:atemp></gpxtpx:TrackPointExtension></extensions></trkpt><trkpt lat="42.1932219900" lon="13.4051040653"><ele>1810.41</ele><time>2026-03-11T15:01:05Z</time><extensions><gpxtpx:TrackPointExtension><gpxtpx:atemp>3.1</gpxtpx:atemp></gpxtpx:TrackPointExtension></extensions></trkpt><trkpt lat="42.1932225768" lon="13.4051038977"><ele>1810.41</ele><time>2026-03-11T15:01:06Z</time><extensions><gpxtpx:TrackPointExtension><gpxtpx:atemp>3.1</gpxtpx:atemp></gpxtpx:TrackPointExtension></extensions></trkpt><trkpt lat="42.1932226606" lon="13.4051039815"><ele>1810.38</ele><time>2026-03-11T15:01:07Z</time><extensions><gpxtpx:TrackPointExtension><gpxtpx:atemp>3.1</gpxtpx:atemp></gpxtpx:TrackPointExtension></extensions></trkpt><trkpt lat="42.1932220738" lon="13.4051037300"><ele>1810.38</ele><time>2026-03-11T15:01:08Z</time><extensions><gpxtpx:TrackPointExtension><gpxtpx:atemp>3.1</gpxtpx:atemp></gpxtpx:TrackPointExtension></extensions></trkpt><trkpt lat="42.1932217386" lon="13.4051040653"><ele>1810.40</ele><time>2026-03-11T15:01:09Z</time><extensions><gpxtpx:TrackPointExtension><gpxtpx:atemp>3.1</gpxtpx:atemp></gpxtpx:TrackPointExtension></extensions></trkpt><trkpt lat="42.1932223253" lon="13.4051038977"><ele>1810.41</ele><time>2026-03-11T15:01:10Z</time><extensions><gpxtpx:TrackPointExtension><gpxtpx:atemp>3.1</gpxtpx:atemp></gpxtpx:TrackPointExtension></extensions></trkpt><trkpt lat="42.1932223253" lon="13.4051040653"><ele>1810.41</ele><time>2026-03-11T15:01:11Z</time><extensions><gpxtpx:TrackPointExtension><gpxtpx:atemp>3.1</gpxtpx:atemp></gpxtpx:TrackPointExtension></extensions></trkpt><trkpt lat="42.1932220738" lon="13.4051043168"><ele>1810.39</ele><time>2026-03-11T15:01:12Z</time><extensions><gpxtpx:TrackPointExtension><gpxtpx:atemp>3.1</gpxtpx:atemp></gpxtpx:TrackPointExtension></extensions></trkpt><trkpt lat="42.1932227444" lon="13.4051044844"><ele>1810.36</ele><time>2026-03-11T15:01:13Z</time><extensions><gpxtpx:TrackPointExtension><gpxtpx:atemp>3.1</gpxtpx:atemp></gpxtpx:TrackPointExtension></extensions></trkpt><trkpt lat="42.1932225768" lon="13.4051046520"><ele>1810.35</ele><time>2026-03-11T15:01:14Z</time><extensions><gpxtpx:TrackPointExtension><gpxtpx:atemp>3.1</gpxtpx:atemp></gpxtpx:TrackPointExtension></extensions></trkpt><trkpt lat="42.1932226606" lon="13.4051047359"><ele>1810.35</ele><time>2026-03-11T15:01:15Z</time><extensions><gpxtpx:TrackPointExtension><gpxtpx:atemp>3.1</gpxtpx:atemp></gpxtpx:TrackPointExtension></extensions></trkpt><trkpt lat="42.1932225768" lon="13.4051044844"><ele>1810.35</ele><time>2026-03-11T15:01:16Z</time><extensions><gpxtpx:TrackPointExtension><gpxtpx:atemp>3.1</gpxtpx:atemp></gpxtpx:TrackPointExtension></extensions></trkpt><trkpt lat="42.1932226606" lon="13.4051044844"><ele>1810.35</ele><time>2026-03-11T15:01:17Z</time><extensions><gpxtpx:TrackPointExtension><gpxtpx:atemp>3.1</gpxtpx:atemp></gpxtpx:TrackPointExtension></extensions></trkpt><trkpt lat="42.1932225768" lon="13.4051045682"><ele>1810.32</ele><time>2026-03-11T15:01:18Z</time><extensions><gpxtpx:TrackPointExtension><gpxtpx:atemp>3.1</gpxtpx:atemp></gpxtpx:TrackPointExtension></extensions></trkpt><trkpt lat="42.1932224929" lon="13.4051049873"><ele>1810.31</ele><time>2026-03-11T15:01:19Z</time><extensions><gpxtpx:TrackPointExtension><gpxtpx:atemp>3.1</gpxtpx:atemp></gpxtpx:TrackPointExtension></extensions></trkpt><trkpt lat="42.1932226606" lon="13.4051048197"><ele>1810.29</ele><time>2026-03-11T15:01:20Z</time><extensions><gpxtpx:TrackPointExtension><gpxtpx:atemp>3.1</gpxtpx:atemp></gpxtpx:TrackPointExtension></extensions></trkpt><trkpt lat="42.1932225768" lon="13.4051047359"><ele>1810.27</ele><time>2026-03-11T15:01:21Z</time><extensions><gpxtpx:TrackPointExtension><gpxtpx:atemp>3.1</gpxtpx:atemp></gpxtpx:TrackPointExtension></extensions></trkpt><trkpt lat="42.1932224929" lon="13.4051048197"><ele>1810.25</ele><time>2026-03-11T15:01:22Z</time><extensions><gpxtpx:TrackPointExtension><gpxtpx:atemp>3.1</gpxtpx:atemp></gpxtpx:TrackPointExtension></extensions></trkpt><trkpt lat="42.1932223253" lon="13.4051049873"><ele>1810.22</ele><time>2026-03-11T15:01:23Z</time><extensions><gpxtpx:TrackPointExtension><gpxtpx:atemp>3.1</gpxtpx:atemp></gpxtpx:TrackPointExtension></extensions></trkpt><trkpt lat="42.1932222415" lon="13.4051046520"><ele>1810.19</ele><time>2026-03-11T15:01:24Z</time><extensions><gpxtpx:TrackPointExtension><gpxtpx:atemp>3.1</gpxtpx:atemp></gpxtpx:TrackPointExtension></extensions></trkpt><trkpt lat="42.1932222415" lon="13.4051046520"><ele>1810.12</ele><time>2026-03-11T15:01:25Z</time><extensions><gpxtpx:TrackPointExtension><gpxtpx:atemp>3.1</gpxtpx:atemp></gpxtpx:TrackPointExtension></extensions></trkpt><trkpt lat="42.1932228282" lon="13.4051019698"><ele>1810.11</ele><time>2026-03-11T15:01:26Z</time><extensions><gpxtpx:TrackPointExtension><gpxtpx:atemp>3.1</gpxtpx:atemp></gpxtpx:TrackPointExtension></extensions></trkpt><trkpt lat="42.1932219900" lon="13.4051037300"><ele>1810.10</ele><time>2026-03-11T15:01:27Z</time><extensions><gpxtpx:TrackPointExtension><gpxtpx:atemp>3.1</gpxtpx:atemp></gpxtpx:TrackPointExtension></extensions></trkpt><trkpt lat="42.1932227444" lon="13.4051027242"><ele>1810.10</ele><time>2026-03-11T15:01:28Z</time><extensions><gpxtpx:TrackPointExtension><gpxtpx:atemp>3.1</gpxtpx:atemp></gpxtpx:TrackPointExtension></extensions></trkpt><trkpt lat="42.1932240855" lon="13.4051011316"><ele>1810.10</ele><time>2026-03-11T15:01:29Z</time><extensions><gpxtpx:TrackPointExtension><gpxtpx:atemp>3.1</gpxtpx:atemp></gpxtpx:TrackPointExtension></extensions></trkpt><trkpt lat="42.1932248399" lon="13.4051019698"><ele>1810.12</ele><time>2026-03-11T15:01:30Z</time><extensions><gpxtpx:TrackPointExtension><gpxtpx:atemp>3.1</gpxtpx:atemp></gpxtpx:TrackPointExtension></extensions></trkpt><trkpt lat="42.1932252590" lon="13.4051016346"><ele>1810.18</ele><time>2026-03-11T15:01:31Z</time><extensions><gpxtpx:TrackPointExtension><gpxtpx:atemp>3.1</gpxtpx:atemp></gpxtpx:TrackPointExtension></extensions></trkpt><trkpt lat="42.1932241693" lon="13.4051011316"><ele>1810.28</ele><time>2026-03-11T15:01:32Z</time><extensions><gpxtpx:TrackPointExtension><gpxtpx:atemp>3.1</gpxtpx:atemp></gpxtpx:TrackPointExtension></extensions></trkpt><trkpt lat="42.1932239179" lon="13.4051023889"><ele>1810.33</ele><time>2026-03-11T15:01:33Z</time><extensions><gpxtpx:TrackPointExtension><gpxtpx:atemp>3.1</gpxtpx:atemp></gpxtpx:TrackPointExtension></extensions></trkpt><trkpt lat="42.1932238340" lon="13.4051029757"><ele>1810.40</ele><time>2026-03-11T15:01:34Z</time><extensions><gpxtpx:TrackPointExtension><gpxtpx:atemp>2.9</gpxtpx:atemp></gpxtpx:TrackPointExtension></extensions></trkpt><trkpt lat="42.1932232473" lon="13.4051022213"><ele>1810.41</ele><time>2026-03-11T15:01:35Z</time><extensions><gpxtpx:TrackPointExtension><gpxtpx:atemp>2.9</gpxtpx:atemp></gpxtpx:TrackPointExtension></extensions></trkpt><trkpt lat="42.1932227444" lon="13.4051015507"><ele>1810.42</ele><time>2026-03-11T15:01:36Z</time><extensions><gpxtpx:TrackPointExtension><gpxtpx:atemp>2.9</gpxtpx:atemp></gpxtpx:TrackPointExtension></extensions></trkpt><trkpt lat="42.1932232473" lon="13.4051004611"><ele>1810.44</ele><time>2026-03-11T15:01:37Z</time><extensions><gpxtpx:TrackPointExtension><gpxtpx:atemp>2.9</gpxtpx:atemp></gpxtpx:TrackPointExtension></extensions></trkpt><trkpt lat="42.1932232473" lon="13.4050999582"><ele>1810.44</ele><time>2026-03-11T15:01:38Z</time><extensions><gpxtpx:TrackPointExtension><gpxtpx:atemp>2.9</gpxtpx:atemp></gpxtpx:TrackPointExtension></extensions></trkpt><trkpt lat="42.1932230797" lon="13.4050997905"><ele>1810.45</ele><time>2026-03-11T15:01:39Z</time><extensions><gpxtpx:TrackPointExtension><gpxtpx:atemp>2.9</gpxtpx:atemp></gpxtpx:TrackPointExtension></extensions></trkpt><trkpt lat="42.1932229958" lon="13.4050997905"><ele>1810.46</ele><time>2026-03-11T15:01:40Z</time><extensions><gpxtpx:TrackPointExtension><gpxtpx:atemp>2.9</gpxtpx:atemp></gpxtpx:TrackPointExtension></extensions></trkpt><trkpt lat="42.1932228282" lon="13.4050997905"><ele>1810.48</ele><time>2026-03-11T15:01:41Z</time><extensions><gpxtpx:TrackPointExtension><gpxtpx:atemp>2.9</gpxtpx:atemp></gpxtpx:TrackPointExtension></extensions></trkpt><trkpt lat="42.1932229958" lon="13.4051000420"><ele>1810.51</ele><time>2026-03-11T15:01:42Z</time><extensions><gpxtpx:TrackPointExtension><gpxtpx:atemp>2.9</gpxtpx:atemp></gpxtpx:TrackPointExtension></extensions></trkpt><trkpt lat="42.1932226606" lon="13.4051001258"><ele>1810.54</ele><time>2026-03-11T15:01:43Z</time><extensions><gpxtpx:TrackPointExtension><gpxtpx:atemp>2.9</gpxtpx:atemp></gpxtpx:TrackPointExtension></extensions></trkpt><trkpt lat="42.1932227444" lon="13.4050999582"><ele>1810.56</ele><time>2026-03-11T15:01:44Z</time><extensions><gpxtpx:TrackPointExtension><gpxtpx:atemp>2.9</gpxtpx:atemp></gpxtpx:TrackPointExtension></extensions></trkpt><trkpt lat="42.1932228282" lon="13.4050995391"><ele>1810.57</ele><time>2026-03-11T15:01:45Z</time><extensions><gpxtpx:TrackPointExtension><gpxtpx:atemp>2.9</gpxtpx:atemp></gpxtpx:TrackPointExtension></extensions></trkpt><trkpt lat="42.1932226606" lon="13.4050995391"><ele>1810.57</ele><time>2026-03-11T15:01:46Z</time><extensions><gpxtpx:TrackPointExtension><gpxtpx:atemp>2.9</gpxtpx:atemp></gpxtpx:TrackPointExtension></extensions></trkpt><trkpt lat="42.1932224929" lon="13.4050998744"><ele>1810.57</ele><time>2026-03-11T15:01:47Z</time><extensions><gpxtpx:TrackPointExtension><gpxtpx:atemp>2.9</gpxtpx:atemp></gpxtpx:TrackPointExtension></extensions></trkpt><trkpt lat="42.1932226606" lon="13.4051002935"><ele>1810.62</ele><time>2026-03-11T15:01:48Z</time><extensions><gpxtpx:TrackPointExtension><gpxtpx:atemp>2.9</gpxtpx:atemp></gpxtpx:TrackPointExtension></extensions></trkpt><trkpt lat="42.1932225768" lon="13.4051002935"><ele>1810.60</ele><time>2026-03-11T15:01:49Z</time><extensions><gpxtpx:TrackPointExtension><gpxtpx:atemp>2.9</gpxtpx:atemp></gpxtpx:TrackPointExtension></extensions></trkpt><trkpt lat="42.1932234988" lon="13.4051002935"><ele>1810.60</ele><time>2026-03-11T15:01:50Z</time><extensions><gpxtpx:TrackPointExtension><gpxtpx:atemp>2.9</gpxtpx:atemp></gpxtpx:TrackPointExtension></extensions></trkpt><trkpt lat="42.1932234988" lon="13.4051008802"><ele>1810.60</ele><time>2026-03-11T15:01:51Z</time><extensions><gpxtpx:TrackPointExtension><gpxtpx:atemp>2.9</gpxtpx:atemp></gpxtpx:TrackPointExtension></extensions></trkpt><trkpt lat="42.1932235826" lon="13.4051006287"><ele>1810.60</ele><time>2026-03-11T15:01:52Z</time><extensions><gpxtpx:TrackPointExtension><gpxtpx:atemp>2.9</gpxtpx:atemp></gpxtpx:TrackPointExtension></extensions></trkpt><trkpt lat="42.1932229958" lon="13.4051004611"><ele>1810.62</ele><time>2026-03-11T15:01:53Z</time><extensions><gpxtpx:TrackPointExtension><gpxtpx:atemp>2.9</gpxtpx:atemp></gpxtpx:TrackPointExtension></extensions></trkpt><trkpt lat="42.1932230797" lon="13.4051002935"><ele>1810.61</ele><time>2026-03-11T15:01:54Z</time><extensions><gpxtpx:TrackPointExtension><gpxtpx:atemp>2.9</gpxtpx:atemp></gpxtpx:TrackPointExtension></extensions></trkpt><trkpt lat="42.1932230797" lon="13.4051002935"><ele>1810.59</ele><time>2026-03-11T15:01:55Z</time><extensions><gpxtpx:TrackPointExtension><gpxtpx:atemp>2.9</gpxtpx:atemp></gpxtpx:TrackPointExtension></extensions></trkpt><trkpt lat="42.1932231635" lon="13.4051004611"><ele>1810.58</ele><time>2026-03-11T15:01:56Z</time><extensions><gpxtpx:TrackPointExtension><gpxtpx:atemp>2.9</gpxtpx:atemp></gpxtpx:TrackPointExtension></extensions></trkpt><trkpt lat="42.1932225768" lon="13.4051004611"><ele>1810.58</ele><time>2026-03-11T15:01:57Z</time><extensions><gpxtpx:TrackPointExtension><gpxtpx:atemp>2.9</gpxtpx:atemp></gpxtpx:TrackPointExtension></extensions></trkpt><trkpt lat="42.1932221577" lon="13.4051004611"><ele>1810.60</ele><time>2026-03-11T15:01:58Z</time><extensions><gpxtpx:TrackPointExtension><gpxtpx:atemp>2.9</gpxtpx:atemp></gpxtpx:TrackPointExtension></extensions></trkpt><trkpt lat="42.1932226606" lon="13.4051007964"><ele>1810.60</ele><time>2026-03-11T15:01:59Z</time><extensions><gpxtpx:TrackPointExtension><gpxtpx:atemp>2.9</gpxtpx:atemp></gpxtpx:TrackPointExtension></extensions></trkpt><trkpt lat="42.1932224929" lon="13.4051008802"><ele>1810.58</ele><time>2026-03-11T15:02:00Z</time><extensions><gpxtpx:TrackPointExtension><gpxtpx:atemp>2.9</gpxtpx:atemp></gpxtpx:TrackPointExtension></extensions></trkpt><trkpt lat="42.1932226606" lon="13.4051013831"><ele>1810.60</ele><time>2026-03-11T15:02:01Z</time><extensions><gpxtpx:TrackPointExtension><gpxtpx:atemp>2.9</gpxtpx:atemp></gpxtpx:TrackPointExtension></extensions></trkpt><trkpt lat="42.1932217386" lon="13.4051014669"><ele>1810.63</ele><time>2026-03-11T15:02:02Z</time><extensions><gpxtpx:TrackPointExtension><gpxtpx:atemp>2.9</gpxtpx:atemp></gpxtpx:TrackPointExtension></extensions></trkpt><trkpt lat="42.1932214871" lon="13.4051016346"><ele>1810.63</ele><time>2026-03-11T15:02:03Z</time><extensions><gpxtpx:TrackPointExtension><gpxtpx:atemp>2.9</gpxtpx:atemp></gpxtpx:TrackPointExtension></extensions></trkpt><trkpt lat="42.1932221577" lon="13.4051015507"><ele>1810.64</ele><time>2026-03-11T15:02:04Z</time><extensions><gpxtpx:TrackPointExtension><gpxtpx:atemp>2.9</gpxtpx:atemp></gpxtpx:TrackPointExtension></extensions></trkpt><trkpt lat="42.1932222415" lon="13.4051015507"><ele>1810.68</ele><time>2026-03-11T15:02:05Z</time><extensions><gpxtpx:TrackPointExtension><gpxtpx:atemp>2.9</gpxtpx:atemp></gpxtpx:TrackPointExtension></extensions></trkpt><trkpt lat="42.1932220738" lon="13.4051016346"><ele>1810.71</ele><time>2026-03-11T15:02:06Z</time><extensions><gpxtpx:TrackPointExtension><gpxtpx:atemp>2.9</gpxtpx:atemp></gpxtpx:TrackPointExtension></extensions></trkpt><trkpt lat="42.1932213195" lon="13.4051018860"><ele>1810.73</ele><time>2026-03-11T15:02:07Z</time><extensions><gpxtpx:TrackPointExtension><gpxtpx:atemp>2.9</gpxtpx:atemp></gpxtpx:TrackPointExtension></extensions></trkpt><trkpt lat="42.1932215709" lon="13.4051020537"><ele>1810.73</ele><time>2026-03-11T15:02:08Z</time><extensions><gpxtpx:TrackPointExtension><gpxtpx:atemp>2.9</gpxtpx:atemp></gpxtpx:TrackPointExtension></extensions></trkpt><trkpt lat="42.1932218224" lon="13.4051018860"><ele>1810.68</ele><time>2026-03-11T15:02:09Z</time><extensions><gpxtpx:TrackPointExtension><gpxtpx:atemp>2.9</gpxtpx:atemp></gpxtpx:TrackPointExtension></extensions></trkpt><trkpt lat="42.1932219900" lon="13.4051018860"><ele>1810.65</ele><time>2026-03-11T15:02:10Z</time><extensions><gpxtpx:TrackPointExtension><gpxtpx:atemp>2.9</gpxtpx:atemp></gpxtpx:TrackPointExtension></extensions></trkpt><trkpt lat="42.1932220738" lon="13.4051017184"><ele>1810.61</ele><time>2026-03-11T15:02:11Z</time><extensions><gpxtpx:TrackPointExtension><gpxtpx:atemp>2.9</gpxtpx:atemp></gpxtpx:TrackPointExtension></extensions></trkpt><trkpt lat="42.1932212356" lon="13.4051018860"><ele>1810.60</ele><time>2026-03-11T15:02:12Z</time><extensions><gpxtpx:TrackPointExtension><gpxtpx:atemp>2.9</gpxtpx:atemp></gpxtpx:TrackPointExtension></extensions></trkpt><trkpt lat="42.1932212356" lon="13.4051019698"><ele>1810.60</ele><time>2026-03-11T15:02:13Z</time><extensions><gpxtpx:TrackPointExtension><gpxtpx:atemp>2.9</gpxtpx:atemp></gpxtpx:TrackPointExtension></extensions></trkpt><trkpt lat="42.1932218224" lon="13.4051016346"><ele>1810.60</ele><time>2026-03-11T15:02:14Z</time><extensions><gpxtpx:TrackPointExtension><gpxtpx:atemp>2.9</gpxtpx:atemp></gpxtpx:TrackPointExtension></extensions></trkpt><trkpt lat="42.1932224929" lon="13.4051015507"><ele>1810.60</ele><time>2026-03-11T15:02:15Z</time><extensions><gpxtpx:TrackPointExtension><gpxtpx:atemp>2.9</gpxtpx:atemp></gpxtpx:TrackPointExtension></extensions></trkpt><trkpt lat="42.1932223253" lon="13.4051013831"><ele>1810.60</ele><time>2026-03-11T15:02:16Z</time><extensions><gpxtpx:TrackPointExtension><gpxtpx:atemp>2.9</gpxtpx:atemp></gpxtpx:TrackPointExtension></extensions></trkpt><trkpt lat="42.1932219900" lon="13.4051011316"><ele>1810.62</ele><time>2026-03-11T15:02:17Z</time><extensions><gpxtpx:TrackPointExtension><gpxtpx:atemp>2.9</gpxtpx:atemp></gpxtpx:TrackPointExtension></extensions></trkpt><trkpt lat="42.1932219900" lon="13.4051010478"><ele>1810.67</ele><time>2026-03-11T15:02:18Z</time><extensions><gpxtpx:TrackPointExtension><gpxtpx:atemp>2.9</gpxtpx:atemp></gpxtpx:TrackPointExtension></extensions></trkpt><trkpt lat="42.1932220738" lon="13.4051011316"><ele>1810.71</ele><time>2026-03-11T15:02:19Z</time><extensions><gpxtpx:TrackPointExtension><gpxtpx:atemp>2.9</gpxtpx:atemp></gpxtpx:TrackPointExtension></extensions></trkpt><trkpt lat="42.1932221577" lon="13.4051009640"><ele>1810.71</ele><time>2026-03-11T15:02:20Z</time><extensions><gpxtpx:TrackPointExtension><gpxtpx:atemp>2.9</gpxtpx:atemp></gpxtpx:TrackPointExtension></extensions></trkpt><trkpt lat="42.1932218224" lon="13.4051009640"><ele>1810.69</ele><time>2026-03-11T15:02:21Z</time><extensions><gpxtpx:TrackPointExtension><gpxtpx:atemp>2.9</gpxtpx:atemp></gpxtpx:TrackPointExtension></extensions></trkpt><trkpt lat="42.1932217386" lon="13.4051008802"><ele>1810.68</ele><time>2026-03-11T15:02:22Z</time><extensions><gpxtpx:TrackPointExtension><gpxtpx:atemp>2.9</gpxtpx:atemp></gpxtpx:TrackPointExtension></extensions></trkpt><trkpt lat="42.1932216547" lon="13.4051008802"><ele>1810.66</ele><time>2026-03-11T15:02:23Z</time><extensions><gpxtpx:TrackPointExtension><gpxtpx:atemp>2.9</gpxtpx:atemp></gpxtpx:TrackPointExtension></extensions></trkpt><trkpt lat="42.1932219900" lon="13.4051009640"><ele>1810.63</ele><time>2026-03-11T15:02:24Z</time><extensions><gpxtpx:TrackPointExtension><gpxtpx:atemp>2.9</gpxtpx:atemp></gpxtpx:TrackPointExtension></extensions></trkpt><trkpt lat="42.1932219900" lon="13.4051010478"><ele>1810.63</ele><time>2026-03-11T15:02:25Z</time><extensions><gpxtpx:TrackPointExtension><gpxtpx:atemp>2.9</gpxtpx:atemp></gpxtpx:TrackPointExtension></extensions></trkpt><trkpt lat="42.1932216547" lon="13.4051011316"><ele>1810.63</ele><time>2026-03-11T15:02:26Z</time><extensions><gpxtpx:TrackPointExtension><gpxtpx:atemp>2.9</gpxtpx:atemp></gpxtpx:TrackPointExtension></extensions></trkpt><trkpt lat="42.1932216547" lon="13.4051013831"><ele>1810.62</ele><time>2026-03-11T15:02:27Z</time><extensions><gpxtpx:TrackPointExtension><gpxtpx:atemp>2.9</gpxtpx:atemp></gpxtpx:TrackPointExtension></extensions></trkpt><trkpt lat="42.1932218224" lon="13.4051012993"><ele>1810.62</ele><time>2026-03-11T15:02:28Z</time><extensions><gpxtpx:TrackPointExtension><gpxtpx:atemp>2.9</gpxtpx:atemp></gpxtpx:TrackPointExtension></extensions></trkpt><trkpt lat="42.1932222415" lon="13.4051012993"><ele>1810.63</ele><time>2026-03-11T15:02:29Z</time><extensions><gpxtpx:TrackPointExtension><gpxtpx:atemp>2.9</gpxtpx:atemp></gpxtpx:TrackPointExtension></extensions></trkpt><trkpt lat="42.1932222415" lon="13.4051011316"><ele>1810.63</ele><time>2026-03-11T15:02:30Z</time><extensions><gpxtpx:TrackPointExtension><gpxtpx:atemp>2.9</gpxtpx:atemp></gpxtpx:TrackPointExtension></extensions></trkpt><trkpt lat="42.1932225768" lon="13.4051012993"><ele>1810.63</ele><time>2026-03-11T15:02:31Z</time><extensions><gpxtpx:TrackPointExtension><gpxtpx:atemp>2.9</gpxtpx:atemp></gpxtpx:TrackPointExtension></extensions></trkpt><trkpt lat="42.1932224929" lon="13.4051015507"><ele>1810.62</ele><time>2026-03-11T15:02:32Z</time><extensions><gpxtpx:TrackPointExtension><gpxtpx:atemp>2.9</gpxtpx:atemp></gpxtpx:TrackPointExtension></extensions></trkpt><trkpt lat="42.1932225768" lon="13.4051018860"><ele>1810.59</ele><time>2026-03-11T15:02:33Z</time><extensions><gpxtpx:TrackPointExtension><gpxtpx:atemp>2.9</gpxtpx:atemp></gpxtpx:TrackPointExtension></extensions></trkpt><trkpt lat="42.1932225768" lon="13.4051021375"><ele>1810.59</ele><time>2026-03-11T15:02:34Z</time><extensions><gpxtpx:TrackPointExtension><gpxtpx:atemp>2.9</gpxtpx:atemp></gpxtpx:TrackPointExtension></extensions></trkpt><trkpt lat="42.1932223253" lon="13.4051022213"><ele>1810.56</ele><time>2026-03-11T15:02:35Z</time><extensions><gpxtpx:TrackPointExtension><gpxtpx:atemp>2.9</gpxtpx:atemp></gpxtpx:TrackPointExtension></extensions></trkpt><trkpt lat="42.1932222415" lon="13.4051017184"><ele>1810.55</ele><time>2026-03-11T15:02:36Z</time><extensions><gpxtpx:TrackPointExtension><gpxtpx:atemp>2.9</gpxtpx:atemp></gpxtpx:TrackPointExtension></extensions></trkpt><trkpt lat="42.1932216547" lon="13.4051013831"><ele>1810.54</ele><time>2026-03-11T15:02:37Z</time><extensions><gpxtpx:TrackPointExtension><gpxtpx:atemp>2.9</gpxtpx:atemp></gpxtpx:TrackPointExtension></extensions></trkpt><trkpt lat="42.1932214871" lon="13.4051014669"><ele>1810.51</ele><time>2026-03-11T15:02:38Z</time><extensions><gpxtpx:TrackPointExtension><gpxtpx:atemp>2.9</gpxtpx:atemp></gpxtpx:TrackPointExtension></extensions></trkpt><trkpt lat="42.1932212356" lon="13.4051015507"><ele>1810.50</ele><time>2026-03-11T15:02:39Z</time><extensions><gpxtpx:TrackPointExtension><gpxtpx:atemp>2.9</gpxtpx:atemp></gpxtpx:TrackPointExtension></extensions></trkpt><trkpt lat="42.1932205651" lon="13.4051037300"><ele>1810.48</ele><time>2026-03-11T15:02:40Z</time><extensions><gpxtpx:TrackPointExtension><gpxtpx:atemp>2.9</gpxtpx:atemp></gpxtpx:TrackPointExtension></extensions></trkpt><trkpt lat="42.1932206489" lon="13.4051042330"><ele>1810.45</ele><time>2026-03-11T15:02:41Z</time><extensions><gpxtpx:TrackPointExtension><gpxtpx:atemp>2.9</gpxtpx:atemp></gpxtpx:TrackPointExtension></extensions></trkpt><trkpt lat="42.1932217386" lon="13.4051044844"><ele>1810.45</ele><time>2026-03-11T15:02:42Z</time><extensions><gpxtpx:TrackPointExtension><gpxtpx:atemp>2.9</gpxtpx:atemp></gpxtpx:TrackPointExtension></extensions></trkpt><trkpt lat="42.1932219900" lon="13.4051062446"><ele>1810.48</ele><time>2026-03-11T15:02:43Z</time><extensions><gpxtpx:TrackPointExtension><gpxtpx:atemp>2.9</gpxtpx:atemp></gpxtpx:TrackPointExtension></extensions></trkpt><trkpt lat="42.1932215709" lon="13.4051082563"><ele>1810.47</ele><time>2026-03-11T15:02:44Z</time><extensions><gpxtpx:TrackPointExtension><gpxtpx:atemp>2.9</gpxtpx:atemp></gpxtpx:TrackPointExtension></extensions></trkpt><trkpt lat="42.1932213195" lon="13.4051096812"><ele>1810.47</ele><time>2026-03-11T15:02:45Z</time><extensions><gpxtpx:TrackPointExtension><gpxtpx:atemp>2.9</gpxtpx:atemp></gpxtpx:TrackPointExtension></extensions></trkpt><trkpt lat="42.1932212356" lon="13.4051102679"><ele>1810.33</ele><time>2026-03-11T15:02:46Z</time><extensions><gpxtpx:TrackPointExtension><gpxtpx:atemp>2.9</gpxtpx:atemp></gpxtpx:TrackPointExtension></extensions></trkpt><trkpt lat="42.1932209842" lon="13.4051098488"><ele>1810.23</ele><time>2026-03-11T15:02:47Z</time><extensions><gpxtpx:TrackPointExtension><gpxtpx:atemp>2.9</gpxtpx:atemp></gpxtpx:TrackPointExtension></extensions></trkpt><trkpt lat="42.1932210680" lon="13.4051103517"><ele>1810.19</ele><time>2026-03-11T15:02:48Z</time><extensions><gpxtpx:TrackPointExtension><gpxtpx:atemp>2.9</gpxtpx:atemp></gpxtpx:TrackPointExtension></extensions></trkpt><trkpt lat="42.1932207327" lon="13.4051112738"><ele>1810.15</ele><time>2026-03-11T15:02:49Z</time><extensions><gpxtpx:TrackPointExtension><gpxtpx:atemp>2.9</gpxtpx:atemp></gpxtpx:TrackPointExtension></extensions></trkpt><trkpt lat="42.1932216547" lon="13.4051131178"><ele>1810.15</ele><time>2026-03-11T15:02:50Z</time><extensions><gpxtpx:TrackPointExtension><gpxtpx:atemp>2.9</gpxtpx:atemp></gpxtpx:TrackPointExtension></extensions></trkpt><trkpt lat="42.1932220738" lon="13.4051140398"><ele>1810.19</ele><time>2026-03-11T15:02:51Z</time><extensions><gpxtpx:TrackPointExtension><gpxtpx:atemp>2.9</gpxtpx:atemp></gpxtpx:TrackPointExtension></extensions></trkpt><trkpt lat="42.1932215709" lon="13.4051145427"><ele>1810.28</ele><time>2026-03-11T15:02:52Z</time><extensions><gpxtpx:TrackPointExtension><gpxtpx:atemp>2.9</gpxtpx:atemp></gpxtpx:TrackPointExtension></extensions></trkpt><trkpt lat="42.1932210680" lon="13.4051146265"><ele>1810.36</ele><time>2026-03-11T15:02:53Z</time><extensions><gpxtpx:TrackPointExtension><gpxtpx:atemp>2.9</gpxtpx:atemp></gpxtpx:TrackPointExtension></extensions></trkpt><trkpt lat="42.1932205651" lon="13.4051155485"><ele>1810.40</ele><time>2026-03-11T15:02:54Z</time><extensions><gpxtpx:TrackPointExtension><gpxtpx:atemp>2.9</gpxtpx:atemp></gpxtpx:TrackPointExtension></extensions></trkpt><trkpt lat="42.1932208166" lon="13.4051149618"><ele>1810.42</ele><time>2026-03-11T15:02:55Z</time><extensions><gpxtpx:TrackPointExtension><gpxtpx:atemp>2.9</gpxtpx:atemp></gpxtpx:TrackPointExtension></extensions></trkpt><trkpt lat="42.1932210680" lon="13.4051140398"><ele>1810.43</ele><time>2026-03-11T15:02:56Z</time><extensions><gpxtpx:TrackPointExtension><gpxtpx:atemp>2.9</gpxtpx:atemp></gpxtpx:TrackPointExtension></extensions></trkpt><trkpt lat="42.1932213195" lon="13.4051138721"><ele>1810.43</ele><time>2026-03-11T15:02:57Z</time><extensions><gpxtpx:TrackPointExtension><gpxtpx:atemp>2.9</gpxtpx:atemp></gpxtpx:TrackPointExtension></extensions></trkpt><trkpt lat="42.1932209842" lon="13.4051133692"><ele>1810.36</ele><time>2026-03-11T15:02:58Z</time><extensions><gpxtpx:TrackPointExtension><gpxtpx:atemp>2.9</gpxtpx:atemp></gpxtpx:TrackPointExtension></extensions></trkpt><trkpt lat="42.1932205651" lon="13.4051138721"><ele>1810.35</ele><time>2026-03-11T15:02:59Z</time><extensions><gpxtpx:TrackPointExtension><gpxtpx:atemp>2.9</gpxtpx:atemp></gpxtpx:TrackPointExtension></extensions></trkpt><trkpt lat="42.1932206489" lon="13.4051134530"><ele>1810.33</ele><time>2026-03-11T15:03:00Z</time><extensions><gpxtpx:TrackPointExtension><gpxtpx:atemp>2.9</gpxtpx:atemp></gpxtpx:TrackPointExtension></extensions></trkpt><trkpt lat="42.1932211518" lon="13.4051134530"><ele>1810.25</ele><time>2026-03-11T15:03:01Z</time><extensions><gpxtpx:TrackPointExtension><gpxtpx:atemp>2.9</gpxtpx:atemp></gpxtpx:TrackPointExtension></extensions></trkpt><trkpt lat="42.1932212356" lon="13.4051139560"><ele>1810.18</ele><time>2026-03-11T15:03:02Z</time><extensions><gpxtpx:TrackPointExtension><gpxtpx:atemp>2.9</gpxtpx:atemp></gpxtpx:TrackPointExtension></extensions></trkpt><trkpt lat="42.1932212356" lon="13.4051144589"><ele>1810.16</ele><time>2026-03-11T15:03:03Z</time><extensions><gpxtpx:TrackPointExtension><gpxtpx:atemp>2.9</gpxtpx:atemp></gpxtpx:TrackPointExtension></extensions></trkpt><trkpt lat="42.1932216547" lon="13.4051138721"><ele>1810.15</ele><time>2026-03-11T15:03:04Z</time><extensions><gpxtpx:TrackPointExtension><gpxtpx:atemp>2.9</gpxtpx:atemp></gpxtpx:TrackPointExtension></extensions></trkpt><trkpt lat="42.1932217386" lon="13.4051147941"><ele>1810.14</ele><time>2026-03-11T15:03:05Z</time><extensions><gpxtpx:TrackPointExtension><gpxtpx:atemp>2.9</gpxtpx:atemp></gpxtpx:TrackPointExtension></extensions></trkpt><trkpt lat="42.1932216547" lon="13.4051147941"><ele>1810.13</ele><time>2026-03-11T15:03:06Z</time><extensions><gpxtpx:TrackPointExtension><gpxtpx:atemp>2.9</gpxtpx:atemp></gpxtpx:TrackPointExtension></extensions></trkpt><trkpt lat="42.1932210680" lon="13.4051141236"><ele>1810.12</ele><time>2026-03-11T15:03:07Z</time><extensions><gpxtpx:TrackPointExtension><gpxtpx:atemp>2.9</gpxtpx:atemp></gpxtpx:TrackPointExtension></extensions></trkpt><trkpt lat="42.1932206489" lon="13.4051146265"><ele>1810.12</ele><time>2026-03-11T15:03:08Z</time><extensions><gpxtpx:TrackPointExtension><gpxtpx:atemp>2.9</gpxtpx:atemp></gpxtpx:TrackPointExtension></extensions></trkpt><trkpt lat="42.1932196431" lon="13.4051139560"><ele>1810.12</ele><time>2026-03-11T15:03:09Z</time><extensions><gpxtpx:TrackPointExtension><gpxtpx:atemp>2.9</gpxtpx:atemp></gpxtpx:TrackPointExtension></extensions></trkpt><trkpt lat="42.1932196431" lon="13.4051141236"><ele>1810.13</ele><time>2026-03-11T15:03:10Z</time><extensions><gpxtpx:TrackPointExtension><gpxtpx:atemp>2.9</gpxtpx:atemp></gpxtpx:TrackPointExtension></extensions></trkpt><trkpt lat="42.1932197269" lon="13.4051155485"><ele>1810.13</ele><time>2026-03-11T15:03:11Z</time><extensions><gpxtpx:TrackPointExtension><gpxtpx:atemp>2.9</gpxtpx:atemp></gpxtpx:TrackPointExtension></extensions></trkpt><trkpt lat="42.1932186373" lon="13.4051153809"><ele>1810.13</ele><time>2026-03-11T15:03:12Z</time><extensions><gpxtpx:TrackPointExtension><gpxtpx:atemp>2.9</gpxtpx:atemp></gpxtpx:TrackPointExtension></extensions></trkpt><trkpt lat="42.1932179667" lon="13.4051163867"><ele>1810.17</ele><time>2026-03-11T15:03:13Z</time><extensions><gpxtpx:TrackPointExtension><gpxtpx:atemp>2.9</gpxtpx:atemp></gpxtpx:TrackPointExtension></extensions></trkpt><trkpt lat="42.1932178829" lon="13.4051156323"><ele>1810.19</ele><time>2026-03-11T15:03:14Z</time><extensions><gpxtpx:TrackPointExtension><gpxtpx:atemp>2.9</gpxtpx:atemp></gpxtpx:TrackPointExtension></extensions></trkpt><trkpt lat="42.1932177991" lon="13.4051161353"><ele>1810.20</ele><time>2026-03-11T15:03:15Z</time><extensions><gpxtpx:TrackPointExtension><gpxtpx:atemp>2.9</gpxtpx:atemp></gpxtpx:TrackPointExtension></extensions></trkpt><trkpt lat="42.1932180505" lon="13.4051164705"><ele>1810.25</ele><time>2026-03-11T15:03:16Z</time><extensions><gpxtpx:TrackPointExtension><gpxtpx:atemp>2.9</gpxtpx:atemp></gpxtpx:TrackPointExtension></extensions></trkpt><trkpt lat="42.1932178829" lon="13.4051165543"><ele>1810.30</ele><time>2026-03-11T15:03:17Z</time><extensions><gpxtpx:TrackPointExtension><gpxtpx:atemp>2.9</gpxtpx:atemp></gpxtpx:TrackPointExtension></extensions></trkpt><trkpt lat="42.1932176314" lon="13.4051167220"><ele>1810.33</ele><time>2026-03-11T15:03:18Z</time><extensions><gpxtpx:TrackPointExtension><gpxtpx:atemp>2.9</gpxtpx:atemp></gpxtpx:TrackPointExtension></extensions></trkpt><trkpt lat="42.1932180505" lon="13.4051165543"><ele>1810.33</ele><time>2026-03-11T15:03:19Z</time><extensions><gpxtpx:TrackPointExtension><gpxtpx:atemp>2.9</gpxtpx:atemp></gpxtpx:TrackPointExtension></extensions></trkpt><trkpt lat="42.1932187211" lon="13.4051155485"><ele>1810.21</ele><time>2026-03-11T15:03:20Z</time><extensions><gpxtpx:TrackPointExtension><gpxtpx:atemp>2.9</gpxtpx:atemp></gpxtpx:TrackPointExtension></extensions></trkpt><trkpt lat="42.1932196431" lon="13.4051147941"><ele>1810.08</ele><time>2026-03-11T15:03:21Z</time><extensions><gpxtpx:TrackPointExtension><gpxtpx:atemp>2.9</gpxtpx:atemp></gpxtpx:TrackPointExtension></extensions></trkpt><trkpt lat="42.1932202298" lon="13.4051142912"><ele>1809.96</ele><time>2026-03-11T15:03:22Z</time><extensions><gpxtpx:TrackPointExtension><gpxtpx:atemp>2.9</gpxtpx:atemp></gpxtpx:TrackPointExtension></extensions></trkpt><trkpt lat="42.1932206489" lon="13.4051132854"><ele>1809.90</ele><time>2026-03-11T15:03:23Z</time><extensions><gpxtpx:TrackPointExtension><gpxtpx:atemp>2.9</gpxtpx:atemp></gpxtpx:TrackPointExtension></extensions></trkpt><trkpt lat="42.1932210680" lon="13.4051126987"><ele>1809.87</ele><time>2026-03-11T15:03:24Z</time><extensions><gpxtpx:TrackPointExtension><gpxtpx:atemp>2.9</gpxtpx:atemp></gpxtpx:TrackPointExtension></extensions></trkpt><trkpt lat="42.1932209842" lon="13.4051122796"><ele>1809.87</ele><time>2026-03-11T15:03:25Z</time><extensions><gpxtpx:TrackPointExtension><gpxtpx:atemp>2.9</gpxtpx:atemp></gpxtpx:TrackPointExtension></extensions></trkpt><trkpt lat="42.1932208166" lon="13.4051117767"><ele>1809.91</ele><time>2026-03-11T15:03:26Z</time><extensions><gpxtpx:TrackPointExtension><gpxtpx:atemp>2.9</gpxtpx:atemp></gpxtpx:TrackPointExtension></extensions></trkpt><trkpt lat="42.1932200622" lon="13.4051113576"><ele>1809.97</ele><time>2026-03-11T15:03:27Z</time><extensions><gpxtpx:TrackPointExtension><gpxtpx:atemp>2.9</gpxtpx:atemp></gpxtpx:TrackPointExtension></extensions></trkpt><trkpt lat="42.1932202298" lon="13.4051118605"><ele>1810.04</ele><time>2026-03-11T15:03:28Z</time><extensions><gpxtpx:TrackPointExtension><gpxtpx:atemp>2.9</gpxtpx:atemp></gpxtpx:TrackPointExtension></extensions></trkpt><trkpt lat="42.1932205651" lon="13.4051122796"><ele>1810.09</ele><time>2026-03-11T15:03:29Z</time><extensions><gpxtpx:TrackPointExtension><gpxtpx:atemp>2.9</gpxtpx:atemp></gpxtpx:TrackPointExtension></extensions></trkpt><trkpt lat="42.1932210680" lon="13.4051123634"><ele>1810.12</ele><time>2026-03-11T15:03:30Z</time><extensions><gpxtpx:TrackPointExtension><gpxtpx:atemp>2.9</gpxtpx:atemp></gpxtpx:TrackPointExtension></extensions></trkpt><trkpt lat="42.1932214871" lon="13.4051122796"><ele>1810.12</ele><time>2026-03-11T15:03:31Z</time><extensions><gpxtpx:TrackPointExtension><gpxtpx:atemp>2.9</gpxtpx:atemp></gpxtpx:TrackPointExtension></extensions></trkpt><trkpt lat="42.1932218224" lon="13.4051121958"><ele>1810.12</ele><time>2026-03-11T15:03:32Z</time><extensions><gpxtpx:TrackPointExtension><gpxtpx:atemp>2.9</gpxtpx:atemp></gpxtpx:TrackPointExtension></extensions></trkpt><trkpt lat="42.1932218224" lon="13.4051121958"><ele>1810.12</ele><time>2026-03-11T15:03:33Z</time><extensions><gpxtpx:TrackPointExtension><gpxtpx:atemp>2.9</gpxtpx:atemp></gpxtpx:TrackPointExtension></extensions></trkpt><trkpt lat="42.1932221577" lon="13.4051115252"><ele>1810.12</ele><time>2026-03-11T15:03:34Z</time><extensions><gpxtpx:TrackPointExtension><gpxtpx:atemp>2.8</gpxtpx:atemp></gpxtpx:TrackPointExtension></extensions></trkpt><trkpt lat="42.1932233311" lon="13.4051112738"><ele>1810.10</ele><time>2026-03-11T15:03:35Z</time><extensions><gpxtpx:TrackPointExtension><gpxtpx:atemp>2.8</gpxtpx:atemp></gpxtpx:TrackPointExtension></extensions></trkpt><trkpt lat="42.1932240855" lon="13.4051112738"><ele>1810.10</ele><time>2026-03-11T15:03:36Z</time><extensions><gpxtpx:TrackPointExtension><gpxtpx:atemp>2.8</gpxtpx:atemp></gpxtpx:TrackPointExtension></extensions></trkpt><trkpt lat="42.1932242531" lon="13.4051109385"><ele>1810.10</ele><time>2026-03-11T15:03:37Z</time><extensions><gpxtpx:TrackPointExtension><gpxtpx:atemp>2.8</gpxtpx:atemp></gpxtpx:TrackPointExtension></extensions></trkpt><trkpt lat="42.1932238340" lon="13.4051116928"><ele>1810.09</ele><time>2026-03-11T15:03:38Z</time><extensions><gpxtpx:TrackPointExtension><gpxtpx:atemp>2.8</gpxtpx:atemp></gpxtpx:TrackPointExtension></extensions></trkpt><trkpt lat="42.1932248399" lon="13.4051102679"><ele>1810.09</ele><time>2026-03-11T15:03:39Z</time><extensions><gpxtpx:TrackPointExtension><gpxtpx:atemp>2.8</gpxtpx:atemp></gpxtpx:TrackPointExtension></extensions></trkpt><trkpt lat="42.1932243370" lon="13.4051102679"><ele>1810.09</ele><time>2026-03-11T15:03:40Z</time><extensions><gpxtpx:TrackPointExtension><gpxtpx:atemp>2.8</gpxtpx:atemp></gpxtpx:TrackPointExtension></extensions></trkpt><trkpt lat="42.1932239179" lon="13.4051109385"><ele>1810.09</ele><time>2026-03-11T15:03:41Z</time><extensions><gpxtpx:TrackPointExtension><gpxtpx:atemp>2.8</gpxtpx:atemp></gpxtpx:TrackPointExtension></extensions></trkpt><trkpt lat="42.1932231635" lon="13.4051117767"><ele>1810.09</ele><time>2026-03-11T15:03:42Z</time><extensions><gpxtpx:TrackPointExtension><gpxtpx:atemp>2.8</gpxtpx:atemp></gpxtpx:TrackPointExtension></extensions></trkpt><trkpt lat="42.1932234988" lon="13.4051116928"><ele>1810.09</ele><time>2026-03-11T15:03:43Z</time><extensions><gpxtpx:TrackPointExtension><gpxtpx:atemp>2.8</gpxtpx:atemp></gpxtpx:TrackPointExtension></extensions></trkpt><trkpt lat="42.1932240855" lon="13.4051110223"><ele>1810.09</ele><time>2026-03-11T15:03:44Z</time><extensions><gpxtpx:TrackPointExtension><gpxtpx:atemp>2.8</gpxtpx:atemp></gpxtpx:TrackPointExtension></extensions></trkpt><trkpt lat="42.1932242531" lon="13.4051111899"><ele>1810.09</ele><time>2026-03-11T15:03:45Z</time><extensions><gpxtpx:TrackPointExtension><gpxtpx:atemp>2.8</gpxtpx:atemp></gpxtpx:TrackPointExtension></extensions></trkpt><trkpt lat="42.1932242531" lon="13.4051112738"><ele>1810.09</ele><time>2026-03-11T15:03:46Z</time><extensions><gpxtpx:TrackPointExtension><gpxtpx:atemp>2.8</gpxtpx:atemp></gpxtpx:TrackPointExtension></extensions></trkpt><trkpt lat="42.1932247560" lon="13.4051105194"><ele>1810.08</ele><time>2026-03-11T15:03:47Z</time><extensions><gpxtpx:TrackPointExtension><gpxtpx:atemp>2.8</gpxtpx:atemp></gpxtpx:TrackPointExtension></extensions></trkpt><trkpt lat="42.1932251751" lon="13.4051097650"><ele>1810.08</ele><time>2026-03-11T15:03:48Z</time><extensions><gpxtpx:TrackPointExtension><gpxtpx:atemp>2.8</gpxtpx:atemp></gpxtpx:TrackPointExtension></extensions></trkpt><trkpt lat="42.1932249237" lon="13.4051098488"><ele>1810.08</ele><time>2026-03-11T15:03:49Z</time><extensions><gpxtpx:TrackPointExtension><gpxtpx:atemp>2.8</gpxtpx:atemp></gpxtpx:TrackPointExtension></extensions></trkpt><trkpt lat="42.1932249237" lon="13.4051093459"><ele>1810.08</ele><time>2026-03-11T15:03:50Z</time><extensions><gpxtpx:TrackPointExtension><gpxtpx:atemp>2.8</gpxtpx:atemp></gpxtpx:TrackPointExtension></extensions></trkpt><trkpt lat="42.1932248399" lon="13.4051082563"><ele>1810.08</ele><time>2026-03-11T15:03:51Z</time><extensions><gpxtpx:TrackPointExtension><gpxtpx:atemp>2.8</gpxtpx:atemp></gpxtpx:TrackPointExtension></extensions></trkpt><trkpt lat="42.1932255942" lon="13.4051072504"><ele>1810.08</ele><time>2026-03-11T15:03:52Z</time><extensions><gpxtpx:TrackPointExtension><gpxtpx:atemp>2.8</gpxtpx:atemp></gpxtpx:TrackPointExtension></extensions></trkpt><trkpt lat="42.1932249237" lon="13.4051058255"><ele>1810.08</ele><time>2026-03-11T15:03:53Z</time><extensions><gpxtpx:TrackPointExtension><gpxtpx:atemp>2.8</gpxtpx:atemp></gpxtpx:TrackPointExtension></extensions></trkpt><trkpt lat="42.1932254266" lon="13.4051020537"><ele>1810.10</ele><time>2026-03-11T15:03:54Z</time><extensions><gpxtpx:TrackPointExtension><gpxtpx:atemp>2.8</gpxtpx:atemp></gpxtpx:TrackPointExtension></extensions></trkpt><trkpt lat="42.1932253428" lon="13.4051005449"><ele>1810.12</ele><time>2026-03-11T15:03:55Z</time><extensions><gpxtpx:TrackPointExtension><gpxtpx:atemp>2.8</gpxtpx:atemp></gpxtpx:TrackPointExtension></extensions></trkpt><trkpt lat="42.1932251751" lon="13.4050998744"><ele>1810.16</ele><time>2026-03-11T15:03:56Z</time><extensions><gpxtpx:TrackPointExtension><gpxtpx:atemp>2.8</gpxtpx:atemp></gpxtpx:TrackPointExtension></extensions></trkpt><trkpt lat="42.1932248399" lon="13.4051005449"><ele>1810.18</ele><time>2026-03-11T15:03:57Z</time><extensions><gpxtpx:TrackPointExtension><gpxtpx:atemp>2.8</gpxtpx:atemp></gpxtpx:TrackPointExtension></extensions></trkpt><trkpt lat="42.1932246722" lon="13.4050994553"><ele>1810.18</ele><time>2026-03-11T15:03:58Z</time><extensions><gpxtpx:TrackPointExtension><gpxtpx:atemp>2.8</gpxtpx:atemp></gpxtpx:TrackPointExtension></extensions></trkpt><trkpt lat="42.1932238340" lon="13.4051002935"><ele>1810.20</ele><time>2026-03-11T15:03:59Z</time><extensions><gpxtpx:TrackPointExtension><gpxtpx:atemp>2.8</gpxtpx:atemp></gpxtpx:TrackPointExtension></extensions></trkpt><trkpt lat="42.1932237502" lon="13.4050994553"><ele>1810.20</ele><time>2026-03-11T15:04:00Z</time><extensions><gpxtpx:TrackPointExtension><gpxtpx:atemp>2.8</gpxtpx:atemp></gpxtpx:TrackPointExtension></extensions></trkpt><trkpt lat="42.1932234988" lon="13.4050987847"><ele>1810.21</ele><time>2026-03-11T15:04:01Z</time><extensions><gpxtpx:TrackPointExtension><gpxtpx:atemp>2.8</gpxtpx:atemp></gpxtpx:TrackPointExtension></extensions></trkpt><trkpt lat="42.1932234988" lon="13.4051001258"><ele>1810.24</ele><time>2026-03-11T15:04:02Z</time><extensions><gpxtpx:TrackPointExtension><gpxtpx:atemp>2.8</gpxtpx:atemp></gpxtpx:TrackPointExtension></extensions></trkpt><trkpt lat="42.1932235826" lon="13.4051002935"><ele>1810.26</ele><time>2026-03-11T15:04:03Z</time><extensions><gpxtpx:TrackPointExtension><gpxtpx:atemp>2.8</gpxtpx:atemp></gpxtpx:TrackPointExtension></extensions></trkpt><trkpt lat="42.1932238340" lon="13.4051003773"><ele>1810.28</ele><time>2026-03-11T15:04:04Z</time><extensions><gpxtpx:TrackPointExtension><gpxtpx:atemp>2.8</gpxtpx:atemp></gpxtpx:TrackPointExtension></extensions></trkpt><trkpt lat="42.1932236664" lon="13.4051010478"><ele>1810.29</ele><time>2026-03-11T15:04:05Z</time><extensions><gpxtpx:TrackPointExtension><gpxtpx:atemp>2.8</gpxtpx:atemp></gpxtpx:TrackPointExtension></extensions></trkpt><trkpt lat="42.1932234988" lon="13.4051015507"><ele>1810.31</ele><time>2026-03-11T15:04:06Z</time><extensions><gpxtpx:TrackPointExtension><gpxtpx:atemp>2.8</gpxtpx:atemp></gpxtpx:TrackPointExtension></extensions></trkpt><trkpt lat="42.1932235826" lon="13.4051013831"><ele>1810.35</ele><time>2026-03-11T15:04:07Z</time><extensions><gpxtpx:TrackPointExtension><gpxtpx:atemp>2.8</gpxtpx:atemp></gpxtpx:TrackPointExtension></extensions></trkpt><trkpt lat="42.1932239179" lon="13.4051016346"><ele>1810.35</ele><time>2026-03-11T15:04:08Z</time><extensions><gpxtpx:TrackPointExtension><gpxtpx:atemp>2.8</gpxtpx:atemp></gpxtpx:TrackPointExtension></extensions></trkpt><trkpt lat="42.1932234988" lon="13.4051018860"><ele>1810.35</ele><time>2026-03-11T15:04:09Z</time><extensions><gpxtpx:TrackPointExtension><gpxtpx:atemp>2.8</gpxtpx:atemp></gpxtpx:TrackPointExtension></extensions></trkpt><trkpt lat="42.1932234988" lon="13.4051021375"><ele>1810.35</ele><time>2026-03-11T15:04:10Z</time><extensions><gpxtpx:TrackPointExtension><gpxtpx:atemp>2.8</gpxtpx:atemp></gpxtpx:TrackPointExtension></extensions></trkpt><trkpt lat="42.1932237502" lon="13.4051027242"><ele>1810.35</ele><time>2026-03-11T15:04:11Z</time><extensions><gpxtpx:TrackPointExtension><gpxtpx:atemp>2.8</gpxtpx:atemp></gpxtpx:TrackPointExtension></extensions></trkpt><trkpt lat="42.1932245884" lon="13.4051070828"><ele>1810.35</ele><time>2026-03-11T15:04:12Z</time><extensions><gpxtpx:TrackPointExtension><gpxtpx:atemp>2.8</gpxtpx:atemp></gpxtpx:TrackPointExtension></extensions></trkpt><trkpt lat="42.1932266839" lon="13.4051108547"><ele>1810.35</ele><time>2026-03-11T15:04:13Z</time><extensions><gpxtpx:TrackPointExtension><gpxtpx:atemp>2.8</gpxtpx:atemp></gpxtpx:TrackPointExtension></extensions></trkpt><trkpt lat="42.1932297852" lon="13.4051141236"><ele>1810.35</ele><time>2026-03-11T15:04:14Z</time><extensions><gpxtpx:TrackPointExtension><gpxtpx:atemp>2.8</gpxtpx:atemp></gpxtpx:TrackPointExtension></extensions></trkpt><trkpt lat="42.1932318807" lon="13.4051168896"><ele>1810.31</ele><time>2026-03-11T15:04:15Z</time><extensions><gpxtpx:TrackPointExtension><gpxtpx:atemp>2.8</gpxtpx:atemp></gpxtpx:TrackPointExtension></extensions></trkpt><trkpt lat="42.1932343952" lon="13.4051214997"><ele>1810.26</ele><time>2026-03-11T15:04:16Z</time><extensions><gpxtpx:TrackPointExtension><gpxtpx:atemp>2.8</gpxtpx:atemp></gpxtpx:TrackPointExtension></extensions></trkpt><trkpt lat="42.1932366583" lon="13.4051247686"><ele>1810.25</ele><time>2026-03-11T15:04:17Z</time><extensions><gpxtpx:TrackPointExtension><gpxtpx:atemp>2.8</gpxtpx:atemp></gpxtpx:TrackPointExtension></extensions></trkpt><trkpt lat="42.1932394244" lon="13.4051289596"><ele>1810.20</ele><time>2026-03-11T15:04:18Z</time><extensions><gpxtpx:TrackPointExtension><gpxtpx:atemp>2.8</gpxtpx:atemp></gpxtpx:TrackPointExtension></extensions></trkpt><trkpt lat="42.1932404302" lon="13.4051346593"><ele>1810.18</ele><time>2026-03-11T15:04:19Z</time><extensions><gpxtpx:TrackPointExtension><gpxtpx:atemp>2.8</gpxtpx:atemp></gpxtpx:TrackPointExtension></extensions></trkpt><trkpt lat="42.1932428610" lon="13.4051381797"><ele>1810.17</ele><time>2026-03-11T15:04:20Z</time><extensions><gpxtpx:TrackPointExtension><gpxtpx:atemp>2.8</gpxtpx:atemp></gpxtpx:TrackPointExtension></extensions></trkpt><trkpt lat="42.1932459623" lon="13.4051406942"><ele>1810.18</ele><time>2026-03-11T15:04:21Z</time><extensions><gpxtpx:TrackPointExtension><gpxtpx:atemp>2.8</gpxtpx:atemp></gpxtpx:TrackPointExtension></extensions></trkpt><trkpt lat="42.1932521649" lon="13.4051494952"><ele>1810.18</ele><time>2026-03-11T15:04:22Z</time><extensions><gpxtpx:TrackPointExtension><gpxtpx:atemp>2.8</gpxtpx:atemp></gpxtpx:TrackPointExtension></extensions></trkpt><trkpt lat="42.1932578646" lon="13.4051566198"><ele>1810.16</ele><time>2026-03-11T15:04:23Z</time><extensions><gpxtpx:TrackPointExtension><gpxtpx:atemp>2.8</gpxtpx:atemp></gpxtpx:TrackPointExtension></extensions></trkpt><trkpt lat="42.1932638995" lon="13.4051639959"><ele>1810.15</ele><time>2026-03-11T15:04:24Z</time><extensions><gpxtpx:TrackPointExtension><gpxtpx:atemp>2.8</gpxtpx:atemp></gpxtpx:TrackPointExtension></extensions></trkpt><trkpt lat="42.1932694316" lon="13.4051709529"><ele>1810.10</ele><time>2026-03-11T15:04:25Z</time><extensions><gpxtpx:TrackPointExtension><gpxtpx:atemp>2.8</gpxtpx:atemp></gpxtpx:TrackPointExtension></extensions></trkpt><trkpt lat="42.1932756342" lon="13.4051799215"><ele>1810.04</ele><time>2026-03-11T15:04:26Z</time><extensions><gpxtpx:TrackPointExtension><gpxtpx:atemp>2.8</gpxtpx:atemp></gpxtpx:TrackPointExtension></extensions></trkpt><trkpt lat="42.1932830941" lon="13.4051901475"><ele>1809.99</ele><time>2026-03-11T15:04:27Z</time><extensions><gpxtpx:TrackPointExtension><gpxtpx:atemp>2.8</gpxtpx:atemp></gpxtpx:TrackPointExtension></extensions></trkpt><trkpt lat="42.1932938229" lon="13.4052037261"><ele>1809.95</ele><time>2026-03-11T15:04:28Z</time><extensions><gpxtpx:TrackPointExtension><gpxtpx:atemp>2.8</gpxtpx:atemp></gpxtpx:TrackPointExtension></extensions></trkpt><trkpt lat="42.1933046356" lon="13.4052221663"><ele>1809.92</ele><time>2026-03-11T15:04:29Z</time><extensions><gpxtpx:TrackPointExtension><gpxtpx:atemp>2.8</gpxtpx:atemp></gpxtpx:TrackPointExtension></extensions></trkpt><trkpt lat="42.1933157835" lon="13.4052442946"><ele>1809.84</ele><time>2026-03-11T15:04:30Z</time><extensions><gpxtpx:TrackPointExtension><gpxtpx:atemp>2.8</gpxtpx:atemp></gpxtpx:TrackPointExtension></extensions></trkpt><trkpt lat="42.1933215670" lon="13.4052696917"><ele>1809.76</ele><time>2026-03-11T15:04:31Z</time><extensions><gpxtpx:TrackPointExtension><gpxtpx:atemp>2.8</gpxtpx:atemp></gpxtpx:TrackPointExtension></extensions></trkpt><trkpt lat="42.1933244169" lon="13.4052897245"><ele>1809.66</ele><time>2026-03-11T15:04:32Z</time><extensions><gpxtpx:TrackPointExtension><gpxtpx:atemp>2.8</gpxtpx:atemp></gpxtpx:TrackPointExtension></extensions></trkpt><trkpt lat="42.1933287755" lon="13.4053102601"><ele>1809.56</ele><time>2026-03-11T15:04:33Z</time><extensions><gpxtpx:TrackPointExtension><gpxtpx:atemp>2.8</gpxtpx:atemp></gpxtpx:TrackPointExtension></extensions></trkpt><trkpt lat="42.1933328826" lon="13.4053301252"><ele>1809.43</ele><time>2026-03-11T15:04:34Z</time><extensions><gpxtpx:TrackPointExtension><gpxtpx:atemp>2.9</gpxtpx:atemp></gpxtpx:TrackPointExtension></extensions></trkpt><trkpt lat="42.1933367383" lon="13.4053540975"><ele>1809.29</ele><time>2026-03-11T15:04:35Z</time><extensions><gpxtpx:TrackPointExtension><gpxtpx:atemp>2.9</gpxtpx:atemp></gpxtpx:TrackPointExtension></extensions></trkpt><trkpt lat="42.1933390852" lon="13.4053786565"><ele>1809.16</ele><time>2026-03-11T15:04:36Z</time><extensions><gpxtpx:TrackPointExtension><gpxtpx:atemp>2.9</gpxtpx:atemp></gpxtpx:TrackPointExtension></extensions></trkpt><trkpt lat="42.1933397558" lon="13.4054035507"><ele>1809.06</ele><time>2026-03-11T15:04:37Z</time><extensions><gpxtpx:TrackPointExtension><gpxtpx:atemp>2.9</gpxtpx:atemp></gpxtpx:TrackPointExtension></extensions></trkpt><trkpt lat="42.1933386661" lon="13.4054292832"><ele>1808.93</ele><time>2026-03-11T15:04:38Z</time><extensions><gpxtpx:TrackPointExtension><gpxtpx:atemp>2.9</gpxtpx:atemp></gpxtpx:TrackPointExtension></extensions></trkpt><trkpt lat="42.1933371574" lon="13.4054536745"><ele>1808.71</ele><time>2026-03-11T15:04:39Z</time><extensions><gpxtpx:TrackPointExtension><gpxtpx:atemp>2.9</gpxtpx:atemp></gpxtpx:TrackPointExtension></extensions></trkpt><trkpt lat="42.1933368221" lon="13.4054799937"><ele>1808.48</ele><time>2026-03-11T15:04:40Z</time><extensions><gpxtpx:TrackPointExtension><gpxtpx:atemp>2.9</gpxtpx:atemp></gpxtpx:TrackPointExtension></extensions></trkpt><trkpt lat="42.1933390852" lon="13.4055101685"><ele>1808.16</ele><time>2026-03-11T15:04:41Z</time><extensions><gpxtpx:TrackPointExtension><gpxtpx:atemp>2.9</gpxtpx:atemp></gpxtpx:TrackPointExtension></extensions></trkpt><trkpt lat="42.1933492273" lon="13.4055440314"><ele>1808.02</ele><time>2026-03-11T15:04:42Z</time><extensions><gpxtpx:TrackPointExtension><gpxtpx:atemp>2.9</gpxtpx:atemp></gpxtpx:TrackPointExtension></extensions></trkpt><trkpt lat="42.1933746245" lon="13.4055712726"><ele>1807.83</ele><time>2026-03-11T15:04:43Z</time><extensions><gpxtpx:TrackPointExtension><gpxtpx:atemp>2.9</gpxtpx:atemp></gpxtpx:TrackPointExtension></extensions></trkpt><trkpt lat="42.1934073977" lon="13.4055760503"><ele>1807.62</ele><time>2026-03-11T15:04:44Z</time><extensions><gpxtpx:TrackPointExtension><gpxtpx:atemp>2.9</gpxtpx:atemp></gpxtpx:TrackPointExtension></extensions></trkpt><trkpt lat="42.1934373211" lon="13.4055750445"><ele>1807.42</ele><time>2026-03-11T15:04:45Z</time><extensions><gpxtpx:TrackPointExtension><gpxtpx:atemp>2.9</gpxtpx:atemp></gpxtpx:TrackPointExtension></extensions></trkpt><trkpt lat="42.1934596170" lon="13.4056020342"><ele>1807.13</ele><time>2026-03-11T15:04:46Z</time><extensions><gpxtpx:TrackPointExtension><gpxtpx:atemp>2.9</gpxtpx:atemp></gpxtpx:TrackPointExtension></extensions></trkpt><trkpt lat="42.1934681665" lon="13.4056435246"><ele>1806.72</ele><time>2026-03-11T15:04:47Z</time><extensions><gpxtpx:TrackPointExtension><gpxtpx:atemp>2.9</gpxtpx:atemp></gpxtpx:TrackPointExtension></extensions></trkpt><trkpt lat="42.1934673283" lon="13.4056855179"><ele>1806.26</ele><time>2026-03-11T15:04:48Z</time><extensions><gpxtpx:TrackPointExtension><gpxtpx:atemp>2.9</gpxtpx:atemp></gpxtpx:TrackPointExtension></extensions></trkpt><trkpt lat="42.1934738662" lon="13.4057267569"><ele>1805.74</ele><time>2026-03-11T15:04:49Z</time><extensions><gpxtpx:TrackPointExtension><gpxtpx:atemp>2.9</gpxtpx:atemp></gpxtpx:TrackPointExtension></extensions></trkpt><trkpt lat="42.1935000177" lon="13.4057474602"><ele>1805.20</ele><time>2026-03-11T15:04:50Z</time><extensions><gpxtpx:TrackPointExtension><gpxtpx:atemp>2.9</gpxtpx:atemp></gpxtpx:TrackPointExtension></extensions></trkpt><trkpt lat="42.1935282648" lon="13.4057549201"><ele>1804.70</ele><time>2026-03-11T15:04:51Z</time><extensions><gpxtpx:TrackPointExtension><gpxtpx:atemp>2.9</gpxtpx:atemp></gpxtpx:TrackPointExtension></extensions></trkpt><trkpt lat="42.1935475431" lon="13.4057871904"><ele>1804.20</ele><time>2026-03-11T15:04:52Z</time><extensions><gpxtpx:TrackPointExtension><gpxtpx:atemp>2.9</gpxtpx:atemp></gpxtpx:TrackPointExtension></extensions></trkpt><trkpt lat="42.1935529914" lon="13.4058330394"><ele>1803.26</ele><time>2026-03-11T15:04:53Z</time><extensions><gpxtpx:TrackPointExtension><gpxtpx:atemp>2.9</gpxtpx:atemp></gpxtpx:TrackPointExtension></extensions></trkpt><trkpt lat="42.1935519855" lon="13.4058833309"><ele>1802.77</ele><time>2026-03-11T15:04:54Z</time><extensions><gpxtpx:TrackPointExtension><gpxtpx:atemp>2.9</gpxtpx:atemp></gpxtpx:TrackPointExtension></extensions></trkpt><trkpt lat="42.1935517341" lon="13.4059375618"><ele>1802.27</ele><time>2026-03-11T15:04:55Z</time><extensions><gpxtpx:TrackPointExtension><gpxtpx:atemp>2.9</gpxtpx:atemp></gpxtpx:TrackPointExtension></extensions></trkpt><trkpt lat="42.1935515665" lon="13.4059917927"><ele>1801.74</ele><time>2026-03-11T15:04:56Z</time><extensions><gpxtpx:TrackPointExtension><gpxtpx:atemp>2.9</gpxtpx:atemp></gpxtpx:TrackPointExtension></extensions></trkpt><trkpt lat="42.1935841721" lon="13.4060171898"><ele>1801.14</ele><time>2026-03-11T15:04:57Z</time><extensions><gpxtpx:TrackPointExtension><gpxtpx:atemp>2.9</gpxtpx:atemp></gpxtpx:TrackPointExtension></extensions></trkpt><trkpt lat="42.1936167777" lon="13.4060216323"><ele>1800.59</ele><time>2026-03-11T15:04:58Z</time><extensions><gpxtpx:TrackPointExtension><gpxtpx:atemp>2.9</gpxtpx:atemp></gpxtpx:TrackPointExtension></extensions></trkpt><trkpt lat="42.1936516464" lon="13.4060313553"><ele>1800.13</ele><time>2026-03-11T15:04:59Z</time><extensions><gpxtpx:TrackPointExtension><gpxtpx:atemp>2.9</gpxtpx:atemp></gpxtpx:TrackPointExtension></extensions></trkpt><trkpt lat="42.1936849225" lon="13.4060558304"><ele>1799.66</ele><time>2026-03-11T15:05:00Z</time><extensions><gpxtpx:TrackPointExtension><gpxtpx:atemp>2.9</gpxtpx:atemp></gpxtpx:TrackPointExtension></extensions></trkpt><trkpt lat="42.1937153488" lon="13.4060946386"><ele>1799.20</ele><time>2026-03-11T15:05:01Z</time><extensions><gpxtpx:TrackPointExtension><gpxtpx:atemp>2.9</gpxtpx:atemp></gpxtpx:TrackPointExtension></extensions></trkpt><trkpt lat="42.1937329508" lon="13.4061501268"><ele>1798.74</ele><time>2026-03-11T15:05:02Z</time><extensions><gpxtpx:TrackPointExtension><gpxtpx:atemp>2.9</gpxtpx:atemp></gpxtpx:TrackPointExtension></extensions></trkpt><trkpt lat="42.1937495470" lon="13.4062044416"><ele>1798.21</ele><time>2026-03-11T15:05:03Z</time><extensions><gpxtpx:TrackPointExtension><gpxtpx:atemp>2.9</gpxtpx:atemp></gpxtpx:TrackPointExtension></extensions></trkpt><trkpt lat="42.1937563363" lon="13.4062666353"><ele>1797.13</ele><time>2026-03-11T15:05:04Z</time><extensions><gpxtpx:TrackPointExtension><gpxtpx:atemp>2.9</gpxtpx:atemp></gpxtpx:TrackPointExtension></extensions></trkpt><trkpt lat="42.1937756985" lon="13.4063244704"><ele>1796.55</ele><time>2026-03-11T15:05:05Z</time><extensions><gpxtpx:TrackPointExtension><gpxtpx:atemp>2.9</gpxtpx:atemp></gpxtpx:TrackPointExtension></extensions></trkpt><trkpt lat="42.1938058734" lon="13.4063782822"><ele>1795.87</ele><time>2026-03-11T15:05:06Z</time><extensions><gpxtpx:TrackPointExtension><gpxtpx:atemp>2.9</gpxtpx:atemp></gpxtpx:TrackPointExtension></extensions></trkpt><trkpt lat="42.1938389819" lon="13.4064290766"><ele>1795.15</ele><time>2026-03-11T15:05:07Z</time><extensions><gpxtpx:TrackPointExtension><gpxtpx:atemp>2.9</gpxtpx:atemp></gpxtpx:TrackPointExtension></extensions></trkpt><trkpt lat="42.1938688215" lon="13.4064780269"><ele>1794.44</ele><time>2026-03-11T15:05:08Z</time><extensions><gpxtpx:TrackPointExtension><gpxtpx:atemp>2.9</gpxtpx:atemp></gpxtpx:TrackPointExtension></extensions></trkpt><trkpt lat="42.1938975714" lon="13.4065254685"><ele>1793.73</ele><time>2026-03-11T15:05:09Z</time><extensions><gpxtpx:TrackPointExtension><gpxtpx:atemp>2.9</gpxtpx:atemp></gpxtpx:TrackPointExtension></extensions></trkpt><trkpt lat="42.1939249802" lon="13.4065698925"><ele>1793.05</ele><time>2026-03-11T15:05:10Z</time><extensions><gpxtpx:TrackPointExtension><gpxtpx:atemp>2.9</gpxtpx:atemp></gpxtpx:TrackPointExtension></extensions></trkpt><trkpt lat="42.1939523891" lon="13.4066133946"><ele>1792.40</ele><time>2026-03-11T15:05:11Z</time><extensions><gpxtpx:TrackPointExtension><gpxtpx:atemp>2.9</gpxtpx:atemp></gpxtpx:TrackPointExtension></extensions></trkpt><trkpt lat="42.1939834859" lon="13.4066468384"><ele>1791.83</ele><time>2026-03-11T15:05:12Z</time><extensions><gpxtpx:TrackPointExtension><gpxtpx:atemp>2.9</gpxtpx:atemp></gpxtpx:TrackPointExtension></extensions></trkpt><trkpt lat="42.1940122359" lon="13.4066728223"><ele>1791.34</ele><time>2026-03-11T15:05:13Z</time><extensions><gpxtpx:TrackPointExtension><gpxtpx:atemp>2.9</gpxtpx:atemp></gpxtpx:TrackPointExtension></extensions></trkpt><trkpt lat="42.1940344479" lon="13.4066963755"><ele>1790.83</ele><time>2026-03-11T15:05:14Z</time><extensions><gpxtpx:TrackPointExtension><gpxtpx:atemp>2.9</gpxtpx:atemp></gpxtpx:TrackPointExtension></extensions></trkpt><trkpt lat="42.1940588392" lon="13.4067181684"><ele>1790.30</ele><time>2026-03-11T15:05:15Z</time><extensions><gpxtpx:TrackPointExtension><gpxtpx:atemp>2.9</gpxtpx:atemp></gpxtpx:TrackPointExtension></extensions></trkpt><trkpt lat="42.1940791234" lon="13.4067432303"><ele>1789.42</ele><time>2026-03-11T15:05:16Z</time><extensions><gpxtpx:TrackPointExtension><gpxtpx:atemp>2.9</gpxtpx:atemp></gpxtpx:TrackPointExtension></extensions></trkpt><trkpt lat="42.1940987371" lon="13.4067633469"><ele>1789.10</ele><time>2026-03-11T15:05:17Z</time><extensions><gpxtpx:TrackPointExtension><gpxtpx:atemp>2.9</gpxtpx:atemp></gpxtpx:TrackPointExtension></extensions></trkpt><trkpt lat="42.1941141598" lon="13.4067794401"><ele>1788.83</ele><time>2026-03-11T15:05:18Z</time><extensions><gpxtpx:TrackPointExtension><gpxtpx:atemp>2.9</gpxtpx:atemp></gpxtpx:TrackPointExtension></extensions></trkpt><trkpt lat="42.1941266488" lon="13.4067885764"><ele>1788.58</ele><time>2026-03-11T15:05:19Z</time><extensions><gpxtpx:TrackPointExtension><gpxtpx:atemp>2.9</gpxtpx:atemp></gpxtpx:TrackPointExtension></extensions></trkpt><trkpt lat="42.1941425744" lon="13.4068008978"><ele>1788.41</ele><time>2026-03-11T15:05:20Z</time><extensions><gpxtpx:TrackPointExtension><gpxtpx:atemp>2.9</gpxtpx:atemp></gpxtpx:TrackPointExtension></extensions></trkpt><trkpt lat="42.1941554826" lon="13.4068126325"><ele>1788.30</ele><time>2026-03-11T15:05:21Z</time><extensions><gpxtpx:TrackPointExtension><gpxtpx:atemp>2.9</gpxtpx:atemp></gpxtpx:TrackPointExtension></extensions></trkpt><trkpt lat="42.1941649541" lon="13.4068241995"><ele>1788.19</ele><time>2026-03-11T15:05:22Z</time><extensions><gpxtpx:TrackPointExtension><gpxtpx:atemp>2.9</gpxtpx:atemp></gpxtpx:TrackPointExtension></extensions></trkpt><trkpt lat="42.1941722464" lon="13.4068337549"><ele>1788.13</ele><time>2026-03-11T15:05:23Z</time><extensions><gpxtpx:TrackPointExtension><gpxtpx:atemp>2.9</gpxtpx:atemp></gpxtpx:TrackPointExtension></extensions></trkpt><trkpt lat="42.1941842325" lon="13.4068460763"><ele>1788.09</ele><time>2026-03-11T15:05:24Z</time><extensions><gpxtpx:TrackPointExtension><gpxtpx:atemp>2.9</gpxtpx:atemp></gpxtpx:TrackPointExtension></extensions></trkpt><trkpt lat="42.1942009963" lon="13.4068596549"><ele>1788.07</ele><time>2026-03-11T15:05:25Z</time><extensions><gpxtpx:TrackPointExtension><gpxtpx:atemp>2.9</gpxtpx:atemp></gpxtpx:TrackPointExtension></extensions></trkpt><trkpt lat="42.1942155808" lon="13.4068735689"><ele>1788.05</ele><time>2026-03-11T15:05:26Z</time><extensions><gpxtpx:TrackPointExtension><gpxtpx:atemp>2.9</gpxtpx:atemp></gpxtpx:TrackPointExtension></extensions></trkpt><trkpt lat="42.1942263935" lon="13.4068865608"><ele>1788.01</ele><time>2026-03-11T15:05:27Z</time><extensions><gpxtpx:TrackPointExtension><gpxtpx:atemp>2.9</gpxtpx:atemp></gpxtpx:TrackPointExtension></extensions></trkpt><trkpt lat="42.1942377929" lon="13.4069009777"><ele>1787.96</ele><time>2026-03-11T15:05:28Z</time><extensions><gpxtpx:TrackPointExtension><gpxtpx:atemp>2.9</gpxtpx:atemp></gpxtpx:TrackPointExtension></extensions></trkpt><trkpt lat="42.1942502819" lon="13.4069160651"><ele>1787.99</ele><time>2026-03-11T15:05:29Z</time><extensions><gpxtpx:TrackPointExtension><gpxtpx:atemp>2.9</gpxtpx:atemp></gpxtpx:TrackPointExtension></extensions></trkpt><trkpt lat="42.1942633577" lon="13.4069219325"><ele>1787.98</ele><time>2026-03-11T15:05:30Z</time><extensions><gpxtpx:TrackPointExtension><gpxtpx:atemp>2.9</gpxtpx:atemp></gpxtpx:TrackPointExtension></extensions></trkpt><trkpt lat="42.1942752600" lon="13.4069334995"><ele>1787.92</ele><time>2026-03-11T15:05:31Z</time><extensions><gpxtpx:TrackPointExtension><gpxtpx:atemp>2.9</gpxtpx:atemp></gpxtpx:TrackPointExtension></extensions></trkpt><trkpt lat="42.1942878328" lon="13.4069412947"><ele>1787.90</ele><time>2026-03-11T15:05:32Z</time><extensions><gpxtpx:TrackPointExtension><gpxtpx:atemp>2.9</gpxtpx:atemp></gpxtpx:TrackPointExtension></extensions></trkpt><trkpt lat="42.1942999866" lon="13.4069485869"><ele>1787.89</ele><time>2026-03-11T15:05:33Z</time><extensions><gpxtpx:TrackPointExtension><gpxtpx:atemp>2.9</gpxtpx:atemp></gpxtpx:TrackPointExtension></extensions></trkpt><trkpt lat="42.1943156607" lon="13.4069585614"><ele>1787.82</ele><time>2026-03-11T15:05:34Z</time><extensions><gpxtpx:TrackPointExtension><gpxtpx:atemp>2.9</gpxtpx:atemp></gpxtpx:TrackPointExtension></extensions></trkpt><trkpt lat="42.1943299938" lon="13.4069692902"><ele>1787.78</ele><time>2026-03-11T15:05:35Z</time><extensions><gpxtpx:TrackPointExtension><gpxtpx:atemp>2.9</gpxtpx:atemp></gpxtpx:TrackPointExtension></extensions></trkpt><trkpt lat="42.1943395492" lon="13.4069783427"><ele>1787.76</ele><time>2026-03-11T15:05:36Z</time><extensions><gpxtpx:TrackPointExtension><gpxtpx:atemp>2.9</gpxtpx:atemp></gpxtpx:TrackPointExtension></extensions></trkpt><trkpt lat="42.1943456680" lon="13.4069887362"><ele>1787.76</ele><time>2026-03-11T15:05:37Z</time><extensions><gpxtpx:TrackPointExtension><gpxtpx:atemp>2.9</gpxtpx:atemp></gpxtpx:TrackPointExtension></extensions></trkpt><trkpt lat="42.1943521220" lon="13.4069988783"><ele>1787.75</ele><time>2026-03-11T15:05:38Z</time><extensions><gpxtpx:TrackPointExtension><gpxtpx:atemp>2.9</gpxtpx:atemp></gpxtpx:TrackPointExtension></extensions></trkpt><trkpt lat="42.1943614259" lon="13.4070117865"><ele>1787.72</ele><time>2026-03-11T15:05:39Z</time><extensions><gpxtpx:TrackPointExtension><gpxtpx:atemp>2.9</gpxtpx:atemp></gpxtpx:TrackPointExtension></extensions></trkpt><trkpt lat="42.1943670418" lon="13.4070186596"><ele>1787.70</ele><time>2026-03-11T15:05:40Z</time><extensions><gpxtpx:TrackPointExtension><gpxtpx:atemp>2.9</gpxtpx:atemp></gpxtpx:TrackPointExtension></extensions></trkpt><trkpt lat="42.1943767648" lon="13.4070288856"><ele>1787.66</ele><time>2026-03-11T15:05:41Z</time><extensions><gpxtpx:TrackPointExtension><gpxtpx:atemp>2.9</gpxtpx:atemp></gpxtpx:TrackPointExtension></extensions></trkpt><trkpt lat="42.1943836380" lon="13.4070365969"><ele>1787.63</ele><time>2026-03-11T15:05:42Z</time><extensions><gpxtpx:TrackPointExtension><gpxtpx:atemp>2.9</gpxtpx:atemp></gpxtpx:TrackPointExtension></extensions></trkpt><trkpt lat="42.1943937801" lon="13.4070457332"><ele>1787.62</ele><time>2026-03-11T15:05:43Z</time><extensions><gpxtpx:TrackPointExtension><gpxtpx:atemp>2.9</gpxtpx:atemp></gpxtpx:TrackPointExtension></extensions></trkpt><trkpt lat="42.1944040898" lon="13.4070565458"><ele>1787.61</ele><time>2026-03-11T15:05:44Z</time><extensions><gpxtpx:TrackPointExtension><gpxtpx:atemp>2.9</gpxtpx:atemp></gpxtpx:TrackPointExtension></extensions></trkpt><trkpt lat="42.1944130585" lon="13.4070634190"><ele>1787.59</ele><time>2026-03-11T15:05:45Z</time><extensions><gpxtpx:TrackPointExtension><gpxtpx:atemp>2.9</gpxtpx:atemp></gpxtpx:TrackPointExtension></extensions></trkpt><trkpt lat="42.1944220271" lon="13.4070740640"><ele>1787.59</ele><time>2026-03-11T15:05:46Z</time><extensions><gpxtpx:TrackPointExtension><gpxtpx:atemp>2.9</gpxtpx:atemp></gpxtpx:TrackPointExtension></extensions></trkpt><trkpt lat="42.1944293194" lon="13.4070823621"><ele>1787.59</ele><time>2026-03-11T15:05:47Z</time><extensions><gpxtpx:TrackPointExtension><gpxtpx:atemp>2.9</gpxtpx:atemp></gpxtpx:TrackPointExtension></extensions></trkpt><trkpt lat="42.1944367792" lon="13.4070871398"><ele>1787.61</ele><time>2026-03-11T15:05:48Z</time><extensions><gpxtpx:TrackPointExtension><gpxtpx:atemp>2.9</gpxtpx:atemp></gpxtpx:TrackPointExtension></extensions></trkpt><trkpt lat="42.1944486815" lon="13.4070981201"><ele>1787.62</ele><time>2026-03-11T15:05:49Z</time><extensions><gpxtpx:TrackPointExtension><gpxtpx:atemp>2.9</gpxtpx:atemp></gpxtpx:TrackPointExtension></extensions></trkpt><trkpt lat="42.1944626793" lon="13.4071087651"><ele>1787.62</ele><time>2026-03-11T15:05:50Z</time><extensions><gpxtpx:TrackPointExtension><gpxtpx:atemp>2.9</gpxtpx:atemp></gpxtpx:TrackPointExtension></extensions></trkpt><trkpt lat="42.1944718994" lon="13.4071148839"><ele>1787.56</ele><time>2026-03-11T15:05:51Z</time><extensions><gpxtpx:TrackPointExtension><gpxtpx:atemp>2.9</gpxtpx:atemp></gpxtpx:TrackPointExtension></extensions></trkpt><trkpt lat="42.1944801975" lon="13.4071213380"><ele>1787.53</ele><time>2026-03-11T15:05:52Z</time><extensions><gpxtpx:TrackPointExtension><gpxtpx:atemp>2.9</gpxtpx:atemp></gpxtpx:TrackPointExtension></extensions></trkpt><trkpt lat="42.1944865678" lon="13.4071305580"><ele>1787.49</ele><time>2026-03-11T15:05:53Z</time><extensions><gpxtpx:TrackPointExtension><gpxtpx:atemp>2.9</gpxtpx:atemp></gpxtpx:TrackPointExtension></extensions></trkpt><trkpt lat="42.1944882441" lon="13.4071377665"><ele>1787.48</ele><time>2026-03-11T15:05:54Z</time><extensions><gpxtpx:TrackPointExtension><gpxtpx:atemp>2.9</gpxtpx:atemp></gpxtpx:TrackPointExtension></extensions></trkpt><trkpt lat="42.1944940276" lon="13.4071497526"><ele>1787.45</ele><time>2026-03-11T15:05:55Z</time><extensions><gpxtpx:TrackPointExtension><gpxtpx:atemp>2.9</gpxtpx:atemp></gpxtpx:TrackPointExtension></extensions></trkpt><trkpt lat="42.1945065167" lon="13.4071652591"><ele>1787.44</ele><time>2026-03-11T15:05:56Z</time><extensions><gpxtpx:TrackPointExtension><gpxtpx:atemp>2.9</gpxtpx:atemp></gpxtpx:TrackPointExtension></extensions></trkpt><trkpt lat="42.1945136413" lon="13.4071702883"><ele>1787.44</ele><time>2026-03-11T15:05:57Z</time><extensions><gpxtpx:TrackPointExtension><gpxtpx:atemp>2.9</gpxtpx:atemp></gpxtpx:TrackPointExtension></extensions></trkpt><trkpt lat="42.1945236996" lon="13.4071834479"><ele>1787.44</ele><time>2026-03-11T15:05:58Z</time><extensions><gpxtpx:TrackPointExtension><gpxtpx:atemp>2.9</gpxtpx:atemp></gpxtpx:TrackPointExtension></extensions></trkpt><trkpt lat="42.1945317462" lon="13.4071934223"><ele>1787.43</ele><time>2026-03-11T15:05:59Z</time><extensions><gpxtpx:TrackPointExtension><gpxtpx:atemp>2.9</gpxtpx:atemp></gpxtpx:TrackPointExtension></extensions></trkpt><trkpt lat="42.1945393737" lon="13.4072009660"><ele>1787.44</ele><time>2026-03-11T15:06:00Z</time><extensions><gpxtpx:TrackPointExtension><gpxtpx:atemp>2.9</gpxtpx:atemp></gpxtpx:TrackPointExtension></extensions></trkpt><trkpt lat="42.1945453249" lon="13.4072101861"><ele>1787.44</ele><time>2026-03-11T15:06:01Z</time><extensions><gpxtpx:TrackPointExtension><gpxtpx:atemp>2.9</gpxtpx:atemp></gpxtpx:TrackPointExtension></extensions></trkpt><trkpt lat="42.1945519466" lon="13.4072188195"><ele>1787.44</ele><time>2026-03-11T15:06:02Z</time><extensions><gpxtpx:TrackPointExtension><gpxtpx:atemp>2.9</gpxtpx:atemp></gpxtpx:TrackPointExtension></extensions></trkpt><trkpt lat="42.1945593227" lon="13.4072284587"><ele>1787.44</ele><time>2026-03-11T15:06:03Z</time><extensions><gpxtpx:TrackPointExtension><gpxtpx:atemp>2.9</gpxtpx:atemp></gpxtpx:TrackPointExtension></extensions></trkpt><trkpt lat="42.1945651900" lon="13.4072381817"><ele>1787.44</ele><time>2026-03-11T15:06:04Z</time><extensions><gpxtpx:TrackPointExtension><gpxtpx:atemp>2.9</gpxtpx:atemp></gpxtpx:TrackPointExtension></extensions></trkpt><trkpt lat="42.1945698839" lon="13.4072455578"><ele>1787.45</ele><time>2026-03-11T15:06:05Z</time><extensions><gpxtpx:TrackPointExtension><gpxtpx:atemp>2.9</gpxtpx:atemp></gpxtpx:TrackPointExtension></extensions></trkpt><trkpt lat="42.1945768408" lon="13.4072520956"><ele>1787.45</ele><time>2026-03-11T15:06:06Z</time><extensions><gpxtpx:TrackPointExtension><gpxtpx:atemp>2.9</gpxtpx:atemp></gpxtpx:TrackPointExtension></extensions></trkpt><trkpt lat="42.1945815347" lon="13.4072548617"><ele>1787.45</ele><time>2026-03-11T15:06:07Z</time><extensions><gpxtpx:TrackPointExtension><gpxtpx:atemp>2.9</gpxtpx:atemp></gpxtpx:TrackPointExtension></extensions></trkpt><trkpt lat="42.1945867315" lon="13.4072610643"><ele>1787.45</ele><time>2026-03-11T15:06:08Z</time><extensions><gpxtpx:TrackPointExtension><gpxtpx:atemp>2.9</gpxtpx:atemp></gpxtpx:TrackPointExtension></extensions></trkpt><trkpt lat="42.1945929341" lon="13.4072679374"><ele>1787.47</ele><time>2026-03-11T15:06:09Z</time><extensions><gpxtpx:TrackPointExtension><gpxtpx:atemp>2.9</gpxtpx:atemp></gpxtpx:TrackPointExtension></extensions></trkpt><trkpt lat="42.1945975441" lon="13.4072804265"><ele>1787.49</ele><time>2026-03-11T15:06:10Z</time><extensions><gpxtpx:TrackPointExtension><gpxtpx:atemp>2.9</gpxtpx:atemp></gpxtpx:TrackPointExtension></extensions></trkpt><trkpt lat="42.1946030762" lon="13.4072917420"><ele>1787.53</ele><time>2026-03-11T15:06:11Z</time><extensions><gpxtpx:TrackPointExtension><gpxtpx:atemp>2.9</gpxtpx:atemp></gpxtpx:TrackPointExtension></extensions></trkpt><trkpt lat="42.1946129669" lon="13.4073007945"><ele>1787.56</ele><time>2026-03-11T15:06:12Z</time><extensions><gpxtpx:TrackPointExtension><gpxtpx:atemp>2.9</gpxtpx:atemp></gpxtpx:TrackPointExtension></extensions></trkpt><trkpt lat="42.1946212649" lon="13.4073100984"><ele>1787.58</ele><time>2026-03-11T15:06:13Z</time><extensions><gpxtpx:TrackPointExtension><gpxtpx:atemp>2.9</gpxtpx:atemp></gpxtpx:TrackPointExtension></extensions></trkpt><trkpt lat="42.1946291439" lon="13.4073167201"><ele>1787.70</ele><time>2026-03-11T15:06:14Z</time><extensions><gpxtpx:TrackPointExtension><gpxtpx:atemp>2.9</gpxtpx:atemp></gpxtpx:TrackPointExtension></extensions></trkpt><trkpt lat="42.1946357656" lon="13.4073268622"><ele>1787.79</ele><time>2026-03-11T15:06:15Z</time><extensions><gpxtpx:TrackPointExtension><gpxtpx:atemp>2.9</gpxtpx:atemp></gpxtpx:TrackPointExtension></extensions></trkpt><trkpt lat="42.1946422197" lon="13.4073336516"><ele>1787.87</ele><time>2026-03-11T15:06:16Z</time><extensions><gpxtpx:TrackPointExtension><gpxtpx:atemp>2.9</gpxtpx:atemp></gpxtpx:TrackPointExtension></extensions></trkpt><trkpt lat="42.1946460754" lon="13.4073381778"><ele>1787.90</ele><time>2026-03-11T15:06:17Z</time><extensions><gpxtpx:TrackPointExtension><gpxtpx:atemp>2.9</gpxtpx:atemp></gpxtpx:TrackPointExtension></extensions></trkpt><trkpt lat="42.1946507692" lon="13.4073450509"><ele>1787.94</ele><time>2026-03-11T15:06:18Z</time><extensions><gpxtpx:TrackPointExtension><gpxtpx:atemp>2.9</gpxtpx:atemp></gpxtpx:TrackPointExtension></extensions></trkpt><trkpt lat="42.1946544573" lon="13.4073491581"><ele>1787.96</ele><time>2026-03-11T15:06:19Z</time><extensions><gpxtpx:TrackPointExtension><gpxtpx:atemp>2.9</gpxtpx:atemp></gpxtpx:TrackPointExtension></extensions></trkpt><trkpt lat="42.1946629230" lon="13.4073587973"><ele>1788.00</ele><time>2026-03-11T15:06:20Z</time><extensions><gpxtpx:TrackPointExtension><gpxtpx:atemp>2.9</gpxtpx:atemp></gpxtpx:TrackPointExtension></extensions></trkpt><trkpt lat="42.1946682874" lon="13.4073685203"><ele>1788.04</ele><time>2026-03-11T15:06:21Z</time><extensions><gpxtpx:TrackPointExtension><gpxtpx:atemp>2.9</gpxtpx:atemp></gpxtpx:TrackPointExtension></extensions></trkpt><trkpt lat="42.1946777590" lon="13.4073854517"><ele>1788.04</ele><time>2026-03-11T15:06:22Z</time><extensions><gpxtpx:TrackPointExtension><gpxtpx:atemp>2.9</gpxtpx:atemp></gpxtpx:TrackPointExtension></extensions></trkpt><trkpt lat="42.1946825366" lon="13.4073955938"><ele>1788.05</ele><time>2026-03-11T15:06:23Z</time><extensions><gpxtpx:TrackPointExtension><gpxtpx:atemp>2.9</gpxtpx:atemp></gpxtpx:TrackPointExtension></extensions></trkpt><trkpt lat="42.1946932655" lon="13.4074044786"><ele>1788.06</ele><time>2026-03-11T15:06:24Z</time><extensions><gpxtpx:TrackPointExtension><gpxtpx:atemp>2.9</gpxtpx:atemp></gpxtpx:TrackPointExtension></extensions></trkpt><trkpt lat="42.1947015636" lon="13.4074135311"><ele>1788.03</ele><time>2026-03-11T15:06:25Z</time><extensions><gpxtpx:TrackPointExtension><gpxtpx:atemp>2.9</gpxtpx:atemp></gpxtpx:TrackPointExtension></extensions></trkpt><trkpt lat="42.1947057545" lon="13.4074220806"><ele>1788.02</ele><time>2026-03-11T15:06:26Z</time><extensions><gpxtpx:TrackPointExtension><gpxtpx:atemp>2.9</gpxtpx:atemp></gpxtpx:TrackPointExtension></extensions></trkpt><trkpt lat="42.1947097778" lon="13.4074283671"><ele>1788.00</ele><time>2026-03-11T15:06:27Z</time><extensions><gpxtpx:TrackPointExtension><gpxtpx:atemp>2.9</gpxtpx:atemp></gpxtpx:TrackPointExtension></extensions></trkpt><trkpt lat="42.1947193332" lon="13.4074391797"><ele>1787.99</ele><time>2026-03-11T15:06:28Z</time><extensions><gpxtpx:TrackPointExtension><gpxtpx:atemp>2.9</gpxtpx:atemp></gpxtpx:TrackPointExtension></extensions></trkpt><trkpt lat="42.1947297268" lon="13.4074511658"><ele>1787.97</ele><time>2026-03-11T15:06:29Z</time><extensions><gpxtpx:TrackPointExtension><gpxtpx:atemp>2.9</gpxtpx:atemp></gpxtpx:TrackPointExtension></extensions></trkpt><trkpt lat="42.1947329957" lon="13.4074573684"><ele>1787.94</ele><time>2026-03-11T15:06:30Z</time><extensions><gpxtpx:TrackPointExtension><gpxtpx:atemp>2.9</gpxtpx:atemp></gpxtpx:TrackPointExtension></extensions></trkpt><trkpt lat="42.1947430540" lon="13.4074686840"><ele>1787.92</ele><time>2026-03-11T15:06:31Z</time><extensions><gpxtpx:TrackPointExtension><gpxtpx:atemp>2.9</gpxtpx:atemp></gpxtpx:TrackPointExtension></extensions></trkpt><trkpt lat="42.1947485860" lon="13.4074762277"><ele>1787.90</ele><time>2026-03-11T15:06:32Z</time><extensions><gpxtpx:TrackPointExtension><gpxtpx:atemp>2.8</gpxtpx:atemp></gpxtpx:TrackPointExtension></extensions></trkpt><trkpt lat="42.1947581414" lon="13.4074864537"><ele>1787.87</ele><time>2026-03-11T15:06:33Z</time><extensions><gpxtpx:TrackPointExtension><gpxtpx:atemp>2.8</gpxtpx:atemp></gpxtpx:TrackPointExtension></extensions></trkpt><trkpt lat="42.1947662719" lon="13.4075002000"><ele>1787.85</ele><time>2026-03-11T15:06:34Z</time><extensions><gpxtpx:TrackPointExtension><gpxtpx:atemp>2.8</gpxtpx:atemp></gpxtpx:TrackPointExtension></extensions></trkpt><trkpt lat="42.1947756596" lon="13.4075192269"><ele>1787.83</ele><time>2026-03-11T15:06:35Z</time><extensions><gpxtpx:TrackPointExtension><gpxtpx:atemp>2.8</gpxtpx:atemp></gpxtpx:TrackPointExtension></extensions></trkpt><trkpt lat="42.1947819460" lon="13.4075283632"><ele>1787.74</ele><time>2026-03-11T15:06:36Z</time><extensions><gpxtpx:TrackPointExtension><gpxtpx:atemp>2.8</gpxtpx:atemp></gpxtpx:TrackPointExtension></extensions></trkpt><trkpt lat="42.1947882324" lon="13.4075399302"><ele>1787.65</ele><time>2026-03-11T15:06:37Z</time><extensions><gpxtpx:TrackPointExtension><gpxtpx:atemp>2.8</gpxtpx:atemp></gpxtpx:TrackPointExtension></extensions></trkpt><trkpt lat="42.1947990451" lon="13.4075487312"><ele>1787.61</ele><time>2026-03-11T15:06:38Z</time><extensions><gpxtpx:TrackPointExtension><gpxtpx:atemp>2.8</gpxtpx:atemp></gpxtpx:TrackPointExtension></extensions></trkpt><trkpt lat="42.1948084328" lon="13.4075618908"><ele>1787.56</ele><time>2026-03-11T15:06:39Z</time><extensions><gpxtpx:TrackPointExtension><gpxtpx:atemp>2.8</gpxtpx:atemp></gpxtpx:TrackPointExtension></extensions></trkpt><trkpt lat="42.1948173176" lon="13.4075713623"><ele>1787.51</ele><time>2026-03-11T15:06:40Z</time><extensions><gpxtpx:TrackPointExtension><gpxtpx:atemp>2.8</gpxtpx:atemp></gpxtpx:TrackPointExtension></extensions></trkpt><trkpt lat="42.1948260348" lon="13.4075821750"><ele>1787.49</ele><time>2026-03-11T15:06:41Z</time><extensions><gpxtpx:TrackPointExtension><gpxtpx:atemp>2.8</gpxtpx:atemp></gpxtpx:TrackPointExtension></extensions></trkpt><trkpt lat="42.1948350873" lon="13.4075958375"><ele>1787.49</ele><time>2026-03-11T15:06:42Z</time><extensions><gpxtpx:TrackPointExtension><gpxtpx:atemp>2.8</gpxtpx:atemp></gpxtpx:TrackPointExtension></extensions></trkpt><trkpt lat="42.1948458999" lon="13.4076118469"><ele>1787.45</ele><time>2026-03-11T15:06:43Z</time><extensions><gpxtpx:TrackPointExtension><gpxtpx:atemp>2.8</gpxtpx:atemp></gpxtpx:TrackPointExtension></extensions></trkpt><trkpt lat="42.1948582213" lon="13.4076295327"><ele>1787.42</ele><time>2026-03-11T15:06:44Z</time><extensions><gpxtpx:TrackPointExtension><gpxtpx:atemp>2.8</gpxtpx:atemp></gpxtpx:TrackPointExtension></extensions></trkpt><trkpt lat="42.1948692854" lon="13.4076444525"><ele>1787.40</ele><time>2026-03-11T15:06:45Z</time><extensions><gpxtpx:TrackPointExtension><gpxtpx:atemp>2.8</gpxtpx:atemp></gpxtpx:TrackPointExtension></extensions></trkpt><trkpt lat="42.1948754881" lon="13.4076557681"><ele>1787.38</ele><time>2026-03-11T15:06:46Z</time><extensions><gpxtpx:TrackPointExtension><gpxtpx:atemp>2.8</gpxtpx:atemp></gpxtpx:TrackPointExtension></extensions></trkpt><trkpt lat="42.1948827803" lon="13.4076643176"><ele>1787.34</ele><time>2026-03-11T15:06:47Z</time><extensions><gpxtpx:TrackPointExtension><gpxtpx:atemp>2.8</gpxtpx:atemp></gpxtpx:TrackPointExtension></extensions></trkpt><trkpt lat="42.1948910784" lon="13.4076761361"><ele>1787.22</ele><time>2026-03-11T15:06:48Z</time><extensions><gpxtpx:TrackPointExtension><gpxtpx:atemp>2.8</gpxtpx:atemp></gpxtpx:TrackPointExtension></extensions></trkpt><trkpt lat="42.1948990412" lon="13.4076893795"><ele>1787.19</ele><time>2026-03-11T15:06:49Z</time><extensions><gpxtpx:TrackPointExtension><gpxtpx:atemp>2.8</gpxtpx:atemp></gpxtpx:TrackPointExtension></extensions></trkpt><trkpt lat="42.1949069202" lon="13.4077020362"><ele>1787.16</ele><time>2026-03-11T15:06:50Z</time><extensions><gpxtpx:TrackPointExtension><gpxtpx:atemp>2.8</gpxtpx:atemp></gpxtpx:TrackPointExtension></extensions></trkpt><trkpt lat="42.1949118655" lon="13.4077128489"><ele>1787.14</ele><time>2026-03-11T15:06:51Z</time><extensions><gpxtpx:TrackPointExtension><gpxtpx:atemp>2.8</gpxtpx:atemp></gpxtpx:TrackPointExtension></extensions></trkpt><trkpt lat="42.1949179843" lon="13.4077234939"><ele>1787.11</ele><time>2026-03-11T15:06:52Z</time><extensions><gpxtpx:TrackPointExtension><gpxtpx:atemp>2.8</gpxtpx:atemp></gpxtpx:TrackPointExtension></extensions></trkpt><trkpt lat="42.1949275397" lon="13.4077329654"><ele>1787.08</ele><time>2026-03-11T15:06:53Z</time><extensions><gpxtpx:TrackPointExtension><gpxtpx:atemp>2.8</gpxtpx:atemp></gpxtpx:TrackPointExtension></extensions></trkpt><trkpt lat="42.1949351672" lon="13.4077450354"><ele>1787.07</ele><time>2026-03-11T15:06:54Z</time><extensions><gpxtpx:TrackPointExtension><gpxtpx:atemp>2.8</gpxtpx:atemp></gpxtpx:TrackPointExtension></extensions></trkpt><trkpt lat="42.1949463990" lon="13.4077573568"><ele>1787.06</ele><time>2026-03-11T15:06:55Z</time><extensions><gpxtpx:TrackPointExtension><gpxtpx:atemp>2.8</gpxtpx:atemp></gpxtpx:TrackPointExtension></extensions></trkpt><trkpt lat="42.1949554514" lon="13.4077714384"><ele>1787.03</ele><time>2026-03-11T15:06:56Z</time><extensions><gpxtpx:TrackPointExtension><gpxtpx:atemp>2.8</gpxtpx:atemp></gpxtpx:TrackPointExtension></extensions></trkpt><trkpt lat="42.1949665993" lon="13.4077824187"><ele>1786.98</ele><time>2026-03-11T15:06:57Z</time><extensions><gpxtpx:TrackPointExtension><gpxtpx:atemp>2.8</gpxtpx:atemp></gpxtpx:TrackPointExtension></extensions></trkpt><trkpt lat="42.1949754842" lon="13.4077965841"><ele>1786.98</ele><time>2026-03-11T15:06:58Z</time><extensions><gpxtpx:TrackPointExtension><gpxtpx:atemp>2.8</gpxtpx:atemp></gpxtpx:TrackPointExtension></extensions></trkpt><trkpt lat="42.1949826926" lon="13.4078078996"><ele>1786.96</ele><time>2026-03-11T15:06:59Z</time><extensions><gpxtpx:TrackPointExtension><gpxtpx:atemp>2.8</gpxtpx:atemp></gpxtpx:TrackPointExtension></extensions></trkpt><trkpt lat="42.1949895658" lon="13.4078198858"><ele>1786.86</ele><time>2026-03-11T15:07:00Z</time><extensions><gpxtpx:TrackPointExtension><gpxtpx:atemp>2.8</gpxtpx:atemp></gpxtpx:TrackPointExtension></extensions></trkpt><trkpt lat="42.1949988697" lon="13.4078312851"><ele>1786.82</ele><time>2026-03-11T15:07:01Z</time><extensions><gpxtpx:TrackPointExtension><gpxtpx:atemp>2.8</gpxtpx:atemp></gpxtpx:TrackPointExtension></extensions></trkpt><trkpt lat="42.1950086765" lon="13.4078417625"><ele>1786.74</ele><time>2026-03-11T15:07:02Z</time><extensions><gpxtpx:TrackPointExtension><gpxtpx:atemp>2.8</gpxtpx:atemp></gpxtpx:TrackPointExtension></extensions></trkpt><trkpt lat="42.1950153820" lon="13.4078555927"><ele>1786.65</ele><time>2026-03-11T15:07:03Z</time><extensions><gpxtpx:TrackPointExtension><gpxtpx:atemp>2.8</gpxtpx:atemp></gpxtpx:TrackPointExtension></extensions></trkpt><trkpt lat="42.1950279549" lon="13.4078722727"><ele>1786.57</ele><time>2026-03-11T15:07:04Z</time><extensions><gpxtpx:TrackPointExtension><gpxtpx:atemp>2.8</gpxtpx:atemp></gpxtpx:TrackPointExtension></extensions></trkpt><trkpt lat="42.1950397734" lon="13.4078883659"><ele>1786.50</ele><time>2026-03-11T15:07:05Z</time><extensions><gpxtpx:TrackPointExtension><gpxtpx:atemp>2.8</gpxtpx:atemp></gpxtpx:TrackPointExtension></extensions></trkpt><trkpt lat="42.1950462274" lon="13.4078997653"><ele>1786.40</ele><time>2026-03-11T15:07:06Z</time><extensions><gpxtpx:TrackPointExtension><gpxtpx:atemp>2.8</gpxtpx:atemp></gpxtpx:TrackPointExtension></extensions></trkpt><trkpt lat="42.1950531844" lon="13.4079085663"><ele>1786.32</ele><time>2026-03-11T15:07:07Z</time><extensions><gpxtpx:TrackPointExtension><gpxtpx:atemp>2.8</gpxtpx:atemp></gpxtpx:TrackPointExtension></extensions></trkpt><trkpt lat="42.1950606443" lon="13.4079204686"><ele>1786.28</ele><time>2026-03-11T15:07:08Z</time><extensions><gpxtpx:TrackPointExtension><gpxtpx:atemp>2.8</gpxtpx:atemp></gpxtpx:TrackPointExtension></extensions></trkpt><trkpt lat="42.1950674336" lon="13.4079344664"><ele>1786.24</ele><time>2026-03-11T15:07:09Z</time><extensions><gpxtpx:TrackPointExtension><gpxtpx:atemp>2.8</gpxtpx:atemp></gpxtpx:TrackPointExtension></extensions></trkpt><trkpt lat="42.1950753964" lon="13.4079447761"><ele>1786.23</ele><time>2026-03-11T15:07:10Z</time><extensions><gpxtpx:TrackPointExtension><gpxtpx:atemp>2.8</gpxtpx:atemp></gpxtpx:TrackPointExtension></extensions></trkpt><trkpt lat="42.1950830240" lon="13.4079553373"><ele>1786.22</ele><time>2026-03-11T15:07:11Z</time><extensions><gpxtpx:TrackPointExtension><gpxtpx:atemp>2.8</gpxtpx:atemp></gpxtpx:TrackPointExtension></extensions></trkpt><trkpt lat="42.1950951777" lon="13.4079733584"><ele>1786.21</ele><time>2026-03-11T15:07:12Z</time><extensions><gpxtpx:TrackPointExtension><gpxtpx:atemp>2.8</gpxtpx:atemp></gpxtpx:TrackPointExtension></extensions></trkpt><trkpt lat="42.1951043978" lon="13.4079899546"><ele>1786.17</ele><time>2026-03-11T15:07:13Z</time><extensions><gpxtpx:TrackPointExtension><gpxtpx:atemp>2.8</gpxtpx:atemp></gpxtpx:TrackPointExtension></extensions></trkpt><trkpt lat="42.1951104328" lon="13.4080058802"><ele>1786.09</ele><time>2026-03-11T15:07:14Z</time><extensions><gpxtpx:TrackPointExtension><gpxtpx:atemp>2.8</gpxtpx:atemp></gpxtpx:TrackPointExtension></extensions></trkpt><trkpt lat="42.1951190662" lon="13.4080227278"><ele>1786.01</ele><time>2026-03-11T15:07:15Z</time><extensions><gpxtpx:TrackPointExtension><gpxtpx:atemp>2.8</gpxtpx:atemp></gpxtpx:TrackPointExtension></extensions></trkpt><trkpt lat="42.1951278672" lon="13.4080383182"><ele>1785.90</ele><time>2026-03-11T15:07:16Z</time><extensions><gpxtpx:TrackPointExtension><gpxtpx:atemp>2.8</gpxtpx:atemp></gpxtpx:TrackPointExtension></extensions></trkpt><trkpt lat="42.1951369196" lon="13.4080567583"><ele>1785.81</ele><time>2026-03-11T15:07:17Z</time><extensions><gpxtpx:TrackPointExtension><gpxtpx:atemp>2.8</gpxtpx:atemp></gpxtpx:TrackPointExtension></extensions></trkpt><trkpt lat="42.1951482352" lon="13.4080729354"><ele>1785.71</ele><time>2026-03-11T15:07:18Z</time><extensions><gpxtpx:TrackPointExtension><gpxtpx:atemp>2.8</gpxtpx:atemp></gpxtpx:TrackPointExtension></extensions></trkpt><trkpt lat="42.1951579582" lon="13.4080914594"><ele>1785.65</ele><time>2026-03-11T15:07:19Z</time><extensions><gpxtpx:TrackPointExtension><gpxtpx:atemp>2.8</gpxtpx:atemp></gpxtpx:TrackPointExtension></extensions></trkpt><trkpt lat="42.1951675974" lon="13.4081106540"><ele>1785.60</ele><time>2026-03-11T15:07:20Z</time><extensions><gpxtpx:TrackPointExtension><gpxtpx:atemp>2.8</gpxtpx:atemp></gpxtpx:TrackPointExtension></extensions></trkpt><trkpt lat="42.1951778233" lon="13.4081298485"><ele>1785.58</ele><time>2026-03-11T15:07:21Z</time><extensions><gpxtpx:TrackPointExtension><gpxtpx:atemp>2.8</gpxtpx:atemp></gpxtpx:TrackPointExtension></extensions></trkpt><trkpt lat="42.1951882169" lon="13.4081467800"><ele>1785.55</ele><time>2026-03-11T15:07:22Z</time><extensions><gpxtpx:TrackPointExtension><gpxtpx:atemp>2.8</gpxtpx:atemp></gpxtpx:TrackPointExtension></extensions></trkpt><trkpt lat="42.1951996163" lon="13.4081675671"><ele>1785.45</ele><time>2026-03-11T15:07:23Z</time><extensions><gpxtpx:TrackPointExtension><gpxtpx:atemp>2.8</gpxtpx:atemp></gpxtpx:TrackPointExtension></extensions></trkpt><trkpt lat="42.1952099260" lon="13.4081872646"><ele>1785.29</ele><time>2026-03-11T15:07:24Z</time><extensions><gpxtpx:TrackPointExtension><gpxtpx:atemp>2.8</gpxtpx:atemp></gpxtpx:TrackPointExtension></extensions></trkpt><trkpt lat="42.1952228341" lon="13.4082082193"><ele>1785.14</ele><time>2026-03-11T15:07:25Z</time><extensions><gpxtpx:TrackPointExtension><gpxtpx:atemp>2.8</gpxtpx:atemp></gpxtpx:TrackPointExtension></extensions></trkpt><trkpt lat="42.1952349879" lon="13.4082317725"><ele>1785.05</ele><time>2026-03-11T15:07:26Z</time><extensions><gpxtpx:TrackPointExtension><gpxtpx:atemp>2.8</gpxtpx:atemp></gpxtpx:TrackPointExtension></extensions></trkpt><trkpt lat="42.1952477284" lon="13.4082524758"><ele>1784.97</ele><time>2026-03-11T15:07:27Z</time><extensions><gpxtpx:TrackPointExtension><gpxtpx:atemp>2.8</gpxtpx:atemp></gpxtpx:TrackPointExtension></extensions></trkpt><trkpt lat="42.1952618938" lon="13.4082768671"><ele>1784.84</ele><time>2026-03-11T15:07:28Z</time><extensions><gpxtpx:TrackPointExtension><gpxtpx:atemp>2.8</gpxtpx:atemp></gpxtpx:TrackPointExtension></extensions></trkpt><trkpt lat="42.1952766459" lon="13.4083019290"><ele>1784.71</ele><time>2026-03-11T15:07:29Z</time><extensions><gpxtpx:TrackPointExtension><gpxtpx:atemp>2.8</gpxtpx:atemp></gpxtpx:TrackPointExtension></extensions></trkpt><trkpt lat="42.1952906437" lon="13.4083278291"><ele>1784.60</ele><time>2026-03-11T15:07:30Z</time><extensions><gpxtpx:TrackPointExtension><gpxtpx:atemp>2.8</gpxtpx:atemp></gpxtpx:TrackPointExtension></extensions></trkpt><trkpt lat="42.1953048930" lon="13.4083532263"><ele>1784.49</ele><time>2026-03-11T15:07:31Z</time><extensions><gpxtpx:TrackPointExtension><gpxtpx:atemp>2.8</gpxtpx:atemp></gpxtpx:TrackPointExtension></extensions></trkpt><trkpt lat="42.1953186393" lon="13.4083811380"><ele>1784.38</ele><time>2026-03-11T15:07:32Z</time><extensions><gpxtpx:TrackPointExtension><gpxtpx:atemp>2.9</gpxtpx:atemp></gpxtpx:TrackPointExtension></extensions></trkpt><trkpt lat="42.1953302901" lon="13.4084057808"><ele>1784.25</ele><time>2026-03-11T15:07:33Z</time><extensions><gpxtpx:TrackPointExtension><gpxtpx:atemp>2.9</gpxtpx:atemp></gpxtpx:TrackPointExtension></extensions></trkpt><trkpt lat="42.1953425277" lon="13.4084341954"><ele>1783.87</ele><time>2026-03-11T15:07:34Z</time><extensions><gpxtpx:TrackPointExtension><gpxtpx:atemp>2.9</gpxtpx:atemp></gpxtpx:TrackPointExtension></extensions></trkpt><trkpt lat="42.1953579504" lon="13.4084607661"><ele>1783.69</ele><time>2026-03-11T15:07:35Z</time><extensions><gpxtpx:TrackPointExtension><gpxtpx:atemp>2.9</gpxtpx:atemp></gpxtpx:TrackPointExtension></extensions></trkpt><trkpt lat="42.1953699365" lon="13.4084824752"><ele>1783.52</ele><time>2026-03-11T15:07:36Z</time><extensions><gpxtpx:TrackPointExtension><gpxtpx:atemp>2.9</gpxtpx:atemp></gpxtpx:TrackPointExtension></extensions></trkpt><trkpt lat="42.1953862812" lon="13.4085074533"><ele>1783.32</ele><time>2026-03-11T15:07:37Z</time><extensions><gpxtpx:TrackPointExtension><gpxtpx:atemp>2.9</gpxtpx:atemp></gpxtpx:TrackPointExtension></extensions></trkpt><trkpt lat="42.1954032965" lon="13.4085325990"><ele>1783.14</ele><time>2026-03-11T15:07:38Z</time><extensions><gpxtpx:TrackPointExtension><gpxtpx:atemp>2.9</gpxtpx:atemp></gpxtpx:TrackPointExtension></extensions></trkpt><trkpt lat="42.1954183839" lon="13.4085538890"><ele>1783.01</ele><time>2026-03-11T15:07:39Z</time><extensions><gpxtpx:TrackPointExtension><gpxtpx:atemp>2.9</gpxtpx:atemp></gpxtpx:TrackPointExtension></extensions></trkpt><trkpt lat="42.1954337228" lon="13.4085768554"><ele>1782.90</ele><time>2026-03-11T15:07:40Z</time><extensions><gpxtpx:TrackPointExtension><gpxtpx:atemp>2.9</gpxtpx:atemp></gpxtpx:TrackPointExtension></extensions></trkpt><trkpt lat="42.1954498999" lon="13.4085977264"><ele>1782.76</ele><time>2026-03-11T15:07:41Z</time><extensions><gpxtpx:TrackPointExtension><gpxtpx:atemp>2.9</gpxtpx:atemp></gpxtpx:TrackPointExtension></extensions></trkpt><trkpt lat="42.1954625566" lon="13.4086155798"><ele>1782.58</ele><time>2026-03-11T15:07:42Z</time><extensions><gpxtpx:TrackPointExtension><gpxtpx:atemp>2.9</gpxtpx:atemp></gpxtpx:TrackPointExtension></extensions></trkpt><trkpt lat="42.1954782307" lon="13.4086345229"><ele>1782.43</ele><time>2026-03-11T15:07:43Z</time><extensions><gpxtpx:TrackPointExtension><gpxtpx:atemp>2.9</gpxtpx:atemp></gpxtpx:TrackPointExtension></extensions></trkpt><trkpt lat="42.1954913903" lon="13.4086521249"><ele>1782.34</ele><time>2026-03-11T15:07:44Z</time><extensions><gpxtpx:TrackPointExtension><gpxtpx:atemp>2.9</gpxtpx:atemp></gpxtpx:TrackPointExtension></extensions></trkpt><trkpt lat="42.1955051366" lon="13.4086737502"><ele>1782.30</ele><time>2026-03-11T15:07:45Z</time><extensions><gpxtpx:TrackPointExtension><gpxtpx:atemp>2.9</gpxtpx:atemp></gpxtpx:TrackPointExtension></extensions></trkpt><trkpt lat="42.1955171227" lon="13.4086921904"><ele>1782.13</ele><time>2026-03-11T15:07:46Z</time><extensions><gpxtpx:TrackPointExtension><gpxtpx:atemp>2.9</gpxtpx:atemp></gpxtpx:TrackPointExtension></extensions></trkpt><trkpt lat="42.1955291927" lon="13.4087087866"><ele>1782.01</ele><time>2026-03-11T15:07:47Z</time><extensions><gpxtpx:TrackPointExtension><gpxtpx:atemp>2.9</gpxtpx:atemp></gpxtpx:TrackPointExtension></extensions></trkpt><trkpt lat="42.1955400892" lon="13.4087237902"><ele>1781.91</ele><time>2026-03-11T15:07:48Z</time><extensions><gpxtpx:TrackPointExtension><gpxtpx:atemp>2.9</gpxtpx:atemp></gpxtpx:TrackPointExtension></extensions></trkpt><trkpt lat="42.1955555957" lon="13.4087434877"><ele>1781.80</ele><time>2026-03-11T15:07:49Z</time><extensions><gpxtpx:TrackPointExtension><gpxtpx:atemp>2.9</gpxtpx:atemp></gpxtpx:TrackPointExtension></extensions></trkpt><trkpt lat="42.1955667436" lon="13.4087606706"><ele>1781.67</ele><time>2026-03-11T15:07:50Z</time><extensions><gpxtpx:TrackPointExtension><gpxtpx:atemp>2.9</gpxtpx:atemp></gpxtpx:TrackPointExtension></extensions></trkpt><trkpt lat="42.1955779754" lon="13.4087780211"><ele>1781.52</ele><time>2026-03-11T15:07:51Z</time><extensions><gpxtpx:TrackPointExtension><gpxtpx:atemp>2.9</gpxtpx:atemp></gpxtpx:TrackPointExtension></extensions></trkpt><trkpt lat="42.1955912188" lon="13.4088016581"><ele>1781.38</ele><time>2026-03-11T15:07:52Z</time><extensions><gpxtpx:TrackPointExtension><gpxtpx:atemp>2.9</gpxtpx:atemp></gpxtpx:TrackPointExtension></extensions></trkpt><trkpt lat="42.1956016961" lon="13.4088196792"><ele>1781.28</ele><time>2026-03-11T15:07:53Z</time><extensions><gpxtpx:TrackPointExtension><gpxtpx:atemp>2.9</gpxtpx:atemp></gpxtpx:TrackPointExtension></extensions></trkpt><trkpt lat="42.1956112515" lon="13.4088350181"><ele>1781.18</ele><time>2026-03-11T15:07:54Z</time><extensions><gpxtpx:TrackPointExtension><gpxtpx:atemp>2.9</gpxtpx:atemp></gpxtpx:TrackPointExtension></extensions></trkpt><trkpt lat="42.1956198849" lon="13.4088502731"><ele>1781.08</ele><time>2026-03-11T15:07:55Z</time><extensions><gpxtpx:TrackPointExtension><gpxtpx:atemp>2.9</gpxtpx:atemp></gpxtpx:TrackPointExtension></extensions></trkpt><trkpt lat="42.1956281830" lon="13.4088646900"><ele>1781.03</ele><time>2026-03-11T15:07:56Z</time><extensions><gpxtpx:TrackPointExtension><gpxtpx:atemp>2.9</gpxtpx:atemp></gpxtpx:TrackPointExtension></extensions></trkpt><trkpt lat="42.1956377383" lon="13.4088827949"><ele>1780.88</ele><time>2026-03-11T15:07:57Z</time><extensions><gpxtpx:TrackPointExtension><gpxtpx:atemp>2.9</gpxtpx:atemp></gpxtpx:TrackPointExtension></extensions></trkpt><trkpt lat="42.1956453659" lon="13.4088973794"><ele>1780.80</ele><time>2026-03-11T15:07:58Z</time><extensions><gpxtpx:TrackPointExtension><gpxtpx:atemp>2.9</gpxtpx:atemp></gpxtpx:TrackPointExtension></extensions></trkpt><trkpt lat="42.1956538316" lon="13.4089077730"><ele>1780.74</ele><time>2026-03-11T15:07:59Z</time><extensions><gpxtpx:TrackPointExtension><gpxtpx:atemp>2.9</gpxtpx:atemp></gpxtpx:TrackPointExtension></extensions></trkpt><trkpt lat="42.1956623811" lon="13.4089238662"><ele>1780.68</ele><time>2026-03-11T15:08:00Z</time><extensions><gpxtpx:TrackPointExtension><gpxtpx:atemp>2.9</gpxtpx:atemp></gpxtpx:TrackPointExtension></extensions></trkpt><trkpt lat="42.1956715174" lon="13.4089385346"><ele>1780.65</ele><time>2026-03-11T15:08:01Z</time><extensions><gpxtpx:TrackPointExtension><gpxtpx:atemp>2.9</gpxtpx:atemp></gpxtpx:TrackPointExtension></extensions></trkpt><trkpt lat="42.1956827492" lon="13.4089597408"><ele>1780.65</ele><time>2026-03-11T15:08:02Z</time><extensions><gpxtpx:TrackPointExtension><gpxtpx:atemp>2.9</gpxtpx:atemp></gpxtpx:TrackPointExtension></extensions></trkpt><trkpt lat="42.1956901252" lon="13.4089735709"><ele>1780.63</ele><time>2026-03-11T15:08:03Z</time><extensions><gpxtpx:TrackPointExtension><gpxtpx:atemp>2.9</gpxtpx:atemp></gpxtpx:TrackPointExtension></extensions></trkpt><trkpt lat="42.1956989262" lon="13.4089939389"><ele>1780.59</ele><time>2026-03-11T15:08:04Z</time><extensions><gpxtpx:TrackPointExtension><gpxtpx:atemp>2.9</gpxtpx:atemp></gpxtpx:TrackPointExtension></extensions></trkpt><trkpt lat="42.1957070567" lon="13.4090124629"><ele>1780.51</ele><time>2026-03-11T15:08:05Z</time><extensions><gpxtpx:TrackPointExtension><gpxtpx:atemp>2.9</gpxtpx:atemp></gpxtpx:TrackPointExtension></extensions></trkpt><trkpt lat="42.1957120858" lon="13.4090288915"><ele>1780.39</ele><time>2026-03-11T15:08:06Z</time><extensions><gpxtpx:TrackPointExtension><gpxtpx:atemp>2.9</gpxtpx:atemp></gpxtpx:TrackPointExtension></extensions></trkpt><trkpt lat="42.1957136784" lon="13.4090365190"><ele>1780.27</ele><time>2026-03-11T15:08:07Z</time><extensions><gpxtpx:TrackPointExtension><gpxtpx:atemp>2.9</gpxtpx:atemp></gpxtpx:TrackPointExtension></extensions></trkpt><trkpt lat="42.1957124211" lon="13.4090431407"><ele>1780.20</ele><time>2026-03-11T15:08:08Z</time><extensions><gpxtpx:TrackPointExtension><gpxtpx:atemp>2.9</gpxtpx:atemp></gpxtpx:TrackPointExtension></extensions></trkpt><trkpt lat="42.1957109962" lon="13.4090421349"><ele>1780.08</ele><time>2026-03-11T15:08:09Z</time><extensions><gpxtpx:TrackPointExtension><gpxtpx:atemp>2.9</gpxtpx:atemp></gpxtpx:TrackPointExtension></extensions></trkpt><trkpt lat="42.1957109962" lon="13.4090420511"><ele>1780.03</ele><time>2026-03-11T15:08:10Z</time><extensions><gpxtpx:TrackPointExtension><gpxtpx:atemp>2.9</gpxtpx:atemp></gpxtpx:TrackPointExtension></extensions></trkpt><trkpt lat="42.1957111638" lon="13.4090380277"><ele>1779.99</ele><time>2026-03-11T15:08:11Z</time><extensions><gpxtpx:TrackPointExtension><gpxtpx:atemp>2.9</gpxtpx:atemp></gpxtpx:TrackPointExtension></extensions></trkpt><trkpt lat="42.1957091521" lon="13.4090352617"><ele>1779.96</ele><time>2026-03-11T15:08:12Z</time><extensions><gpxtpx:TrackPointExtension><gpxtpx:atemp>2.9</gpxtpx:atemp></gpxtpx:TrackPointExtension></extensions></trkpt><trkpt lat="42.1957098227" lon="13.4090356808"><ele>1779.96</ele><time>2026-03-11T15:08:13Z</time><extensions><gpxtpx:TrackPointExtension><gpxtpx:atemp>2.9</gpxtpx:atemp></gpxtpx:TrackPointExtension></extensions></trkpt><trkpt lat="42.1957126725" lon="13.4090298973"><ele>1779.95</ele><time>2026-03-11T15:08:14Z</time><extensions><gpxtpx:TrackPointExtension><gpxtpx:atemp>2.9</gpxtpx:atemp></gpxtpx:TrackPointExtension></extensions></trkpt><trkpt lat="42.1957114991" lon="13.4090316575"><ele>1779.92</ele><time>2026-03-11T15:08:15Z</time><extensions><gpxtpx:TrackPointExtension><gpxtpx:atemp>2.9</gpxtpx:atemp></gpxtpx:TrackPointExtension></extensions></trkpt><trkpt lat="42.1957114991" lon="13.4090311546"><ele>1779.88</ele><time>2026-03-11T15:08:16Z</time><extensions><gpxtpx:TrackPointExtension><gpxtpx:atemp>2.9</gpxtpx:atemp></gpxtpx:TrackPointExtension></extensions></trkpt><trkpt lat="42.1957112476" lon="13.4090310708"><ele>1779.82</ele><time>2026-03-11T15:08:17Z</time><extensions><gpxtpx:TrackPointExtension><gpxtpx:atemp>2.9</gpxtpx:atemp></gpxtpx:TrackPointExtension></extensions></trkpt><trkpt lat="42.1957093198" lon="13.4090279695"><ele>1779.75</ele><time>2026-03-11T15:08:18Z</time><extensions><gpxtpx:TrackPointExtension><gpxtpx:atemp>2.9</gpxtpx:atemp></gpxtpx:TrackPointExtension></extensions></trkpt><trkpt lat="42.1957079787" lon="13.4090297297"><ele>1779.71</ele><time>2026-03-11T15:08:19Z</time><extensions><gpxtpx:TrackPointExtension><gpxtpx:atemp>2.9</gpxtpx:atemp></gpxtpx:TrackPointExtension></extensions></trkpt><trkpt lat="42.1957090683" lon="13.4090338368"><ele>1779.68</ele><time>2026-03-11T15:08:20Z</time><extensions><gpxtpx:TrackPointExtension><gpxtpx:atemp>2.9</gpxtpx:atemp></gpxtpx:TrackPointExtension></extensions></trkpt><trkpt lat="42.1957072243" lon="13.4090289753"><ele>1779.68</ele><time>2026-03-11T15:08:21Z</time><extensions><gpxtpx:TrackPointExtension><gpxtpx:atemp>2.9</gpxtpx:atemp></gpxtpx:TrackPointExtension></extensions></trkpt><trkpt lat="42.1957049612" lon="13.4090267960"><ele>1779.68</ele><time>2026-03-11T15:08:22Z</time><extensions><gpxtpx:TrackPointExtension><gpxtpx:atemp>2.9</gpxtpx:atemp></gpxtpx:TrackPointExtension></extensions></trkpt><trkpt lat="42.1957040392" lon="13.4090260416"><ele>1779.68</ele><time>2026-03-11T15:08:23Z</time><extensions><gpxtpx:TrackPointExtension><gpxtpx:atemp>2.9</gpxtpx:atemp></gpxtpx:TrackPointExtension></extensions></trkpt><trkpt lat="42.1957034525" lon="13.4090262931"><ele>1779.69</ele><time>2026-03-11T15:08:24Z</time><extensions><gpxtpx:TrackPointExtension><gpxtpx:atemp>2.9</gpxtpx:atemp></gpxtpx:TrackPointExtension></extensions></trkpt><trkpt lat="42.1957020275" lon="13.4090277180"><ele>1779.71</ele><time>2026-03-11T15:08:25Z</time><extensions><gpxtpx:TrackPointExtension><gpxtpx:atemp>2.9</gpxtpx:atemp></gpxtpx:TrackPointExtension></extensions></trkpt><trkpt lat="42.1957029495" lon="13.4090279695"><ele>1779.72</ele><time>2026-03-11T15:08:26Z</time><extensions><gpxtpx:TrackPointExtension><gpxtpx:atemp>2.9</gpxtpx:atemp></gpxtpx:TrackPointExtension></extensions></trkpt><trkpt lat="42.1957031172" lon="13.4090279695"><ele>1779.75</ele><time>2026-03-11T15:08:27Z</time><extensions><gpxtpx:TrackPointExtension><gpxtpx:atemp>2.9</gpxtpx:atemp></gpxtpx:TrackPointExtension></extensions></trkpt><trkpt lat="42.1957036201" lon="13.4090268798"><ele>1779.78</ele><time>2026-03-11T15:08:28Z</time><extensions><gpxtpx:TrackPointExtension><gpxtpx:atemp>2.9</gpxtpx:atemp></gpxtpx:TrackPointExtension></extensions></trkpt><trkpt lat="42.1957039554" lon="13.4090283886"><ele>1779.83</ele><time>2026-03-11T15:08:29Z</time><extensions><gpxtpx:TrackPointExtension><gpxtpx:atemp>2.9</gpxtpx:atemp></gpxtpx:TrackPointExtension></extensions></trkpt><trkpt lat="42.1957048774" lon="13.4090288915"><ele>1779.87</ele><time>2026-03-11T15:08:30Z</time><extensions><gpxtpx:TrackPointExtension><gpxtpx:atemp>2.9</gpxtpx:atemp></gpxtpx:TrackPointExtension></extensions></trkpt><trkpt lat="42.1957051288" lon="13.4090287238"><ele>1779.94</ele><time>2026-03-11T15:08:31Z</time><extensions><gpxtpx:TrackPointExtension><gpxtpx:atemp>2.9</gpxtpx:atemp></gpxtpx:TrackPointExtension></extensions></trkpt><trkpt lat="42.1957047936" lon="13.4090289753"><ele>1779.95</ele><time>2026-03-11T15:08:32Z</time><extensions><gpxtpx:TrackPointExtension><gpxtpx:atemp>2.7</gpxtpx:atemp></gpxtpx:TrackPointExtension></extensions></trkpt><trkpt lat="42.1957041230" lon="13.4090289753"><ele>1779.96</ele><time>2026-03-11T15:08:33Z</time><extensions><gpxtpx:TrackPointExtension><gpxtpx:atemp>2.7</gpxtpx:atemp></gpxtpx:TrackPointExtension></extensions></trkpt><trkpt lat="42.1957036201" lon="13.4090281371"><ele>1779.96</ele><time>2026-03-11T15:08:34Z</time><extensions><gpxtpx:TrackPointExtension><gpxtpx:atemp>2.7</gpxtpx:atemp></gpxtpx:TrackPointExtension></extensions></trkpt><trkpt lat="42.1957037877" lon="13.4090271313"><ele>1779.97</ele><time>2026-03-11T15:08:35Z</time><extensions><gpxtpx:TrackPointExtension><gpxtpx:atemp>2.7</gpxtpx:atemp></gpxtpx:TrackPointExtension></extensions></trkpt><trkpt lat="42.1957044583" lon="13.4090262931"><ele>1780.01</ele><time>2026-03-11T15:08:36Z</time><extensions><gpxtpx:TrackPointExtension><gpxtpx:atemp>2.7</gpxtpx:atemp></gpxtpx:TrackPointExtension></extensions></trkpt><trkpt lat="42.1957044583" lon="13.4090259578"><ele>1780.06</ele><time>2026-03-11T15:08:37Z</time><extensions><gpxtpx:TrackPointExtension><gpxtpx:atemp>2.7</gpxtpx:atemp></gpxtpx:TrackPointExtension></extensions></trkpt><trkpt lat="42.1957040392" lon="13.4090261254"><ele>1780.10</ele><time>2026-03-11T15:08:38Z</time><extensions><gpxtpx:TrackPointExtension><gpxtpx:atemp>2.7</gpxtpx:atemp></gpxtpx:TrackPointExtension></extensions></trkpt><trkpt lat="42.1957035363" lon="13.4090252873"><ele>1780.11</ele><time>2026-03-11T15:08:39Z</time><extensions><gpxtpx:TrackPointExtension><gpxtpx:atemp>2.7</gpxtpx:atemp></gpxtpx:TrackPointExtension></extensions></trkpt><trkpt lat="42.1957042906" lon="13.4090251196"><ele>1780.11</ele><time>2026-03-11T15:08:40Z</time><extensions><gpxtpx:TrackPointExtension><gpxtpx:atemp>2.7</gpxtpx:atemp></gpxtpx:TrackPointExtension></extensions></trkpt><trkpt lat="42.1957045421" lon="13.4090251196"><ele>1780.11</ele><time>2026-03-11T15:08:41Z</time><extensions><gpxtpx:TrackPointExtension><gpxtpx:atemp>2.7</gpxtpx:atemp></gpxtpx:TrackPointExtension></extensions></trkpt><trkpt lat="42.1957052965" lon="13.4090252873"><ele>1780.12</ele><time>2026-03-11T15:08:42Z</time><extensions><gpxtpx:TrackPointExtension><gpxtpx:atemp>2.7</gpxtpx:atemp></gpxtpx:TrackPointExtension></extensions></trkpt><trkpt lat="42.1957054641" lon="13.4090249520"><ele>1780.10</ele><time>2026-03-11T15:08:43Z</time><extensions><gpxtpx:TrackPointExtension><gpxtpx:atemp>2.7</gpxtpx:atemp></gpxtpx:TrackPointExtension></extensions></trkpt><trkpt lat="42.1957049612" lon="13.4090246167"><ele>1780.06</ele><time>2026-03-11T15:08:44Z</time><extensions><gpxtpx:TrackPointExtension><gpxtpx:atemp>2.7</gpxtpx:atemp></gpxtpx:TrackPointExtension></extensions></trkpt><trkpt lat="42.1957043745" lon="13.4090251196"><ele>1780.02</ele><time>2026-03-11T15:08:45Z</time><extensions><gpxtpx:TrackPointExtension><gpxtpx:atemp>2.7</gpxtpx:atemp></gpxtpx:TrackPointExtension></extensions></trkpt><trkpt lat="42.1957038715" lon="13.4090244491"><ele>1780.00</ele><time>2026-03-11T15:08:46Z</time><extensions><gpxtpx:TrackPointExtension><gpxtpx:atemp>2.7</gpxtpx:atemp></gpxtpx:TrackPointExtension></extensions></trkpt><trkpt lat="42.1957041230" lon="13.4090252873"><ele>1779.98</ele><time>2026-03-11T15:08:47Z</time><extensions><gpxtpx:TrackPointExtension><gpxtpx:atemp>2.7</gpxtpx:atemp></gpxtpx:TrackPointExtension></extensions></trkpt><trkpt lat="42.1957048774" lon="13.4090252873"><ele>1779.96</ele><time>2026-03-11T15:08:48Z</time><extensions><gpxtpx:TrackPointExtension><gpxtpx:atemp>2.7</gpxtpx:atemp></gpxtpx:TrackPointExtension></extensions></trkpt><trkpt lat="42.1957049612" lon="13.4090249520"><ele>1779.94</ele><time>2026-03-11T15:08:49Z</time><extensions><gpxtpx:TrackPointExtension><gpxtpx:atemp>2.7</gpxtpx:atemp></gpxtpx:TrackPointExtension></extensions></trkpt><trkpt lat="42.1957050450" lon="13.4090247843"><ele>1779.93</ele><time>2026-03-11T15:08:50Z</time><extensions><gpxtpx:TrackPointExtension><gpxtpx:atemp>2.7</gpxtpx:atemp></gpxtpx:TrackPointExtension></extensions></trkpt><trkpt lat="42.1957052965" lon="13.4090248682"><ele>1779.92</ele><time>2026-03-11T15:08:51Z</time><extensions><gpxtpx:TrackPointExtension><gpxtpx:atemp>2.7</gpxtpx:atemp></gpxtpx:TrackPointExtension></extensions></trkpt><trkpt lat="42.1957050450" lon="13.4090244491"><ele>1779.90</ele><time>2026-03-11T15:08:52Z</time><extensions><gpxtpx:TrackPointExtension><gpxtpx:atemp>2.7</gpxtpx:atemp></gpxtpx:TrackPointExtension></extensions></trkpt><trkpt lat="42.1957050450" lon="13.4090246167"><ele>1779.88</ele><time>2026-03-11T15:08:53Z</time><extensions><gpxtpx:TrackPointExtension><gpxtpx:atemp>2.7</gpxtpx:atemp></gpxtpx:TrackPointExtension></extensions></trkpt><trkpt lat="42.1957050450" lon="13.4090244491"><ele>1779.88</ele><time>2026-03-11T15:08:54Z</time><extensions><gpxtpx:TrackPointExtension><gpxtpx:atemp>2.7</gpxtpx:atemp></gpxtpx:TrackPointExtension></extensions></trkpt><trkpt lat="42.1957054641" lon="13.4090241976"><ele>1779.91</ele><time>2026-03-11T15:08:55Z</time><extensions><gpxtpx:TrackPointExtension><gpxtpx:atemp>2.7</gpxtpx:atemp></gpxtpx:TrackPointExtension></extensions></trkpt><trkpt lat="42.1957056317" lon="13.4090238623"><ele>1779.91</ele><time>2026-03-11T15:08:56Z</time><extensions><gpxtpx:TrackPointExtension><gpxtpx:atemp>2.7</gpxtpx:atemp></gpxtpx:TrackPointExtension></extensions></trkpt><trkpt lat="42.1957058832" lon="13.4090234432"><ele>1779.91</ele><time>2026-03-11T15:08:57Z</time><extensions><gpxtpx:TrackPointExtension><gpxtpx:atemp>2.7</gpxtpx:atemp></gpxtpx:TrackPointExtension></extensions></trkpt><trkpt lat="42.1957052965" lon="13.4090230241"><ele>1779.91</ele><time>2026-03-11T15:08:58Z</time><extensions><gpxtpx:TrackPointExtension><gpxtpx:atemp>2.7</gpxtpx:atemp></gpxtpx:TrackPointExtension></extensions></trkpt><trkpt lat="42.1957044583" lon="13.4090226889"><ele>1779.91</ele><time>2026-03-11T15:08:59Z</time><extensions><gpxtpx:TrackPointExtension><gpxtpx:atemp>2.7</gpxtpx:atemp></gpxtpx:TrackPointExtension></extensions></trkpt><trkpt lat="42.1957040392" lon="13.4090225212"><ele>1779.91</ele><time>2026-03-11T15:09:00Z</time><extensions><gpxtpx:TrackPointExtension><gpxtpx:atemp>2.7</gpxtpx:atemp></gpxtpx:TrackPointExtension></extensions></trkpt><trkpt lat="42.1957041230" lon="13.4090228565"><ele>1779.91</ele><time>2026-03-11T15:09:01Z</time><extensions><gpxtpx:TrackPointExtension><gpxtpx:atemp>2.7</gpxtpx:atemp></gpxtpx:TrackPointExtension></extensions></trkpt><trkpt lat="42.1957043745" lon="13.4090233594"><ele>1779.92</ele><time>2026-03-11T15:09:02Z</time><extensions><gpxtpx:TrackPointExtension><gpxtpx:atemp>2.7</gpxtpx:atemp></gpxtpx:TrackPointExtension></extensions></trkpt><trkpt lat="42.1957046259" lon="13.4090231918"><ele>1779.95</ele><time>2026-03-11T15:09:03Z</time><extensions><gpxtpx:TrackPointExtension><gpxtpx:atemp>2.7</gpxtpx:atemp></gpxtpx:TrackPointExtension></extensions></trkpt><trkpt lat="42.1957045421" lon="13.4090229403"><ele>1780.00</ele><time>2026-03-11T15:09:04Z</time><extensions><gpxtpx:TrackPointExtension><gpxtpx:atemp>2.7</gpxtpx:atemp></gpxtpx:TrackPointExtension></extensions></trkpt><trkpt lat="42.1957043745" lon="13.4090223536"><ele>1780.05</ele><time>2026-03-11T15:09:05Z</time><extensions><gpxtpx:TrackPointExtension><gpxtpx:atemp>2.7</gpxtpx:atemp></gpxtpx:TrackPointExtension></extensions></trkpt><trkpt lat="42.1957041230" lon="13.4090226889"><ele>1780.14</ele><time>2026-03-11T15:09:06Z</time><extensions><gpxtpx:TrackPointExtension><gpxtpx:atemp>2.7</gpxtpx:atemp></gpxtpx:TrackPointExtension></extensions></trkpt><trkpt lat="42.1957039554" lon="13.4090224374"><ele>1780.18</ele><time>2026-03-11T15:09:07Z</time><extensions><gpxtpx:TrackPointExtension><gpxtpx:atemp>2.7</gpxtpx:atemp></gpxtpx:TrackPointExtension></extensions></trkpt><trkpt lat="42.1957039554" lon="13.4090224374"><ele>1780.23</ele><time>2026-03-11T15:09:08Z</time><extensions><gpxtpx:TrackPointExtension><gpxtpx:atemp>2.7</gpxtpx:atemp></gpxtpx:TrackPointExtension></extensions></trkpt><trkpt lat="42.1957040392" lon="13.4090216830"><ele>1780.28</ele><time>2026-03-11T15:09:09Z</time><extensions><gpxtpx:TrackPointExtension><gpxtpx:atemp>2.7</gpxtpx:atemp></gpxtpx:TrackPointExtension></extensions></trkpt><trkpt lat="42.1957048774" lon="13.4090221860"><ele>1780.33</ele><time>2026-03-11T15:09:10Z</time><extensions><gpxtpx:TrackPointExtension><gpxtpx:atemp>2.7</gpxtpx:atemp></gpxtpx:TrackPointExtension></extensions></trkpt><trkpt lat="42.1957046259" lon="13.4090222698"><ele>1780.37</ele><time>2026-03-11T15:09:11Z</time><extensions><gpxtpx:TrackPointExtension><gpxtpx:atemp>2.7</gpxtpx:atemp></gpxtpx:TrackPointExtension></extensions></trkpt><trkpt lat="42.1957047936" lon="13.4090225212"><ele>1780.38</ele><time>2026-03-11T15:09:12Z</time><extensions><gpxtpx:TrackPointExtension><gpxtpx:atemp>2.7</gpxtpx:atemp></gpxtpx:TrackPointExtension></extensions></trkpt><trkpt lat="42.1957046259" lon="13.4090221860"><ele>1780.40</ele><time>2026-03-11T15:09:13Z</time><extensions><gpxtpx:TrackPointExtension><gpxtpx:atemp>2.7</gpxtpx:atemp></gpxtpx:TrackPointExtension></extensions></trkpt><trkpt lat="42.1957046259" lon="13.4090224374"><ele>1780.40</ele><time>2026-03-11T15:09:14Z</time><extensions><gpxtpx:TrackPointExtension><gpxtpx:atemp>2.7</gpxtpx:atemp></gpxtpx:TrackPointExtension></extensions></trkpt><trkpt lat="42.1957047936" lon="13.4090225212"><ele>1780.40</ele><time>2026-03-11T15:09:15Z</time><extensions><gpxtpx:TrackPointExtension><gpxtpx:atemp>2.7</gpxtpx:atemp></gpxtpx:TrackPointExtension></extensions></trkpt><trkpt lat="42.1957052965" lon="13.4090227727"><ele>1780.39</ele><time>2026-03-11T15:09:16Z</time><extensions><gpxtpx:TrackPointExtension><gpxtpx:atemp>2.7</gpxtpx:atemp></gpxtpx:TrackPointExtension></extensions></trkpt><trkpt lat="42.1957055479" lon="13.4090231918"><ele>1780.37</ele><time>2026-03-11T15:09:17Z</time><extensions><gpxtpx:TrackPointExtension><gpxtpx:atemp>2.7</gpxtpx:atemp></gpxtpx:TrackPointExtension></extensions></trkpt><trkpt lat="42.1957055479" lon="13.4090229403"><ele>1780.30</ele><time>2026-03-11T15:09:18Z</time><extensions><gpxtpx:TrackPointExtension><gpxtpx:atemp>2.7</gpxtpx:atemp></gpxtpx:TrackPointExtension></extensions></trkpt><trkpt lat="42.1957052965" lon="13.4090227727"><ele>1780.26</ele><time>2026-03-11T15:09:19Z</time><extensions><gpxtpx:TrackPointExtension><gpxtpx:atemp>2.7</gpxtpx:atemp></gpxtpx:TrackPointExtension></extensions></trkpt><trkpt lat="42.1957050450" lon="13.4090226889"><ele>1780.24</ele><time>2026-03-11T15:09:20Z</time><extensions><gpxtpx:TrackPointExtension><gpxtpx:atemp>2.7</gpxtpx:atemp></gpxtpx:TrackPointExtension></extensions></trkpt><trkpt lat="42.1957050450" lon="13.4090225212"><ele>1780.24</ele><time>2026-03-11T15:09:21Z</time><extensions><gpxtpx:TrackPointExtension><gpxtpx:atemp>2.7</gpxtpx:atemp></gpxtpx:TrackPointExtension></extensions></trkpt><trkpt lat="42.1957054641" lon="13.4090229403"><ele>1780.27</ele><time>2026-03-11T15:09:22Z</time><extensions><gpxtpx:TrackPointExtension><gpxtpx:atemp>2.7</gpxtpx:atemp></gpxtpx:TrackPointExtension></extensions></trkpt><trkpt lat="42.1957058832" lon="13.4090231918"><ele>1780.30</ele><time>2026-03-11T15:09:23Z</time><extensions><gpxtpx:TrackPointExtension><gpxtpx:atemp>2.7</gpxtpx:atemp></gpxtpx:TrackPointExtension></extensions></trkpt><trkpt lat="42.1957060508" lon="13.4090229403"><ele>1780.31</ele><time>2026-03-11T15:09:24Z</time><extensions><gpxtpx:TrackPointExtension><gpxtpx:atemp>2.7</gpxtpx:atemp></gpxtpx:TrackPointExtension></extensions></trkpt><trkpt lat="42.1957058832" lon="13.4090227727"><ele>1780.31</ele><time>2026-03-11T15:09:25Z</time><extensions><gpxtpx:TrackPointExtension><gpxtpx:atemp>2.7</gpxtpx:atemp></gpxtpx:TrackPointExtension></extensions></trkpt><trkpt lat="42.1957056317" lon="13.4090232756"><ele>1780.35</ele><time>2026-03-11T15:09:26Z</time><extensions><gpxtpx:TrackPointExtension><gpxtpx:atemp>2.7</gpxtpx:atemp></gpxtpx:TrackPointExtension></extensions></trkpt><trkpt lat="42.1957055479" lon="13.4090240300"><ele>1780.39</ele><time>2026-03-11T15:09:27Z</time><extensions><gpxtpx:TrackPointExtension><gpxtpx:atemp>2.7</gpxtpx:atemp></gpxtpx:TrackPointExtension></extensions></trkpt><trkpt lat="42.1957057994" lon="13.4090238623"><ele>1780.45</ele><time>2026-03-11T15:09:28Z</time><extensions><gpxtpx:TrackPointExtension><gpxtpx:atemp>2.7</gpxtpx:atemp></gpxtpx:TrackPointExtension></extensions></trkpt><trkpt lat="42.1957058832" lon="13.4090234432"><ele>1780.51</ele><time>2026-03-11T15:09:29Z</time><extensions><gpxtpx:TrackPointExtension><gpxtpx:atemp>2.7</gpxtpx:atemp></gpxtpx:TrackPointExtension></extensions></trkpt><trkpt lat="42.1957059670" lon="13.4090238623"><ele>1780.56</ele><time>2026-03-11T15:09:30Z</time><extensions><gpxtpx:TrackPointExtension><gpxtpx:atemp>2.7</gpxtpx:atemp></gpxtpx:TrackPointExtension></extensions></trkpt><trkpt lat="42.1957061347" lon="13.4090232756"><ele>1780.57</ele><time>2026-03-11T15:09:31Z</time><extensions><gpxtpx:TrackPointExtension><gpxtpx:atemp>2.7</gpxtpx:atemp></gpxtpx:TrackPointExtension></extensions></trkpt><trkpt lat="42.1957059670" lon="13.4090236947"><ele>1780.59</ele><time>2026-03-11T15:09:32Z</time><extensions><gpxtpx:TrackPointExtension><gpxtpx:atemp>3.0</gpxtpx:atemp></gpxtpx:TrackPointExtension></extensions></trkpt><trkpt lat="42.1957055479" lon="13.4090237785"><ele>1780.60</ele><time>2026-03-11T15:09:33Z</time><extensions><gpxtpx:TrackPointExtension><gpxtpx:atemp>3.0</gpxtpx:atemp></gpxtpx:TrackPointExtension></extensions></trkpt><trkpt lat="42.1957051288" lon="13.4090233594"><ele>1780.60</ele><time>2026-03-11T15:09:34Z</time><extensions><gpxtpx:TrackPointExtension><gpxtpx:atemp>3.0</gpxtpx:atemp></gpxtpx:TrackPointExtension></extensions></trkpt><trkpt lat="42.1957049612" lon="13.4090233594"><ele>1780.60</ele><time>2026-03-11T15:09:35Z</time><extensions><gpxtpx:TrackPointExtension><gpxtpx:atemp>3.0</gpxtpx:atemp></gpxtpx:TrackPointExtension></extensions></trkpt><trkpt lat="42.1957049612" lon="13.4090233594"><ele>1780.60</ele><time>2026-03-11T15:09:36Z</time><extensions><gpxtpx:TrackPointExtension><gpxtpx:atemp>3.0</gpxtpx:atemp></gpxtpx:TrackPointExtension></extensions></trkpt><trkpt lat="42.1957047936" lon="13.4090232756"><ele>1780.60</ele><time>2026-03-11T15:09:37Z</time><extensions><gpxtpx:TrackPointExtension><gpxtpx:atemp>3.0</gpxtpx:atemp></gpxtpx:TrackPointExtension></extensions></trkpt><trkpt lat="42.1957049612" lon="13.4090229403"><ele>1780.60</ele><time>2026-03-11T15:09:38Z</time><extensions><gpxtpx:TrackPointExtension><gpxtpx:atemp>3.0</gpxtpx:atemp></gpxtpx:TrackPointExtension></extensions></trkpt><trkpt lat="42.1957048774" lon="13.4090229403"><ele>1780.56</ele><time>2026-03-11T15:09:39Z</time><extensions><gpxtpx:TrackPointExtension><gpxtpx:atemp>3.0</gpxtpx:atemp></gpxtpx:TrackPointExtension></extensions></trkpt><trkpt lat="42.1957047936" lon="13.4090227727"><ele>1780.49</ele><time>2026-03-11T15:09:40Z</time><extensions><gpxtpx:TrackPointExtension><gpxtpx:atemp>3.0</gpxtpx:atemp></gpxtpx:TrackPointExtension></extensions></trkpt><trkpt lat="42.1957042906" lon="13.4090231918"><ele>1780.38</ele><time>2026-03-11T15:09:41Z</time><extensions><gpxtpx:TrackPointExtension><gpxtpx:atemp>3.0</gpxtpx:atemp></gpxtpx:TrackPointExtension></extensions></trkpt><trkpt lat="42.1957038715" lon="13.4090233594"><ele>1780.36</ele><time>2026-03-11T15:09:42Z</time><extensions><gpxtpx:TrackPointExtension><gpxtpx:atemp>3.0</gpxtpx:atemp></gpxtpx:TrackPointExtension></extensions></trkpt><trkpt lat="42.1957038715" lon="13.4090234432"><ele>1780.45</ele><time>2026-03-11T15:09:43Z</time><extensions><gpxtpx:TrackPointExtension><gpxtpx:atemp>3.0</gpxtpx:atemp></gpxtpx:TrackPointExtension></extensions></trkpt><trkpt lat="42.1957040392" lon="13.4090238623"><ele>1780.76</ele><time>2026-03-11T15:09:44Z</time><extensions><gpxtpx:TrackPointExtension><gpxtpx:atemp>3.0</gpxtpx:atemp></gpxtpx:TrackPointExtension></extensions></trkpt><trkpt lat="42.1957041230" lon="13.4090241976"><ele>1781.03</ele><time>2026-03-11T15:09:45Z</time><extensions><gpxtpx:TrackPointExtension><gpxtpx:atemp>3.0</gpxtpx:atemp></gpxtpx:TrackPointExtension></extensions></trkpt><trkpt lat="42.1957043745" lon="13.4090245329"><ele>1781.19</ele><time>2026-03-11T15:09:46Z</time><extensions><gpxtpx:TrackPointExtension><gpxtpx:atemp>3.0</gpxtpx:atemp></gpxtpx:TrackPointExtension></extensions></trkpt><trkpt lat="42.1957044583" lon="13.4090248682"><ele>1781.27</ele><time>2026-03-11T15:09:47Z</time><extensions><gpxtpx:TrackPointExtension><gpxtpx:atemp>3.0</gpxtpx:atemp></gpxtpx:TrackPointExtension></extensions></trkpt><trkpt lat="42.1957045421" lon="13.4090251196"><ele>1781.33</ele><time>2026-03-11T15:09:48Z</time><extensions><gpxtpx:TrackPointExtension><gpxtpx:atemp>3.0</gpxtpx:atemp></gpxtpx:TrackPointExtension></extensions></trkpt><trkpt lat="42.1957044583" lon="13.4090254549"><ele>1781.35</ele><time>2026-03-11T15:09:49Z</time><extensions><gpxtpx:TrackPointExtension><gpxtpx:atemp>3.0</gpxtpx:atemp></gpxtpx:TrackPointExtension></extensions></trkpt><trkpt lat="42.1957045421" lon="13.4090255387"><ele>1781.37</ele><time>2026-03-11T15:09:50Z</time><extensions><gpxtpx:TrackPointExtension><gpxtpx:atemp>3.0</gpxtpx:atemp></gpxtpx:TrackPointExtension></extensions></trkpt><trkpt lat="42.1957048774" lon="13.4090262931"><ele>1781.39</ele><time>2026-03-11T15:09:51Z</time><extensions><gpxtpx:TrackPointExtension><gpxtpx:atemp>3.0</gpxtpx:atemp></gpxtpx:TrackPointExtension></extensions></trkpt><trkpt lat="42.1957049612" lon="13.4090264607"><ele>1781.43</ele><time>2026-03-11T15:09:52Z</time><extensions><gpxtpx:TrackPointExtension><gpxtpx:atemp>3.0</gpxtpx:atemp></gpxtpx:TrackPointExtension></extensions></trkpt><trkpt lat="42.1957052965" lon="13.4090271313"><ele>1781.47</ele><time>2026-03-11T15:09:53Z</time><extensions><gpxtpx:TrackPointExtension><gpxtpx:atemp>3.0</gpxtpx:atemp></gpxtpx:TrackPointExtension></extensions></trkpt><trkpt lat="42.1957052965" lon="13.4090276342"><ele>1781.49</ele><time>2026-03-11T15:09:54Z</time><extensions><gpxtpx:TrackPointExtension><gpxtpx:atemp>3.0</gpxtpx:atemp></gpxtpx:TrackPointExtension></extensions></trkpt><trkpt lat="42.1957053803" lon="13.4090270475"><ele>1781.50</ele><time>2026-03-11T15:09:55Z</time><extensions><gpxtpx:TrackPointExtension><gpxtpx:atemp>3.0</gpxtpx:atemp></gpxtpx:TrackPointExtension></extensions></trkpt><trkpt lat="42.1957055479" lon="13.4090261254"><ele>1781.52</ele><time>2026-03-11T15:09:56Z</time><extensions><gpxtpx:TrackPointExtension><gpxtpx:atemp>3.0</gpxtpx:atemp></gpxtpx:TrackPointExtension></extensions></trkpt><trkpt lat="42.1957056317" lon="13.4090282209"><ele>1781.55</ele><time>2026-03-11T15:09:57Z</time><extensions><gpxtpx:TrackPointExtension><gpxtpx:atemp>3.0</gpxtpx:atemp></gpxtpx:TrackPointExtension></extensions></trkpt><trkpt lat="42.1957052965" lon="13.4090272989"><ele>1781.56</ele><time>2026-03-11T15:09:58Z</time><extensions><gpxtpx:TrackPointExtension><gpxtpx:atemp>3.0</gpxtpx:atemp></gpxtpx:TrackPointExtension></extensions></trkpt><trkpt lat="42.1957043745" lon="13.4090281371"><ele>1781.56</ele><time>2026-03-11T15:09:59Z</time><extensions><gpxtpx:TrackPointExtension><gpxtpx:atemp>3.0</gpxtpx:atemp></gpxtpx:TrackPointExtension></extensions></trkpt><trkpt lat="42.1957028657" lon="13.4090297297"><ele>1781.56</ele><time>2026-03-11T15:10:00Z</time><extensions><gpxtpx:TrackPointExtension><gpxtpx:atemp>3.0</gpxtpx:atemp></gpxtpx:TrackPointExtension></extensions></trkpt><trkpt lat="42.1957069729" lon="13.4090318251"><ele>1781.54</ele><time>2026-03-11T15:10:01Z</time><extensions><gpxtpx:TrackPointExtension><gpxtpx:atemp>3.0</gpxtpx:atemp></gpxtpx:TrackPointExtension></extensions></trkpt><trkpt lat="42.1957097389" lon="13.4090307355"><ele>1781.50</ele><time>2026-03-11T15:10:02Z</time><extensions><gpxtpx:TrackPointExtension><gpxtpx:atemp>3.0</gpxtpx:atemp></gpxtpx:TrackPointExtension></extensions></trkpt><trkpt lat="42.1957126725" lon="13.4090340883"><ele>1781.46</ele><time>2026-03-11T15:10:03Z</time><extensions><gpxtpx:TrackPointExtension><gpxtpx:atemp>3.0</gpxtpx:atemp></gpxtpx:TrackPointExtension></extensions></trkpt><trkpt lat="42.1957200486" lon="13.4090437274"><ele>1781.29</ele><time>2026-03-11T15:10:04Z</time><extensions><gpxtpx:TrackPointExtension><gpxtpx:atemp>3.0</gpxtpx:atemp></gpxtpx:TrackPointExtension></extensions></trkpt><trkpt lat="42.1957365610" lon="13.4090713877"><ele>1781.16</ele><time>2026-03-11T15:10:05Z</time><extensions><gpxtpx:TrackPointExtension><gpxtpx:atemp>3.0</gpxtpx:atemp></gpxtpx:TrackPointExtension></extensions></trkpt><trkpt lat="42.1957532410" lon="13.4090964496"><ele>1781.03</ele><time>2026-03-11T15:10:06Z</time><extensions><gpxtpx:TrackPointExtension><gpxtpx:atemp>3.0</gpxtpx:atemp></gpxtpx:TrackPointExtension></extensions></trkpt><trkpt lat="42.1957694180" lon="13.4091196675"><ele>1780.90</ele><time>2026-03-11T15:10:07Z</time><extensions><gpxtpx:TrackPointExtension><gpxtpx:atemp>3.0</gpxtpx:atemp></gpxtpx:TrackPointExtension></extensions></trkpt><trkpt lat="42.1957885288" lon="13.4091500938"><ele>1780.76</ele><time>2026-03-11T15:10:08Z</time><extensions><gpxtpx:TrackPointExtension><gpxtpx:atemp>3.0</gpxtpx:atemp></gpxtpx:TrackPointExtension></extensions></trkpt><trkpt lat="42.1958039515" lon="13.4091777541"><ele>1780.60</ele><time>2026-03-11T15:10:09Z</time><extensions><gpxtpx:TrackPointExtension><gpxtpx:atemp>3.0</gpxtpx:atemp></gpxtpx:TrackPointExtension></extensions></trkpt><trkpt lat="42.1958176978" lon="13.4092074260"><ele>1780.43</ele><time>2026-03-11T15:10:10Z</time><extensions><gpxtpx:TrackPointExtension><gpxtpx:atemp>3.0</gpxtpx:atemp></gpxtpx:TrackPointExtension></extensions></trkpt><trkpt lat="42.1958324499" lon="13.4092360921"><ele>1780.25</ele><time>2026-03-11T15:10:11Z</time><extensions><gpxtpx:TrackPointExtension><gpxtpx:atemp>3.0</gpxtpx:atemp></gpxtpx:TrackPointExtension></extensions></trkpt><trkpt lat="42.1958491299" lon="13.4092663508"><ele>1780.06</ele><time>2026-03-11T15:10:12Z</time><extensions><gpxtpx:TrackPointExtension><gpxtpx:atemp>3.0</gpxtpx:atemp></gpxtpx:TrackPointExtension></extensions></trkpt><trkpt lat="42.1958628763" lon="13.4092963580"><ele>1779.88</ele><time>2026-03-11T15:10:13Z</time><extensions><gpxtpx:TrackPointExtension><gpxtpx:atemp>3.0</gpxtpx:atemp></gpxtpx:TrackPointExtension></extensions></trkpt><trkpt lat="42.1958748624" lon="13.4093263652"><ele>1779.72</ele><time>2026-03-11T15:10:14Z</time><extensions><gpxtpx:TrackPointExtension><gpxtpx:atemp>3.0</gpxtpx:atemp></gpxtpx:TrackPointExtension></extensions></trkpt><trkpt lat="42.1958841663" lon="13.4093571268"><ele>1779.31</ele><time>2026-03-11T15:10:15Z</time><extensions><gpxtpx:TrackPointExtension><gpxtpx:atemp>3.0</gpxtpx:atemp></gpxtpx:TrackPointExtension></extensions></trkpt><trkpt lat="42.1958932187" lon="13.4093822725"><ele>1779.11</ele><time>2026-03-11T15:10:16Z</time><extensions><gpxtpx:TrackPointExtension><gpxtpx:atemp>3.0</gpxtpx:atemp></gpxtpx:TrackPointExtension></extensions></trkpt><trkpt lat="42.1959012654" lon="13.4094070829"><ele>1778.90</ele><time>2026-03-11T15:10:17Z</time><extensions><gpxtpx:TrackPointExtension><gpxtpx:atemp>3.0</gpxtpx:atemp></gpxtpx:TrackPointExtension></extensions></trkpt><trkpt lat="42.1959103178" lon="13.4094305523"><ele>1778.71</ele><time>2026-03-11T15:10:18Z</time><extensions><gpxtpx:TrackPointExtension><gpxtpx:atemp>3.0</gpxtpx:atemp></gpxtpx:TrackPointExtension></extensions></trkpt><trkpt lat="42.1959183645" lon="13.4094506688"><ele>1778.53</ele><time>2026-03-11T15:10:19Z</time><extensions><gpxtpx:TrackPointExtension><gpxtpx:atemp>3.0</gpxtpx:atemp></gpxtpx:TrackPointExtension></extensions></trkpt><trkpt lat="42.1959270816" lon="13.4094706178"><ele>1778.37</ele><time>2026-03-11T15:10:20Z</time><extensions><gpxtpx:TrackPointExtension><gpxtpx:atemp>3.0</gpxtpx:atemp></gpxtpx:TrackPointExtension></extensions></trkpt><trkpt lat="42.1959358826" lon="13.4094898961"><ele>1778.24</ele><time>2026-03-11T15:10:21Z</time><extensions><gpxtpx:TrackPointExtension><gpxtpx:atemp>3.0</gpxtpx:atemp></gpxtpx:TrackPointExtension></extensions></trkpt><trkpt lat="42.1959421691" lon="13.4095083363"><ele>1778.10</ele><time>2026-03-11T15:10:22Z</time><extensions><gpxtpx:TrackPointExtension><gpxtpx:atemp>3.0</gpxtpx:atemp></gpxtpx:TrackPointExtension></extensions></trkpt><trkpt lat="42.1959475335" lon="13.4095244296"><ele>1777.92</ele><time>2026-03-11T15:10:23Z</time><extensions><gpxtpx:TrackPointExtension><gpxtpx:atemp>3.0</gpxtpx:atemp></gpxtpx:TrackPointExtension></extensions></trkpt><trkpt lat="42.1959518921" lon="13.4095367510"><ele>1777.76</ele><time>2026-03-11T15:10:24Z</time><extensions><gpxtpx:TrackPointExtension><gpxtpx:atemp>3.0</gpxtpx:atemp></gpxtpx:TrackPointExtension></extensions></trkpt><trkpt lat="42.1959544905" lon="13.4095431212"><ele>1777.65</ele><time>2026-03-11T15:10:25Z</time><extensions><gpxtpx:TrackPointExtension><gpxtpx:atemp>3.0</gpxtpx:atemp></gpxtpx:TrackPointExtension></extensions></trkpt><trkpt lat="42.1959558316" lon="13.4095462225"><ele>1777.57</ele><time>2026-03-11T15:10:26Z</time><extensions><gpxtpx:TrackPointExtension><gpxtpx:atemp>3.0</gpxtpx:atemp></gpxtpx:TrackPointExtension></extensions></trkpt><trkpt lat="42.1959553286" lon="13.4095467255"><ele>1777.37</ele><time>2026-03-11T15:10:27Z</time><extensions><gpxtpx:TrackPointExtension><gpxtpx:atemp>3.0</gpxtpx:atemp></gpxtpx:TrackPointExtension></extensions></trkpt><trkpt lat="42.1959547419" lon="13.4095452167"><ele>1777.28</ele><time>2026-03-11T15:10:28Z</time><extensions><gpxtpx:TrackPointExtension><gpxtpx:atemp>3.0</gpxtpx:atemp></gpxtpx:TrackPointExtension></extensions></trkpt><trkpt lat="42.1959551610" lon="13.4095447976"><ele>1777.22</ele><time>2026-03-11T15:10:29Z</time><extensions><gpxtpx:TrackPointExtension><gpxtpx:atemp>3.0</gpxtpx:atemp></gpxtpx:TrackPointExtension></extensions></trkpt><trkpt lat="42.1959548257" lon="13.4095450491"><ele>1777.18</ele><time>2026-03-11T15:10:30Z</time><extensions><gpxtpx:TrackPointExtension><gpxtpx:atemp>3.0</gpxtpx:atemp></gpxtpx:TrackPointExtension></extensions></trkpt><trkpt lat="42.1959552448" lon="13.4095450491"><ele>1777.16</ele><time>2026-03-11T15:10:31Z</time><extensions><gpxtpx:TrackPointExtension><gpxtpx:atemp>3.0</gpxtpx:atemp></gpxtpx:TrackPointExtension></extensions></trkpt><trkpt lat="42.1959557477" lon="13.4095450491"><ele>1777.14</ele><time>2026-03-11T15:10:32Z</time><extensions><gpxtpx:TrackPointExtension><gpxtpx:atemp>3.0</gpxtpx:atemp></gpxtpx:TrackPointExtension></extensions></trkpt><trkpt lat="42.1959558316" lon="13.4095442947"><ele>1777.13</ele><time>2026-03-11T15:10:33Z</time><extensions><gpxtpx:TrackPointExtension><gpxtpx:atemp>3.0</gpxtpx:atemp></gpxtpx:TrackPointExtension></extensions></trkpt><trkpt lat="42.1959558316" lon="13.4095441271"><ele>1777.13</ele><time>2026-03-11T15:10:34Z</time><extensions><gpxtpx:TrackPointExtension><gpxtpx:atemp>3.0</gpxtpx:atemp></gpxtpx:TrackPointExtension></extensions></trkpt><trkpt lat="42.1959558316" lon="13.4095442947"><ele>1777.11</ele><time>2026-03-11T15:10:35Z</time><extensions><gpxtpx:TrackPointExtension><gpxtpx:atemp>3.0</gpxtpx:atemp></gpxtpx:TrackPointExtension></extensions></trkpt><trkpt lat="42.1959559992" lon="13.4095450491"><ele>1777.10</ele><time>2026-03-11T15:10:36Z</time><extensions><gpxtpx:TrackPointExtension><gpxtpx:atemp>3.0</gpxtpx:atemp></gpxtpx:TrackPointExtension></extensions></trkpt><trkpt lat="42.1959564183" lon="13.4095447976"><ele>1777.06</ele><time>2026-03-11T15:10:37Z</time><extensions><gpxtpx:TrackPointExtension><gpxtpx:atemp>3.0</gpxtpx:atemp></gpxtpx:TrackPointExtension></extensions></trkpt><trkpt lat="42.1959560830" lon="13.4095441271"><ele>1777.03</ele><time>2026-03-11T15:10:38Z</time><extensions><gpxtpx:TrackPointExtension><gpxtpx:atemp>3.0</gpxtpx:atemp></gpxtpx:TrackPointExtension></extensions></trkpt><trkpt lat="42.1959558316" lon="13.4095438756"><ele>1777.03</ele><time>2026-03-11T15:10:39Z</time><extensions><gpxtpx:TrackPointExtension><gpxtpx:atemp>3.0</gpxtpx:atemp></gpxtpx:TrackPointExtension></extensions></trkpt><trkpt lat="42.1959555801" lon="13.4095435403"><ele>1777.05</ele><time>2026-03-11T15:10:40Z</time><extensions><gpxtpx:TrackPointExtension><gpxtpx:atemp>3.0</gpxtpx:atemp></gpxtpx:TrackPointExtension></extensions></trkpt><trkpt lat="42.1959561668" lon="13.4095438756"><ele>1777.06</ele><time>2026-03-11T15:10:41Z</time><extensions><gpxtpx:TrackPointExtension><gpxtpx:atemp>3.0</gpxtpx:atemp></gpxtpx:TrackPointExtension></extensions></trkpt><trkpt lat="42.1959555801" lon="13.4095445462"><ele>1777.04</ele><time>2026-03-11T15:10:42Z</time><extensions><gpxtpx:TrackPointExtension><gpxtpx:atemp>3.0</gpxtpx:atemp></gpxtpx:TrackPointExtension></extensions></trkpt><trkpt lat="42.1959552448" lon="13.4095452167"><ele>1777.07</ele><time>2026-03-11T15:10:43Z</time><extensions><gpxtpx:TrackPointExtension><gpxtpx:atemp>3.0</gpxtpx:atemp></gpxtpx:TrackPointExtension></extensions></trkpt><trkpt lat="42.1959553286" lon="13.4095453843"><ele>1777.08</ele><time>2026-03-11T15:10:44Z</time><extensions><gpxtpx:TrackPointExtension><gpxtpx:atemp>3.0</gpxtpx:atemp></gpxtpx:TrackPointExtension></extensions></trkpt><trkpt lat="42.1959553286" lon="13.4095458873"><ele>1777.09</ele><time>2026-03-11T15:10:45Z</time><extensions><gpxtpx:TrackPointExtension><gpxtpx:atemp>3.0</gpxtpx:atemp></gpxtpx:TrackPointExtension></extensions></trkpt><trkpt lat="42.1959558316" lon="13.4095459711"><ele>1777.03</ele><time>2026-03-11T15:10:46Z</time><extensions><gpxtpx:TrackPointExtension><gpxtpx:atemp>3.0</gpxtpx:atemp></gpxtpx:TrackPointExtension></extensions></trkpt><trkpt lat="42.1959560830" lon="13.4095460549"><ele>1776.95</ele><time>2026-03-11T15:10:47Z</time><extensions><gpxtpx:TrackPointExtension><gpxtpx:atemp>3.0</gpxtpx:atemp></gpxtpx:TrackPointExtension></extensions></trkpt><trkpt lat="42.1959554963" lon="13.4095461387"><ele>1776.91</ele><time>2026-03-11T15:10:48Z</time><extensions><gpxtpx:TrackPointExtension><gpxtpx:atemp>3.0</gpxtpx:atemp></gpxtpx:TrackPointExtension></extensions></trkpt><trkpt lat="42.1959556639" lon="13.4095462225"><ele>1776.95</ele><time>2026-03-11T15:10:49Z</time><extensions><gpxtpx:TrackPointExtension><gpxtpx:atemp>3.0</gpxtpx:atemp></gpxtpx:TrackPointExtension></extensions></trkpt><trkpt lat="42.1959555801" lon="13.4095466416"><ele>1776.87</ele><time>2026-03-11T15:10:50Z</time><extensions><gpxtpx:TrackPointExtension><gpxtpx:atemp>3.0</gpxtpx:atemp></gpxtpx:TrackPointExtension></extensions></trkpt><trkpt lat="42.1959555801" lon="13.4095462225"><ele>1776.84</ele><time>2026-03-11T15:10:51Z</time><extensions><gpxtpx:TrackPointExtension><gpxtpx:atemp>3.0</gpxtpx:atemp></gpxtpx:TrackPointExtension></extensions></trkpt><trkpt lat="42.1959552448" lon="13.4095458873"><ele>1776.93</ele><time>2026-03-11T15:10:52Z</time><extensions><gpxtpx:TrackPointExtension><gpxtpx:atemp>3.0</gpxtpx:atemp></gpxtpx:TrackPointExtension></extensions></trkpt><trkpt lat="42.1959551610" lon="13.4095460549"><ele>1777.07</ele><time>2026-03-11T15:10:53Z</time><extensions><gpxtpx:TrackPointExtension><gpxtpx:atemp>3.0</gpxtpx:atemp></gpxtpx:TrackPointExtension></extensions></trkpt><trkpt lat="42.1959552448" lon="13.4095465578"><ele>1777.15</ele><time>2026-03-11T15:10:54Z</time><extensions><gpxtpx:TrackPointExtension><gpxtpx:atemp>3.0</gpxtpx:atemp></gpxtpx:TrackPointExtension></extensions></trkpt><trkpt lat="42.1959540714" lon="13.4095462225"><ele>1777.16</ele><time>2026-03-11T15:10:55Z</time><extensions><gpxtpx:TrackPointExtension><gpxtpx:atemp>3.0</gpxtpx:atemp></gpxtpx:TrackPointExtension></extensions></trkpt><trkpt lat="42.1959549934" lon="13.4095467255"><ele>1777.17</ele><time>2026-03-11T15:10:56Z</time><extensions><gpxtpx:TrackPointExtension><gpxtpx:atemp>3.0</gpxtpx:atemp></gpxtpx:TrackPointExtension></extensions></trkpt><trkpt lat="42.1959544905" lon="13.4095463902"><ele>1777.18</ele><time>2026-03-11T15:10:57Z</time><extensions><gpxtpx:TrackPointExtension><gpxtpx:atemp>3.0</gpxtpx:atemp></gpxtpx:TrackPointExtension></extensions></trkpt><trkpt lat="42.1959550772" lon="13.4095462225"><ele>1777.17</ele><time>2026-03-11T15:10:58Z</time><extensions><gpxtpx:TrackPointExtension><gpxtpx:atemp>3.0</gpxtpx:atemp></gpxtpx:TrackPointExtension></extensions></trkpt><trkpt lat="42.1959553286" lon="13.4095465578"><ele>1777.12</ele><time>2026-03-11T15:10:59Z</time><extensions><gpxtpx:TrackPointExtension><gpxtpx:atemp>3.0</gpxtpx:atemp></gpxtpx:TrackPointExtension></extensions></trkpt><trkpt lat="42.1959550772" lon="13.4095468931"><ele>1777.07</ele><time>2026-03-11T15:11:00Z</time><extensions><gpxtpx:TrackPointExtension><gpxtpx:atemp>3.0</gpxtpx:atemp></gpxtpx:TrackPointExtension></extensions></trkpt><trkpt lat="42.1959552448" lon="13.4095470607"><ele>1777.06</ele><time>2026-03-11T15:11:01Z</time><extensions><gpxtpx:TrackPointExtension><gpxtpx:atemp>3.0</gpxtpx:atemp></gpxtpx:TrackPointExtension></extensions></trkpt><trkpt lat="42.1959552448" lon="13.4095476475"><ele>1777.06</ele><time>2026-03-11T15:11:02Z</time><extensions><gpxtpx:TrackPointExtension><gpxtpx:atemp>3.0</gpxtpx:atemp></gpxtpx:TrackPointExtension></extensions></trkpt><trkpt lat="42.1959550772" lon="13.4095477313"><ele>1777.05</ele><time>2026-03-11T15:11:03Z</time><extensions><gpxtpx:TrackPointExtension><gpxtpx:atemp>3.0</gpxtpx:atemp></gpxtpx:TrackPointExtension></extensions></trkpt><trkpt lat="42.1959558316" lon="13.4095475636"><ele>1777.05</ele><time>2026-03-11T15:11:04Z</time><extensions><gpxtpx:TrackPointExtension><gpxtpx:atemp>3.0</gpxtpx:atemp></gpxtpx:TrackPointExtension></extensions></trkpt><trkpt lat="42.1959559992" lon="13.4095479827"><ele>1777.05</ele><time>2026-03-11T15:11:05Z</time><extensions><gpxtpx:TrackPointExtension><gpxtpx:atemp>3.0</gpxtpx:atemp></gpxtpx:TrackPointExtension></extensions></trkpt><trkpt lat="42.1959561668" lon="13.4095482342"><ele>1777.05</ele><time>2026-03-11T15:11:06Z</time><extensions><gpxtpx:TrackPointExtension><gpxtpx:atemp>3.0</gpxtpx:atemp></gpxtpx:TrackPointExtension></extensions></trkpt><trkpt lat="42.1959560830" lon="13.4095487371"><ele>1777.05</ele><time>2026-03-11T15:11:07Z</time><extensions><gpxtpx:TrackPointExtension><gpxtpx:atemp>3.0</gpxtpx:atemp></gpxtpx:TrackPointExtension></extensions></trkpt><trkpt lat="42.1959553286" lon="13.4095487371"><ele>1777.03</ele><time>2026-03-11T15:11:08Z</time><extensions><gpxtpx:TrackPointExtension><gpxtpx:atemp>3.0</gpxtpx:atemp></gpxtpx:TrackPointExtension></extensions></trkpt><trkpt lat="42.1959549934" lon="13.4095485695"><ele>1777.01</ele><time>2026-03-11T15:11:09Z</time><extensions><gpxtpx:TrackPointExtension><gpxtpx:atemp>3.0</gpxtpx:atemp></gpxtpx:TrackPointExtension></extensions></trkpt><trkpt lat="42.1959548257" lon="13.4095484857"><ele>1776.98</ele><time>2026-03-11T15:11:10Z</time><extensions><gpxtpx:TrackPointExtension><gpxtpx:atemp>3.0</gpxtpx:atemp></gpxtpx:TrackPointExtension></extensions></trkpt><trkpt lat="42.1959547419" lon="13.4095485695"><ele>1776.95</ele><time>2026-03-11T15:11:11Z</time><extensions><gpxtpx:TrackPointExtension><gpxtpx:atemp>3.0</gpxtpx:atemp></gpxtpx:TrackPointExtension></extensions></trkpt><trkpt lat="42.1959558316" lon="13.4095475636"><ele>1776.95</ele><time>2026-03-11T15:11:12Z</time><extensions><gpxtpx:TrackPointExtension><gpxtpx:atemp>3.0</gpxtpx:atemp></gpxtpx:TrackPointExtension></extensions></trkpt><trkpt lat="42.1959551610" lon="13.4095476475"><ele>1776.94</ele><time>2026-03-11T15:11:13Z</time><extensions><gpxtpx:TrackPointExtension><gpxtpx:atemp>3.0</gpxtpx:atemp></gpxtpx:TrackPointExtension></extensions></trkpt><trkpt lat="42.1959554963" lon="13.4095480666"><ele>1776.93</ele><time>2026-03-11T15:11:14Z</time><extensions><gpxtpx:TrackPointExtension><gpxtpx:atemp>3.0</gpxtpx:atemp></gpxtpx:TrackPointExtension></extensions></trkpt><trkpt lat="42.1959558316" lon="13.4095488209"><ele>1776.92</ele><time>2026-03-11T15:11:15Z</time><extensions><gpxtpx:TrackPointExtension><gpxtpx:atemp>3.0</gpxtpx:atemp></gpxtpx:TrackPointExtension></extensions></trkpt><trkpt lat="42.1959570888" lon="13.4095525928"><ele>1776.92</ele><time>2026-03-11T15:11:16Z</time><extensions><gpxtpx:TrackPointExtension><gpxtpx:atemp>3.0</gpxtpx:atemp></gpxtpx:TrackPointExtension></extensions></trkpt><trkpt lat="42.1959560830" lon="13.4095721226"><ele>1776.91</ele><time>2026-03-11T15:11:17Z</time><extensions><gpxtpx:TrackPointExtension><gpxtpx:atemp>3.0</gpxtpx:atemp></gpxtpx:TrackPointExtension></extensions></trkpt><trkpt lat="42.1959638782" lon="13.4095878806"><ele>1776.90</ele><time>2026-03-11T15:11:18Z</time><extensions><gpxtpx:TrackPointExtension><gpxtpx:atemp>3.0</gpxtpx:atemp></gpxtpx:TrackPointExtension></extensions></trkpt><trkpt lat="42.1959703322" lon="13.4096056502"><ele>1776.89</ele><time>2026-03-11T15:11:19Z</time><extensions><gpxtpx:TrackPointExtension><gpxtpx:atemp>3.0</gpxtpx:atemp></gpxtpx:TrackPointExtension></extensions></trkpt><trkpt lat="42.1959751938" lon="13.4096186422"><ele>1776.87</ele><time>2026-03-11T15:11:20Z</time><extensions><gpxtpx:TrackPointExtension><gpxtpx:atemp>3.0</gpxtpx:atemp></gpxtpx:TrackPointExtension></extensions></trkpt><trkpt lat="42.1959808934" lon="13.4096334781"><ele>1776.83</ele><time>2026-03-11T15:11:21Z</time><extensions><gpxtpx:TrackPointExtension><gpxtpx:atemp>3.0</gpxtpx:atemp></gpxtpx:TrackPointExtension></extensions></trkpt><trkpt lat="42.1959873475" lon="13.4096463863"><ele>1776.76</ele><time>2026-03-11T15:11:22Z</time><extensions><gpxtpx:TrackPointExtension><gpxtpx:atemp>3.0</gpxtpx:atemp></gpxtpx:TrackPointExtension></extensions></trkpt><trkpt lat="42.1959912870" lon="13.4096557740"><ele>1776.71</ele><time>2026-03-11T15:11:23Z</time><extensions><gpxtpx:TrackPointExtension><gpxtpx:atemp>3.0</gpxtpx:atemp></gpxtpx:TrackPointExtension></extensions></trkpt><trkpt lat="42.1959974896" lon="13.4096634854"><ele>1776.62</ele><time>2026-03-11T15:11:24Z</time><extensions><gpxtpx:TrackPointExtension><gpxtpx:atemp>3.0</gpxtpx:atemp></gpxtpx:TrackPointExtension></extensions></trkpt><trkpt lat="42.1960044466" lon="13.4096808359"><ele>1776.47</ele><time>2026-03-11T15:11:25Z</time><extensions><gpxtpx:TrackPointExtension><gpxtpx:atemp>3.0</gpxtpx:atemp></gpxtpx:TrackPointExtension></extensions></trkpt><trkpt lat="42.1960107330" lon="13.4096952528"><ele>1776.43</ele><time>2026-03-11T15:11:26Z</time><extensions><gpxtpx:TrackPointExtension><gpxtpx:atemp>3.0</gpxtpx:atemp></gpxtpx:TrackPointExtension></extensions></trkpt><trkpt lat="42.1960173547" lon="13.4097114298"><ele>1776.39</ele><time>2026-03-11T15:11:27Z</time><extensions><gpxtpx:TrackPointExtension><gpxtpx:atemp>3.0</gpxtpx:atemp></gpxtpx:TrackPointExtension></extensions></trkpt><trkpt lat="42.1960248984" lon="13.4097279422"><ele>1776.36</ele><time>2026-03-11T15:11:28Z</time><extensions><gpxtpx:TrackPointExtension><gpxtpx:atemp>3.0</gpxtpx:atemp></gpxtpx:TrackPointExtension></extensions></trkpt><trkpt lat="42.1960318554" lon="13.4097420238"><ele>1776.33</ele><time>2026-03-11T15:11:29Z</time><extensions><gpxtpx:TrackPointExtension><gpxtpx:atemp>3.0</gpxtpx:atemp></gpxtpx:TrackPointExtension></extensions></trkpt><trkpt lat="42.1960387286" lon="13.4097585361"><ele>1776.27</ele><time>2026-03-11T15:11:30Z</time><extensions><gpxtpx:TrackPointExtension><gpxtpx:atemp>3.0</gpxtpx:atemp></gpxtpx:TrackPointExtension></extensions></trkpt><trkpt lat="42.1960485354" lon="13.4097746294"><ele>1776.20</ele><time>2026-03-11T15:11:31Z</time><extensions><gpxtpx:TrackPointExtension><gpxtpx:atemp>3.0</gpxtpx:atemp></gpxtpx:TrackPointExtension></extensions></trkpt><trkpt lat="42.1960556600" lon="13.4097907227"><ele>1776.16</ele><time>2026-03-11T15:11:32Z</time><extensions><gpxtpx:TrackPointExtension><gpxtpx:atemp>2.9</gpxtpx:atemp></gpxtpx:TrackPointExtension></extensions></trkpt><trkpt lat="42.1960589290" lon="13.4098042175"><ele>1776.10</ele><time>2026-03-11T15:11:33Z</time><extensions><gpxtpx:TrackPointExtension><gpxtpx:atemp>2.9</gpxtpx:atemp></gpxtpx:TrackPointExtension></extensions></trkpt><trkpt lat="42.1960618626" lon="13.4098180477"><ele>1776.03</ele><time>2026-03-11T15:11:34Z</time><extensions><gpxtpx:TrackPointExtension><gpxtpx:atemp>2.9</gpxtpx:atemp></gpxtpx:TrackPointExtension></extensions></trkpt><trkpt lat="42.1960655507" lon="13.4098317940"><ele>1775.96</ele><time>2026-03-11T15:11:35Z</time><extensions><gpxtpx:TrackPointExtension><gpxtpx:atemp>2.9</gpxtpx:atemp></gpxtpx:TrackPointExtension></extensions></trkpt><trkpt lat="42.1960737649" lon="13.4098462947"><ele>1775.87</ele><time>2026-03-11T15:11:36Z</time><extensions><gpxtpx:TrackPointExtension><gpxtpx:atemp>2.9</gpxtpx:atemp></gpxtpx:TrackPointExtension></extensions></trkpt><trkpt lat="42.1960819792" lon="13.4098607954"><ele>1775.78</ele><time>2026-03-11T15:11:37Z</time><extensions><gpxtpx:TrackPointExtension><gpxtpx:atemp>2.9</gpxtpx:atemp></gpxtpx:TrackPointExtension></extensions></trkpt><trkpt lat="42.1960881818" lon="13.4098672494"><ele>1775.71</ele><time>2026-03-11T15:11:38Z</time><extensions><gpxtpx:TrackPointExtension><gpxtpx:atemp>2.9</gpxtpx:atemp></gpxtpx:TrackPointExtension></extensions></trkpt><trkpt lat="42.1960972343" lon="13.4098794870"><ele>1775.67</ele><time>2026-03-11T15:11:39Z</time><extensions><gpxtpx:TrackPointExtension><gpxtpx:atemp>2.9</gpxtpx:atemp></gpxtpx:TrackPointExtension></extensions></trkpt><trkpt lat="42.1961030178" lon="13.4098897967"><ele>1775.64</ele><time>2026-03-11T15:11:40Z</time><extensions><gpxtpx:TrackPointExtension><gpxtpx:atemp>2.9</gpxtpx:atemp></gpxtpx:TrackPointExtension></extensions></trkpt><trkpt lat="42.1961101424" lon="13.4099041298"><ele>1775.63</ele><time>2026-03-11T15:11:41Z</time><extensions><gpxtpx:TrackPointExtension><gpxtpx:atemp>2.9</gpxtpx:atemp></gpxtpx:TrackPointExtension></extensions></trkpt><trkpt lat="42.1961169317" lon="13.4099181276"><ele>1775.62</ele><time>2026-03-11T15:11:42Z</time><extensions><gpxtpx:TrackPointExtension><gpxtpx:atemp>2.9</gpxtpx:atemp></gpxtpx:TrackPointExtension></extensions></trkpt><trkpt lat="42.1961245593" lon="13.4099284373"><ele>1775.59</ele><time>2026-03-11T15:11:43Z</time><extensions><gpxtpx:TrackPointExtension><gpxtpx:atemp>2.9</gpxtpx:atemp></gpxtpx:TrackPointExtension></extensions></trkpt><trkpt lat="42.1961316839" lon="13.4099422675"><ele>1775.55</ele><time>2026-03-11T15:11:44Z</time><extensions><gpxtpx:TrackPointExtension><gpxtpx:atemp>2.9</gpxtpx:atemp></gpxtpx:TrackPointExtension></extensions></trkpt><trkpt lat="42.1961373836" lon="13.4099555947"><ele>1775.50</ele><time>2026-03-11T15:11:45Z</time><extensions><gpxtpx:TrackPointExtension><gpxtpx:atemp>2.9</gpxtpx:atemp></gpxtpx:TrackPointExtension></extensions></trkpt><trkpt lat="42.1961429995" lon="13.4099688381"><ele>1775.44</ele><time>2026-03-11T15:11:46Z</time><extensions><gpxtpx:TrackPointExtension><gpxtpx:atemp>2.9</gpxtpx:atemp></gpxtpx:TrackPointExtension></extensions></trkpt><trkpt lat="42.1961492859" lon="13.4099835902"><ele>1775.35</ele><time>2026-03-11T15:11:47Z</time><extensions><gpxtpx:TrackPointExtension><gpxtpx:atemp>2.9</gpxtpx:atemp></gpxtpx:TrackPointExtension></extensions></trkpt><trkpt lat="42.1961578354" lon="13.4100032877"><ele>1775.28</ele><time>2026-03-11T15:11:48Z</time><extensions><gpxtpx:TrackPointExtension><gpxtpx:atemp>2.9</gpxtpx:atemp></gpxtpx:TrackPointExtension></extensions></trkpt><trkpt lat="42.1961644571" lon="13.4100190457"><ele>1775.22</ele><time>2026-03-11T15:11:49Z</time><extensions><gpxtpx:TrackPointExtension><gpxtpx:atemp>2.9</gpxtpx:atemp></gpxtpx:TrackPointExtension></extensions></trkpt><trkpt lat="42.1961711626" lon="13.4100352228"><ele>1775.20</ele><time>2026-03-11T15:11:50Z</time><extensions><gpxtpx:TrackPointExtension><gpxtpx:atemp>2.9</gpxtpx:atemp></gpxtpx:TrackPointExtension></extensions></trkpt><trkpt lat="42.1961775329" lon="13.4100496396"><ele>1775.18</ele><time>2026-03-11T15:11:51Z</time><extensions><gpxtpx:TrackPointExtension><gpxtpx:atemp>2.9</gpxtpx:atemp></gpxtpx:TrackPointExtension></extensions></trkpt><trkpt lat="42.1961858310" lon="13.4100644756"><ele>1775.15</ele><time>2026-03-11T15:11:52Z</time><extensions><gpxtpx:TrackPointExtension><gpxtpx:atemp>2.9</gpxtpx:atemp></gpxtpx:TrackPointExtension></extensions></trkpt><trkpt lat="42.1961910278" lon="13.4100766294"><ele>1775.10</ele><time>2026-03-11T15:11:53Z</time><extensions><gpxtpx:TrackPointExtension><gpxtpx:atemp>2.9</gpxtpx:atemp></gpxtpx:TrackPointExtension></extensions></trkpt><trkpt lat="42.1961997449" lon="13.4100878611"><ele>1775.08</ele><time>2026-03-11T15:11:54Z</time><extensions><gpxtpx:TrackPointExtension><gpxtpx:atemp>2.9</gpxtpx:atemp></gpxtpx:TrackPointExtension></extensions></trkpt><trkpt lat="42.1962096356" lon="13.4101011883"><ele>1775.07</ele><time>2026-03-11T15:11:55Z</time><extensions><gpxtpx:TrackPointExtension><gpxtpx:atemp>2.9</gpxtpx:atemp></gpxtpx:TrackPointExtension></extensions></trkpt><trkpt lat="42.1962165926" lon="13.4101127554"><ele>1775.02</ele><time>2026-03-11T15:11:56Z</time><extensions><gpxtpx:TrackPointExtension><gpxtpx:atemp>2.9</gpxtpx:atemp></gpxtpx:TrackPointExtension></extensions></trkpt><trkpt lat="42.1962219570" lon="13.4101287648"><ele>1774.96</ele><time>2026-03-11T15:11:57Z</time><extensions><gpxtpx:TrackPointExtension><gpxtpx:atemp>2.9</gpxtpx:atemp></gpxtpx:TrackPointExtension></extensions></trkpt><trkpt lat="42.1962271538" lon="13.4101417568"><ele>1774.93</ele><time>2026-03-11T15:11:58Z</time><extensions><gpxtpx:TrackPointExtension><gpxtpx:atemp>2.9</gpxtpx:atemp></gpxtpx:TrackPointExtension></extensions></trkpt><trkpt lat="42.1962343622" lon="13.4101586882"><ele>1774.83</ele><time>2026-03-11T15:11:59Z</time><extensions><gpxtpx:TrackPointExtension><gpxtpx:atemp>2.9</gpxtpx:atemp></gpxtpx:TrackPointExtension></extensions></trkpt><trkpt lat="42.1962363739" lon="13.4101785533"><ele>1774.80</ele><time>2026-03-11T15:12:00Z</time><extensions><gpxtpx:TrackPointExtension><gpxtpx:atemp>2.9</gpxtpx:atemp></gpxtpx:TrackPointExtension></extensions></trkpt><trkpt lat="42.1962409839" lon="13.4101920482"><ele>1774.77</ele><time>2026-03-11T15:12:01Z</time><extensions><gpxtpx:TrackPointExtension><gpxtpx:atemp>2.9</gpxtpx:atemp></gpxtpx:TrackPointExtension></extensions></trkpt><trkpt lat="42.1962459292" lon="13.4102064651"><ele>1774.76</ele><time>2026-03-11T15:12:02Z</time><extensions><gpxtpx:TrackPointExtension><gpxtpx:atemp>2.9</gpxtpx:atemp></gpxtpx:TrackPointExtension></extensions></trkpt><trkpt lat="42.1962501202" lon="13.4102207981"><ele>1774.76</ele><time>2026-03-11T15:12:03Z</time><extensions><gpxtpx:TrackPointExtension><gpxtpx:atemp>2.9</gpxtpx:atemp></gpxtpx:TrackPointExtension></extensions></trkpt><trkpt lat="42.1962579992" lon="13.4102366399"><ele>1774.74</ele><time>2026-03-11T15:12:04Z</time><extensions><gpxtpx:TrackPointExtension><gpxtpx:atemp>2.9</gpxtpx:atemp></gpxtpx:TrackPointExtension></extensions></trkpt><trkpt lat="42.1962618548" lon="13.4102505539"><ele>1774.71</ele><time>2026-03-11T15:12:05Z</time><extensions><gpxtpx:TrackPointExtension><gpxtpx:atemp>2.9</gpxtpx:atemp></gpxtpx:TrackPointExtension></extensions></trkpt><trkpt lat="42.1962653752" lon="13.4102626238"><ele>1774.69</ele><time>2026-03-11T15:12:06Z</time><extensions><gpxtpx:TrackPointExtension><gpxtpx:atemp>2.9</gpxtpx:atemp></gpxtpx:TrackPointExtension></extensions></trkpt><trkpt lat="42.1962700691" lon="13.4102709219"><ele>1774.67</ele><time>2026-03-11T15:12:07Z</time><extensions><gpxtpx:TrackPointExtension><gpxtpx:atemp>2.9</gpxtpx:atemp></gpxtpx:TrackPointExtension></extensions></trkpt><trkpt lat="42.1962723322" lon="13.4102786332"><ele>1774.61</ele><time>2026-03-11T15:12:08Z</time><extensions><gpxtpx:TrackPointExtension><gpxtpx:atemp>2.9</gpxtpx:atemp></gpxtpx:TrackPointExtension></extensions></trkpt><trkpt lat="42.1962733380" lon="13.4102855902"><ele>1774.54</ele><time>2026-03-11T15:12:09Z</time><extensions><gpxtpx:TrackPointExtension><gpxtpx:atemp>2.9</gpxtpx:atemp></gpxtpx:TrackPointExtension></extensions></trkpt><trkpt lat="42.1962722484" lon="13.4102900326"><ele>1774.46</ele><time>2026-03-11T15:12:10Z</time><extensions><gpxtpx:TrackPointExtension><gpxtpx:atemp>2.9</gpxtpx:atemp></gpxtpx:TrackPointExtension></extensions></trkpt><trkpt lat="42.1962730866" lon="13.4102922957"><ele>1774.40</ele><time>2026-03-11T15:12:11Z</time><extensions><gpxtpx:TrackPointExtension><gpxtpx:atemp>2.9</gpxtpx:atemp></gpxtpx:TrackPointExtension></extensions></trkpt><trkpt lat="42.1962730866" lon="13.4102944750"><ele>1774.38</ele><time>2026-03-11T15:12:12Z</time><extensions><gpxtpx:TrackPointExtension><gpxtpx:atemp>2.9</gpxtpx:atemp></gpxtpx:TrackPointExtension></extensions></trkpt><trkpt lat="42.1962716617" lon="13.4102971572"><ele>1774.38</ele><time>2026-03-11T15:12:13Z</time><extensions><gpxtpx:TrackPointExtension><gpxtpx:atemp>2.9</gpxtpx:atemp></gpxtpx:TrackPointExtension></extensions></trkpt><trkpt lat="42.1962716617" lon="13.4102971572"><ele>1774.38</ele><time>2026-03-11T15:12:14Z</time><extensions><gpxtpx:TrackPointExtension><gpxtpx:atemp>2.9</gpxtpx:atemp></gpxtpx:TrackPointExtension></extensions></trkpt><trkpt lat="42.1962739248" lon="13.4102975763"><ele>1774.38</ele><time>2026-03-11T15:12:15Z</time><extensions><gpxtpx:TrackPointExtension><gpxtpx:atemp>2.9</gpxtpx:atemp></gpxtpx:TrackPointExtension></extensions></trkpt><trkpt lat="42.1962758526" lon="13.4102972411"><ele>1774.38</ele><time>2026-03-11T15:12:16Z</time><extensions><gpxtpx:TrackPointExtension><gpxtpx:atemp>2.9</gpxtpx:atemp></gpxtpx:TrackPointExtension></extensions></trkpt><trkpt lat="42.1962769423" lon="13.4102978278"><ele>1774.38</ele><time>2026-03-11T15:12:17Z</time><extensions><gpxtpx:TrackPointExtension><gpxtpx:atemp>2.9</gpxtpx:atemp></gpxtpx:TrackPointExtension></extensions></trkpt><trkpt lat="42.1962773614" lon="13.4102977440"><ele>1774.38</ele><time>2026-03-11T15:12:18Z</time><extensions><gpxtpx:TrackPointExtension><gpxtpx:atemp>2.9</gpxtpx:atemp></gpxtpx:TrackPointExtension></extensions></trkpt><trkpt lat="42.1962774452" lon="13.4102969896"><ele>1774.40</ele><time>2026-03-11T15:12:19Z</time><extensions><gpxtpx:TrackPointExtension><gpxtpx:atemp>2.9</gpxtpx:atemp></gpxtpx:TrackPointExtension></extensions></trkpt><trkpt lat="42.1962765232" lon="13.4102955647"><ele>1774.45</ele><time>2026-03-11T15:12:20Z</time><extensions><gpxtpx:TrackPointExtension><gpxtpx:atemp>2.9</gpxtpx:atemp></gpxtpx:TrackPointExtension></extensions></trkpt><trkpt lat="42.1962753497" lon="13.4102964867"><ele>1774.48</ele><time>2026-03-11T15:12:21Z</time><extensions><gpxtpx:TrackPointExtension><gpxtpx:atemp>2.9</gpxtpx:atemp></gpxtpx:TrackPointExtension></extensions></trkpt><trkpt lat="42.1962718293" lon="13.4102986660"><ele>1774.54</ele><time>2026-03-11T15:12:22Z</time><extensions><gpxtpx:TrackPointExtension><gpxtpx:atemp>2.9</gpxtpx:atemp></gpxtpx:TrackPointExtension></extensions></trkpt><trkpt lat="42.1962738410" lon="13.4102996718"><ele>1774.54</ele><time>2026-03-11T15:12:23Z</time><extensions><gpxtpx:TrackPointExtension><gpxtpx:atemp>2.9</gpxtpx:atemp></gpxtpx:TrackPointExtension></extensions></trkpt><trkpt lat="42.1962739248" lon="13.4102984983"><ele>1774.54</ele><time>2026-03-11T15:12:24Z</time><extensions><gpxtpx:TrackPointExtension><gpxtpx:atemp>2.9</gpxtpx:atemp></gpxtpx:TrackPointExtension></extensions></trkpt><trkpt lat="42.1962741762" lon="13.4102995880"><ele>1774.54</ele><time>2026-03-11T15:12:25Z</time><extensions><gpxtpx:TrackPointExtension><gpxtpx:atemp>2.9</gpxtpx:atemp></gpxtpx:TrackPointExtension></extensions></trkpt><trkpt lat="42.1962722484" lon="13.4103015997"><ele>1774.57</ele><time>2026-03-11T15:12:26Z</time><extensions><gpxtpx:TrackPointExtension><gpxtpx:atemp>2.9</gpxtpx:atemp></gpxtpx:TrackPointExtension></extensions></trkpt><trkpt lat="42.1962721646" lon="13.4103009291"><ele>1774.58</ele><time>2026-03-11T15:12:27Z</time><extensions><gpxtpx:TrackPointExtension><gpxtpx:atemp>2.9</gpxtpx:atemp></gpxtpx:TrackPointExtension></extensions></trkpt><trkpt lat="42.1962712426" lon="13.4103002585"><ele>1774.54</ele><time>2026-03-11T15:12:28Z</time><extensions><gpxtpx:TrackPointExtension><gpxtpx:atemp>2.9</gpxtpx:atemp></gpxtpx:TrackPointExtension></extensions></trkpt><trkpt lat="42.1962695662" lon="13.4102994204"><ele>1774.52</ele><time>2026-03-11T15:12:29Z</time><extensions><gpxtpx:TrackPointExtension><gpxtpx:atemp>2.9</gpxtpx:atemp></gpxtpx:TrackPointExtension></extensions></trkpt><trkpt lat="42.1962689795" lon="13.4102980793"><ele>1774.50</ele><time>2026-03-11T15:12:30Z</time><extensions><gpxtpx:TrackPointExtension><gpxtpx:atemp>2.9</gpxtpx:atemp></gpxtpx:TrackPointExtension></extensions></trkpt><trkpt lat="42.1962685604" lon="13.4102986660"><ele>1774.50</ele><time>2026-03-11T15:12:31Z</time><extensions><gpxtpx:TrackPointExtension><gpxtpx:atemp>2.9</gpxtpx:atemp></gpxtpx:TrackPointExtension></extensions></trkpt><trkpt lat="42.1962690633" lon="13.4102977440"><ele>1774.51</ele><time>2026-03-11T15:12:32Z</time><extensions><gpxtpx:TrackPointExtension><gpxtpx:atemp>2.9</gpxtpx:atemp></gpxtpx:TrackPointExtension></extensions></trkpt><trkpt lat="42.1962686442" lon="13.4102968220"><ele>1774.49</ele><time>2026-03-11T15:12:33Z</time><extensions><gpxtpx:TrackPointExtension><gpxtpx:atemp>2.9</gpxtpx:atemp></gpxtpx:TrackPointExtension></extensions></trkpt><trkpt lat="42.1962692309" lon="13.4102961514"><ele>1774.49</ele><time>2026-03-11T15:12:34Z</time><extensions><gpxtpx:TrackPointExtension><gpxtpx:atemp>2.9</gpxtpx:atemp></gpxtpx:TrackPointExtension></extensions></trkpt><trkpt lat="42.1962690633" lon="13.4102960676"><ele>1774.49</ele><time>2026-03-11T15:12:35Z</time><extensions><gpxtpx:TrackPointExtension><gpxtpx:atemp>2.9</gpxtpx:atemp></gpxtpx:TrackPointExtension></extensions></trkpt><trkpt lat="42.1962691471" lon="13.4102960676"><ele>1774.50</ele><time>2026-03-11T15:12:36Z</time><extensions><gpxtpx:TrackPointExtension><gpxtpx:atemp>2.9</gpxtpx:atemp></gpxtpx:TrackPointExtension></extensions></trkpt><trkpt lat="42.1962690633" lon="13.4102962352"><ele>1774.50</ele><time>2026-03-11T15:12:37Z</time><extensions><gpxtpx:TrackPointExtension><gpxtpx:atemp>2.9</gpxtpx:atemp></gpxtpx:TrackPointExtension></extensions></trkpt><trkpt lat="42.1962694824" lon="13.4102966543"><ele>1774.53</ele><time>2026-03-11T15:12:38Z</time><extensions><gpxtpx:TrackPointExtension><gpxtpx:atemp>2.9</gpxtpx:atemp></gpxtpx:TrackPointExtension></extensions></trkpt><trkpt lat="42.1962690633" lon="13.4102959838"><ele>1774.55</ele><time>2026-03-11T15:12:39Z</time><extensions><gpxtpx:TrackPointExtension><gpxtpx:atemp>2.9</gpxtpx:atemp></gpxtpx:TrackPointExtension></extensions></trkpt><trkpt lat="42.1962692309" lon="13.4102957323"><ele>1774.58</ele><time>2026-03-11T15:12:40Z</time><extensions><gpxtpx:TrackPointExtension><gpxtpx:atemp>2.9</gpxtpx:atemp></gpxtpx:TrackPointExtension></extensions></trkpt><trkpt lat="42.1962693986" lon="13.4102952294"><ele>1774.62</ele><time>2026-03-11T15:12:41Z</time><extensions><gpxtpx:TrackPointExtension><gpxtpx:atemp>2.9</gpxtpx:atemp></gpxtpx:TrackPointExtension></extensions></trkpt><trkpt lat="42.1962694824" lon="13.4102954809"><ele>1774.62</ele><time>2026-03-11T15:12:42Z</time><extensions><gpxtpx:TrackPointExtension><gpxtpx:atemp>2.9</gpxtpx:atemp></gpxtpx:TrackPointExtension></extensions></trkpt><trkpt lat="42.1962714940" lon="13.4102961514"><ele>1774.62</ele><time>2026-03-11T15:12:43Z</time><extensions><gpxtpx:TrackPointExtension><gpxtpx:atemp>2.9</gpxtpx:atemp></gpxtpx:TrackPointExtension></extensions></trkpt><trkpt lat="42.1962722484" lon="13.4102973249"><ele>1774.30</ele><time>2026-03-11T15:12:44Z</time><extensions><gpxtpx:TrackPointExtension><gpxtpx:atemp>2.9</gpxtpx:atemp></gpxtpx:TrackPointExtension></extensions></trkpt><trkpt lat="42.1962720808" lon="13.4102974925"><ele>1773.82</ele><time>2026-03-11T15:12:45Z</time><extensions><gpxtpx:TrackPointExtension><gpxtpx:atemp>2.9</gpxtpx:atemp></gpxtpx:TrackPointExtension></extensions></trkpt><trkpt lat="42.1962717455" lon="13.4102970734"><ele>1773.77</ele><time>2026-03-11T15:12:46Z</time><extensions><gpxtpx:TrackPointExtension><gpxtpx:atemp>2.9</gpxtpx:atemp></gpxtpx:TrackPointExtension></extensions></trkpt><trkpt lat="42.1962689795" lon="13.4102986660"><ele>1773.79</ele><time>2026-03-11T15:12:47Z</time><extensions><gpxtpx:TrackPointExtension><gpxtpx:atemp>2.9</gpxtpx:atemp></gpxtpx:TrackPointExtension></extensions></trkpt><trkpt lat="42.1962667163" lon="13.4102980793"><ele>1774.41</ele><time>2026-03-11T15:12:48Z</time><extensions><gpxtpx:TrackPointExtension><gpxtpx:atemp>2.9</gpxtpx:atemp></gpxtpx:TrackPointExtension></extensions></trkpt><trkpt lat="42.1962670516" lon="13.4102994204"><ele>1774.99</ele><time>2026-03-11T15:12:49Z</time><extensions><gpxtpx:TrackPointExtension><gpxtpx:atemp>2.9</gpxtpx:atemp></gpxtpx:TrackPointExtension></extensions></trkpt><trkpt lat="42.1962679736" lon="13.4102997556"><ele>1775.41</ele><time>2026-03-11T15:12:50Z</time><extensions><gpxtpx:TrackPointExtension><gpxtpx:atemp>2.9</gpxtpx:atemp></gpxtpx:TrackPointExtension></extensions></trkpt><trkpt lat="42.1962704882" lon="13.4102996718"><ele>1775.63</ele><time>2026-03-11T15:12:51Z</time><extensions><gpxtpx:TrackPointExtension><gpxtpx:atemp>2.9</gpxtpx:atemp></gpxtpx:TrackPointExtension></extensions></trkpt><trkpt lat="42.1962712426" lon="13.4102992527"><ele>1775.63</ele><time>2026-03-11T15:12:52Z</time><extensions><gpxtpx:TrackPointExtension><gpxtpx:atemp>2.9</gpxtpx:atemp></gpxtpx:TrackPointExtension></extensions></trkpt><trkpt lat="42.1962714940" lon="13.4102981631"><ele>1775.63</ele><time>2026-03-11T15:12:53Z</time><extensions><gpxtpx:TrackPointExtension><gpxtpx:atemp>2.9</gpxtpx:atemp></gpxtpx:TrackPointExtension></extensions></trkpt><trkpt lat="42.1962716617" lon="13.4102971572"><ele>1775.50</ele><time>2026-03-11T15:12:54Z</time><extensions><gpxtpx:TrackPointExtension><gpxtpx:atemp>2.9</gpxtpx:atemp></gpxtpx:TrackPointExtension></extensions></trkpt><trkpt lat="42.1962725837" lon="13.4102960676"><ele>1775.29</ele><time>2026-03-11T15:12:55Z</time><extensions><gpxtpx:TrackPointExtension><gpxtpx:atemp>2.9</gpxtpx:atemp></gpxtpx:TrackPointExtension></extensions></trkpt><trkpt lat="42.1962718293" lon="13.4102949779"><ele>1774.93</ele><time>2026-03-11T15:12:56Z</time><extensions><gpxtpx:TrackPointExtension><gpxtpx:atemp>2.9</gpxtpx:atemp></gpxtpx:TrackPointExtension></extensions></trkpt><trkpt lat="42.1962720808" lon="13.4102959838"><ele>1774.82</ele><time>2026-03-11T15:12:57Z</time><extensions><gpxtpx:TrackPointExtension><gpxtpx:atemp>2.9</gpxtpx:atemp></gpxtpx:TrackPointExtension></extensions></trkpt><trkpt lat="42.1962721646" lon="13.4102954809"><ele>1774.77</ele><time>2026-03-11T15:12:58Z</time><extensions><gpxtpx:TrackPointExtension><gpxtpx:atemp>2.9</gpxtpx:atemp></gpxtpx:TrackPointExtension></extensions></trkpt><trkpt lat="42.1962721646" lon="13.4102951456"><ele>1774.70</ele><time>2026-03-11T15:12:59Z</time><extensions><gpxtpx:TrackPointExtension><gpxtpx:atemp>2.9</gpxtpx:atemp></gpxtpx:TrackPointExtension></extensions></trkpt><trkpt lat="42.1962719969" lon="13.4102950618"><ele>1774.55</ele><time>2026-03-11T15:13:00Z</time><extensions><gpxtpx:TrackPointExtension><gpxtpx:atemp>2.9</gpxtpx:atemp></gpxtpx:TrackPointExtension></extensions></trkpt><trkpt lat="42.1962699853" lon="13.4102942236"><ele>1774.49</ele><time>2026-03-11T15:13:01Z</time><extensions><gpxtpx:TrackPointExtension><gpxtpx:atemp>2.9</gpxtpx:atemp></gpxtpx:TrackPointExtension></extensions></trkpt><trkpt lat="42.1962687280" lon="13.4102934692"><ele>1774.30</ele><time>2026-03-11T15:13:02Z</time><extensions><gpxtpx:TrackPointExtension><gpxtpx:atemp>2.9</gpxtpx:atemp></gpxtpx:TrackPointExtension></extensions></trkpt><trkpt lat="42.1962689795" lon="13.4102948941"><ele>1774.25</ele><time>2026-03-11T15:13:03Z</time><extensions><gpxtpx:TrackPointExtension><gpxtpx:atemp>2.9</gpxtpx:atemp></gpxtpx:TrackPointExtension></extensions></trkpt><trkpt lat="42.1962671354" lon="13.4102933854"><ele>1774.34</ele><time>2026-03-11T15:13:04Z</time><extensions><gpxtpx:TrackPointExtension><gpxtpx:atemp>2.9</gpxtpx:atemp></gpxtpx:TrackPointExtension></extensions></trkpt><trkpt lat="42.1962679736" lon="13.4102946427"><ele>1774.24</ele><time>2026-03-11T15:13:05Z</time><extensions><gpxtpx:TrackPointExtension><gpxtpx:atemp>2.9</gpxtpx:atemp></gpxtpx:TrackPointExtension></extensions></trkpt><trkpt lat="42.1962721646" lon="13.4102994204"><ele>1774.24</ele><time>2026-03-11T15:13:06Z</time><extensions><gpxtpx:TrackPointExtension><gpxtpx:atemp>2.9</gpxtpx:atemp></gpxtpx:TrackPointExtension></extensions></trkpt><trkpt lat="42.1962694824" lon="13.4103007615"><ele>1774.24</ele><time>2026-03-11T15:13:07Z</time><extensions><gpxtpx:TrackPointExtension><gpxtpx:atemp>2.9</gpxtpx:atemp></gpxtpx:TrackPointExtension></extensions></trkpt><trkpt lat="42.1962704882" lon="13.4103033599"><ele>1774.19</ele><time>2026-03-11T15:13:08Z</time><extensions><gpxtpx:TrackPointExtension><gpxtpx:atemp>2.9</gpxtpx:atemp></gpxtpx:TrackPointExtension></extensions></trkpt><trkpt lat="42.1962710749" lon="13.4103039466"><ele>1774.15</ele><time>2026-03-11T15:13:09Z</time><extensions><gpxtpx:TrackPointExtension><gpxtpx:atemp>2.9</gpxtpx:atemp></gpxtpx:TrackPointExtension></extensions></trkpt><trkpt lat="42.1962706558" lon="13.4103030246"><ele>1774.10</ele><time>2026-03-11T15:13:10Z</time><extensions><gpxtpx:TrackPointExtension><gpxtpx:atemp>2.9</gpxtpx:atemp></gpxtpx:TrackPointExtension></extensions></trkpt><trkpt lat="42.1962704882" lon="13.4103032760"><ele>1774.03</ele><time>2026-03-11T15:13:11Z</time><extensions><gpxtpx:TrackPointExtension><gpxtpx:atemp>2.9</gpxtpx:atemp></gpxtpx:TrackPointExtension></extensions></trkpt><trkpt lat="42.1962709911" lon="13.4103023540"><ele>1773.96</ele><time>2026-03-11T15:13:12Z</time><extensions><gpxtpx:TrackPointExtension><gpxtpx:atemp>2.9</gpxtpx:atemp></gpxtpx:TrackPointExtension></extensions></trkpt><trkpt lat="42.1962701529" lon="13.4102998395"><ele>1773.90</ele><time>2026-03-11T15:13:13Z</time><extensions><gpxtpx:TrackPointExtension><gpxtpx:atemp>2.9</gpxtpx:atemp></gpxtpx:TrackPointExtension></extensions></trkpt><trkpt lat="42.1962688956" lon="13.4102975763"><ele>1773.84</ele><time>2026-03-11T15:13:14Z</time><extensions><gpxtpx:TrackPointExtension><gpxtpx:atemp>2.9</gpxtpx:atemp></gpxtpx:TrackPointExtension></extensions></trkpt><trkpt lat="42.1962665487" lon="13.4102960676"><ele>1773.68</ele><time>2026-03-11T15:13:15Z</time><extensions><gpxtpx:TrackPointExtension><gpxtpx:atemp>2.9</gpxtpx:atemp></gpxtpx:TrackPointExtension></extensions></trkpt><trkpt lat="42.1962658782" lon="13.4102946427"><ele>1773.43</ele><time>2026-03-11T15:13:16Z</time><extensions><gpxtpx:TrackPointExtension><gpxtpx:atemp>2.9</gpxtpx:atemp></gpxtpx:TrackPointExtension></extensions></trkpt><trkpt lat="42.1962652914" lon="13.4102940559"><ele>1773.24</ele><time>2026-03-11T15:13:17Z</time><extensions><gpxtpx:TrackPointExtension><gpxtpx:atemp>2.9</gpxtpx:atemp></gpxtpx:TrackPointExtension></extensions></trkpt><trkpt lat="42.1962650400" lon="13.4102935530"><ele>1773.13</ele><time>2026-03-11T15:13:18Z</time><extensions><gpxtpx:TrackPointExtension><gpxtpx:atemp>2.9</gpxtpx:atemp></gpxtpx:TrackPointExtension></extensions></trkpt><trkpt lat="42.1962648723" lon="13.4102920443"><ele>1773.09</ele><time>2026-03-11T15:13:19Z</time><extensions><gpxtpx:TrackPointExtension><gpxtpx:atemp>2.9</gpxtpx:atemp></gpxtpx:TrackPointExtension></extensions></trkpt><trkpt lat="42.1962638665" lon="13.4102909546"><ele>1773.13</ele><time>2026-03-11T15:13:20Z</time><extensions><gpxtpx:TrackPointExtension><gpxtpx:atemp>2.9</gpxtpx:atemp></gpxtpx:TrackPointExtension></extensions></trkpt><trkpt lat="42.1962630283" lon="13.4102898650"><ele>1773.14</ele><time>2026-03-11T15:13:21Z</time><extensions><gpxtpx:TrackPointExtension><gpxtpx:atemp>2.9</gpxtpx:atemp></gpxtpx:TrackPointExtension></extensions></trkpt><trkpt lat="42.1962629445" lon="13.4102894459"><ele>1773.20</ele><time>2026-03-11T15:13:22Z</time><extensions><gpxtpx:TrackPointExtension><gpxtpx:atemp>2.9</gpxtpx:atemp></gpxtpx:TrackPointExtension></extensions></trkpt><trkpt lat="42.1962609328" lon="13.4102886915"><ele>1773.31</ele><time>2026-03-11T15:13:23Z</time><extensions><gpxtpx:TrackPointExtension><gpxtpx:atemp>2.9</gpxtpx:atemp></gpxtpx:TrackPointExtension></extensions></trkpt><trkpt lat="42.1962604299" lon="13.4102880210"><ele>1773.37</ele><time>2026-03-11T15:13:24Z</time><extensions><gpxtpx:TrackPointExtension><gpxtpx:atemp>2.9</gpxtpx:atemp></gpxtpx:TrackPointExtension></extensions></trkpt><trkpt lat="42.1962605976" lon="13.4102872666"><ele>1773.42</ele><time>2026-03-11T15:13:25Z</time><extensions><gpxtpx:TrackPointExtension><gpxtpx:atemp>2.9</gpxtpx:atemp></gpxtpx:TrackPointExtension></extensions></trkpt><trkpt lat="42.1962606814" lon="13.4102868475"><ele>1773.44</ele><time>2026-03-11T15:13:26Z</time><extensions><gpxtpx:TrackPointExtension><gpxtpx:atemp>2.9</gpxtpx:atemp></gpxtpx:TrackPointExtension></extensions></trkpt><trkpt lat="42.1962610167" lon="13.4102862608"><ele>1773.45</ele><time>2026-03-11T15:13:27Z</time><extensions><gpxtpx:TrackPointExtension><gpxtpx:atemp>2.9</gpxtpx:atemp></gpxtpx:TrackPointExtension></extensions></trkpt><trkpt lat="42.1962608490" lon="13.4102862608"><ele>1773.46</ele><time>2026-03-11T15:13:28Z</time><extensions><gpxtpx:TrackPointExtension><gpxtpx:atemp>2.9</gpxtpx:atemp></gpxtpx:TrackPointExtension></extensions></trkpt><trkpt lat="42.1962608490" lon="13.4102854226"><ele>1773.45</ele><time>2026-03-11T15:13:29Z</time><extensions><gpxtpx:TrackPointExtension><gpxtpx:atemp>2.9</gpxtpx:atemp></gpxtpx:TrackPointExtension></extensions></trkpt><trkpt lat="42.1962604299" lon="13.4102855902"><ele>1773.43</ele><time>2026-03-11T15:13:30Z</time><extensions><gpxtpx:TrackPointExtension><gpxtpx:atemp>2.9</gpxtpx:atemp></gpxtpx:TrackPointExtension></extensions></trkpt><trkpt lat="42.1962610167" lon="13.4102850873"><ele>1773.40</ele><time>2026-03-11T15:13:31Z</time><extensions><gpxtpx:TrackPointExtension><gpxtpx:atemp>2.9</gpxtpx:atemp></gpxtpx:TrackPointExtension></extensions></trkpt><trkpt lat="42.1962616872" lon="13.4102853388"><ele>1773.40</ele><time>2026-03-11T15:13:32Z</time><extensions><gpxtpx:TrackPointExtension><gpxtpx:atemp>3.0</gpxtpx:atemp></gpxtpx:TrackPointExtension></extensions></trkpt><trkpt lat="42.1962619387" lon="13.4102860931"><ele>1773.37</ele><time>2026-03-11T15:13:33Z</time><extensions><gpxtpx:TrackPointExtension><gpxtpx:atemp>3.0</gpxtpx:atemp></gpxtpx:TrackPointExtension></extensions></trkpt><trkpt lat="42.1962622739" lon="13.4102862608"><ele>1773.36</ele><time>2026-03-11T15:13:34Z</time><extensions><gpxtpx:TrackPointExtension><gpxtpx:atemp>3.0</gpxtpx:atemp></gpxtpx:TrackPointExtension></extensions></trkpt><trkpt lat="42.1962628607" lon="13.4102866799"><ele>1773.37</ele><time>2026-03-11T15:13:35Z</time><extensions><gpxtpx:TrackPointExtension><gpxtpx:atemp>3.0</gpxtpx:atemp></gpxtpx:TrackPointExtension></extensions></trkpt><trkpt lat="42.1962629445" lon="13.4102869313"><ele>1773.38</ele><time>2026-03-11T15:13:36Z</time><extensions><gpxtpx:TrackPointExtension><gpxtpx:atemp>3.0</gpxtpx:atemp></gpxtpx:TrackPointExtension></extensions></trkpt><trkpt lat="42.1962631959" lon="13.4102874342"><ele>1773.42</ele><time>2026-03-11T15:13:37Z</time><extensions><gpxtpx:TrackPointExtension><gpxtpx:atemp>3.0</gpxtpx:atemp></gpxtpx:TrackPointExtension></extensions></trkpt><trkpt lat="42.1962640341" lon="13.4102888592"><ele>1773.44</ele><time>2026-03-11T15:13:38Z</time><extensions><gpxtpx:TrackPointExtension><gpxtpx:atemp>3.0</gpxtpx:atemp></gpxtpx:TrackPointExtension></extensions></trkpt><trkpt lat="42.1962652914" lon="13.4102893621"><ele>1773.43</ele><time>2026-03-11T15:13:39Z</time><extensions><gpxtpx:TrackPointExtension><gpxtpx:atemp>3.0</gpxtpx:atemp></gpxtpx:TrackPointExtension></extensions></trkpt><trkpt lat="42.1962653752" lon="13.4102894459"><ele>1773.42</ele><time>2026-03-11T15:13:40Z</time><extensions><gpxtpx:TrackPointExtension><gpxtpx:atemp>3.0</gpxtpx:atemp></gpxtpx:TrackPointExtension></extensions></trkpt><trkpt lat="42.1962650400" lon="13.4102904517"><ele>1773.43</ele><time>2026-03-11T15:13:41Z</time><extensions><gpxtpx:TrackPointExtension><gpxtpx:atemp>3.0</gpxtpx:atemp></gpxtpx:TrackPointExtension></extensions></trkpt><trkpt lat="42.1962650400" lon="13.4102910385"><ele>1773.42</ele><time>2026-03-11T15:13:42Z</time><extensions><gpxtpx:TrackPointExtension><gpxtpx:atemp>3.0</gpxtpx:atemp></gpxtpx:TrackPointExtension></extensions></trkpt><trkpt lat="42.1962655429" lon="13.4102911223"><ele>1773.42</ele><time>2026-03-11T15:13:43Z</time><extensions><gpxtpx:TrackPointExtension><gpxtpx:atemp>3.0</gpxtpx:atemp></gpxtpx:TrackPointExtension></extensions></trkpt><trkpt lat="42.1962653752" lon="13.4102912899"><ele>1773.42</ele><time>2026-03-11T15:13:44Z</time><extensions><gpxtpx:TrackPointExtension><gpxtpx:atemp>3.0</gpxtpx:atemp></gpxtpx:TrackPointExtension></extensions></trkpt><trkpt lat="42.1962658782" lon="13.4102907870"><ele>1773.43</ele><time>2026-03-11T15:13:45Z</time><extensions><gpxtpx:TrackPointExtension><gpxtpx:atemp>3.0</gpxtpx:atemp></gpxtpx:TrackPointExtension></extensions></trkpt><trkpt lat="42.1962659620" lon="13.4102905355"><ele>1773.44</ele><time>2026-03-11T15:13:46Z</time><extensions><gpxtpx:TrackPointExtension><gpxtpx:atemp>3.0</gpxtpx:atemp></gpxtpx:TrackPointExtension></extensions></trkpt><trkpt lat="42.1962660458" lon="13.4102904517"><ele>1773.44</ele><time>2026-03-11T15:13:47Z</time><extensions><gpxtpx:TrackPointExtension><gpxtpx:atemp>3.0</gpxtpx:atemp></gpxtpx:TrackPointExtension></extensions></trkpt><trkpt lat="42.1962661296" lon="13.4102898650"><ele>1773.44</ele><time>2026-03-11T15:13:48Z</time><extensions><gpxtpx:TrackPointExtension><gpxtpx:atemp>3.0</gpxtpx:atemp></gpxtpx:TrackPointExtension></extensions></trkpt><trkpt lat="42.1962661296" lon="13.4102895297"><ele>1773.44</ele><time>2026-03-11T15:13:49Z</time><extensions><gpxtpx:TrackPointExtension><gpxtpx:atemp>3.0</gpxtpx:atemp></gpxtpx:TrackPointExtension></extensions></trkpt><trkpt lat="42.1962661296" lon="13.4102891944"><ele>1773.44</ele><time>2026-03-11T15:13:50Z</time><extensions><gpxtpx:TrackPointExtension><gpxtpx:atemp>3.0</gpxtpx:atemp></gpxtpx:TrackPointExtension></extensions></trkpt><trkpt lat="42.1962658782" lon="13.4102887753"><ele>1773.43</ele><time>2026-03-11T15:13:51Z</time><extensions><gpxtpx:TrackPointExtension><gpxtpx:atemp>3.0</gpxtpx:atemp></gpxtpx:TrackPointExtension></extensions></trkpt><trkpt lat="42.1962659620" lon="13.4102881886"><ele>1773.40</ele><time>2026-03-11T15:13:52Z</time><extensions><gpxtpx:TrackPointExtension><gpxtpx:atemp>3.0</gpxtpx:atemp></gpxtpx:TrackPointExtension></extensions></trkpt><trkpt lat="42.1962657943" lon="13.4102879371"><ele>1773.37</ele><time>2026-03-11T15:13:53Z</time><extensions><gpxtpx:TrackPointExtension><gpxtpx:atemp>3.0</gpxtpx:atemp></gpxtpx:TrackPointExtension></extensions></trkpt><trkpt lat="42.1962657943" lon="13.4102881886"><ele>1773.34</ele><time>2026-03-11T15:13:54Z</time><extensions><gpxtpx:TrackPointExtension><gpxtpx:atemp>3.0</gpxtpx:atemp></gpxtpx:TrackPointExtension></extensions></trkpt><trkpt lat="42.1962652914" lon="13.4102878533"><ele>1773.33</ele><time>2026-03-11T15:13:55Z</time><extensions><gpxtpx:TrackPointExtension><gpxtpx:atemp>3.0</gpxtpx:atemp></gpxtpx:TrackPointExtension></extensions></trkpt><trkpt lat="42.1962651238" lon="13.4102877695"><ele>1773.33</ele><time>2026-03-11T15:13:56Z</time><extensions><gpxtpx:TrackPointExtension><gpxtpx:atemp>3.0</gpxtpx:atemp></gpxtpx:TrackPointExtension></extensions></trkpt><trkpt lat="42.1962649561" lon="13.4102874342"><ele>1773.33</ele><time>2026-03-11T15:13:57Z</time><extensions><gpxtpx:TrackPointExtension><gpxtpx:atemp>3.0</gpxtpx:atemp></gpxtpx:TrackPointExtension></extensions></trkpt><trkpt lat="42.1962645371" lon="13.4102872666"><ele>1773.34</ele><time>2026-03-11T15:13:58Z</time><extensions><gpxtpx:TrackPointExtension><gpxtpx:atemp>3.0</gpxtpx:atemp></gpxtpx:TrackPointExtension></extensions></trkpt><trkpt lat="42.1962633636" lon="13.4102872666"><ele>1773.37</ele><time>2026-03-11T15:13:59Z</time><extensions><gpxtpx:TrackPointExtension><gpxtpx:atemp>3.0</gpxtpx:atemp></gpxtpx:TrackPointExtension></extensions></trkpt><trkpt lat="42.1962628607" lon="13.4102869313"><ele>1773.39</ele><time>2026-03-11T15:14:00Z</time><extensions><gpxtpx:TrackPointExtension><gpxtpx:atemp>3.0</gpxtpx:atemp></gpxtpx:TrackPointExtension></extensions></trkpt><trkpt lat="42.1962624416" lon="13.4102870990"><ele>1773.39</ele><time>2026-03-11T15:14:01Z</time><extensions><gpxtpx:TrackPointExtension><gpxtpx:atemp>3.0</gpxtpx:atemp></gpxtpx:TrackPointExtension></extensions></trkpt><trkpt lat="42.1962624416" lon="13.4102869313"><ele>1773.40</ele><time>2026-03-11T15:14:02Z</time><extensions><gpxtpx:TrackPointExtension><gpxtpx:atemp>3.0</gpxtpx:atemp></gpxtpx:TrackPointExtension></extensions></trkpt><trkpt lat="42.1962626930" lon="13.4102869313"><ele>1773.40</ele><time>2026-03-11T15:14:03Z</time><extensions><gpxtpx:TrackPointExtension><gpxtpx:atemp>3.0</gpxtpx:atemp></gpxtpx:TrackPointExtension></extensions></trkpt><trkpt lat="42.1962628607" lon="13.4102869313"><ele>1773.40</ele><time>2026-03-11T15:14:04Z</time><extensions><gpxtpx:TrackPointExtension><gpxtpx:atemp>3.0</gpxtpx:atemp></gpxtpx:TrackPointExtension></extensions></trkpt><trkpt lat="42.1962633636" lon="13.4102864284"><ele>1773.37</ele><time>2026-03-11T15:14:05Z</time><extensions><gpxtpx:TrackPointExtension><gpxtpx:atemp>3.0</gpxtpx:atemp></gpxtpx:TrackPointExtension></extensions></trkpt><trkpt lat="42.1962633636" lon="13.4102862608"><ele>1773.30</ele><time>2026-03-11T15:14:06Z</time><extensions><gpxtpx:TrackPointExtension><gpxtpx:atemp>3.0</gpxtpx:atemp></gpxtpx:TrackPointExtension></extensions></trkpt><trkpt lat="42.1962638665" lon="13.4102861769"><ele>1773.28</ele><time>2026-03-11T15:14:07Z</time><extensions><gpxtpx:TrackPointExtension><gpxtpx:atemp>3.0</gpxtpx:atemp></gpxtpx:TrackPointExtension></extensions></trkpt><trkpt lat="42.1962637827" lon="13.4102859255"><ele>1773.27</ele><time>2026-03-11T15:14:08Z</time><extensions><gpxtpx:TrackPointExtension><gpxtpx:atemp>3.0</gpxtpx:atemp></gpxtpx:TrackPointExtension></extensions></trkpt><trkpt lat="42.1962633636" lon="13.4102856740"><ele>1773.26</ele><time>2026-03-11T15:14:09Z</time><extensions><gpxtpx:TrackPointExtension><gpxtpx:atemp>3.0</gpxtpx:atemp></gpxtpx:TrackPointExtension></extensions></trkpt><trkpt lat="42.1962634474" lon="13.4102857579"><ele>1773.26</ele><time>2026-03-11T15:14:10Z</time><extensions><gpxtpx:TrackPointExtension><gpxtpx:atemp>3.0</gpxtpx:atemp></gpxtpx:TrackPointExtension></extensions></trkpt><trkpt lat="42.1962637827" lon="13.4102858417"><ele>1773.26</ele><time>2026-03-11T15:14:11Z</time><extensions><gpxtpx:TrackPointExtension><gpxtpx:atemp>3.0</gpxtpx:atemp></gpxtpx:TrackPointExtension></extensions></trkpt><trkpt lat="42.1962638665" lon="13.4102859255"><ele>1773.26</ele><time>2026-03-11T15:14:12Z</time><extensions><gpxtpx:TrackPointExtension><gpxtpx:atemp>3.0</gpxtpx:atemp></gpxtpx:TrackPointExtension></extensions></trkpt><trkpt lat="42.1962643694" lon="13.4102859255"><ele>1773.26</ele><time>2026-03-11T15:14:13Z</time><extensions><gpxtpx:TrackPointExtension><gpxtpx:atemp>3.0</gpxtpx:atemp></gpxtpx:TrackPointExtension></extensions></trkpt><trkpt lat="42.1962647885" lon="13.4102861769"><ele>1773.28</ele><time>2026-03-11T15:14:14Z</time><extensions><gpxtpx:TrackPointExtension><gpxtpx:atemp>3.0</gpxtpx:atemp></gpxtpx:TrackPointExtension></extensions></trkpt><trkpt lat="42.1962648723" lon="13.4102866799"><ele>1773.30</ele><time>2026-03-11T15:14:15Z</time><extensions><gpxtpx:TrackPointExtension><gpxtpx:atemp>3.0</gpxtpx:atemp></gpxtpx:TrackPointExtension></extensions></trkpt><trkpt lat="42.1962650400" lon="13.4102870990"><ele>1773.32</ele><time>2026-03-11T15:14:16Z</time><extensions><gpxtpx:TrackPointExtension><gpxtpx:atemp>3.0</gpxtpx:atemp></gpxtpx:TrackPointExtension></extensions></trkpt><trkpt lat="42.1962653752" lon="13.4102873504"><ele>1773.32</ele><time>2026-03-11T15:14:17Z</time><extensions><gpxtpx:TrackPointExtension><gpxtpx:atemp>3.0</gpxtpx:atemp></gpxtpx:TrackPointExtension></extensions></trkpt><trkpt lat="42.1962655429" lon="13.4102876857"><ele>1773.32</ele><time>2026-03-11T15:14:18Z</time><extensions><gpxtpx:TrackPointExtension><gpxtpx:atemp>3.0</gpxtpx:atemp></gpxtpx:TrackPointExtension></extensions></trkpt><trkpt lat="42.1962659620" lon="13.4102880210"><ele>1773.34</ele><time>2026-03-11T15:14:19Z</time><extensions><gpxtpx:TrackPointExtension><gpxtpx:atemp>3.0</gpxtpx:atemp></gpxtpx:TrackPointExtension></extensions></trkpt><trkpt lat="42.1962657943" lon="13.4102885239"><ele>1773.34</ele><time>2026-03-11T15:14:20Z</time><extensions><gpxtpx:TrackPointExtension><gpxtpx:atemp>3.0</gpxtpx:atemp></gpxtpx:TrackPointExtension></extensions></trkpt><trkpt lat="42.1962652914" lon="13.4102887753"><ele>1773.36</ele><time>2026-03-11T15:14:21Z</time><extensions><gpxtpx:TrackPointExtension><gpxtpx:atemp>3.0</gpxtpx:atemp></gpxtpx:TrackPointExtension></extensions></trkpt><trkpt lat="42.1962653752" lon="13.4102890268"><ele>1773.36</ele><time>2026-03-11T15:14:22Z</time><extensions><gpxtpx:TrackPointExtension><gpxtpx:atemp>3.0</gpxtpx:atemp></gpxtpx:TrackPointExtension></extensions></trkpt><trkpt lat="42.1962652914" lon="13.4102893621"><ele>1773.37</ele><time>2026-03-11T15:14:23Z</time><extensions><gpxtpx:TrackPointExtension><gpxtpx:atemp>3.0</gpxtpx:atemp></gpxtpx:TrackPointExtension></extensions></trkpt><trkpt lat="42.1962652914" lon="13.4102893621"><ele>1773.39</ele><time>2026-03-11T15:14:24Z</time><extensions><gpxtpx:TrackPointExtension><gpxtpx:atemp>3.0</gpxtpx:atemp></gpxtpx:TrackPointExtension></extensions></trkpt><trkpt lat="42.1962652914" lon="13.4102894459"><ele>1773.41</ele><time>2026-03-11T15:14:25Z</time><extensions><gpxtpx:TrackPointExtension><gpxtpx:atemp>3.0</gpxtpx:atemp></gpxtpx:TrackPointExtension></extensions></trkpt><trkpt lat="42.1962653752" lon="13.4102893621"><ele>1773.41</ele><time>2026-03-11T15:14:26Z</time><extensions><gpxtpx:TrackPointExtension><gpxtpx:atemp>3.0</gpxtpx:atemp></gpxtpx:TrackPointExtension></extensions></trkpt><trkpt lat="42.1962652914" lon="13.4102892783"><ele>1773.42</ele><time>2026-03-11T15:14:27Z</time><extensions><gpxtpx:TrackPointExtension><gpxtpx:atemp>3.0</gpxtpx:atemp></gpxtpx:TrackPointExtension></extensions></trkpt><trkpt lat="42.1962651238" lon="13.4102890268"><ele>1773.41</ele><time>2026-03-11T15:14:28Z</time><extensions><gpxtpx:TrackPointExtension><gpxtpx:atemp>3.0</gpxtpx:atemp></gpxtpx:TrackPointExtension></extensions></trkpt><trkpt lat="42.1962647885" lon="13.4102890268"><ele>1773.43</ele><time>2026-03-11T15:14:29Z</time><extensions><gpxtpx:TrackPointExtension><gpxtpx:atemp>3.0</gpxtpx:atemp></gpxtpx:TrackPointExtension></extensions></trkpt><trkpt lat="42.1962639503" lon="13.4102888592"><ele>1773.40</ele><time>2026-03-11T15:14:30Z</time><extensions><gpxtpx:TrackPointExtension><gpxtpx:atemp>3.0</gpxtpx:atemp></gpxtpx:TrackPointExtension></extensions></trkpt><trkpt lat="42.1962638665" lon="13.4102890268"><ele>1773.35</ele><time>2026-03-11T15:14:31Z</time><extensions><gpxtpx:TrackPointExtension><gpxtpx:atemp>3.0</gpxtpx:atemp></gpxtpx:TrackPointExtension></extensions></trkpt><trkpt lat="42.1962638665" lon="13.4102889430"><ele>1773.33</ele><time>2026-03-11T15:14:32Z</time><extensions><gpxtpx:TrackPointExtension><gpxtpx:atemp>3.0</gpxtpx:atemp></gpxtpx:TrackPointExtension></extensions></trkpt><trkpt lat="42.1962636989" lon="13.4102890268"><ele>1773.30</ele><time>2026-03-11T15:14:33Z</time><extensions><gpxtpx:TrackPointExtension><gpxtpx:atemp>3.0</gpxtpx:atemp></gpxtpx:TrackPointExtension></extensions></trkpt><trkpt lat="42.1962635312" lon="13.4102887753"><ele>1773.27</ele><time>2026-03-11T15:14:34Z</time><extensions><gpxtpx:TrackPointExtension><gpxtpx:atemp>3.2</gpxtpx:atemp></gpxtpx:TrackPointExtension></extensions></trkpt><trkpt lat="42.1962636989" lon="13.4102884401"><ele>1773.25</ele><time>2026-03-11T15:14:35Z</time><extensions><gpxtpx:TrackPointExtension><gpxtpx:atemp>3.2</gpxtpx:atemp></gpxtpx:TrackPointExtension></extensions></trkpt><trkpt lat="42.1962638665" lon="13.4102883562"><ele>1773.24</ele><time>2026-03-11T15:14:36Z</time><extensions><gpxtpx:TrackPointExtension><gpxtpx:atemp>3.2</gpxtpx:atemp></gpxtpx:TrackPointExtension></extensions></trkpt><trkpt lat="42.1962638665" lon="13.4102879371"><ele>1773.24</ele><time>2026-03-11T15:14:37Z</time><extensions><gpxtpx:TrackPointExtension><gpxtpx:atemp>3.2</gpxtpx:atemp></gpxtpx:TrackPointExtension></extensions></trkpt><trkpt lat="42.1962639503" lon="13.4102876857"><ele>1773.24</ele><time>2026-03-11T15:14:38Z</time><extensions><gpxtpx:TrackPointExtension><gpxtpx:atemp>3.2</gpxtpx:atemp></gpxtpx:TrackPointExtension></extensions></trkpt><trkpt lat="42.1962640341" lon="13.4102874342"><ele>1773.23</ele><time>2026-03-11T15:14:39Z</time><extensions><gpxtpx:TrackPointExtension><gpxtpx:atemp>3.2</gpxtpx:atemp></gpxtpx:TrackPointExtension></extensions></trkpt><trkpt lat="42.1962640341" lon="13.4102874342"><ele>1773.24</ele><time>2026-03-11T15:14:40Z</time><extensions><gpxtpx:TrackPointExtension><gpxtpx:atemp>3.2</gpxtpx:atemp></gpxtpx:TrackPointExtension></extensions></trkpt><trkpt lat="42.1962639503" lon="13.4102875181"><ele>1773.28</ele><time>2026-03-11T15:14:41Z</time><extensions><gpxtpx:TrackPointExtension><gpxtpx:atemp>3.2</gpxtpx:atemp></gpxtpx:TrackPointExtension></extensions></trkpt><trkpt lat="42.1962637827" lon="13.4102875181"><ele>1773.31</ele><time>2026-03-11T15:14:42Z</time><extensions><gpxtpx:TrackPointExtension><gpxtpx:atemp>3.2</gpxtpx:atemp></gpxtpx:TrackPointExtension></extensions></trkpt><trkpt lat="42.1962634474" lon="13.4102876857"><ele>1773.34</ele><time>2026-03-11T15:14:43Z</time><extensions><gpxtpx:TrackPointExtension><gpxtpx:atemp>3.2</gpxtpx:atemp></gpxtpx:TrackPointExtension></extensions></trkpt><trkpt lat="42.1962634474" lon="13.4102876857"><ele>1773.35</ele><time>2026-03-11T15:14:44Z</time><extensions><gpxtpx:TrackPointExtension><gpxtpx:atemp>3.2</gpxtpx:atemp></gpxtpx:TrackPointExtension></extensions></trkpt><trkpt lat="42.1962634474" lon="13.4102875181"><ele>1773.35</ele><time>2026-03-11T15:14:45Z</time><extensions><gpxtpx:TrackPointExtension><gpxtpx:atemp>3.2</gpxtpx:atemp></gpxtpx:TrackPointExtension></extensions></trkpt><trkpt lat="42.1962634474" lon="13.4102876857"><ele>1773.35</ele><time>2026-03-11T15:14:46Z</time><extensions><gpxtpx:TrackPointExtension><gpxtpx:atemp>3.2</gpxtpx:atemp></gpxtpx:TrackPointExtension></extensions></trkpt><trkpt lat="42.1962635312" lon="13.4102877695"><ele>1773.35</ele><time>2026-03-11T15:14:47Z</time><extensions><gpxtpx:TrackPointExtension><gpxtpx:atemp>3.2</gpxtpx:atemp></gpxtpx:TrackPointExtension></extensions></trkpt><trkpt lat="42.1962637827" lon="13.4102877695"><ele>1773.35</ele><time>2026-03-11T15:14:48Z</time><extensions><gpxtpx:TrackPointExtension><gpxtpx:atemp>3.2</gpxtpx:atemp></gpxtpx:TrackPointExtension></extensions></trkpt><trkpt lat="42.1962638665" lon="13.4102877695"><ele>1773.35</ele><time>2026-03-11T15:14:49Z</time><extensions><gpxtpx:TrackPointExtension><gpxtpx:atemp>3.2</gpxtpx:atemp></gpxtpx:TrackPointExtension></extensions></trkpt><trkpt lat="42.1962634474" lon="13.4102876857"><ele>1773.35</ele><time>2026-03-11T15:14:50Z</time><extensions><gpxtpx:TrackPointExtension><gpxtpx:atemp>3.2</gpxtpx:atemp></gpxtpx:TrackPointExtension></extensions></trkpt><trkpt lat="42.1962632798" lon="13.4102877695"><ele>1773.35</ele><time>2026-03-11T15:14:51Z</time><extensions><gpxtpx:TrackPointExtension><gpxtpx:atemp>3.2</gpxtpx:atemp></gpxtpx:TrackPointExtension></extensions></trkpt><trkpt lat="42.1962634474" lon="13.4102880210"><ele>1773.35</ele><time>2026-03-11T15:14:52Z</time><extensions><gpxtpx:TrackPointExtension><gpxtpx:atemp>3.2</gpxtpx:atemp></gpxtpx:TrackPointExtension></extensions></trkpt><trkpt lat="42.1962637827" lon="13.4102881886"><ele>1773.35</ele><time>2026-03-11T15:14:53Z</time><extensions><gpxtpx:TrackPointExtension><gpxtpx:atemp>3.2</gpxtpx:atemp></gpxtpx:TrackPointExtension></extensions></trkpt><trkpt lat="42.1962638665" lon="13.4102883562"><ele>1773.35</ele><time>2026-03-11T15:14:54Z</time><extensions><gpxtpx:TrackPointExtension><gpxtpx:atemp>3.2</gpxtpx:atemp></gpxtpx:TrackPointExtension></extensions></trkpt><trkpt lat="42.1962642856" lon="13.4102888592"><ele>1773.35</ele><time>2026-03-11T15:14:55Z</time><extensions><gpxtpx:TrackPointExtension><gpxtpx:atemp>3.2</gpxtpx:atemp></gpxtpx:TrackPointExtension></extensions></trkpt><trkpt lat="42.1962646209" lon="13.4102893621"><ele>1773.35</ele><time>2026-03-11T15:14:56Z</time><extensions><gpxtpx:TrackPointExtension><gpxtpx:atemp>3.2</gpxtpx:atemp></gpxtpx:TrackPointExtension></extensions></trkpt><trkpt lat="42.1962648723" lon="13.4102897812"><ele>1773.37</ele><time>2026-03-11T15:14:57Z</time><extensions><gpxtpx:TrackPointExtension><gpxtpx:atemp>3.2</gpxtpx:atemp></gpxtpx:TrackPointExtension></extensions></trkpt><trkpt lat="42.1962649561" lon="13.4102899488"><ele>1773.39</ele><time>2026-03-11T15:14:58Z</time><extensions><gpxtpx:TrackPointExtension><gpxtpx:atemp>3.2</gpxtpx:atemp></gpxtpx:TrackPointExtension></extensions></trkpt><trkpt lat="42.1962648723" lon="13.4102900326"><ele>1773.40</ele><time>2026-03-11T15:14:59Z</time><extensions><gpxtpx:TrackPointExtension><gpxtpx:atemp>3.2</gpxtpx:atemp></gpxtpx:TrackPointExtension></extensions></trkpt><trkpt lat="42.1962650400" lon="13.4102901164"><ele>1773.39</ele><time>2026-03-11T15:15:00Z</time><extensions><gpxtpx:TrackPointExtension><gpxtpx:atemp>3.2</gpxtpx:atemp></gpxtpx:TrackPointExtension></extensions></trkpt><trkpt lat="42.1962652914" lon="13.4102903679"><ele>1773.39</ele><time>2026-03-11T15:15:01Z</time><extensions><gpxtpx:TrackPointExtension><gpxtpx:atemp>3.2</gpxtpx:atemp></gpxtpx:TrackPointExtension></extensions></trkpt><trkpt lat="42.1962652914" lon="13.4102903679"><ele>1773.38</ele><time>2026-03-11T15:15:02Z</time><extensions><gpxtpx:TrackPointExtension><gpxtpx:atemp>3.2</gpxtpx:atemp></gpxtpx:TrackPointExtension></extensions></trkpt><trkpt lat="42.1962651238" lon="13.4102902841"><ele>1773.38</ele><time>2026-03-11T15:15:03Z</time><extensions><gpxtpx:TrackPointExtension><gpxtpx:atemp>3.2</gpxtpx:atemp></gpxtpx:TrackPointExtension></extensions></trkpt><trkpt lat="42.1962650400" lon="13.4102904517"><ele>1773.38</ele><time>2026-03-11T15:15:04Z</time><extensions><gpxtpx:TrackPointExtension><gpxtpx:atemp>3.2</gpxtpx:atemp></gpxtpx:TrackPointExtension></extensions></trkpt><trkpt lat="42.1962652914" lon="13.4102903679"><ele>1773.38</ele><time>2026-03-11T15:15:05Z</time><extensions><gpxtpx:TrackPointExtension><gpxtpx:atemp>3.2</gpxtpx:atemp></gpxtpx:TrackPointExtension></extensions></trkpt><trkpt lat="42.1962652914" lon="13.4102902841"><ele>1773.38</ele><time>2026-03-11T15:15:06Z</time><extensions><gpxtpx:TrackPointExtension><gpxtpx:atemp>3.2</gpxtpx:atemp></gpxtpx:TrackPointExtension></extensions></trkpt><trkpt lat="42.1962653752" lon="13.4102901164"><ele>1773.38</ele><time>2026-03-11T15:15:07Z</time><extensions><gpxtpx:TrackPointExtension><gpxtpx:atemp>3.2</gpxtpx:atemp></gpxtpx:TrackPointExtension></extensions></trkpt><trkpt lat="42.1962651238" lon="13.4102899488"><ele>1773.37</ele><time>2026-03-11T15:15:08Z</time><extensions><gpxtpx:TrackPointExtension><gpxtpx:atemp>3.2</gpxtpx:atemp></gpxtpx:TrackPointExtension></extensions></trkpt><trkpt lat="42.1962647885" lon="13.4102900326"><ele>1773.37</ele><time>2026-03-11T15:15:09Z</time><extensions><gpxtpx:TrackPointExtension><gpxtpx:atemp>3.2</gpxtpx:atemp></gpxtpx:TrackPointExtension></extensions></trkpt><trkpt lat="42.1962646209" lon="13.4102899488"><ele>1773.37</ele><time>2026-03-11T15:15:10Z</time><extensions><gpxtpx:TrackPointExtension><gpxtpx:atemp>3.2</gpxtpx:atemp></gpxtpx:TrackPointExtension></extensions></trkpt><trkpt lat="42.1962642856" lon="13.4102896973"><ele>1773.37</ele><time>2026-03-11T15:15:11Z</time><extensions><gpxtpx:TrackPointExtension><gpxtpx:atemp>3.2</gpxtpx:atemp></gpxtpx:TrackPointExtension></extensions></trkpt><trkpt lat="42.1962641180" lon="13.4102895297"><ele>1773.37</ele><time>2026-03-11T15:15:12Z</time><extensions><gpxtpx:TrackPointExtension><gpxtpx:atemp>3.2</gpxtpx:atemp></gpxtpx:TrackPointExtension></extensions></trkpt><trkpt lat="42.1962640341" lon="13.4102896973"><ele>1773.39</ele><time>2026-03-11T15:15:13Z</time><extensions><gpxtpx:TrackPointExtension><gpxtpx:atemp>3.2</gpxtpx:atemp></gpxtpx:TrackPointExtension></extensions></trkpt><trkpt lat="42.1962638665" lon="13.4102897812"><ele>1773.40</ele><time>2026-03-11T15:15:14Z</time><extensions><gpxtpx:TrackPointExtension><gpxtpx:atemp>3.2</gpxtpx:atemp></gpxtpx:TrackPointExtension></extensions></trkpt><trkpt lat="42.1962640341" lon="13.4102895297"><ele>1773.42</ele><time>2026-03-11T15:15:15Z</time><extensions><gpxtpx:TrackPointExtension><gpxtpx:atemp>3.2</gpxtpx:atemp></gpxtpx:TrackPointExtension></extensions></trkpt><trkpt lat="42.1962639503" lon="13.4102894459"><ele>1773.42</ele><time>2026-03-11T15:15:16Z</time><extensions><gpxtpx:TrackPointExtension><gpxtpx:atemp>3.2</gpxtpx:atemp></gpxtpx:TrackPointExtension></extensions></trkpt><trkpt lat="42.1962638665" lon="13.4102892783"><ele>1773.44</ele><time>2026-03-11T15:15:17Z</time><extensions><gpxtpx:TrackPointExtension><gpxtpx:atemp>3.2</gpxtpx:atemp></gpxtpx:TrackPointExtension></extensions></trkpt><trkpt lat="42.1962637827" lon="13.4102890268"><ele>1773.44</ele><time>2026-03-11T15:15:18Z</time><extensions><gpxtpx:TrackPointExtension><gpxtpx:atemp>3.2</gpxtpx:atemp></gpxtpx:TrackPointExtension></extensions></trkpt><trkpt lat="42.1962636989" lon="13.4102889430"><ele>1773.44</ele><time>2026-03-11T15:15:19Z</time><extensions><gpxtpx:TrackPointExtension><gpxtpx:atemp>3.2</gpxtpx:atemp></gpxtpx:TrackPointExtension></extensions></trkpt><trkpt lat="42.1962636989" lon="13.4102887753"><ele>1773.45</ele><time>2026-03-11T15:15:20Z</time><extensions><gpxtpx:TrackPointExtension><gpxtpx:atemp>3.2</gpxtpx:atemp></gpxtpx:TrackPointExtension></extensions></trkpt><trkpt lat="42.1962637827" lon="13.4102885239"><ele>1773.45</ele><time>2026-03-11T15:15:21Z</time><extensions><gpxtpx:TrackPointExtension><gpxtpx:atemp>3.2</gpxtpx:atemp></gpxtpx:TrackPointExtension></extensions></trkpt><trkpt lat="42.1962635312" lon="13.4102885239"><ele>1773.48</ele><time>2026-03-11T15:15:22Z</time><extensions><gpxtpx:TrackPointExtension><gpxtpx:atemp>3.2</gpxtpx:atemp></gpxtpx:TrackPointExtension></extensions></trkpt><trkpt lat="42.1962636989" lon="13.4102884401"><ele>1773.51</ele><time>2026-03-11T15:15:23Z</time><extensions><gpxtpx:TrackPointExtension><gpxtpx:atemp>3.2</gpxtpx:atemp></gpxtpx:TrackPointExtension></extensions></trkpt><trkpt lat="42.1962634474" lon="13.4102884401"><ele>1773.51</ele><time>2026-03-11T15:15:24Z</time><extensions><gpxtpx:TrackPointExtension><gpxtpx:atemp>3.2</gpxtpx:atemp></gpxtpx:TrackPointExtension></extensions></trkpt><trkpt lat="42.1962631959" lon="13.4102883562"><ele>1773.51</ele><time>2026-03-11T15:15:25Z</time><extensions><gpxtpx:TrackPointExtension><gpxtpx:atemp>3.2</gpxtpx:atemp></gpxtpx:TrackPointExtension></extensions></trkpt><trkpt lat="42.1962630283" lon="13.4102883562"><ele>1773.51</ele><time>2026-03-11T15:15:26Z</time><extensions><gpxtpx:TrackPointExtension><gpxtpx:atemp>3.2</gpxtpx:atemp></gpxtpx:TrackPointExtension></extensions></trkpt><trkpt lat="42.1962631959" lon="13.4102882724"><ele>1773.53</ele><time>2026-03-11T15:15:27Z</time><extensions><gpxtpx:TrackPointExtension><gpxtpx:atemp>3.2</gpxtpx:atemp></gpxtpx:TrackPointExtension></extensions></trkpt><trkpt lat="42.1962631959" lon="13.4102881886"><ele>1773.52</ele><time>2026-03-11T15:15:28Z</time><extensions><gpxtpx:TrackPointExtension><gpxtpx:atemp>3.2</gpxtpx:atemp></gpxtpx:TrackPointExtension></extensions></trkpt><trkpt lat="42.1962632798" lon="13.4102882724"><ele>1773.53</ele><time>2026-03-11T15:15:29Z</time><extensions><gpxtpx:TrackPointExtension><gpxtpx:atemp>3.2</gpxtpx:atemp></gpxtpx:TrackPointExtension></extensions></trkpt><trkpt lat="42.1962633636" lon="13.4102883562"><ele>1773.53</ele><time>2026-03-11T15:15:30Z</time><extensions><gpxtpx:TrackPointExtension><gpxtpx:atemp>3.2</gpxtpx:atemp></gpxtpx:TrackPointExtension></extensions></trkpt><trkpt lat="42.1962634474" lon="13.4102882724"><ele>1773.53</ele><time>2026-03-11T15:15:31Z</time><extensions><gpxtpx:TrackPointExtension><gpxtpx:atemp>3.2</gpxtpx:atemp></gpxtpx:TrackPointExtension></extensions></trkpt><trkpt lat="42.1962636989" lon="13.4102882724"><ele>1773.53</ele><time>2026-03-11T15:15:32Z</time><extensions><gpxtpx:TrackPointExtension><gpxtpx:atemp>3.2</gpxtpx:atemp></gpxtpx:TrackPointExtension></extensions></trkpt><trkpt lat="42.1962637827" lon="13.4102886915"><ele>1773.52</ele><time>2026-03-11T15:15:33Z</time><extensions><gpxtpx:TrackPointExtension><gpxtpx:atemp>3.2</gpxtpx:atemp></gpxtpx:TrackPointExtension></extensions></trkpt><trkpt lat="42.1962639503" lon="13.4102889430"><ele>1773.49</ele><time>2026-03-11T15:15:34Z</time><extensions><gpxtpx:TrackPointExtension><gpxtpx:atemp>3.3</gpxtpx:atemp></gpxtpx:TrackPointExtension></extensions></trkpt><trkpt lat="42.1962642856" lon="13.4102894459"><ele>1773.49</ele><time>2026-03-11T15:15:35Z</time><extensions><gpxtpx:TrackPointExtension><gpxtpx:atemp>3.3</gpxtpx:atemp></gpxtpx:TrackPointExtension></extensions></trkpt><trkpt lat="42.1962644532" lon="13.4102897812"><ele>1773.49</ele><time>2026-03-11T15:15:36Z</time><extensions><gpxtpx:TrackPointExtension><gpxtpx:atemp>3.3</gpxtpx:atemp></gpxtpx:TrackPointExtension></extensions></trkpt><trkpt lat="42.1962645371" lon="13.4102899488"><ele>1773.49</ele><time>2026-03-11T15:15:37Z</time><extensions><gpxtpx:TrackPointExtension><gpxtpx:atemp>3.3</gpxtpx:atemp></gpxtpx:TrackPointExtension></extensions></trkpt><trkpt lat="42.1962641180" lon="13.4102899488"><ele>1773.52</ele><time>2026-03-11T15:15:38Z</time><extensions><gpxtpx:TrackPointExtension><gpxtpx:atemp>3.3</gpxtpx:atemp></gpxtpx:TrackPointExtension></extensions></trkpt><trkpt lat="42.1962639503" lon="13.4102898650"><ele>1773.51</ele><time>2026-03-11T15:15:39Z</time><extensions><gpxtpx:TrackPointExtension><gpxtpx:atemp>3.3</gpxtpx:atemp></gpxtpx:TrackPointExtension></extensions></trkpt><trkpt lat="42.1962639503" lon="13.4102898650"><ele>1773.55</ele><time>2026-03-11T15:15:40Z</time><extensions><gpxtpx:TrackPointExtension><gpxtpx:atemp>3.3</gpxtpx:atemp></gpxtpx:TrackPointExtension></extensions></trkpt><trkpt lat="42.1962642856" lon="13.4102898650"><ele>1773.52</ele><time>2026-03-11T15:15:41Z</time><extensions><gpxtpx:TrackPointExtension><gpxtpx:atemp>3.3</gpxtpx:atemp></gpxtpx:TrackPointExtension></extensions></trkpt><trkpt lat="42.1962643694" lon="13.4102898650"><ele>1773.50</ele><time>2026-03-11T15:15:42Z</time><extensions><gpxtpx:TrackPointExtension><gpxtpx:atemp>3.3</gpxtpx:atemp></gpxtpx:TrackPointExtension></extensions></trkpt><trkpt lat="42.1962643694" lon="13.4102899488"><ele>1773.49</ele><time>2026-03-11T15:15:43Z</time><extensions><gpxtpx:TrackPointExtension><gpxtpx:atemp>3.3</gpxtpx:atemp></gpxtpx:TrackPointExtension></extensions></trkpt><trkpt lat="42.1962639503" lon="13.4102898650"><ele>1773.53</ele><time>2026-03-11T15:15:44Z</time><extensions><gpxtpx:TrackPointExtension><gpxtpx:atemp>3.3</gpxtpx:atemp></gpxtpx:TrackPointExtension></extensions></trkpt><trkpt lat="42.1962638665" lon="13.4102899488"><ele>1773.54</ele><time>2026-03-11T15:15:45Z</time><extensions><gpxtpx:TrackPointExtension><gpxtpx:atemp>3.3</gpxtpx:atemp></gpxtpx:TrackPointExtension></extensions></trkpt><trkpt lat="42.1962637827" lon="13.4102898650"><ele>1773.56</ele><time>2026-03-11T15:15:46Z</time><extensions><gpxtpx:TrackPointExtension><gpxtpx:atemp>3.3</gpxtpx:atemp></gpxtpx:TrackPointExtension></extensions></trkpt><trkpt lat="42.1962637827" lon="13.4102898650"><ele>1773.56</ele><time>2026-03-11T15:15:47Z</time><extensions><gpxtpx:TrackPointExtension><gpxtpx:atemp>3.3</gpxtpx:atemp></gpxtpx:TrackPointExtension></extensions></trkpt><trkpt lat="42.1962636989" lon="13.4102896973"><ele>1773.58</ele><time>2026-03-11T15:15:48Z</time><extensions><gpxtpx:TrackPointExtension><gpxtpx:atemp>3.3</gpxtpx:atemp></gpxtpx:TrackPointExtension></extensions></trkpt><trkpt lat="42.1962635312" lon="13.4102894459"><ele>1773.58</ele><time>2026-03-11T15:15:49Z</time><extensions><gpxtpx:TrackPointExtension><gpxtpx:atemp>3.3</gpxtpx:atemp></gpxtpx:TrackPointExtension></extensions></trkpt><trkpt lat="42.1962635312" lon="13.4102893621"><ele>1773.58</ele><time>2026-03-11T15:15:50Z</time><extensions><gpxtpx:TrackPointExtension><gpxtpx:atemp>3.3</gpxtpx:atemp></gpxtpx:TrackPointExtension></extensions></trkpt><trkpt lat="42.1962634474" lon="13.4102890268"><ele>1773.58</ele><time>2026-03-11T15:15:51Z</time><extensions><gpxtpx:TrackPointExtension><gpxtpx:atemp>3.3</gpxtpx:atemp></gpxtpx:TrackPointExtension></extensions></trkpt><trkpt lat="42.1962632798" lon="13.4102886915"><ele>1773.56</ele><time>2026-03-11T15:15:52Z</time><extensions><gpxtpx:TrackPointExtension><gpxtpx:atemp>3.3</gpxtpx:atemp></gpxtpx:TrackPointExtension></extensions></trkpt><trkpt lat="42.1962631959" lon="13.4102886915"><ele>1773.55</ele><time>2026-03-11T15:15:53Z</time><extensions><gpxtpx:TrackPointExtension><gpxtpx:atemp>3.3</gpxtpx:atemp></gpxtpx:TrackPointExtension></extensions></trkpt><trkpt lat="42.1962631959" lon="13.4102885239"><ele>1773.54</ele><time>2026-03-11T15:15:54Z</time><extensions><gpxtpx:TrackPointExtension><gpxtpx:atemp>3.3</gpxtpx:atemp></gpxtpx:TrackPointExtension></extensions></trkpt><trkpt lat="42.1962630283" lon="13.4102884401"><ele>1773.55</ele><time>2026-03-11T15:15:55Z</time><extensions><gpxtpx:TrackPointExtension><gpxtpx:atemp>3.3</gpxtpx:atemp></gpxtpx:TrackPointExtension></extensions></trkpt><trkpt lat="42.1962630283" lon="13.4102883562"><ele>1773.57</ele><time>2026-03-11T15:15:56Z</time><extensions><gpxtpx:TrackPointExtension><gpxtpx:atemp>3.3</gpxtpx:atemp></gpxtpx:TrackPointExtension></extensions></trkpt><trkpt lat="42.1962631959" lon="13.4102884401"><ele>1773.61</ele><time>2026-03-11T15:15:57Z</time><extensions><gpxtpx:TrackPointExtension><gpxtpx:atemp>3.3</gpxtpx:atemp></gpxtpx:TrackPointExtension></extensions></trkpt><trkpt lat="42.1962631959" lon="13.4102883562"><ele>1773.61</ele><time>2026-03-11T15:15:58Z</time><extensions><gpxtpx:TrackPointExtension><gpxtpx:atemp>3.3</gpxtpx:atemp></gpxtpx:TrackPointExtension></extensions></trkpt><trkpt lat="42.1962632798" lon="13.4102881886"><ele>1773.61</ele><time>2026-03-11T15:15:59Z</time><extensions><gpxtpx:TrackPointExtension><gpxtpx:atemp>3.3</gpxtpx:atemp></gpxtpx:TrackPointExtension></extensions></trkpt><trkpt lat="42.1962629445" lon="13.4102880210"><ele>1773.61</ele><time>2026-03-11T15:16:00Z</time><extensions><gpxtpx:TrackPointExtension><gpxtpx:atemp>3.3</gpxtpx:atemp></gpxtpx:TrackPointExtension></extensions></trkpt><trkpt lat="42.1962627769" lon="13.4102882724"><ele>1773.59</ele><time>2026-03-11T15:16:01Z</time><extensions><gpxtpx:TrackPointExtension><gpxtpx:atemp>3.3</gpxtpx:atemp></gpxtpx:TrackPointExtension></extensions></trkpt><trkpt lat="42.1962626930" lon="13.4102882724"><ele>1773.58</ele><time>2026-03-11T15:16:02Z</time><extensions><gpxtpx:TrackPointExtension><gpxtpx:atemp>3.3</gpxtpx:atemp></gpxtpx:TrackPointExtension></extensions></trkpt><trkpt lat="42.1962627769" lon="13.4102883562"><ele>1773.56</ele><time>2026-03-11T15:16:03Z</time><extensions><gpxtpx:TrackPointExtension><gpxtpx:atemp>3.3</gpxtpx:atemp></gpxtpx:TrackPointExtension></extensions></trkpt><trkpt lat="42.1962628607" lon="13.4102883562"><ele>1773.56</ele><time>2026-03-11T15:16:04Z</time><extensions><gpxtpx:TrackPointExtension><gpxtpx:atemp>3.3</gpxtpx:atemp></gpxtpx:TrackPointExtension></extensions></trkpt><trkpt lat="42.1962627769" lon="13.4102883562"><ele>1773.59</ele><time>2026-03-11T15:16:05Z</time><extensions><gpxtpx:TrackPointExtension><gpxtpx:atemp>3.3</gpxtpx:atemp></gpxtpx:TrackPointExtension></extensions></trkpt><trkpt lat="42.1962626930" lon="13.4102884401"><ele>1773.61</ele><time>2026-03-11T15:16:06Z</time><extensions><gpxtpx:TrackPointExtension><gpxtpx:atemp>3.3</gpxtpx:atemp></gpxtpx:TrackPointExtension></extensions></trkpt><trkpt lat="42.1962628607" lon="13.4102886915"><ele>1773.59</ele><time>2026-03-11T15:16:07Z</time><extensions><gpxtpx:TrackPointExtension><gpxtpx:atemp>3.3</gpxtpx:atemp></gpxtpx:TrackPointExtension></extensions></trkpt><trkpt lat="42.1962631959" lon="13.4102887753"><ele>1773.57</ele><time>2026-03-11T15:16:08Z</time><extensions><gpxtpx:TrackPointExtension><gpxtpx:atemp>3.3</gpxtpx:atemp></gpxtpx:TrackPointExtension></extensions></trkpt><trkpt lat="42.1962635312" lon="13.4102889430"><ele>1773.55</ele><time>2026-03-11T15:16:09Z</time><extensions><gpxtpx:TrackPointExtension><gpxtpx:atemp>3.3</gpxtpx:atemp></gpxtpx:TrackPointExtension></extensions></trkpt><trkpt lat="42.1962637827" lon="13.4102891944"><ele>1773.55</ele><time>2026-03-11T15:16:10Z</time><extensions><gpxtpx:TrackPointExtension><gpxtpx:atemp>3.3</gpxtpx:atemp></gpxtpx:TrackPointExtension></extensions></trkpt><trkpt lat="42.1962641180" lon="13.4102893621"><ele>1773.53</ele><time>2026-03-11T15:16:11Z</time><extensions><gpxtpx:TrackPointExtension><gpxtpx:atemp>3.3</gpxtpx:atemp></gpxtpx:TrackPointExtension></extensions></trkpt><trkpt lat="42.1962643694" lon="13.4102897812"><ele>1773.49</ele><time>2026-03-11T15:16:12Z</time><extensions><gpxtpx:TrackPointExtension><gpxtpx:atemp>3.3</gpxtpx:atemp></gpxtpx:TrackPointExtension></extensions></trkpt><trkpt lat="42.1962645371" lon="13.4102900326"><ele>1773.50</ele><time>2026-03-11T15:16:13Z</time><extensions><gpxtpx:TrackPointExtension><gpxtpx:atemp>3.3</gpxtpx:atemp></gpxtpx:TrackPointExtension></extensions></trkpt><trkpt lat="42.1962648723" lon="13.4102900326"><ele>1773.54</ele><time>2026-03-11T15:16:14Z</time><extensions><gpxtpx:TrackPointExtension><gpxtpx:atemp>3.3</gpxtpx:atemp></gpxtpx:TrackPointExtension></extensions></trkpt><trkpt lat="42.1962652914" lon="13.4102902841"><ele>1773.55</ele><time>2026-03-11T15:16:15Z</time><extensions><gpxtpx:TrackPointExtension><gpxtpx:atemp>3.3</gpxtpx:atemp></gpxtpx:TrackPointExtension></extensions></trkpt><trkpt lat="42.1962653752" lon="13.4102903679"><ele>1773.55</ele><time>2026-03-11T15:16:16Z</time><extensions><gpxtpx:TrackPointExtension><gpxtpx:atemp>3.3</gpxtpx:atemp></gpxtpx:TrackPointExtension></extensions></trkpt><trkpt lat="42.1962654591" lon="13.4102906194"><ele>1773.57</ele><time>2026-03-11T15:16:17Z</time><extensions><gpxtpx:TrackPointExtension><gpxtpx:atemp>3.3</gpxtpx:atemp></gpxtpx:TrackPointExtension></extensions></trkpt><trkpt lat="42.1962655429" lon="13.4102907870"><ele>1773.61</ele><time>2026-03-11T15:16:18Z</time><extensions><gpxtpx:TrackPointExtension><gpxtpx:atemp>3.3</gpxtpx:atemp></gpxtpx:TrackPointExtension></extensions></trkpt><trkpt lat="42.1962655429" lon="13.4102909546"><ele>1773.64</ele><time>2026-03-11T15:16:19Z</time><extensions><gpxtpx:TrackPointExtension><gpxtpx:atemp>3.3</gpxtpx:atemp></gpxtpx:TrackPointExtension></extensions></trkpt><trkpt lat="42.1962655429" lon="13.4102907870"><ele>1773.65</ele><time>2026-03-11T15:16:20Z</time><extensions><gpxtpx:TrackPointExtension><gpxtpx:atemp>3.3</gpxtpx:atemp></gpxtpx:TrackPointExtension></extensions></trkpt><trkpt lat="42.1962655429" lon="13.4102907870"><ele>1773.65</ele><time>2026-03-11T15:16:21Z</time><extensions><gpxtpx:TrackPointExtension><gpxtpx:atemp>3.3</gpxtpx:atemp></gpxtpx:TrackPointExtension></extensions></trkpt><trkpt lat="42.1962657943" lon="13.4102909546"><ele>1773.64</ele><time>2026-03-11T15:16:22Z</time><extensions><gpxtpx:TrackPointExtension><gpxtpx:atemp>3.3</gpxtpx:atemp></gpxtpx:TrackPointExtension></extensions></trkpt><trkpt lat="42.1962657943" lon="13.4102907870"><ele>1773.65</ele><time>2026-03-11T15:16:23Z</time><extensions><gpxtpx:TrackPointExtension><gpxtpx:atemp>3.3</gpxtpx:atemp></gpxtpx:TrackPointExtension></extensions></trkpt><trkpt lat="42.1962656267" lon="13.4102905355"><ele>1773.62</ele><time>2026-03-11T15:16:24Z</time><extensions><gpxtpx:TrackPointExtension><gpxtpx:atemp>3.3</gpxtpx:atemp></gpxtpx:TrackPointExtension></extensions></trkpt><trkpt lat="42.1962658782" lon="13.4102903679"><ele>1773.56</ele><time>2026-03-11T15:16:25Z</time><extensions><gpxtpx:TrackPointExtension><gpxtpx:atemp>3.3</gpxtpx:atemp></gpxtpx:TrackPointExtension></extensions></trkpt><trkpt lat="42.1962659620" lon="13.4102902841"><ele>1773.50</ele><time>2026-03-11T15:16:26Z</time><extensions><gpxtpx:TrackPointExtension><gpxtpx:atemp>3.3</gpxtpx:atemp></gpxtpx:TrackPointExtension></extensions></trkpt><trkpt lat="42.1962659620" lon="13.4102899488"><ele>1773.46</ele><time>2026-03-11T15:16:27Z</time><extensions><gpxtpx:TrackPointExtension><gpxtpx:atemp>3.3</gpxtpx:atemp></gpxtpx:TrackPointExtension></extensions></trkpt><trkpt lat="42.1962659620" lon="13.4102899488"><ele>1773.46</ele><time>2026-03-11T15:16:28Z</time><extensions><gpxtpx:TrackPointExtension><gpxtpx:atemp>3.3</gpxtpx:atemp></gpxtpx:TrackPointExtension></extensions></trkpt><trkpt lat="42.1962660458" lon="13.4102900326"><ele>1773.46</ele><time>2026-03-11T15:16:29Z</time><extensions><gpxtpx:TrackPointExtension><gpxtpx:atemp>3.3</gpxtpx:atemp></gpxtpx:TrackPointExtension></extensions></trkpt><trkpt lat="42.1962660458" lon="13.4102900326"><ele>1773.46</ele><time>2026-03-11T15:16:30Z</time><extensions><gpxtpx:TrackPointExtension><gpxtpx:atemp>3.3</gpxtpx:atemp></gpxtpx:TrackPointExtension></extensions></trkpt><trkpt lat="42.1962661296" lon="13.4102901164"><ele>1773.46</ele><time>2026-03-11T15:16:31Z</time><extensions><gpxtpx:TrackPointExtension><gpxtpx:atemp>3.3</gpxtpx:atemp></gpxtpx:TrackPointExtension></extensions></trkpt><trkpt lat="42.1962662973" lon="13.4102901164"><ele>1773.49</ele><time>2026-03-11T15:16:32Z</time><extensions><gpxtpx:TrackPointExtension><gpxtpx:atemp>3.3</gpxtpx:atemp></gpxtpx:TrackPointExtension></extensions></trkpt><trkpt lat="42.1962662973" lon="13.4102902841"><ele>1773.54</ele><time>2026-03-11T15:16:33Z</time><extensions><gpxtpx:TrackPointExtension><gpxtpx:atemp>3.3</gpxtpx:atemp></gpxtpx:TrackPointExtension></extensions></trkpt><trkpt lat="42.1962663811" lon="13.4102902841"><ele>1773.61</ele><time>2026-03-11T15:16:34Z</time><extensions><gpxtpx:TrackPointExtension><gpxtpx:atemp>3.2</gpxtpx:atemp></gpxtpx:TrackPointExtension></extensions></trkpt><trkpt lat="42.1962663811" lon="13.4102901164"><ele>1773.68</ele><time>2026-03-11T15:16:35Z</time><extensions><gpxtpx:TrackPointExtension><gpxtpx:atemp>3.2</gpxtpx:atemp></gpxtpx:TrackPointExtension></extensions></trkpt><trkpt lat="42.1962664649" lon="13.4102902841"><ele>1773.82</ele><time>2026-03-11T15:16:36Z</time><extensions><gpxtpx:TrackPointExtension><gpxtpx:atemp>3.2</gpxtpx:atemp></gpxtpx:TrackPointExtension></extensions></trkpt><trkpt lat="42.1962666325" lon="13.4102902841"><ele>1773.86</ele><time>2026-03-11T15:16:37Z</time><extensions><gpxtpx:TrackPointExtension><gpxtpx:atemp>3.2</gpxtpx:atemp></gpxtpx:TrackPointExtension></extensions></trkpt><trkpt lat="42.1962666325" lon="13.4102904517"><ele>1773.90</ele><time>2026-03-11T15:16:38Z</time><extensions><gpxtpx:TrackPointExtension><gpxtpx:atemp>3.2</gpxtpx:atemp></gpxtpx:TrackPointExtension></extensions></trkpt><trkpt lat="42.1962662973" lon="13.4102907870"><ele>1773.92</ele><time>2026-03-11T15:16:39Z</time><extensions><gpxtpx:TrackPointExtension><gpxtpx:atemp>3.2</gpxtpx:atemp></gpxtpx:TrackPointExtension></extensions></trkpt><trkpt lat="42.1962669678" lon="13.4102878533"><ele>1773.99</ele><time>2026-03-11T15:16:40Z</time><extensions><gpxtpx:TrackPointExtension><gpxtpx:atemp>3.2</gpxtpx:atemp></gpxtpx:TrackPointExtension></extensions></trkpt><trkpt lat="42.1962657943" lon="13.4102870990"><ele>1774.18</ele><time>2026-03-11T15:16:41Z</time><extensions><gpxtpx:TrackPointExtension><gpxtpx:atemp>3.2</gpxtpx:atemp></gpxtpx:TrackPointExtension></extensions></trkpt><trkpt lat="42.1962634474" lon="13.4102863446"><ele>1774.38</ele><time>2026-03-11T15:16:42Z</time><extensions><gpxtpx:TrackPointExtension><gpxtpx:atemp>3.2</gpxtpx:atemp></gpxtpx:TrackPointExtension></extensions></trkpt><trkpt lat="42.1962676384" lon="13.4102808964"><ele>1774.52</ele><time>2026-03-11T15:16:43Z</time><extensions><gpxtpx:TrackPointExtension><gpxtpx:atemp>3.2</gpxtpx:atemp></gpxtpx:TrackPointExtension></extensions></trkpt><trkpt lat="42.1962711588" lon="13.4102776274"><ele>1774.63</ele><time>2026-03-11T15:16:44Z</time><extensions><gpxtpx:TrackPointExtension><gpxtpx:atemp>3.2</gpxtpx:atemp></gpxtpx:TrackPointExtension></extensions></trkpt><trkpt lat="42.1962715778" lon="13.4102774598"><ele>1774.73</ele><time>2026-03-11T15:16:45Z</time><extensions><gpxtpx:TrackPointExtension><gpxtpx:atemp>3.2</gpxtpx:atemp></gpxtpx:TrackPointExtension></extensions></trkpt><trkpt lat="42.1962721646" lon="13.4102776274"><ele>1774.89</ele><time>2026-03-11T15:16:46Z</time><extensions><gpxtpx:TrackPointExtension><gpxtpx:atemp>3.2</gpxtpx:atemp></gpxtpx:TrackPointExtension></extensions></trkpt><trkpt lat="42.1962714940" lon="13.4102769569"><ele>1775.12</ele><time>2026-03-11T15:16:47Z</time><extensions><gpxtpx:TrackPointExtension><gpxtpx:atemp>3.2</gpxtpx:atemp></gpxtpx:TrackPointExtension></extensions></trkpt><trkpt lat="42.1962710749" lon="13.4102767892"><ele>1775.22</ele><time>2026-03-11T15:16:48Z</time><extensions><gpxtpx:TrackPointExtension><gpxtpx:atemp>3.2</gpxtpx:atemp></gpxtpx:TrackPointExtension></extensions></trkpt><trkpt lat="42.1962717455" lon="13.4102765378"><ele>1775.28</ele><time>2026-03-11T15:16:49Z</time><extensions><gpxtpx:TrackPointExtension><gpxtpx:atemp>3.2</gpxtpx:atemp></gpxtpx:TrackPointExtension></extensions></trkpt><trkpt lat="42.1962732542" lon="13.4102793876"><ele>1775.32</ele><time>2026-03-11T15:16:50Z</time><extensions><gpxtpx:TrackPointExtension><gpxtpx:atemp>3.2</gpxtpx:atemp></gpxtpx:TrackPointExtension></extensions></trkpt><trkpt lat="42.1962741762" lon="13.4102794714"><ele>1775.34</ele><time>2026-03-11T15:16:51Z</time><extensions><gpxtpx:TrackPointExtension><gpxtpx:atemp>3.2</gpxtpx:atemp></gpxtpx:TrackPointExtension></extensions></trkpt><trkpt lat="42.1962752659" lon="13.4102804773"><ele>1775.34</ele><time>2026-03-11T15:16:52Z</time><extensions><gpxtpx:TrackPointExtension><gpxtpx:atemp>3.2</gpxtpx:atemp></gpxtpx:TrackPointExtension></extensions></trkpt><trkpt lat="42.1962759364" lon="13.4102818184"><ele>1775.31</ele><time>2026-03-11T15:16:53Z</time><extensions><gpxtpx:TrackPointExtension><gpxtpx:atemp>3.2</gpxtpx:atemp></gpxtpx:TrackPointExtension></extensions></trkpt><trkpt lat="42.1962768584" lon="13.4102826566"><ele>1775.27</ele><time>2026-03-11T15:16:54Z</time><extensions><gpxtpx:TrackPointExtension><gpxtpx:atemp>3.2</gpxtpx:atemp></gpxtpx:TrackPointExtension></extensions></trkpt><trkpt lat="42.1962775290" lon="13.4102843329"><ele>1775.24</ele><time>2026-03-11T15:16:55Z</time><extensions><gpxtpx:TrackPointExtension><gpxtpx:atemp>3.2</gpxtpx:atemp></gpxtpx:TrackPointExtension></extensions></trkpt><trkpt lat="42.1962786186" lon="13.4102846682"><ele>1775.20</ele><time>2026-03-11T15:16:56Z</time><extensions><gpxtpx:TrackPointExtension><gpxtpx:atemp>3.2</gpxtpx:atemp></gpxtpx:TrackPointExtension></extensions></trkpt><trkpt lat="42.1962790377" lon="13.4102852549"><ele>1775.19</ele><time>2026-03-11T15:16:57Z</time><extensions><gpxtpx:TrackPointExtension><gpxtpx:atemp>3.2</gpxtpx:atemp></gpxtpx:TrackPointExtension></extensions></trkpt><trkpt lat="42.1962787863" lon="13.4102870990"><ele>1775.15</ele><time>2026-03-11T15:16:58Z</time><extensions><gpxtpx:TrackPointExtension><gpxtpx:atemp>3.2</gpxtpx:atemp></gpxtpx:TrackPointExtension></extensions></trkpt><trkpt lat="42.1962787863" lon="13.4102883562"><ele>1775.10</ele><time>2026-03-11T15:16:59Z</time><extensions><gpxtpx:TrackPointExtension><gpxtpx:atemp>3.2</gpxtpx:atemp></gpxtpx:TrackPointExtension></extensions></trkpt><trkpt lat="42.1962778643" lon="13.4102891944"><ele>1775.03</ele><time>2026-03-11T15:17:00Z</time><extensions><gpxtpx:TrackPointExtension><gpxtpx:atemp>3.2</gpxtpx:atemp></gpxtpx:TrackPointExtension></extensions></trkpt><trkpt lat="42.1962779481" lon="13.4102885239"><ele>1774.90</ele><time>2026-03-11T15:17:01Z</time><extensions><gpxtpx:TrackPointExtension><gpxtpx:atemp>3.2</gpxtpx:atemp></gpxtpx:TrackPointExtension></extensions></trkpt><trkpt lat="42.1962795407" lon="13.4102895297"><ele>1774.87</ele><time>2026-03-11T15:17:02Z</time><extensions><gpxtpx:TrackPointExtension><gpxtpx:atemp>3.2</gpxtpx:atemp></gpxtpx:TrackPointExtension></extensions></trkpt><trkpt lat="42.1962800436" lon="13.4102896973"><ele>1774.85</ele><time>2026-03-11T15:17:03Z</time><extensions><gpxtpx:TrackPointExtension><gpxtpx:atemp>3.2</gpxtpx:atemp></gpxtpx:TrackPointExtension></extensions></trkpt><trkpt lat="42.1962800436" lon="13.4102900326"><ele>1774.88</ele><time>2026-03-11T15:17:04Z</time><extensions><gpxtpx:TrackPointExtension><gpxtpx:atemp>3.2</gpxtpx:atemp></gpxtpx:TrackPointExtension></extensions></trkpt><trkpt lat="42.1962782834" lon="13.4102946427"><ele>1774.91</ele><time>2026-03-11T15:17:05Z</time><extensions><gpxtpx:TrackPointExtension><gpxtpx:atemp>3.2</gpxtpx:atemp></gpxtpx:TrackPointExtension></extensions></trkpt><trkpt lat="42.1962787863" lon="13.4102939721"><ele>1775.08</ele><time>2026-03-11T15:17:06Z</time><extensions><gpxtpx:TrackPointExtension><gpxtpx:atemp>3.2</gpxtpx:atemp></gpxtpx:TrackPointExtension></extensions></trkpt><trkpt lat="42.1962764394" lon="13.4102927987"><ele>1775.18</ele><time>2026-03-11T15:17:07Z</time><extensions><gpxtpx:TrackPointExtension><gpxtpx:atemp>3.2</gpxtpx:atemp></gpxtpx:TrackPointExtension></extensions></trkpt><trkpt lat="42.1962767746" lon="13.4102928825"><ele>1775.23</ele><time>2026-03-11T15:17:08Z</time><extensions><gpxtpx:TrackPointExtension><gpxtpx:atemp>3.2</gpxtpx:atemp></gpxtpx:TrackPointExtension></extensions></trkpt><trkpt lat="42.1962750982" lon="13.4102926310"><ele>1775.23</ele><time>2026-03-11T15:17:09Z</time><extensions><gpxtpx:TrackPointExtension><gpxtpx:atemp>3.2</gpxtpx:atemp></gpxtpx:TrackPointExtension></extensions></trkpt><trkpt lat="42.1962750982" lon="13.4102930501"><ele>1775.24</ele><time>2026-03-11T15:17:10Z</time><extensions><gpxtpx:TrackPointExtension><gpxtpx:atemp>3.2</gpxtpx:atemp></gpxtpx:TrackPointExtension></extensions></trkpt><trkpt lat="42.1962757688" lon="13.4102937207"><ele>1775.24</ele><time>2026-03-11T15:17:11Z</time><extensions><gpxtpx:TrackPointExtension><gpxtpx:atemp>3.2</gpxtpx:atemp></gpxtpx:TrackPointExtension></extensions></trkpt><trkpt lat="42.1962753497" lon="13.4102937207"><ele>1775.24</ele><time>2026-03-11T15:17:12Z</time><extensions><gpxtpx:TrackPointExtension><gpxtpx:atemp>3.2</gpxtpx:atemp></gpxtpx:TrackPointExtension></extensions></trkpt><trkpt lat="42.1962765232" lon="13.4102924634"><ele>1775.24</ele><time>2026-03-11T15:17:13Z</time><extensions><gpxtpx:TrackPointExtension><gpxtpx:atemp>3.2</gpxtpx:atemp></gpxtpx:TrackPointExtension></extensions></trkpt><trkpt lat="42.1962764394" lon="13.4102922957"><ele>1775.24</ele><time>2026-03-11T15:17:14Z</time><extensions><gpxtpx:TrackPointExtension><gpxtpx:atemp>3.2</gpxtpx:atemp></gpxtpx:TrackPointExtension></extensions></trkpt><trkpt lat="42.1962773614" lon="13.4102924634"><ele>1775.24</ele><time>2026-03-11T15:17:15Z</time><extensions><gpxtpx:TrackPointExtension><gpxtpx:atemp>3.2</gpxtpx:atemp></gpxtpx:TrackPointExtension></extensions></trkpt><trkpt lat="42.1962781996" lon="13.4102918766"><ele>1775.22</ele><time>2026-03-11T15:17:16Z</time><extensions><gpxtpx:TrackPointExtension><gpxtpx:atemp>3.2</gpxtpx:atemp></gpxtpx:TrackPointExtension></extensions></trkpt><trkpt lat="42.1962788701" lon="13.4102916252"><ele>1775.21</ele><time>2026-03-11T15:17:17Z</time><extensions><gpxtpx:TrackPointExtension><gpxtpx:atemp>3.2</gpxtpx:atemp></gpxtpx:TrackPointExtension></extensions></trkpt><trkpt lat="42.1962749306" lon="13.4102857579"><ele>1775.14</ele><time>2026-03-11T15:17:18Z</time><extensions><gpxtpx:TrackPointExtension><gpxtpx:atemp>3.2</gpxtpx:atemp></gpxtpx:TrackPointExtension></extensions></trkpt><trkpt lat="42.1962746792" lon="13.4102848358"><ele>1775.10</ele><time>2026-03-11T15:17:19Z</time><extensions><gpxtpx:TrackPointExtension><gpxtpx:atemp>3.2</gpxtpx:atemp></gpxtpx:TrackPointExtension></extensions></trkpt><trkpt lat="42.1962735895" lon="13.4102835786"><ele>1775.09</ele><time>2026-03-11T15:17:20Z</time><extensions><gpxtpx:TrackPointExtension><gpxtpx:atemp>3.2</gpxtpx:atemp></gpxtpx:TrackPointExtension></extensions></trkpt><trkpt lat="42.1962755173" lon="13.4102850873"><ele>1775.02</ele><time>2026-03-11T15:17:21Z</time><extensions><gpxtpx:TrackPointExtension><gpxtpx:atemp>3.2</gpxtpx:atemp></gpxtpx:TrackPointExtension></extensions></trkpt><trkpt lat="42.1962745953" lon="13.4102854226"><ele>1775.08</ele><time>2026-03-11T15:17:22Z</time><extensions><gpxtpx:TrackPointExtension><gpxtpx:atemp>3.2</gpxtpx:atemp></gpxtpx:TrackPointExtension></extensions></trkpt><trkpt lat="42.1962745953" lon="13.4102867637"><ele>1775.08</ele><time>2026-03-11T15:17:23Z</time><extensions><gpxtpx:TrackPointExtension><gpxtpx:atemp>3.2</gpxtpx:atemp></gpxtpx:TrackPointExtension></extensions></trkpt><trkpt lat="42.1962748468" lon="13.4102866799"><ele>1775.08</ele><time>2026-03-11T15:17:24Z</time><extensions><gpxtpx:TrackPointExtension><gpxtpx:atemp>3.2</gpxtpx:atemp></gpxtpx:TrackPointExtension></extensions></trkpt><trkpt lat="42.1962756850" lon="13.4102884401"><ele>1775.08</ele><time>2026-03-11T15:17:25Z</time><extensions><gpxtpx:TrackPointExtension><gpxtpx:atemp>3.2</gpxtpx:atemp></gpxtpx:TrackPointExtension></extensions></trkpt><trkpt lat="42.1962767746" lon="13.4102905355"><ele>1775.09</ele><time>2026-03-11T15:17:26Z</time><extensions><gpxtpx:TrackPointExtension><gpxtpx:atemp>3.2</gpxtpx:atemp></gpxtpx:TrackPointExtension></extensions></trkpt><trkpt lat="42.1962769423" lon="13.4102900326"><ele>1775.13</ele><time>2026-03-11T15:17:27Z</time><extensions><gpxtpx:TrackPointExtension><gpxtpx:atemp>3.2</gpxtpx:atemp></gpxtpx:TrackPointExtension></extensions></trkpt><trkpt lat="42.1962764394" lon="13.4102929663"><ele>1775.18</ele><time>2026-03-11T15:17:28Z</time><extensions><gpxtpx:TrackPointExtension><gpxtpx:atemp>3.2</gpxtpx:atemp></gpxtpx:TrackPointExtension></extensions></trkpt><trkpt lat="42.1962765232" lon="13.4102920443"><ele>1775.18</ele><time>2026-03-11T15:17:29Z</time><extensions><gpxtpx:TrackPointExtension><gpxtpx:atemp>3.2</gpxtpx:atemp></gpxtpx:TrackPointExtension></extensions></trkpt><trkpt lat="42.1962766908" lon="13.4102912899"><ele>1775.21</ele><time>2026-03-11T15:17:30Z</time><extensions><gpxtpx:TrackPointExtension><gpxtpx:atemp>3.2</gpxtpx:atemp></gpxtpx:TrackPointExtension></extensions></trkpt><trkpt lat="42.1962794568" lon="13.4102916252"><ele>1775.22</ele><time>2026-03-11T15:17:31Z</time><extensions><gpxtpx:TrackPointExtension><gpxtpx:atemp>3.2</gpxtpx:atemp></gpxtpx:TrackPointExtension></extensions></trkpt><trkpt lat="42.1962809656" lon="13.4102904517"><ele>1775.21</ele><time>2026-03-11T15:17:32Z</time><extensions><gpxtpx:TrackPointExtension><gpxtpx:atemp>3.2</gpxtpx:atemp></gpxtpx:TrackPointExtension></extensions></trkpt><trkpt lat="42.1962787863" lon="13.4102893621"><ele>1775.10</ele><time>2026-03-11T15:17:33Z</time><extensions><gpxtpx:TrackPointExtension><gpxtpx:atemp>3.2</gpxtpx:atemp></gpxtpx:TrackPointExtension></extensions></trkpt><trkpt lat="42.1962790377" lon="13.4102885239"><ele>1775.04</ele><time>2026-03-11T15:17:34Z</time><extensions><gpxtpx:TrackPointExtension><gpxtpx:atemp>2.9</gpxtpx:atemp></gpxtpx:TrackPointExtension></extensions></trkpt><trkpt lat="42.1962786186" lon="13.4102869313"><ele>1774.99</ele><time>2026-03-11T15:17:35Z</time><extensions><gpxtpx:TrackPointExtension><gpxtpx:atemp>2.9</gpxtpx:atemp></gpxtpx:TrackPointExtension></extensions></trkpt><trkpt lat="42.1962779481" lon="13.4102871828"><ele>1774.93</ele><time>2026-03-11T15:17:36Z</time><extensions><gpxtpx:TrackPointExtension><gpxtpx:atemp>2.9</gpxtpx:atemp></gpxtpx:TrackPointExtension></extensions></trkpt><trkpt lat="42.1962767746" lon="13.4102889430"><ele>1774.89</ele><time>2026-03-11T15:17:37Z</time><extensions><gpxtpx:TrackPointExtension><gpxtpx:atemp>2.9</gpxtpx:atemp></gpxtpx:TrackPointExtension></extensions></trkpt><trkpt lat="42.1962759364" lon="13.4102889430"><ele>1774.87</ele><time>2026-03-11T15:17:38Z</time><extensions><gpxtpx:TrackPointExtension><gpxtpx:atemp>2.9</gpxtpx:atemp></gpxtpx:TrackPointExtension></extensions></trkpt><trkpt lat="42.1962761879" lon="13.4102894459"><ele>1774.87</ele><time>2026-03-11T15:17:39Z</time><extensions><gpxtpx:TrackPointExtension><gpxtpx:atemp>2.9</gpxtpx:atemp></gpxtpx:TrackPointExtension></extensions></trkpt><trkpt lat="42.1962740924" lon="13.4102889430"><ele>1774.87</ele><time>2026-03-11T15:17:40Z</time><extensions><gpxtpx:TrackPointExtension><gpxtpx:atemp>2.9</gpxtpx:atemp></gpxtpx:TrackPointExtension></extensions></trkpt><trkpt lat="42.1962737571" lon="13.4102877695"><ele>1774.93</ele><time>2026-03-11T15:17:41Z</time><extensions><gpxtpx:TrackPointExtension><gpxtpx:atemp>2.9</gpxtpx:atemp></gpxtpx:TrackPointExtension></extensions></trkpt><trkpt lat="42.1962737571" lon="13.4102869313"><ele>1774.98</ele><time>2026-03-11T15:17:42Z</time><extensions><gpxtpx:TrackPointExtension><gpxtpx:atemp>2.9</gpxtpx:atemp></gpxtpx:TrackPointExtension></extensions></trkpt><trkpt lat="42.1962721646" lon="13.4102893621"><ele>1775.03</ele><time>2026-03-11T15:17:43Z</time><extensions><gpxtpx:TrackPointExtension><gpxtpx:atemp>2.9</gpxtpx:atemp></gpxtpx:TrackPointExtension></extensions></trkpt><trkpt lat="42.1962721646" lon="13.4102893621"><ele>1775.06</ele><time>2026-03-11T15:17:44Z</time><extensions><gpxtpx:TrackPointExtension><gpxtpx:atemp>2.9</gpxtpx:atemp></gpxtpx:TrackPointExtension></extensions></trkpt><trkpt lat="42.1962720808" lon="13.4102901164"><ele>1775.08</ele><time>2026-03-11T15:17:45Z</time><extensions><gpxtpx:TrackPointExtension><gpxtpx:atemp>2.9</gpxtpx:atemp></gpxtpx:TrackPointExtension></extensions></trkpt><trkpt lat="42.1962722484" lon="13.4102904517"><ele>1775.08</ele><time>2026-03-11T15:17:46Z</time><extensions><gpxtpx:TrackPointExtension><gpxtpx:atemp>2.9</gpxtpx:atemp></gpxtpx:TrackPointExtension></extensions></trkpt><trkpt lat="42.1962719969" lon="13.4102912899"><ele>1775.08</ele><time>2026-03-11T15:17:47Z</time><extensions><gpxtpx:TrackPointExtension><gpxtpx:atemp>2.9</gpxtpx:atemp></gpxtpx:TrackPointExtension></extensions></trkpt><trkpt lat="42.1962713264" lon="13.4102924634"><ele>1775.08</ele><time>2026-03-11T15:17:48Z</time><extensions><gpxtpx:TrackPointExtension><gpxtpx:atemp>2.9</gpxtpx:atemp></gpxtpx:TrackPointExtension></extensions></trkpt><trkpt lat="42.1962715778" lon="13.4102929663"><ele>1775.06</ele><time>2026-03-11T15:17:49Z</time><extensions><gpxtpx:TrackPointExtension><gpxtpx:atemp>2.9</gpxtpx:atemp></gpxtpx:TrackPointExtension></extensions></trkpt><trkpt lat="42.1962714940" lon="13.4102928825"><ele>1775.02</ele><time>2026-03-11T15:17:50Z</time><extensions><gpxtpx:TrackPointExtension><gpxtpx:atemp>2.9</gpxtpx:atemp></gpxtpx:TrackPointExtension></extensions></trkpt><trkpt lat="42.1962716617" lon="13.4102929663"><ele>1774.96</ele><time>2026-03-11T15:17:51Z</time><extensions><gpxtpx:TrackPointExtension><gpxtpx:atemp>2.9</gpxtpx:atemp></gpxtpx:TrackPointExtension></extensions></trkpt><trkpt lat="42.1962718293" lon="13.4102931339"><ele>1774.90</ele><time>2026-03-11T15:17:52Z</time><extensions><gpxtpx:TrackPointExtension><gpxtpx:atemp>2.9</gpxtpx:atemp></gpxtpx:TrackPointExtension></extensions></trkpt><trkpt lat="42.1962723322" lon="13.4102937207"><ele>1774.81</ele><time>2026-03-11T15:17:53Z</time><extensions><gpxtpx:TrackPointExtension><gpxtpx:atemp>2.9</gpxtpx:atemp></gpxtpx:TrackPointExtension></extensions></trkpt><trkpt lat="42.1962727513" lon="13.4102943912"><ele>1774.75</ele><time>2026-03-11T15:17:54Z</time><extensions><gpxtpx:TrackPointExtension><gpxtpx:atemp>2.9</gpxtpx:atemp></gpxtpx:TrackPointExtension></extensions></trkpt><trkpt lat="42.1962733380" lon="13.4102947265"><ele>1774.72</ele><time>2026-03-11T15:17:55Z</time><extensions><gpxtpx:TrackPointExtension><gpxtpx:atemp>2.9</gpxtpx:atemp></gpxtpx:TrackPointExtension></extensions></trkpt><trkpt lat="42.1962739248" lon="13.4102950618"><ele>1774.71</ele><time>2026-03-11T15:17:56Z</time><extensions><gpxtpx:TrackPointExtension><gpxtpx:atemp>2.9</gpxtpx:atemp></gpxtpx:TrackPointExtension></extensions></trkpt><trkpt lat="42.1962747630" lon="13.4102959000"><ele>1774.80</ele><time>2026-03-11T15:17:57Z</time><extensions><gpxtpx:TrackPointExtension><gpxtpx:atemp>2.9</gpxtpx:atemp></gpxtpx:TrackPointExtension></extensions></trkpt><trkpt lat="42.1962754335" lon="13.4102960676"><ele>1774.88</ele><time>2026-03-11T15:17:58Z</time><extensions><gpxtpx:TrackPointExtension><gpxtpx:atemp>2.9</gpxtpx:atemp></gpxtpx:TrackPointExtension></extensions></trkpt><trkpt lat="42.1962750982" lon="13.4102963191"><ele>1774.93</ele><time>2026-03-11T15:17:59Z</time><extensions><gpxtpx:TrackPointExtension><gpxtpx:atemp>2.9</gpxtpx:atemp></gpxtpx:TrackPointExtension></extensions></trkpt><trkpt lat="42.1962752659" lon="13.4102972411"><ele>1774.94</ele><time>2026-03-11T15:18:00Z</time><extensions><gpxtpx:TrackPointExtension><gpxtpx:atemp>2.9</gpxtpx:atemp></gpxtpx:TrackPointExtension></extensions></trkpt><trkpt lat="42.1962752659" lon="13.4102970734"><ele>1774.95</ele><time>2026-03-11T15:18:01Z</time><extensions><gpxtpx:TrackPointExtension><gpxtpx:atemp>2.9</gpxtpx:atemp></gpxtpx:TrackPointExtension></extensions></trkpt><trkpt lat="42.1962747630" lon="13.4102965705"><ele>1774.96</ele><time>2026-03-11T15:18:02Z</time><extensions><gpxtpx:TrackPointExtension><gpxtpx:atemp>2.9</gpxtpx:atemp></gpxtpx:TrackPointExtension></extensions></trkpt><trkpt lat="42.1962746792" lon="13.4102964867"><ele>1774.99</ele><time>2026-03-11T15:18:03Z</time><extensions><gpxtpx:TrackPointExtension><gpxtpx:atemp>2.9</gpxtpx:atemp></gpxtpx:TrackPointExtension></extensions></trkpt><trkpt lat="42.1962732542" lon="13.4102960676"><ele>1775.01</ele><time>2026-03-11T15:18:04Z</time><extensions><gpxtpx:TrackPointExtension><gpxtpx:atemp>2.9</gpxtpx:atemp></gpxtpx:TrackPointExtension></extensions></trkpt><trkpt lat="42.1962740924" lon="13.4102956485"><ele>1775.02</ele><time>2026-03-11T15:18:05Z</time><extensions><gpxtpx:TrackPointExtension><gpxtpx:atemp>2.9</gpxtpx:atemp></gpxtpx:TrackPointExtension></extensions></trkpt><trkpt lat="42.1962745953" lon="13.4102950618"><ele>1775.03</ele><time>2026-03-11T15:18:06Z</time><extensions><gpxtpx:TrackPointExtension><gpxtpx:atemp>2.9</gpxtpx:atemp></gpxtpx:TrackPointExtension></extensions></trkpt><trkpt lat="42.1962744277" lon="13.4102948941"><ele>1775.06</ele><time>2026-03-11T15:18:07Z</time><extensions><gpxtpx:TrackPointExtension><gpxtpx:atemp>2.9</gpxtpx:atemp></gpxtpx:TrackPointExtension></extensions></trkpt><trkpt lat="42.1962763555" lon="13.4102942236"><ele>1775.08</ele><time>2026-03-11T15:18:08Z</time><extensions><gpxtpx:TrackPointExtension><gpxtpx:atemp>2.9</gpxtpx:atemp></gpxtpx:TrackPointExtension></extensions></trkpt><trkpt lat="42.1962775290" lon="13.4102956485"><ele>1775.08</ele><time>2026-03-11T15:18:09Z</time><extensions><gpxtpx:TrackPointExtension><gpxtpx:atemp>2.9</gpxtpx:atemp></gpxtpx:TrackPointExtension></extensions></trkpt><trkpt lat="42.1962791216" lon="13.4102963191"><ele>1775.07</ele><time>2026-03-11T15:18:10Z</time><extensions><gpxtpx:TrackPointExtension><gpxtpx:atemp>2.9</gpxtpx:atemp></gpxtpx:TrackPointExtension></extensions></trkpt><trkpt lat="42.1962794568" lon="13.4102973249"><ele>1775.07</ele><time>2026-03-11T15:18:11Z</time><extensions><gpxtpx:TrackPointExtension><gpxtpx:atemp>2.9</gpxtpx:atemp></gpxtpx:TrackPointExtension></extensions></trkpt><trkpt lat="42.1962793730" lon="13.4102960676"><ele>1775.08</ele><time>2026-03-11T15:18:12Z</time><extensions><gpxtpx:TrackPointExtension><gpxtpx:atemp>2.9</gpxtpx:atemp></gpxtpx:TrackPointExtension></extensions></trkpt><trkpt lat="42.1962786186" lon="13.4103016835"><ele>1775.08</ele><time>2026-03-11T15:18:13Z</time><extensions><gpxtpx:TrackPointExtension><gpxtpx:atemp>2.9</gpxtpx:atemp></gpxtpx:TrackPointExtension></extensions></trkpt><trkpt lat="42.1962793730" lon="13.4103081375"><ele>1775.08</ele><time>2026-03-11T15:18:14Z</time><extensions><gpxtpx:TrackPointExtension><gpxtpx:atemp>2.9</gpxtpx:atemp></gpxtpx:TrackPointExtension></extensions></trkpt><trkpt lat="42.1962830611" lon="13.4103077184"><ele>1775.08</ele><time>2026-03-11T15:18:15Z</time><extensions><gpxtpx:TrackPointExtension><gpxtpx:atemp>2.9</gpxtpx:atemp></gpxtpx:TrackPointExtension></extensions></trkpt><trkpt lat="42.1962871682" lon="13.4103125799"><ele>1775.08</ele><time>2026-03-11T15:18:16Z</time><extensions><gpxtpx:TrackPointExtension><gpxtpx:atemp>2.9</gpxtpx:atemp></gpxtpx:TrackPointExtension></extensions></trkpt><trkpt lat="42.1962915268" lon="13.4103228897"><ele>1775.07</ele><time>2026-03-11T15:18:17Z</time><extensions><gpxtpx:TrackPointExtension><gpxtpx:atemp>2.9</gpxtpx:atemp></gpxtpx:TrackPointExtension></extensions></trkpt><trkpt lat="42.1962958854" lon="13.4103334509"><ele>1774.94</ele><time>2026-03-11T15:18:18Z</time><extensions><gpxtpx:TrackPointExtension><gpxtpx:atemp>2.9</gpxtpx:atemp></gpxtpx:TrackPointExtension></extensions></trkpt><trkpt lat="42.1963051893" lon="13.4103452694"><ele>1774.87</ele><time>2026-03-11T15:18:19Z</time><extensions><gpxtpx:TrackPointExtension><gpxtpx:atemp>2.9</gpxtpx:atemp></gpxtpx:TrackPointExtension></extensions></trkpt><trkpt lat="42.1963127330" lon="13.4103593510"><ele>1774.83</ele><time>2026-03-11T15:18:20Z</time><extensions><gpxtpx:TrackPointExtension><gpxtpx:atemp>2.9</gpxtpx:atemp></gpxtpx:TrackPointExtension></extensions></trkpt><trkpt lat="42.1963215340" lon="13.4103751928"><ele>1774.80</ele><time>2026-03-11T15:18:21Z</time><extensions><gpxtpx:TrackPointExtension><gpxtpx:atemp>2.9</gpxtpx:atemp></gpxtpx:TrackPointExtension></extensions></trkpt><trkpt lat="42.1963236295" lon="13.4103890229"><ele>1774.73</ele><time>2026-03-11T15:18:22Z</time><extensions><gpxtpx:TrackPointExtension><gpxtpx:atemp>2.9</gpxtpx:atemp></gpxtpx:TrackPointExtension></extensions></trkpt><trkpt lat="42.1963267308" lon="13.4104007576"><ele>1774.66</ele><time>2026-03-11T15:18:23Z</time><extensions><gpxtpx:TrackPointExtension><gpxtpx:atemp>2.9</gpxtpx:atemp></gpxtpx:TrackPointExtension></extensions></trkpt><trkpt lat="42.1963315923" lon="13.4104117379"><ele>1774.59</ele><time>2026-03-11T15:18:24Z</time><extensions><gpxtpx:TrackPointExtension><gpxtpx:atemp>2.9</gpxtpx:atemp></gpxtpx:TrackPointExtension></extensions></trkpt><trkpt lat="42.1963356994" lon="13.4104234725"><ele>1774.50</ele><time>2026-03-11T15:18:25Z</time><extensions><gpxtpx:TrackPointExtension><gpxtpx:atemp>2.9</gpxtpx:atemp></gpxtpx:TrackPointExtension></extensions></trkpt><trkpt lat="42.1963357832" lon="13.4104360454"><ele>1774.44</ele><time>2026-03-11T15:18:26Z</time><extensions><gpxtpx:TrackPointExtension><gpxtpx:atemp>2.9</gpxtpx:atemp></gpxtpx:TrackPointExtension></extensions></trkpt><trkpt lat="42.1963414829" lon="13.4104515519"><ele>1774.40</ele><time>2026-03-11T15:18:27Z</time><extensions><gpxtpx:TrackPointExtension><gpxtpx:atemp>2.9</gpxtpx:atemp></gpxtpx:TrackPointExtension></extensions></trkpt><trkpt lat="42.1963416506" lon="13.4104643762"><ele>1774.36</ele><time>2026-03-11T15:18:28Z</time><extensions><gpxtpx:TrackPointExtension><gpxtpx:atemp>2.9</gpxtpx:atemp></gpxtpx:TrackPointExtension></extensions></trkpt><trkpt lat="42.1963451710" lon="13.4104744345"><ele>1774.34</ele><time>2026-03-11T15:18:29Z</time><extensions><gpxtpx:TrackPointExtension><gpxtpx:atemp>2.9</gpxtpx:atemp></gpxtpx:TrackPointExtension></extensions></trkpt><trkpt lat="42.1963504516" lon="13.4104936291"><ele>1774.31</ele><time>2026-03-11T15:18:30Z</time><extensions><gpxtpx:TrackPointExtension><gpxtpx:atemp>2.9</gpxtpx:atemp></gpxtpx:TrackPointExtension></extensions></trkpt><trkpt lat="42.1963545587" lon="13.4105143324"><ele>1774.26</ele><time>2026-03-11T15:18:31Z</time><extensions><gpxtpx:TrackPointExtension><gpxtpx:atemp>2.9</gpxtpx:atemp></gpxtpx:TrackPointExtension></extensions></trkpt><trkpt lat="42.1963574924" lon="13.4105347842"><ele>1774.22</ele><time>2026-03-11T15:18:32Z</time><extensions><gpxtpx:TrackPointExtension><gpxtpx:atemp>2.9</gpxtpx:atemp></gpxtpx:TrackPointExtension></extensions></trkpt><trkpt lat="42.1963628568" lon="13.4105551522"><ele>1774.17</ele><time>2026-03-11T15:18:33Z</time><extensions><gpxtpx:TrackPointExtension><gpxtpx:atemp>2.9</gpxtpx:atemp></gpxtpx:TrackPointExtension></extensions></trkpt><trkpt lat="42.1963668801" lon="13.4105733410"><ele>1774.12</ele><time>2026-03-11T15:18:34Z</time><extensions><gpxtpx:TrackPointExtension><gpxtpx:atemp>2.5</gpxtpx:atemp></gpxtpx:TrackPointExtension></extensions></trkpt><trkpt lat="42.1963707358" lon="13.4105910268"><ele>1774.06</ele><time>2026-03-11T15:18:35Z</time><extensions><gpxtpx:TrackPointExtension><gpxtpx:atemp>2.5</gpxtpx:atemp></gpxtpx:TrackPointExtension></extensions></trkpt><trkpt lat="42.1963711549" lon="13.4106101375"><ele>1773.97</ele><time>2026-03-11T15:18:36Z</time><extensions><gpxtpx:TrackPointExtension><gpxtpx:atemp>2.5</gpxtpx:atemp></gpxtpx:TrackPointExtension></extensions></trkpt><trkpt lat="42.1963734180" lon="13.4106263984"><ele>1773.90</ele><time>2026-03-11T15:18:37Z</time><extensions><gpxtpx:TrackPointExtension><gpxtpx:atemp>2.5</gpxtpx:atemp></gpxtpx:TrackPointExtension></extensions></trkpt><trkpt lat="42.1963727474" lon="13.4106428269"><ele>1773.84</ele><time>2026-03-11T15:18:38Z</time><extensions><gpxtpx:TrackPointExtension><gpxtpx:atemp>2.5</gpxtpx:atemp></gpxtpx:TrackPointExtension></extensions></trkpt><trkpt lat="42.1963748429" lon="13.4106640331"><ele>1773.81</ele><time>2026-03-11T15:18:39Z</time><extensions><gpxtpx:TrackPointExtension><gpxtpx:atemp>2.5</gpxtpx:atemp></gpxtpx:TrackPointExtension></extensions></trkpt><trkpt lat="42.1963743400" lon="13.4106807970"><ele>1773.76</ele><time>2026-03-11T15:18:40Z</time><extensions><gpxtpx:TrackPointExtension><gpxtpx:atemp>2.5</gpxtpx:atemp></gpxtpx:TrackPointExtension></extensions></trkpt><trkpt lat="42.1963760164" lon="13.4106975608"><ele>1773.73</ele><time>2026-03-11T15:18:41Z</time><extensions><gpxtpx:TrackPointExtension><gpxtpx:atemp>2.5</gpxtpx:atemp></gpxtpx:TrackPointExtension></extensions></trkpt><trkpt lat="42.1963777766" lon="13.4107211977"><ele>1773.66</ele><time>2026-03-11T15:18:42Z</time><extensions><gpxtpx:TrackPointExtension><gpxtpx:atemp>2.5</gpxtpx:atemp></gpxtpx:TrackPointExtension></extensions></trkpt><trkpt lat="42.1963792853" lon="13.4107408952"><ele>1773.65</ele><time>2026-03-11T15:18:43Z</time><extensions><gpxtpx:TrackPointExtension><gpxtpx:atemp>2.5</gpxtpx:atemp></gpxtpx:TrackPointExtension></extensions></trkpt><trkpt lat="42.1963799559" lon="13.4107619338"><ele>1773.62</ele><time>2026-03-11T15:18:44Z</time><extensions><gpxtpx:TrackPointExtension><gpxtpx:atemp>2.5</gpxtpx:atemp></gpxtpx:TrackPointExtension></extensions></trkpt><trkpt lat="42.1963830572" lon="13.4107775241"><ele>1773.56</ele><time>2026-03-11T15:18:45Z</time><extensions><gpxtpx:TrackPointExtension><gpxtpx:atemp>2.5</gpxtpx:atemp></gpxtpx:TrackPointExtension></extensions></trkpt><trkpt lat="42.1963858232" lon="13.4108023345"><ele>1773.50</ele><time>2026-03-11T15:18:46Z</time><extensions><gpxtpx:TrackPointExtension><gpxtpx:atemp>2.5</gpxtpx:atemp></gpxtpx:TrackPointExtension></extensions></trkpt><trkpt lat="42.1963856556" lon="13.4108171705"><ele>1773.43</ele><time>2026-03-11T15:18:47Z</time><extensions><gpxtpx:TrackPointExtension><gpxtpx:atemp>2.5</gpxtpx:atemp></gpxtpx:TrackPointExtension></extensions></trkpt><trkpt lat="42.1963871643" lon="13.4108353592"><ele>1773.38</ele><time>2026-03-11T15:18:48Z</time><extensions><gpxtpx:TrackPointExtension><gpxtpx:atemp>2.5</gpxtpx:atemp></gpxtpx:TrackPointExtension></extensions></trkpt><trkpt lat="42.1963866614" lon="13.4108476806"><ele>1773.33</ele><time>2026-03-11T15:18:49Z</time><extensions><gpxtpx:TrackPointExtension><gpxtpx:atemp>2.5</gpxtpx:atemp></gpxtpx:TrackPointExtension></extensions></trkpt><trkpt lat="42.1963886730" lon="13.4108683839"><ele>1773.27</ele><time>2026-03-11T15:18:50Z</time><extensions><gpxtpx:TrackPointExtension><gpxtpx:atemp>2.5</gpxtpx:atemp></gpxtpx:TrackPointExtension></extensions></trkpt><trkpt lat="42.1963925287" lon="13.4108873270"><ele>1773.25</ele><time>2026-03-11T15:18:51Z</time><extensions><gpxtpx:TrackPointExtension><gpxtpx:atemp>2.5</gpxtpx:atemp></gpxtpx:TrackPointExtension></extensions></trkpt><trkpt lat="42.1963931993" lon="13.4109067731"><ele>1773.23</ele><time>2026-03-11T15:18:52Z</time><extensions><gpxtpx:TrackPointExtension><gpxtpx:atemp>2.5</gpxtpx:atemp></gpxtpx:TrackPointExtension></extensions></trkpt><trkpt lat="42.1963943727" lon="13.4109268896"><ele>1773.18</ele><time>2026-03-11T15:18:53Z</time><extensions><gpxtpx:TrackPointExtension><gpxtpx:atemp>2.5</gpxtpx:atemp></gpxtpx:TrackPointExtension></extensions></trkpt><trkpt lat="42.1963958815" lon="13.4109476767"><ele>1773.00</ele><time>2026-03-11T15:18:54Z</time><extensions><gpxtpx:TrackPointExtension><gpxtpx:atemp>2.5</gpxtpx:atemp></gpxtpx:TrackPointExtension></extensions></trkpt><trkpt lat="42.1963967197" lon="13.4109652787"><ele>1772.91</ele><time>2026-03-11T15:18:55Z</time><extensions><gpxtpx:TrackPointExtension><gpxtpx:atemp>2.5</gpxtpx:atemp></gpxtpx:TrackPointExtension></extensions></trkpt><trkpt lat="42.1963972226" lon="13.4109812882"><ele>1772.85</ele><time>2026-03-11T15:18:56Z</time><extensions><gpxtpx:TrackPointExtension><gpxtpx:atemp>2.5</gpxtpx:atemp></gpxtpx:TrackPointExtension></extensions></trkpt><trkpt lat="42.1963983960" lon="13.4109992255"><ele>1772.81</ele><time>2026-03-11T15:18:57Z</time><extensions><gpxtpx:TrackPointExtension><gpxtpx:atemp>2.5</gpxtpx:atemp></gpxtpx:TrackPointExtension></extensions></trkpt><trkpt lat="42.1964004915" lon="13.4110177495"><ele>1772.77</ele><time>2026-03-11T15:18:58Z</time><extensions><gpxtpx:TrackPointExtension><gpxtpx:atemp>2.5</gpxtpx:atemp></gpxtpx:TrackPointExtension></extensions></trkpt><trkpt lat="42.1964027546" lon="13.4110351000"><ele>1772.76</ele><time>2026-03-11T15:18:59Z</time><extensions><gpxtpx:TrackPointExtension><gpxtpx:atemp>2.5</gpxtpx:atemp></gpxtpx:TrackPointExtension></extensions></trkpt><trkpt lat="42.1964037605" lon="13.4110501874"><ele>1772.76</ele><time>2026-03-11T15:19:00Z</time><extensions><gpxtpx:TrackPointExtension><gpxtpx:atemp>2.5</gpxtpx:atemp></gpxtpx:TrackPointExtension></extensions></trkpt><trkpt lat="42.1964044310" lon="13.4110650234"><ele>1772.76</ele><time>2026-03-11T15:19:01Z</time><extensions><gpxtpx:TrackPointExtension><gpxtpx:atemp>2.5</gpxtpx:atemp></gpxtpx:TrackPointExtension></extensions></trkpt><trkpt lat="42.1964051854" lon="13.4110806976"><ele>1772.76</ele><time>2026-03-11T15:19:02Z</time><extensions><gpxtpx:TrackPointExtension><gpxtpx:atemp>2.5</gpxtpx:atemp></gpxtpx:TrackPointExtension></extensions></trkpt><trkpt lat="42.1964065265" lon="13.4110974614"><ele>1772.71</ele><time>2026-03-11T15:19:03Z</time><extensions><gpxtpx:TrackPointExtension><gpxtpx:atemp>2.5</gpxtpx:atemp></gpxtpx:TrackPointExtension></extensions></trkpt><trkpt lat="42.1964077000" lon="13.4111129679"><ele>1772.65</ele><time>2026-03-11T15:19:04Z</time><extensions><gpxtpx:TrackPointExtension><gpxtpx:atemp>2.5</gpxtpx:atemp></gpxtpx:TrackPointExtension></extensions></trkpt><trkpt lat="42.1964086220" lon="13.4111287259"><ele>1772.59</ele><time>2026-03-11T15:19:05Z</time><extensions><gpxtpx:TrackPointExtension><gpxtpx:atemp>2.5</gpxtpx:atemp></gpxtpx:TrackPointExtension></extensions></trkpt><trkpt lat="42.1964088734" lon="13.4111401252"><ele>1772.56</ele><time>2026-03-11T15:19:06Z</time><extensions><gpxtpx:TrackPointExtension><gpxtpx:atemp>2.5</gpxtpx:atemp></gpxtpx:TrackPointExtension></extensions></trkpt><trkpt lat="42.1964129806" lon="13.4111507703"><ele>1772.54</ele><time>2026-03-11T15:19:07Z</time><extensions><gpxtpx:TrackPointExtension><gpxtpx:atemp>2.5</gpxtpx:atemp></gpxtpx:TrackPointExtension></extensions></trkpt><trkpt lat="42.1964148246" lon="13.4111631755"><ele>1772.54</ele><time>2026-03-11T15:19:08Z</time><extensions><gpxtpx:TrackPointExtension><gpxtpx:atemp>2.5</gpxtpx:atemp></gpxtpx:TrackPointExtension></extensions></trkpt><trkpt lat="42.1964172553" lon="13.4111766703"><ele>1772.55</ele><time>2026-03-11T15:19:09Z</time><extensions><gpxtpx:TrackPointExtension><gpxtpx:atemp>2.5</gpxtpx:atemp></gpxtpx:TrackPointExtension></extensions></trkpt><trkpt lat="42.1964216977" lon="13.4111942723"><ele>1772.56</ele><time>2026-03-11T15:19:10Z</time><extensions><gpxtpx:TrackPointExtension><gpxtpx:atemp>2.5</gpxtpx:atemp></gpxtpx:TrackPointExtension></extensions></trkpt><trkpt lat="42.1964235418" lon="13.4112091921"><ele>1772.55</ele><time>2026-03-11T15:19:11Z</time><extensions><gpxtpx:TrackPointExtension><gpxtpx:atemp>2.5</gpxtpx:atemp></gpxtpx:TrackPointExtension></extensions></trkpt><trkpt lat="42.1964285709" lon="13.4112284705"><ele>1772.50</ele><time>2026-03-11T15:19:12Z</time><extensions><gpxtpx:TrackPointExtension><gpxtpx:atemp>2.5</gpxtpx:atemp></gpxtpx:TrackPointExtension></extensions></trkpt><trkpt lat="42.1964313369" lon="13.4112457372"><ele>1772.48</ele><time>2026-03-11T15:19:13Z</time><extensions><gpxtpx:TrackPointExtension><gpxtpx:atemp>2.5</gpxtpx:atemp></gpxtpx:TrackPointExtension></extensions></trkpt><trkpt lat="42.1964334324" lon="13.4112573881"><ele>1772.43</ele><time>2026-03-11T15:19:14Z</time><extensions><gpxtpx:TrackPointExtension><gpxtpx:atemp>2.5</gpxtpx:atemp></gpxtpx:TrackPointExtension></extensions></trkpt><trkpt lat="42.1964372881" lon="13.4112744872"><ele>1772.38</ele><time>2026-03-11T15:19:15Z</time><extensions><gpxtpx:TrackPointExtension><gpxtpx:atemp>2.5</gpxtpx:atemp></gpxtpx:TrackPointExtension></extensions></trkpt><trkpt lat="42.1964433230" lon="13.4112970345"><ele>1772.33</ele><time>2026-03-11T15:19:16Z</time><extensions><gpxtpx:TrackPointExtension><gpxtpx:atemp>2.5</gpxtpx:atemp></gpxtpx:TrackPointExtension></extensions></trkpt><trkpt lat="42.1964461729" lon="13.4113168996"><ele>1772.22</ele><time>2026-03-11T15:19:17Z</time><extensions><gpxtpx:TrackPointExtension><gpxtpx:atemp>2.5</gpxtpx:atemp></gpxtpx:TrackPointExtension></extensions></trkpt><trkpt lat="42.1964510344" lon="13.4113375191"><ele>1772.15</ele><time>2026-03-11T15:19:18Z</time><extensions><gpxtpx:TrackPointExtension><gpxtpx:atemp>2.5</gpxtpx:atemp></gpxtpx:TrackPointExtension></extensions></trkpt><trkpt lat="42.1964569855" lon="13.4113499243"><ele>1772.08</ele><time>2026-03-11T15:19:19Z</time><extensions><gpxtpx:TrackPointExtension><gpxtpx:atemp>2.5</gpxtpx:atemp></gpxtpx:TrackPointExtension></extensions></trkpt><trkpt lat="42.1964600869" lon="13.4113673586"><ele>1772.02</ele><time>2026-03-11T15:19:20Z</time><extensions><gpxtpx:TrackPointExtension><gpxtpx:atemp>2.5</gpxtpx:atemp></gpxtpx:TrackPointExtension></extensions></trkpt><trkpt lat="42.1964635234" lon="13.4113815241"><ele>1771.96</ele><time>2026-03-11T15:19:21Z</time><extensions><gpxtpx:TrackPointExtension><gpxtpx:atemp>2.5</gpxtpx:atemp></gpxtpx:TrackPointExtension></extensions></trkpt><trkpt lat="42.1964679658" lon="13.4113975335"><ele>1771.87</ele><time>2026-03-11T15:19:22Z</time><extensions><gpxtpx:TrackPointExtension><gpxtpx:atemp>2.5</gpxtpx:atemp></gpxtpx:TrackPointExtension></extensions></trkpt><trkpt lat="42.1964713186" lon="13.4114125371"><ele>1771.78</ele><time>2026-03-11T15:19:23Z</time><extensions><gpxtpx:TrackPointExtension><gpxtpx:atemp>2.5</gpxtpx:atemp></gpxtpx:TrackPointExtension></extensions></trkpt><trkpt lat="42.1964741684" lon="13.4114279598"><ele>1771.70</ele><time>2026-03-11T15:19:24Z</time><extensions><gpxtpx:TrackPointExtension><gpxtpx:atemp>2.5</gpxtpx:atemp></gpxtpx:TrackPointExtension></extensions></trkpt><trkpt lat="42.1964793652" lon="13.4114477411"><ele>1771.66</ele><time>2026-03-11T15:19:25Z</time><extensions><gpxtpx:TrackPointExtension><gpxtpx:atemp>2.5</gpxtpx:atemp></gpxtpx:TrackPointExtension></extensions></trkpt><trkpt lat="42.1964856517" lon="13.4114646725"><ele>1771.60</ele><time>2026-03-11T15:19:26Z</time><extensions><gpxtpx:TrackPointExtension><gpxtpx:atemp>2.5</gpxtpx:atemp></gpxtpx:TrackPointExtension></extensions></trkpt><trkpt lat="42.1964931954" lon="13.4114827774"><ele>1771.56</ele><time>2026-03-11T15:19:27Z</time><extensions><gpxtpx:TrackPointExtension><gpxtpx:atemp>2.5</gpxtpx:atemp></gpxtpx:TrackPointExtension></extensions></trkpt><trkpt lat="42.1965000685" lon="13.4115009662"><ele>1771.45</ele><time>2026-03-11T15:19:28Z</time><extensions><gpxtpx:TrackPointExtension><gpxtpx:atemp>2.5</gpxtpx:atemp></gpxtpx:TrackPointExtension></extensions></trkpt><trkpt lat="42.1965081990" lon="13.4115159698"><ele>1771.39</ele><time>2026-03-11T15:19:29Z</time><extensions><gpxtpx:TrackPointExtension><gpxtpx:atemp>2.5</gpxtpx:atemp></gpxtpx:TrackPointExtension></extensions></trkpt><trkpt lat="42.1965149883" lon="13.4115322307"><ele>1771.34</ele><time>2026-03-11T15:19:30Z</time><extensions><gpxtpx:TrackPointExtension><gpxtpx:atemp>2.5</gpxtpx:atemp></gpxtpx:TrackPointExtension></extensions></trkpt><trkpt lat="42.1965221968" lon="13.4115468990"><ele>1771.31</ele><time>2026-03-11T15:19:31Z</time><extensions><gpxtpx:TrackPointExtension><gpxtpx:atemp>2.5</gpxtpx:atemp></gpxtpx:TrackPointExtension></extensions></trkpt><trkpt lat="42.1965297405" lon="13.4115570411"><ele>1771.29</ele><time>2026-03-11T15:19:32Z</time><extensions><gpxtpx:TrackPointExtension><gpxtpx:atemp>2.5</gpxtpx:atemp></gpxtpx:TrackPointExtension></extensions></trkpt><trkpt lat="42.1965355240" lon="13.4115707874"><ele>1771.25</ele><time>2026-03-11T15:19:33Z</time><extensions><gpxtpx:TrackPointExtension><gpxtpx:atemp>2.5</gpxtpx:atemp></gpxtpx:TrackPointExtension></extensions></trkpt><trkpt lat="42.1965424810" lon="13.4115828574"><ele>1771.23</ele><time>2026-03-11T15:19:34Z</time><extensions><gpxtpx:TrackPointExtension><gpxtpx:atemp>2.5</gpxtpx:atemp></gpxtpx:TrackPointExtension></extensions></trkpt><trkpt lat="42.1965499409" lon="13.4115964361"><ele>1771.21</ele><time>2026-03-11T15:19:35Z</time><extensions><gpxtpx:TrackPointExtension><gpxtpx:atemp>2.5</gpxtpx:atemp></gpxtpx:TrackPointExtension></extensions></trkpt><trkpt lat="42.1965586580" lon="13.4116093442"><ele>1771.19</ele><time>2026-03-11T15:19:36Z</time><extensions><gpxtpx:TrackPointExtension><gpxtpx:atemp>2.5</gpxtpx:atemp></gpxtpx:TrackPointExtension></extensions></trkpt><trkpt lat="42.1965671238" lon="13.4116236772"><ele>1771.18</ele><time>2026-03-11T15:19:37Z</time><extensions><gpxtpx:TrackPointExtension><gpxtpx:atemp>2.5</gpxtpx:atemp></gpxtpx:TrackPointExtension></extensions></trkpt><trkpt lat="42.1965728234" lon="13.4116379265"><ele>1771.18</ele><time>2026-03-11T15:19:38Z</time><extensions><gpxtpx:TrackPointExtension><gpxtpx:atemp>2.5</gpxtpx:atemp></gpxtpx:TrackPointExtension></extensions></trkpt><trkpt lat="42.1965791937" lon="13.4116538521"><ele>1771.14</ele><time>2026-03-11T15:19:39Z</time><extensions><gpxtpx:TrackPointExtension><gpxtpx:atemp>2.5</gpxtpx:atemp></gpxtpx:TrackPointExtension></extensions></trkpt><trkpt lat="42.1965824626" lon="13.4116664249"><ele>1771.06</ele><time>2026-03-11T15:19:40Z</time><extensions><gpxtpx:TrackPointExtension><gpxtpx:atemp>2.5</gpxtpx:atemp></gpxtpx:TrackPointExtension></extensions></trkpt><trkpt lat="42.1965872403" lon="13.4116772376"><ele>1771.04</ele><time>2026-03-11T15:19:41Z</time><extensions><gpxtpx:TrackPointExtension><gpxtpx:atemp>2.5</gpxtpx:atemp></gpxtpx:TrackPointExtension></extensions></trkpt><trkpt lat="42.1965922695" lon="13.4116896428"><ele>1771.01</ele><time>2026-03-11T15:19:42Z</time><extensions><gpxtpx:TrackPointExtension><gpxtpx:atemp>2.5</gpxtpx:atemp></gpxtpx:TrackPointExtension></extensions></trkpt><trkpt lat="42.1965971310" lon="13.4116993658"><ele>1770.97</ele><time>2026-03-11T15:19:43Z</time><extensions><gpxtpx:TrackPointExtension><gpxtpx:atemp>2.5</gpxtpx:atemp></gpxtpx:TrackPointExtension></extensions></trkpt><trkpt lat="42.1966009866" lon="13.4117097594"><ele>1770.95</ele><time>2026-03-11T15:19:44Z</time><extensions><gpxtpx:TrackPointExtension><gpxtpx:atemp>2.5</gpxtpx:atemp></gpxtpx:TrackPointExtension></extensions></trkpt><trkpt lat="42.1966051776" lon="13.4117191471"><ele>1770.93</ele><time>2026-03-11T15:19:45Z</time><extensions><gpxtpx:TrackPointExtension><gpxtpx:atemp>2.5</gpxtpx:atemp></gpxtpx:TrackPointExtension></extensions></trkpt><trkpt lat="42.1966097876" lon="13.4117283672"><ele>1770.90</ele><time>2026-03-11T15:19:46Z</time><extensions><gpxtpx:TrackPointExtension><gpxtpx:atemp>2.5</gpxtpx:atemp></gpxtpx:TrackPointExtension></extensions></trkpt><trkpt lat="42.1966117993" lon="13.4117365815"><ele>1770.86</ele><time>2026-03-11T15:19:47Z</time><extensions><gpxtpx:TrackPointExtension><gpxtpx:atemp>2.5</gpxtpx:atemp></gpxtpx:TrackPointExtension></extensions></trkpt><trkpt lat="42.1966152359" lon="13.4117469750"><ele>1770.80</ele><time>2026-03-11T15:19:48Z</time><extensions><gpxtpx:TrackPointExtension><gpxtpx:atemp>2.5</gpxtpx:atemp></gpxtpx:TrackPointExtension></extensions></trkpt><trkpt lat="42.1966177505" lon="13.4117567819"><ele>1770.76</ele><time>2026-03-11T15:19:49Z</time><extensions><gpxtpx:TrackPointExtension><gpxtpx:atemp>2.5</gpxtpx:atemp></gpxtpx:TrackPointExtension></extensions></trkpt><trkpt lat="42.1966228634" lon="13.4117670916"><ele>1770.73</ele><time>2026-03-11T15:19:50Z</time><extensions><gpxtpx:TrackPointExtension><gpxtpx:atemp>2.5</gpxtpx:atemp></gpxtpx:TrackPointExtension></extensions></trkpt><trkpt lat="42.1966279764" lon="13.4117764793"><ele>1770.71</ele><time>2026-03-11T15:19:51Z</time><extensions><gpxtpx:TrackPointExtension><gpxtpx:atemp>2.5</gpxtpx:atemp></gpxtpx:TrackPointExtension></extensions></trkpt><trkpt lat="42.1966312453" lon="13.4117887169"><ele>1770.70</ele><time>2026-03-11T15:19:52Z</time><extensions><gpxtpx:TrackPointExtension><gpxtpx:atemp>2.5</gpxtpx:atemp></gpxtpx:TrackPointExtension></extensions></trkpt><trkpt lat="42.1966377832" lon="13.4118003678"><ele>1770.70</ele><time>2026-03-11T15:19:53Z</time><extensions><gpxtpx:TrackPointExtension><gpxtpx:atemp>2.5</gpxtpx:atemp></gpxtpx:TrackPointExtension></extensions></trkpt><trkpt lat="42.1966430638" lon="13.4118133597"><ele>1770.67</ele><time>2026-03-11T15:19:54Z</time><extensions><gpxtpx:TrackPointExtension><gpxtpx:atemp>2.5</gpxtpx:atemp></gpxtpx:TrackPointExtension></extensions></trkpt><trkpt lat="42.1966501884" lon="13.4118276928"><ele>1770.65</ele><time>2026-03-11T15:19:55Z</time><extensions><gpxtpx:TrackPointExtension><gpxtpx:atemp>2.5</gpxtpx:atemp></gpxtpx:TrackPointExtension></extensions></trkpt><trkpt lat="42.1966531221" lon="13.4118411876"><ele>1770.60</ele><time>2026-03-11T15:19:56Z</time><extensions><gpxtpx:TrackPointExtension><gpxtpx:atemp>2.5</gpxtpx:atemp></gpxtpx:TrackPointExtension></extensions></trkpt><trkpt lat="42.1966532897" lon="13.4118506592"><ele>1770.54</ele><time>2026-03-11T15:19:57Z</time><extensions><gpxtpx:TrackPointExtension><gpxtpx:atemp>2.5</gpxtpx:atemp></gpxtpx:TrackPointExtension></extensions></trkpt><trkpt lat="42.1966579836" lon="13.4118604660"><ele>1770.49</ele><time>2026-03-11T15:19:58Z</time><extensions><gpxtpx:TrackPointExtension><gpxtpx:atemp>2.5</gpxtpx:atemp></gpxtpx:TrackPointExtension></extensions></trkpt><trkpt lat="42.1966636833" lon="13.4118681774"><ele>1770.47</ele><time>2026-03-11T15:19:59Z</time><extensions><gpxtpx:TrackPointExtension><gpxtpx:atemp>2.5</gpxtpx:atemp></gpxtpx:TrackPointExtension></extensions></trkpt><trkpt lat="42.1966662817" lon="13.4118749667"><ele>1770.44</ele><time>2026-03-11T15:20:00Z</time><extensions><gpxtpx:TrackPointExtension><gpxtpx:atemp>2.5</gpxtpx:atemp></gpxtpx:TrackPointExtension></extensions></trkpt><trkpt lat="42.1966684610" lon="13.4118838515"><ele>1770.41</ele><time>2026-03-11T15:20:01Z</time><extensions><gpxtpx:TrackPointExtension><gpxtpx:atemp>2.5</gpxtpx:atemp></gpxtpx:TrackPointExtension></extensions></trkpt><trkpt lat="42.1966699697" lon="13.4118908923"><ele>1770.39</ele><time>2026-03-11T15:20:02Z</time><extensions><gpxtpx:TrackPointExtension><gpxtpx:atemp>2.5</gpxtpx:atemp></gpxtpx:TrackPointExtension></extensions></trkpt><trkpt lat="42.1966736577" lon="13.4118991904"><ele>1770.38</ele><time>2026-03-11T15:20:03Z</time><extensions><gpxtpx:TrackPointExtension><gpxtpx:atemp>2.5</gpxtpx:atemp></gpxtpx:TrackPointExtension></extensions></trkpt><trkpt lat="42.1966777649" lon="13.4119075723"><ele>1770.38</ele><time>2026-03-11T15:20:04Z</time><extensions><gpxtpx:TrackPointExtension><gpxtpx:atemp>2.5</gpxtpx:atemp></gpxtpx:TrackPointExtension></extensions></trkpt><trkpt lat="42.1966787707" lon="13.4119163733"><ele>1770.35</ele><time>2026-03-11T15:20:05Z</time><extensions><gpxtpx:TrackPointExtension><gpxtpx:atemp>2.5</gpxtpx:atemp></gpxtpx:TrackPointExtension></extensions></trkpt><trkpt lat="42.1966796927" lon="13.4119217377"><ele>1770.34</ele><time>2026-03-11T15:20:06Z</time><extensions><gpxtpx:TrackPointExtension><gpxtpx:atemp>2.5</gpxtpx:atemp></gpxtpx:TrackPointExtension></extensions></trkpt><trkpt lat="42.1966824587" lon="13.4119315445"><ele>1770.34</ele><time>2026-03-11T15:20:07Z</time><extensions><gpxtpx:TrackPointExtension><gpxtpx:atemp>2.5</gpxtpx:atemp></gpxtpx:TrackPointExtension></extensions></trkpt><trkpt lat="42.1966844704" lon="13.4119398426"><ele>1770.33</ele><time>2026-03-11T15:20:08Z</time><extensions><gpxtpx:TrackPointExtension><gpxtpx:atemp>2.5</gpxtpx:atemp></gpxtpx:TrackPointExtension></extensions></trkpt><trkpt lat="42.1966857277" lon="13.4119518287"><ele>1770.32</ele><time>2026-03-11T15:20:09Z</time><extensions><gpxtpx:TrackPointExtension><gpxtpx:atemp>2.5</gpxtpx:atemp></gpxtpx:TrackPointExtension></extensions></trkpt><trkpt lat="42.1966896672" lon="13.4119636472"><ele>1770.27</ele><time>2026-03-11T15:20:10Z</time><extensions><gpxtpx:TrackPointExtension><gpxtpx:atemp>2.5</gpxtpx:atemp></gpxtpx:TrackPointExtension></extensions></trkpt><trkpt lat="42.1966928523" lon="13.4119734541"><ele>1770.28</ele><time>2026-03-11T15:20:11Z</time><extensions><gpxtpx:TrackPointExtension><gpxtpx:atemp>2.5</gpxtpx:atemp></gpxtpx:TrackPointExtension></extensions></trkpt><trkpt lat="42.1966936905" lon="13.4119819198"><ele>1770.28</ele><time>2026-03-11T15:20:12Z</time><extensions><gpxtpx:TrackPointExtension><gpxtpx:atemp>2.5</gpxtpx:atemp></gpxtpx:TrackPointExtension></extensions></trkpt><trkpt lat="42.1966935229" lon="13.4119880386"><ele>1770.28</ele><time>2026-03-11T15:20:13Z</time><extensions><gpxtpx:TrackPointExtension><gpxtpx:atemp>2.5</gpxtpx:atemp></gpxtpx:TrackPointExtension></extensions></trkpt><trkpt lat="42.1966936905" lon="13.4119973425"><ele>1770.28</ele><time>2026-03-11T15:20:14Z</time><extensions><gpxtpx:TrackPointExtension><gpxtpx:atemp>2.5</gpxtpx:atemp></gpxtpx:TrackPointExtension></extensions></trkpt><trkpt lat="42.1966922656" lon="13.4120048862"><ele>1770.28</ele><time>2026-03-11T15:20:15Z</time><extensions><gpxtpx:TrackPointExtension><gpxtpx:atemp>2.5</gpxtpx:atemp></gpxtpx:TrackPointExtension></extensions></trkpt><trkpt lat="42.1966952831" lon="13.4120157827"><ele>1770.32</ele><time>2026-03-11T15:20:16Z</time><extensions><gpxtpx:TrackPointExtension><gpxtpx:atemp>2.5</gpxtpx:atemp></gpxtpx:TrackPointExtension></extensions></trkpt><trkpt lat="42.1966973785" lon="13.4120259248"><ele>1770.34</ele><time>2026-03-11T15:20:17Z</time><extensions><gpxtpx:TrackPointExtension><gpxtpx:atemp>2.5</gpxtpx:atemp></gpxtpx:TrackPointExtension></extensions></trkpt><trkpt lat="42.1966991387" lon="13.4120336361"><ele>1770.34</ele><time>2026-03-11T15:20:18Z</time><extensions><gpxtpx:TrackPointExtension><gpxtpx:atemp>2.5</gpxtpx:atemp></gpxtpx:TrackPointExtension></extensions></trkpt><trkpt lat="42.1966985520" lon="13.4120424371"><ele>1770.34</ele><time>2026-03-11T15:20:19Z</time><extensions><gpxtpx:TrackPointExtension><gpxtpx:atemp>2.5</gpxtpx:atemp></gpxtpx:TrackPointExtension></extensions></trkpt><trkpt lat="42.1966996416" lon="13.4120513219"><ele>1770.34</ele><time>2026-03-11T15:20:20Z</time><extensions><gpxtpx:TrackPointExtension><gpxtpx:atemp>2.5</gpxtpx:atemp></gpxtpx:TrackPointExtension></extensions></trkpt><trkpt lat="42.1967022400" lon="13.4120616317"><ele>1770.34</ele><time>2026-03-11T15:20:21Z</time><extensions><gpxtpx:TrackPointExtension><gpxtpx:atemp>2.5</gpxtpx:atemp></gpxtpx:TrackPointExtension></extensions></trkpt><trkpt lat="42.1967014857" lon="13.4120713547"><ele>1770.31</ele><time>2026-03-11T15:20:22Z</time><extensions><gpxtpx:TrackPointExtension><gpxtpx:atemp>2.5</gpxtpx:atemp></gpxtpx:TrackPointExtension></extensions></trkpt><trkpt lat="42.1967028268" lon="13.4120800719"><ele>1770.25</ele><time>2026-03-11T15:20:23Z</time><extensions><gpxtpx:TrackPointExtension><gpxtpx:atemp>2.5</gpxtpx:atemp></gpxtpx:TrackPointExtension></extensions></trkpt><trkpt lat="42.1967060957" lon="13.4120843466"><ele>1770.20</ele><time>2026-03-11T15:20:24Z</time><extensions><gpxtpx:TrackPointExtension><gpxtpx:atemp>2.5</gpxtpx:atemp></gpxtpx:TrackPointExtension></extensions></trkpt><trkpt lat="42.1967077721" lon="13.4120979253"><ele>1770.17</ele><time>2026-03-11T15:20:25Z</time><extensions><gpxtpx:TrackPointExtension><gpxtpx:atemp>2.5</gpxtpx:atemp></gpxtpx:TrackPointExtension></extensions></trkpt><trkpt lat="42.1967125498" lon="13.4121066425"><ele>1770.13</ele><time>2026-03-11T15:20:26Z</time><extensions><gpxtpx:TrackPointExtension><gpxtpx:atemp>2.5</gpxtpx:atemp></gpxtpx:TrackPointExtension></extensions></trkpt><trkpt lat="42.1967172436" lon="13.4121145215"><ele>1770.08</ele><time>2026-03-11T15:20:27Z</time><extensions><gpxtpx:TrackPointExtension><gpxtpx:atemp>2.5</gpxtpx:atemp></gpxtpx:TrackPointExtension></extensions></trkpt><trkpt lat="42.1967202611" lon="13.4121243283"><ele>1770.06</ele><time>2026-03-11T15:20:28Z</time><extensions><gpxtpx:TrackPointExtension><gpxtpx:atemp>2.5</gpxtpx:atemp></gpxtpx:TrackPointExtension></extensions></trkpt><trkpt lat="42.1967245359" lon="13.4121336322"><ele>1770.04</ele><time>2026-03-11T15:20:29Z</time><extensions><gpxtpx:TrackPointExtension><gpxtpx:atemp>2.5</gpxtpx:atemp></gpxtpx:TrackPointExtension></extensions></trkpt><trkpt lat="42.1967284754" lon="13.4121412598"><ele>1770.03</ele><time>2026-03-11T15:20:30Z</time><extensions><gpxtpx:TrackPointExtension><gpxtpx:atemp>2.5</gpxtpx:atemp></gpxtpx:TrackPointExtension></extensions></trkpt><trkpt lat="42.1967288945" lon="13.4121487197"><ele>1770.02</ele><time>2026-03-11T15:20:31Z</time><extensions><gpxtpx:TrackPointExtension><gpxtpx:atemp>2.5</gpxtpx:atemp></gpxtpx:TrackPointExtension></extensions></trkpt><trkpt lat="42.1967321634" lon="13.4121536650"><ele>1770.02</ele><time>2026-03-11T15:20:32Z</time><extensions><gpxtpx:TrackPointExtension><gpxtpx:atemp>2.5</gpxtpx:atemp></gpxtpx:TrackPointExtension></extensions></trkpt><trkpt lat="42.1967347618" lon="13.4121607896"><ele>1770.02</ele><time>2026-03-11T15:20:33Z</time><extensions><gpxtpx:TrackPointExtension><gpxtpx:atemp>2.5</gpxtpx:atemp></gpxtpx:TrackPointExtension></extensions></trkpt><trkpt lat="42.1967397910" lon="13.4121690877"><ele>1770.02</ele><time>2026-03-11T15:20:34Z</time><extensions><gpxtpx:TrackPointExtension><gpxtpx:atemp>2.4</gpxtpx:atemp></gpxtpx:TrackPointExtension></extensions></trkpt><trkpt lat="42.1967412997" lon="13.4121788945"><ele>1770.02</ele><time>2026-03-11T15:20:35Z</time><extensions><gpxtpx:TrackPointExtension><gpxtpx:atemp>2.4</gpxtpx:atemp></gpxtpx:TrackPointExtension></extensions></trkpt><trkpt lat="42.1967459936" lon="13.4121858515"><ele>1770.02</ele><time>2026-03-11T15:20:36Z</time><extensions><gpxtpx:TrackPointExtension><gpxtpx:atemp>2.4</gpxtpx:atemp></gpxtpx:TrackPointExtension></extensions></trkpt><trkpt lat="42.1967472509" lon="13.4121952392"><ele>1770.02</ele><time>2026-03-11T15:20:37Z</time><extensions><gpxtpx:TrackPointExtension><gpxtpx:atemp>2.4</gpxtpx:atemp></gpxtpx:TrackPointExtension></extensions></trkpt><trkpt lat="42.1967487596" lon="13.4122047946"><ele>1770.03</ele><time>2026-03-11T15:20:38Z</time><extensions><gpxtpx:TrackPointExtension><gpxtpx:atemp>2.4</gpxtpx:atemp></gpxtpx:TrackPointExtension></extensions></trkpt><trkpt lat="42.1967524476" lon="13.4122137632"><ele>1770.03</ele><time>2026-03-11T15:20:39Z</time><extensions><gpxtpx:TrackPointExtension><gpxtpx:atemp>2.4</gpxtpx:atemp></gpxtpx:TrackPointExtension></extensions></trkpt><trkpt lat="42.1967544593" lon="13.4122200496"><ele>1770.03</ele><time>2026-03-11T15:20:40Z</time><extensions><gpxtpx:TrackPointExtension><gpxtpx:atemp>2.4</gpxtpx:atemp></gpxtpx:TrackPointExtension></extensions></trkpt><trkpt lat="42.1967601590" lon="13.4122252464"><ele>1770.05</ele><time>2026-03-11T15:20:41Z</time><extensions><gpxtpx:TrackPointExtension><gpxtpx:atemp>2.4</gpxtpx:atemp></gpxtpx:TrackPointExtension></extensions></trkpt><trkpt lat="42.1967652719" lon="13.4122258332"><ele>1770.05</ele><time>2026-03-11T15:20:42Z</time><extensions><gpxtpx:TrackPointExtension><gpxtpx:atemp>2.4</gpxtpx:atemp></gpxtpx:TrackPointExtension></extensions></trkpt><trkpt lat="42.1967678703" lon="13.4122309461"><ele>1770.05</ele><time>2026-03-11T15:20:43Z</time><extensions><gpxtpx:TrackPointExtension><gpxtpx:atemp>2.4</gpxtpx:atemp></gpxtpx:TrackPointExtension></extensions></trkpt><trkpt lat="42.1967734862" lon="13.4122347180"><ele>1770.05</ele><time>2026-03-11T15:20:44Z</time><extensions><gpxtpx:TrackPointExtension><gpxtpx:atemp>2.4</gpxtpx:atemp></gpxtpx:TrackPointExtension></extensions></trkpt><trkpt lat="42.1967753302" lon="13.4122449439"><ele>1770.08</ele><time>2026-03-11T15:20:45Z</time><extensions><gpxtpx:TrackPointExtension><gpxtpx:atemp>2.4</gpxtpx:atemp></gpxtpx:TrackPointExtension></extensions></trkpt><trkpt lat="42.1967779286" lon="13.4122513980"><ele>1770.11</ele><time>2026-03-11T15:20:46Z</time><extensions><gpxtpx:TrackPointExtension><gpxtpx:atemp>2.4</gpxtpx:atemp></gpxtpx:TrackPointExtension></extensions></trkpt><trkpt lat="42.1967802756" lon="13.4122585226"><ele>1770.13</ele><time>2026-03-11T15:20:47Z</time><extensions><gpxtpx:TrackPointExtension><gpxtpx:atemp>2.4</gpxtpx:atemp></gpxtpx:TrackPointExtension></extensions></trkpt><trkpt lat="42.1967841312" lon="13.4122671559"><ele>1770.10</ele><time>2026-03-11T15:20:48Z</time><extensions><gpxtpx:TrackPointExtension><gpxtpx:atemp>2.4</gpxtpx:atemp></gpxtpx:TrackPointExtension></extensions></trkpt><trkpt lat="42.1967881545" lon="13.4122808184"><ele>1770.12</ele><time>2026-03-11T15:20:49Z</time><extensions><gpxtpx:TrackPointExtension><gpxtpx:atemp>2.4</gpxtpx:atemp></gpxtpx:TrackPointExtension></extensions></trkpt><trkpt lat="42.1967893280" lon="13.4122893680"><ele>1770.11</ele><time>2026-03-11T15:20:50Z</time><extensions><gpxtpx:TrackPointExtension><gpxtpx:atemp>2.4</gpxtpx:atemp></gpxtpx:TrackPointExtension></extensions></trkpt><trkpt lat="42.1967908368" lon="13.4122927207"><ele>1770.10</ele><time>2026-03-11T15:20:51Z</time><extensions><gpxtpx:TrackPointExtension><gpxtpx:atemp>2.4</gpxtpx:atemp></gpxtpx:TrackPointExtension></extensions></trkpt><trkpt lat="42.1967937704" lon="13.4122965764"><ele>1770.10</ele><time>2026-03-11T15:20:52Z</time><extensions><gpxtpx:TrackPointExtension><gpxtpx:atemp>2.4</gpxtpx:atemp></gpxtpx:TrackPointExtension></extensions></trkpt><trkpt lat="42.1967966203" lon="13.4123025276"><ele>1770.09</ele><time>2026-03-11T15:20:53Z</time><extensions><gpxtpx:TrackPointExtension><gpxtpx:atemp>2.4</gpxtpx:atemp></gpxtpx:TrackPointExtension></extensions></trkpt><trkpt lat="42.1967994701" lon="13.4123095684"><ele>1770.09</ele><time>2026-03-11T15:20:54Z</time><extensions><gpxtpx:TrackPointExtension><gpxtpx:atemp>2.4</gpxtpx:atemp></gpxtpx:TrackPointExtension></extensions></trkpt><trkpt lat="42.1968034934" lon="13.4123181179"><ele>1770.09</ele><time>2026-03-11T15:20:55Z</time><extensions><gpxtpx:TrackPointExtension><gpxtpx:atemp>2.4</gpxtpx:atemp></gpxtpx:TrackPointExtension></extensions></trkpt><trkpt lat="42.1968059242" lon="13.4123245720"><ele>1770.08</ele><time>2026-03-11T15:20:56Z</time><extensions><gpxtpx:TrackPointExtension><gpxtpx:atemp>2.4</gpxtpx:atemp></gpxtpx:TrackPointExtension></extensions></trkpt><trkpt lat="42.1968094446" lon="13.4123262484"><ele>1770.07</ele><time>2026-03-11T15:20:57Z</time><extensions><gpxtpx:TrackPointExtension><gpxtpx:atemp>2.4</gpxtpx:atemp></gpxtpx:TrackPointExtension></extensions></trkpt><trkpt lat="42.1968142223" lon="13.4123300202"><ele>1770.07</ele><time>2026-03-11T15:20:58Z</time><extensions><gpxtpx:TrackPointExtension><gpxtpx:atemp>2.4</gpxtpx:atemp></gpxtpx:TrackPointExtension></extensions></trkpt><trkpt lat="42.1968151443" lon="13.4123387374"><ele>1770.07</ele><time>2026-03-11T15:20:59Z</time><extensions><gpxtpx:TrackPointExtension><gpxtpx:atemp>2.4</gpxtpx:atemp></gpxtpx:TrackPointExtension></extensions></trkpt><trkpt lat="42.1968162339" lon="13.4123427607"><ele>1770.07</ele><time>2026-03-11T15:21:00Z</time><extensions><gpxtpx:TrackPointExtension><gpxtpx:atemp>2.4</gpxtpx:atemp></gpxtpx:TrackPointExtension></extensions></trkpt><trkpt lat="42.1968205925" lon="13.4123474546"><ele>1770.09</ele><time>2026-03-11T15:21:01Z</time><extensions><gpxtpx:TrackPointExtension><gpxtpx:atemp>2.4</gpxtpx:atemp></gpxtpx:TrackPointExtension></extensions></trkpt><trkpt lat="42.1968221851" lon="13.4123511426"><ele>1770.11</ele><time>2026-03-11T15:21:02Z</time><extensions><gpxtpx:TrackPointExtension><gpxtpx:atemp>2.4</gpxtpx:atemp></gpxtpx:TrackPointExtension></extensions></trkpt><trkpt lat="42.1968255378" lon="13.4123603627"><ele>1770.14</ele><time>2026-03-11T15:21:03Z</time><extensions><gpxtpx:TrackPointExtension><gpxtpx:atemp>2.4</gpxtpx:atemp></gpxtpx:TrackPointExtension></extensions></trkpt><trkpt lat="42.1968324948" lon="13.4123672359"><ele>1770.17</ele><time>2026-03-11T15:21:04Z</time><extensions><gpxtpx:TrackPointExtension><gpxtpx:atemp>2.4</gpxtpx:atemp></gpxtpx:TrackPointExtension></extensions></trkpt><trkpt lat="42.1968380269" lon="13.4123723488"><ele>1770.18</ele><time>2026-03-11T15:21:05Z</time><extensions><gpxtpx:TrackPointExtension><gpxtpx:atemp>2.4</gpxtpx:atemp></gpxtpx:TrackPointExtension></extensions></trkpt><trkpt lat="42.1968421340" lon="13.4123795573"><ele>1770.19</ele><time>2026-03-11T15:21:06Z</time><extensions><gpxtpx:TrackPointExtension><gpxtpx:atemp>2.4</gpxtpx:atemp></gpxtpx:TrackPointExtension></extensions></trkpt><trkpt lat="42.1968481690" lon="13.4123891965"><ele>1770.20</ele><time>2026-03-11T15:21:07Z</time><extensions><gpxtpx:TrackPointExtension><gpxtpx:atemp>2.4</gpxtpx:atemp></gpxtpx:TrackPointExtension></extensions></trkpt><trkpt lat="42.1968549583" lon="13.4123944771"><ele>1770.21</ele><time>2026-03-11T15:21:08Z</time><extensions><gpxtpx:TrackPointExtension><gpxtpx:atemp>2.4</gpxtpx:atemp></gpxtpx:TrackPointExtension></extensions></trkpt><trkpt lat="42.1968581434" lon="13.4123999253"><ele>1770.25</ele><time>2026-03-11T15:21:09Z</time><extensions><gpxtpx:TrackPointExtension><gpxtpx:atemp>2.4</gpxtpx:atemp></gpxtpx:TrackPointExtension></extensions></trkpt><trkpt lat="42.1968639269" lon="13.4124059603"><ele>1770.28</ele><time>2026-03-11T15:21:10Z</time><extensions><gpxtpx:TrackPointExtension><gpxtpx:atemp>2.4</gpxtpx:atemp></gpxtpx:TrackPointExtension></extensions></trkpt><trkpt lat="42.1968684532" lon="13.4124119952"><ele>1770.30</ele><time>2026-03-11T15:21:11Z</time><extensions><gpxtpx:TrackPointExtension><gpxtpx:atemp>2.4</gpxtpx:atemp></gpxtpx:TrackPointExtension></extensions></trkpt><trkpt lat="42.1968705487" lon="13.4124197904"><ele>1770.34</ele><time>2026-03-11T15:21:12Z</time><extensions><gpxtpx:TrackPointExtension><gpxtpx:atemp>2.4</gpxtpx:atemp></gpxtpx:TrackPointExtension></extensions></trkpt><trkpt lat="42.1968751587" lon="13.4124268312"><ele>1770.35</ele><time>2026-03-11T15:21:13Z</time><extensions><gpxtpx:TrackPointExtension><gpxtpx:atemp>2.4</gpxtpx:atemp></gpxtpx:TrackPointExtension></extensions></trkpt><trkpt lat="42.1968799364" lon="13.4124324471"><ele>1770.35</ele><time>2026-03-11T15:21:14Z</time><extensions><gpxtpx:TrackPointExtension><gpxtpx:atemp>2.4</gpxtpx:atemp></gpxtpx:TrackPointExtension></extensions></trkpt><trkpt lat="42.1968834568" lon="13.4124405775"><ele>1770.40</ele><time>2026-03-11T15:21:15Z</time><extensions><gpxtpx:TrackPointExtension><gpxtpx:atemp>2.4</gpxtpx:atemp></gpxtpx:TrackPointExtension></extensions></trkpt><trkpt lat="42.1968881506" lon="13.4124451876"><ele>1770.43</ele><time>2026-03-11T15:21:16Z</time><extensions><gpxtpx:TrackPointExtension><gpxtpx:atemp>2.4</gpxtpx:atemp></gpxtpx:TrackPointExtension></extensions></trkpt><trkpt lat="42.1968909167" lon="13.4124531504"><ele>1770.47</ele><time>2026-03-11T15:21:17Z</time><extensions><gpxtpx:TrackPointExtension><gpxtpx:atemp>2.4</gpxtpx:atemp></gpxtpx:TrackPointExtension></extensions></trkpt><trkpt lat="42.1968941856" lon="13.4124587663"><ele>1770.53</ele><time>2026-03-11T15:21:18Z</time><extensions><gpxtpx:TrackPointExtension><gpxtpx:atemp>2.4</gpxtpx:atemp></gpxtpx:TrackPointExtension></extensions></trkpt><trkpt lat="42.1969022322" lon="13.4124612808"><ele>1770.57</ele><time>2026-03-11T15:21:19Z</time><extensions><gpxtpx:TrackPointExtension><gpxtpx:atemp>2.4</gpxtpx:atemp></gpxtpx:TrackPointExtension></extensions></trkpt><trkpt lat="42.1969058365" lon="13.4124669805"><ele>1770.60</ele><time>2026-03-11T15:21:20Z</time><extensions><gpxtpx:TrackPointExtension><gpxtpx:atemp>2.4</gpxtpx:atemp></gpxtpx:TrackPointExtension></extensions></trkpt><trkpt lat="42.1969099436" lon="13.4124731831"><ele>1770.62</ele><time>2026-03-11T15:21:21Z</time><extensions><gpxtpx:TrackPointExtension><gpxtpx:atemp>2.4</gpxtpx:atemp></gpxtpx:TrackPointExtension></extensions></trkpt><trkpt lat="42.1969130449" lon="13.4124783799"><ele>1770.66</ele><time>2026-03-11T15:21:22Z</time><extensions><gpxtpx:TrackPointExtension><gpxtpx:atemp>2.4</gpxtpx:atemp></gpxtpx:TrackPointExtension></extensions></trkpt><trkpt lat="42.1969168168" lon="13.4124843311"><ele>1770.68</ele><time>2026-03-11T15:21:23Z</time><extensions><gpxtpx:TrackPointExtension><gpxtpx:atemp>2.4</gpxtpx:atemp></gpxtpx:TrackPointExtension></extensions></trkpt><trkpt lat="42.1969198342" lon="13.4124935511"><ele>1770.72</ele><time>2026-03-11T15:21:24Z</time><extensions><gpxtpx:TrackPointExtension><gpxtpx:atemp>2.4</gpxtpx:atemp></gpxtpx:TrackPointExtension></extensions></trkpt><trkpt lat="42.1969249472" lon="13.4124996699"><ele>1770.75</ele><time>2026-03-11T15:21:25Z</time><extensions><gpxtpx:TrackPointExtension><gpxtpx:atemp>2.4</gpxtpx:atemp></gpxtpx:TrackPointExtension></extensions></trkpt><trkpt lat="42.1969267912" lon="13.4125053696"><ele>1770.76</ele><time>2026-03-11T15:21:26Z</time><extensions><gpxtpx:TrackPointExtension><gpxtpx:atemp>2.4</gpxtpx:atemp></gpxtpx:TrackPointExtension></extensions></trkpt><trkpt lat="42.1969295572" lon="13.4125097282"><ele>1770.79</ele><time>2026-03-11T15:21:27Z</time><extensions><gpxtpx:TrackPointExtension><gpxtpx:atemp>2.4</gpxtpx:atemp></gpxtpx:TrackPointExtension></extensions></trkpt><trkpt lat="42.1969330776" lon="13.4125125781"><ele>1770.78</ele><time>2026-03-11T15:21:28Z</time><extensions><gpxtpx:TrackPointExtension><gpxtpx:atemp>2.4</gpxtpx:atemp></gpxtpx:TrackPointExtension></extensions></trkpt><trkpt lat="42.1969382744" lon="13.4125196189"><ele>1770.79</ele><time>2026-03-11T15:21:29Z</time><extensions><gpxtpx:TrackPointExtension><gpxtpx:atemp>2.4</gpxtpx:atemp></gpxtpx:TrackPointExtension></extensions></trkpt><trkpt lat="42.1969396994" lon="13.4125279170"><ele>1770.79</ele><time>2026-03-11T15:21:30Z</time><extensions><gpxtpx:TrackPointExtension><gpxtpx:atemp>2.4</gpxtpx:atemp></gpxtpx:TrackPointExtension></extensions></trkpt><trkpt lat="42.1969441418" lon="13.4125327785"><ele>1770.80</ele><time>2026-03-11T15:21:31Z</time><extensions><gpxtpx:TrackPointExtension><gpxtpx:atemp>2.4</gpxtpx:atemp></gpxtpx:TrackPointExtension></extensions></trkpt><trkpt lat="42.1969496738" lon="13.4125376400"><ele>1770.82</ele><time>2026-03-11T15:21:32Z</time><extensions><gpxtpx:TrackPointExtension><gpxtpx:atemp>2.4</gpxtpx:atemp></gpxtpx:TrackPointExtension></extensions></trkpt><trkpt lat="42.1969521884" lon="13.4125419986"><ele>1770.83</ele><time>2026-03-11T15:21:33Z</time><extensions><gpxtpx:TrackPointExtension><gpxtpx:atemp>2.4</gpxtpx:atemp></gpxtpx:TrackPointExtension></extensions></trkpt><trkpt lat="42.1969567984" lon="13.4125457704"><ele>1770.83</ele><time>2026-03-11T15:21:34Z</time><extensions><gpxtpx:TrackPointExtension><gpxtpx:atemp>2.4</gpxtpx:atemp></gpxtpx:TrackPointExtension></extensions></trkpt><trkpt lat="42.1969629172" lon="13.4125488717"><ele>1770.86</ele><time>2026-03-11T15:21:35Z</time><extensions><gpxtpx:TrackPointExtension><gpxtpx:atemp>2.4</gpxtpx:atemp></gpxtpx:TrackPointExtension></extensions></trkpt><trkpt lat="42.1969642583" lon="13.4125552420"><ele>1770.90</ele><time>2026-03-11T15:21:36Z</time><extensions><gpxtpx:TrackPointExtension><gpxtpx:atemp>2.4</gpxtpx:atemp></gpxtpx:TrackPointExtension></extensions></trkpt><trkpt lat="42.1969710477" lon="13.4125573374"><ele>1770.92</ele><time>2026-03-11T15:21:37Z</time><extensions><gpxtpx:TrackPointExtension><gpxtpx:atemp>2.4</gpxtpx:atemp></gpxtpx:TrackPointExtension></extensions></trkpt><trkpt lat="42.1969760768" lon="13.4125629533"><ele>1770.94</ele><time>2026-03-11T15:21:38Z</time><extensions><gpxtpx:TrackPointExtension><gpxtpx:atemp>2.4</gpxtpx:atemp></gpxtpx:TrackPointExtension></extensions></trkpt><trkpt lat="42.1969812736" lon="13.4125704970"><ele>1770.95</ele><time>2026-03-11T15:21:39Z</time><extensions><gpxtpx:TrackPointExtension><gpxtpx:atemp>2.4</gpxtpx:atemp></gpxtpx:TrackPointExtension></extensions></trkpt><trkpt lat="42.1969866380" lon="13.4125709999"><ele>1770.99</ele><time>2026-03-11T15:21:40Z</time><extensions><gpxtpx:TrackPointExtension><gpxtpx:atemp>2.4</gpxtpx:atemp></gpxtpx:TrackPointExtension></extensions></trkpt><trkpt lat="42.1969914995" lon="13.4125758614"><ele>1771.02</ele><time>2026-03-11T15:21:41Z</time><extensions><gpxtpx:TrackPointExtension><gpxtpx:atemp>2.4</gpxtpx:atemp></gpxtpx:TrackPointExtension></extensions></trkpt><trkpt lat="42.1969923377" lon="13.4125815611"><ele>1771.03</ele><time>2026-03-11T15:21:42Z</time><extensions><gpxtpx:TrackPointExtension><gpxtpx:atemp>2.4</gpxtpx:atemp></gpxtpx:TrackPointExtension></extensions></trkpt><trkpt lat="42.1969955228" lon="13.4125861712"><ele>1771.07</ele><time>2026-03-11T15:21:43Z</time><extensions><gpxtpx:TrackPointExtension><gpxtpx:atemp>2.4</gpxtpx:atemp></gpxtpx:TrackPointExtension></extensions></trkpt><trkpt lat="42.1970013902" lon="13.4125892725"><ele>1771.12</ele><time>2026-03-11T15:21:44Z</time><extensions><gpxtpx:TrackPointExtension><gpxtpx:atemp>2.4</gpxtpx:atemp></gpxtpx:TrackPointExtension></extensions></trkpt><trkpt lat="42.1970041562" lon="13.4125961456"><ele>1771.16</ele><time>2026-03-11T15:21:45Z</time><extensions><gpxtpx:TrackPointExtension><gpxtpx:atemp>2.4</gpxtpx:atemp></gpxtpx:TrackPointExtension></extensions></trkpt><trkpt lat="42.1970076766" lon="13.4125979897"><ele>1771.18</ele><time>2026-03-11T15:21:46Z</time><extensions><gpxtpx:TrackPointExtension><gpxtpx:atemp>2.4</gpxtpx:atemp></gpxtpx:TrackPointExtension></extensions></trkpt><trkpt lat="42.1970105264" lon="13.4126023483"><ele>1771.27</ele><time>2026-03-11T15:21:47Z</time><extensions><gpxtpx:TrackPointExtension><gpxtpx:atemp>2.4</gpxtpx:atemp></gpxtpx:TrackPointExtension></extensions></trkpt><trkpt lat="42.1970140468" lon="13.4126042761"><ele>1771.32</ele><time>2026-03-11T15:21:48Z</time><extensions><gpxtpx:TrackPointExtension><gpxtpx:atemp>2.4</gpxtpx:atemp></gpxtpx:TrackPointExtension></extensions></trkpt><trkpt lat="42.1970170643" lon="13.4126097243"><ele>1771.37</ele><time>2026-03-11T15:21:49Z</time><extensions><gpxtpx:TrackPointExtension><gpxtpx:atemp>2.4</gpxtpx:atemp></gpxtpx:TrackPointExtension></extensions></trkpt><trkpt lat="42.1970186569" lon="13.4126166813"><ele>1771.39</ele><time>2026-03-11T15:21:50Z</time><extensions><gpxtpx:TrackPointExtension><gpxtpx:atemp>2.4</gpxtpx:atemp></gpxtpx:TrackPointExtension></extensions></trkpt><trkpt lat="42.1970251948" lon="13.4126212914"><ele>1771.43</ele><time>2026-03-11T15:21:51Z</time><extensions><gpxtpx:TrackPointExtension><gpxtpx:atemp>2.4</gpxtpx:atemp></gpxtpx:TrackPointExtension></extensions></trkpt><trkpt lat="42.1970271226" lon="13.4126275778"><ele>1771.46</ele><time>2026-03-11T15:21:52Z</time><extensions><gpxtpx:TrackPointExtension><gpxtpx:atemp>2.4</gpxtpx:atemp></gpxtpx:TrackPointExtension></extensions></trkpt><trkpt lat="42.1970314812" lon="13.4126272425"><ele>1771.48</ele><time>2026-03-11T15:21:53Z</time><extensions><gpxtpx:TrackPointExtension><gpxtpx:atemp>2.4</gpxtpx:atemp></gpxtpx:TrackPointExtension></extensions></trkpt><trkpt lat="42.1970383544" lon="13.4126264881"><ele>1771.50</ele><time>2026-03-11T15:21:54Z</time><extensions><gpxtpx:TrackPointExtension><gpxtpx:atemp>2.4</gpxtpx:atemp></gpxtpx:TrackPointExtension></extensions></trkpt><trkpt lat="42.1970392764" lon="13.4126323555"><ele>1771.52</ele><time>2026-03-11T15:21:55Z</time><extensions><gpxtpx:TrackPointExtension><gpxtpx:atemp>2.4</gpxtpx:atemp></gpxtpx:TrackPointExtension></extensions></trkpt><trkpt lat="42.1970424615" lon="13.4126380552"><ele>1771.55</ele><time>2026-03-11T15:21:56Z</time><extensions><gpxtpx:TrackPointExtension><gpxtpx:atemp>2.4</gpxtpx:atemp></gpxtpx:TrackPointExtension></extensions></trkpt><trkpt lat="42.1970472392" lon="13.4126413241"><ele>1771.59</ele><time>2026-03-11T15:21:57Z</time><extensions><gpxtpx:TrackPointExtension><gpxtpx:atemp>2.4</gpxtpx:atemp></gpxtpx:TrackPointExtension></extensions></trkpt><trkpt lat="42.1970511787" lon="13.4126454312"><ele>1771.66</ele><time>2026-03-11T15:21:58Z</time><extensions><gpxtpx:TrackPointExtension><gpxtpx:atemp>2.4</gpxtpx:atemp></gpxtpx:TrackPointExtension></extensions></trkpt><trkpt lat="42.1970507596" lon="13.4126506280"><ele>1771.71</ele><time>2026-03-11T15:21:59Z</time><extensions><gpxtpx:TrackPointExtension><gpxtpx:atemp>2.4</gpxtpx:atemp></gpxtpx:TrackPointExtension></extensions></trkpt><trkpt lat="42.1970549505" lon="13.4126505442"><ele>1771.73</ele><time>2026-03-11T15:22:00Z</time><extensions><gpxtpx:TrackPointExtension><gpxtpx:atemp>2.4</gpxtpx:atemp></gpxtpx:TrackPointExtension></extensions></trkpt><trkpt lat="42.1970604826" lon="13.4126538970"><ele>1771.78</ele><time>2026-03-11T15:22:01Z</time><extensions><gpxtpx:TrackPointExtension><gpxtpx:atemp>2.4</gpxtpx:atemp></gpxtpx:TrackPointExtension></extensions></trkpt><trkpt lat="42.1970638353" lon="13.4126606863"><ele>1771.80</ele><time>2026-03-11T15:22:02Z</time><extensions><gpxtpx:TrackPointExtension><gpxtpx:atemp>2.4</gpxtpx:atemp></gpxtpx:TrackPointExtension></extensions></trkpt><trkpt lat="42.1970667690" lon="13.4126632847"><ele>1771.84</ele><time>2026-03-11T15:22:03Z</time><extensions><gpxtpx:TrackPointExtension><gpxtpx:atemp>2.4</gpxtpx:atemp></gpxtpx:TrackPointExtension></extensions></trkpt><trkpt lat="42.1970699541" lon="13.4126630332"><ele>1771.94</ele><time>2026-03-11T15:22:04Z</time><extensions><gpxtpx:TrackPointExtension><gpxtpx:atemp>2.4</gpxtpx:atemp></gpxtpx:TrackPointExtension></extensions></trkpt><trkpt lat="42.1970724687" lon="13.4126685653"><ele>1772.01</ele><time>2026-03-11T15:22:05Z</time><extensions><gpxtpx:TrackPointExtension><gpxtpx:atemp>2.4</gpxtpx:atemp></gpxtpx:TrackPointExtension></extensions></trkpt><trkpt lat="42.1970775817" lon="13.4126691520"><ele>1772.07</ele><time>2026-03-11T15:22:06Z</time><extensions><gpxtpx:TrackPointExtension><gpxtpx:atemp>2.4</gpxtpx:atemp></gpxtpx:TrackPointExtension></extensions></trkpt><trkpt lat="42.1970800962" lon="13.4126697388"><ele>1772.14</ele><time>2026-03-11T15:22:07Z</time><extensions><gpxtpx:TrackPointExtension><gpxtpx:atemp>2.4</gpxtpx:atemp></gpxtpx:TrackPointExtension></extensions></trkpt><trkpt lat="42.1970823593" lon="13.4126730915"><ele>1772.17</ele><time>2026-03-11T15:22:08Z</time><extensions><gpxtpx:TrackPointExtension><gpxtpx:atemp>2.4</gpxtpx:atemp></gpxtpx:TrackPointExtension></extensions></trkpt><trkpt lat="42.1970867179" lon="13.4126722533"><ele>1772.19</ele><time>2026-03-11T15:22:09Z</time><extensions><gpxtpx:TrackPointExtension><gpxtpx:atemp>2.4</gpxtpx:atemp></gpxtpx:TrackPointExtension></extensions></trkpt><trkpt lat="42.1970911603" lon="13.4126748517"><ele>1772.32</ele><time>2026-03-11T15:22:10Z</time><extensions><gpxtpx:TrackPointExtension><gpxtpx:atemp>2.4</gpxtpx:atemp></gpxtpx:TrackPointExtension></extensions></trkpt><trkpt lat="42.1970950998" lon="13.4126764443"><ele>1772.41</ele><time>2026-03-11T15:22:11Z</time><extensions><gpxtpx:TrackPointExtension><gpxtpx:atemp>2.4</gpxtpx:atemp></gpxtpx:TrackPointExtension></extensions></trkpt><trkpt lat="42.1971001290" lon="13.4126793779"><ele>1772.48</ele><time>2026-03-11T15:22:12Z</time><extensions><gpxtpx:TrackPointExtension><gpxtpx:atemp>2.4</gpxtpx:atemp></gpxtpx:TrackPointExtension></extensions></trkpt><trkpt lat="42.1971062478" lon="13.4126805514"><ele>1772.52</ele><time>2026-03-11T15:22:13Z</time><extensions><gpxtpx:TrackPointExtension><gpxtpx:atemp>2.4</gpxtpx:atemp></gpxtpx:TrackPointExtension></extensions></trkpt><trkpt lat="42.1971121989" lon="13.4126834851"><ele>1772.57</ele><time>2026-03-11T15:22:14Z</time><extensions><gpxtpx:TrackPointExtension><gpxtpx:atemp>2.4</gpxtpx:atemp></gpxtpx:TrackPointExtension></extensions></trkpt><trkpt lat="42.1971152164" lon="13.4126844909"><ele>1772.62</ele><time>2026-03-11T15:22:15Z</time><extensions><gpxtpx:TrackPointExtension><gpxtpx:atemp>2.4</gpxtpx:atemp></gpxtpx:TrackPointExtension></extensions></trkpt><trkpt lat="42.1971190721" lon="13.4126854967"><ele>1772.66</ele><time>2026-03-11T15:22:16Z</time><extensions><gpxtpx:TrackPointExtension><gpxtpx:atemp>2.4</gpxtpx:atemp></gpxtpx:TrackPointExtension></extensions></trkpt><trkpt lat="42.1971199941" lon="13.4126863349"><ele>1772.70</ele><time>2026-03-11T15:22:17Z</time><extensions><gpxtpx:TrackPointExtension><gpxtpx:atemp>2.4</gpxtpx:atemp></gpxtpx:TrackPointExtension></extensions></trkpt><trkpt lat="42.1971221734" lon="13.4126920346"><ele>1772.75</ele><time>2026-03-11T15:22:18Z</time><extensions><gpxtpx:TrackPointExtension><gpxtpx:atemp>2.4</gpxtpx:atemp></gpxtpx:TrackPointExtension></extensions></trkpt><trkpt lat="42.1971251909" lon="13.4126956388"><ele>1772.82</ele><time>2026-03-11T15:22:19Z</time><extensions><gpxtpx:TrackPointExtension><gpxtpx:atemp>2.4</gpxtpx:atemp></gpxtpx:TrackPointExtension></extensions></trkpt><trkpt lat="42.1971318964" lon="13.4126987401"><ele>1772.88</ele><time>2026-03-11T15:22:20Z</time><extensions><gpxtpx:TrackPointExtension><gpxtpx:atemp>2.4</gpxtpx:atemp></gpxtpx:TrackPointExtension></extensions></trkpt><trkpt lat="42.1971375961" lon="13.4127023444"><ele>1772.95</ele><time>2026-03-11T15:22:21Z</time><extensions><gpxtpx:TrackPointExtension><gpxtpx:atemp>2.4</gpxtpx:atemp></gpxtpx:TrackPointExtension></extensions></trkpt><trkpt lat="42.1971391886" lon="13.4127027635"><ele>1773.03</ele><time>2026-03-11T15:22:22Z</time><extensions><gpxtpx:TrackPointExtension><gpxtpx:atemp>2.4</gpxtpx:atemp></gpxtpx:TrackPointExtension></extensions></trkpt><trkpt lat="42.1971404459" lon="13.4127095528"><ele>1773.08</ele><time>2026-03-11T15:22:23Z</time><extensions><gpxtpx:TrackPointExtension><gpxtpx:atemp>2.4</gpxtpx:atemp></gpxtpx:TrackPointExtension></extensions></trkpt><trkpt lat="42.1971469000" lon="13.4127064515"><ele>1773.16</ele><time>2026-03-11T15:22:24Z</time><extensions><gpxtpx:TrackPointExtension><gpxtpx:atemp>2.4</gpxtpx:atemp></gpxtpx:TrackPointExtension></extensions></trkpt><trkpt lat="42.1971509233" lon="13.4127057809"><ele>1773.26</ele><time>2026-03-11T15:22:25Z</time><extensions><gpxtpx:TrackPointExtension><gpxtpx:atemp>2.4</gpxtpx:atemp></gpxtpx:TrackPointExtension></extensions></trkpt><trkpt lat="42.1971542761" lon="13.4127067868"><ele>1773.33</ele><time>2026-03-11T15:22:26Z</time><extensions><gpxtpx:TrackPointExtension><gpxtpx:atemp>2.4</gpxtpx:atemp></gpxtpx:TrackPointExtension></extensions></trkpt><trkpt lat="42.1971539408" lon="13.4127112292"><ele>1773.38</ele><time>2026-03-11T15:22:27Z</time><extensions><gpxtpx:TrackPointExtension><gpxtpx:atemp>2.4</gpxtpx:atemp></gpxtpx:TrackPointExtension></extensions></trkpt><trkpt lat="42.1971564554" lon="13.4127104748"><ele>1773.45</ele><time>2026-03-11T15:22:28Z</time><extensions><gpxtpx:TrackPointExtension><gpxtpx:atemp>2.4</gpxtpx:atemp></gpxtpx:TrackPointExtension></extensions></trkpt><trkpt lat="42.1971556172" lon="13.4127075411"><ele>1773.50</ele><time>2026-03-11T15:22:29Z</time><extensions><gpxtpx:TrackPointExtension><gpxtpx:atemp>2.4</gpxtpx:atemp></gpxtpx:TrackPointExtension></extensions></trkpt><trkpt lat="42.1971546952" lon="13.4127080441"><ele>1773.55</ele><time>2026-03-11T15:22:30Z</time><extensions><gpxtpx:TrackPointExtension><gpxtpx:atemp>2.4</gpxtpx:atemp></gpxtpx:TrackPointExtension></extensions></trkpt><trkpt lat="42.1971535217" lon="13.4127103910"><ele>1773.58</ele><time>2026-03-11T15:22:31Z</time><extensions><gpxtpx:TrackPointExtension><gpxtpx:atemp>2.4</gpxtpx:atemp></gpxtpx:TrackPointExtension></extensions></trkpt><trkpt lat="42.1971534379" lon="13.4127086308"><ele>1773.62</ele><time>2026-03-11T15:22:32Z</time><extensions><gpxtpx:TrackPointExtension><gpxtpx:atemp>2.3</gpxtpx:atemp></gpxtpx:TrackPointExtension></extensions></trkpt><trkpt lat="42.1971524321" lon="13.4127086308"><ele>1773.66</ele><time>2026-03-11T15:22:33Z</time><extensions><gpxtpx:TrackPointExtension><gpxtpx:atemp>2.3</gpxtpx:atemp></gpxtpx:TrackPointExtension></extensions></trkpt><trkpt lat="42.1971507557" lon="13.4127065353"><ele>1773.68</ele><time>2026-03-11T15:22:34Z</time><extensions><gpxtpx:TrackPointExtension><gpxtpx:atemp>2.3</gpxtpx:atemp></gpxtpx:TrackPointExtension></extensions></trkpt><trkpt lat="42.1971498337" lon="13.4127054457"><ele>1773.71</ele><time>2026-03-11T15:22:35Z</time><extensions><gpxtpx:TrackPointExtension><gpxtpx:atemp>2.3</gpxtpx:atemp></gpxtpx:TrackPointExtension></extensions></trkpt><trkpt lat="42.1971512586" lon="13.4127053618"><ele>1773.73</ele><time>2026-03-11T15:22:36Z</time><extensions><gpxtpx:TrackPointExtension><gpxtpx:atemp>2.3</gpxtpx:atemp></gpxtpx:TrackPointExtension></extensions></trkpt><trkpt lat="42.1971522644" lon="13.4127043560"><ele>1773.77</ele><time>2026-03-11T15:22:37Z</time><extensions><gpxtpx:TrackPointExtension><gpxtpx:atemp>2.3</gpxtpx:atemp></gpxtpx:TrackPointExtension></extensions></trkpt><trkpt lat="42.1971521806" lon="13.4127038531"><ele>1773.81</ele><time>2026-03-11T15:22:38Z</time><extensions><gpxtpx:TrackPointExtension><gpxtpx:atemp>2.3</gpxtpx:atemp></gpxtpx:TrackPointExtension></extensions></trkpt><trkpt lat="42.1971517615" lon="13.4127047751"><ele>1773.86</ele><time>2026-03-11T15:22:39Z</time><extensions><gpxtpx:TrackPointExtension><gpxtpx:atemp>2.3</gpxtpx:atemp></gpxtpx:TrackPointExtension></extensions></trkpt><trkpt lat="42.1971510909" lon="13.4127052780"><ele>1773.89</ele><time>2026-03-11T15:22:40Z</time><extensions><gpxtpx:TrackPointExtension><gpxtpx:atemp>2.3</gpxtpx:atemp></gpxtpx:TrackPointExtension></extensions></trkpt><trkpt lat="42.1971518453" lon="13.4127064515"><ele>1773.93</ele><time>2026-03-11T15:22:41Z</time><extensions><gpxtpx:TrackPointExtension><gpxtpx:atemp>2.3</gpxtpx:atemp></gpxtpx:TrackPointExtension></extensions></trkpt><trkpt lat="42.1971517615" lon="13.4127046913"><ele>1773.95</ele><time>2026-03-11T15:22:42Z</time><extensions><gpxtpx:TrackPointExtension><gpxtpx:atemp>2.3</gpxtpx:atemp></gpxtpx:TrackPointExtension></extensions></trkpt><trkpt lat="42.1971521806" lon="13.4127046913"><ele>1773.98</ele><time>2026-03-11T15:22:43Z</time><extensions><gpxtpx:TrackPointExtension><gpxtpx:atemp>2.3</gpxtpx:atemp></gpxtpx:TrackPointExtension></extensions></trkpt><trkpt lat="42.1971528511" lon="13.4127073735"><ele>1773.99</ele><time>2026-03-11T15:22:44Z</time><extensions><gpxtpx:TrackPointExtension><gpxtpx:atemp>2.3</gpxtpx:atemp></gpxtpx:TrackPointExtension></extensions></trkpt><trkpt lat="42.1971549466" lon="13.4127085470"><ele>1774.04</ele><time>2026-03-11T15:22:45Z</time><extensions><gpxtpx:TrackPointExtension><gpxtpx:atemp>2.3</gpxtpx:atemp></gpxtpx:TrackPointExtension></extensions></trkpt><trkpt lat="42.1971596405" lon="13.4127077926"><ele>1774.04</ele><time>2026-03-11T15:22:46Z</time><extensions><gpxtpx:TrackPointExtension><gpxtpx:atemp>2.3</gpxtpx:atemp></gpxtpx:TrackPointExtension></extensions></trkpt><trkpt lat="42.1971624903" lon="13.4127123188"><ele>1774.04</ele><time>2026-03-11T15:22:47Z</time><extensions><gpxtpx:TrackPointExtension><gpxtpx:atemp>2.3</gpxtpx:atemp></gpxtpx:TrackPointExtension></extensions></trkpt><trkpt lat="42.1971659269" lon="13.4127103910"><ele>1774.04</ele><time>2026-03-11T15:22:48Z</time><extensions><gpxtpx:TrackPointExtension><gpxtpx:atemp>2.3</gpxtpx:atemp></gpxtpx:TrackPointExtension></extensions></trkpt><trkpt lat="42.1971688606" lon="13.4127115645"><ele>1774.04</ele><time>2026-03-11T15:22:49Z</time><extensions><gpxtpx:TrackPointExtension><gpxtpx:atemp>2.3</gpxtpx:atemp></gpxtpx:TrackPointExtension></extensions></trkpt><trkpt lat="42.1971731354" lon="13.4127141628"><ele>1774.05</ele><time>2026-03-11T15:22:50Z</time><extensions><gpxtpx:TrackPointExtension><gpxtpx:atemp>2.3</gpxtpx:atemp></gpxtpx:TrackPointExtension></extensions></trkpt><trkpt lat="42.1971779969" lon="13.4127158392"><ele>1774.06</ele><time>2026-03-11T15:22:51Z</time><extensions><gpxtpx:TrackPointExtension><gpxtpx:atemp>2.3</gpxtpx:atemp></gpxtpx:TrackPointExtension></extensions></trkpt><trkpt lat="42.1971812658" lon="13.4127166774"><ele>1774.07</ele><time>2026-03-11T15:22:52Z</time><extensions><gpxtpx:TrackPointExtension><gpxtpx:atemp>2.3</gpxtpx:atemp></gpxtpx:TrackPointExtension></extensions></trkpt><trkpt lat="42.1971837804" lon="13.4127184376"><ele>1774.09</ele><time>2026-03-11T15:22:53Z</time><extensions><gpxtpx:TrackPointExtension><gpxtpx:atemp>2.3</gpxtpx:atemp></gpxtpx:TrackPointExtension></extensions></trkpt><trkpt lat="42.1971883904" lon="13.4127188567"><ele>1774.11</ele><time>2026-03-11T15:22:54Z</time><extensions><gpxtpx:TrackPointExtension><gpxtpx:atemp>2.3</gpxtpx:atemp></gpxtpx:TrackPointExtension></extensions></trkpt><trkpt lat="42.1971953474" lon="13.4127167612"><ele>1774.15</ele><time>2026-03-11T15:22:55Z</time><extensions><gpxtpx:TrackPointExtension><gpxtpx:atemp>2.3</gpxtpx:atemp></gpxtpx:TrackPointExtension></extensions></trkpt><trkpt lat="42.1971978620" lon="13.4127200302"><ele>1774.24</ele><time>2026-03-11T15:22:56Z</time><extensions><gpxtpx:TrackPointExtension><gpxtpx:atemp>2.3</gpxtpx:atemp></gpxtpx:TrackPointExtension></extensions></trkpt><trkpt lat="42.1972011309" lon="13.4127195273"><ele>1774.28</ele><time>2026-03-11T15:22:57Z</time><extensions><gpxtpx:TrackPointExtension><gpxtpx:atemp>2.3</gpxtpx:atemp></gpxtpx:TrackPointExtension></extensions></trkpt><trkpt lat="42.1972048189" lon="13.4127252270"><ele>1774.33</ele><time>2026-03-11T15:22:58Z</time><extensions><gpxtpx:TrackPointExtension><gpxtpx:atemp>2.3</gpxtpx:atemp></gpxtpx:TrackPointExtension></extensions></trkpt><trkpt lat="42.1972089261" lon="13.4127299208"><ele>1774.38</ele><time>2026-03-11T15:22:59Z</time><extensions><gpxtpx:TrackPointExtension><gpxtpx:atemp>2.3</gpxtpx:atemp></gpxtpx:TrackPointExtension></extensions></trkpt><trkpt lat="42.1972128656" lon="13.4127331898"><ele>1774.44</ele><time>2026-03-11T15:23:00Z</time><extensions><gpxtpx:TrackPointExtension><gpxtpx:atemp>2.3</gpxtpx:atemp></gpxtpx:TrackPointExtension></extensions></trkpt><trkpt lat="42.1972163860" lon="13.4127285797"><ele>1774.49</ele><time>2026-03-11T15:23:01Z</time><extensions><gpxtpx:TrackPointExtension><gpxtpx:atemp>2.3</gpxtpx:atemp></gpxtpx:TrackPointExtension></extensions></trkpt><trkpt lat="42.1972183976" lon="13.4127316810"><ele>1774.53</ele><time>2026-03-11T15:23:02Z</time><extensions><gpxtpx:TrackPointExtension><gpxtpx:atemp>2.3</gpxtpx:atemp></gpxtpx:TrackPointExtension></extensions></trkpt><trkpt lat="42.1972222533" lon="13.4127348661"><ele>1774.57</ele><time>2026-03-11T15:23:03Z</time><extensions><gpxtpx:TrackPointExtension><gpxtpx:atemp>2.3</gpxtpx:atemp></gpxtpx:TrackPointExtension></extensions></trkpt><trkpt lat="42.1972252708" lon="13.4127364587"><ele>1774.59</ele><time>2026-03-11T15:23:04Z</time><extensions><gpxtpx:TrackPointExtension><gpxtpx:atemp>2.3</gpxtpx:atemp></gpxtpx:TrackPointExtension></extensions></trkpt><trkpt lat="42.1972271986" lon="13.4127364587"><ele>1774.63</ele><time>2026-03-11T15:23:05Z</time><extensions><gpxtpx:TrackPointExtension><gpxtpx:atemp>2.3</gpxtpx:atemp></gpxtpx:TrackPointExtension></extensions></trkpt><trkpt lat="42.1972296294" lon="13.4127359558"><ele>1774.67</ele><time>2026-03-11T15:23:06Z</time><extensions><gpxtpx:TrackPointExtension><gpxtpx:atemp>2.3</gpxtpx:atemp></gpxtpx:TrackPointExtension></extensions></trkpt><trkpt lat="42.1972315572" lon="13.4127387218"><ele>1774.75</ele><time>2026-03-11T15:23:07Z</time><extensions><gpxtpx:TrackPointExtension><gpxtpx:atemp>2.3</gpxtpx:atemp></gpxtpx:TrackPointExtension></extensions></trkpt><trkpt lat="42.1972339880" lon="13.4127413202"><ele>1774.98</ele><time>2026-03-11T15:23:08Z</time><extensions><gpxtpx:TrackPointExtension><gpxtpx:atemp>2.3</gpxtpx:atemp></gpxtpx:TrackPointExtension></extensions></trkpt><trkpt lat="42.1972362511" lon="13.4127413202"><ele>1775.09</ele><time>2026-03-11T15:23:09Z</time><extensions><gpxtpx:TrackPointExtension><gpxtpx:atemp>2.3</gpxtpx:atemp></gpxtpx:TrackPointExtension></extensions></trkpt><trkpt lat="42.1972419508" lon="13.4127456788"><ele>1775.15</ele><time>2026-03-11T15:23:10Z</time><extensions><gpxtpx:TrackPointExtension><gpxtpx:atemp>2.3</gpxtpx:atemp></gpxtpx:TrackPointExtension></extensions></trkpt><trkpt lat="42.1972444654" lon="13.4127496183"><ele>1775.25</ele><time>2026-03-11T15:23:11Z</time><extensions><gpxtpx:TrackPointExtension><gpxtpx:atemp>2.3</gpxtpx:atemp></gpxtpx:TrackPointExtension></extensions></trkpt><trkpt lat="42.1972466446" lon="13.4127529711"><ele>1775.32</ele><time>2026-03-11T15:23:12Z</time><extensions><gpxtpx:TrackPointExtension><gpxtpx:atemp>2.3</gpxtpx:atemp></gpxtpx:TrackPointExtension></extensions></trkpt><trkpt lat="42.1972489916" lon="13.4127566591"><ele>1775.32</ele><time>2026-03-11T15:23:13Z</time><extensions><gpxtpx:TrackPointExtension><gpxtpx:atemp>2.3</gpxtpx:atemp></gpxtpx:TrackPointExtension></extensions></trkpt><trkpt lat="42.1972535178" lon="13.4127620235"><ele>1775.36</ele><time>2026-03-11T15:23:14Z</time><extensions><gpxtpx:TrackPointExtension><gpxtpx:atemp>2.3</gpxtpx:atemp></gpxtpx:TrackPointExtension></extensions></trkpt><trkpt lat="42.1972568706" lon="13.4127621911"><ele>1775.38</ele><time>2026-03-11T15:23:15Z</time><extensions><gpxtpx:TrackPointExtension><gpxtpx:atemp>2.3</gpxtpx:atemp></gpxtpx:TrackPointExtension></extensions></trkpt><trkpt lat="42.1972596366" lon="13.4127640352"><ele>1775.39</ele><time>2026-03-11T15:23:16Z</time><extensions><gpxtpx:TrackPointExtension><gpxtpx:atemp>2.3</gpxtpx:atemp></gpxtpx:TrackPointExtension></extensions></trkpt><trkpt lat="42.1972616483" lon="13.4127655439"><ele>1775.41</ele><time>2026-03-11T15:23:17Z</time><extensions><gpxtpx:TrackPointExtension><gpxtpx:atemp>2.3</gpxtpx:atemp></gpxtpx:TrackPointExtension></extensions></trkpt><trkpt lat="42.1972645819" lon="13.4127672203"><ele>1775.42</ele><time>2026-03-11T15:23:18Z</time><extensions><gpxtpx:TrackPointExtension><gpxtpx:atemp>2.3</gpxtpx:atemp></gpxtpx:TrackPointExtension></extensions></trkpt><trkpt lat="42.1972658392" lon="13.4127668850"><ele>1775.42</ele><time>2026-03-11T15:23:19Z</time><extensions><gpxtpx:TrackPointExtension><gpxtpx:atemp>2.3</gpxtpx:atemp></gpxtpx:TrackPointExtension></extensions></trkpt><trkpt lat="42.1972695272" lon="13.4127728362"><ele>1775.41</ele><time>2026-03-11T15:23:20Z</time><extensions><gpxtpx:TrackPointExtension><gpxtpx:atemp>2.3</gpxtpx:atemp></gpxtpx:TrackPointExtension></extensions></trkpt><trkpt lat="42.1972701978" lon="13.4127750993"><ele>1775.36</ele><time>2026-03-11T15:23:21Z</time><extensions><gpxtpx:TrackPointExtension><gpxtpx:atemp>2.3</gpxtpx:atemp></gpxtpx:TrackPointExtension></extensions></trkpt><trkpt lat="42.1972702816" lon="13.4127766918"><ele>1775.35</ele><time>2026-03-11T15:23:22Z</time><extensions><gpxtpx:TrackPointExtension><gpxtpx:atemp>2.3</gpxtpx:atemp></gpxtpx:TrackPointExtension></extensions></trkpt><trkpt lat="42.1972768195" lon="13.4127778653"><ele>1775.34</ele><time>2026-03-11T15:23:23Z</time><extensions><gpxtpx:TrackPointExtension><gpxtpx:atemp>2.3</gpxtpx:atemp></gpxtpx:TrackPointExtension></extensions></trkpt><trkpt lat="42.1972813457" lon="13.4127848223"><ele>1775.33</ele><time>2026-03-11T15:23:24Z</time><extensions><gpxtpx:TrackPointExtension><gpxtpx:atemp>2.3</gpxtpx:atemp></gpxtpx:TrackPointExtension></extensions></trkpt><trkpt lat="42.1972894762" lon="13.4127863310"><ele>1775.35</ele><time>2026-03-11T15:23:25Z</time><extensions><gpxtpx:TrackPointExtension><gpxtpx:atemp>2.3</gpxtpx:atemp></gpxtpx:TrackPointExtension></extensions></trkpt><trkpt lat="42.1972950920" lon="13.4127918631"><ele>1775.39</ele><time>2026-03-11T15:23:26Z</time><extensions><gpxtpx:TrackPointExtension><gpxtpx:atemp>2.3</gpxtpx:atemp></gpxtpx:TrackPointExtension></extensions></trkpt><trkpt lat="42.1972995345" lon="13.4127943777"><ele>1775.42</ele><time>2026-03-11T15:23:27Z</time><extensions><gpxtpx:TrackPointExtension><gpxtpx:atemp>2.3</gpxtpx:atemp></gpxtpx:TrackPointExtension></extensions></trkpt><trkpt lat="42.1973028872" lon="13.4127978981"><ele>1775.45</ele><time>2026-03-11T15:23:28Z</time><extensions><gpxtpx:TrackPointExtension><gpxtpx:atemp>2.3</gpxtpx:atemp></gpxtpx:TrackPointExtension></extensions></trkpt><trkpt lat="42.1973070782" lon="13.4128024243"><ele>1775.49</ele><time>2026-03-11T15:23:29Z</time><extensions><gpxtpx:TrackPointExtension><gpxtpx:atemp>2.3</gpxtpx:atemp></gpxtpx:TrackPointExtension></extensions></trkpt><trkpt lat="42.1973147895" lon="13.4128017537"><ele>1775.55</ele><time>2026-03-11T15:23:30Z</time><extensions><gpxtpx:TrackPointExtension><gpxtpx:atemp>2.3</gpxtpx:atemp></gpxtpx:TrackPointExtension></extensions></trkpt><trkpt lat="42.1973237582" lon="13.4128034301"><ele>1775.66</ele><time>2026-03-11T15:23:31Z</time><extensions><gpxtpx:TrackPointExtension><gpxtpx:atemp>2.3</gpxtpx:atemp></gpxtpx:TrackPointExtension></extensions></trkpt><trkpt lat="42.1973275300" lon="13.4128094651"><ele>1775.67</ele><time>2026-03-11T15:23:32Z</time><extensions><gpxtpx:TrackPointExtension><gpxtpx:atemp>2.4</gpxtpx:atemp></gpxtpx:TrackPointExtension></extensions></trkpt><trkpt lat="42.1973331459" lon="13.4128110576"><ele>1775.69</ele><time>2026-03-11T15:23:33Z</time><extensions><gpxtpx:TrackPointExtension><gpxtpx:atemp>2.4</gpxtpx:atemp></gpxtpx:TrackPointExtension></extensions></trkpt><trkpt lat="42.1973393485" lon="13.4128143266"><ele>1775.74</ele><time>2026-03-11T15:23:34Z</time><extensions><gpxtpx:TrackPointExtension><gpxtpx:atemp>2.4</gpxtpx:atemp></gpxtpx:TrackPointExtension></extensions></trkpt><trkpt lat="42.1973467246" lon="13.4128169250"><ele>1775.76</ele><time>2026-03-11T15:23:35Z</time><extensions><gpxtpx:TrackPointExtension><gpxtpx:atemp>2.4</gpxtpx:atemp></gpxtpx:TrackPointExtension></extensions></trkpt><trkpt lat="42.1973545197" lon="13.4128186852"><ele>1775.77</ele><time>2026-03-11T15:23:36Z</time><extensions><gpxtpx:TrackPointExtension><gpxtpx:atemp>2.4</gpxtpx:atemp></gpxtpx:TrackPointExtension></extensions></trkpt><trkpt lat="42.1973627340" lon="13.4128214512"><ele>1775.78</ele><time>2026-03-11T15:23:37Z</time><extensions><gpxtpx:TrackPointExtension><gpxtpx:atemp>2.4</gpxtpx:atemp></gpxtpx:TrackPointExtension></extensions></trkpt><trkpt lat="42.1973683499" lon="13.4128244687"><ele>1775.76</ele><time>2026-03-11T15:23:38Z</time><extensions><gpxtpx:TrackPointExtension><gpxtpx:atemp>2.4</gpxtpx:atemp></gpxtpx:TrackPointExtension></extensions></trkpt><trkpt lat="42.1973769832" lon="13.4128320962"><ele>1775.77</ele><time>2026-03-11T15:23:39Z</time><extensions><gpxtpx:TrackPointExtension><gpxtpx:atemp>2.4</gpxtpx:atemp></gpxtpx:TrackPointExtension></extensions></trkpt><trkpt lat="42.1973851975" lon="13.4128391370"><ele>1775.76</ele><time>2026-03-11T15:23:40Z</time><extensions><gpxtpx:TrackPointExtension><gpxtpx:atemp>2.4</gpxtpx:atemp></gpxtpx:TrackPointExtension></extensions></trkpt><trkpt lat="42.1973936632" lon="13.4128446691"><ele>1775.75</ele><time>2026-03-11T15:23:41Z</time><extensions><gpxtpx:TrackPointExtension><gpxtpx:atemp>2.4</gpxtpx:atemp></gpxtpx:TrackPointExtension></extensions></trkpt><trkpt lat="42.1974019613" lon="13.4128491953"><ele>1775.77</ele><time>2026-03-11T15:23:42Z</time><extensions><gpxtpx:TrackPointExtension><gpxtpx:atemp>2.4</gpxtpx:atemp></gpxtpx:TrackPointExtension></extensions></trkpt><trkpt lat="42.1974121872" lon="13.4128563199"><ele>1775.79</ele><time>2026-03-11T15:23:43Z</time><extensions><gpxtpx:TrackPointExtension><gpxtpx:atemp>2.4</gpxtpx:atemp></gpxtpx:TrackPointExtension></extensions></trkpt><trkpt lat="42.1974181384" lon="13.4128645342"><ele>1775.82</ele><time>2026-03-11T15:23:44Z</time><extensions><gpxtpx:TrackPointExtension><gpxtpx:atemp>2.4</gpxtpx:atemp></gpxtpx:TrackPointExtension></extensions></trkpt><trkpt lat="42.1974175517" lon="13.4128704853"><ele>1775.82</ele><time>2026-03-11T15:23:45Z</time><extensions><gpxtpx:TrackPointExtension><gpxtpx:atemp>2.4</gpxtpx:atemp></gpxtpx:TrackPointExtension></extensions></trkpt><trkpt lat="42.1974172164" lon="13.4128680546"><ele>1775.82</ele><time>2026-03-11T15:23:46Z</time><extensions><gpxtpx:TrackPointExtension><gpxtpx:atemp>2.4</gpxtpx:atemp></gpxtpx:TrackPointExtension></extensions></trkpt><trkpt lat="42.1974157915" lon="13.4128674679"><ele>1775.82</ele><time>2026-03-11T15:23:47Z</time><extensions><gpxtpx:TrackPointExtension><gpxtpx:atemp>2.4</gpxtpx:atemp></gpxtpx:TrackPointExtension></extensions></trkpt><trkpt lat="42.1974141989" lon="13.4128670488"><ele>1775.82</ele><time>2026-03-11T15:23:48Z</time><extensions><gpxtpx:TrackPointExtension><gpxtpx:atemp>2.4</gpxtpx:atemp></gpxtpx:TrackPointExtension></extensions></trkpt><trkpt lat="42.1974140313" lon="13.4128676355"><ele>1775.82</ele><time>2026-03-11T15:23:49Z</time><extensions><gpxtpx:TrackPointExtension><gpxtpx:atemp>2.4</gpxtpx:atemp></gpxtpx:TrackPointExtension></extensions></trkpt><trkpt lat="42.1974130254" lon="13.4128681384"><ele>1775.82</ele><time>2026-03-11T15:23:50Z</time><extensions><gpxtpx:TrackPointExtension><gpxtpx:atemp>2.4</gpxtpx:atemp></gpxtpx:TrackPointExtension></extensions></trkpt><trkpt lat="42.1974116843" lon="13.4128688928"><ele>1775.84</ele><time>2026-03-11T15:23:51Z</time><extensions><gpxtpx:TrackPointExtension><gpxtpx:atemp>2.4</gpxtpx:atemp></gpxtpx:TrackPointExtension></extensions></trkpt><trkpt lat="42.1974104270" lon="13.4128689766"><ele>1775.87</ele><time>2026-03-11T15:23:52Z</time><extensions><gpxtpx:TrackPointExtension><gpxtpx:atemp>2.4</gpxtpx:atemp></gpxtpx:TrackPointExtension></extensions></trkpt><trkpt lat="42.1974091697" lon="13.4128719941"><ele>1775.92</ele><time>2026-03-11T15:23:53Z</time><extensions><gpxtpx:TrackPointExtension><gpxtpx:atemp>2.4</gpxtpx:atemp></gpxtpx:TrackPointExtension></extensions></trkpt><trkpt lat="42.1974091697" lon="13.4128729999"><ele>1776.05</ele><time>2026-03-11T15:23:54Z</time><extensions><gpxtpx:TrackPointExtension><gpxtpx:atemp>2.4</gpxtpx:atemp></gpxtpx:TrackPointExtension></extensions></trkpt><trkpt lat="42.1974088345" lon="13.4128744248"><ele>1776.07</ele><time>2026-03-11T15:23:55Z</time><extensions><gpxtpx:TrackPointExtension><gpxtpx:atemp>2.4</gpxtpx:atemp></gpxtpx:TrackPointExtension></extensions></trkpt><trkpt lat="42.1974077448" lon="13.4128758498"><ele>1776.09</ele><time>2026-03-11T15:23:56Z</time><extensions><gpxtpx:TrackPointExtension><gpxtpx:atemp>2.4</gpxtpx:atemp></gpxtpx:TrackPointExtension></extensions></trkpt><trkpt lat="42.1974074934" lon="13.4128773585"><ele>1776.13</ele><time>2026-03-11T15:23:57Z</time><extensions><gpxtpx:TrackPointExtension><gpxtpx:atemp>2.4</gpxtpx:atemp></gpxtpx:TrackPointExtension></extensions></trkpt><trkpt lat="42.1974070743" lon="13.4128773585"><ele>1776.15</ele><time>2026-03-11T15:23:58Z</time><extensions><gpxtpx:TrackPointExtension><gpxtpx:atemp>2.4</gpxtpx:atemp></gpxtpx:TrackPointExtension></extensions></trkpt><trkpt lat="42.1974071581" lon="13.4128765203"><ele>1776.15</ele><time>2026-03-11T15:23:59Z</time><extensions><gpxtpx:TrackPointExtension><gpxtpx:atemp>2.4</gpxtpx:atemp></gpxtpx:TrackPointExtension></extensions></trkpt><trkpt lat="42.1974079963" lon="13.4128749277"><ele>1776.15</ele><time>2026-03-11T15:24:00Z</time><extensions><gpxtpx:TrackPointExtension><gpxtpx:atemp>2.4</gpxtpx:atemp></gpxtpx:TrackPointExtension></extensions></trkpt><trkpt lat="42.1974105947" lon="13.4128787834"><ele>1776.15</ele><time>2026-03-11T15:24:01Z</time><extensions><gpxtpx:TrackPointExtension><gpxtpx:atemp>2.4</gpxtpx:atemp></gpxtpx:TrackPointExtension></extensions></trkpt><trkpt lat="42.1974136960" lon="13.4128795378"><ele>1776.14</ele><time>2026-03-11T15:24:02Z</time><extensions><gpxtpx:TrackPointExtension><gpxtpx:atemp>2.4</gpxtpx:atemp></gpxtpx:TrackPointExtension></extensions></trkpt><trkpt lat="42.1974218264" lon="13.4128907695"><ele>1776.13</ele><time>2026-03-11T15:24:03Z</time><extensions><gpxtpx:TrackPointExtension><gpxtpx:atemp>2.4</gpxtpx:atemp></gpxtpx:TrackPointExtension></extensions></trkpt><trkpt lat="42.1974224970" lon="13.4128940385"><ele>1776.10</ele><time>2026-03-11T15:24:04Z</time><extensions><gpxtpx:TrackPointExtension><gpxtpx:atemp>2.4</gpxtpx:atemp></gpxtpx:TrackPointExtension></extensions></trkpt><trkpt lat="42.1974299569" lon="13.4128989838"><ele>1776.05</ele><time>2026-03-11T15:24:05Z</time><extensions><gpxtpx:TrackPointExtension><gpxtpx:atemp>2.4</gpxtpx:atemp></gpxtpx:TrackPointExtension></extensions></trkpt><trkpt lat="42.1974378359" lon="13.4129045997"><ele>1775.98</ele><time>2026-03-11T15:24:06Z</time><extensions><gpxtpx:TrackPointExtension><gpxtpx:atemp>2.4</gpxtpx:atemp></gpxtpx:TrackPointExtension></extensions></trkpt><trkpt lat="42.1974466369" lon="13.4129096288"><ele>1775.92</ele><time>2026-03-11T15:24:07Z</time><extensions><gpxtpx:TrackPointExtension><gpxtpx:atemp>2.4</gpxtpx:atemp></gpxtpx:TrackPointExtension></extensions></trkpt><trkpt lat="42.1974553540" lon="13.4129163343"><ele>1775.84</ele><time>2026-03-11T15:24:08Z</time><extensions><gpxtpx:TrackPointExtension><gpxtpx:atemp>2.4</gpxtpx:atemp></gpxtpx:TrackPointExtension></extensions></trkpt><trkpt lat="42.1974641550" lon="13.4129260574"><ele>1775.77</ele><time>2026-03-11T15:24:09Z</time><extensions><gpxtpx:TrackPointExtension><gpxtpx:atemp>2.4</gpxtpx:atemp></gpxtpx:TrackPointExtension></extensions></trkpt><trkpt lat="42.1974734589" lon="13.4129336849"><ele>1775.73</ele><time>2026-03-11T15:24:10Z</time><extensions><gpxtpx:TrackPointExtension><gpxtpx:atemp>2.4</gpxtpx:atemp></gpxtpx:TrackPointExtension></extensions></trkpt><trkpt lat="42.1974821761" lon="13.4129403904"><ele>1775.66</ele><time>2026-03-11T15:24:11Z</time><extensions><gpxtpx:TrackPointExtension><gpxtpx:atemp>2.4</gpxtpx:atemp></gpxtpx:TrackPointExtension></extensions></trkpt><trkpt lat="42.1974920668" lon="13.4129474312"><ele>1775.60</ele><time>2026-03-11T15:24:12Z</time><extensions><gpxtpx:TrackPointExtension><gpxtpx:atemp>2.4</gpxtpx:atemp></gpxtpx:TrackPointExtension></extensions></trkpt><trkpt lat="42.1975006163" lon="13.4129541367"><ele>1775.54</ele><time>2026-03-11T15:24:13Z</time><extensions><gpxtpx:TrackPointExtension><gpxtpx:atemp>2.4</gpxtpx:atemp></gpxtpx:TrackPointExtension></extensions></trkpt><trkpt lat="42.1975090820" lon="13.4129597526"><ele>1775.50</ele><time>2026-03-11T15:24:14Z</time><extensions><gpxtpx:TrackPointExtension><gpxtpx:atemp>2.4</gpxtpx:atemp></gpxtpx:TrackPointExtension></extensions></trkpt><trkpt lat="42.1975166257" lon="13.4129634406"><ele>1775.47</ele><time>2026-03-11T15:24:15Z</time><extensions><gpxtpx:TrackPointExtension><gpxtpx:atemp>2.4</gpxtpx:atemp></gpxtpx:TrackPointExtension></extensions></trkpt><trkpt lat="42.1975227445" lon="13.4129685536"><ele>1775.45</ele><time>2026-03-11T15:24:16Z</time><extensions><gpxtpx:TrackPointExtension><gpxtpx:atemp>2.4</gpxtpx:atemp></gpxtpx:TrackPointExtension></extensions></trkpt><trkpt lat="42.1975260973" lon="13.4129698947"><ele>1775.43</ele><time>2026-03-11T15:24:17Z</time><extensions><gpxtpx:TrackPointExtension><gpxtpx:atemp>2.4</gpxtpx:atemp></gpxtpx:TrackPointExtension></extensions></trkpt><trkpt lat="42.1975270193" lon="13.4129692242"><ele>1775.43</ele><time>2026-03-11T15:24:18Z</time><extensions><gpxtpx:TrackPointExtension><gpxtpx:atemp>2.4</gpxtpx:atemp></gpxtpx:TrackPointExtension></extensions></trkpt><trkpt lat="42.1975282766" lon="13.4129705653"><ele>1775.43</ele><time>2026-03-11T15:24:19Z</time><extensions><gpxtpx:TrackPointExtension><gpxtpx:atemp>2.4</gpxtpx:atemp></gpxtpx:TrackPointExtension></extensions></trkpt><trkpt lat="42.1975271869" lon="13.4129694756"><ele>1775.43</ele><time>2026-03-11T15:24:20Z</time><extensions><gpxtpx:TrackPointExtension><gpxtpx:atemp>2.4</gpxtpx:atemp></gpxtpx:TrackPointExtension></extensions></trkpt><trkpt lat="42.1975262649" lon="13.4129703976"><ele>1775.41</ele><time>2026-03-11T15:24:21Z</time><extensions><gpxtpx:TrackPointExtension><gpxtpx:atemp>2.4</gpxtpx:atemp></gpxtpx:TrackPointExtension></extensions></trkpt><trkpt lat="42.1975262649" lon="13.4129703976"><ele>1775.39</ele><time>2026-03-11T15:24:22Z</time><extensions><gpxtpx:TrackPointExtension><gpxtpx:atemp>2.4</gpxtpx:atemp></gpxtpx:TrackPointExtension></extensions></trkpt><trkpt lat="42.1975261811" lon="13.4129705653"><ele>1775.36</ele><time>2026-03-11T15:24:23Z</time><extensions><gpxtpx:TrackPointExtension><gpxtpx:atemp>2.4</gpxtpx:atemp></gpxtpx:TrackPointExtension></extensions></trkpt><trkpt lat="42.1975263488" lon="13.4129705653"><ele>1775.36</ele><time>2026-03-11T15:24:24Z</time><extensions><gpxtpx:TrackPointExtension><gpxtpx:atemp>2.4</gpxtpx:atemp></gpxtpx:TrackPointExtension></extensions></trkpt><trkpt lat="42.1975263488" lon="13.4129710682"><ele>1775.36</ele><time>2026-03-11T15:24:25Z</time><extensions><gpxtpx:TrackPointExtension><gpxtpx:atemp>2.4</gpxtpx:atemp></gpxtpx:TrackPointExtension></extensions></trkpt><trkpt lat="42.1975262649" lon="13.4129705653"><ele>1775.36</ele><time>2026-03-11T15:24:26Z</time><extensions><gpxtpx:TrackPointExtension><gpxtpx:atemp>2.4</gpxtpx:atemp></gpxtpx:TrackPointExtension></extensions></trkpt><trkpt lat="42.1975262649" lon="13.4129699785"><ele>1775.36</ele><time>2026-03-11T15:24:27Z</time><extensions><gpxtpx:TrackPointExtension><gpxtpx:atemp>2.4</gpxtpx:atemp></gpxtpx:TrackPointExtension></extensions></trkpt><trkpt lat="42.1975262649" lon="13.4129696433"><ele>1775.35</ele><time>2026-03-11T15:24:28Z</time><extensions><gpxtpx:TrackPointExtension><gpxtpx:atemp>2.4</gpxtpx:atemp></gpxtpx:TrackPointExtension></extensions></trkpt><trkpt lat="42.1975261811" lon="13.4129690565"><ele>1775.31</ele><time>2026-03-11T15:24:29Z</time><extensions><gpxtpx:TrackPointExtension><gpxtpx:atemp>2.4</gpxtpx:atemp></gpxtpx:TrackPointExtension></extensions></trkpt><trkpt lat="42.1975262649" lon="13.4129696433"><ele>1775.26</ele><time>2026-03-11T15:24:30Z</time><extensions><gpxtpx:TrackPointExtension><gpxtpx:atemp>2.4</gpxtpx:atemp></gpxtpx:TrackPointExtension></extensions></trkpt><trkpt lat="42.1975261811" lon="13.4129691403"><ele>1775.22</ele><time>2026-03-11T15:24:31Z</time><extensions><gpxtpx:TrackPointExtension><gpxtpx:atemp>2.4</gpxtpx:atemp></gpxtpx:TrackPointExtension></extensions></trkpt><trkpt lat="42.1975258458" lon="13.4129694756"><ele>1775.21</ele><time>2026-03-11T15:24:32Z</time><extensions><gpxtpx:TrackPointExtension><gpxtpx:atemp>2.4</gpxtpx:atemp></gpxtpx:TrackPointExtension></extensions></trkpt><trkpt lat="42.1975249238" lon="13.4129691403"><ele>1775.21</ele><time>2026-03-11T15:24:33Z</time><extensions><gpxtpx:TrackPointExtension><gpxtpx:atemp>2.4</gpxtpx:atemp></gpxtpx:TrackPointExtension></extensions></trkpt><trkpt lat="42.1975247562" lon="13.4129692242"><ele>1775.26</ele><time>2026-03-11T15:24:34Z</time><extensions><gpxtpx:TrackPointExtension><gpxtpx:atemp>2.4</gpxtpx:atemp></gpxtpx:TrackPointExtension></extensions></trkpt><trkpt lat="42.1975242533" lon="13.4129692242"><ele>1775.40</ele><time>2026-03-11T15:24:35Z</time><extensions><gpxtpx:TrackPointExtension><gpxtpx:atemp>2.4</gpxtpx:atemp></gpxtpx:TrackPointExtension></extensions></trkpt><trkpt lat="42.1975240856" lon="13.4129694756"><ele>1775.53</ele><time>2026-03-11T15:24:36Z</time><extensions><gpxtpx:TrackPointExtension><gpxtpx:atemp>2.4</gpxtpx:atemp></gpxtpx:TrackPointExtension></extensions></trkpt><trkpt lat="42.1975238342" lon="13.4129690565"><ele>1775.63</ele><time>2026-03-11T15:24:37Z</time><extensions><gpxtpx:TrackPointExtension><gpxtpx:atemp>2.4</gpxtpx:atemp></gpxtpx:TrackPointExtension></extensions></trkpt><trkpt lat="42.1975233313" lon="13.4129690565"><ele>1775.67</ele><time>2026-03-11T15:24:38Z</time><extensions><gpxtpx:TrackPointExtension><gpxtpx:atemp>2.4</gpxtpx:atemp></gpxtpx:TrackPointExtension></extensions></trkpt><trkpt lat="42.1975226607" lon="13.4129697271"><ele>1775.68</ele><time>2026-03-11T15:24:39Z</time><extensions><gpxtpx:TrackPointExtension><gpxtpx:atemp>2.4</gpxtpx:atemp></gpxtpx:TrackPointExtension></extensions></trkpt><trkpt lat="42.1975229960" lon="13.4129694756"><ele>1775.67</ele><time>2026-03-11T15:24:40Z</time><extensions><gpxtpx:TrackPointExtension><gpxtpx:atemp>2.4</gpxtpx:atemp></gpxtpx:TrackPointExtension></extensions></trkpt><trkpt lat="42.1975232475" lon="13.4129693918"><ele>1775.65</ele><time>2026-03-11T15:24:41Z</time><extensions><gpxtpx:TrackPointExtension><gpxtpx:atemp>2.4</gpxtpx:atemp></gpxtpx:TrackPointExtension></extensions></trkpt><trkpt lat="42.1975229960" lon="13.4129692242"><ele>1775.64</ele><time>2026-03-11T15:24:42Z</time><extensions><gpxtpx:TrackPointExtension><gpxtpx:atemp>2.4</gpxtpx:atemp></gpxtpx:TrackPointExtension></extensions></trkpt><trkpt lat="42.1975222416" lon="13.4129698947"><ele>1775.64</ele><time>2026-03-11T15:24:43Z</time><extensions><gpxtpx:TrackPointExtension><gpxtpx:atemp>2.4</gpxtpx:atemp></gpxtpx:TrackPointExtension></extensions></trkpt><trkpt lat="42.1975219902" lon="13.4129698947"><ele>1775.61</ele><time>2026-03-11T15:24:44Z</time><extensions><gpxtpx:TrackPointExtension><gpxtpx:atemp>2.4</gpxtpx:atemp></gpxtpx:TrackPointExtension></extensions></trkpt><trkpt lat="42.1975216549" lon="13.4129699785"><ele>1775.60</ele><time>2026-03-11T15:24:45Z</time><extensions><gpxtpx:TrackPointExtension><gpxtpx:atemp>2.4</gpxtpx:atemp></gpxtpx:TrackPointExtension></extensions></trkpt><trkpt lat="42.1975212358" lon="13.4129707329"><ele>1775.57</ele><time>2026-03-11T15:24:46Z</time><extensions><gpxtpx:TrackPointExtension><gpxtpx:atemp>2.4</gpxtpx:atemp></gpxtpx:TrackPointExtension></extensions></trkpt><trkpt lat="42.1975215711" lon="13.4129704814"><ele>1775.50</ele><time>2026-03-11T15:24:47Z</time><extensions><gpxtpx:TrackPointExtension><gpxtpx:atemp>2.4</gpxtpx:atemp></gpxtpx:TrackPointExtension></extensions></trkpt><trkpt lat="42.1975216549" lon="13.4129699785"><ele>1775.25</ele><time>2026-03-11T15:24:48Z</time><extensions><gpxtpx:TrackPointExtension><gpxtpx:atemp>2.4</gpxtpx:atemp></gpxtpx:TrackPointExtension></extensions></trkpt><trkpt lat="42.1975220740" lon="13.4129695594"><ele>1774.46</ele><time>2026-03-11T15:24:49Z</time><extensions><gpxtpx:TrackPointExtension><gpxtpx:atemp>2.4</gpxtpx:atemp></gpxtpx:TrackPointExtension></extensions></trkpt><trkpt lat="42.1975223254" lon="13.4129690565"><ele>1773.58</ele><time>2026-03-11T15:24:50Z</time><extensions><gpxtpx:TrackPointExtension><gpxtpx:atemp>2.4</gpxtpx:atemp></gpxtpx:TrackPointExtension></extensions></trkpt><trkpt lat="42.1975223254" lon="13.4129687212"><ele>1772.70</ele><time>2026-03-11T15:24:51Z</time><extensions><gpxtpx:TrackPointExtension><gpxtpx:atemp>2.4</gpxtpx:atemp></gpxtpx:TrackPointExtension></extensions></trkpt><trkpt lat="42.1975225769" lon="13.4129686374"><ele>1772.54</ele><time>2026-03-11T15:24:52Z</time><extensions><gpxtpx:TrackPointExtension><gpxtpx:atemp>2.4</gpxtpx:atemp></gpxtpx:TrackPointExtension></extensions></trkpt><trkpt lat="42.1975227445" lon="13.4129683860"><ele>1772.86</ele><time>2026-03-11T15:24:53Z</time><extensions><gpxtpx:TrackPointExtension><gpxtpx:atemp>2.4</gpxtpx:atemp></gpxtpx:TrackPointExtension></extensions></trkpt><trkpt lat="42.1975227445" lon="13.4129684698"><ele>1773.95</ele><time>2026-03-11T15:24:54Z</time><extensions><gpxtpx:TrackPointExtension><gpxtpx:atemp>2.4</gpxtpx:atemp></gpxtpx:TrackPointExtension></extensions></trkpt><trkpt lat="42.1975224931" lon="13.4129682183"><ele>1775.45</ele><time>2026-03-11T15:24:55Z</time><extensions><gpxtpx:TrackPointExtension><gpxtpx:atemp>2.4</gpxtpx:atemp></gpxtpx:TrackPointExtension></extensions></trkpt><trkpt lat="42.1975228284" lon="13.4129677992"><ele>1776.53</ele><time>2026-03-11T15:24:56Z</time><extensions><gpxtpx:TrackPointExtension><gpxtpx:atemp>2.4</gpxtpx:atemp></gpxtpx:TrackPointExtension></extensions></trkpt><trkpt lat="42.1975233313" lon="13.4129672963"><ele>1777.10</ele><time>2026-03-11T15:24:57Z</time><extensions><gpxtpx:TrackPointExtension><gpxtpx:atemp>2.4</gpxtpx:atemp></gpxtpx:TrackPointExtension></extensions></trkpt><trkpt lat="42.1975237504" lon="13.4129670449"><ele>1777.40</ele><time>2026-03-11T15:24:58Z</time><extensions><gpxtpx:TrackPointExtension><gpxtpx:atemp>2.4</gpxtpx:atemp></gpxtpx:TrackPointExtension></extensions></trkpt><trkpt lat="42.1975235827" lon="13.4129667934"><ele>1777.25</ele><time>2026-03-11T15:24:59Z</time><extensions><gpxtpx:TrackPointExtension><gpxtpx:atemp>2.4</gpxtpx:atemp></gpxtpx:TrackPointExtension></extensions></trkpt><trkpt lat="42.1975238342" lon="13.4129663743"><ele>1776.96</ele><time>2026-03-11T15:25:00Z</time><extensions><gpxtpx:TrackPointExtension><gpxtpx:atemp>2.4</gpxtpx:atemp></gpxtpx:TrackPointExtension></extensions></trkpt><trkpt lat="42.1975241695" lon="13.4129657876"><ele>1776.65</ele><time>2026-03-11T15:25:01Z</time><extensions><gpxtpx:TrackPointExtension><gpxtpx:atemp>2.4</gpxtpx:atemp></gpxtpx:TrackPointExtension></extensions></trkpt><trkpt lat="42.1975244209" lon="13.4129653685"><ele>1776.43</ele><time>2026-03-11T15:25:02Z</time><extensions><gpxtpx:TrackPointExtension><gpxtpx:atemp>2.4</gpxtpx:atemp></gpxtpx:TrackPointExtension></extensions></trkpt><trkpt lat="42.1975246724" lon="13.4129649494"><ele>1775.51</ele><time>2026-03-11T15:25:03Z</time><extensions><gpxtpx:TrackPointExtension><gpxtpx:atemp>2.4</gpxtpx:atemp></gpxtpx:TrackPointExtension></extensions></trkpt><trkpt lat="42.1975250915" lon="13.4129647817"><ele>1775.36</ele><time>2026-03-11T15:25:04Z</time><extensions><gpxtpx:TrackPointExtension><gpxtpx:atemp>2.4</gpxtpx:atemp></gpxtpx:TrackPointExtension></extensions></trkpt><trkpt lat="42.1975251753" lon="13.4129646979"><ele>1775.37</ele><time>2026-03-11T15:25:05Z</time><extensions><gpxtpx:TrackPointExtension><gpxtpx:atemp>2.4</gpxtpx:atemp></gpxtpx:TrackPointExtension></extensions></trkpt><trkpt lat="42.1975252591" lon="13.4129646979"><ele>1775.81</ele><time>2026-03-11T15:25:06Z</time><extensions><gpxtpx:TrackPointExtension><gpxtpx:atemp>2.4</gpxtpx:atemp></gpxtpx:TrackPointExtension></extensions></trkpt><trkpt lat="42.1975252591" lon="13.4129645303"><ele>1776.05</ele><time>2026-03-11T15:25:07Z</time><extensions><gpxtpx:TrackPointExtension><gpxtpx:atemp>2.4</gpxtpx:atemp></gpxtpx:TrackPointExtension></extensions></trkpt><trkpt lat="42.1975254267" lon="13.4129640274"><ele>1776.15</ele><time>2026-03-11T15:25:08Z</time><extensions><gpxtpx:TrackPointExtension><gpxtpx:atemp>2.4</gpxtpx:atemp></gpxtpx:TrackPointExtension></extensions></trkpt><trkpt lat="42.1975256782" lon="13.4129639436"><ele>1776.19</ele><time>2026-03-11T15:25:09Z</time><extensions><gpxtpx:TrackPointExtension><gpxtpx:atemp>2.4</gpxtpx:atemp></gpxtpx:TrackPointExtension></extensions></trkpt><trkpt lat="42.1975261811" lon="13.4129637759"><ele>1776.11</ele><time>2026-03-11T15:25:10Z</time><extensions><gpxtpx:TrackPointExtension><gpxtpx:atemp>2.4</gpxtpx:atemp></gpxtpx:TrackPointExtension></extensions></trkpt><trkpt lat="42.1975257620" lon="13.4129635245"><ele>1775.99</ele><time>2026-03-11T15:25:11Z</time><extensions><gpxtpx:TrackPointExtension><gpxtpx:atemp>2.4</gpxtpx:atemp></gpxtpx:TrackPointExtension></extensions></trkpt><trkpt lat="42.1975254267" lon="13.4129634406"><ele>1775.87</ele><time>2026-03-11T15:25:12Z</time><extensions><gpxtpx:TrackPointExtension><gpxtpx:atemp>2.4</gpxtpx:atemp></gpxtpx:TrackPointExtension></extensions></trkpt><trkpt lat="42.1975251753" lon="13.4129634406"><ele>1775.74</ele><time>2026-03-11T15:25:13Z</time><extensions><gpxtpx:TrackPointExtension><gpxtpx:atemp>2.4</gpxtpx:atemp></gpxtpx:TrackPointExtension></extensions></trkpt><trkpt lat="42.1975251753" lon="13.4129634406"><ele>1775.39</ele><time>2026-03-11T15:25:14Z</time><extensions><gpxtpx:TrackPointExtension><gpxtpx:atemp>2.4</gpxtpx:atemp></gpxtpx:TrackPointExtension></extensions></trkpt><trkpt lat="42.1975251753" lon="13.4129635245"><ele>1775.30</ele><time>2026-03-11T15:25:15Z</time><extensions><gpxtpx:TrackPointExtension><gpxtpx:atemp>2.4</gpxtpx:atemp></gpxtpx:TrackPointExtension></extensions></trkpt><trkpt lat="42.1975252591" lon="13.4129636921"><ele>1775.22</ele><time>2026-03-11T15:25:16Z</time><extensions><gpxtpx:TrackPointExtension><gpxtpx:atemp>2.4</gpxtpx:atemp></gpxtpx:TrackPointExtension></extensions></trkpt><trkpt lat="42.1975255944" lon="13.4129631892"><ele>1775.16</ele><time>2026-03-11T15:25:17Z</time><extensions><gpxtpx:TrackPointExtension><gpxtpx:atemp>2.4</gpxtpx:atemp></gpxtpx:TrackPointExtension></extensions></trkpt><trkpt lat="42.1975255944" lon="13.4129631892"><ele>1775.16</ele><time>2026-03-11T15:25:18Z</time><extensions><gpxtpx:TrackPointExtension><gpxtpx:atemp>2.4</gpxtpx:atemp></gpxtpx:TrackPointExtension></extensions></trkpt><trkpt lat="42.1975257620" lon="13.4129633568"><ele>1775.16</ele><time>2026-03-11T15:25:19Z</time><extensions><gpxtpx:TrackPointExtension><gpxtpx:atemp>2.4</gpxtpx:atemp></gpxtpx:TrackPointExtension></extensions></trkpt><trkpt lat="42.1975259297" lon="13.4129627701"><ele>1775.16</ele><time>2026-03-11T15:25:20Z</time><extensions><gpxtpx:TrackPointExtension><gpxtpx:atemp>2.4</gpxtpx:atemp></gpxtpx:TrackPointExtension></extensions></trkpt><trkpt lat="42.1975258458" lon="13.4129626863"><ele>1775.14</ele><time>2026-03-11T15:25:21Z</time><extensions><gpxtpx:TrackPointExtension><gpxtpx:atemp>2.4</gpxtpx:atemp></gpxtpx:TrackPointExtension></extensions></trkpt><trkpt lat="42.1975257620" lon="13.4129627701"><ele>1775.12</ele><time>2026-03-11T15:25:22Z</time><extensions><gpxtpx:TrackPointExtension><gpxtpx:atemp>2.4</gpxtpx:atemp></gpxtpx:TrackPointExtension></extensions></trkpt><trkpt lat="42.1975258458" lon="13.4129625186"><ele>1775.10</ele><time>2026-03-11T15:25:23Z</time><extensions><gpxtpx:TrackPointExtension><gpxtpx:atemp>2.4</gpxtpx:atemp></gpxtpx:TrackPointExtension></extensions></trkpt><trkpt lat="42.1975258458" lon="13.4129626863"><ele>1775.08</ele><time>2026-03-11T15:25:24Z</time><extensions><gpxtpx:TrackPointExtension><gpxtpx:atemp>2.4</gpxtpx:atemp></gpxtpx:TrackPointExtension></extensions></trkpt><trkpt lat="42.1975260973" lon="13.4129628539"><ele>1775.02</ele><time>2026-03-11T15:25:25Z</time><extensions><gpxtpx:TrackPointExtension><gpxtpx:atemp>2.4</gpxtpx:atemp></gpxtpx:TrackPointExtension></extensions></trkpt><trkpt lat="42.1975260973" lon="13.4129624348"><ele>1774.89</ele><time>2026-03-11T15:25:26Z</time><extensions><gpxtpx:TrackPointExtension><gpxtpx:atemp>2.4</gpxtpx:atemp></gpxtpx:TrackPointExtension></extensions></trkpt><trkpt lat="42.1975261811" lon="13.4129627701"><ele>1774.83</ele><time>2026-03-11T15:25:27Z</time><extensions><gpxtpx:TrackPointExtension><gpxtpx:atemp>2.4</gpxtpx:atemp></gpxtpx:TrackPointExtension></extensions></trkpt><trkpt lat="42.1975263488" lon="13.4129623510"><ele>1774.81</ele><time>2026-03-11T15:25:28Z</time><extensions><gpxtpx:TrackPointExtension><gpxtpx:atemp>2.4</gpxtpx:atemp></gpxtpx:TrackPointExtension></extensions></trkpt><trkpt lat="42.1975265164" lon="13.4129617643"><ele>1774.77</ele><time>2026-03-11T15:25:29Z</time><extensions><gpxtpx:TrackPointExtension><gpxtpx:atemp>2.4</gpxtpx:atemp></gpxtpx:TrackPointExtension></extensions></trkpt><trkpt lat="42.1975264326" lon="13.4129615966"><ele>1774.74</ele><time>2026-03-11T15:25:30Z</time><extensions><gpxtpx:TrackPointExtension><gpxtpx:atemp>2.4</gpxtpx:atemp></gpxtpx:TrackPointExtension></extensions></trkpt><trkpt lat="42.1975266840" lon="13.4129607584"><ele>1774.71</ele><time>2026-03-11T15:25:31Z</time><extensions><gpxtpx:TrackPointExtension><gpxtpx:atemp>2.4</gpxtpx:atemp></gpxtpx:TrackPointExtension></extensions></trkpt><trkpt lat="42.1975271869" lon="13.4129605908"><ele>1774.71</ele><time>2026-03-11T15:25:32Z</time><extensions><gpxtpx:TrackPointExtension><gpxtpx:atemp>2.4</gpxtpx:atemp></gpxtpx:TrackPointExtension></extensions></trkpt><trkpt lat="42.1975274384" lon="13.4129598364"><ele>1774.73</ele><time>2026-03-11T15:25:33Z</time><extensions><gpxtpx:TrackPointExtension><gpxtpx:atemp>2.4</gpxtpx:atemp></gpxtpx:TrackPointExtension></extensions></trkpt><trkpt lat="42.1975279413" lon="13.4129590821"><ele>1774.72</ele><time>2026-03-11T15:25:34Z</time><extensions><gpxtpx:TrackPointExtension><gpxtpx:atemp>2.4</gpxtpx:atemp></gpxtpx:TrackPointExtension></extensions></trkpt><trkpt lat="42.1975281928" lon="13.4129588306"><ele>1774.73</ele><time>2026-03-11T15:25:35Z</time><extensions><gpxtpx:TrackPointExtension><gpxtpx:atemp>2.4</gpxtpx:atemp></gpxtpx:TrackPointExtension></extensions></trkpt><trkpt lat="42.1975282766" lon="13.4129586630"><ele>1774.77</ele><time>2026-03-11T15:25:36Z</time><extensions><gpxtpx:TrackPointExtension><gpxtpx:atemp>2.4</gpxtpx:atemp></gpxtpx:TrackPointExtension></extensions></trkpt><trkpt lat="42.1975281928" lon="13.4129593335"><ele>1774.80</ele><time>2026-03-11T15:25:37Z</time><extensions><gpxtpx:TrackPointExtension><gpxtpx:atemp>2.4</gpxtpx:atemp></gpxtpx:TrackPointExtension></extensions></trkpt><trkpt lat="42.1975282766" lon="13.4129593335"><ele>1774.78</ele><time>2026-03-11T15:25:38Z</time><extensions><gpxtpx:TrackPointExtension><gpxtpx:atemp>2.4</gpxtpx:atemp></gpxtpx:TrackPointExtension></extensions></trkpt><trkpt lat="42.1975286957" lon="13.4129591659"><ele>1774.73</ele><time>2026-03-11T15:25:39Z</time><extensions><gpxtpx:TrackPointExtension><gpxtpx:atemp>2.4</gpxtpx:atemp></gpxtpx:TrackPointExtension></extensions></trkpt><trkpt lat="42.1975286957" lon="13.4129590821"><ele>1774.75</ele><time>2026-03-11T15:25:40Z</time><extensions><gpxtpx:TrackPointExtension><gpxtpx:atemp>2.4</gpxtpx:atemp></gpxtpx:TrackPointExtension></extensions></trkpt><trkpt lat="42.1975286957" lon="13.4129589982"><ele>1774.76</ele><time>2026-03-11T15:25:41Z</time><extensions><gpxtpx:TrackPointExtension><gpxtpx:atemp>2.4</gpxtpx:atemp></gpxtpx:TrackPointExtension></extensions></trkpt><trkpt lat="42.1975288633" lon="13.4129590821"><ele>1774.78</ele><time>2026-03-11T15:25:42Z</time><extensions><gpxtpx:TrackPointExtension><gpxtpx:atemp>2.4</gpxtpx:atemp></gpxtpx:TrackPointExtension></extensions></trkpt><trkpt lat="42.1975292824" lon="13.4129585791"><ele>1774.78</ele><time>2026-03-11T15:25:43Z</time><extensions><gpxtpx:TrackPointExtension><gpxtpx:atemp>2.4</gpxtpx:atemp></gpxtpx:TrackPointExtension></extensions></trkpt><trkpt lat="42.1975292824" lon="13.4129588306"><ele>1774.84</ele><time>2026-03-11T15:25:44Z</time><extensions><gpxtpx:TrackPointExtension><gpxtpx:atemp>2.4</gpxtpx:atemp></gpxtpx:TrackPointExtension></extensions></trkpt><trkpt lat="42.1975292824" lon="13.4129591659"><ele>1774.91</ele><time>2026-03-11T15:25:45Z</time><extensions><gpxtpx:TrackPointExtension><gpxtpx:atemp>2.4</gpxtpx:atemp></gpxtpx:TrackPointExtension></extensions></trkpt><trkpt lat="42.1975294501" lon="13.4129594173"><ele>1774.94</ele><time>2026-03-11T15:25:46Z</time><extensions><gpxtpx:TrackPointExtension><gpxtpx:atemp>2.4</gpxtpx:atemp></gpxtpx:TrackPointExtension></extensions></trkpt><trkpt lat="42.1975296177" lon="13.4129596688"><ele>1774.96</ele><time>2026-03-11T15:25:47Z</time><extensions><gpxtpx:TrackPointExtension><gpxtpx:atemp>2.4</gpxtpx:atemp></gpxtpx:TrackPointExtension></extensions></trkpt><trkpt lat="42.1975294501" lon="13.4129600879"><ele>1774.95</ele><time>2026-03-11T15:25:48Z</time><extensions><gpxtpx:TrackPointExtension><gpxtpx:atemp>2.4</gpxtpx:atemp></gpxtpx:TrackPointExtension></extensions></trkpt><trkpt lat="42.1975293662" lon="13.4129606746"><ele>1774.83</ele><time>2026-03-11T15:25:49Z</time><extensions><gpxtpx:TrackPointExtension><gpxtpx:atemp>2.4</gpxtpx:atemp></gpxtpx:TrackPointExtension></extensions></trkpt><trkpt lat="42.1975294501" lon="13.4129610937"><ele>1774.79</ele><time>2026-03-11T15:25:50Z</time><extensions><gpxtpx:TrackPointExtension><gpxtpx:atemp>2.4</gpxtpx:atemp></gpxtpx:TrackPointExtension></extensions></trkpt><trkpt lat="42.1975294501" lon="13.4129612613"><ele>1774.75</ele><time>2026-03-11T15:25:51Z</time><extensions><gpxtpx:TrackPointExtension><gpxtpx:atemp>2.4</gpxtpx:atemp></gpxtpx:TrackPointExtension></extensions></trkpt><trkpt lat="42.1975296177" lon="13.4129614290"><ele>1774.70</ele><time>2026-03-11T15:25:52Z</time><extensions><gpxtpx:TrackPointExtension><gpxtpx:atemp>2.4</gpxtpx:atemp></gpxtpx:TrackPointExtension></extensions></trkpt><trkpt lat="42.1975294501" lon="13.4129618481"><ele>1774.65</ele><time>2026-03-11T15:25:53Z</time><extensions><gpxtpx:TrackPointExtension><gpxtpx:atemp>2.4</gpxtpx:atemp></gpxtpx:TrackPointExtension></extensions></trkpt><trkpt lat="42.1975293662" lon="13.4129619319"><ele>1774.60</ele><time>2026-03-11T15:25:54Z</time><extensions><gpxtpx:TrackPointExtension><gpxtpx:atemp>2.4</gpxtpx:atemp></gpxtpx:TrackPointExtension></extensions></trkpt><trkpt lat="42.1975294501" lon="13.4129617643"><ele>1774.56</ele><time>2026-03-11T15:25:55Z</time><extensions><gpxtpx:TrackPointExtension><gpxtpx:atemp>2.4</gpxtpx:atemp></gpxtpx:TrackPointExtension></extensions></trkpt><trkpt lat="42.1975296177" lon="13.4129614290"><ele>1774.53</ele><time>2026-03-11T15:25:56Z</time><extensions><gpxtpx:TrackPointExtension><gpxtpx:atemp>2.4</gpxtpx:atemp></gpxtpx:TrackPointExtension></extensions></trkpt><trkpt lat="42.1975297853" lon="13.4129615966"><ele>1774.52</ele><time>2026-03-11T15:25:57Z</time><extensions><gpxtpx:TrackPointExtension><gpxtpx:atemp>2.4</gpxtpx:atemp></gpxtpx:TrackPointExtension></extensions></trkpt><trkpt lat="42.1975299530" lon="13.4129612613"><ele>1774.52</ele><time>2026-03-11T15:25:58Z</time><extensions><gpxtpx:TrackPointExtension><gpxtpx:atemp>2.4</gpxtpx:atemp></gpxtpx:TrackPointExtension></extensions></trkpt><trkpt lat="42.1975301206" lon="13.4129616804"><ele>1774.51</ele><time>2026-03-11T15:25:59Z</time><extensions><gpxtpx:TrackPointExtension><gpxtpx:atemp>2.4</gpxtpx:atemp></gpxtpx:TrackPointExtension></extensions></trkpt><trkpt lat="42.1975304559" lon="13.4129617643"><ele>1774.51</ele><time>2026-03-11T15:26:00Z</time><extensions><gpxtpx:TrackPointExtension><gpxtpx:atemp>2.4</gpxtpx:atemp></gpxtpx:TrackPointExtension></extensions></trkpt><trkpt lat="42.1975305397" lon="13.4129620995"><ele>1774.51</ele><time>2026-03-11T15:26:01Z</time><extensions><gpxtpx:TrackPointExtension><gpxtpx:atemp>2.4</gpxtpx:atemp></gpxtpx:TrackPointExtension></extensions></trkpt><trkpt lat="42.1975302882" lon="13.4129612613"><ele>1774.51</ele><time>2026-03-11T15:26:02Z</time><extensions><gpxtpx:TrackPointExtension><gpxtpx:atemp>2.4</gpxtpx:atemp></gpxtpx:TrackPointExtension></extensions></trkpt><trkpt lat="42.1975301206" lon="13.4129607584"><ele>1774.51</ele><time>2026-03-11T15:26:03Z</time><extensions><gpxtpx:TrackPointExtension><gpxtpx:atemp>2.4</gpxtpx:atemp></gpxtpx:TrackPointExtension></extensions></trkpt><trkpt lat="42.1975303721" lon="13.4129611775"><ele>1774.51</ele><time>2026-03-11T15:26:04Z</time><extensions><gpxtpx:TrackPointExtension><gpxtpx:atemp>2.4</gpxtpx:atemp></gpxtpx:TrackPointExtension></extensions></trkpt><trkpt lat="42.1975304559" lon="13.4129611775"><ele>1774.51</ele><time>2026-03-11T15:26:05Z</time><extensions><gpxtpx:TrackPointExtension><gpxtpx:atemp>2.4</gpxtpx:atemp></gpxtpx:TrackPointExtension></extensions></trkpt><trkpt lat="42.1975304559" lon="13.4129613452"><ele>1774.51</ele><time>2026-03-11T15:26:06Z</time><extensions><gpxtpx:TrackPointExtension><gpxtpx:atemp>2.4</gpxtpx:atemp></gpxtpx:TrackPointExtension></extensions></trkpt><trkpt lat="42.1975305397" lon="13.4129616804"><ele>1774.51</ele><time>2026-03-11T15:26:07Z</time><extensions><gpxtpx:TrackPointExtension><gpxtpx:atemp>2.4</gpxtpx:atemp></gpxtpx:TrackPointExtension></extensions></trkpt><trkpt lat="42.1975305397" lon="13.4129616804"><ele>1774.53</ele><time>2026-03-11T15:26:08Z</time><extensions><gpxtpx:TrackPointExtension><gpxtpx:atemp>2.4</gpxtpx:atemp></gpxtpx:TrackPointExtension></extensions></trkpt><trkpt lat="42.1975300368" lon="13.4129619319"><ele>1774.58</ele><time>2026-03-11T15:26:09Z</time><extensions><gpxtpx:TrackPointExtension><gpxtpx:atemp>2.4</gpxtpx:atemp></gpxtpx:TrackPointExtension></extensions></trkpt><trkpt lat="42.1975300368" lon="13.4129620995"><ele>1774.58</ele><time>2026-03-11T15:26:10Z</time><extensions><gpxtpx:TrackPointExtension><gpxtpx:atemp>2.4</gpxtpx:atemp></gpxtpx:TrackPointExtension></extensions></trkpt><trkpt lat="42.1975301206" lon="13.4129621834"><ele>1774.58</ele><time>2026-03-11T15:26:11Z</time><extensions><gpxtpx:TrackPointExtension><gpxtpx:atemp>2.4</gpxtpx:atemp></gpxtpx:TrackPointExtension></extensions></trkpt><trkpt lat="42.1975301206" lon="13.4129619319"><ele>1774.56</ele><time>2026-03-11T15:26:12Z</time><extensions><gpxtpx:TrackPointExtension><gpxtpx:atemp>2.4</gpxtpx:atemp></gpxtpx:TrackPointExtension></extensions></trkpt><trkpt lat="42.1975303721" lon="13.4129619319"><ele>1774.52</ele><time>2026-03-11T15:26:13Z</time><extensions><gpxtpx:TrackPointExtension><gpxtpx:atemp>2.4</gpxtpx:atemp></gpxtpx:TrackPointExtension></extensions></trkpt><trkpt lat="42.1975301206" lon="13.4129617643"><ele>1774.49</ele><time>2026-03-11T15:26:14Z</time><extensions><gpxtpx:TrackPointExtension><gpxtpx:atemp>2.4</gpxtpx:atemp></gpxtpx:TrackPointExtension></extensions></trkpt><trkpt lat="42.1975302882" lon="13.4129618481"><ele>1774.48</ele><time>2026-03-11T15:26:15Z</time><extensions><gpxtpx:TrackPointExtension><gpxtpx:atemp>2.4</gpxtpx:atemp></gpxtpx:TrackPointExtension></extensions></trkpt><trkpt lat="42.1975301206" lon="13.4129618481"><ele>1774.51</ele><time>2026-03-11T15:26:16Z</time><extensions><gpxtpx:TrackPointExtension><gpxtpx:atemp>2.4</gpxtpx:atemp></gpxtpx:TrackPointExtension></extensions></trkpt><trkpt lat="42.1975299530" lon="13.4129623510"><ele>1774.52</ele><time>2026-03-11T15:26:17Z</time><extensions><gpxtpx:TrackPointExtension><gpxtpx:atemp>2.4</gpxtpx:atemp></gpxtpx:TrackPointExtension></extensions></trkpt><trkpt lat="42.1975300368" lon="13.4129616804"><ele>1774.55</ele><time>2026-03-11T15:26:18Z</time><extensions><gpxtpx:TrackPointExtension><gpxtpx:atemp>2.4</gpxtpx:atemp></gpxtpx:TrackPointExtension></extensions></trkpt><trkpt lat="42.1975303721" lon="13.4129613452"><ele>1774.58</ele><time>2026-03-11T15:26:19Z</time><extensions><gpxtpx:TrackPointExtension><gpxtpx:atemp>2.4</gpxtpx:atemp></gpxtpx:TrackPointExtension></extensions></trkpt><trkpt lat="42.1975305397" lon="13.4129614290"><ele>1774.60</ele><time>2026-03-11T15:26:20Z</time><extensions><gpxtpx:TrackPointExtension><gpxtpx:atemp>2.4</gpxtpx:atemp></gpxtpx:TrackPointExtension></extensions></trkpt><trkpt lat="42.1975303721" lon="13.4129612613"><ele>1774.60</ele><time>2026-03-11T15:26:21Z</time><extensions><gpxtpx:TrackPointExtension><gpxtpx:atemp>2.4</gpxtpx:atemp></gpxtpx:TrackPointExtension></extensions></trkpt><trkpt lat="42.1975302882" lon="13.4129610937"><ele>1774.59</ele><time>2026-03-11T15:26:22Z</time><extensions><gpxtpx:TrackPointExtension><gpxtpx:atemp>2.4</gpxtpx:atemp></gpxtpx:TrackPointExtension></extensions></trkpt><trkpt lat="42.1975299530" lon="13.4129608423"><ele>1774.52</ele><time>2026-03-11T15:26:23Z</time><extensions><gpxtpx:TrackPointExtension><gpxtpx:atemp>2.4</gpxtpx:atemp></gpxtpx:TrackPointExtension></extensions></trkpt><trkpt lat="42.1975301206" lon="13.4129608423"><ele>1774.51</ele><time>2026-03-11T15:26:24Z</time><extensions><gpxtpx:TrackPointExtension><gpxtpx:atemp>2.4</gpxtpx:atemp></gpxtpx:TrackPointExtension></extensions></trkpt><trkpt lat="42.1975304559" lon="13.4129611775"><ele>1774.48</ele><time>2026-03-11T15:26:25Z</time><extensions><gpxtpx:TrackPointExtension><gpxtpx:atemp>2.4</gpxtpx:atemp></gpxtpx:TrackPointExtension></extensions></trkpt><trkpt lat="42.1975304559" lon="13.4129608423"><ele>1774.48</ele><time>2026-03-11T15:26:26Z</time><extensions><gpxtpx:TrackPointExtension><gpxtpx:atemp>2.4</gpxtpx:atemp></gpxtpx:TrackPointExtension></extensions></trkpt><trkpt lat="42.1975300368" lon="13.4129607584"><ele>1774.50</ele><time>2026-03-11T15:26:27Z</time><extensions><gpxtpx:TrackPointExtension><gpxtpx:atemp>2.4</gpxtpx:atemp></gpxtpx:TrackPointExtension></extensions></trkpt><trkpt lat="42.1975301206" lon="13.4129606746"><ele>1774.51</ele><time>2026-03-11T15:26:28Z</time><extensions><gpxtpx:TrackPointExtension><gpxtpx:atemp>2.4</gpxtpx:atemp></gpxtpx:TrackPointExtension></extensions></trkpt><trkpt lat="42.1975302882" lon="13.4129607584"><ele>1774.51</ele><time>2026-03-11T15:26:29Z</time><extensions><gpxtpx:TrackPointExtension><gpxtpx:atemp>2.4</gpxtpx:atemp></gpxtpx:TrackPointExtension></extensions></trkpt><trkpt lat="42.1975303721" lon="13.4129604232"><ele>1774.50</ele><time>2026-03-11T15:26:30Z</time><extensions><gpxtpx:TrackPointExtension><gpxtpx:atemp>2.4</gpxtpx:atemp></gpxtpx:TrackPointExtension></extensions></trkpt><trkpt lat="42.1975303721" lon="13.4129603393"><ele>1774.46</ele><time>2026-03-11T15:26:31Z</time><extensions><gpxtpx:TrackPointExtension><gpxtpx:atemp>2.4</gpxtpx:atemp></gpxtpx:TrackPointExtension></extensions></trkpt><trkpt lat="42.1975304559" lon="13.4129604232"><ele>1774.44</ele><time>2026-03-11T15:26:32Z</time><extensions><gpxtpx:TrackPointExtension><gpxtpx:atemp>2.1</gpxtpx:atemp></gpxtpx:TrackPointExtension></extensions></trkpt><trkpt lat="42.1975303721" lon="13.4129603393"><ele>1774.42</ele><time>2026-03-11T15:26:33Z</time><extensions><gpxtpx:TrackPointExtension><gpxtpx:atemp>2.1</gpxtpx:atemp></gpxtpx:TrackPointExtension></extensions></trkpt><trkpt lat="42.1975303721" lon="13.4129602555"><ele>1774.38</ele><time>2026-03-11T15:26:34Z</time><extensions><gpxtpx:TrackPointExtension><gpxtpx:atemp>2.1</gpxtpx:atemp></gpxtpx:TrackPointExtension></extensions></trkpt><trkpt lat="42.1975304559" lon="13.4129604232"><ele>1774.35</ele><time>2026-03-11T15:26:35Z</time><extensions><gpxtpx:TrackPointExtension><gpxtpx:atemp>2.1</gpxtpx:atemp></gpxtpx:TrackPointExtension></extensions></trkpt><trkpt lat="42.1975304559" lon="13.4129603393"><ele>1774.27</ele><time>2026-03-11T15:26:36Z</time><extensions><gpxtpx:TrackPointExtension><gpxtpx:atemp>2.1</gpxtpx:atemp></gpxtpx:TrackPointExtension></extensions></trkpt><trkpt lat="42.1975303721" lon="13.4129603393"><ele>1774.20</ele><time>2026-03-11T15:26:37Z</time><extensions><gpxtpx:TrackPointExtension><gpxtpx:atemp>2.1</gpxtpx:atemp></gpxtpx:TrackPointExtension></extensions></trkpt><trkpt lat="42.1975305397" lon="13.4129602555"><ele>1774.16</ele><time>2026-03-11T15:26:38Z</time><extensions><gpxtpx:TrackPointExtension><gpxtpx:atemp>2.1</gpxtpx:atemp></gpxtpx:TrackPointExtension></extensions></trkpt><trkpt lat="42.1975303721" lon="13.4129603393"><ele>1774.13</ele><time>2026-03-11T15:26:39Z</time><extensions><gpxtpx:TrackPointExtension><gpxtpx:atemp>2.1</gpxtpx:atemp></gpxtpx:TrackPointExtension></extensions></trkpt><trkpt lat="42.1975303721" lon="13.4129602555"><ele>1774.13</ele><time>2026-03-11T15:26:40Z</time><extensions><gpxtpx:TrackPointExtension><gpxtpx:atemp>2.1</gpxtpx:atemp></gpxtpx:TrackPointExtension></extensions></trkpt><trkpt lat="42.1975304559" lon="13.4129604232"><ele>1774.11</ele><time>2026-03-11T15:26:41Z</time><extensions><gpxtpx:TrackPointExtension><gpxtpx:atemp>2.1</gpxtpx:atemp></gpxtpx:TrackPointExtension></extensions></trkpt><trkpt lat="42.1975303721" lon="13.4129603393"><ele>1774.08</ele><time>2026-03-11T15:26:42Z</time><extensions><gpxtpx:TrackPointExtension><gpxtpx:atemp>2.1</gpxtpx:atemp></gpxtpx:TrackPointExtension></extensions></trkpt><trkpt lat="42.1975304559" lon="13.4129604232"><ele>1774.03</ele><time>2026-03-11T15:26:43Z</time><extensions><gpxtpx:TrackPointExtension><gpxtpx:atemp>2.1</gpxtpx:atemp></gpxtpx:TrackPointExtension></extensions></trkpt><trkpt lat="42.1975312941" lon="13.4129597526"><ele>1774.01</ele><time>2026-03-11T15:26:44Z</time><extensions><gpxtpx:TrackPointExtension><gpxtpx:atemp>2.1</gpxtpx:atemp></gpxtpx:TrackPointExtension></extensions></trkpt><trkpt lat="42.1975311264" lon="13.4129596688"><ele>1773.99</ele><time>2026-03-11T15:26:45Z</time><extensions><gpxtpx:TrackPointExtension><gpxtpx:atemp>2.1</gpxtpx:atemp></gpxtpx:TrackPointExtension></extensions></trkpt><trkpt lat="42.1975312941" lon="13.4129597526"><ele>1773.97</ele><time>2026-03-11T15:26:46Z</time><extensions><gpxtpx:TrackPointExtension><gpxtpx:atemp>2.1</gpxtpx:atemp></gpxtpx:TrackPointExtension></extensions></trkpt><trkpt lat="42.1975314617" lon="13.4129594173"><ele>1773.97</ele><time>2026-03-11T15:26:47Z</time><extensions><gpxtpx:TrackPointExtension><gpxtpx:atemp>2.1</gpxtpx:atemp></gpxtpx:TrackPointExtension></extensions></trkpt><trkpt lat="42.1975314617" lon="13.4129594173"><ele>1773.98</ele><time>2026-03-11T15:26:48Z</time><extensions><gpxtpx:TrackPointExtension><gpxtpx:atemp>2.1</gpxtpx:atemp></gpxtpx:TrackPointExtension></extensions></trkpt><trkpt lat="42.1975315455" lon="13.4129592497"><ele>1774.01</ele><time>2026-03-11T15:26:49Z</time><extensions><gpxtpx:TrackPointExtension><gpxtpx:atemp>2.1</gpxtpx:atemp></gpxtpx:TrackPointExtension></extensions></trkpt><trkpt lat="42.1975320484" lon="13.4129589982"><ele>1774.02</ele><time>2026-03-11T15:26:50Z</time><extensions><gpxtpx:TrackPointExtension><gpxtpx:atemp>2.1</gpxtpx:atemp></gpxtpx:TrackPointExtension></extensions></trkpt><trkpt lat="42.1975318808" lon="13.4129588306"><ele>1774.02</ele><time>2026-03-11T15:26:51Z</time><extensions><gpxtpx:TrackPointExtension><gpxtpx:atemp>2.1</gpxtpx:atemp></gpxtpx:TrackPointExtension></extensions></trkpt><trkpt lat="42.1975322999" lon="13.4129583277"><ele>1774.03</ele><time>2026-03-11T15:26:52Z</time><extensions><gpxtpx:TrackPointExtension><gpxtpx:atemp>2.1</gpxtpx:atemp></gpxtpx:TrackPointExtension></extensions></trkpt><trkpt lat="42.1975318808" lon="13.4129582439"><ele>1774.02</ele><time>2026-03-11T15:26:53Z</time><extensions><gpxtpx:TrackPointExtension><gpxtpx:atemp>2.1</gpxtpx:atemp></gpxtpx:TrackPointExtension></extensions></trkpt><trkpt lat="42.1975318808" lon="13.4129579924"><ele>1774.02</ele><time>2026-03-11T15:26:54Z</time><extensions><gpxtpx:TrackPointExtension><gpxtpx:atemp>2.1</gpxtpx:atemp></gpxtpx:TrackPointExtension></extensions></trkpt><trkpt lat="42.1975320484" lon="13.4129581600"><ele>1773.96</ele><time>2026-03-11T15:26:55Z</time><extensions><gpxtpx:TrackPointExtension><gpxtpx:atemp>2.1</gpxtpx:atemp></gpxtpx:TrackPointExtension></extensions></trkpt><trkpt lat="42.1975318808" lon="13.4129581600"><ele>1773.89</ele><time>2026-03-11T15:26:56Z</time><extensions><gpxtpx:TrackPointExtension><gpxtpx:atemp>2.1</gpxtpx:atemp></gpxtpx:TrackPointExtension></extensions></trkpt><trkpt lat="42.1975318808" lon="13.4129583277"><ele>1773.88</ele><time>2026-03-11T15:26:57Z</time><extensions><gpxtpx:TrackPointExtension><gpxtpx:atemp>2.1</gpxtpx:atemp></gpxtpx:TrackPointExtension></extensions></trkpt><trkpt lat="42.1975315455" lon="13.4129590821"><ele>1773.86</ele><time>2026-03-11T15:26:58Z</time><extensions><gpxtpx:TrackPointExtension><gpxtpx:atemp>2.1</gpxtpx:atemp></gpxtpx:TrackPointExtension></extensions></trkpt><trkpt lat="42.1975319646" lon="13.4129594173"><ele>1773.90</ele><time>2026-03-11T15:26:59Z</time><extensions><gpxtpx:TrackPointExtension><gpxtpx:atemp>2.1</gpxtpx:atemp></gpxtpx:TrackPointExtension></extensions></trkpt><trkpt lat="42.1975316294" lon="13.4129579924"><ele>1773.91</ele><time>2026-03-11T15:27:00Z</time><extensions><gpxtpx:TrackPointExtension><gpxtpx:atemp>2.1</gpxtpx:atemp></gpxtpx:TrackPointExtension></extensions></trkpt><trkpt lat="42.1975323837" lon="13.4129576571"><ele>1773.95</ele><time>2026-03-11T15:27:01Z</time><extensions><gpxtpx:TrackPointExtension><gpxtpx:atemp>2.1</gpxtpx:atemp></gpxtpx:TrackPointExtension></extensions></trkpt><trkpt lat="42.1975323837" lon="13.4129573219"><ele>1773.99</ele><time>2026-03-11T15:27:02Z</time><extensions><gpxtpx:TrackPointExtension><gpxtpx:atemp>2.1</gpxtpx:atemp></gpxtpx:TrackPointExtension></extensions></trkpt><trkpt lat="42.1975325514" lon="13.4129573219"><ele>1774.01</ele><time>2026-03-11T15:27:03Z</time><extensions><gpxtpx:TrackPointExtension><gpxtpx:atemp>2.1</gpxtpx:atemp></gpxtpx:TrackPointExtension></extensions></trkpt><trkpt lat="42.1975325514" lon="13.4129566513"><ele>1774.04</ele><time>2026-03-11T15:27:04Z</time><extensions><gpxtpx:TrackPointExtension><gpxtpx:atemp>2.1</gpxtpx:atemp></gpxtpx:TrackPointExtension></extensions></trkpt><trkpt lat="42.1975326352" lon="13.4129563998"><ele>1774.07</ele><time>2026-03-11T15:27:05Z</time><extensions><gpxtpx:TrackPointExtension><gpxtpx:atemp>2.1</gpxtpx:atemp></gpxtpx:TrackPointExtension></extensions></trkpt><trkpt lat="42.1975325514" lon="13.4129561484"><ele>1774.11</ele><time>2026-03-11T15:27:06Z</time><extensions><gpxtpx:TrackPointExtension><gpxtpx:atemp>2.1</gpxtpx:atemp></gpxtpx:TrackPointExtension></extensions></trkpt><trkpt lat="42.1975324675" lon="13.4129562322"><ele>1774.13</ele><time>2026-03-11T15:27:07Z</time><extensions><gpxtpx:TrackPointExtension><gpxtpx:atemp>2.1</gpxtpx:atemp></gpxtpx:TrackPointExtension></extensions></trkpt><trkpt lat="42.1975322999" lon="13.4129570704"><ele>1774.14</ele><time>2026-03-11T15:27:08Z</time><extensions><gpxtpx:TrackPointExtension><gpxtpx:atemp>2.1</gpxtpx:atemp></gpxtpx:TrackPointExtension></extensions></trkpt><trkpt lat="42.1975323837" lon="13.4129569866"><ele>1774.17</ele><time>2026-03-11T15:27:09Z</time><extensions><gpxtpx:TrackPointExtension><gpxtpx:atemp>2.1</gpxtpx:atemp></gpxtpx:TrackPointExtension></extensions></trkpt><trkpt lat="42.1975321323" lon="13.4129570704"><ele>1774.21</ele><time>2026-03-11T15:27:10Z</time><extensions><gpxtpx:TrackPointExtension><gpxtpx:atemp>2.1</gpxtpx:atemp></gpxtpx:TrackPointExtension></extensions></trkpt><trkpt lat="42.1975321323" lon="13.4129569866"><ele>1774.21</ele><time>2026-03-11T15:27:11Z</time><extensions><gpxtpx:TrackPointExtension><gpxtpx:atemp>2.1</gpxtpx:atemp></gpxtpx:TrackPointExtension></extensions></trkpt><trkpt lat="42.1975321323" lon="13.4129567351"><ele>1774.21</ele><time>2026-03-11T15:27:12Z</time><extensions><gpxtpx:TrackPointExtension><gpxtpx:atemp>2.1</gpxtpx:atemp></gpxtpx:TrackPointExtension></extensions></trkpt><trkpt lat="42.1975328866" lon="13.4129580762"><ele>1774.21</ele><time>2026-03-11T15:27:13Z</time><extensions><gpxtpx:TrackPointExtension><gpxtpx:atemp>2.1</gpxtpx:atemp></gpxtpx:TrackPointExtension></extensions></trkpt><trkpt lat="42.1975338925" lon="13.4129589982"><ele>1774.21</ele><time>2026-03-11T15:27:14Z</time><extensions><gpxtpx:TrackPointExtension><gpxtpx:atemp>2.1</gpxtpx:atemp></gpxtpx:TrackPointExtension></extensions></trkpt><trkpt lat="42.1975373290" lon="13.4129636921"><ele>1774.20</ele><time>2026-03-11T15:27:15Z</time><extensions><gpxtpx:TrackPointExtension><gpxtpx:atemp>2.1</gpxtpx:atemp></gpxtpx:TrackPointExtension></extensions></trkpt><trkpt lat="42.1975472197" lon="13.4129722416"><ele>1774.19</ele><time>2026-03-11T15:27:16Z</time><extensions><gpxtpx:TrackPointExtension><gpxtpx:atemp>2.1</gpxtpx:atemp></gpxtpx:TrackPointExtension></extensions></trkpt><trkpt lat="42.1975550987" lon="13.4129775222"><ele>1774.17</ele><time>2026-03-11T15:27:17Z</time><extensions><gpxtpx:TrackPointExtension><gpxtpx:atemp>2.1</gpxtpx:atemp></gpxtpx:TrackPointExtension></extensions></trkpt><trkpt lat="42.1975647379" lon="13.4129858203"><ele>1774.16</ele><time>2026-03-11T15:27:18Z</time><extensions><gpxtpx:TrackPointExtension><gpxtpx:atemp>2.1</gpxtpx:atemp></gpxtpx:TrackPointExtension></extensions></trkpt><trkpt lat="42.1975733712" lon="13.4129939508"><ele>1774.14</ele><time>2026-03-11T15:27:19Z</time><extensions><gpxtpx:TrackPointExtension><gpxtpx:atemp>2.1</gpxtpx:atemp></gpxtpx:TrackPointExtension></extensions></trkpt><trkpt lat="42.1975825913" lon="13.4130006563"><ele>1774.13</ele><time>2026-03-11T15:27:20Z</time><extensions><gpxtpx:TrackPointExtension><gpxtpx:atemp>2.1</gpxtpx:atemp></gpxtpx:TrackPointExtension></extensions></trkpt><trkpt lat="42.1975921467" lon="13.4130085353"><ele>1774.05</ele><time>2026-03-11T15:27:21Z</time><extensions><gpxtpx:TrackPointExtension><gpxtpx:atemp>2.1</gpxtpx:atemp></gpxtpx:TrackPointExtension></extensions></trkpt><trkpt lat="42.1976030432" lon="13.4130154923"><ele>1774.01</ele><time>2026-03-11T15:27:22Z</time><extensions><gpxtpx:TrackPointExtension><gpxtpx:atemp>2.1</gpxtpx:atemp></gpxtpx:TrackPointExtension></extensions></trkpt><trkpt lat="42.1976133529" lon="13.4130222816"><ele>1773.97</ele><time>2026-03-11T15:27:23Z</time><extensions><gpxtpx:TrackPointExtension><gpxtpx:atemp>2.1</gpxtpx:atemp></gpxtpx:TrackPointExtension></extensions></trkpt><trkpt lat="42.1976256743" lon="13.4130306635"><ele>1773.93</ele><time>2026-03-11T15:27:24Z</time><extensions><gpxtpx:TrackPointExtension><gpxtpx:atemp>2.1</gpxtpx:atemp></gpxtpx:TrackPointExtension></extensions></trkpt><trkpt lat="42.1976363193" lon="13.4130380396"><ele>1773.89</ele><time>2026-03-11T15:27:25Z</time><extensions><gpxtpx:TrackPointExtension><gpxtpx:atemp>2.1</gpxtpx:atemp></gpxtpx:TrackPointExtension></extensions></trkpt><trkpt lat="42.1976472996" lon="13.4130456671"><ele>1773.85</ele><time>2026-03-11T15:27:26Z</time><extensions><gpxtpx:TrackPointExtension><gpxtpx:atemp>2.1</gpxtpx:atemp></gpxtpx:TrackPointExtension></extensions></trkpt><trkpt lat="42.1976606268" lon="13.4130528755"><ele>1773.82</ele><time>2026-03-11T15:27:27Z</time><extensions><gpxtpx:TrackPointExtension><gpxtpx:atemp>2.1</gpxtpx:atemp></gpxtpx:TrackPointExtension></extensions></trkpt><trkpt lat="42.1976720262" lon="13.4130619280"><ele>1773.80</ele><time>2026-03-11T15:27:28Z</time><extensions><gpxtpx:TrackPointExtension><gpxtpx:atemp>2.1</gpxtpx:atemp></gpxtpx:TrackPointExtension></extensions></trkpt><trkpt lat="42.1976848505" lon="13.4130732436"><ele>1773.77</ele><time>2026-03-11T15:27:29Z</time><extensions><gpxtpx:TrackPointExtension><gpxtpx:atemp>2.1</gpxtpx:atemp></gpxtpx:TrackPointExtension></extensions></trkpt><trkpt lat="42.1976973396" lon="13.4130857326"><ele>1773.72</ele><time>2026-03-11T15:27:30Z</time><extensions><gpxtpx:TrackPointExtension><gpxtpx:atemp>2.1</gpxtpx:atemp></gpxtpx:TrackPointExtension></extensions></trkpt><trkpt lat="42.1977090742" lon="13.4131005686"><ele>1773.65</ele><time>2026-03-11T15:27:31Z</time><extensions><gpxtpx:TrackPointExtension><gpxtpx:atemp>2.1</gpxtpx:atemp></gpxtpx:TrackPointExtension></extensions></trkpt><trkpt lat="42.1977230720" lon="13.4131168295"><ele>1773.58</ele><time>2026-03-11T15:27:32Z</time><extensions><gpxtpx:TrackPointExtension><gpxtpx:atemp>2.4</gpxtpx:atemp></gpxtpx:TrackPointExtension></extensions></trkpt><trkpt lat="42.1977383271" lon="13.4131401312"><ele>1773.36</ele><time>2026-03-11T15:27:33Z</time><extensions><gpxtpx:TrackPointExtension><gpxtpx:atemp>2.4</gpxtpx:atemp></gpxtpx:TrackPointExtension></extensions></trkpt><trkpt lat="42.1977567673" lon="13.4131647740"><ele>1773.21</ele><time>2026-03-11T15:27:34Z</time><extensions><gpxtpx:TrackPointExtension><gpxtpx:atemp>2.4</gpxtpx:atemp></gpxtpx:TrackPointExtension></extensions></trkpt><trkpt lat="42.1977812424" lon="13.4131944459"><ele>1773.07</ele><time>2026-03-11T15:27:35Z</time><extensions><gpxtpx:TrackPointExtension><gpxtpx:atemp>2.4</gpxtpx:atemp></gpxtpx:TrackPointExtension></extensions></trkpt><trkpt lat="42.1978047956" lon="13.4132232796"><ele>1772.87</ele><time>2026-03-11T15:27:36Z</time><extensions><gpxtpx:TrackPointExtension><gpxtpx:atemp>2.4</gpxtpx:atemp></gpxtpx:TrackPointExtension></extensions></trkpt><trkpt lat="42.1978235710" lon="13.4132485930"><ele>1772.66</ele><time>2026-03-11T15:27:37Z</time><extensions><gpxtpx:TrackPointExtension><gpxtpx:atemp>2.4</gpxtpx:atemp></gpxtpx:TrackPointExtension></extensions></trkpt><trkpt lat="42.1978411730" lon="13.4132809471"><ele>1772.42</ele><time>2026-03-11T15:27:38Z</time><extensions><gpxtpx:TrackPointExtension><gpxtpx:atemp>2.4</gpxtpx:atemp></gpxtpx:TrackPointExtension></extensions></trkpt><trkpt lat="42.1978521533" lon="13.4133098647"><ele>1772.13</ele><time>2026-03-11T15:27:39Z</time><extensions><gpxtpx:TrackPointExtension><gpxtpx:atemp>2.4</gpxtpx:atemp></gpxtpx:TrackPointExtension></extensions></trkpt><trkpt lat="42.1978610381" lon="13.4133378603"><ele>1771.86</ele><time>2026-03-11T15:27:40Z</time><extensions><gpxtpx:TrackPointExtension><gpxtpx:atemp>2.4</gpxtpx:atemp></gpxtpx:TrackPointExtension></extensions></trkpt><trkpt lat="42.1978683304" lon="13.4133545402"><ele>1771.64</ele><time>2026-03-11T15:27:41Z</time><extensions><gpxtpx:TrackPointExtension><gpxtpx:atemp>2.4</gpxtpx:atemp></gpxtpx:TrackPointExtension></extensions></trkpt><trkpt lat="42.1978728566" lon="13.4133745730"><ele>1771.44</ele><time>2026-03-11T15:27:42Z</time><extensions><gpxtpx:TrackPointExtension><gpxtpx:atemp>2.4</gpxtpx:atemp></gpxtpx:TrackPointExtension></extensions></trkpt><trkpt lat="42.1978833340" lon="13.4133899957"><ele>1771.26</ele><time>2026-03-11T15:27:43Z</time><extensions><gpxtpx:TrackPointExtension><gpxtpx:atemp>2.4</gpxtpx:atemp></gpxtpx:TrackPointExtension></extensions></trkpt><trkpt lat="42.1978880279" lon="13.4134274628"><ele>1770.91</ele><time>2026-03-11T15:27:44Z</time><extensions><gpxtpx:TrackPointExtension><gpxtpx:atemp>2.4</gpxtpx:atemp></gpxtpx:TrackPointExtension></extensions></trkpt><trkpt lat="42.1978942305" lon="13.4134578891"><ele>1770.78</ele><time>2026-03-11T15:27:45Z</time><extensions><gpxtpx:TrackPointExtension><gpxtpx:atemp>2.4</gpxtpx:atemp></gpxtpx:TrackPointExtension></extensions></trkpt><trkpt lat="42.1978979185" lon="13.4134989604"><ele>1770.66</ele><time>2026-03-11T15:27:46Z</time><extensions><gpxtpx:TrackPointExtension><gpxtpx:atemp>2.4</gpxtpx:atemp></gpxtpx:TrackPointExtension></extensions></trkpt><trkpt lat="42.1979077253" lon="13.4135516826"><ele>1770.50</ele><time>2026-03-11T15:27:47Z</time><extensions><gpxtpx:TrackPointExtension><gpxtpx:atemp>2.4</gpxtpx:atemp></gpxtpx:TrackPointExtension></extensions></trkpt><trkpt lat="42.1979180351" lon="13.4136073384"><ele>1770.28</ele><time>2026-03-11T15:27:48Z</time><extensions><gpxtpx:TrackPointExtension><gpxtpx:atemp>2.4</gpxtpx:atemp></gpxtpx:TrackPointExtension></extensions></trkpt><trkpt lat="42.1979332902" lon="13.4136690293"><ele>1769.98</ele><time>2026-03-11T15:27:49Z</time><extensions><gpxtpx:TrackPointExtension><gpxtpx:atemp>2.4</gpxtpx:atemp></gpxtpx:TrackPointExtension></extensions></trkpt><trkpt lat="42.1979515627" lon="13.4137335699"><ele>1769.64</ele><time>2026-03-11T15:27:50Z</time><extensions><gpxtpx:TrackPointExtension><gpxtpx:atemp>2.4</gpxtpx:atemp></gpxtpx:TrackPointExtension></extensions></trkpt><trkpt lat="42.1979714278" lon="13.4137920756"><ele>1769.24</ele><time>2026-03-11T15:27:51Z</time><extensions><gpxtpx:TrackPointExtension><gpxtpx:atemp>2.4</gpxtpx:atemp></gpxtpx:TrackPointExtension></extensions></trkpt><trkpt lat="42.1979938913" lon="13.4138398524"><ele>1768.77</ele><time>2026-03-11T15:27:52Z</time><extensions><gpxtpx:TrackPointExtension><gpxtpx:atemp>2.4</gpxtpx:atemp></gpxtpx:TrackPointExtension></extensions></trkpt><trkpt lat="42.1980208810" lon="13.4138768166"><ele>1768.22</ele><time>2026-03-11T15:27:53Z</time><extensions><gpxtpx:TrackPointExtension><gpxtpx:atemp>2.4</gpxtpx:atemp></gpxtpx:TrackPointExtension></extensions></trkpt><trkpt lat="42.1980527323" lon="13.4139007889"><ele>1767.61</ele><time>2026-03-11T15:27:54Z</time><extensions><gpxtpx:TrackPointExtension><gpxtpx:atemp>2.4</gpxtpx:atemp></gpxtpx:TrackPointExtension></extensions></trkpt><trkpt lat="42.1980885230" lon="13.4139123559"><ele>1767.05</ele><time>2026-03-11T15:27:55Z</time><extensions><gpxtpx:TrackPointExtension><gpxtpx:atemp>2.4</gpxtpx:atemp></gpxtpx:TrackPointExtension></extensions></trkpt><trkpt lat="42.1981231403" lon="13.4139193967"><ele>1766.03</ele><time>2026-03-11T15:27:56Z</time><extensions><gpxtpx:TrackPointExtension><gpxtpx:atemp>2.4</gpxtpx:atemp></gpxtpx:TrackPointExtension></extensions></trkpt><trkpt lat="42.1981531475" lon="13.4139272757"><ele>1765.49</ele><time>2026-03-11T15:27:57Z</time><extensions><gpxtpx:TrackPointExtension><gpxtpx:atemp>2.4</gpxtpx:atemp></gpxtpx:TrackPointExtension></extensions></trkpt><trkpt lat="42.1981810592" lon="13.4139379207"><ele>1764.98</ele><time>2026-03-11T15:27:58Z</time><extensions><gpxtpx:TrackPointExtension><gpxtpx:atemp>2.4</gpxtpx:atemp></gpxtpx:TrackPointExtension></extensions></trkpt><trkpt lat="42.1982056182" lon="13.4139506612"><ele>1764.51</ele><time>2026-03-11T15:27:59Z</time><extensions><gpxtpx:TrackPointExtension><gpxtpx:atemp>2.4</gpxtpx:atemp></gpxtpx:TrackPointExtension></extensions></trkpt><trkpt lat="42.1982258186" lon="13.4139656648"><ele>1764.11</ele><time>2026-03-11T15:28:00Z</time><extensions><gpxtpx:TrackPointExtension><gpxtpx:atemp>2.4</gpxtpx:atemp></gpxtpx:TrackPointExtension></extensions></trkpt><trkpt lat="42.1982455999" lon="13.4139825962"><ele>1763.79</ele><time>2026-03-11T15:28:01Z</time><extensions><gpxtpx:TrackPointExtension><gpxtpx:atemp>2.4</gpxtpx:atemp></gpxtpx:TrackPointExtension></extensions></trkpt><trkpt lat="42.1982578374" lon="13.4140142798"><ele>1763.54</ele><time>2026-03-11T15:28:02Z</time><extensions><gpxtpx:TrackPointExtension><gpxtpx:atemp>2.4</gpxtpx:atemp></gpxtpx:TrackPointExtension></extensions></trkpt><trkpt lat="42.1982728411" lon="13.4140425269"><ele>1763.31</ele><time>2026-03-11T15:28:03Z</time><extensions><gpxtpx:TrackPointExtension><gpxtpx:atemp>2.4</gpxtpx:atemp></gpxtpx:TrackPointExtension></extensions></trkpt><trkpt lat="42.1982940473" lon="13.4140729532"><ele>1763.02</ele><time>2026-03-11T15:28:04Z</time><extensions><gpxtpx:TrackPointExtension><gpxtpx:atemp>2.4</gpxtpx:atemp></gpxtpx:TrackPointExtension></extensions></trkpt><trkpt lat="42.1983159240" lon="13.4141037986"><ele>1762.70</ele><time>2026-03-11T15:28:05Z</time><extensions><gpxtpx:TrackPointExtension><gpxtpx:atemp>2.4</gpxtpx:atemp></gpxtpx:TrackPointExtension></extensions></trkpt><trkpt lat="42.1983369626" lon="13.4141375776"><ele>1762.45</ele><time>2026-03-11T15:28:06Z</time><extensions><gpxtpx:TrackPointExtension><gpxtpx:atemp>2.4</gpxtpx:atemp></gpxtpx:TrackPointExtension></extensions></trkpt><trkpt lat="42.1983653773" lon="13.4141759668"><ele>1761.91</ele><time>2026-03-11T15:28:07Z</time><extensions><gpxtpx:TrackPointExtension><gpxtpx:atemp>2.4</gpxtpx:atemp></gpxtpx:TrackPointExtension></extensions></trkpt><trkpt lat="42.1983938757" lon="13.4142194688"><ele>1761.56</ele><time>2026-03-11T15:28:08Z</time><extensions><gpxtpx:TrackPointExtension><gpxtpx:atemp>2.4</gpxtpx:atemp></gpxtpx:TrackPointExtension></extensions></trkpt><trkpt lat="42.1984275710" lon="13.4142614622"><ele>1761.25</ele><time>2026-03-11T15:28:09Z</time><extensions><gpxtpx:TrackPointExtension><gpxtpx:atemp>2.4</gpxtpx:atemp></gpxtpx:TrackPointExtension></extensions></trkpt><trkpt lat="42.1984551474" lon="13.4143022820"><ele>1760.97</ele><time>2026-03-11T15:28:10Z</time><extensions><gpxtpx:TrackPointExtension><gpxtpx:atemp>2.4</gpxtpx:atemp></gpxtpx:TrackPointExtension></extensions></trkpt><trkpt lat="42.1984841488" lon="13.4143364802"><ele>1760.70</ele><time>2026-03-11T15:28:11Z</time><extensions><gpxtpx:TrackPointExtension><gpxtpx:atemp>2.4</gpxtpx:atemp></gpxtpx:TrackPointExtension></extensions></trkpt><trkpt lat="42.1985063609" lon="13.4143651463"><ele>1760.43</ele><time>2026-03-11T15:28:12Z</time><extensions><gpxtpx:TrackPointExtension><gpxtpx:atemp>2.4</gpxtpx:atemp></gpxtpx:TrackPointExtension></extensions></trkpt><trkpt lat="42.1985308360" lon="13.4143843409"><ele>1760.10</ele><time>2026-03-11T15:28:13Z</time><extensions><gpxtpx:TrackPointExtension><gpxtpx:atemp>2.4</gpxtpx:atemp></gpxtpx:TrackPointExtension></extensions></trkpt><trkpt lat="42.1985583287" lon="13.4143945668"><ele>1759.73</ele><time>2026-03-11T15:28:14Z</time><extensions><gpxtpx:TrackPointExtension><gpxtpx:atemp>2.4</gpxtpx:atemp></gpxtpx:TrackPointExtension></extensions></trkpt><trkpt lat="42.1985851508" lon="13.4143860172"><ele>1759.37</ele><time>2026-03-11T15:28:15Z</time><extensions><gpxtpx:TrackPointExtension><gpxtpx:atemp>2.4</gpxtpx:atemp></gpxtpx:TrackPointExtension></extensions></trkpt><trkpt lat="42.1986121405" lon="13.4143774677"><ele>1759.05</ele><time>2026-03-11T15:28:16Z</time><extensions><gpxtpx:TrackPointExtension><gpxtpx:atemp>2.4</gpxtpx:atemp></gpxtpx:TrackPointExtension></extensions></trkpt><trkpt lat="42.1986436564" lon="13.4143785574"><ele>1758.69</ele><time>2026-03-11T15:28:17Z</time><extensions><gpxtpx:TrackPointExtension><gpxtpx:atemp>2.4</gpxtpx:atemp></gpxtpx:TrackPointExtension></extensions></trkpt><trkpt lat="42.1986653656" lon="13.4143954888"><ele>1757.91</ele><time>2026-03-11T15:28:18Z</time><extensions><gpxtpx:TrackPointExtension><gpxtpx:atemp>2.4</gpxtpx:atemp></gpxtpx:TrackPointExtension></extensions></trkpt><trkpt lat="42.1986809559" lon="13.4144115821"><ele>1757.43</ele><time>2026-03-11T15:28:19Z</time><extensions><gpxtpx:TrackPointExtension><gpxtpx:atemp>2.4</gpxtpx:atemp></gpxtpx:TrackPointExtension></extensions></trkpt><trkpt lat="42.1986980550" lon="13.4144336265"><ele>1756.90</ele><time>2026-03-11T15:28:20Z</time><extensions><gpxtpx:TrackPointExtension><gpxtpx:atemp>2.4</gpxtpx:atemp></gpxtpx:TrackPointExtension></extensions></trkpt><trkpt lat="42.1987254638" lon="13.4144586883"><ele>1756.45</ele><time>2026-03-11T15:28:21Z</time><extensions><gpxtpx:TrackPointExtension><gpxtpx:atemp>2.4</gpxtpx:atemp></gpxtpx:TrackPointExtension></extensions></trkpt><trkpt lat="42.1987370308" lon="13.4144854266"><ele>1756.02</ele><time>2026-03-11T15:28:22Z</time><extensions><gpxtpx:TrackPointExtension><gpxtpx:atemp>2.4</gpxtpx:atemp></gpxtpx:TrackPointExtension></extensions></trkpt><trkpt lat="42.1987456642" lon="13.4144987538"><ele>1755.59</ele><time>2026-03-11T15:28:23Z</time><extensions><gpxtpx:TrackPointExtension><gpxtpx:atemp>2.4</gpxtpx:atemp></gpxtpx:TrackPointExtension></extensions></trkpt><trkpt lat="42.1987551358" lon="13.4145114943"><ele>1755.23</ele><time>2026-03-11T15:28:24Z</time><extensions><gpxtpx:TrackPointExtension><gpxtpx:atemp>2.4</gpxtpx:atemp></gpxtpx:TrackPointExtension></extensions></trkpt><trkpt lat="42.1987662837" lon="13.4145177808"><ele>1754.89</ele><time>2026-03-11T15:28:25Z</time><extensions><gpxtpx:TrackPointExtension><gpxtpx:atemp>2.4</gpxtpx:atemp></gpxtpx:TrackPointExtension></extensions></trkpt><trkpt lat="42.1987817902" lon="13.4145287611"><ele>1754.53</ele><time>2026-03-11T15:28:26Z</time><extensions><gpxtpx:TrackPointExtension><gpxtpx:atemp>2.4</gpxtpx:atemp></gpxtpx:TrackPointExtension></extensions></trkpt><trkpt lat="42.1988030802" lon="13.4145381488"><ele>1754.13</ele><time>2026-03-11T15:28:27Z</time><extensions><gpxtpx:TrackPointExtension><gpxtpx:atemp>2.4</gpxtpx:atemp></gpxtpx:TrackPointExtension></extensions></trkpt><trkpt lat="42.1988287289" lon="13.4145518951"><ele>1753.73</ele><time>2026-03-11T15:28:28Z</time><extensions><gpxtpx:TrackPointExtension><gpxtpx:atemp>2.4</gpxtpx:atemp></gpxtpx:TrackPointExtension></extensions></trkpt><trkpt lat="42.1988443192" lon="13.4145756997"><ele>1753.43</ele><time>2026-03-11T15:28:29Z</time><extensions><gpxtpx:TrackPointExtension><gpxtpx:atemp>2.4</gpxtpx:atemp></gpxtpx:TrackPointExtension></extensions></trkpt><trkpt lat="42.1988727339" lon="13.4146070480"><ele>1752.79</ele><time>2026-03-11T15:28:30Z</time><extensions><gpxtpx:TrackPointExtension><gpxtpx:atemp>2.4</gpxtpx:atemp></gpxtpx:TrackPointExtension></extensions></trkpt><trkpt lat="42.1989029925" lon="13.4146308526"><ele>1752.50</ele><time>2026-03-11T15:28:31Z</time><extensions><gpxtpx:TrackPointExtension><gpxtpx:atemp>2.4</gpxtpx:atemp></gpxtpx:TrackPointExtension></extensions></trkpt><trkpt lat="42.1989221871" lon="13.4146560822"><ele>1752.22</ele><time>2026-03-11T15:28:32Z</time><extensions><gpxtpx:TrackPointExtension><gpxtpx:atemp>2.4</gpxtpx:atemp></gpxtpx:TrackPointExtension></extensions></trkpt><trkpt lat="42.1989301499" lon="13.4146834910"><ele>1751.79</ele><time>2026-03-11T15:28:33Z</time><extensions><gpxtpx:TrackPointExtension><gpxtpx:atemp>2.4</gpxtpx:atemp></gpxtpx:TrackPointExtension></extensions></trkpt><trkpt lat="42.1989445668" lon="13.4147065412"><ele>1751.29</ele><time>2026-03-11T15:28:34Z</time><extensions><gpxtpx:TrackPointExtension><gpxtpx:atemp>2.4</gpxtpx:atemp></gpxtpx:TrackPointExtension></extensions></trkpt><trkpt lat="42.1989635937" lon="13.4147250652"><ele>1750.80</ele><time>2026-03-11T15:28:35Z</time><extensions><gpxtpx:TrackPointExtension><gpxtpx:atemp>2.4</gpxtpx:atemp></gpxtpx:TrackPointExtension></extensions></trkpt><trkpt lat="42.1990011446" lon="13.4147527255"><ele>1750.30</ele><time>2026-03-11T15:28:36Z</time><extensions><gpxtpx:TrackPointExtension><gpxtpx:atemp>2.4</gpxtpx:atemp></gpxtpx:TrackPointExtension></extensions></trkpt><trkpt lat="42.1990269609" lon="13.4147855826"><ele>1749.79</ele><time>2026-03-11T15:28:37Z</time><extensions><gpxtpx:TrackPointExtension><gpxtpx:atemp>2.4</gpxtpx:atemp></gpxtpx:TrackPointExtension></extensions></trkpt><trkpt lat="42.1990519390" lon="13.4148310963"><ele>1749.27</ele><time>2026-03-11T15:28:38Z</time><extensions><gpxtpx:TrackPointExtension><gpxtpx:atemp>2.4</gpxtpx:atemp></gpxtpx:TrackPointExtension></extensions></trkpt><trkpt lat="42.1990776714" lon="13.4148508776"><ele>1748.75</ele><time>2026-03-11T15:28:39Z</time><extensions><gpxtpx:TrackPointExtension><gpxtpx:atemp>2.4</gpxtpx:atemp></gpxtpx:TrackPointExtension></extensions></trkpt><trkpt lat="42.1990950219" lon="13.4148966428"><ele>1748.21</ele><time>2026-03-11T15:28:40Z</time><extensions><gpxtpx:TrackPointExtension><gpxtpx:atemp>2.4</gpxtpx:atemp></gpxtpx:TrackPointExtension></extensions></trkpt><trkpt lat="42.1991043258" lon="13.4149414860"><ele>1747.10</ele><time>2026-03-11T15:28:41Z</time><extensions><gpxtpx:TrackPointExtension><gpxtpx:atemp>2.4</gpxtpx:atemp></gpxtpx:TrackPointExtension></extensions></trkpt><trkpt lat="42.1991163958" lon="13.4149891790"><ele>1746.55</ele><time>2026-03-11T15:28:42Z</time><extensions><gpxtpx:TrackPointExtension><gpxtpx:atemp>2.4</gpxtpx:atemp></gpxtpx:TrackPointExtension></extensions></trkpt><trkpt lat="42.1991265379" lon="13.4150333516"><ele>1746.04</ele><time>2026-03-11T15:28:43Z</time><extensions><gpxtpx:TrackPointExtension><gpxtpx:atemp>2.4</gpxtpx:atemp></gpxtpx:TrackPointExtension></extensions></trkpt><trkpt lat="42.1991338301" lon="13.4150680527"><ele>1745.58</ele><time>2026-03-11T15:28:44Z</time><extensions><gpxtpx:TrackPointExtension><gpxtpx:atemp>2.4</gpxtpx:atemp></gpxtpx:TrackPointExtension></extensions></trkpt><trkpt lat="42.1991494205" lon="13.4151031729"><ele>1745.11</ele><time>2026-03-11T15:28:45Z</time><extensions><gpxtpx:TrackPointExtension><gpxtpx:atemp>2.4</gpxtpx:atemp></gpxtpx:TrackPointExtension></extensions></trkpt><trkpt lat="42.1991627477" lon="13.4151343536"><ele>1744.56</ele><time>2026-03-11T15:28:46Z</time><extensions><gpxtpx:TrackPointExtension><gpxtpx:atemp>2.4</gpxtpx:atemp></gpxtpx:TrackPointExtension></extensions></trkpt><trkpt lat="42.1991770808" lon="13.4151667915"><ele>1744.03</ele><time>2026-03-11T15:28:47Z</time><extensions><gpxtpx:TrackPointExtension><gpxtpx:atemp>2.4</gpxtpx:atemp></gpxtpx:TrackPointExtension></extensions></trkpt><trkpt lat="42.1991891507" lon="13.4151842259"><ele>1743.57</ele><time>2026-03-11T15:28:48Z</time><extensions><gpxtpx:TrackPointExtension><gpxtpx:atemp>2.4</gpxtpx:atemp></gpxtpx:TrackPointExtension></extensions></trkpt><trkpt lat="42.1992009692" lon="13.4152134787"><ele>1743.10</ele><time>2026-03-11T15:28:49Z</time><extensions><gpxtpx:TrackPointExtension><gpxtpx:atemp>2.4</gpxtpx:atemp></gpxtpx:TrackPointExtension></extensions></trkpt><trkpt lat="42.1992134582" lon="13.4152304940"><ele>1742.64</ele><time>2026-03-11T15:28:50Z</time><extensions><gpxtpx:TrackPointExtension><gpxtpx:atemp>2.4</gpxtpx:atemp></gpxtpx:TrackPointExtension></extensions></trkpt><trkpt lat="42.1992249414" lon="13.4152403846"><ele>1742.27</ele><time>2026-03-11T15:28:51Z</time><extensions><gpxtpx:TrackPointExtension><gpxtpx:atemp>2.4</gpxtpx:atemp></gpxtpx:TrackPointExtension></extensions></trkpt><trkpt lat="42.1992500871" lon="13.4152545501"><ele>1741.99</ele><time>2026-03-11T15:28:52Z</time><extensions><gpxtpx:TrackPointExtension><gpxtpx:atemp>2.4</gpxtpx:atemp></gpxtpx:TrackPointExtension></extensions></trkpt><trkpt lat="42.1992623247" lon="13.4152651951"><ele>1741.43</ele><time>2026-03-11T15:28:53Z</time><extensions><gpxtpx:TrackPointExtension><gpxtpx:atemp>2.4</gpxtpx:atemp></gpxtpx:TrackPointExtension></extensions></trkpt><trkpt lat="42.1992705390" lon="13.4152763430"><ele>1741.14</ele><time>2026-03-11T15:28:54Z</time><extensions><gpxtpx:TrackPointExtension><gpxtpx:atemp>2.4</gpxtpx:atemp></gpxtpx:TrackPointExtension></extensions></trkpt><trkpt lat="42.1992882248" lon="13.4152927715"><ele>1740.89</ele><time>2026-03-11T15:28:55Z</time><extensions><gpxtpx:TrackPointExtension><gpxtpx:atemp>2.4</gpxtpx:atemp></gpxtpx:TrackPointExtension></extensions></trkpt><trkpt lat="42.1992993727" lon="13.4153076913"><ele>1740.67</ele><time>2026-03-11T15:28:56Z</time><extensions><gpxtpx:TrackPointExtension><gpxtpx:atemp>2.4</gpxtpx:atemp></gpxtpx:TrackPointExtension></extensions></trkpt><trkpt lat="42.1993183997" lon="13.4153367765"><ele>1740.49</ele><time>2026-03-11T15:28:57Z</time><extensions><gpxtpx:TrackPointExtension><gpxtpx:atemp>2.4</gpxtpx:atemp></gpxtpx:TrackPointExtension></extensions></trkpt><trkpt lat="42.1993344929" lon="13.4153584857"><ele>1740.29</ele><time>2026-03-11T15:28:58Z</time><extensions><gpxtpx:TrackPointExtension><gpxtpx:atemp>2.4</gpxtpx:atemp></gpxtpx:TrackPointExtension></extensions></trkpt><trkpt lat="42.1993483230" lon="13.4153743275"><ele>1740.04</ele><time>2026-03-11T15:28:59Z</time><extensions><gpxtpx:TrackPointExtension><gpxtpx:atemp>2.4</gpxtpx:atemp></gpxtpx:TrackPointExtension></extensions></trkpt><trkpt lat="42.1993678529" lon="13.4153924324"><ele>1739.74</ele><time>2026-03-11T15:29:00Z</time><extensions><gpxtpx:TrackPointExtension><gpxtpx:atemp>2.4</gpxtpx:atemp></gpxtpx:TrackPointExtension></extensions></trkpt><trkpt lat="42.1993928310" lon="13.4154185839"><ele>1739.44</ele><time>2026-03-11T15:29:01Z</time><extensions><gpxtpx:TrackPointExtension><gpxtpx:atemp>2.4</gpxtpx:atemp></gpxtpx:TrackPointExtension></extensions></trkpt><trkpt lat="42.1994096786" lon="13.4154475853"><ele>1739.14</ele><time>2026-03-11T15:29:02Z</time><extensions><gpxtpx:TrackPointExtension><gpxtpx:atemp>2.4</gpxtpx:atemp></gpxtpx:TrackPointExtension></extensions></trkpt><trkpt lat="42.1994361654" lon="13.4154854715"><ele>1738.87</ele><time>2026-03-11T15:29:03Z</time><extensions><gpxtpx:TrackPointExtension><gpxtpx:atemp>2.4</gpxtpx:atemp></gpxtpx:TrackPointExtension></extensions></trkpt><trkpt lat="42.1994532645" lon="13.4155230224"><ele>1738.62</ele><time>2026-03-11T15:29:04Z</time><extensions><gpxtpx:TrackPointExtension><gpxtpx:atemp>2.4</gpxtpx:atemp></gpxtpx:TrackPointExtension></extensions></trkpt><trkpt lat="42.1994631551" lon="13.4155578911"><ele>1738.09</ele><time>2026-03-11T15:29:05Z</time><extensions><gpxtpx:TrackPointExtension><gpxtpx:atemp>2.4</gpxtpx:atemp></gpxtpx:TrackPointExtension></extensions></trkpt><trkpt lat="42.1994732972" lon="13.4155866411"><ele>1737.77</ele><time>2026-03-11T15:29:06Z</time><extensions><gpxtpx:TrackPointExtension><gpxtpx:atemp>2.4</gpxtpx:atemp></gpxtpx:TrackPointExtension></extensions></trkpt><trkpt lat="42.1994889714" lon="13.4156181570"><ele>1737.44</ele><time>2026-03-11T15:29:07Z</time><extensions><gpxtpx:TrackPointExtension><gpxtpx:atemp>2.4</gpxtpx:atemp></gpxtpx:TrackPointExtension></extensions></trkpt><trkpt lat="42.1995080821" lon="13.4156522714"><ele>1737.10</ele><time>2026-03-11T15:29:08Z</time><extensions><gpxtpx:TrackPointExtension><gpxtpx:atemp>2.4</gpxtpx:atemp></gpxtpx:TrackPointExtension></extensions></trkpt><trkpt lat="42.1995235886" lon="13.4156896546"><ele>1736.72</ele><time>2026-03-11T15:29:09Z</time><extensions><gpxtpx:TrackPointExtension><gpxtpx:atemp>2.4</gpxtpx:atemp></gpxtpx:TrackPointExtension></extensions></trkpt><trkpt lat="42.1995427832" lon="13.4157282952"><ele>1736.34</ele><time>2026-03-11T15:29:10Z</time><extensions><gpxtpx:TrackPointExtension><gpxtpx:atemp>2.4</gpxtpx:atemp></gpxtpx:TrackPointExtension></extensions></trkpt><trkpt lat="42.1995518357" lon="13.4157624934"><ele>1735.99</ele><time>2026-03-11T15:29:11Z</time><extensions><gpxtpx:TrackPointExtension><gpxtpx:atemp>2.4</gpxtpx:atemp></gpxtpx:TrackPointExtension></extensions></trkpt><trkpt lat="42.1995608881" lon="13.4157859627"><ele>1735.64</ele><time>2026-03-11T15:29:12Z</time><extensions><gpxtpx:TrackPointExtension><gpxtpx:atemp>2.4</gpxtpx:atemp></gpxtpx:TrackPointExtension></extensions></trkpt><trkpt lat="42.1995702758" lon="13.4158036485"><ele>1735.29</ele><time>2026-03-11T15:29:13Z</time><extensions><gpxtpx:TrackPointExtension><gpxtpx:atemp>2.4</gpxtpx:atemp></gpxtpx:TrackPointExtension></extensions></trkpt><trkpt lat="42.1995816752" lon="13.4158313926"><ele>1734.96</ele><time>2026-03-11T15:29:14Z</time><extensions><gpxtpx:TrackPointExtension><gpxtpx:atemp>2.4</gpxtpx:atemp></gpxtpx:TrackPointExtension></extensions></trkpt><trkpt lat="42.1995985229" lon="13.4158689436"><ele>1734.68</ele><time>2026-03-11T15:29:15Z</time><extensions><gpxtpx:TrackPointExtension><gpxtpx:atemp>2.4</gpxtpx:atemp></gpxtpx:TrackPointExtension></extensions></trkpt><trkpt lat="42.1996076591" lon="13.4159120265"><ele>1733.82</ele><time>2026-03-11T15:29:16Z</time><extensions><gpxtpx:TrackPointExtension><gpxtpx:atemp>2.4</gpxtpx:atemp></gpxtpx:TrackPointExtension></extensions></trkpt><trkpt lat="42.1996225789" lon="13.4159550257"><ele>1733.39</ele><time>2026-03-11T15:29:17Z</time><extensions><gpxtpx:TrackPointExtension><gpxtpx:atemp>2.4</gpxtpx:atemp></gpxtpx:TrackPointExtension></extensions></trkpt><trkpt lat="42.1996329725" lon="13.4160005394"><ele>1732.95</ele><time>2026-03-11T15:29:18Z</time><extensions><gpxtpx:TrackPointExtension><gpxtpx:atemp>2.4</gpxtpx:atemp></gpxtpx:TrackPointExtension></extensions></trkpt><trkpt lat="42.1996408515" lon="13.4160461370"><ele>1732.42</ele><time>2026-03-11T15:29:19Z</time><extensions><gpxtpx:TrackPointExtension><gpxtpx:atemp>2.4</gpxtpx:atemp></gpxtpx:TrackPointExtension></extensions></trkpt><trkpt lat="42.1996552683" lon="13.4160756413"><ele>1731.86</ele><time>2026-03-11T15:29:20Z</time><extensions><gpxtpx:TrackPointExtension><gpxtpx:atemp>2.4</gpxtpx:atemp></gpxtpx:TrackPointExtension></extensions></trkpt><trkpt lat="42.1996646561" lon="13.4160976857"><ele>1731.33</ele><time>2026-03-11T15:29:21Z</time><extensions><gpxtpx:TrackPointExtension><gpxtpx:atemp>2.4</gpxtpx:atemp></gpxtpx:TrackPointExtension></extensions></trkpt><trkpt lat="42.1996802464" lon="13.4161107615"><ele>1730.82</ele><time>2026-03-11T15:29:22Z</time><extensions><gpxtpx:TrackPointExtension><gpxtpx:atemp>2.4</gpxtpx:atemp></gpxtpx:TrackPointExtension></extensions></trkpt><trkpt lat="42.1997020394" lon="13.4161297884"><ele>1730.29</ele><time>2026-03-11T15:29:23Z</time><extensions><gpxtpx:TrackPointExtension><gpxtpx:atemp>2.4</gpxtpx:atemp></gpxtpx:TrackPointExtension></extensions></trkpt><trkpt lat="42.1997236647" lon="13.4161535930"><ele>1729.77</ele><time>2026-03-11T15:29:24Z</time><extensions><gpxtpx:TrackPointExtension><gpxtpx:atemp>2.4</gpxtpx:atemp></gpxtpx:TrackPointExtension></extensions></trkpt><trkpt lat="42.1997531690" lon="13.4161716979"><ele>1729.17</ele><time>2026-03-11T15:29:25Z</time><extensions><gpxtpx:TrackPointExtension><gpxtpx:atemp>2.4</gpxtpx:atemp></gpxtpx:TrackPointExtension></extensions></trkpt><trkpt lat="42.1997872833" lon="13.4161969274"><ele>1728.52</ele><time>2026-03-11T15:29:26Z</time><extensions><gpxtpx:TrackPointExtension><gpxtpx:atemp>2.4</gpxtpx:atemp></gpxtpx:TrackPointExtension></extensions></trkpt><trkpt lat="42.1998194698" lon="13.4162307903"><ele>1727.87</ele><time>2026-03-11T15:29:27Z</time><extensions><gpxtpx:TrackPointExtension><gpxtpx:atemp>2.4</gpxtpx:atemp></gpxtpx:TrackPointExtension></extensions></trkpt><trkpt lat="42.1998490579" lon="13.4162655752"><ele>1726.48</ele><time>2026-03-11T15:29:28Z</time><extensions><gpxtpx:TrackPointExtension><gpxtpx:atemp>2.4</gpxtpx:atemp></gpxtpx:TrackPointExtension></extensions></trkpt><trkpt lat="42.1998764668" lon="13.4163061436"><ele>1725.73</ele><time>2026-03-11T15:29:29Z</time><extensions><gpxtpx:TrackPointExtension><gpxtpx:atemp>2.4</gpxtpx:atemp></gpxtpx:TrackPointExtension></extensions></trkpt><trkpt lat="42.1999041270" lon="13.4163495619"><ele>1725.01</ele><time>2026-03-11T15:29:30Z</time><extensions><gpxtpx:TrackPointExtension><gpxtpx:atemp>2.4</gpxtpx:atemp></gpxtpx:TrackPointExtension></extensions></trkpt><trkpt lat="42.1999309491" lon="13.4163876995"><ele>1724.33</ele><time>2026-03-11T15:29:31Z</time><extensions><gpxtpx:TrackPointExtension><gpxtpx:atemp>2.4</gpxtpx:atemp></gpxtpx:TrackPointExtension></extensions></trkpt><trkpt lat="42.1999646444" lon="13.4164273459"><ele>1723.67</ele><time>2026-03-11T15:29:32Z</time><extensions><gpxtpx:TrackPointExtension><gpxtpx:atemp>2.4</gpxtpx:atemp></gpxtpx:TrackPointExtension></extensions></trkpt><trkpt lat="42.1999917179" lon="13.4164517373"><ele>1723.03</ele><time>2026-03-11T15:29:33Z</time><extensions><gpxtpx:TrackPointExtension><gpxtpx:atemp>2.4</gpxtpx:atemp></gpxtpx:TrackPointExtension></extensions></trkpt><trkpt lat="42.2000171989" lon="13.4164901264"><ele>1722.41</ele><time>2026-03-11T15:29:34Z</time><extensions><gpxtpx:TrackPointExtension><gpxtpx:atemp>2.4</gpxtpx:atemp></gpxtpx:TrackPointExtension></extensions></trkpt><trkpt lat="42.2000406682" lon="13.4165249951"><ele>1721.82</ele><time>2026-03-11T15:29:35Z</time><extensions><gpxtpx:TrackPointExtension><gpxtpx:atemp>2.4</gpxtpx:atemp></gpxtpx:TrackPointExtension></extensions></trkpt><trkpt lat="42.2000747826" lon="13.4165495541"><ele>1721.23</ele><time>2026-03-11T15:29:36Z</time><extensions><gpxtpx:TrackPointExtension><gpxtpx:atemp>2.4</gpxtpx:atemp></gpxtpx:TrackPointExtension></extensions></trkpt><trkpt lat="42.2000954859" lon="13.4165786393"><ele>1720.62</ele><time>2026-03-11T15:29:37Z</time><extensions><gpxtpx:TrackPointExtension><gpxtpx:atemp>2.4</gpxtpx:atemp></gpxtpx:TrackPointExtension></extensions></trkpt><trkpt lat="42.2001158539" lon="13.4166246559"><ele>1719.96</ele><time>2026-03-11T15:29:38Z</time><extensions><gpxtpx:TrackPointExtension><gpxtpx:atemp>2.4</gpxtpx:atemp></gpxtpx:TrackPointExtension></extensions></trkpt><trkpt lat="42.2001356352" lon="13.4166750312"><ele>1718.54</ele><time>2026-03-11T15:29:39Z</time><extensions><gpxtpx:TrackPointExtension><gpxtpx:atemp>2.4</gpxtpx:atemp></gpxtpx:TrackPointExtension></extensions></trkpt><trkpt lat="42.2001671512" lon="13.4167148452"><ele>1717.91</ele><time>2026-03-11T15:29:40Z</time><extensions><gpxtpx:TrackPointExtension><gpxtpx:atemp>2.4</gpxtpx:atemp></gpxtpx:TrackPointExtension></extensions></trkpt><trkpt lat="42.2002023552" lon="13.4167454392"><ele>1717.26</ele><time>2026-03-11T15:29:41Z</time><extensions><gpxtpx:TrackPointExtension><gpxtpx:atemp>2.4</gpxtpx:atemp></gpxtpx:TrackPointExtension></extensions></trkpt><trkpt lat="42.2002436779" lon="13.4167769551"><ele>1716.62</ele><time>2026-03-11T15:29:42Z</time><extensions><gpxtpx:TrackPointExtension><gpxtpx:atemp>2.4</gpxtpx:atemp></gpxtpx:TrackPointExtension></extensions></trkpt><trkpt lat="42.2003088892" lon="13.4168280847"><ele>1716.00</ele><time>2026-03-11T15:29:43Z</time><extensions><gpxtpx:TrackPointExtension><gpxtpx:atemp>2.4</gpxtpx:atemp></gpxtpx:TrackPointExtension></extensions></trkpt><trkpt lat="42.2003382258" lon="13.4168650489"><ele>1715.45</ele><time>2026-03-11T15:29:44Z</time><extensions><gpxtpx:TrackPointExtension><gpxtpx:atemp>2.4</gpxtpx:atemp></gpxtpx:TrackPointExtension></extensions></trkpt><trkpt lat="42.2003702447" lon="13.4168972354"><ele>1715.01</ele><time>2026-03-11T15:29:45Z</time><extensions><gpxtpx:TrackPointExtension><gpxtpx:atemp>2.4</gpxtpx:atemp></gpxtpx:TrackPointExtension></extensions></trkpt><trkpt lat="42.2003987432" lon="13.4169291705"><ele>1714.68</ele><time>2026-03-11T15:29:46Z</time><extensions><gpxtpx:TrackPointExtension><gpxtpx:atemp>2.4</gpxtpx:atemp></gpxtpx:TrackPointExtension></extensions></trkpt><trkpt lat="42.2004134953" lon="13.4169518854"><ele>1714.36</ele><time>2026-03-11T15:29:47Z</time><extensions><gpxtpx:TrackPointExtension><gpxtpx:atemp>2.4</gpxtpx:atemp></gpxtpx:TrackPointExtension></extensions></trkpt><trkpt lat="42.2004186921" lon="13.4169699904"><ele>1714.07</ele><time>2026-03-11T15:29:48Z</time><extensions><gpxtpx:TrackPointExtension><gpxtpx:atemp>2.4</gpxtpx:atemp></gpxtpx:TrackPointExtension></extensions></trkpt><trkpt lat="42.2004183568" lon="13.4169882629"><ele>1713.82</ele><time>2026-03-11T15:29:49Z</time><extensions><gpxtpx:TrackPointExtension><gpxtpx:atemp>2.4</gpxtpx:atemp></gpxtpx:TrackPointExtension></extensions></trkpt><trkpt lat="42.2004090529" lon="13.4170058649"><ele>1713.58</ele><time>2026-03-11T15:29:50Z</time><extensions><gpxtpx:TrackPointExtension><gpxtpx:atemp>2.4</gpxtpx:atemp></gpxtpx:TrackPointExtension></extensions></trkpt><trkpt lat="42.2003986593" lon="13.4170135763"><ele>1713.17</ele><time>2026-03-11T15:29:51Z</time><extensions><gpxtpx:TrackPointExtension><gpxtpx:atemp>2.4</gpxtpx:atemp></gpxtpx:TrackPointExtension></extensions></trkpt><trkpt lat="42.2003934626" lon="13.4170167614"><ele>1712.98</ele><time>2026-03-11T15:29:52Z</time><extensions><gpxtpx:TrackPointExtension><gpxtpx:atemp>2.4</gpxtpx:atemp></gpxtpx:TrackPointExtension></extensions></trkpt><trkpt lat="42.2003866732" lon="13.4170151688"><ele>1712.85</ele><time>2026-03-11T15:29:53Z</time><extensions><gpxtpx:TrackPointExtension><gpxtpx:atemp>2.4</gpxtpx:atemp></gpxtpx:TrackPointExtension></extensions></trkpt><trkpt lat="42.2003862541" lon="13.4170161746"><ele>1712.76</ele><time>2026-03-11T15:29:54Z</time><extensions><gpxtpx:TrackPointExtension><gpxtpx:atemp>2.4</gpxtpx:atemp></gpxtpx:TrackPointExtension></extensions></trkpt><trkpt lat="42.2003816441" lon="13.4170194436"><ele>1712.68</ele><time>2026-03-11T15:29:55Z</time><extensions><gpxtpx:TrackPointExtension><gpxtpx:atemp>2.4</gpxtpx:atemp></gpxtpx:TrackPointExtension></extensions></trkpt><trkpt lat="42.2003788780" lon="13.4170140792"><ele>1712.62</ele><time>2026-03-11T15:29:56Z</time><extensions><gpxtpx:TrackPointExtension><gpxtpx:atemp>2.4</gpxtpx:atemp></gpxtpx:TrackPointExtension></extensions></trkpt><trkpt lat="42.2003778722" lon="13.4170136601"><ele>1712.55</ele><time>2026-03-11T15:29:57Z</time><extensions><gpxtpx:TrackPointExtension><gpxtpx:atemp>2.4</gpxtpx:atemp></gpxtpx:TrackPointExtension></extensions></trkpt><trkpt lat="42.2003748547" lon="13.4170143306"><ele>1712.49</ele><time>2026-03-11T15:29:58Z</time><extensions><gpxtpx:TrackPointExtension><gpxtpx:atemp>2.4</gpxtpx:atemp></gpxtpx:TrackPointExtension></extensions></trkpt><trkpt lat="42.2003728431" lon="13.4170084633"><ele>1712.46</ele><time>2026-03-11T15:29:59Z</time><extensions><gpxtpx:TrackPointExtension><gpxtpx:atemp>2.4</gpxtpx:atemp></gpxtpx:TrackPointExtension></extensions></trkpt><trkpt lat="42.2003716696" lon="13.4170065355"><ele>1712.44</ele><time>2026-03-11T15:30:00Z</time><extensions><gpxtpx:TrackPointExtension><gpxtpx:atemp>2.4</gpxtpx:atemp></gpxtpx:TrackPointExtension></extensions></trkpt><trkpt lat="42.2003671434" lon="13.4169955552"><ele>1712.41</ele><time>2026-03-11T15:30:01Z</time><extensions><gpxtpx:TrackPointExtension><gpxtpx:atemp>2.4</gpxtpx:atemp></gpxtpx:TrackPointExtension></extensions></trkpt><trkpt lat="42.2003661375" lon="13.4169937950"><ele>1712.38</ele><time>2026-03-11T15:30:02Z</time><extensions><gpxtpx:TrackPointExtension><gpxtpx:atemp>2.4</gpxtpx:atemp></gpxtpx:TrackPointExtension></extensions></trkpt><trkpt lat="42.2003608570" lon="13.4169721697"><ele>1712.38</ele><time>2026-03-11T15:30:03Z</time><extensions><gpxtpx:TrackPointExtension><gpxtpx:atemp>2.4</gpxtpx:atemp></gpxtpx:TrackPointExtension></extensions></trkpt><trkpt lat="42.2003563307" lon="13.4169622790"><ele>1712.38</ele><time>2026-03-11T15:30:04Z</time><extensions><gpxtpx:TrackPointExtension><gpxtpx:atemp>2.4</gpxtpx:atemp></gpxtpx:TrackPointExtension></extensions></trkpt><trkpt lat="42.2003539838" lon="13.4169533942"><ele>1712.39</ele><time>2026-03-11T15:30:05Z</time><extensions><gpxtpx:TrackPointExtension><gpxtpx:atemp>2.4</gpxtpx:atemp></gpxtpx:TrackPointExtension></extensions></trkpt><trkpt lat="42.2003492899" lon="13.4169516340"><ele>1712.37</ele><time>2026-03-11T15:30:06Z</time><extensions><gpxtpx:TrackPointExtension><gpxtpx:atemp>2.4</gpxtpx:atemp></gpxtpx:TrackPointExtension></extensions></trkpt><trkpt lat="42.2003460210" lon="13.4169459343"><ele>1712.38</ele><time>2026-03-11T15:30:07Z</time><extensions><gpxtpx:TrackPointExtension><gpxtpx:atemp>2.4</gpxtpx:atemp></gpxtpx:TrackPointExtension></extensions></trkpt><trkpt lat="42.2003453504" lon="13.4169438388"><ele>1712.39</ele><time>2026-03-11T15:30:08Z</time><extensions><gpxtpx:TrackPointExtension><gpxtpx:atemp>2.4</gpxtpx:atemp></gpxtpx:TrackPointExtension></extensions></trkpt><trkpt lat="42.2003436740" lon="13.4169393964"><ele>1712.38</ele><time>2026-03-11T15:30:09Z</time><extensions><gpxtpx:TrackPointExtension><gpxtpx:atemp>2.4</gpxtpx:atemp></gpxtpx:TrackPointExtension></extensions></trkpt><trkpt lat="42.2003423329" lon="13.4169378877"><ele>1712.39</ele><time>2026-03-11T15:30:10Z</time><extensions><gpxtpx:TrackPointExtension><gpxtpx:atemp>2.4</gpxtpx:atemp></gpxtpx:TrackPointExtension></extensions></trkpt><trkpt lat="42.2003407404" lon="13.4169372171"><ele>1712.40</ele><time>2026-03-11T15:30:11Z</time><extensions><gpxtpx:TrackPointExtension><gpxtpx:atemp>2.4</gpxtpx:atemp></gpxtpx:TrackPointExtension></extensions></trkpt><trkpt lat="42.2003383934" lon="13.4169401508"><ele>1712.38</ele><time>2026-03-11T15:30:12Z</time><extensions><gpxtpx:TrackPointExtension><gpxtpx:atemp>2.4</gpxtpx:atemp></gpxtpx:TrackPointExtension></extensions></trkpt><trkpt lat="42.2003370523" lon="13.4169405699"><ele>1712.37</ele><time>2026-03-11T15:30:13Z</time><extensions><gpxtpx:TrackPointExtension><gpxtpx:atemp>2.4</gpxtpx:atemp></gpxtpx:TrackPointExtension></extensions></trkpt><trkpt lat="42.2003350407" lon="13.4169420786"><ele>1712.25</ele><time>2026-03-11T15:30:14Z</time><extensions><gpxtpx:TrackPointExtension><gpxtpx:atemp>2.4</gpxtpx:atemp></gpxtpx:TrackPointExtension></extensions></trkpt><trkpt lat="42.2003327776" lon="13.4169420786"><ele>1712.24</ele><time>2026-03-11T15:30:15Z</time><extensions><gpxtpx:TrackPointExtension><gpxtpx:atemp>2.4</gpxtpx:atemp></gpxtpx:TrackPointExtension></extensions></trkpt><trkpt lat="42.2003309336" lon="13.4169442579"><ele>1712.22</ele><time>2026-03-11T15:30:16Z</time><extensions><gpxtpx:TrackPointExtension><gpxtpx:atemp>2.4</gpxtpx:atemp></gpxtpx:TrackPointExtension></extensions></trkpt><trkpt lat="42.2003293410" lon="13.4169445932"><ele>1712.21</ele><time>2026-03-11T15:30:17Z</time><extensions><gpxtpx:TrackPointExtension><gpxtpx:atemp>2.4</gpxtpx:atemp></gpxtpx:TrackPointExtension></extensions></trkpt><trkpt lat="42.2003285866" lon="13.4169452637"><ele>1712.28</ele><time>2026-03-11T15:30:18Z</time><extensions><gpxtpx:TrackPointExtension><gpxtpx:atemp>2.4</gpxtpx:atemp></gpxtpx:TrackPointExtension></extensions></trkpt><trkpt lat="42.2003282513" lon="13.4169469401"><ele>1712.39</ele><time>2026-03-11T15:30:19Z</time><extensions><gpxtpx:TrackPointExtension><gpxtpx:atemp>2.4</gpxtpx:atemp></gpxtpx:TrackPointExtension></extensions></trkpt><trkpt lat="42.2003279999" lon="13.4169479460"><ele>1712.53</ele><time>2026-03-11T15:30:20Z</time><extensions><gpxtpx:TrackPointExtension><gpxtpx:atemp>2.4</gpxtpx:atemp></gpxtpx:TrackPointExtension></extensions></trkpt><trkpt lat="42.2003272455" lon="13.4169492871"><ele>1712.62</ele><time>2026-03-11T15:30:21Z</time><extensions><gpxtpx:TrackPointExtension><gpxtpx:atemp>2.4</gpxtpx:atemp></gpxtpx:TrackPointExtension></extensions></trkpt><trkpt lat="42.2003266588" lon="13.4169500414"><ele>1712.67</ele><time>2026-03-11T15:30:22Z</time><extensions><gpxtpx:TrackPointExtension><gpxtpx:atemp>2.4</gpxtpx:atemp></gpxtpx:TrackPointExtension></extensions></trkpt><trkpt lat="42.2003257368" lon="13.4169512987"><ele>1712.69</ele><time>2026-03-11T15:30:23Z</time><extensions><gpxtpx:TrackPointExtension><gpxtpx:atemp>2.4</gpxtpx:atemp></gpxtpx:TrackPointExtension></extensions></trkpt><trkpt lat="42.2003247309" lon="13.4169523884"><ele>1712.69</ele><time>2026-03-11T15:30:24Z</time><extensions><gpxtpx:TrackPointExtension><gpxtpx:atemp>2.4</gpxtpx:atemp></gpxtpx:TrackPointExtension></extensions></trkpt><trkpt lat="42.2003242280" lon="13.4169531427"><ele>1712.65</ele><time>2026-03-11T15:30:25Z</time><extensions><gpxtpx:TrackPointExtension><gpxtpx:atemp>2.4</gpxtpx:atemp></gpxtpx:TrackPointExtension></extensions></trkpt><trkpt lat="42.2003239766" lon="13.4169530589"><ele>1712.58</ele><time>2026-03-11T15:30:26Z</time><extensions><gpxtpx:TrackPointExtension><gpxtpx:atemp>2.4</gpxtpx:atemp></gpxtpx:TrackPointExtension></extensions></trkpt><trkpt lat="42.2003236413" lon="13.4169535618"><ele>1712.54</ele><time>2026-03-11T15:30:27Z</time><extensions><gpxtpx:TrackPointExtension><gpxtpx:atemp>2.4</gpxtpx:atemp></gpxtpx:TrackPointExtension></extensions></trkpt><trkpt lat="42.2003235575" lon="13.4169542324"><ele>1712.52</ele><time>2026-03-11T15:30:28Z</time><extensions><gpxtpx:TrackPointExtension><gpxtpx:atemp>2.4</gpxtpx:atemp></gpxtpx:TrackPointExtension></extensions></trkpt><trkpt lat="42.2003228869" lon="13.4169554897"><ele>1712.54</ele><time>2026-03-11T15:30:29Z</time><extensions><gpxtpx:TrackPointExtension><gpxtpx:atemp>2.4</gpxtpx:atemp></gpxtpx:TrackPointExtension></extensions></trkpt><trkpt lat="42.2003222164" lon="13.4169571660"><ele>1712.52</ele><time>2026-03-11T15:30:30Z</time><extensions><gpxtpx:TrackPointExtension><gpxtpx:atemp>2.4</gpxtpx:atemp></gpxtpx:TrackPointExtension></extensions></trkpt><trkpt lat="42.2003211267" lon="13.4169587586"><ele>1712.48</ele><time>2026-03-11T15:30:31Z</time><extensions><gpxtpx:TrackPointExtension><gpxtpx:atemp>2.4</gpxtpx:atemp></gpxtpx:TrackPointExtension></extensions></trkpt><trkpt lat="42.2003207915" lon="13.4169601835"><ele>1712.47</ele><time>2026-03-11T15:30:32Z</time><extensions><gpxtpx:TrackPointExtension><gpxtpx:atemp>2.4</gpxtpx:atemp></gpxtpx:TrackPointExtension></extensions></trkpt><trkpt lat="42.2003205400" lon="13.4169607703"><ele>1712.48</ele><time>2026-03-11T15:30:33Z</time><extensions><gpxtpx:TrackPointExtension><gpxtpx:atemp>2.4</gpxtpx:atemp></gpxtpx:TrackPointExtension></extensions></trkpt><trkpt lat="42.2003203724" lon="13.4169616923"><ele>1712.48</ele><time>2026-03-11T15:30:34Z</time><extensions><gpxtpx:TrackPointExtension><gpxtpx:atemp>2.4</gpxtpx:atemp></gpxtpx:TrackPointExtension></extensions></trkpt><trkpt lat="42.2003203724" lon="13.4169626981"><ele>1712.49</ele><time>2026-03-11T15:30:35Z</time><extensions><gpxtpx:TrackPointExtension><gpxtpx:atemp>2.4</gpxtpx:atemp></gpxtpx:TrackPointExtension></extensions></trkpt><trkpt lat="42.2003200371" lon="13.4169636201"><ele>1712.49</ele><time>2026-03-11T15:30:36Z</time><extensions><gpxtpx:TrackPointExtension><gpxtpx:atemp>2.4</gpxtpx:atemp></gpxtpx:TrackPointExtension></extensions></trkpt><trkpt lat="42.2003199533" lon="13.4169644583"><ele>1712.49</ele><time>2026-03-11T15:30:37Z</time><extensions><gpxtpx:TrackPointExtension><gpxtpx:atemp>2.4</gpxtpx:atemp></gpxtpx:TrackPointExtension></extensions></trkpt><trkpt lat="42.2003201209" lon="13.4169649612"><ele>1712.49</ele><time>2026-03-11T15:30:38Z</time><extensions><gpxtpx:TrackPointExtension><gpxtpx:atemp>2.4</gpxtpx:atemp></gpxtpx:TrackPointExtension></extensions></trkpt><trkpt lat="42.2003200371" lon="13.4169649612"><ele>1712.48</ele><time>2026-03-11T15:30:39Z</time><extensions><gpxtpx:TrackPointExtension><gpxtpx:atemp>2.4</gpxtpx:atemp></gpxtpx:TrackPointExtension></extensions></trkpt><trkpt lat="42.2003202885" lon="13.4169653803"><ele>1712.46</ele><time>2026-03-11T15:30:40Z</time><extensions><gpxtpx:TrackPointExtension><gpxtpx:atemp>2.4</gpxtpx:atemp></gpxtpx:TrackPointExtension></extensions></trkpt><trkpt lat="42.2003199533" lon="13.4169641230"><ele>1712.42</ele><time>2026-03-11T15:30:41Z</time><extensions><gpxtpx:TrackPointExtension><gpxtpx:atemp>2.4</gpxtpx:atemp></gpxtpx:TrackPointExtension></extensions></trkpt><trkpt lat="42.2003203724" lon="13.4169638716"><ele>1712.37</ele><time>2026-03-11T15:30:42Z</time><extensions><gpxtpx:TrackPointExtension><gpxtpx:atemp>2.4</gpxtpx:atemp></gpxtpx:TrackPointExtension></extensions></trkpt><trkpt lat="42.2003212944" lon="13.4169649612"><ele>1712.35</ele><time>2026-03-11T15:30:43Z</time><extensions><gpxtpx:TrackPointExtension><gpxtpx:atemp>2.4</gpxtpx:atemp></gpxtpx:TrackPointExtension></extensions></trkpt><trkpt lat="42.2003219649" lon="13.4169650450"><ele>1712.33</ele><time>2026-03-11T15:30:44Z</time><extensions><gpxtpx:TrackPointExtension><gpxtpx:atemp>2.4</gpxtpx:atemp></gpxtpx:TrackPointExtension></extensions></trkpt><trkpt lat="42.2003221326" lon="13.4169657994"><ele>1712.31</ele><time>2026-03-11T15:30:45Z</time><extensions><gpxtpx:TrackPointExtension><gpxtpx:atemp>2.4</gpxtpx:atemp></gpxtpx:TrackPointExtension></extensions></trkpt><trkpt lat="42.2003223840" lon="13.4169667214"><ele>1712.30</ele><time>2026-03-11T15:30:46Z</time><extensions><gpxtpx:TrackPointExtension><gpxtpx:atemp>2.4</gpxtpx:atemp></gpxtpx:TrackPointExtension></extensions></trkpt><trkpt lat="42.2003217973" lon="13.4169666376"><ele>1712.30</ele><time>2026-03-11T15:30:47Z</time><extensions><gpxtpx:TrackPointExtension><gpxtpx:atemp>2.4</gpxtpx:atemp></gpxtpx:TrackPointExtension></extensions></trkpt><trkpt lat="42.2003224678" lon="13.4169663861"><ele>1712.30</ele><time>2026-03-11T15:30:48Z</time><extensions><gpxtpx:TrackPointExtension><gpxtpx:atemp>2.4</gpxtpx:atemp></gpxtpx:TrackPointExtension></extensions></trkpt><trkpt lat="42.2003224678" lon="13.4169661347"><ele>1712.28</ele><time>2026-03-11T15:30:49Z</time><extensions><gpxtpx:TrackPointExtension><gpxtpx:atemp>2.4</gpxtpx:atemp></gpxtpx:TrackPointExtension></extensions></trkpt><trkpt lat="42.2003227193" lon="13.4169661347"><ele>1712.26</ele><time>2026-03-11T15:30:50Z</time><extensions><gpxtpx:TrackPointExtension><gpxtpx:atemp>2.4</gpxtpx:atemp></gpxtpx:TrackPointExtension></extensions></trkpt><trkpt lat="42.2003229707" lon="13.4169666376"><ele>1712.25</ele><time>2026-03-11T15:30:51Z</time><extensions><gpxtpx:TrackPointExtension><gpxtpx:atemp>2.4</gpxtpx:atemp></gpxtpx:TrackPointExtension></extensions></trkpt><trkpt lat="42.2003230546" lon="13.4169659670"><ele>1712.21</ele><time>2026-03-11T15:30:52Z</time><extensions><gpxtpx:TrackPointExtension><gpxtpx:atemp>2.4</gpxtpx:atemp></gpxtpx:TrackPointExtension></extensions></trkpt><trkpt lat="42.2003231384" lon="13.4169661347"><ele>1712.18</ele><time>2026-03-11T15:30:53Z</time><extensions><gpxtpx:TrackPointExtension><gpxtpx:atemp>2.4</gpxtpx:atemp></gpxtpx:TrackPointExtension></extensions></trkpt><trkpt lat="42.2003224678" lon="13.4169659670"><ele>1712.18</ele><time>2026-03-11T15:30:54Z</time><extensions><gpxtpx:TrackPointExtension><gpxtpx:atemp>2.4</gpxtpx:atemp></gpxtpx:TrackPointExtension></extensions></trkpt><trkpt lat="42.2003220487" lon="13.4169671405"><ele>1712.20</ele><time>2026-03-11T15:30:55Z</time><extensions><gpxtpx:TrackPointExtension><gpxtpx:atemp>2.4</gpxtpx:atemp></gpxtpx:TrackPointExtension></extensions></trkpt><trkpt lat="42.2003218811" lon="13.4169665538"><ele>1712.23</ele><time>2026-03-11T15:30:56Z</time><extensions><gpxtpx:TrackPointExtension><gpxtpx:atemp>2.4</gpxtpx:atemp></gpxtpx:TrackPointExtension></extensions></trkpt><trkpt lat="42.2003219649" lon="13.4169653803"><ele>1712.25</ele><time>2026-03-11T15:30:57Z</time><extensions><gpxtpx:TrackPointExtension><gpxtpx:atemp>2.4</gpxtpx:atemp></gpxtpx:TrackPointExtension></extensions></trkpt><trkpt lat="42.2003209591" lon="13.4169635363"><ele>1712.27</ele><time>2026-03-11T15:30:58Z</time><extensions><gpxtpx:TrackPointExtension><gpxtpx:atemp>2.4</gpxtpx:atemp></gpxtpx:TrackPointExtension></extensions></trkpt><trkpt lat="42.2003195342" lon="13.4169618599"><ele>1712.28</ele><time>2026-03-11T15:30:59Z</time><extensions><gpxtpx:TrackPointExtension><gpxtpx:atemp>2.4</gpxtpx:atemp></gpxtpx:TrackPointExtension></extensions></trkpt><trkpt lat="42.2003186960" lon="13.4169602674"><ele>1712.28</ele><time>2026-03-11T15:31:00Z</time><extensions><gpxtpx:TrackPointExtension><gpxtpx:atemp>2.4</gpxtpx:atemp></gpxtpx:TrackPointExtension></extensions></trkpt><trkpt lat="42.2003176901" lon="13.4169593453"><ele>1712.26</ele><time>2026-03-11T15:31:01Z</time><extensions><gpxtpx:TrackPointExtension><gpxtpx:atemp>2.4</gpxtpx:atemp></gpxtpx:TrackPointExtension></extensions></trkpt><trkpt lat="42.2003170196" lon="13.4169574175"><ele>1712.25</ele><time>2026-03-11T15:31:02Z</time><extensions><gpxtpx:TrackPointExtension><gpxtpx:atemp>2.4</gpxtpx:atemp></gpxtpx:TrackPointExtension></extensions></trkpt><trkpt lat="42.2003166843" lon="13.4169568308"><ele>1712.21</ele><time>2026-03-11T15:31:03Z</time><extensions><gpxtpx:TrackPointExtension><gpxtpx:atemp>2.4</gpxtpx:atemp></gpxtpx:TrackPointExtension></extensions></trkpt><trkpt lat="42.2003158461" lon="13.4169562440"><ele>1712.19</ele><time>2026-03-11T15:31:04Z</time><extensions><gpxtpx:TrackPointExtension><gpxtpx:atemp>2.4</gpxtpx:atemp></gpxtpx:TrackPointExtension></extensions></trkpt><trkpt lat="42.2003153432" lon="13.4169554897"><ele>1712.21</ele><time>2026-03-11T15:31:05Z</time><extensions><gpxtpx:TrackPointExtension><gpxtpx:atemp>2.4</gpxtpx:atemp></gpxtpx:TrackPointExtension></extensions></trkpt><trkpt lat="42.2003145888" lon="13.4169547353"><ele>1712.21</ele><time>2026-03-11T15:31:06Z</time><extensions><gpxtpx:TrackPointExtension><gpxtpx:atemp>2.4</gpxtpx:atemp></gpxtpx:TrackPointExtension></extensions></trkpt><trkpt lat="42.2003140859" lon="13.4169544838"><ele>1712.21</ele><time>2026-03-11T15:31:07Z</time><extensions><gpxtpx:TrackPointExtension><gpxtpx:atemp>2.4</gpxtpx:atemp></gpxtpx:TrackPointExtension></extensions></trkpt><trkpt lat="42.2003129963" lon="13.4169544838"><ele>1712.17</ele><time>2026-03-11T15:31:08Z</time><extensions><gpxtpx:TrackPointExtension><gpxtpx:atemp>2.4</gpxtpx:atemp></gpxtpx:TrackPointExtension></extensions></trkpt><trkpt lat="42.2003124934" lon="13.4169546515"><ele>1712.10</ele><time>2026-03-11T15:31:09Z</time><extensions><gpxtpx:TrackPointExtension><gpxtpx:atemp>2.4</gpxtpx:atemp></gpxtpx:TrackPointExtension></extensions></trkpt><trkpt lat="42.2003123257" lon="13.4169553220"><ele>1712.09</ele><time>2026-03-11T15:31:10Z</time><extensions><gpxtpx:TrackPointExtension><gpxtpx:atemp>2.4</gpxtpx:atemp></gpxtpx:TrackPointExtension></extensions></trkpt><trkpt lat="42.2003119905" lon="13.4169555735"><ele>1712.08</ele><time>2026-03-11T15:31:11Z</time><extensions><gpxtpx:TrackPointExtension><gpxtpx:atemp>2.4</gpxtpx:atemp></gpxtpx:TrackPointExtension></extensions></trkpt><trkpt lat="42.2003114875" lon="13.4169558249"><ele>1712.03</ele><time>2026-03-11T15:31:12Z</time><extensions><gpxtpx:TrackPointExtension><gpxtpx:atemp>2.4</gpxtpx:atemp></gpxtpx:TrackPointExtension></extensions></trkpt><trkpt lat="42.2003118228" lon="13.4169555735"><ele>1711.97</ele><time>2026-03-11T15:31:13Z</time><extensions><gpxtpx:TrackPointExtension><gpxtpx:atemp>2.4</gpxtpx:atemp></gpxtpx:TrackPointExtension></extensions></trkpt><trkpt lat="42.2003114875" lon="13.4169556573"><ele>1711.87</ele><time>2026-03-11T15:31:14Z</time><extensions><gpxtpx:TrackPointExtension><gpxtpx:atemp>2.4</gpxtpx:atemp></gpxtpx:TrackPointExtension></extensions></trkpt><trkpt lat="42.2003113199" lon="13.4169554897"><ele>1711.84</ele><time>2026-03-11T15:31:15Z</time><extensions><gpxtpx:TrackPointExtension><gpxtpx:atemp>2.4</gpxtpx:atemp></gpxtpx:TrackPointExtension></extensions></trkpt><trkpt lat="42.2003111523" lon="13.4169545677"><ele>1711.82</ele><time>2026-03-11T15:31:16Z</time><extensions><gpxtpx:TrackPointExtension><gpxtpx:atemp>2.4</gpxtpx:atemp></gpxtpx:TrackPointExtension></extensions></trkpt><trkpt lat="42.2003112361" lon="13.4169534780"><ele>1711.81</ele><time>2026-03-11T15:31:17Z</time><extensions><gpxtpx:TrackPointExtension><gpxtpx:atemp>2.4</gpxtpx:atemp></gpxtpx:TrackPointExtension></extensions></trkpt><trkpt lat="42.2003117390" lon="13.4169535618"><ele>1711.89</ele><time>2026-03-11T15:31:18Z</time><extensions><gpxtpx:TrackPointExtension><gpxtpx:atemp>2.4</gpxtpx:atemp></gpxtpx:TrackPointExtension></extensions></trkpt><trkpt lat="42.2003119905" lon="13.4169528913"><ele>1712.07</ele><time>2026-03-11T15:31:19Z</time><extensions><gpxtpx:TrackPointExtension><gpxtpx:atemp>2.4</gpxtpx:atemp></gpxtpx:TrackPointExtension></extensions></trkpt><trkpt lat="42.2003120743" lon="13.4169530589"><ele>1712.20</ele><time>2026-03-11T15:31:20Z</time><extensions><gpxtpx:TrackPointExtension><gpxtpx:atemp>2.4</gpxtpx:atemp></gpxtpx:TrackPointExtension></extensions></trkpt><trkpt lat="42.2003120743" lon="13.4169527236"><ele>1712.26</ele><time>2026-03-11T15:31:21Z</time><extensions><gpxtpx:TrackPointExtension><gpxtpx:atemp>2.4</gpxtpx:atemp></gpxtpx:TrackPointExtension></extensions></trkpt><trkpt lat="42.2003120743" lon="13.4169522207"><ele>1712.30</ele><time>2026-03-11T15:31:22Z</time><extensions><gpxtpx:TrackPointExtension><gpxtpx:atemp>2.4</gpxtpx:atemp></gpxtpx:TrackPointExtension></extensions></trkpt><trkpt lat="42.2003117390" lon="13.4169527236"><ele>1712.32</ele><time>2026-03-11T15:31:23Z</time><extensions><gpxtpx:TrackPointExtension><gpxtpx:atemp>2.4</gpxtpx:atemp></gpxtpx:TrackPointExtension></extensions></trkpt><trkpt lat="42.2003114875" lon="13.4169523884"><ele>1712.31</ele><time>2026-03-11T15:31:24Z</time><extensions><gpxtpx:TrackPointExtension><gpxtpx:atemp>2.4</gpxtpx:atemp></gpxtpx:TrackPointExtension></extensions></trkpt><trkpt lat="42.2003114875" lon="13.4169518854"><ele>1712.29</ele><time>2026-03-11T15:31:25Z</time><extensions><gpxtpx:TrackPointExtension><gpxtpx:atemp>2.4</gpxtpx:atemp></gpxtpx:TrackPointExtension></extensions></trkpt><trkpt lat="42.2003115714" lon="13.4169509634"><ele>1712.28</ele><time>2026-03-11T15:31:26Z</time><extensions><gpxtpx:TrackPointExtension><gpxtpx:atemp>2.4</gpxtpx:atemp></gpxtpx:TrackPointExtension></extensions></trkpt><trkpt lat="42.2003111523" lon="13.4169498738"><ele>1712.27</ele><time>2026-03-11T15:31:27Z</time><extensions><gpxtpx:TrackPointExtension><gpxtpx:atemp>2.4</gpxtpx:atemp></gpxtpx:TrackPointExtension></extensions></trkpt><trkpt lat="42.2003112361" lon="13.4169493709"><ele>1712.27</ele><time>2026-03-11T15:31:28Z</time><extensions><gpxtpx:TrackPointExtension><gpxtpx:atemp>2.4</gpxtpx:atemp></gpxtpx:TrackPointExtension></extensions></trkpt><trkpt lat="42.2003112361" lon="13.4169496223"><ele>1712.26</ele><time>2026-03-11T15:31:29Z</time><extensions><gpxtpx:TrackPointExtension><gpxtpx:atemp>2.4</gpxtpx:atemp></gpxtpx:TrackPointExtension></extensions></trkpt><trkpt lat="42.2003112361" lon="13.4169491194"><ele>1712.26</ele><time>2026-03-11T15:31:30Z</time><extensions><gpxtpx:TrackPointExtension><gpxtpx:atemp>2.4</gpxtpx:atemp></gpxtpx:TrackPointExtension></extensions></trkpt><trkpt lat="42.2003110684" lon="13.4169492871"><ele>1712.22</ele><time>2026-03-11T15:31:31Z</time><extensions><gpxtpx:TrackPointExtension><gpxtpx:atemp>2.4</gpxtpx:atemp></gpxtpx:TrackPointExtension></extensions></trkpt><trkpt lat="42.2003109846" lon="13.4169481974"><ele>1712.22</ele><time>2026-03-11T15:31:32Z</time><extensions><gpxtpx:TrackPointExtension><gpxtpx:atemp>2.4</gpxtpx:atemp></gpxtpx:TrackPointExtension></extensions></trkpt><trkpt lat="42.2003106494" lon="13.4169477783"><ele>1712.20</ele><time>2026-03-11T15:31:33Z</time><extensions><gpxtpx:TrackPointExtension><gpxtpx:atemp>2.4</gpxtpx:atemp></gpxtpx:TrackPointExtension></extensions></trkpt><trkpt lat="42.2003100626" lon="13.4169471916"><ele>1712.13</ele><time>2026-03-11T15:31:34Z</time><extensions><gpxtpx:TrackPointExtension><gpxtpx:atemp>2.4</gpxtpx:atemp></gpxtpx:TrackPointExtension></extensions></trkpt><trkpt lat="42.2003098950" lon="13.4169469401"><ele>1712.13</ele><time>2026-03-11T15:31:35Z</time><extensions><gpxtpx:TrackPointExtension><gpxtpx:atemp>2.4</gpxtpx:atemp></gpxtpx:TrackPointExtension></extensions></trkpt><trkpt lat="42.2003095597" lon="13.4169469401"><ele>1712.13</ele><time>2026-03-11T15:31:36Z</time><extensions><gpxtpx:TrackPointExtension><gpxtpx:atemp>2.4</gpxtpx:atemp></gpxtpx:TrackPointExtension></extensions></trkpt><trkpt lat="42.2003093921" lon="13.4169464372"><ele>1712.13</ele><time>2026-03-11T15:31:37Z</time><extensions><gpxtpx:TrackPointExtension><gpxtpx:atemp>2.4</gpxtpx:atemp></gpxtpx:TrackPointExtension></extensions></trkpt><trkpt lat="42.2003089730" lon="13.4169457667"><ele>1712.13</ele><time>2026-03-11T15:31:38Z</time><extensions><gpxtpx:TrackPointExtension><gpxtpx:atemp>2.4</gpxtpx:atemp></gpxtpx:TrackPointExtension></extensions></trkpt><trkpt lat="42.2003085539" lon="13.4169456828"><ele>1712.13</ele><time>2026-03-11T15:31:39Z</time><extensions><gpxtpx:TrackPointExtension><gpxtpx:atemp>2.4</gpxtpx:atemp></gpxtpx:TrackPointExtension></extensions></trkpt><trkpt lat="42.2003083862" lon="13.4169454314"><ele>1712.13</ele><time>2026-03-11T15:31:40Z</time><extensions><gpxtpx:TrackPointExtension><gpxtpx:atemp>2.4</gpxtpx:atemp></gpxtpx:TrackPointExtension></extensions></trkpt><trkpt lat="42.2003081348" lon="13.4169449285"><ele>1712.13</ele><time>2026-03-11T15:31:41Z</time><extensions><gpxtpx:TrackPointExtension><gpxtpx:atemp>2.4</gpxtpx:atemp></gpxtpx:TrackPointExtension></extensions></trkpt><trkpt lat="42.2003076319" lon="13.4169444256"><ele>1712.13</ele><time>2026-03-11T15:31:42Z</time><extensions><gpxtpx:TrackPointExtension><gpxtpx:atemp>2.4</gpxtpx:atemp></gpxtpx:TrackPointExtension></extensions></trkpt><trkpt lat="42.2003069613" lon="13.4169439226"><ele>1712.13</ele><time>2026-03-11T15:31:43Z</time><extensions><gpxtpx:TrackPointExtension><gpxtpx:atemp>2.4</gpxtpx:atemp></gpxtpx:TrackPointExtension></extensions></trkpt><trkpt lat="42.2003063746" lon="13.4169441741"><ele>1712.13</ele><time>2026-03-11T15:31:44Z</time><extensions><gpxtpx:TrackPointExtension><gpxtpx:atemp>2.4</gpxtpx:atemp></gpxtpx:TrackPointExtension></extensions></trkpt><trkpt lat="42.2003058717" lon="13.4169439226"><ele>1712.15</ele><time>2026-03-11T15:31:45Z</time><extensions><gpxtpx:TrackPointExtension><gpxtpx:atemp>2.4</gpxtpx:atemp></gpxtpx:TrackPointExtension></extensions></trkpt><trkpt lat="42.2003059555" lon="13.4169432521"><ele>1712.19</ele><time>2026-03-11T15:31:46Z</time><extensions><gpxtpx:TrackPointExtension><gpxtpx:atemp>2.4</gpxtpx:atemp></gpxtpx:TrackPointExtension></extensions></trkpt><trkpt lat="42.2003059555" lon="13.4169428330"><ele>1712.20</ele><time>2026-03-11T15:31:47Z</time><extensions><gpxtpx:TrackPointExtension><gpxtpx:atemp>2.4</gpxtpx:atemp></gpxtpx:TrackPointExtension></extensions></trkpt><trkpt lat="42.2003059555" lon="13.4169425815"><ele>1712.20</ele><time>2026-03-11T15:31:48Z</time><extensions><gpxtpx:TrackPointExtension><gpxtpx:atemp>2.4</gpxtpx:atemp></gpxtpx:TrackPointExtension></extensions></trkpt><trkpt lat="42.2003061231" lon="13.4169423301"><ele>1712.20</ele><time>2026-03-11T15:31:49Z</time><extensions><gpxtpx:TrackPointExtension><gpxtpx:atemp>2.4</gpxtpx:atemp></gpxtpx:TrackPointExtension></extensions></trkpt><trkpt lat="42.2003064584" lon="13.4169421624"><ele>1712.19</ele><time>2026-03-11T15:31:50Z</time><extensions><gpxtpx:TrackPointExtension><gpxtpx:atemp>2.4</gpxtpx:atemp></gpxtpx:TrackPointExtension></extensions></trkpt><trkpt lat="42.2003068775" lon="13.4169424977"><ele>1712.17</ele><time>2026-03-11T15:31:51Z</time><extensions><gpxtpx:TrackPointExtension><gpxtpx:atemp>2.4</gpxtpx:atemp></gpxtpx:TrackPointExtension></extensions></trkpt><trkpt lat="42.2003070451" lon="13.4169424977"><ele>1712.12</ele><time>2026-03-11T15:31:52Z</time><extensions><gpxtpx:TrackPointExtension><gpxtpx:atemp>2.4</gpxtpx:atemp></gpxtpx:TrackPointExtension></extensions></trkpt><trkpt lat="42.2003072966" lon="13.4169431683"><ele>1712.12</ele><time>2026-03-11T15:31:53Z</time><extensions><gpxtpx:TrackPointExtension><gpxtpx:atemp>2.4</gpxtpx:atemp></gpxtpx:TrackPointExtension></extensions></trkpt><trkpt lat="42.2003076319" lon="13.4169434197"><ele>1712.16</ele><time>2026-03-11T15:31:54Z</time><extensions><gpxtpx:TrackPointExtension><gpxtpx:atemp>2.4</gpxtpx:atemp></gpxtpx:TrackPointExtension></extensions></trkpt><trkpt lat="42.2003078833" lon="13.4169430844"><ele>1712.14</ele><time>2026-03-11T15:31:55Z</time><extensions><gpxtpx:TrackPointExtension><gpxtpx:atemp>2.4</gpxtpx:atemp></gpxtpx:TrackPointExtension></extensions></trkpt><trkpt lat="42.2003079671" lon="13.4169433359"><ele>1711.99</ele><time>2026-03-11T15:31:56Z</time><extensions><gpxtpx:TrackPointExtension><gpxtpx:atemp>2.4</gpxtpx:atemp></gpxtpx:TrackPointExtension></extensions></trkpt><trkpt lat="42.2003081348" lon="13.4169435874"><ele>1711.93</ele><time>2026-03-11T15:31:57Z</time><extensions><gpxtpx:TrackPointExtension><gpxtpx:atemp>2.4</gpxtpx:atemp></gpxtpx:TrackPointExtension></extensions></trkpt><trkpt lat="42.2003081348" lon="13.4169441741"><ele>1711.65</ele><time>2026-03-11T15:31:58Z</time><extensions><gpxtpx:TrackPointExtension><gpxtpx:atemp>2.4</gpxtpx:atemp></gpxtpx:TrackPointExtension></extensions></trkpt><trkpt lat="42.2003084701" lon="13.4169444256"><ele>1711.64</ele><time>2026-03-11T15:31:59Z</time><extensions><gpxtpx:TrackPointExtension><gpxtpx:atemp>2.4</gpxtpx:atemp></gpxtpx:TrackPointExtension></extensions></trkpt><trkpt lat="42.2003084701" lon="13.4169448446"><ele>1711.57</ele><time>2026-03-11T15:32:00Z</time><extensions><gpxtpx:TrackPointExtension><gpxtpx:atemp>2.4</gpxtpx:atemp></gpxtpx:TrackPointExtension></extensions></trkpt><trkpt lat="42.2003084701" lon="13.4169448446"><ele>1711.79</ele><time>2026-03-11T15:32:01Z</time><extensions><gpxtpx:TrackPointExtension><gpxtpx:atemp>2.4</gpxtpx:atemp></gpxtpx:TrackPointExtension></extensions></trkpt><trkpt lat="42.2003086377" lon="13.4169454314"><ele>1712.15</ele><time>2026-03-11T15:32:02Z</time><extensions><gpxtpx:TrackPointExtension><gpxtpx:atemp>2.4</gpxtpx:atemp></gpxtpx:TrackPointExtension></extensions></trkpt><trkpt lat="42.2003089730" lon="13.4169456828"><ele>1712.47</ele><time>2026-03-11T15:32:03Z</time><extensions><gpxtpx:TrackPointExtension><gpxtpx:atemp>2.4</gpxtpx:atemp></gpxtpx:TrackPointExtension></extensions></trkpt><trkpt lat="42.2003088892" lon="13.4169458505"><ele>1712.75</ele><time>2026-03-11T15:32:04Z</time><extensions><gpxtpx:TrackPointExtension><gpxtpx:atemp>2.4</gpxtpx:atemp></gpxtpx:TrackPointExtension></extensions></trkpt><trkpt lat="42.2003086377" lon="13.4169458505"><ele>1712.75</ele><time>2026-03-11T15:32:05Z</time><extensions><gpxtpx:TrackPointExtension><gpxtpx:atemp>2.4</gpxtpx:atemp></gpxtpx:TrackPointExtension></extensions></trkpt><trkpt lat="42.2003086377" lon="13.4169457667"><ele>1712.78</ele><time>2026-03-11T15:32:06Z</time><extensions><gpxtpx:TrackPointExtension><gpxtpx:atemp>2.4</gpxtpx:atemp></gpxtpx:TrackPointExtension></extensions></trkpt><trkpt lat="42.2003090568" lon="13.4169462696"><ele>1712.87</ele><time>2026-03-11T15:32:07Z</time><extensions><gpxtpx:TrackPointExtension><gpxtpx:atemp>2.4</gpxtpx:atemp></gpxtpx:TrackPointExtension></extensions></trkpt><trkpt lat="42.2003087215" lon="13.4169467725"><ele>1712.87</ele><time>2026-03-11T15:32:08Z</time><extensions><gpxtpx:TrackPointExtension><gpxtpx:atemp>2.4</gpxtpx:atemp></gpxtpx:TrackPointExtension></extensions></trkpt><trkpt lat="42.2003086377" lon="13.4169468563"><ele>1712.78</ele><time>2026-03-11T15:32:09Z</time><extensions><gpxtpx:TrackPointExtension><gpxtpx:atemp>2.4</gpxtpx:atemp></gpxtpx:TrackPointExtension></extensions></trkpt><trkpt lat="42.2003086377" lon="13.4169471916"><ele>1712.70</ele><time>2026-03-11T15:32:10Z</time><extensions><gpxtpx:TrackPointExtension><gpxtpx:atemp>2.4</gpxtpx:atemp></gpxtpx:TrackPointExtension></extensions></trkpt><trkpt lat="42.2003088892" lon="13.4169469401"><ele>1712.66</ele><time>2026-03-11T15:32:11Z</time><extensions><gpxtpx:TrackPointExtension><gpxtpx:atemp>2.4</gpxtpx:atemp></gpxtpx:TrackPointExtension></extensions></trkpt><trkpt lat="42.2003087215" lon="13.4169471916"><ele>1712.63</ele><time>2026-03-11T15:32:12Z</time><extensions><gpxtpx:TrackPointExtension><gpxtpx:atemp>2.4</gpxtpx:atemp></gpxtpx:TrackPointExtension></extensions></trkpt><trkpt lat="42.2003088892" lon="13.4169472754"><ele>1712.56</ele><time>2026-03-11T15:32:13Z</time><extensions><gpxtpx:TrackPointExtension><gpxtpx:atemp>2.4</gpxtpx:atemp></gpxtpx:TrackPointExtension></extensions></trkpt><trkpt lat="42.2003087215" lon="13.4169475269"><ele>1712.48</ele><time>2026-03-11T15:32:14Z</time><extensions><gpxtpx:TrackPointExtension><gpxtpx:atemp>2.4</gpxtpx:atemp></gpxtpx:TrackPointExtension></extensions></trkpt><trkpt lat="42.2003094759" lon="13.4169475269"><ele>1712.44</ele><time>2026-03-11T15:32:15Z</time><extensions><gpxtpx:TrackPointExtension><gpxtpx:atemp>2.4</gpxtpx:atemp></gpxtpx:TrackPointExtension></extensions></trkpt><trkpt lat="42.2003093921" lon="13.4169474430"><ele>1712.41</ele><time>2026-03-11T15:32:16Z</time><extensions><gpxtpx:TrackPointExtension><gpxtpx:atemp>2.4</gpxtpx:atemp></gpxtpx:TrackPointExtension></extensions></trkpt><trkpt lat="42.2003090568" lon="13.4169464372"><ele>1712.38</ele><time>2026-03-11T15:32:17Z</time><extensions><gpxtpx:TrackPointExtension><gpxtpx:atemp>2.4</gpxtpx:atemp></gpxtpx:TrackPointExtension></extensions></trkpt><trkpt lat="42.2003084701" lon="13.4169443417"><ele>1712.38</ele><time>2026-03-11T15:32:18Z</time><extensions><gpxtpx:TrackPointExtension><gpxtpx:atemp>2.4</gpxtpx:atemp></gpxtpx:TrackPointExtension></extensions></trkpt><trkpt lat="42.2003087215" lon="13.4169423301"><ele>1712.34</ele><time>2026-03-11T15:32:19Z</time><extensions><gpxtpx:TrackPointExtension><gpxtpx:atemp>2.4</gpxtpx:atemp></gpxtpx:TrackPointExtension></extensions></trkpt><trkpt lat="42.2003084701" lon="13.4169393964"><ele>1712.30</ele><time>2026-03-11T15:32:20Z</time><extensions><gpxtpx:TrackPointExtension><gpxtpx:atemp>2.4</gpxtpx:atemp></gpxtpx:TrackPointExtension></extensions></trkpt><trkpt lat="42.2003074642" lon="13.4169370495"><ele>1712.27</ele><time>2026-03-11T15:32:21Z</time><extensions><gpxtpx:TrackPointExtension><gpxtpx:atemp>2.4</gpxtpx:atemp></gpxtpx:TrackPointExtension></extensions></trkpt><trkpt lat="42.2003059555" lon="13.4169340320"><ele>1712.25</ele><time>2026-03-11T15:32:22Z</time><extensions><gpxtpx:TrackPointExtension><gpxtpx:atemp>2.4</gpxtpx:atemp></gpxtpx:TrackPointExtension></extensions></trkpt><trkpt lat="42.2003060393" lon="13.4169337805"><ele>1712.21</ele><time>2026-03-11T15:32:23Z</time><extensions><gpxtpx:TrackPointExtension><gpxtpx:atemp>2.4</gpxtpx:atemp></gpxtpx:TrackPointExtension></extensions></trkpt><trkpt lat="42.2003061231" lon="13.4169337805"><ele>1712.17</ele><time>2026-03-11T15:32:24Z</time><extensions><gpxtpx:TrackPointExtension><gpxtpx:atemp>2.4</gpxtpx:atemp></gpxtpx:TrackPointExtension></extensions></trkpt><trkpt lat="42.2003052849" lon="13.4169322718"><ele>1712.11</ele><time>2026-03-11T15:32:25Z</time><extensions><gpxtpx:TrackPointExtension><gpxtpx:atemp>2.4</gpxtpx:atemp></gpxtpx:TrackPointExtension></extensions></trkpt><trkpt lat="42.2003041953" lon="13.4169308469"><ele>1712.06</ele><time>2026-03-11T15:32:26Z</time><extensions><gpxtpx:TrackPointExtension><gpxtpx:atemp>2.4</gpxtpx:atemp></gpxtpx:TrackPointExtension></extensions></trkpt><trkpt lat="42.2003038600" lon="13.4169312660"><ele>1712.02</ele><time>2026-03-11T15:32:27Z</time><extensions><gpxtpx:TrackPointExtension><gpxtpx:atemp>2.4</gpxtpx:atemp></gpxtpx:TrackPointExtension></extensions></trkpt><trkpt lat="42.2003040276" lon="13.4169317689"><ele>1711.98</ele><time>2026-03-11T15:32:28Z</time><extensions><gpxtpx:TrackPointExtension><gpxtpx:atemp>2.4</gpxtpx:atemp></gpxtpx:TrackPointExtension></extensions></trkpt><trkpt lat="42.2003040276" lon="13.4169320203"><ele>1711.96</ele><time>2026-03-11T15:32:29Z</time><extensions><gpxtpx:TrackPointExtension><gpxtpx:atemp>2.4</gpxtpx:atemp></gpxtpx:TrackPointExtension></extensions></trkpt><trkpt lat="42.2003041953" lon="13.4169323556"><ele>1711.95</ele><time>2026-03-11T15:32:30Z</time><extensions><gpxtpx:TrackPointExtension><gpxtpx:atemp>2.4</gpxtpx:atemp></gpxtpx:TrackPointExtension></extensions></trkpt><trkpt lat="42.2003040276" lon="13.4169324394"><ele>1711.95</ele><time>2026-03-11T15:32:31Z</time><extensions><gpxtpx:TrackPointExtension><gpxtpx:atemp>2.4</gpxtpx:atemp></gpxtpx:TrackPointExtension></extensions></trkpt><trkpt lat="42.2003051173" lon="13.4169344511"><ele>1711.94</ele><time>2026-03-11T15:32:32Z</time><extensions><gpxtpx:TrackPointExtension><gpxtpx:atemp>2.4</gpxtpx:atemp></gpxtpx:TrackPointExtension></extensions></trkpt><trkpt lat="42.2003068775" lon="13.4169376362"><ele>1711.93</ele><time>2026-03-11T15:32:33Z</time><extensions><gpxtpx:TrackPointExtension><gpxtpx:atemp>2.4</gpxtpx:atemp></gpxtpx:TrackPointExtension></extensions></trkpt><trkpt lat="42.2003084701" lon="13.4169408213"><ele>1711.88</ele><time>2026-03-11T15:32:34Z</time><extensions><gpxtpx:TrackPointExtension><gpxtpx:atemp>2.3</gpxtpx:atemp></gpxtpx:TrackPointExtension></extensions></trkpt><trkpt lat="42.2003104817" lon="13.4169419948"><ele>1711.80</ele><time>2026-03-11T15:32:35Z</time><extensions><gpxtpx:TrackPointExtension><gpxtpx:atemp>2.3</gpxtpx:atemp></gpxtpx:TrackPointExtension></extensions></trkpt><trkpt lat="42.2003116552" lon="13.4169417433"><ele>1711.77</ele><time>2026-03-11T15:32:36Z</time><extensions><gpxtpx:TrackPointExtension><gpxtpx:atemp>2.3</gpxtpx:atemp></gpxtpx:TrackPointExtension></extensions></trkpt><trkpt lat="42.2003117390" lon="13.4169421624"><ele>1711.75</ele><time>2026-03-11T15:32:37Z</time><extensions><gpxtpx:TrackPointExtension><gpxtpx:atemp>2.3</gpxtpx:atemp></gpxtpx:TrackPointExtension></extensions></trkpt><trkpt lat="42.2003117390" lon="13.4169430844"><ele>1711.75</ele><time>2026-03-11T15:32:38Z</time><extensions><gpxtpx:TrackPointExtension><gpxtpx:atemp>2.3</gpxtpx:atemp></gpxtpx:TrackPointExtension></extensions></trkpt><trkpt lat="42.2003148403" lon="13.4169490356"><ele>1711.78</ele><time>2026-03-11T15:32:39Z</time><extensions><gpxtpx:TrackPointExtension><gpxtpx:atemp>2.3</gpxtpx:atemp></gpxtpx:TrackPointExtension></extensions></trkpt><trkpt lat="42.2003175225" lon="13.4169552382"><ele>1711.85</ele><time>2026-03-11T15:32:40Z</time><extensions><gpxtpx:TrackPointExtension><gpxtpx:atemp>2.3</gpxtpx:atemp></gpxtpx:TrackPointExtension></extensions></trkpt><trkpt lat="42.2003188636" lon="13.4169602674"><ele>1711.92</ele><time>2026-03-11T15:32:41Z</time><extensions><gpxtpx:TrackPointExtension><gpxtpx:atemp>2.3</gpxtpx:atemp></gpxtpx:TrackPointExtension></extensions></trkpt><trkpt lat="42.2003216296" lon="13.4169645421"><ele>1711.96</ele><time>2026-03-11T15:32:42Z</time><extensions><gpxtpx:TrackPointExtension><gpxtpx:atemp>2.3</gpxtpx:atemp></gpxtpx:TrackPointExtension></extensions></trkpt><trkpt lat="42.2003215458" lon="13.4169673920"><ele>1712.00</ele><time>2026-03-11T15:32:43Z</time><extensions><gpxtpx:TrackPointExtension><gpxtpx:atemp>2.3</gpxtpx:atemp></gpxtpx:TrackPointExtension></extensions></trkpt><trkpt lat="42.2003219649" lon="13.4169686493"><ele>1712.10</ele><time>2026-03-11T15:32:44Z</time><extensions><gpxtpx:TrackPointExtension><gpxtpx:atemp>2.3</gpxtpx:atemp></gpxtpx:TrackPointExtension></extensions></trkpt><trkpt lat="42.2003209591" lon="13.4169667214"><ele>1712.13</ele><time>2026-03-11T15:32:45Z</time><extensions><gpxtpx:TrackPointExtension><gpxtpx:atemp>2.3</gpxtpx:atemp></gpxtpx:TrackPointExtension></extensions></trkpt><trkpt lat="42.2003213782" lon="13.4169675596"><ele>1712.14</ele><time>2026-03-11T15:32:46Z</time><extensions><gpxtpx:TrackPointExtension><gpxtpx:atemp>2.3</gpxtpx:atemp></gpxtpx:TrackPointExtension></extensions></trkpt><trkpt lat="42.2003208753" lon="13.4169677272"><ele>1712.14</ele><time>2026-03-11T15:32:47Z</time><extensions><gpxtpx:TrackPointExtension><gpxtpx:atemp>2.3</gpxtpx:atemp></gpxtpx:TrackPointExtension></extensions></trkpt><trkpt lat="42.2003210429" lon="13.4169679787"><ele>1712.11</ele><time>2026-03-11T15:32:48Z</time><extensions><gpxtpx:TrackPointExtension><gpxtpx:atemp>2.3</gpxtpx:atemp></gpxtpx:TrackPointExtension></extensions></trkpt><trkpt lat="42.2003207915" lon="13.4169673920"><ele>1712.09</ele><time>2026-03-11T15:32:49Z</time><extensions><gpxtpx:TrackPointExtension><gpxtpx:atemp>2.3</gpxtpx:atemp></gpxtpx:TrackPointExtension></extensions></trkpt><trkpt lat="42.2003180254" lon="13.4169702418"><ele>1712.06</ele><time>2026-03-11T15:32:50Z</time><extensions><gpxtpx:TrackPointExtension><gpxtpx:atemp>2.3</gpxtpx:atemp></gpxtpx:TrackPointExtension></extensions></trkpt><trkpt lat="42.2003185283" lon="13.4169722535"><ele>1712.04</ele><time>2026-03-11T15:32:51Z</time><extensions><gpxtpx:TrackPointExtension><gpxtpx:atemp>2.3</gpxtpx:atemp></gpxtpx:TrackPointExtension></extensions></trkpt><trkpt lat="42.2003203724" lon="13.4169781208"><ele>1712.04</ele><time>2026-03-11T15:32:52Z</time><extensions><gpxtpx:TrackPointExtension><gpxtpx:atemp>2.3</gpxtpx:atemp></gpxtpx:TrackPointExtension></extensions></trkpt><trkpt lat="42.2003212944" lon="13.4169818927"><ele>1712.04</ele><time>2026-03-11T15:32:53Z</time><extensions><gpxtpx:TrackPointExtension><gpxtpx:atemp>2.3</gpxtpx:atemp></gpxtpx:TrackPointExtension></extensions></trkpt><trkpt lat="42.2003211267" lon="13.4169842396"><ele>1712.07</ele><time>2026-03-11T15:32:54Z</time><extensions><gpxtpx:TrackPointExtension><gpxtpx:atemp>2.3</gpxtpx:atemp></gpxtpx:TrackPointExtension></extensions></trkpt><trkpt lat="42.2003211267" lon="13.4169857483"><ele>1712.17</ele><time>2026-03-11T15:32:55Z</time><extensions><gpxtpx:TrackPointExtension><gpxtpx:atemp>2.3</gpxtpx:atemp></gpxtpx:TrackPointExtension></extensions></trkpt><trkpt lat="42.2003210429" lon="13.4169870894"><ele>1712.23</ele><time>2026-03-11T15:32:56Z</time><extensions><gpxtpx:TrackPointExtension><gpxtpx:atemp>2.3</gpxtpx:atemp></gpxtpx:TrackPointExtension></extensions></trkpt><trkpt lat="42.2003210429" lon="13.4169888496"><ele>1712.27</ele><time>2026-03-11T15:32:57Z</time><extensions><gpxtpx:TrackPointExtension><gpxtpx:atemp>2.3</gpxtpx:atemp></gpxtpx:TrackPointExtension></extensions></trkpt><trkpt lat="42.2003214620" lon="13.4169887658"><ele>1712.33</ele><time>2026-03-11T15:32:58Z</time><extensions><gpxtpx:TrackPointExtension><gpxtpx:atemp>2.3</gpxtpx:atemp></gpxtpx:TrackPointExtension></extensions></trkpt><trkpt lat="42.2003215458" lon="13.4169899393"><ele>1712.37</ele><time>2026-03-11T15:32:59Z</time><extensions><gpxtpx:TrackPointExtension><gpxtpx:atemp>2.3</gpxtpx:atemp></gpxtpx:TrackPointExtension></extensions></trkpt><trkpt lat="42.2003230546" lon="13.4169926215"><ele>1712.39</ele><time>2026-03-11T15:33:00Z</time><extensions><gpxtpx:TrackPointExtension><gpxtpx:atemp>2.3</gpxtpx:atemp></gpxtpx:TrackPointExtension></extensions></trkpt><trkpt lat="42.2003240604" lon="13.4169935435"><ele>1712.39</ele><time>2026-03-11T15:33:01Z</time><extensions><gpxtpx:TrackPointExtension><gpxtpx:atemp>2.3</gpxtpx:atemp></gpxtpx:TrackPointExtension></extensions></trkpt><trkpt lat="42.2003232222" lon="13.4169973992"><ele>1712.39</ele><time>2026-03-11T15:33:02Z</time><extensions><gpxtpx:TrackPointExtension><gpxtpx:atemp>2.3</gpxtpx:atemp></gpxtpx:TrackPointExtension></extensions></trkpt><trkpt lat="42.2003235575" lon="13.4170030989"><ele>1712.39</ele><time>2026-03-11T15:33:03Z</time><extensions><gpxtpx:TrackPointExtension><gpxtpx:atemp>2.3</gpxtpx:atemp></gpxtpx:TrackPointExtension></extensions></trkpt><trkpt lat="42.2003230546" lon="13.4170106426"><ele>1712.40</ele><time>2026-03-11T15:33:04Z</time><extensions><gpxtpx:TrackPointExtension><gpxtpx:atemp>2.3</gpxtpx:atemp></gpxtpx:TrackPointExtension></extensions></trkpt><trkpt lat="42.2003264911" lon="13.4170241375"><ele>1712.41</ele><time>2026-03-11T15:33:05Z</time><extensions><gpxtpx:TrackPointExtension><gpxtpx:atemp>2.3</gpxtpx:atemp></gpxtpx:TrackPointExtension></extensions></trkpt><trkpt lat="42.2003342863" lon="13.4170346987"><ele>1712.40</ele><time>2026-03-11T15:33:06Z</time><extensions><gpxtpx:TrackPointExtension><gpxtpx:atemp>2.3</gpxtpx:atemp></gpxtpx:TrackPointExtension></extensions></trkpt><trkpt lat="42.2003429197" lon="13.4170486964"><ele>1712.40</ele><time>2026-03-11T15:33:07Z</time><extensions><gpxtpx:TrackPointExtension><gpxtpx:atemp>2.3</gpxtpx:atemp></gpxtpx:TrackPointExtension></extensions></trkpt><trkpt lat="42.2003548220" lon="13.4170599282"><ele>1712.34</ele><time>2026-03-11T15:33:08Z</time><extensions><gpxtpx:TrackPointExtension><gpxtpx:atemp>2.3</gpxtpx:atemp></gpxtpx:TrackPointExtension></extensions></trkpt><trkpt lat="42.2003659699" lon="13.4170720819"><ele>1712.27</ele><time>2026-03-11T15:33:09Z</time><extensions><gpxtpx:TrackPointExtension><gpxtpx:atemp>2.3</gpxtpx:atemp></gpxtpx:TrackPointExtension></extensions></trkpt><trkpt lat="42.2003753576" lon="13.4170805477"><ele>1712.20</ele><time>2026-03-11T15:33:10Z</time><extensions><gpxtpx:TrackPointExtension><gpxtpx:atemp>2.3</gpxtpx:atemp></gpxtpx:TrackPointExtension></extensions></trkpt><trkpt lat="42.2003858350" lon="13.4170925338"><ele>1712.11</ele><time>2026-03-11T15:33:11Z</time><extensions><gpxtpx:TrackPointExtension><gpxtpx:atemp>2.3</gpxtpx:atemp></gpxtpx:TrackPointExtension></extensions></trkpt><trkpt lat="42.2003990784" lon="13.4171030950"><ele>1712.03</ele><time>2026-03-11T15:33:12Z</time><extensions><gpxtpx:TrackPointExtension><gpxtpx:atemp>2.3</gpxtpx:atemp></gpxtpx:TrackPointExtension></extensions></trkpt><trkpt lat="42.2004120704" lon="13.4171196911"><ele>1711.94</ele><time>2026-03-11T15:33:13Z</time><extensions><gpxtpx:TrackPointExtension><gpxtpx:atemp>2.3</gpxtpx:atemp></gpxtpx:TrackPointExtension></extensions></trkpt><trkpt lat="42.2004208714" lon="13.4171321802"><ele>1711.89</ele><time>2026-03-11T15:33:14Z</time><extensions><gpxtpx:TrackPointExtension><gpxtpx:atemp>2.3</gpxtpx:atemp></gpxtpx:TrackPointExtension></extensions></trkpt><trkpt lat="42.2004299238" lon="13.4171451721"><ele>1711.79</ele><time>2026-03-11T15:33:15Z</time><extensions><gpxtpx:TrackPointExtension><gpxtpx:atemp>2.3</gpxtpx:atemp></gpxtpx:TrackPointExtension></extensions></trkpt><trkpt lat="42.2004394792" lon="13.4171617683"><ele>1711.62</ele><time>2026-03-11T15:33:16Z</time><extensions><gpxtpx:TrackPointExtension><gpxtpx:atemp>2.3</gpxtpx:atemp></gpxtpx:TrackPointExtension></extensions></trkpt><trkpt lat="42.2004493698" lon="13.4171763528"><ele>1711.45</ele><time>2026-03-11T15:33:17Z</time><extensions><gpxtpx:TrackPointExtension><gpxtpx:atemp>2.3</gpxtpx:atemp></gpxtpx:TrackPointExtension></extensions></trkpt><trkpt lat="42.2004571650" lon="13.4171880875"><ele>1711.26</ele><time>2026-03-11T15:33:18Z</time><extensions><gpxtpx:TrackPointExtension><gpxtpx:atemp>2.3</gpxtpx:atemp></gpxtpx:TrackPointExtension></extensions></trkpt><trkpt lat="42.2004619427" lon="13.4171964694"><ele>1711.17</ele><time>2026-03-11T15:33:19Z</time><extensions><gpxtpx:TrackPointExtension><gpxtpx:atemp>2.3</gpxtpx:atemp></gpxtpx:TrackPointExtension></extensions></trkpt><trkpt lat="42.2004652955" lon="13.4172023367"><ele>1711.08</ele><time>2026-03-11T15:33:20Z</time><extensions><gpxtpx:TrackPointExtension><gpxtpx:atemp>2.3</gpxtpx:atemp></gpxtpx:TrackPointExtension></extensions></trkpt><trkpt lat="42.2004691511" lon="13.4172070306"><ele>1711.01</ele><time>2026-03-11T15:33:21Z</time><extensions><gpxtpx:TrackPointExtension><gpxtpx:atemp>2.3</gpxtpx:atemp></gpxtpx:TrackPointExtension></extensions></trkpt><trkpt lat="42.2004777845" lon="13.4172186814"><ele>1710.95</ele><time>2026-03-11T15:33:22Z</time><extensions><gpxtpx:TrackPointExtension><gpxtpx:atemp>2.3</gpxtpx:atemp></gpxtpx:TrackPointExtension></extensions></trkpt><trkpt lat="42.2004866693" lon="13.4172317572"><ele>1710.89</ele><time>2026-03-11T15:33:23Z</time><extensions><gpxtpx:TrackPointExtension><gpxtpx:atemp>2.3</gpxtpx:atemp></gpxtpx:TrackPointExtension></extensions></trkpt><trkpt lat="42.2004963923" lon="13.4172451682"><ele>1710.81</ele><time>2026-03-11T15:33:24Z</time><extensions><gpxtpx:TrackPointExtension><gpxtpx:atemp>2.3</gpxtpx:atemp></gpxtpx:TrackPointExtension></extensions></trkpt><trkpt lat="42.2005049419" lon="13.4172578249"><ele>1710.73</ele><time>2026-03-11T15:33:25Z</time><extensions><gpxtpx:TrackPointExtension><gpxtpx:atemp>2.3</gpxtpx:atemp></gpxtpx:TrackPointExtension></extensions></trkpt><trkpt lat="42.2005160898" lon="13.4172705654"><ele>1710.68</ele><time>2026-03-11T15:33:26Z</time><extensions><gpxtpx:TrackPointExtension><gpxtpx:atemp>2.3</gpxtpx:atemp></gpxtpx:TrackPointExtension></extensions></trkpt><trkpt lat="42.2005273215" lon="13.4172871616"><ele>1710.62</ele><time>2026-03-11T15:33:27Z</time><extensions><gpxtpx:TrackPointExtension><gpxtpx:atemp>2.3</gpxtpx:atemp></gpxtpx:TrackPointExtension></extensions></trkpt><trkpt lat="42.2005398944" lon="13.4173020814"><ele>1710.53</ele><time>2026-03-11T15:33:28Z</time><extensions><gpxtpx:TrackPointExtension><gpxtpx:atemp>2.3</gpxtpx:atemp></gpxtpx:TrackPointExtension></extensions></trkpt><trkpt lat="42.2005486954" lon="13.4173178393"><ele>1710.36</ele><time>2026-03-11T15:33:29Z</time><extensions><gpxtpx:TrackPointExtension><gpxtpx:atemp>2.3</gpxtpx:atemp></gpxtpx:TrackPointExtension></extensions></trkpt><trkpt lat="42.2005553171" lon="13.4173354413"><ele>1710.27</ele><time>2026-03-11T15:33:30Z</time><extensions><gpxtpx:TrackPointExtension><gpxtpx:atemp>2.3</gpxtpx:atemp></gpxtpx:TrackPointExtension></extensions></trkpt><trkpt lat="42.2005602624" lon="13.4173476789"><ele>1710.21</ele><time>2026-03-11T15:33:31Z</time><extensions><gpxtpx:TrackPointExtension><gpxtpx:atemp>2.3</gpxtpx:atemp></gpxtpx:TrackPointExtension></extensions></trkpt><trkpt lat="42.2005657945" lon="13.4173610900"><ele>1710.13</ele><time>2026-03-11T15:33:32Z</time><extensions><gpxtpx:TrackPointExtension><gpxtpx:atemp>2.3</gpxtpx:atemp></gpxtpx:TrackPointExtension></extensions></trkpt><trkpt lat="42.2005697340" lon="13.4173587430"><ele>1710.04</ele><time>2026-03-11T15:33:33Z</time><extensions><gpxtpx:TrackPointExtension><gpxtpx:atemp>2.3</gpxtpx:atemp></gpxtpx:TrackPointExtension></extensions></trkpt><trkpt lat="42.2005767748" lon="13.4173703939"><ele>1709.95</ele><time>2026-03-11T15:33:34Z</time><extensions><gpxtpx:TrackPointExtension><gpxtpx:atemp>2.3</gpxtpx:atemp></gpxtpx:TrackPointExtension></extensions></trkpt><trkpt lat="42.2005816363" lon="13.4173737466"><ele>1709.87</ele><time>2026-03-11T15:33:35Z</time><extensions><gpxtpx:TrackPointExtension><gpxtpx:atemp>2.3</gpxtpx:atemp></gpxtpx:TrackPointExtension></extensions></trkpt><trkpt lat="42.2005870845" lon="13.4173805360"><ele>1709.84</ele><time>2026-03-11T15:33:36Z</time><extensions><gpxtpx:TrackPointExtension><gpxtpx:atemp>2.3</gpxtpx:atemp></gpxtpx:TrackPointExtension></extensions></trkpt><trkpt lat="42.2005928680" lon="13.4173819609"><ele>1709.81</ele><time>2026-03-11T15:33:37Z</time><extensions><gpxtpx:TrackPointExtension><gpxtpx:atemp>2.3</gpxtpx:atemp></gpxtpx:TrackPointExtension></extensions></trkpt><trkpt lat="42.2005976457" lon="13.4173914324"><ele>1709.77</ele><time>2026-03-11T15:33:38Z</time><extensions><gpxtpx:TrackPointExtension><gpxtpx:atemp>2.3</gpxtpx:atemp></gpxtpx:TrackPointExtension></extensions></trkpt><trkpt lat="42.2006087936" lon="13.4174052626"><ele>1709.72</ele><time>2026-03-11T15:33:39Z</time><extensions><gpxtpx:TrackPointExtension><gpxtpx:atemp>2.3</gpxtpx:atemp></gpxtpx:TrackPointExtension></extensions></trkpt><trkpt lat="42.2006203607" lon="13.4174188413"><ele>1709.67</ele><time>2026-03-11T15:33:40Z</time><extensions><gpxtpx:TrackPointExtension><gpxtpx:atemp>2.3</gpxtpx:atemp></gpxtpx:TrackPointExtension></extensions></trkpt><trkpt lat="42.2006330173" lon="13.4174297377"><ele>1709.62</ele><time>2026-03-11T15:33:41Z</time><extensions><gpxtpx:TrackPointExtension><gpxtpx:atemp>2.3</gpxtpx:atemp></gpxtpx:TrackPointExtension></extensions></trkpt><trkpt lat="42.2006450873" lon="13.4174372815"><ele>1709.60</ele><time>2026-03-11T15:33:42Z</time><extensions><gpxtpx:TrackPointExtension><gpxtpx:atemp>2.3</gpxtpx:atemp></gpxtpx:TrackPointExtension></extensions></trkpt><trkpt lat="42.2006534692" lon="13.4174435679"><ele>1709.57</ele><time>2026-03-11T15:33:43Z</time><extensions><gpxtpx:TrackPointExtension><gpxtpx:atemp>2.3</gpxtpx:atemp></gpxtpx:TrackPointExtension></extensions></trkpt><trkpt lat="42.2006633598" lon="13.4174507763"><ele>1709.56</ele><time>2026-03-11T15:33:44Z</time><extensions><gpxtpx:TrackPointExtension><gpxtpx:atemp>2.3</gpxtpx:atemp></gpxtpx:TrackPointExtension></extensions></trkpt><trkpt lat="42.2006744239" lon="13.4174533747"><ele>1709.56</ele><time>2026-03-11T15:33:45Z</time><extensions><gpxtpx:TrackPointExtension><gpxtpx:atemp>2.3</gpxtpx:atemp></gpxtpx:TrackPointExtension></extensions></trkpt><trkpt lat="42.2006799560" lon="13.4174586553"><ele>1709.56</ele><time>2026-03-11T15:33:46Z</time><extensions><gpxtpx:TrackPointExtension><gpxtpx:atemp>2.3</gpxtpx:atemp></gpxtpx:TrackPointExtension></extensions></trkpt><trkpt lat="42.2006838955" lon="13.4174606670"><ele>1709.56</ele><time>2026-03-11T15:33:47Z</time><extensions><gpxtpx:TrackPointExtension><gpxtpx:atemp>2.3</gpxtpx:atemp></gpxtpx:TrackPointExtension></extensions></trkpt><trkpt lat="42.2006878350" lon="13.4174632654"><ele>1709.56</ele><time>2026-03-11T15:33:48Z</time><extensions><gpxtpx:TrackPointExtension><gpxtpx:atemp>2.3</gpxtpx:atemp></gpxtpx:TrackPointExtension></extensions></trkpt><trkpt lat="42.2006924450" lon="13.4174670372"><ele>1709.56</ele><time>2026-03-11T15:33:49Z</time><extensions><gpxtpx:TrackPointExtension><gpxtpx:atemp>2.3</gpxtpx:atemp></gpxtpx:TrackPointExtension></extensions></trkpt><trkpt lat="42.2006948758" lon="13.4174687974"><ele>1709.54</ele><time>2026-03-11T15:33:50Z</time><extensions><gpxtpx:TrackPointExtension><gpxtpx:atemp>2.3</gpxtpx:atemp></gpxtpx:TrackPointExtension></extensions></trkpt><trkpt lat="42.2006968874" lon="13.4174754191"><ele>1709.52</ele><time>2026-03-11T15:33:51Z</time><extensions><gpxtpx:TrackPointExtension><gpxtpx:atemp>2.3</gpxtpx:atemp></gpxtpx:TrackPointExtension></extensions></trkpt><trkpt lat="42.2007008269" lon="13.4174834657"><ele>1709.51</ele><time>2026-03-11T15:33:52Z</time><extensions><gpxtpx:TrackPointExtension><gpxtpx:atemp>2.3</gpxtpx:atemp></gpxtpx:TrackPointExtension></extensions></trkpt><trkpt lat="42.2007041797" lon="13.4174888302"><ele>1709.47</ele><time>2026-03-11T15:33:53Z</time><extensions><gpxtpx:TrackPointExtension><gpxtpx:atemp>2.3</gpxtpx:atemp></gpxtpx:TrackPointExtension></extensions></trkpt><trkpt lat="42.2007071972" lon="13.4174941946"><ele>1709.47</ele><time>2026-03-11T15:33:54Z</time><extensions><gpxtpx:TrackPointExtension><gpxtpx:atemp>2.3</gpxtpx:atemp></gpxtpx:TrackPointExtension></extensions></trkpt><trkpt lat="42.2007122263" lon="13.4175022412"><ele>1709.48</ele><time>2026-03-11T15:33:55Z</time><extensions><gpxtpx:TrackPointExtension><gpxtpx:atemp>2.3</gpxtpx:atemp></gpxtpx:TrackPointExtension></extensions></trkpt><trkpt lat="42.2007179260" lon="13.4175053425"><ele>1709.49</ele><time>2026-03-11T15:33:56Z</time><extensions><gpxtpx:TrackPointExtension><gpxtpx:atemp>2.3</gpxtpx:atemp></gpxtpx:TrackPointExtension></extensions></trkpt><trkpt lat="42.2007235419" lon="13.4175054263"><ele>1709.51</ele><time>2026-03-11T15:33:57Z</time><extensions><gpxtpx:TrackPointExtension><gpxtpx:atemp>2.3</gpxtpx:atemp></gpxtpx:TrackPointExtension></extensions></trkpt><trkpt lat="42.2007237934" lon="13.4175086953"><ele>1709.51</ele><time>2026-03-11T15:33:58Z</time><extensions><gpxtpx:TrackPointExtension><gpxtpx:atemp>2.3</gpxtpx:atemp></gpxtpx:TrackPointExtension></extensions></trkpt><trkpt lat="42.2007277329" lon="13.4175075218"><ele>1709.52</ele><time>2026-03-11T15:33:59Z</time><extensions><gpxtpx:TrackPointExtension><gpxtpx:atemp>2.3</gpxtpx:atemp></gpxtpx:TrackPointExtension></extensions></trkpt><trkpt lat="42.2007320914" lon="13.4175109584"><ele>1709.53</ele><time>2026-03-11T15:34:00Z</time><extensions><gpxtpx:TrackPointExtension><gpxtpx:atemp>2.3</gpxtpx:atemp></gpxtpx:TrackPointExtension></extensions></trkpt><trkpt lat="42.2007353604" lon="13.4175139759"><ele>1709.53</ele><time>2026-03-11T15:34:01Z</time><extensions><gpxtpx:TrackPointExtension><gpxtpx:atemp>2.3</gpxtpx:atemp></gpxtpx:TrackPointExtension></extensions></trkpt><trkpt lat="42.2007370368" lon="13.4175151493"><ele>1709.53</ele><time>2026-03-11T15:34:02Z</time><extensions><gpxtpx:TrackPointExtension><gpxtpx:atemp>2.3</gpxtpx:atemp></gpxtpx:TrackPointExtension></extensions></trkpt><trkpt lat="42.2007385455" lon="13.4175138921"><ele>1709.53</ele><time>2026-03-11T15:34:03Z</time><extensions><gpxtpx:TrackPointExtension><gpxtpx:atemp>2.3</gpxtpx:atemp></gpxtpx:TrackPointExtension></extensions></trkpt><trkpt lat="42.2007419821" lon="13.4175120480"><ele>1709.57</ele><time>2026-03-11T15:34:04Z</time><extensions><gpxtpx:TrackPointExtension><gpxtpx:atemp>2.3</gpxtpx:atemp></gpxtpx:TrackPointExtension></extensions></trkpt><trkpt lat="42.2007441614" lon="13.4175086953"><ele>1709.57</ele><time>2026-03-11T15:34:05Z</time><extensions><gpxtpx:TrackPointExtension><gpxtpx:atemp>2.3</gpxtpx:atemp></gpxtpx:TrackPointExtension></extensions></trkpt><trkpt lat="42.2007515375" lon="13.4175117966"><ele>1709.56</ele><time>2026-03-11T15:34:06Z</time><extensions><gpxtpx:TrackPointExtension><gpxtpx:atemp>2.3</gpxtpx:atemp></gpxtpx:TrackPointExtension></extensions></trkpt><trkpt lat="42.2007557284" lon="13.4175047558"><ele>1709.56</ele><time>2026-03-11T15:34:07Z</time><extensions><gpxtpx:TrackPointExtension><gpxtpx:atemp>2.3</gpxtpx:atemp></gpxtpx:TrackPointExtension></extensions></trkpt><trkpt lat="42.2007572372" lon="13.4175042529"><ele>1709.56</ele><time>2026-03-11T15:34:08Z</time><extensions><gpxtpx:TrackPointExtension><gpxtpx:atemp>2.3</gpxtpx:atemp></gpxtpx:TrackPointExtension></extensions></trkpt><trkpt lat="42.2007622663" lon="13.4175065998"><ele>1709.56</ele><time>2026-03-11T15:34:09Z</time><extensions><gpxtpx:TrackPointExtension><gpxtpx:atemp>2.3</gpxtpx:atemp></gpxtpx:TrackPointExtension></extensions></trkpt><trkpt lat="42.2007662896" lon="13.4175068513"><ele>1709.57</ele><time>2026-03-11T15:34:10Z</time><extensions><gpxtpx:TrackPointExtension><gpxtpx:atemp>2.3</gpxtpx:atemp></gpxtpx:TrackPointExtension></extensions></trkpt><trkpt lat="42.2007698938" lon="13.4175098687"><ele>1709.57</ele><time>2026-03-11T15:34:11Z</time><extensions><gpxtpx:TrackPointExtension><gpxtpx:atemp>2.3</gpxtpx:atemp></gpxtpx:TrackPointExtension></extensions></trkpt><trkpt lat="42.2007765993" lon="13.4175165743"><ele>1709.60</ele><time>2026-03-11T15:34:12Z</time><extensions><gpxtpx:TrackPointExtension><gpxtpx:atemp>2.3</gpxtpx:atemp></gpxtpx:TrackPointExtension></extensions></trkpt><trkpt lat="42.2007838916" lon="13.4175222740"><ele>1709.64</ele><time>2026-03-11T15:34:13Z</time><extensions><gpxtpx:TrackPointExtension><gpxtpx:atemp>2.3</gpxtpx:atemp></gpxtpx:TrackPointExtension></extensions></trkpt><trkpt lat="42.2007914353" lon="13.4175273869"><ele>1709.66</ele><time>2026-03-11T15:34:14Z</time><extensions><gpxtpx:TrackPointExtension><gpxtpx:atemp>2.3</gpxtpx:atemp></gpxtpx:TrackPointExtension></extensions></trkpt><trkpt lat="42.2007991467" lon="13.4175303206"><ele>1709.70</ele><time>2026-03-11T15:34:15Z</time><extensions><gpxtpx:TrackPointExtension><gpxtpx:atemp>2.3</gpxtpx:atemp></gpxtpx:TrackPointExtension></extensions></trkpt><trkpt lat="42.2008048464" lon="13.4175353497"><ele>1709.73</ele><time>2026-03-11T15:34:16Z</time><extensions><gpxtpx:TrackPointExtension><gpxtpx:atemp>2.3</gpxtpx:atemp></gpxtpx:TrackPointExtension></extensions></trkpt><trkpt lat="42.2008126415" lon="13.4175497666"><ele>1709.75</ele><time>2026-03-11T15:34:17Z</time><extensions><gpxtpx:TrackPointExtension><gpxtpx:atemp>2.3</gpxtpx:atemp></gpxtpx:TrackPointExtension></extensions></trkpt><trkpt lat="42.2008167487" lon="13.4175565559"><ele>1709.76</ele><time>2026-03-11T15:34:18Z</time><extensions><gpxtpx:TrackPointExtension><gpxtpx:atemp>2.3</gpxtpx:atemp></gpxtpx:TrackPointExtension></extensions></trkpt><trkpt lat="42.2008245438" lon="13.4175598249"><ele>1709.76</ele><time>2026-03-11T15:34:19Z</time><extensions><gpxtpx:TrackPointExtension><gpxtpx:atemp>2.3</gpxtpx:atemp></gpxtpx:TrackPointExtension></extensions></trkpt><trkpt lat="42.2008315846" lon="13.4175643511"><ele>1709.78</ele><time>2026-03-11T15:34:20Z</time><extensions><gpxtpx:TrackPointExtension><gpxtpx:atemp>2.3</gpxtpx:atemp></gpxtpx:TrackPointExtension></extensions></trkpt><trkpt lat="42.2008371167" lon="13.4175710566"><ele>1709.79</ele><time>2026-03-11T15:34:21Z</time><extensions><gpxtpx:TrackPointExtension><gpxtpx:atemp>2.3</gpxtpx:atemp></gpxtpx:TrackPointExtension></extensions></trkpt><trkpt lat="42.2008417267" lon="13.4175770916"><ele>1709.79</ele><time>2026-03-11T15:34:22Z</time><extensions><gpxtpx:TrackPointExtension><gpxtpx:atemp>2.3</gpxtpx:atemp></gpxtpx:TrackPointExtension></extensions></trkpt><trkpt lat="42.2008495219" lon="13.4175817855"><ele>1709.83</ele><time>2026-03-11T15:34:23Z</time><extensions><gpxtpx:TrackPointExtension><gpxtpx:atemp>2.3</gpxtpx:atemp></gpxtpx:TrackPointExtension></extensions></trkpt><trkpt lat="42.2008567303" lon="13.4175900836"><ele>1709.84</ele><time>2026-03-11T15:34:24Z</time><extensions><gpxtpx:TrackPointExtension><gpxtpx:atemp>2.3</gpxtpx:atemp></gpxtpx:TrackPointExtension></extensions></trkpt><trkpt lat="42.2008635197" lon="13.4175970405"><ele>1709.85</ele><time>2026-03-11T15:34:25Z</time><extensions><gpxtpx:TrackPointExtension><gpxtpx:atemp>2.3</gpxtpx:atemp></gpxtpx:TrackPointExtension></extensions></trkpt><trkpt lat="42.2008713987" lon="13.4176052548"><ele>1709.88</ele><time>2026-03-11T15:34:26Z</time><extensions><gpxtpx:TrackPointExtension><gpxtpx:atemp>2.3</gpxtpx:atemp></gpxtpx:TrackPointExtension></extensions></trkpt><trkpt lat="42.2008778527" lon="13.4176132176"><ele>1709.91</ele><time>2026-03-11T15:34:27Z</time><extensions><gpxtpx:TrackPointExtension><gpxtpx:atemp>2.3</gpxtpx:atemp></gpxtpx:TrackPointExtension></extensions></trkpt><trkpt lat="42.2008853965" lon="13.4176239464"><ele>1709.92</ele><time>2026-03-11T15:34:28Z</time><extensions><gpxtpx:TrackPointExtension><gpxtpx:atemp>2.3</gpxtpx:atemp></gpxtpx:TrackPointExtension></extensions></trkpt><trkpt lat="42.2008931916" lon="13.4176309872"><ele>1709.92</ele><time>2026-03-11T15:34:29Z</time><extensions><gpxtpx:TrackPointExtension><gpxtpx:atemp>2.3</gpxtpx:atemp></gpxtpx:TrackPointExtension></extensions></trkpt><trkpt lat="42.2008990590" lon="13.4176403750"><ele>1709.92</ele><time>2026-03-11T15:34:30Z</time><extensions><gpxtpx:TrackPointExtension><gpxtpx:atemp>2.3</gpxtpx:atemp></gpxtpx:TrackPointExtension></extensions></trkpt><trkpt lat="42.2009060998" lon="13.4176489245"><ele>1709.93</ele><time>2026-03-11T15:34:31Z</time><extensions><gpxtpx:TrackPointExtension><gpxtpx:atemp>2.3</gpxtpx:atemp></gpxtpx:TrackPointExtension></extensions></trkpt><trkpt lat="42.2009116318" lon="13.4176553786"><ele>1709.94</ele><time>2026-03-11T15:34:32Z</time><extensions><gpxtpx:TrackPointExtension><gpxtpx:atemp>2.3</gpxtpx:atemp></gpxtpx:TrackPointExtension></extensions></trkpt><trkpt lat="42.2009202652" lon="13.4176589828"><ele>1709.94</ele><time>2026-03-11T15:34:33Z</time><extensions><gpxtpx:TrackPointExtension><gpxtpx:atemp>2.3</gpxtpx:atemp></gpxtpx:TrackPointExtension></extensions></trkpt><trkpt lat="42.2009288985" lon="13.4176622517"><ele>1709.97</ele><time>2026-03-11T15:34:34Z</time><extensions><gpxtpx:TrackPointExtension><gpxtpx:atemp>2.4</gpxtpx:atemp></gpxtpx:TrackPointExtension></extensions></trkpt><trkpt lat="42.2009330895" lon="13.4176657721"><ele>1709.98</ele><time>2026-03-11T15:34:35Z</time><extensions><gpxtpx:TrackPointExtension><gpxtpx:atemp>2.4</gpxtpx:atemp></gpxtpx:TrackPointExtension></extensions></trkpt><trkpt lat="42.2009397950" lon="13.4176672809"><ele>1709.99</ele><time>2026-03-11T15:34:36Z</time><extensions><gpxtpx:TrackPointExtension><gpxtpx:atemp>2.4</gpxtpx:atemp></gpxtpx:TrackPointExtension></extensions></trkpt><trkpt lat="42.2009459976" lon="13.4176702984"><ele>1710.00</ele><time>2026-03-11T15:34:37Z</time><extensions><gpxtpx:TrackPointExtension><gpxtpx:atemp>2.4</gpxtpx:atemp></gpxtpx:TrackPointExtension></extensions></trkpt><trkpt lat="42.2009504400" lon="13.4176740702"><ele>1710.00</ele><time>2026-03-11T15:34:38Z</time><extensions><gpxtpx:TrackPointExtension><gpxtpx:atemp>2.4</gpxtpx:atemp></gpxtpx:TrackPointExtension></extensions></trkpt><trkpt lat="42.2009555530" lon="13.4176798537"><ele>1710.00</ele><time>2026-03-11T15:34:39Z</time><extensions><gpxtpx:TrackPointExtension><gpxtpx:atemp>2.4</gpxtpx:atemp></gpxtpx:TrackPointExtension></extensions></trkpt><trkpt lat="42.2009617556" lon="13.4176844638"><ele>1709.99</ele><time>2026-03-11T15:34:40Z</time><extensions><gpxtpx:TrackPointExtension><gpxtpx:atemp>2.4</gpxtpx:atemp></gpxtpx:TrackPointExtension></extensions></trkpt><trkpt lat="42.2009691317" lon="13.4176902473"><ele>1709.99</ele><time>2026-03-11T15:34:41Z</time><extensions><gpxtpx:TrackPointExtension><gpxtpx:atemp>2.4</gpxtpx:atemp></gpxtpx:TrackPointExtension></extensions></trkpt><trkpt lat="42.2009741608" lon="13.4176978748"><ele>1710.01</ele><time>2026-03-11T15:34:42Z</time><extensions><gpxtpx:TrackPointExtension><gpxtpx:atemp>2.4</gpxtpx:atemp></gpxtpx:TrackPointExtension></extensions></trkpt><trkpt lat="42.2009790223" lon="13.4176996350"><ele>1710.05</ele><time>2026-03-11T15:34:43Z</time><extensions><gpxtpx:TrackPointExtension><gpxtpx:atemp>2.4</gpxtpx:atemp></gpxtpx:TrackPointExtension></extensions></trkpt><trkpt lat="42.2009848896" lon="13.4177020658"><ele>1710.08</ele><time>2026-03-11T15:34:44Z</time><extensions><gpxtpx:TrackPointExtension><gpxtpx:atemp>2.4</gpxtpx:atemp></gpxtpx:TrackPointExtension></extensions></trkpt><trkpt lat="42.2009917628" lon="13.4177040774"><ele>1710.13</ele><time>2026-03-11T15:34:45Z</time><extensions><gpxtpx:TrackPointExtension><gpxtpx:atemp>2.4</gpxtpx:atemp></gpxtpx:TrackPointExtension></extensions></trkpt><trkpt lat="42.2009974625" lon="13.4177128784"><ele>1710.21</ele><time>2026-03-11T15:34:46Z</time><extensions><gpxtpx:TrackPointExtension><gpxtpx:atemp>2.4</gpxtpx:atemp></gpxtpx:TrackPointExtension></extensions></trkpt><trkpt lat="42.2010027431" lon="13.4177163988"><ele>1710.25</ele><time>2026-03-11T15:34:47Z</time><extensions><gpxtpx:TrackPointExtension><gpxtpx:atemp>2.4</gpxtpx:atemp></gpxtpx:TrackPointExtension></extensions></trkpt><trkpt lat="42.2010100354" lon="13.4177182429"><ele>1710.29</ele><time>2026-03-11T15:34:48Z</time><extensions><gpxtpx:TrackPointExtension><gpxtpx:atemp>2.4</gpxtpx:atemp></gpxtpx:TrackPointExtension></extensions></trkpt><trkpt lat="42.2010132205" lon="13.4177195840"><ele>1710.32</ele><time>2026-03-11T15:34:49Z</time><extensions><gpxtpx:TrackPointExtension><gpxtpx:atemp>2.4</gpxtpx:atemp></gpxtpx:TrackPointExtension></extensions></trkpt><trkpt lat="42.2010194231" lon="13.4177223500"><ele>1710.35</ele><time>2026-03-11T15:34:50Z</time><extensions><gpxtpx:TrackPointExtension><gpxtpx:atemp>2.4</gpxtpx:atemp></gpxtpx:TrackPointExtension></extensions></trkpt><trkpt lat="42.2010256257" lon="13.4177252837"><ele>1710.36</ele><time>2026-03-11T15:34:51Z</time><extensions><gpxtpx:TrackPointExtension><gpxtpx:atemp>2.4</gpxtpx:atemp></gpxtpx:TrackPointExtension></extensions></trkpt><trkpt lat="42.2010299843" lon="13.4177312348"><ele>1710.36</ele><time>2026-03-11T15:34:52Z</time><extensions><gpxtpx:TrackPointExtension><gpxtpx:atemp>2.4</gpxtpx:atemp></gpxtpx:TrackPointExtension></extensions></trkpt><trkpt lat="42.2010350972" lon="13.4177360963"><ele>1710.36</ele><time>2026-03-11T15:34:53Z</time><extensions><gpxtpx:TrackPointExtension><gpxtpx:atemp>2.4</gpxtpx:atemp></gpxtpx:TrackPointExtension></extensions></trkpt><trkpt lat="42.2010408808" lon="13.4177384432"><ele>1710.38</ele><time>2026-03-11T15:34:54Z</time><extensions><gpxtpx:TrackPointExtension><gpxtpx:atemp>2.4</gpxtpx:atemp></gpxtpx:TrackPointExtension></extensions></trkpt><trkpt lat="42.2010484245" lon="13.4177427180"><ele>1710.40</ele><time>2026-03-11T15:34:55Z</time><extensions><gpxtpx:TrackPointExtension><gpxtpx:atemp>2.4</gpxtpx:atemp></gpxtpx:TrackPointExtension></extensions></trkpt><trkpt lat="42.2010518610" lon="13.4177439753"><ele>1710.44</ele><time>2026-03-11T15:34:56Z</time><extensions><gpxtpx:TrackPointExtension><gpxtpx:atemp>2.4</gpxtpx:atemp></gpxtpx:TrackPointExtension></extensions></trkpt><trkpt lat="42.2010568902" lon="13.4177445620"><ele>1710.49</ele><time>2026-03-11T15:34:57Z</time><extensions><gpxtpx:TrackPointExtension><gpxtpx:atemp>2.4</gpxtpx:atemp></gpxtpx:TrackPointExtension></extensions></trkpt><trkpt lat="42.2010637634" lon="13.4177461546"><ele>1710.53</ele><time>2026-03-11T15:34:58Z</time><extensions><gpxtpx:TrackPointExtension><gpxtpx:atemp>2.4</gpxtpx:atemp></gpxtpx:TrackPointExtension></extensions></trkpt><trkpt lat="42.2010723967" lon="13.4177439753"><ele>1710.54</ele><time>2026-03-11T15:34:59Z</time><extensions><gpxtpx:TrackPointExtension><gpxtpx:atemp>2.4</gpxtpx:atemp></gpxtpx:TrackPointExtension></extensions></trkpt><trkpt lat="42.2010803595" lon="13.4177450649"><ele>1710.55</ele><time>2026-03-11T15:35:00Z</time><extensions><gpxtpx:TrackPointExtension><gpxtpx:atemp>2.4</gpxtpx:atemp></gpxtpx:TrackPointExtension></extensions></trkpt><trkpt lat="42.2010872327" lon="13.4177457355"><ele>1710.59</ele><time>2026-03-11T15:35:01Z</time><extensions><gpxtpx:TrackPointExtension><gpxtpx:atemp>2.4</gpxtpx:atemp></gpxtpx:TrackPointExtension></extensions></trkpt><trkpt lat="42.2010949440" lon="13.4177490883"><ele>1710.60</ele><time>2026-03-11T15:35:02Z</time><extensions><gpxtpx:TrackPointExtension><gpxtpx:atemp>2.4</gpxtpx:atemp></gpxtpx:TrackPointExtension></extensions></trkpt><trkpt lat="42.2011027392" lon="13.4177517705"><ele>1710.59</ele><time>2026-03-11T15:35:03Z</time><extensions><gpxtpx:TrackPointExtension><gpxtpx:atemp>2.4</gpxtpx:atemp></gpxtpx:TrackPointExtension></extensions></trkpt><trkpt lat="42.2011152282" lon="13.4177568834"><ele>1710.58</ele><time>2026-03-11T15:35:04Z</time><extensions><gpxtpx:TrackPointExtension><gpxtpx:atemp>2.4</gpxtpx:atemp></gpxtpx:TrackPointExtension></extensions></trkpt><trkpt lat="42.2011247836" lon="13.4177661873"><ele>1710.54</ele><time>2026-03-11T15:35:05Z</time><extensions><gpxtpx:TrackPointExtension><gpxtpx:atemp>2.4</gpxtpx:atemp></gpxtpx:TrackPointExtension></extensions></trkpt><trkpt lat="42.2011329979" lon="13.4177700430"><ele>1710.52</ele><time>2026-03-11T15:35:06Z</time><extensions><gpxtpx:TrackPointExtension><gpxtpx:atemp>2.4</gpxtpx:atemp></gpxtpx:TrackPointExtension></extensions></trkpt><trkpt lat="42.2011375241" lon="13.4177741501"><ele>1710.50</ele><time>2026-03-11T15:35:07Z</time><extensions><gpxtpx:TrackPointExtension><gpxtpx:atemp>2.4</gpxtpx:atemp></gpxtpx:TrackPointExtension></extensions></trkpt><trkpt lat="42.2011423856" lon="13.4177801851"><ele>1710.46</ele><time>2026-03-11T15:35:08Z</time><extensions><gpxtpx:TrackPointExtension><gpxtpx:atemp>2.4</gpxtpx:atemp></gpxtpx:TrackPointExtension></extensions></trkpt><trkpt lat="42.2011476662" lon="13.4177871421"><ele>1710.46</ele><time>2026-03-11T15:35:09Z</time><extensions><gpxtpx:TrackPointExtension><gpxtpx:atemp>2.4</gpxtpx:atemp></gpxtpx:TrackPointExtension></extensions></trkpt><trkpt lat="42.2011518572" lon="13.4177924227"><ele>1710.46</ele><time>2026-03-11T15:35:10Z</time><extensions><gpxtpx:TrackPointExtension><gpxtpx:atemp>2.4</gpxtpx:atemp></gpxtpx:TrackPointExtension></extensions></trkpt><trkpt lat="42.2011574730" lon="13.4177972842"><ele>1710.43</ele><time>2026-03-11T15:35:11Z</time><extensions><gpxtpx:TrackPointExtension><gpxtpx:atemp>2.4</gpxtpx:atemp></gpxtpx:TrackPointExtension></extensions></trkpt><trkpt lat="42.2011649329" lon="13.4178017266"><ele>1710.38</ele><time>2026-03-11T15:35:12Z</time><extensions><gpxtpx:TrackPointExtension><gpxtpx:atemp>2.4</gpxtpx:atemp></gpxtpx:TrackPointExtension></extensions></trkpt><trkpt lat="42.2011731472" lon="13.4178062528"><ele>1710.33</ele><time>2026-03-11T15:35:13Z</time><extensions><gpxtpx:TrackPointExtension><gpxtpx:atemp>2.4</gpxtpx:atemp></gpxtpx:TrackPointExtension></extensions></trkpt><trkpt lat="42.2011804394" lon="13.4178129584"><ele>1710.33</ele><time>2026-03-11T15:35:14Z</time><extensions><gpxtpx:TrackPointExtension><gpxtpx:atemp>2.4</gpxtpx:atemp></gpxtpx:TrackPointExtension></extensions></trkpt><trkpt lat="42.2011868935" lon="13.4178175684"><ele>1710.32</ele><time>2026-03-11T15:35:15Z</time><extensions><gpxtpx:TrackPointExtension><gpxtpx:atemp>2.4</gpxtpx:atemp></gpxtpx:TrackPointExtension></extensions></trkpt><trkpt lat="42.2011945210" lon="13.4178206697"><ele>1710.31</ele><time>2026-03-11T15:35:16Z</time><extensions><gpxtpx:TrackPointExtension><gpxtpx:atemp>2.4</gpxtpx:atemp></gpxtpx:TrackPointExtension></extensions></trkpt><trkpt lat="42.2012034897" lon="13.4178242739"><ele>1710.31</ele><time>2026-03-11T15:35:17Z</time><extensions><gpxtpx:TrackPointExtension><gpxtpx:atemp>2.4</gpxtpx:atemp></gpxtpx:TrackPointExtension></extensions></trkpt><trkpt lat="42.2012100276" lon="13.4178314824"><ele>1710.31</ele><time>2026-03-11T15:35:18Z</time><extensions><gpxtpx:TrackPointExtension><gpxtpx:atemp>2.4</gpxtpx:atemp></gpxtpx:TrackPointExtension></extensions></trkpt><trkpt lat="42.2012196667" lon="13.4178370982"><ele>1710.31</ele><time>2026-03-11T15:35:19Z</time><extensions><gpxtpx:TrackPointExtension><gpxtpx:atemp>2.4</gpxtpx:atemp></gpxtpx:TrackPointExtension></extensions></trkpt><trkpt lat="42.2012276296" lon="13.4178427979"><ele>1710.33</ele><time>2026-03-11T15:35:20Z</time><extensions><gpxtpx:TrackPointExtension><gpxtpx:atemp>2.4</gpxtpx:atemp></gpxtpx:TrackPointExtension></extensions></trkpt><trkpt lat="42.2012332454" lon="13.4178503416"><ele>1710.33</ele><time>2026-03-11T15:35:21Z</time><extensions><gpxtpx:TrackPointExtension><gpxtpx:atemp>2.4</gpxtpx:atemp></gpxtpx:TrackPointExtension></extensions></trkpt><trkpt lat="42.2012378555" lon="13.4178592265"><ele>1710.33</ele><time>2026-03-11T15:35:22Z</time><extensions><gpxtpx:TrackPointExtension><gpxtpx:atemp>2.4</gpxtpx:atemp></gpxtpx:TrackPointExtension></extensions></trkpt><trkpt lat="42.2012457345" lon="13.4178605676"><ele>1710.34</ele><time>2026-03-11T15:35:23Z</time><extensions><gpxtpx:TrackPointExtension><gpxtpx:atemp>2.4</gpxtpx:atemp></gpxtpx:TrackPointExtension></extensions></trkpt><trkpt lat="42.2012528591" lon="13.4178653453"><ele>1710.34</ele><time>2026-03-11T15:35:24Z</time><extensions><gpxtpx:TrackPointExtension><gpxtpx:atemp>2.4</gpxtpx:atemp></gpxtpx:TrackPointExtension></extensions></trkpt><trkpt lat="42.2012587264" lon="13.4178703744"><ele>1710.35</ele><time>2026-03-11T15:35:25Z</time><extensions><gpxtpx:TrackPointExtension><gpxtpx:atemp>2.4</gpxtpx:atemp></gpxtpx:TrackPointExtension></extensions></trkpt><trkpt lat="42.2012653481" lon="13.4178745653"><ele>1710.36</ele><time>2026-03-11T15:35:26Z</time><extensions><gpxtpx:TrackPointExtension><gpxtpx:atemp>2.4</gpxtpx:atemp></gpxtpx:TrackPointExtension></extensions></trkpt><trkpt lat="42.2012740653" lon="13.4178796783"><ele>1710.38</ele><time>2026-03-11T15:35:27Z</time><extensions><gpxtpx:TrackPointExtension><gpxtpx:atemp>2.4</gpxtpx:atemp></gpxtpx:TrackPointExtension></extensions></trkpt><trkpt lat="42.2012788430" lon="13.4178819414"><ele>1710.39</ele><time>2026-03-11T15:35:28Z</time><extensions><gpxtpx:TrackPointExtension><gpxtpx:atemp>2.4</gpxtpx:atemp></gpxtpx:TrackPointExtension></extensions></trkpt><trkpt lat="42.2012854647" lon="13.4178852942"><ele>1710.40</ele><time>2026-03-11T15:35:29Z</time><extensions><gpxtpx:TrackPointExtension><gpxtpx:atemp>2.4</gpxtpx:atemp></gpxtpx:TrackPointExtension></extensions></trkpt><trkpt lat="42.2012924217" lon="13.4178876411"><ele>1710.41</ele><time>2026-03-11T15:35:30Z</time><extensions><gpxtpx:TrackPointExtension><gpxtpx:atemp>2.4</gpxtpx:atemp></gpxtpx:TrackPointExtension></extensions></trkpt><trkpt lat="42.2013000492" lon="13.4178995434"><ele>1710.42</ele><time>2026-03-11T15:35:31Z</time><extensions><gpxtpx:TrackPointExtension><gpxtpx:atemp>2.4</gpxtpx:atemp></gpxtpx:TrackPointExtension></extensions></trkpt><trkpt lat="42.2013060842" lon="13.4179006331"><ele>1710.44</ele><time>2026-03-11T15:35:32Z</time><extensions><gpxtpx:TrackPointExtension><gpxtpx:atemp>2.4</gpxtpx:atemp></gpxtpx:TrackPointExtension></extensions></trkpt><trkpt lat="42.2013122868" lon="13.4179030638"><ele>1710.45</ele><time>2026-03-11T15:35:33Z</time><extensions><gpxtpx:TrackPointExtension><gpxtpx:atemp>2.4</gpxtpx:atemp></gpxtpx:TrackPointExtension></extensions></trkpt><trkpt lat="42.2013181541" lon="13.4179123677"><ele>1710.48</ele><time>2026-03-11T15:35:34Z</time><extensions><gpxtpx:TrackPointExtension><gpxtpx:atemp>2.6</gpxtpx:atemp></gpxtpx:TrackPointExtension></extensions></trkpt><trkpt lat="42.2013239376" lon="13.4179154690"><ele>1710.51</ele><time>2026-03-11T15:35:35Z</time><extensions><gpxtpx:TrackPointExtension><gpxtpx:atemp>2.6</gpxtpx:atemp></gpxtpx:TrackPointExtension></extensions></trkpt><trkpt lat="42.2013304755" lon="13.4179188218"><ele>1710.58</ele><time>2026-03-11T15:35:36Z</time><extensions><gpxtpx:TrackPointExtension><gpxtpx:atemp>2.6</gpxtpx:atemp></gpxtpx:TrackPointExtension></extensions></trkpt><trkpt lat="42.2013376839" lon="13.4179213364"><ele>1710.59</ele><time>2026-03-11T15:35:37Z</time><extensions><gpxtpx:TrackPointExtension><gpxtpx:atemp>2.6</gpxtpx:atemp></gpxtpx:TrackPointExtension></extensions></trkpt><trkpt lat="42.2013444733" lon="13.4179239348"><ele>1710.62</ele><time>2026-03-11T15:35:38Z</time><extensions><gpxtpx:TrackPointExtension><gpxtpx:atemp>2.6</gpxtpx:atemp></gpxtpx:TrackPointExtension></extensions></trkpt><trkpt lat="42.2013508435" lon="13.4179275390"><ele>1710.62</ele><time>2026-03-11T15:35:39Z</time><extensions><gpxtpx:TrackPointExtension><gpxtpx:atemp>2.6</gpxtpx:atemp></gpxtpx:TrackPointExtension></extensions></trkpt><trkpt lat="42.2013569623" lon="13.4179303888"><ele>1710.62</ele><time>2026-03-11T15:35:40Z</time><extensions><gpxtpx:TrackPointExtension><gpxtpx:atemp>2.6</gpxtpx:atemp></gpxtpx:TrackPointExtension></extensions></trkpt><trkpt lat="42.2013639193" lon="13.4179342445"><ele>1710.63</ele><time>2026-03-11T15:35:41Z</time><extensions><gpxtpx:TrackPointExtension><gpxtpx:atemp>2.6</gpxtpx:atemp></gpxtpx:TrackPointExtension></extensions></trkpt><trkpt lat="42.2013692837" lon="13.4179369267"><ele>1710.64</ele><time>2026-03-11T15:35:42Z</time><extensions><gpxtpx:TrackPointExtension><gpxtpx:atemp>2.6</gpxtpx:atemp></gpxtpx:TrackPointExtension></extensions></trkpt><trkpt lat="42.2013746481" lon="13.4179396927"><ele>1710.67</ele><time>2026-03-11T15:35:43Z</time><extensions><gpxtpx:TrackPointExtension><gpxtpx:atemp>2.6</gpxtpx:atemp></gpxtpx:TrackPointExtension></extensions></trkpt><trkpt lat="42.2013795935" lon="13.4179453924"><ele>1710.69</ele><time>2026-03-11T15:35:44Z</time><extensions><gpxtpx:TrackPointExtension><gpxtpx:atemp>2.6</gpxtpx:atemp></gpxtpx:TrackPointExtension></extensions></trkpt><trkpt lat="42.2013850417" lon="13.4179481585"><ele>1710.71</ele><time>2026-03-11T15:35:45Z</time><extensions><gpxtpx:TrackPointExtension><gpxtpx:atemp>2.6</gpxtpx:atemp></gpxtpx:TrackPointExtension></extensions></trkpt><trkpt lat="42.2013894841" lon="13.4179508407"><ele>1710.75</ele><time>2026-03-11T15:35:46Z</time><extensions><gpxtpx:TrackPointExtension><gpxtpx:atemp>2.6</gpxtpx:atemp></gpxtpx:TrackPointExtension></extensions></trkpt><trkpt lat="42.2013941780" lon="13.4179550316"><ele>1710.81</ele><time>2026-03-11T15:35:47Z</time><extensions><gpxtpx:TrackPointExtension><gpxtpx:atemp>2.6</gpxtpx:atemp></gpxtpx:TrackPointExtension></extensions></trkpt><trkpt lat="42.2013988718" lon="13.4179565404"><ele>1710.89</ele><time>2026-03-11T15:35:48Z</time><extensions><gpxtpx:TrackPointExtension><gpxtpx:atemp>2.6</gpxtpx:atemp></gpxtpx:TrackPointExtension></extensions></trkpt><trkpt lat="42.2014051583" lon="13.4179583844"><ele>1710.92</ele><time>2026-03-11T15:35:49Z</time><extensions><gpxtpx:TrackPointExtension><gpxtpx:atemp>2.6</gpxtpx:atemp></gpxtpx:TrackPointExtension></extensions></trkpt><trkpt lat="42.2014076728" lon="13.4179575462"><ele>1710.94</ele><time>2026-03-11T15:35:50Z</time><extensions><gpxtpx:TrackPointExtension><gpxtpx:atemp>2.6</gpxtpx:atemp></gpxtpx:TrackPointExtension></extensions></trkpt><trkpt lat="42.2014111932" lon="13.4179623239"><ele>1710.95</ele><time>2026-03-11T15:35:51Z</time><extensions><gpxtpx:TrackPointExtension><gpxtpx:atemp>2.6</gpxtpx:atemp></gpxtpx:TrackPointExtension></extensions></trkpt><trkpt lat="42.2014160547" lon="13.4179667663"><ele>1711.00</ele><time>2026-03-11T15:35:52Z</time><extensions><gpxtpx:TrackPointExtension><gpxtpx:atemp>2.6</gpxtpx:atemp></gpxtpx:TrackPointExtension></extensions></trkpt><trkpt lat="42.2014201619" lon="13.4179679397"><ele>1711.05</ele><time>2026-03-11T15:35:53Z</time><extensions><gpxtpx:TrackPointExtension><gpxtpx:atemp>2.6</gpxtpx:atemp></gpxtpx:TrackPointExtension></extensions></trkpt><trkpt lat="42.2014263645" lon="13.4179709572"><ele>1711.09</ele><time>2026-03-11T15:35:54Z</time><extensions><gpxtpx:TrackPointExtension><gpxtpx:atemp>2.6</gpxtpx:atemp></gpxtpx:TrackPointExtension></extensions></trkpt><trkpt lat="42.2014326509" lon="13.4179726336"><ele>1711.13</ele><time>2026-03-11T15:35:55Z</time><extensions><gpxtpx:TrackPointExtension><gpxtpx:atemp>2.6</gpxtpx:atemp></gpxtpx:TrackPointExtension></extensions></trkpt><trkpt lat="42.2014387697" lon="13.4179717954"><ele>1711.17</ele><time>2026-03-11T15:35:56Z</time><extensions><gpxtpx:TrackPointExtension><gpxtpx:atemp>2.6</gpxtpx:atemp></gpxtpx:TrackPointExtension></extensions></trkpt><trkpt lat="42.2014434636" lon="13.4179794230"><ele>1711.20</ele><time>2026-03-11T15:35:57Z</time><extensions><gpxtpx:TrackPointExtension><gpxtpx:atemp>2.6</gpxtpx:atemp></gpxtpx:TrackPointExtension></extensions></trkpt><trkpt lat="42.2014474869" lon="13.4179804288"><ele>1711.23</ele><time>2026-03-11T15:35:58Z</time><extensions><gpxtpx:TrackPointExtension><gpxtpx:atemp>2.6</gpxtpx:atemp></gpxtpx:TrackPointExtension></extensions></trkpt><trkpt lat="42.2014526837" lon="13.4179827757"><ele>1711.34</ele><time>2026-03-11T15:35:59Z</time><extensions><gpxtpx:TrackPointExtension><gpxtpx:atemp>2.6</gpxtpx:atemp></gpxtpx:TrackPointExtension></extensions></trkpt><trkpt lat="42.2014596406" lon="13.4179860447"><ele>1711.39</ele><time>2026-03-11T15:36:00Z</time><extensions><gpxtpx:TrackPointExtension><gpxtpx:atemp>2.6</gpxtpx:atemp></gpxtpx:TrackPointExtension></extensions></trkpt><trkpt lat="42.2014656756" lon="13.4179878887"><ele>1711.43</ele><time>2026-03-11T15:36:01Z</time><extensions><gpxtpx:TrackPointExtension><gpxtpx:atemp>2.6</gpxtpx:atemp></gpxtpx:TrackPointExtension></extensions></trkpt><trkpt lat="42.2014725488" lon="13.4179870505"><ele>1711.47</ele><time>2026-03-11T15:36:02Z</time><extensions><gpxtpx:TrackPointExtension><gpxtpx:atemp>2.6</gpxtpx:atemp></gpxtpx:TrackPointExtension></extensions></trkpt><trkpt lat="42.2014775779" lon="13.4179883916"><ele>1711.52</ele><time>2026-03-11T15:36:03Z</time><extensions><gpxtpx:TrackPointExtension><gpxtpx:atemp>2.6</gpxtpx:atemp></gpxtpx:TrackPointExtension></extensions></trkpt><trkpt lat="42.2014819365" lon="13.4179905709"><ele>1711.57</ele><time>2026-03-11T15:36:04Z</time><extensions><gpxtpx:TrackPointExtension><gpxtpx:atemp>2.6</gpxtpx:atemp></gpxtpx:TrackPointExtension></extensions></trkpt><trkpt lat="42.2014882229" lon="13.4179917444"><ele>1711.63</ele><time>2026-03-11T15:36:05Z</time><extensions><gpxtpx:TrackPointExtension><gpxtpx:atemp>2.6</gpxtpx:atemp></gpxtpx:TrackPointExtension></extensions></trkpt><trkpt lat="42.2014938388" lon="13.4179938398"><ele>1711.68</ele><time>2026-03-11T15:36:06Z</time><extensions><gpxtpx:TrackPointExtension><gpxtpx:atemp>2.6</gpxtpx:atemp></gpxtpx:TrackPointExtension></extensions></trkpt><trkpt lat="42.2015005443" lon="13.4179930855"><ele>1711.71</ele><time>2026-03-11T15:36:07Z</time><extensions><gpxtpx:TrackPointExtension><gpxtpx:atemp>2.6</gpxtpx:atemp></gpxtpx:TrackPointExtension></extensions></trkpt><trkpt lat="42.2015047353" lon="13.4179933369"><ele>1711.75</ele><time>2026-03-11T15:36:08Z</time><extensions><gpxtpx:TrackPointExtension><gpxtpx:atemp>2.6</gpxtpx:atemp></gpxtpx:TrackPointExtension></extensions></trkpt><trkpt lat="42.2015145421" lon="13.4179935884"><ele>1711.78</ele><time>2026-03-11T15:36:09Z</time><extensions><gpxtpx:TrackPointExtension><gpxtpx:atemp>2.6</gpxtpx:atemp></gpxtpx:TrackPointExtension></extensions></trkpt><trkpt lat="42.2015178949" lon="13.4179954324"><ele>1711.79</ele><time>2026-03-11T15:36:10Z</time><extensions><gpxtpx:TrackPointExtension><gpxtpx:atemp>2.6</gpxtpx:atemp></gpxtpx:TrackPointExtension></extensions></trkpt><trkpt lat="42.2015260253" lon="13.4179962706"><ele>1711.85</ele><time>2026-03-11T15:36:11Z</time><extensions><gpxtpx:TrackPointExtension><gpxtpx:atemp>2.6</gpxtpx:atemp></gpxtpx:TrackPointExtension></extensions></trkpt><trkpt lat="42.2015278693" lon="13.4179968573"><ele>1711.87</ele><time>2026-03-11T15:36:12Z</time><extensions><gpxtpx:TrackPointExtension><gpxtpx:atemp>2.6</gpxtpx:atemp></gpxtpx:TrackPointExtension></extensions></trkpt><trkpt lat="42.2015341558" lon="13.4179957677"><ele>1711.91</ele><time>2026-03-11T15:36:13Z</time><extensions><gpxtpx:TrackPointExtension><gpxtpx:atemp>2.6</gpxtpx:atemp></gpxtpx:TrackPointExtension></extensions></trkpt><trkpt lat="42.2015406936" lon="13.4179956838"><ele>1711.96</ele><time>2026-03-11T15:36:14Z</time><extensions><gpxtpx:TrackPointExtension><gpxtpx:atemp>2.6</gpxtpx:atemp></gpxtpx:TrackPointExtension></extensions></trkpt><trkpt lat="42.2015481535" lon="13.4179950971"><ele>1712.01</ele><time>2026-03-11T15:36:15Z</time><extensions><gpxtpx:TrackPointExtension><gpxtpx:atemp>2.6</gpxtpx:atemp></gpxtpx:TrackPointExtension></extensions></trkpt><trkpt lat="42.2015546914" lon="13.4179940913"><ele>1712.06</ele><time>2026-03-11T15:36:16Z</time><extensions><gpxtpx:TrackPointExtension><gpxtpx:atemp>2.6</gpxtpx:atemp></gpxtpx:TrackPointExtension></extensions></trkpt><trkpt lat="42.2015588824" lon="13.4179960191"><ele>1712.10</ele><time>2026-03-11T15:36:17Z</time><extensions><gpxtpx:TrackPointExtension><gpxtpx:atemp>2.6</gpxtpx:atemp></gpxtpx:TrackPointExtension></extensions></trkpt><trkpt lat="42.2015663423" lon="13.4179962706"><ele>1712.15</ele><time>2026-03-11T15:36:18Z</time><extensions><gpxtpx:TrackPointExtension><gpxtpx:atemp>2.6</gpxtpx:atemp></gpxtpx:TrackPointExtension></extensions></trkpt><trkpt lat="42.2015697788" lon="13.4179966897"><ele>1712.20</ele><time>2026-03-11T15:36:19Z</time><extensions><gpxtpx:TrackPointExtension><gpxtpx:atemp>2.6</gpxtpx:atemp></gpxtpx:TrackPointExtension></extensions></trkpt><trkpt lat="42.2015789989" lon="13.4179922473"><ele>1712.21</ele><time>2026-03-11T15:36:20Z</time><extensions><gpxtpx:TrackPointExtension><gpxtpx:atemp>2.6</gpxtpx:atemp></gpxtpx:TrackPointExtension></extensions></trkpt><trkpt lat="42.2015848663" lon="13.4179906547"><ele>1712.25</ele><time>2026-03-11T15:36:21Z</time><extensions><gpxtpx:TrackPointExtension><gpxtpx:atemp>2.6</gpxtpx:atemp></gpxtpx:TrackPointExtension></extensions></trkpt><trkpt lat="42.2015923262" lon="13.4179877210"><ele>1712.28</ele><time>2026-03-11T15:36:22Z</time><extensions><gpxtpx:TrackPointExtension><gpxtpx:atemp>2.6</gpxtpx:atemp></gpxtpx:TrackPointExtension></extensions></trkpt><trkpt lat="42.2015994508" lon="13.4179892298"><ele>1712.28</ele><time>2026-03-11T15:36:23Z</time><extensions><gpxtpx:TrackPointExtension><gpxtpx:atemp>2.6</gpxtpx:atemp></gpxtpx:TrackPointExtension></extensions></trkpt><trkpt lat="42.2016045637" lon="13.4179884754"><ele>1712.31</ele><time>2026-03-11T15:36:24Z</time><extensions><gpxtpx:TrackPointExtension><gpxtpx:atemp>2.6</gpxtpx:atemp></gpxtpx:TrackPointExtension></extensions></trkpt><trkpt lat="42.2016060725" lon="13.4179868829"><ele>1712.33</ele><time>2026-03-11T15:36:25Z</time><extensions><gpxtpx:TrackPointExtension><gpxtpx:atemp>2.6</gpxtpx:atemp></gpxtpx:TrackPointExtension></extensions></trkpt><trkpt lat="42.2016089223" lon="13.4179837815"><ele>1712.35</ele><time>2026-03-11T15:36:26Z</time><extensions><gpxtpx:TrackPointExtension><gpxtpx:atemp>2.6</gpxtpx:atemp></gpxtpx:TrackPointExtension></extensions></trkpt><trkpt lat="42.2016117722" lon="13.4179814346"><ele>1712.38</ele><time>2026-03-11T15:36:27Z</time><extensions><gpxtpx:TrackPointExtension><gpxtpx:atemp>2.6</gpxtpx:atemp></gpxtpx:TrackPointExtension></extensions></trkpt><trkpt lat="42.2016177233" lon="13.4179783333"><ele>1712.42</ele><time>2026-03-11T15:36:28Z</time><extensions><gpxtpx:TrackPointExtension><gpxtpx:atemp>2.6</gpxtpx:atemp></gpxtpx:TrackPointExtension></extensions></trkpt><trkpt lat="42.2016205732" lon="13.4179789200"><ele>1712.47</ele><time>2026-03-11T15:36:29Z</time><extensions><gpxtpx:TrackPointExtension><gpxtpx:atemp>2.6</gpxtpx:atemp></gpxtpx:TrackPointExtension></extensions></trkpt><trkpt lat="42.2016260214" lon="13.4179793391"><ele>1712.48</ele><time>2026-03-11T15:36:30Z</time><extensions><gpxtpx:TrackPointExtension><gpxtpx:atemp>2.6</gpxtpx:atemp></gpxtpx:TrackPointExtension></extensions></trkpt><trkpt lat="42.2016305476" lon="13.4179772437"><ele>1712.49</ele><time>2026-03-11T15:36:31Z</time><extensions><gpxtpx:TrackPointExtension><gpxtpx:atemp>2.6</gpxtpx:atemp></gpxtpx:TrackPointExtension></extensions></trkpt><trkpt lat="42.2016363312" lon="13.4179790877"><ele>1712.52</ele><time>2026-03-11T15:36:32Z</time><extensions><gpxtpx:TrackPointExtension><gpxtpx:atemp>2.6</gpxtpx:atemp></gpxtpx:TrackPointExtension></extensions></trkpt><trkpt lat="42.2016414441" lon="13.4179789200"><ele>1712.59</ele><time>2026-03-11T15:36:33Z</time><extensions><gpxtpx:TrackPointExtension><gpxtpx:atemp>2.6</gpxtpx:atemp></gpxtpx:TrackPointExtension></extensions></trkpt><trkpt lat="42.2016418632" lon="13.4179794230"><ele>1712.66</ele><time>2026-03-11T15:36:34Z</time><extensions><gpxtpx:TrackPointExtension><gpxtpx:atemp>2.5</gpxtpx:atemp></gpxtpx:TrackPointExtension></extensions></trkpt><trkpt lat="42.2016427852" lon="13.4179789200"><ele>1712.67</ele><time>2026-03-11T15:36:35Z</time><extensions><gpxtpx:TrackPointExtension><gpxtpx:atemp>2.5</gpxtpx:atemp></gpxtpx:TrackPointExtension></extensions></trkpt><trkpt lat="42.2016438749" lon="13.4179787524"><ele>1712.70</ele><time>2026-03-11T15:36:36Z</time><extensions><gpxtpx:TrackPointExtension><gpxtpx:atemp>2.5</gpxtpx:atemp></gpxtpx:TrackPointExtension></extensions></trkpt><trkpt lat="42.2016438749" lon="13.4179788362"><ele>1712.70</ele><time>2026-03-11T15:36:37Z</time><extensions><gpxtpx:TrackPointExtension><gpxtpx:atemp>2.5</gpxtpx:atemp></gpxtpx:TrackPointExtension></extensions></trkpt><trkpt lat="42.2016409412" lon="13.4179760702"><ele>1712.69</ele><time>2026-03-11T15:36:38Z</time><extensions><gpxtpx:TrackPointExtension><gpxtpx:atemp>2.5</gpxtpx:atemp></gpxtpx:TrackPointExtension></extensions></trkpt><trkpt lat="42.2016384266" lon="13.4179774951"><ele>1712.69</ele><time>2026-03-11T15:36:39Z</time><extensions><gpxtpx:TrackPointExtension><gpxtpx:atemp>2.5</gpxtpx:atemp></gpxtpx:TrackPointExtension></extensions></trkpt><trkpt lat="42.2016370855" lon="13.4179764893"><ele>1712.70</ele><time>2026-03-11T15:36:40Z</time><extensions><gpxtpx:TrackPointExtension><gpxtpx:atemp>2.5</gpxtpx:atemp></gpxtpx:TrackPointExtension></extensions></trkpt><trkpt lat="42.2016339842" lon="13.4179805964"><ele>1712.74</ele><time>2026-03-11T15:36:41Z</time><extensions><gpxtpx:TrackPointExtension><gpxtpx:atemp>2.5</gpxtpx:atemp></gpxtpx:TrackPointExtension></extensions></trkpt><trkpt lat="42.2016324755" lon="13.4179813508"><ele>1712.76</ele><time>2026-03-11T15:36:42Z</time><extensions><gpxtpx:TrackPointExtension><gpxtpx:atemp>2.5</gpxtpx:atemp></gpxtpx:TrackPointExtension></extensions></trkpt><trkpt lat="42.2016310506" lon="13.4179824404"><ele>1712.77</ele><time>2026-03-11T15:36:43Z</time><extensions><gpxtpx:TrackPointExtension><gpxtpx:atemp>2.5</gpxtpx:atemp></gpxtpx:TrackPointExtension></extensions></trkpt><trkpt lat="42.2016327269" lon="13.4179817699"><ele>1712.80</ele><time>2026-03-11T15:36:44Z</time><extensions><gpxtpx:TrackPointExtension><gpxtpx:atemp>2.5</gpxtpx:atemp></gpxtpx:TrackPointExtension></extensions></trkpt><trkpt lat="42.2016330622" lon="13.4179817699"><ele>1712.81</ele><time>2026-03-11T15:36:45Z</time><extensions><gpxtpx:TrackPointExtension><gpxtpx:atemp>2.5</gpxtpx:atemp></gpxtpx:TrackPointExtension></extensions></trkpt><trkpt lat="42.2016322240" lon="13.4179832786"><ele>1712.85</ele><time>2026-03-11T15:36:46Z</time><extensions><gpxtpx:TrackPointExtension><gpxtpx:atemp>2.5</gpxtpx:atemp></gpxtpx:TrackPointExtension></extensions></trkpt><trkpt lat="42.2016316373" lon="13.4179830272"><ele>1712.86</ele><time>2026-03-11T15:36:47Z</time><extensions><gpxtpx:TrackPointExtension><gpxtpx:atemp>2.5</gpxtpx:atemp></gpxtpx:TrackPointExtension></extensions></trkpt><trkpt lat="42.2016322240" lon="13.4179821890"><ele>1712.90</ele><time>2026-03-11T15:36:48Z</time><extensions><gpxtpx:TrackPointExtension><gpxtpx:atemp>2.5</gpxtpx:atemp></gpxtpx:TrackPointExtension></extensions></trkpt><trkpt lat="42.2016331460" lon="13.4179833625"><ele>1712.91</ele><time>2026-03-11T15:36:49Z</time><extensions><gpxtpx:TrackPointExtension><gpxtpx:atemp>2.5</gpxtpx:atemp></gpxtpx:TrackPointExtension></extensions></trkpt><trkpt lat="42.2016335651" lon="13.4179831948"><ele>1712.92</ele><time>2026-03-11T15:36:50Z</time><extensions><gpxtpx:TrackPointExtension><gpxtpx:atemp>2.5</gpxtpx:atemp></gpxtpx:TrackPointExtension></extensions></trkpt><trkpt lat="42.2016348224" lon="13.4179834463"><ele>1712.92</ele><time>2026-03-11T15:36:51Z</time><extensions><gpxtpx:TrackPointExtension><gpxtpx:atemp>2.5</gpxtpx:atemp></gpxtpx:TrackPointExtension></extensions></trkpt><trkpt lat="42.2016345710" lon="13.4179823566"><ele>1712.90</ele><time>2026-03-11T15:36:52Z</time><extensions><gpxtpx:TrackPointExtension><gpxtpx:atemp>2.5</gpxtpx:atemp></gpxtpx:TrackPointExtension></extensions></trkpt><trkpt lat="42.2016347386" lon="13.4179821890"><ele>1712.83</ele><time>2026-03-11T15:36:53Z</time><extensions><gpxtpx:TrackPointExtension><gpxtpx:atemp>2.5</gpxtpx:atemp></gpxtpx:TrackPointExtension></extensions></trkpt><trkpt lat="42.2016348224" lon="13.4179835301"><ele>1712.75</ele><time>2026-03-11T15:36:54Z</time><extensions><gpxtpx:TrackPointExtension><gpxtpx:atemp>2.5</gpxtpx:atemp></gpxtpx:TrackPointExtension></extensions></trkpt><trkpt lat="42.2016350739" lon="13.4179840330"><ele>1712.71</ele><time>2026-03-11T15:36:55Z</time><extensions><gpxtpx:TrackPointExtension><gpxtpx:atemp>2.5</gpxtpx:atemp></gpxtpx:TrackPointExtension></extensions></trkpt><trkpt lat="42.2016348224" lon="13.4179851227"><ele>1712.69</ele><time>2026-03-11T15:36:56Z</time><extensions><gpxtpx:TrackPointExtension><gpxtpx:atemp>2.5</gpxtpx:atemp></gpxtpx:TrackPointExtension></extensions></trkpt><trkpt lat="42.2016345710" lon="13.4179858770"><ele>1712.68</ele><time>2026-03-11T15:36:57Z</time><extensions><gpxtpx:TrackPointExtension><gpxtpx:atemp>2.5</gpxtpx:atemp></gpxtpx:TrackPointExtension></extensions></trkpt><trkpt lat="42.2016346548" lon="13.4179864638"><ele>1712.69</ele><time>2026-03-11T15:36:58Z</time><extensions><gpxtpx:TrackPointExtension><gpxtpx:atemp>2.5</gpxtpx:atemp></gpxtpx:TrackPointExtension></extensions></trkpt><trkpt lat="42.2016345710" lon="13.4179864638"><ele>1712.70</ele><time>2026-03-11T15:36:59Z</time><extensions><gpxtpx:TrackPointExtension><gpxtpx:atemp>2.5</gpxtpx:atemp></gpxtpx:TrackPointExtension></extensions></trkpt><trkpt lat="42.2016347386" lon="13.4179868829"><ele>1712.73</ele><time>2026-03-11T15:37:00Z</time><extensions><gpxtpx:TrackPointExtension><gpxtpx:atemp>2.5</gpxtpx:atemp></gpxtpx:TrackPointExtension></extensions></trkpt><trkpt lat="42.2016353253" lon="13.4179866314"><ele>1712.74</ele><time>2026-03-11T15:37:01Z</time><extensions><gpxtpx:TrackPointExtension><gpxtpx:atemp>2.5</gpxtpx:atemp></gpxtpx:TrackPointExtension></extensions></trkpt><trkpt lat="42.2016350739" lon="13.4179865476"><ele>1712.74</ele><time>2026-03-11T15:37:02Z</time><extensions><gpxtpx:TrackPointExtension><gpxtpx:atemp>2.5</gpxtpx:atemp></gpxtpx:TrackPointExtension></extensions></trkpt><trkpt lat="42.2016354930" lon="13.4179868829"><ele>1712.74</ele><time>2026-03-11T15:37:03Z</time><extensions><gpxtpx:TrackPointExtension><gpxtpx:atemp>2.5</gpxtpx:atemp></gpxtpx:TrackPointExtension></extensions></trkpt><trkpt lat="42.2016357444" lon="13.4179870505"><ele>1712.71</ele><time>2026-03-11T15:37:04Z</time><extensions><gpxtpx:TrackPointExtension><gpxtpx:atemp>2.5</gpxtpx:atemp></gpxtpx:TrackPointExtension></extensions></trkpt><trkpt lat="42.2016360797" lon="13.4179871343"><ele>1712.65</ele><time>2026-03-11T15:37:05Z</time><extensions><gpxtpx:TrackPointExtension><gpxtpx:atemp>2.5</gpxtpx:atemp></gpxtpx:TrackPointExtension></extensions></trkpt><trkpt lat="42.2016360797" lon="13.4179867990"><ele>1712.62</ele><time>2026-03-11T15:37:06Z</time><extensions><gpxtpx:TrackPointExtension><gpxtpx:atemp>2.5</gpxtpx:atemp></gpxtpx:TrackPointExtension></extensions></trkpt><trkpt lat="42.2016361635" lon="13.4179867990"><ele>1712.61</ele><time>2026-03-11T15:37:07Z</time><extensions><gpxtpx:TrackPointExtension><gpxtpx:atemp>2.5</gpxtpx:atemp></gpxtpx:TrackPointExtension></extensions></trkpt><trkpt lat="42.2016365826" lon="13.4179867990"><ele>1712.64</ele><time>2026-03-11T15:37:08Z</time><extensions><gpxtpx:TrackPointExtension><gpxtpx:atemp>2.5</gpxtpx:atemp></gpxtpx:TrackPointExtension></extensions></trkpt><trkpt lat="42.2016361635" lon="13.4179866314"><ele>1712.67</ele><time>2026-03-11T15:37:09Z</time><extensions><gpxtpx:TrackPointExtension><gpxtpx:atemp>2.5</gpxtpx:atemp></gpxtpx:TrackPointExtension></extensions></trkpt><trkpt lat="42.2016363312" lon="13.4179869667"><ele>1712.67</ele><time>2026-03-11T15:37:10Z</time><extensions><gpxtpx:TrackPointExtension><gpxtpx:atemp>2.5</gpxtpx:atemp></gpxtpx:TrackPointExtension></extensions></trkpt><trkpt lat="42.2016364988" lon="13.4179871343"><ele>1712.67</ele><time>2026-03-11T15:37:11Z</time><extensions><gpxtpx:TrackPointExtension><gpxtpx:atemp>2.5</gpxtpx:atemp></gpxtpx:TrackPointExtension></extensions></trkpt><trkpt lat="42.2016364988" lon="13.4179868829"><ele>1712.66</ele><time>2026-03-11T15:37:12Z</time><extensions><gpxtpx:TrackPointExtension><gpxtpx:atemp>2.5</gpxtpx:atemp></gpxtpx:TrackPointExtension></extensions></trkpt><trkpt lat="42.2016366664" lon="13.4179871343"><ele>1712.63</ele><time>2026-03-11T15:37:13Z</time><extensions><gpxtpx:TrackPointExtension><gpxtpx:atemp>2.5</gpxtpx:atemp></gpxtpx:TrackPointExtension></extensions></trkpt><trkpt lat="42.2016363312" lon="13.4179873858"><ele>1712.60</ele><time>2026-03-11T15:37:14Z</time><extensions><gpxtpx:TrackPointExtension><gpxtpx:atemp>2.5</gpxtpx:atemp></gpxtpx:TrackPointExtension></extensions></trkpt><trkpt lat="42.2016358282" lon="13.4179872181"><ele>1712.59</ele><time>2026-03-11T15:37:15Z</time><extensions><gpxtpx:TrackPointExtension><gpxtpx:atemp>2.5</gpxtpx:atemp></gpxtpx:TrackPointExtension></extensions></trkpt><trkpt lat="42.2016358282" lon="13.4179864638"><ele>1712.59</ele><time>2026-03-11T15:37:16Z</time><extensions><gpxtpx:TrackPointExtension><gpxtpx:atemp>2.5</gpxtpx:atemp></gpxtpx:TrackPointExtension></extensions></trkpt><trkpt lat="42.2016356606" lon="13.4179867990"><ele>1712.59</ele><time>2026-03-11T15:37:17Z</time><extensions><gpxtpx:TrackPointExtension><gpxtpx:atemp>2.5</gpxtpx:atemp></gpxtpx:TrackPointExtension></extensions></trkpt><trkpt lat="42.2016357444" lon="13.4179868829"><ele>1712.65</ele><time>2026-03-11T15:37:18Z</time><extensions><gpxtpx:TrackPointExtension><gpxtpx:atemp>2.5</gpxtpx:atemp></gpxtpx:TrackPointExtension></extensions></trkpt><trkpt lat="42.2016355768" lon="13.4179869667"><ele>1712.68</ele><time>2026-03-11T15:37:19Z</time><extensions><gpxtpx:TrackPointExtension><gpxtpx:atemp>2.5</gpxtpx:atemp></gpxtpx:TrackPointExtension></extensions></trkpt><trkpt lat="42.2016361635" lon="13.4179873858"><ele>1712.53</ele><time>2026-03-11T15:37:20Z</time><extensions><gpxtpx:TrackPointExtension><gpxtpx:atemp>2.5</gpxtpx:atemp></gpxtpx:TrackPointExtension></extensions></trkpt><trkpt lat="42.2016363312" lon="13.4179876372"><ele>1712.45</ele><time>2026-03-11T15:37:21Z</time><extensions><gpxtpx:TrackPointExtension><gpxtpx:atemp>2.5</gpxtpx:atemp></gpxtpx:TrackPointExtension></extensions></trkpt><trkpt lat="42.2016359959" lon="13.4179878887"><ele>1712.42</ele><time>2026-03-11T15:37:22Z</time><extensions><gpxtpx:TrackPointExtension><gpxtpx:atemp>2.5</gpxtpx:atemp></gpxtpx:TrackPointExtension></extensions></trkpt><trkpt lat="42.2016358282" lon="13.4179880563"><ele>1712.54</ele><time>2026-03-11T15:37:23Z</time><extensions><gpxtpx:TrackPointExtension><gpxtpx:atemp>2.5</gpxtpx:atemp></gpxtpx:TrackPointExtension></extensions></trkpt><trkpt lat="42.2016360797" lon="13.4179879725"><ele>1712.78</ele><time>2026-03-11T15:37:24Z</time><extensions><gpxtpx:TrackPointExtension><gpxtpx:atemp>2.5</gpxtpx:atemp></gpxtpx:TrackPointExtension></extensions></trkpt><trkpt lat="42.2016357444" lon="13.4179880563"><ele>1713.18</ele><time>2026-03-11T15:37:25Z</time><extensions><gpxtpx:TrackPointExtension><gpxtpx:atemp>2.5</gpxtpx:atemp></gpxtpx:TrackPointExtension></extensions></trkpt><trkpt lat="42.2016356606" lon="13.4179880563"><ele>1713.40</ele><time>2026-03-11T15:37:26Z</time><extensions><gpxtpx:TrackPointExtension><gpxtpx:atemp>2.5</gpxtpx:atemp></gpxtpx:TrackPointExtension></extensions></trkpt><trkpt lat="42.2016358282" lon="13.4179877210"><ele>1713.51</ele><time>2026-03-11T15:37:27Z</time><extensions><gpxtpx:TrackPointExtension><gpxtpx:atemp>2.5</gpxtpx:atemp></gpxtpx:TrackPointExtension></extensions></trkpt><trkpt lat="42.2016356606" lon="13.4179871343"><ele>1713.47</ele><time>2026-03-11T15:37:28Z</time><extensions><gpxtpx:TrackPointExtension><gpxtpx:atemp>2.5</gpxtpx:atemp></gpxtpx:TrackPointExtension></extensions></trkpt><trkpt lat="42.2016357444" lon="13.4179871343"><ele>1713.39</ele><time>2026-03-11T15:37:29Z</time><extensions><gpxtpx:TrackPointExtension><gpxtpx:atemp>2.5</gpxtpx:atemp></gpxtpx:TrackPointExtension></extensions></trkpt><trkpt lat="42.2016357444" lon="13.4179868829"><ele>1713.30</ele><time>2026-03-11T15:37:30Z</time><extensions><gpxtpx:TrackPointExtension><gpxtpx:atemp>2.5</gpxtpx:atemp></gpxtpx:TrackPointExtension></extensions></trkpt><trkpt lat="42.2016359959" lon="13.4179876372"><ele>1713.06</ele><time>2026-03-11T15:37:31Z</time><extensions><gpxtpx:TrackPointExtension><gpxtpx:atemp>2.5</gpxtpx:atemp></gpxtpx:TrackPointExtension></extensions></trkpt><trkpt lat="42.2016355768" lon="13.4179868829"><ele>1712.96</ele><time>2026-03-11T15:37:32Z</time><extensions><gpxtpx:TrackPointExtension><gpxtpx:atemp>2.5</gpxtpx:atemp></gpxtpx:TrackPointExtension></extensions></trkpt><trkpt lat="42.2016354930" lon="13.4179861285"><ele>1712.83</ele><time>2026-03-11T15:37:33Z</time><extensions><gpxtpx:TrackPointExtension><gpxtpx:atemp>2.5</gpxtpx:atemp></gpxtpx:TrackPointExtension></extensions></trkpt><trkpt lat="42.2016354930" lon="13.4179857932"><ele>1712.76</ele><time>2026-03-11T15:37:34Z</time><extensions><gpxtpx:TrackPointExtension><gpxtpx:atemp>2.4</gpxtpx:atemp></gpxtpx:TrackPointExtension></extensions></trkpt><trkpt lat="42.2016354930" lon="13.4179852903"><ele>1712.72</ele><time>2026-03-11T15:37:35Z</time><extensions><gpxtpx:TrackPointExtension><gpxtpx:atemp>2.4</gpxtpx:atemp></gpxtpx:TrackPointExtension></extensions></trkpt><trkpt lat="42.2016355768" lon="13.4179848712"><ele>1712.68</ele><time>2026-03-11T15:37:36Z</time><extensions><gpxtpx:TrackPointExtension><gpxtpx:atemp>2.4</gpxtpx:atemp></gpxtpx:TrackPointExtension></extensions></trkpt><trkpt lat="42.2016359959" lon="13.4179843683"><ele>1712.70</ele><time>2026-03-11T15:37:37Z</time><extensions><gpxtpx:TrackPointExtension><gpxtpx:atemp>2.4</gpxtpx:atemp></gpxtpx:TrackPointExtension></extensions></trkpt><trkpt lat="42.2016363312" lon="13.4179839492"><ele>1712.71</ele><time>2026-03-11T15:37:38Z</time><extensions><gpxtpx:TrackPointExtension><gpxtpx:atemp>2.4</gpxtpx:atemp></gpxtpx:TrackPointExtension></extensions></trkpt><trkpt lat="42.2016364988" lon="13.4179837815"><ele>1712.71</ele><time>2026-03-11T15:37:39Z</time><extensions><gpxtpx:TrackPointExtension><gpxtpx:atemp>2.4</gpxtpx:atemp></gpxtpx:TrackPointExtension></extensions></trkpt><trkpt lat="42.2016368341" lon="13.4179834463"><ele>1712.73</ele><time>2026-03-11T15:37:40Z</time><extensions><gpxtpx:TrackPointExtension><gpxtpx:atemp>2.4</gpxtpx:atemp></gpxtpx:TrackPointExtension></extensions></trkpt><trkpt lat="42.2016371693" lon="13.4179832786"><ele>1712.74</ele><time>2026-03-11T15:37:41Z</time><extensions><gpxtpx:TrackPointExtension><gpxtpx:atemp>2.4</gpxtpx:atemp></gpxtpx:TrackPointExtension></extensions></trkpt><trkpt lat="42.2016375884" lon="13.4179829434"><ele>1712.74</ele><time>2026-03-11T15:37:42Z</time><extensions><gpxtpx:TrackPointExtension><gpxtpx:atemp>2.4</gpxtpx:atemp></gpxtpx:TrackPointExtension></extensions></trkpt><trkpt lat="42.2016373370" lon="13.4179825243"><ele>1712.73</ele><time>2026-03-11T15:37:43Z</time><extensions><gpxtpx:TrackPointExtension><gpxtpx:atemp>2.4</gpxtpx:atemp></gpxtpx:TrackPointExtension></extensions></trkpt><trkpt lat="42.2016381752" lon="13.4179829434"><ele>1712.73</ele><time>2026-03-11T15:37:44Z</time><extensions><gpxtpx:TrackPointExtension><gpxtpx:atemp>2.4</gpxtpx:atemp></gpxtpx:TrackPointExtension></extensions></trkpt><trkpt lat="42.2016380914" lon="13.4179823566"><ele>1712.74</ele><time>2026-03-11T15:37:45Z</time><extensions><gpxtpx:TrackPointExtension><gpxtpx:atemp>2.4</gpxtpx:atemp></gpxtpx:TrackPointExtension></extensions></trkpt><trkpt lat="42.2016378399" lon="13.4179830272"><ele>1712.74</ele><time>2026-03-11T15:37:46Z</time><extensions><gpxtpx:TrackPointExtension><gpxtpx:atemp>2.4</gpxtpx:atemp></gpxtpx:TrackPointExtension></extensions></trkpt><trkpt lat="42.2016372532" lon="13.4179832786"><ele>1712.70</ele><time>2026-03-11T15:37:47Z</time><extensions><gpxtpx:TrackPointExtension><gpxtpx:atemp>2.4</gpxtpx:atemp></gpxtpx:TrackPointExtension></extensions></trkpt><trkpt lat="42.2016375884" lon="13.4179828595"><ele>1712.70</ele><time>2026-03-11T15:37:48Z</time><extensions><gpxtpx:TrackPointExtension><gpxtpx:atemp>2.4</gpxtpx:atemp></gpxtpx:TrackPointExtension></extensions></trkpt><trkpt lat="42.2016373370" lon="13.4179827757"><ele>1712.73</ele><time>2026-03-11T15:37:49Z</time><extensions><gpxtpx:TrackPointExtension><gpxtpx:atemp>2.4</gpxtpx:atemp></gpxtpx:TrackPointExtension></extensions></trkpt><trkpt lat="42.2016375884" lon="13.4179828595"><ele>1712.73</ele><time>2026-03-11T15:37:50Z</time><extensions><gpxtpx:TrackPointExtension><gpxtpx:atemp>2.4</gpxtpx:atemp></gpxtpx:TrackPointExtension></extensions></trkpt><trkpt lat="42.2016375884" lon="13.4179824404"><ele>1712.73</ele><time>2026-03-11T15:37:51Z</time><extensions><gpxtpx:TrackPointExtension><gpxtpx:atemp>2.4</gpxtpx:atemp></gpxtpx:TrackPointExtension></extensions></trkpt><trkpt lat="42.2016374208" lon="13.4179819375"><ele>1712.68</ele><time>2026-03-11T15:37:52Z</time><extensions><gpxtpx:TrackPointExtension><gpxtpx:atemp>2.4</gpxtpx:atemp></gpxtpx:TrackPointExtension></extensions></trkpt><trkpt lat="42.2016375884" lon="13.4179821890"><ele>1712.66</ele><time>2026-03-11T15:37:53Z</time><extensions><gpxtpx:TrackPointExtension><gpxtpx:atemp>2.4</gpxtpx:atemp></gpxtpx:TrackPointExtension></extensions></trkpt><trkpt lat="42.2016375884" lon="13.4179819375"><ele>1712.68</ele><time>2026-03-11T15:37:54Z</time><extensions><gpxtpx:TrackPointExtension><gpxtpx:atemp>2.4</gpxtpx:atemp></gpxtpx:TrackPointExtension></extensions></trkpt><trkpt lat="42.2016371693" lon="13.4179814346"><ele>1712.62</ele><time>2026-03-11T15:37:55Z</time><extensions><gpxtpx:TrackPointExtension><gpxtpx:atemp>2.4</gpxtpx:atemp></gpxtpx:TrackPointExtension></extensions></trkpt><trkpt lat="42.2016366664" lon="13.4179825243"><ele>1712.59</ele><time>2026-03-11T15:37:56Z</time><extensions><gpxtpx:TrackPointExtension><gpxtpx:atemp>2.4</gpxtpx:atemp></gpxtpx:TrackPointExtension></extensions></trkpt><trkpt lat="42.2016364988" lon="13.4179809317"><ele>1712.56</ele><time>2026-03-11T15:37:57Z</time><extensions><gpxtpx:TrackPointExtension><gpxtpx:atemp>2.4</gpxtpx:atemp></gpxtpx:TrackPointExtension></extensions></trkpt><trkpt lat="42.2016361635" lon="13.4179805964"><ele>1712.55</ele><time>2026-03-11T15:37:58Z</time><extensions><gpxtpx:TrackPointExtension><gpxtpx:atemp>2.4</gpxtpx:atemp></gpxtpx:TrackPointExtension></extensions></trkpt><trkpt lat="42.2016362473" lon="13.4179804288"><ele>1712.53</ele><time>2026-03-11T15:37:59Z</time><extensions><gpxtpx:TrackPointExtension><gpxtpx:atemp>2.4</gpxtpx:atemp></gpxtpx:TrackPointExtension></extensions></trkpt><trkpt lat="42.2016362473" lon="13.4179797582"><ele>1712.51</ele><time>2026-03-11T15:38:00Z</time><extensions><gpxtpx:TrackPointExtension><gpxtpx:atemp>2.4</gpxtpx:atemp></gpxtpx:TrackPointExtension></extensions></trkpt><trkpt lat="42.2016360797" lon="13.4179801773"><ele>1712.51</ele><time>2026-03-11T15:38:01Z</time><extensions><gpxtpx:TrackPointExtension><gpxtpx:atemp>2.4</gpxtpx:atemp></gpxtpx:TrackPointExtension></extensions></trkpt><trkpt lat="42.2016364988" lon="13.4179800935"><ele>1712.49</ele><time>2026-03-11T15:38:02Z</time><extensions><gpxtpx:TrackPointExtension><gpxtpx:atemp>2.4</gpxtpx:atemp></gpxtpx:TrackPointExtension></extensions></trkpt><trkpt lat="42.2016368341" lon="13.4179802611"><ele>1712.47</ele><time>2026-03-11T15:38:03Z</time><extensions><gpxtpx:TrackPointExtension><gpxtpx:atemp>2.4</gpxtpx:atemp></gpxtpx:TrackPointExtension></extensions></trkpt><trkpt lat="42.2016375884" lon="13.4179803450"><ele>1712.46</ele><time>2026-03-11T15:38:04Z</time><extensions><gpxtpx:TrackPointExtension><gpxtpx:atemp>2.4</gpxtpx:atemp></gpxtpx:TrackPointExtension></extensions></trkpt><trkpt lat="42.2016382590" lon="13.4179803450"><ele>1712.46</ele><time>2026-03-11T15:38:05Z</time><extensions><gpxtpx:TrackPointExtension><gpxtpx:atemp>2.4</gpxtpx:atemp></gpxtpx:TrackPointExtension></extensions></trkpt><trkpt lat="42.2016383428" lon="13.4179812670"><ele>1712.49</ele><time>2026-03-11T15:38:06Z</time><extensions><gpxtpx:TrackPointExtension><gpxtpx:atemp>2.4</gpxtpx:atemp></gpxtpx:TrackPointExtension></extensions></trkpt><trkpt lat="42.2016398516" lon="13.4179811832"><ele>1712.49</ele><time>2026-03-11T15:38:07Z</time><extensions><gpxtpx:TrackPointExtension><gpxtpx:atemp>2.4</gpxtpx:atemp></gpxtpx:TrackPointExtension></extensions></trkpt><trkpt lat="42.2016394325" lon="13.4179825243"><ele>1712.51</ele><time>2026-03-11T15:38:08Z</time><extensions><gpxtpx:TrackPointExtension><gpxtpx:atemp>2.4</gpxtpx:atemp></gpxtpx:TrackPointExtension></extensions></trkpt><trkpt lat="42.2016434558" lon="13.4179783333"><ele>1712.52</ele><time>2026-03-11T15:38:09Z</time><extensions><gpxtpx:TrackPointExtension><gpxtpx:atemp>2.4</gpxtpx:atemp></gpxtpx:TrackPointExtension></extensions></trkpt><trkpt lat="42.2016447969" lon="13.4179762378"><ele>1712.53</ele><time>2026-03-11T15:38:10Z</time><extensions><gpxtpx:TrackPointExtension><gpxtpx:atemp>2.4</gpxtpx:atemp></gpxtpx:TrackPointExtension></extensions></trkpt><trkpt lat="42.2016499937" lon="13.4179772437"><ele>1712.53</ele><time>2026-03-11T15:38:11Z</time><extensions><gpxtpx:TrackPointExtension><gpxtpx:atemp>2.4</gpxtpx:atemp></gpxtpx:TrackPointExtension></extensions></trkpt><trkpt lat="42.2016546875" lon="13.4179780819"><ele>1712.53</ele><time>2026-03-11T15:38:12Z</time><extensions><gpxtpx:TrackPointExtension><gpxtpx:atemp>2.4</gpxtpx:atemp></gpxtpx:TrackPointExtension></extensions></trkpt><trkpt lat="42.2016632371" lon="13.4179760702"><ele>1712.51</ele><time>2026-03-11T15:38:13Z</time><extensions><gpxtpx:TrackPointExtension><gpxtpx:atemp>2.4</gpxtpx:atemp></gpxtpx:TrackPointExtension></extensions></trkpt><trkpt lat="42.2016739659" lon="13.4179756511"><ele>1712.48</ele><time>2026-03-11T15:38:14Z</time><extensions><gpxtpx:TrackPointExtension><gpxtpx:atemp>2.4</gpxtpx:atemp></gpxtpx:TrackPointExtension></extensions></trkpt><trkpt lat="42.2016881313" lon="13.4179759864"><ele>1712.45</ele><time>2026-03-11T15:38:15Z</time><extensions><gpxtpx:TrackPointExtension><gpxtpx:atemp>2.4</gpxtpx:atemp></gpxtpx:TrackPointExtension></extensions></trkpt><trkpt lat="42.2017030511" lon="13.4179770760"><ele>1712.40</ele><time>2026-03-11T15:38:16Z</time><extensions><gpxtpx:TrackPointExtension><gpxtpx:atemp>2.4</gpxtpx:atemp></gpxtpx:TrackPointExtension></extensions></trkpt><trkpt lat="42.2017182223" lon="13.4179796744"><ele>1712.37</ele><time>2026-03-11T15:38:17Z</time><extensions><gpxtpx:TrackPointExtension><gpxtpx:atemp>2.4</gpxtpx:atemp></gpxtpx:TrackPointExtension></extensions></trkpt><trkpt lat="42.2017308790" lon="13.4179819375"><ele>1712.36</ele><time>2026-03-11T15:38:18Z</time><extensions><gpxtpx:TrackPointExtension><gpxtpx:atemp>2.4</gpxtpx:atemp></gpxtpx:TrackPointExtension></extensions></trkpt><trkpt lat="42.2017423622" lon="13.4179852903"><ele>1712.31</ele><time>2026-03-11T15:38:19Z</time><extensions><gpxtpx:TrackPointExtension><gpxtpx:atemp>2.4</gpxtpx:atemp></gpxtpx:TrackPointExtension></extensions></trkpt><trkpt lat="42.2017487325" lon="13.4179860447"><ele>1712.28</ele><time>2026-03-11T15:38:20Z</time><extensions><gpxtpx:TrackPointExtension><gpxtpx:atemp>2.4</gpxtpx:atemp></gpxtpx:TrackPointExtension></extensions></trkpt><trkpt lat="42.2017563600" lon="13.4179881401"><ele>1712.27</ele><time>2026-03-11T15:38:21Z</time><extensions><gpxtpx:TrackPointExtension><gpxtpx:atemp>2.4</gpxtpx:atemp></gpxtpx:TrackPointExtension></extensions></trkpt><trkpt lat="42.2017685976" lon="13.4179915767"><ele>1712.26</ele><time>2026-03-11T15:38:22Z</time><extensions><gpxtpx:TrackPointExtension><gpxtpx:atemp>2.4</gpxtpx:atemp></gpxtpx:TrackPointExtension></extensions></trkpt><trkpt lat="42.2017816734" lon="13.4179952648"><ele>1712.21</ele><time>2026-03-11T15:38:23Z</time><extensions><gpxtpx:TrackPointExtension><gpxtpx:atemp>2.4</gpxtpx:atemp></gpxtpx:TrackPointExtension></extensions></trkpt><trkpt lat="42.2017928213" lon="13.4179995395"><ele>1712.11</ele><time>2026-03-11T15:38:24Z</time><extensions><gpxtpx:TrackPointExtension><gpxtpx:atemp>2.4</gpxtpx:atemp></gpxtpx:TrackPointExtension></extensions></trkpt><trkpt lat="42.2018056456" lon="13.4180013835"><ele>1712.02</ele><time>2026-03-11T15:38:25Z</time><extensions><gpxtpx:TrackPointExtension><gpxtpx:atemp>2.4</gpxtpx:atemp></gpxtpx:TrackPointExtension></extensions></trkpt><trkpt lat="42.2018157877" lon="13.4180086758"><ele>1711.93</ele><time>2026-03-11T15:38:26Z</time><extensions><gpxtpx:TrackPointExtension><gpxtpx:atemp>2.4</gpxtpx:atemp></gpxtpx:TrackPointExtension></extensions></trkpt><trkpt lat="42.2018279415" lon="13.4180176444"><ele>1711.83</ele><time>2026-03-11T15:38:27Z</time><extensions><gpxtpx:TrackPointExtension><gpxtpx:atemp>2.4</gpxtpx:atemp></gpxtpx:TrackPointExtension></extensions></trkpt><trkpt lat="42.2018427774" lon="13.4180272836"><ele>1711.74</ele><time>2026-03-11T15:38:28Z</time><extensions><gpxtpx:TrackPointExtension><gpxtpx:atemp>2.4</gpxtpx:atemp></gpxtpx:TrackPointExtension></extensions></trkpt><trkpt lat="42.2018585354" lon="13.4180355817"><ele>1711.58</ele><time>2026-03-11T15:38:29Z</time><extensions><gpxtpx:TrackPointExtension><gpxtpx:atemp>2.4</gpxtpx:atemp></gpxtpx:TrackPointExtension></extensions></trkpt><trkpt lat="42.2018742934" lon="13.4180408623"><ele>1711.50</ele><time>2026-03-11T15:38:30Z</time><extensions><gpxtpx:TrackPointExtension><gpxtpx:atemp>2.4</gpxtpx:atemp></gpxtpx:TrackPointExtension></extensions></trkpt><trkpt lat="42.2018899675" lon="13.4180472326"><ele>1711.45</ele><time>2026-03-11T15:38:31Z</time><extensions><gpxtpx:TrackPointExtension><gpxtpx:atemp>2.4</gpxtpx:atemp></gpxtpx:TrackPointExtension></extensions></trkpt><trkpt lat="42.2019035462" lon="13.4180591349"><ele>1711.41</ele><time>2026-03-11T15:38:32Z</time><extensions><gpxtpx:TrackPointExtension><gpxtpx:atemp>2.5</gpxtpx:atemp></gpxtpx:TrackPointExtension></extensions></trkpt><trkpt lat="42.2019177955" lon="13.4180681873"><ele>1711.36</ele><time>2026-03-11T15:38:33Z</time><extensions><gpxtpx:TrackPointExtension><gpxtpx:atemp>2.5</gpxtpx:atemp></gpxtpx:TrackPointExtension></extensions></trkpt><trkpt lat="42.2019355651" lon="13.4180750605"><ele>1711.28</ele><time>2026-03-11T15:38:34Z</time><extensions><gpxtpx:TrackPointExtension><gpxtpx:atemp>2.5</gpxtpx:atemp></gpxtpx:TrackPointExtension></extensions></trkpt><trkpt lat="42.2019551788" lon="13.4180829395"><ele>1711.23</ele><time>2026-03-11T15:38:35Z</time><extensions><gpxtpx:TrackPointExtension><gpxtpx:atemp>2.5</gpxtpx:atemp></gpxtpx:TrackPointExtension></extensions></trkpt><trkpt lat="42.2019745409" lon="13.4180874657"><ele>1711.13</ele><time>2026-03-11T15:38:36Z</time><extensions><gpxtpx:TrackPointExtension><gpxtpx:atemp>2.5</gpxtpx:atemp></gpxtpx:TrackPointExtension></extensions></trkpt><trkpt lat="42.2019940708" lon="13.4180928301"><ele>1711.00</ele><time>2026-03-11T15:38:37Z</time><extensions><gpxtpx:TrackPointExtension><gpxtpx:atemp>2.5</gpxtpx:atemp></gpxtpx:TrackPointExtension></extensions></trkpt><trkpt lat="42.2020111699" lon="13.4180916566"><ele>1710.85</ele><time>2026-03-11T15:38:38Z</time><extensions><gpxtpx:TrackPointExtension><gpxtpx:atemp>2.5</gpxtpx:atemp></gpxtpx:TrackPointExtension></extensions></trkpt><trkpt lat="42.2020303644" lon="13.4180883877"><ele>1710.72</ele><time>2026-03-11T15:38:39Z</time><extensions><gpxtpx:TrackPointExtension><gpxtpx:atemp>2.5</gpxtpx:atemp></gpxtpx:TrackPointExtension></extensions></trkpt><trkpt lat="42.2020520736" lon="13.4180837777"><ele>1710.37</ele><time>2026-03-11T15:38:40Z</time><extensions><gpxtpx:TrackPointExtension><gpxtpx:atemp>2.5</gpxtpx:atemp></gpxtpx:TrackPointExtension></extensions></trkpt><trkpt lat="42.2020738665" lon="13.4180799220"><ele>1710.17</ele><time>2026-03-11T15:38:41Z</time><extensions><gpxtpx:TrackPointExtension><gpxtpx:atemp>2.5</gpxtpx:atemp></gpxtpx:TrackPointExtension></extensions></trkpt><trkpt lat="42.2020955756" lon="13.4180824365"><ele>1709.97</ele><time>2026-03-11T15:38:42Z</time><extensions><gpxtpx:TrackPointExtension><gpxtpx:atemp>2.5</gpxtpx:atemp></gpxtpx:TrackPointExtension></extensions></trkpt><trkpt lat="42.2021097410" lon="13.4180791676"><ele>1709.71</ele><time>2026-03-11T15:38:43Z</time><extensions><gpxtpx:TrackPointExtension><gpxtpx:atemp>2.5</gpxtpx:atemp></gpxtpx:TrackPointExtension></extensions></trkpt><trkpt lat="42.2021245770" lon="13.4180793352"><ele>1709.46</ele><time>2026-03-11T15:38:44Z</time><extensions><gpxtpx:TrackPointExtension><gpxtpx:atemp>2.5</gpxtpx:atemp></gpxtpx:TrackPointExtension></extensions></trkpt><trkpt lat="42.2021293547" lon="13.4180762339"><ele>1709.23</ele><time>2026-03-11T15:38:45Z</time><extensions><gpxtpx:TrackPointExtension><gpxtpx:atemp>2.5</gpxtpx:atemp></gpxtpx:TrackPointExtension></extensions></trkpt><trkpt lat="42.2021554224" lon="13.4180748928"><ele>1708.98</ele><time>2026-03-11T15:38:46Z</time><extensions><gpxtpx:TrackPointExtension><gpxtpx:atemp>2.5</gpxtpx:atemp></gpxtpx:TrackPointExtension></extensions></trkpt><trkpt lat="42.2021775506" lon="13.4180749767"><ele>1708.70</ele><time>2026-03-11T15:38:47Z</time><extensions><gpxtpx:TrackPointExtension><gpxtpx:atemp>2.5</gpxtpx:atemp></gpxtpx:TrackPointExtension></extensions></trkpt><trkpt lat="42.2021925543" lon="13.4180685226"><ele>1708.43</ele><time>2026-03-11T15:38:48Z</time><extensions><gpxtpx:TrackPointExtension><gpxtpx:atemp>2.5</gpxtpx:atemp></gpxtpx:TrackPointExtension></extensions></trkpt><trkpt lat="42.2022313625" lon="13.4180642478"><ele>1708.17</ele><time>2026-03-11T15:38:49Z</time><extensions><gpxtpx:TrackPointExtension><gpxtpx:atemp>2.5</gpxtpx:atemp></gpxtpx:TrackPointExtension></extensions></trkpt><trkpt lat="42.2022603638" lon="13.4180648346"><ele>1707.91</ele><time>2026-03-11T15:38:50Z</time><extensions><gpxtpx:TrackPointExtension><gpxtpx:atemp>2.5</gpxtpx:atemp></gpxtpx:TrackPointExtension></extensions></trkpt><trkpt lat="42.2022839170" lon="13.4180686902"><ele>1707.65</ele><time>2026-03-11T15:38:51Z</time><extensions><gpxtpx:TrackPointExtension><gpxtpx:atemp>2.5</gpxtpx:atemp></gpxtpx:TrackPointExtension></extensions></trkpt><trkpt lat="42.2023075540" lon="13.4180689417"><ele>1707.11</ele><time>2026-03-11T15:38:52Z</time><extensions><gpxtpx:TrackPointExtension><gpxtpx:atemp>2.5</gpxtpx:atemp></gpxtpx:TrackPointExtension></extensions></trkpt><trkpt lat="42.2023363877" lon="13.4180686902"><ele>1706.78</ele><time>2026-03-11T15:38:53Z</time><extensions><gpxtpx:TrackPointExtension><gpxtpx:atemp>2.5</gpxtpx:atemp></gpxtpx:TrackPointExtension></extensions></trkpt><trkpt lat="42.2023590188" lon="13.4180701990"><ele>1706.48</ele><time>2026-03-11T15:38:54Z</time><extensions><gpxtpx:TrackPointExtension><gpxtpx:atemp>2.5</gpxtpx:atemp></gpxtpx:TrackPointExtension></extensions></trkpt><trkpt lat="42.2023815662" lon="13.4180609789"><ele>1706.20</ele><time>2026-03-11T15:38:55Z</time><extensions><gpxtpx:TrackPointExtension><gpxtpx:atemp>2.5</gpxtpx:atemp></gpxtpx:TrackPointExtension></extensions></trkpt><trkpt lat="42.2024047840" lon="13.4180455562"><ele>1705.85</ele><time>2026-03-11T15:38:56Z</time><extensions><gpxtpx:TrackPointExtension><gpxtpx:atemp>2.5</gpxtpx:atemp></gpxtpx:TrackPointExtension></extensions></trkpt><trkpt lat="42.2024258226" lon="13.4180282895"><ele>1705.42</ele><time>2026-03-11T15:38:57Z</time><extensions><gpxtpx:TrackPointExtension><gpxtpx:atemp>2.5</gpxtpx:atemp></gpxtpx:TrackPointExtension></extensions></trkpt><trkpt lat="42.2024675645" lon="13.4179962706"><ele>1704.96</ele><time>2026-03-11T15:38:58Z</time><extensions><gpxtpx:TrackPointExtension><gpxtpx:atemp>2.5</gpxtpx:atemp></gpxtpx:TrackPointExtension></extensions></trkpt><trkpt lat="42.2024865914" lon="13.4179757349"><ele>1704.49</ele><time>2026-03-11T15:38:59Z</time><extensions><gpxtpx:TrackPointExtension><gpxtpx:atemp>2.5</gpxtpx:atemp></gpxtpx:TrackPointExtension></extensions></trkpt><trkpt lat="42.2025074624" lon="13.4179636650"><ele>1704.02</ele><time>2026-03-11T15:39:00Z</time><extensions><gpxtpx:TrackPointExtension><gpxtpx:atemp>2.5</gpxtpx:atemp></gpxtpx:TrackPointExtension></extensions></trkpt><trkpt lat="42.2025273275" lon="13.4179519303"><ele>1703.58</ele><time>2026-03-11T15:39:01Z</time><extensions><gpxtpx:TrackPointExtension><gpxtpx:atemp>2.5</gpxtpx:atemp></gpxtpx:TrackPointExtension></extensions></trkpt><trkpt lat="42.2025469411" lon="13.4179415368"><ele>1703.15</ele><time>2026-03-11T15:39:02Z</time><extensions><gpxtpx:TrackPointExtension><gpxtpx:atemp>2.5</gpxtpx:atemp></gpxtpx:TrackPointExtension></extensions></trkpt><trkpt lat="42.2025658842" lon="13.4179362562"><ele>1702.74</ele><time>2026-03-11T15:39:03Z</time><extensions><gpxtpx:TrackPointExtension><gpxtpx:atemp>2.5</gpxtpx:atemp></gpxtpx:TrackPointExtension></extensions></trkpt><trkpt lat="42.2025836539" lon="13.4179329872"><ele>1702.00</ele><time>2026-03-11T15:39:04Z</time><extensions><gpxtpx:TrackPointExtension><gpxtpx:atemp>2.5</gpxtpx:atemp></gpxtpx:TrackPointExtension></extensions></trkpt><trkpt lat="42.2025903594" lon="13.4179303888"><ele>1701.60</ele><time>2026-03-11T15:39:05Z</time><extensions><gpxtpx:TrackPointExtension><gpxtpx:atemp>2.5</gpxtpx:atemp></gpxtpx:TrackPointExtension></extensions></trkpt><trkpt lat="42.2025946341" lon="13.4179348312"><ele>1701.30</ele><time>2026-03-11T15:39:06Z</time><extensions><gpxtpx:TrackPointExtension><gpxtpx:atemp>2.5</gpxtpx:atemp></gpxtpx:TrackPointExtension></extensions></trkpt><trkpt lat="42.2025998309" lon="13.4179312270"><ele>1701.12</ele><time>2026-03-11T15:39:07Z</time><extensions><gpxtpx:TrackPointExtension><gpxtpx:atemp>2.5</gpxtpx:atemp></gpxtpx:TrackPointExtension></extensions></trkpt><trkpt lat="42.2026078776" lon="13.4179303888"><ele>1701.01</ele><time>2026-03-11T15:39:08Z</time><extensions><gpxtpx:TrackPointExtension><gpxtpx:atemp>2.5</gpxtpx:atemp></gpxtpx:TrackPointExtension></extensions></trkpt><trkpt lat="42.2026158404" lon="13.4179310594"><ele>1700.91</ele><time>2026-03-11T15:39:09Z</time><extensions><gpxtpx:TrackPointExtension><gpxtpx:atemp>2.5</gpxtpx:atemp></gpxtpx:TrackPointExtension></extensions></trkpt><trkpt lat="42.2026211210" lon="13.4179319814"><ele>1700.85</ele><time>2026-03-11T15:39:10Z</time><extensions><gpxtpx:TrackPointExtension><gpxtpx:atemp>2.5</gpxtpx:atemp></gpxtpx:TrackPointExtension></extensions></trkpt><trkpt lat="42.2026338615" lon="13.4179360885"><ele>1700.79</ele><time>2026-03-11T15:39:11Z</time><extensions><gpxtpx:TrackPointExtension><gpxtpx:atemp>2.5</gpxtpx:atemp></gpxtpx:TrackPointExtension></extensions></trkpt><trkpt lat="42.2026299220" lon="13.4179293830"><ele>1700.75</ele><time>2026-03-11T15:39:12Z</time><extensions><gpxtpx:TrackPointExtension><gpxtpx:atemp>2.5</gpxtpx:atemp></gpxtpx:TrackPointExtension></extensions></trkpt><trkpt lat="42.2026369628" lon="13.4179292992"><ele>1700.72</ele><time>2026-03-11T15:39:13Z</time><extensions><gpxtpx:TrackPointExtension><gpxtpx:atemp>2.5</gpxtpx:atemp></gpxtpx:TrackPointExtension></extensions></trkpt><trkpt lat="42.2026565764" lon="13.4179353341"><ele>1700.69</ele><time>2026-03-11T15:39:14Z</time><extensions><gpxtpx:TrackPointExtension><gpxtpx:atemp>2.5</gpxtpx:atemp></gpxtpx:TrackPointExtension></extensions></trkpt><trkpt lat="42.2026714962" lon="13.4179348312"><ele>1700.60</ele><time>2026-03-11T15:39:15Z</time><extensions><gpxtpx:TrackPointExtension><gpxtpx:atemp>2.5</gpxtpx:atemp></gpxtpx:TrackPointExtension></extensions></trkpt><trkpt lat="42.2026835661" lon="13.4179277904"><ele>1700.53</ele><time>2026-03-11T15:39:16Z</time><extensions><gpxtpx:TrackPointExtension><gpxtpx:atemp>2.5</gpxtpx:atemp></gpxtpx:TrackPointExtension></extensions></trkpt><trkpt lat="42.2027043533" lon="13.4179233480"><ele>1700.44</ele><time>2026-03-11T15:39:17Z</time><extensions><gpxtpx:TrackPointExtension><gpxtpx:atemp>2.5</gpxtpx:atemp></gpxtpx:TrackPointExtension></extensions></trkpt><trkpt lat="42.2027238831" lon="13.4179215878"><ele>1700.35</ele><time>2026-03-11T15:39:18Z</time><extensions><gpxtpx:TrackPointExtension><gpxtpx:atemp>2.5</gpxtpx:atemp></gpxtpx:TrackPointExtension></extensions></trkpt><trkpt lat="42.2027549800" lon="13.4179161396"><ele>1700.29</ele><time>2026-03-11T15:39:19Z</time><extensions><gpxtpx:TrackPointExtension><gpxtpx:atemp>2.5</gpxtpx:atemp></gpxtpx:TrackPointExtension></extensions></trkpt><trkpt lat="42.2027868312" lon="13.4179141279"><ele>1700.25</ele><time>2026-03-11T15:39:20Z</time><extensions><gpxtpx:TrackPointExtension><gpxtpx:atemp>2.5</gpxtpx:atemp></gpxtpx:TrackPointExtension></extensions></trkpt><trkpt lat="42.2028051876" lon="13.4179108590"><ele>1700.22</ele><time>2026-03-11T15:39:21Z</time><extensions><gpxtpx:TrackPointExtension><gpxtpx:atemp>2.5</gpxtpx:atemp></gpxtpx:TrackPointExtension></extensions></trkpt><trkpt lat="42.2028251365" lon="13.4179110266"><ele>1700.19</ele><time>2026-03-11T15:39:22Z</time><extensions><gpxtpx:TrackPointExtension><gpxtpx:atemp>2.5</gpxtpx:atemp></gpxtpx:TrackPointExtension></extensions></trkpt><trkpt lat="42.2028530482" lon="13.4179130383"><ele>1700.12</ele><time>2026-03-11T15:39:23Z</time><extensions><gpxtpx:TrackPointExtension><gpxtpx:atemp>2.5</gpxtpx:atemp></gpxtpx:TrackPointExtension></extensions></trkpt><trkpt lat="42.2028976399" lon="13.4179035667"><ele>1700.03</ele><time>2026-03-11T15:39:24Z</time><extensions><gpxtpx:TrackPointExtension><gpxtpx:atemp>2.5</gpxtpx:atemp></gpxtpx:TrackPointExtension></extensions></trkpt><trkpt lat="42.2029273957" lon="13.4179004654"><ele>1699.94</ele><time>2026-03-11T15:39:25Z</time><extensions><gpxtpx:TrackPointExtension><gpxtpx:atemp>2.5</gpxtpx:atemp></gpxtpx:TrackPointExtension></extensions></trkpt><trkpt lat="42.2029584926" lon="13.4178898204"><ele>1699.80</ele><time>2026-03-11T15:39:26Z</time><extensions><gpxtpx:TrackPointExtension><gpxtpx:atemp>2.5</gpxtpx:atemp></gpxtpx:TrackPointExtension></extensions></trkpt><trkpt lat="42.2029876616" lon="13.4178801812"><ele>1699.44</ele><time>2026-03-11T15:39:27Z</time><extensions><gpxtpx:TrackPointExtension><gpxtpx:atemp>2.5</gpxtpx:atemp></gpxtpx:TrackPointExtension></extensions></trkpt><trkpt lat="42.2030169982" lon="13.4178713802"><ele>1699.29</ele><time>2026-03-11T15:39:28Z</time><extensions><gpxtpx:TrackPointExtension><gpxtpx:atemp>2.5</gpxtpx:atemp></gpxtpx:TrackPointExtension></extensions></trkpt><trkpt lat="42.2030500229" lon="13.4178608190"><ele>1699.12</ele><time>2026-03-11T15:39:29Z</time><extensions><gpxtpx:TrackPointExtension><gpxtpx:atemp>2.5</gpxtpx:atemp></gpxtpx:TrackPointExtension></extensions></trkpt><trkpt lat="42.2030787729" lon="13.4178409539"><ele>1698.91</ele><time>2026-03-11T15:39:30Z</time><extensions><gpxtpx:TrackPointExtension><gpxtpx:atemp>2.5</gpxtpx:atemp></gpxtpx:TrackPointExtension></extensions></trkpt><trkpt lat="42.2031046730" lon="13.4178335778"><ele>1698.69</ele><time>2026-03-11T15:39:31Z</time><extensions><gpxtpx:TrackPointExtension><gpxtpx:atemp>2.5</gpxtpx:atemp></gpxtpx:TrackPointExtension></extensions></trkpt><trkpt lat="42.2031279746" lon="13.4178293869"><ele>1698.54</ele><time>2026-03-11T15:39:32Z</time><extensions><gpxtpx:TrackPointExtension><gpxtpx:atemp>2.4</gpxtpx:atemp></gpxtpx:TrackPointExtension></extensions></trkpt><trkpt lat="42.2031557187" lon="13.4178161435"><ele>1698.37</ele><time>2026-03-11T15:39:33Z</time><extensions><gpxtpx:TrackPointExtension><gpxtpx:atemp>2.4</gpxtpx:atemp></gpxtpx:TrackPointExtension></extensions></trkpt><trkpt lat="42.2031964548" lon="13.4177795984"><ele>1698.19</ele><time>2026-03-11T15:39:34Z</time><extensions><gpxtpx:TrackPointExtension><gpxtpx:atemp>2.4</gpxtpx:atemp></gpxtpx:TrackPointExtension></extensions></trkpt><trkpt lat="42.2032337543" lon="13.4177623317"><ele>1698.02</ele><time>2026-03-11T15:39:35Z</time><extensions><gpxtpx:TrackPointExtension><gpxtpx:atemp>2.4</gpxtpx:atemp></gpxtpx:TrackPointExtension></extensions></trkpt><trkpt lat="42.2032608278" lon="13.4177502617"><ele>1697.80</ele><time>2026-03-11T15:39:36Z</time><extensions><gpxtpx:TrackPointExtension><gpxtpx:atemp>2.4</gpxtpx:atemp></gpxtpx:TrackPointExtension></extensions></trkpt><trkpt lat="42.2032909188" lon="13.4177378565"><ele>1697.52</ele><time>2026-03-11T15:39:37Z</time><extensions><gpxtpx:TrackPointExtension><gpxtpx:atemp>2.4</gpxtpx:atemp></gpxtpx:TrackPointExtension></extensions></trkpt><trkpt lat="42.2033190820" lon="13.4177299775"><ele>1696.99</ele><time>2026-03-11T15:39:38Z</time><extensions><gpxtpx:TrackPointExtension><gpxtpx:atemp>2.4</gpxtpx:atemp></gpxtpx:TrackPointExtension></extensions></trkpt><trkpt lat="42.2033456527" lon="13.4177189972"><ele>1696.67</ele><time>2026-03-11T15:39:39Z</time><extensions><gpxtpx:TrackPointExtension><gpxtpx:atemp>2.4</gpxtpx:atemp></gpxtpx:TrackPointExtension></extensions></trkpt><trkpt lat="42.2033651825" lon="13.4177063406"><ele>1696.39</ele><time>2026-03-11T15:39:40Z</time><extensions><gpxtpx:TrackPointExtension><gpxtpx:atemp>2.4</gpxtpx:atemp></gpxtpx:TrackPointExtension></extensions></trkpt><trkpt lat="42.2033861373" lon="13.4176929295"><ele>1696.17</ele><time>2026-03-11T15:39:41Z</time><extensions><gpxtpx:TrackPointExtension><gpxtpx:atemp>2.4</gpxtpx:atemp></gpxtpx:TrackPointExtension></extensions></trkpt><trkpt lat="42.2034098580" lon="13.4176715557"><ele>1696.02</ele><time>2026-03-11T15:39:42Z</time><extensions><gpxtpx:TrackPointExtension><gpxtpx:atemp>2.4</gpxtpx:atemp></gpxtpx:TrackPointExtension></extensions></trkpt><trkpt lat="42.2034279630" lon="13.4176555462"><ele>1695.90</ele><time>2026-03-11T15:39:43Z</time><extensions><gpxtpx:TrackPointExtension><gpxtpx:atemp>2.4</gpxtpx:atemp></gpxtpx:TrackPointExtension></extensions></trkpt><trkpt lat="42.2034434695" lon="13.4176396206"><ele>1695.77</ele><time>2026-03-11T15:39:44Z</time><extensions><gpxtpx:TrackPointExtension><gpxtpx:atemp>2.4</gpxtpx:atemp></gpxtpx:TrackPointExtension></extensions></trkpt><trkpt lat="42.2034613229" lon="13.4176224377"><ele>1695.63</ele><time>2026-03-11T15:39:45Z</time><extensions><gpxtpx:TrackPointExtension><gpxtpx:atemp>2.4</gpxtpx:atemp></gpxtpx:TrackPointExtension></extensions></trkpt><trkpt lat="42.2034785897" lon="13.4176051710"><ele>1695.53</ele><time>2026-03-11T15:39:46Z</time><extensions><gpxtpx:TrackPointExtension><gpxtpx:atemp>2.4</gpxtpx:atemp></gpxtpx:TrackPointExtension></extensions></trkpt><trkpt lat="42.2034970298" lon="13.4175932687"><ele>1695.45</ele><time>2026-03-11T15:39:47Z</time><extensions><gpxtpx:TrackPointExtension><gpxtpx:atemp>2.4</gpxtpx:atemp></gpxtpx:TrackPointExtension></extensions></trkpt><trkpt lat="42.2035196610" lon="13.4175701346"><ele>1695.37</ele><time>2026-03-11T15:39:48Z</time><extensions><gpxtpx:TrackPointExtension><gpxtpx:atemp>2.4</gpxtpx:atemp></gpxtpx:TrackPointExtension></extensions></trkpt><trkpt lat="42.2035434656" lon="13.4175495990"><ele>1695.33</ele><time>2026-03-11T15:39:49Z</time><extensions><gpxtpx:TrackPointExtension><gpxtpx:atemp>2.4</gpxtpx:atemp></gpxtpx:TrackPointExtension></extensions></trkpt><trkpt lat="42.2035659291" lon="13.4175262973"><ele>1695.21</ele><time>2026-03-11T15:39:50Z</time><extensions><gpxtpx:TrackPointExtension><gpxtpx:atemp>2.4</gpxtpx:atemp></gpxtpx:TrackPointExtension></extensions></trkpt><trkpt lat="42.2035883926" lon="13.4175039176"><ele>1695.11</ele><time>2026-03-11T15:39:51Z</time><extensions><gpxtpx:TrackPointExtension><gpxtpx:atemp>2.4</gpxtpx:atemp></gpxtpx:TrackPointExtension></extensions></trkpt><trkpt lat="42.2036044858" lon="13.4174889978"><ele>1695.01</ele><time>2026-03-11T15:39:52Z</time><extensions><gpxtpx:TrackPointExtension><gpxtpx:atemp>2.4</gpxtpx:atemp></gpxtpx:TrackPointExtension></extensions></trkpt><trkpt lat="42.2036199924" lon="13.4174673725"><ele>1694.89</ele><time>2026-03-11T15:39:53Z</time><extensions><gpxtpx:TrackPointExtension><gpxtpx:atemp>2.4</gpxtpx:atemp></gpxtpx:TrackPointExtension></extensions></trkpt><trkpt lat="42.2036366723" lon="13.4174467530"><ele>1694.72</ele><time>2026-03-11T15:39:54Z</time><extensions><gpxtpx:TrackPointExtension><gpxtpx:atemp>2.4</gpxtpx:atemp></gpxtpx:TrackPointExtension></extensions></trkpt><trkpt lat="42.2036467306" lon="13.4174241219"><ele>1694.54</ele><time>2026-03-11T15:39:55Z</time><extensions><gpxtpx:TrackPointExtension><gpxtpx:atemp>2.4</gpxtpx:atemp></gpxtpx:TrackPointExtension></extensions></trkpt><trkpt lat="42.2036600579" lon="13.4173973836"><ele>1694.42</ele><time>2026-03-11T15:39:56Z</time><extensions><gpxtpx:TrackPointExtension><gpxtpx:atemp>2.4</gpxtpx:atemp></gpxtpx:TrackPointExtension></extensions></trkpt><trkpt lat="42.2036737204" lon="13.4173820447"><ele>1694.34</ele><time>2026-03-11T15:39:57Z</time><extensions><gpxtpx:TrackPointExtension><gpxtpx:atemp>2.4</gpxtpx:atemp></gpxtpx:TrackPointExtension></extensions></trkpt><trkpt lat="42.2036852874" lon="13.4173615929"><ele>1694.29</ele><time>2026-03-11T15:39:58Z</time><extensions><gpxtpx:TrackPointExtension><gpxtpx:atemp>2.4</gpxtpx:atemp></gpxtpx:TrackPointExtension></extensions></trkpt><trkpt lat="42.2036957648" lon="13.4173439909"><ele>1694.25</ele><time>2026-03-11T15:39:59Z</time><extensions><gpxtpx:TrackPointExtension><gpxtpx:atemp>2.4</gpxtpx:atemp></gpxtpx:TrackPointExtension></extensions></trkpt><trkpt lat="42.2037070803" lon="13.4173287358"><ele>1694.22</ele><time>2026-03-11T15:40:00Z</time><extensions><gpxtpx:TrackPointExtension><gpxtpx:atemp>2.4</gpxtpx:atemp></gpxtpx:TrackPointExtension></extensions></trkpt><trkpt lat="42.2037206590" lon="13.4173126426"><ele>1694.10</ele><time>2026-03-11T15:40:01Z</time><extensions><gpxtpx:TrackPointExtension><gpxtpx:atemp>2.4</gpxtpx:atemp></gpxtpx:TrackPointExtension></extensions></trkpt><trkpt lat="42.2037340701" lon="13.4172957949"><ele>1694.03</ele><time>2026-03-11T15:40:02Z</time><extensions><gpxtpx:TrackPointExtension><gpxtpx:atemp>2.4</gpxtpx:atemp></gpxtpx:TrackPointExtension></extensions></trkpt><trkpt lat="42.2037489899" lon="13.4172803722"><ele>1693.99</ele><time>2026-03-11T15:40:03Z</time><extensions><gpxtpx:TrackPointExtension><gpxtpx:atemp>2.4</gpxtpx:atemp></gpxtpx:TrackPointExtension></extensions></trkpt><trkpt lat="42.2037603892" lon="13.4172684699"><ele>1693.96</ele><time>2026-03-11T15:40:04Z</time><extensions><gpxtpx:TrackPointExtension><gpxtpx:atemp>2.4</gpxtpx:atemp></gpxtpx:TrackPointExtension></extensions></trkpt><trkpt lat="42.2037743870" lon="13.4172543883"><ele>1693.94</ele><time>2026-03-11T15:40:05Z</time><extensions><gpxtpx:TrackPointExtension><gpxtpx:atemp>2.4</gpxtpx:atemp></gpxtpx:TrackPointExtension></extensions></trkpt><trkpt lat="42.2037889715" lon="13.4172407258"><ele>1693.94</ele><time>2026-03-11T15:40:06Z</time><extensions><gpxtpx:TrackPointExtension><gpxtpx:atemp>2.4</gpxtpx:atemp></gpxtpx:TrackPointExtension></extensions></trkpt><trkpt lat="42.2038071603" lon="13.4172272310"><ele>1693.91</ele><time>2026-03-11T15:40:07Z</time><extensions><gpxtpx:TrackPointExtension><gpxtpx:atemp>2.4</gpxtpx:atemp></gpxtpx:TrackPointExtension></extensions></trkpt><trkpt lat="42.2038248461" lon="13.4172164183"><ele>1693.87</ele><time>2026-03-11T15:40:08Z</time><extensions><gpxtpx:TrackPointExtension><gpxtpx:atemp>2.4</gpxtpx:atemp></gpxtpx:TrackPointExtension></extensions></trkpt><trkpt lat="42.2038465552" lon="13.4172061924"><ele>1693.80</ele><time>2026-03-11T15:40:09Z</time><extensions><gpxtpx:TrackPointExtension><gpxtpx:atemp>2.4</gpxtpx:atemp></gpxtpx:TrackPointExtension></extensions></trkpt><trkpt lat="42.2038703598" lon="13.4171966370"><ele>1693.69</ele><time>2026-03-11T15:40:10Z</time><extensions><gpxtpx:TrackPointExtension><gpxtpx:atemp>2.4</gpxtpx:atemp></gpxtpx:TrackPointExtension></extensions></trkpt><trkpt lat="42.2038943321" lon="13.4171851538"><ele>1693.55</ele><time>2026-03-11T15:40:11Z</time><extensions><gpxtpx:TrackPointExtension><gpxtpx:atemp>2.4</gpxtpx:atemp></gpxtpx:TrackPointExtension></extensions></trkpt><trkpt lat="42.2039215732" lon="13.4171732515"><ele>1693.38</ele><time>2026-03-11T15:40:12Z</time><extensions><gpxtpx:TrackPointExtension><gpxtpx:atemp>2.4</gpxtpx:atemp></gpxtpx:TrackPointExtension></extensions></trkpt><trkpt lat="42.2039532568" lon="13.4171647858"><ele>1692.93</ele><time>2026-03-11T15:40:13Z</time><extensions><gpxtpx:TrackPointExtension><gpxtpx:atemp>2.4</gpxtpx:atemp></gpxtpx:TrackPointExtension></extensions></trkpt><trkpt lat="42.2039857786" lon="13.4171571583"><ele>1692.68</ele><time>2026-03-11T15:40:14Z</time><extensions><gpxtpx:TrackPointExtension><gpxtpx:atemp>2.4</gpxtpx:atemp></gpxtpx:TrackPointExtension></extensions></trkpt><trkpt lat="42.2040244192" lon="13.4171553981"><ele>1692.34</ele><time>2026-03-11T15:40:15Z</time><extensions><gpxtpx:TrackPointExtension><gpxtpx:atemp>2.4</gpxtpx:atemp></gpxtpx:TrackPointExtension></extensions></trkpt><trkpt lat="42.2040635627" lon="13.4171594214"><ele>1691.94</ele><time>2026-03-11T15:40:16Z</time><extensions><gpxtpx:TrackPointExtension><gpxtpx:atemp>2.4</gpxtpx:atemp></gpxtpx:TrackPointExtension></extensions></trkpt><trkpt lat="42.2040993534" lon="13.4171610978"><ele>1691.52</ele><time>2026-03-11T15:40:17Z</time><extensions><gpxtpx:TrackPointExtension><gpxtpx:atemp>2.4</gpxtpx:atemp></gpxtpx:TrackPointExtension></extensions></trkpt><trkpt lat="42.2041375749" lon="13.4171639476"><ele>1691.09</ele><time>2026-03-11T15:40:18Z</time><extensions><gpxtpx:TrackPointExtension><gpxtpx:atemp>2.4</gpxtpx:atemp></gpxtpx:TrackPointExtension></extensions></trkpt><trkpt lat="42.2041666601" lon="13.4171728324"><ele>1690.66</ele><time>2026-03-11T15:40:19Z</time><extensions><gpxtpx:TrackPointExtension><gpxtpx:atemp>2.4</gpxtpx:atemp></gpxtpx:TrackPointExtension></extensions></trkpt><trkpt lat="42.2041924763" lon="13.4171881713"><ele>1690.23</ele><time>2026-03-11T15:40:20Z</time><extensions><gpxtpx:TrackPointExtension><gpxtpx:atemp>2.4</gpxtpx:atemp></gpxtpx:TrackPointExtension></extensions></trkpt><trkpt lat="42.2042185441" lon="13.4171970561"><ele>1689.80</ele><time>2026-03-11T15:40:21Z</time><extensions><gpxtpx:TrackPointExtension><gpxtpx:atemp>2.4</gpxtpx:atemp></gpxtpx:TrackPointExtension></extensions></trkpt><trkpt lat="42.2042473778" lon="13.4172000736"><ele>1689.37</ele><time>2026-03-11T15:40:22Z</time><extensions><gpxtpx:TrackPointExtension><gpxtpx:atemp>2.4</gpxtpx:atemp></gpxtpx:TrackPointExtension></extensions></trkpt><trkpt lat="42.2042799834" lon="13.4172136523"><ele>1688.95</ele><time>2026-03-11T15:40:23Z</time><extensions><gpxtpx:TrackPointExtension><gpxtpx:atemp>2.4</gpxtpx:atemp></gpxtpx:TrackPointExtension></extensions></trkpt><trkpt lat="42.2043135948" lon="13.4172360320"><ele>1688.26</ele><time>2026-03-11T15:40:24Z</time><extensions><gpxtpx:TrackPointExtension><gpxtpx:atemp>2.4</gpxtpx:atemp></gpxtpx:TrackPointExtension></extensions></trkpt><trkpt lat="42.2043509781" lon="13.4172360320"><ele>1687.84</ele><time>2026-03-11T15:40:25Z</time><extensions><gpxtpx:TrackPointExtension><gpxtpx:atemp>2.4</gpxtpx:atemp></gpxtpx:TrackPointExtension></extensions></trkpt><trkpt lat="42.2043921333" lon="13.4172349423"><ele>1687.36</ele><time>2026-03-11T15:40:26Z</time><extensions><gpxtpx:TrackPointExtension><gpxtpx:atemp>2.4</gpxtpx:atemp></gpxtpx:TrackPointExtension></extensions></trkpt><trkpt lat="42.2044365574" lon="13.4172201902"><ele>1686.87</ele><time>2026-03-11T15:40:27Z</time><extensions><gpxtpx:TrackPointExtension><gpxtpx:atemp>2.4</gpxtpx:atemp></gpxtpx:TrackPointExtension></extensions></trkpt><trkpt lat="42.2044681571" lon="13.4172010794"><ele>1686.35</ele><time>2026-03-11T15:40:28Z</time><extensions><gpxtpx:TrackPointExtension><gpxtpx:atemp>2.4</gpxtpx:atemp></gpxtpx:TrackPointExtension></extensions></trkpt><trkpt lat="42.2045103181" lon="13.4171711560"><ele>1685.76</ele><time>2026-03-11T15:40:29Z</time><extensions><gpxtpx:TrackPointExtension><gpxtpx:atemp>2.4</gpxtpx:atemp></gpxtpx:TrackPointExtension></extensions></trkpt><trkpt lat="42.2045487911" lon="13.4171382990"><ele>1685.20</ele><time>2026-03-11T15:40:30Z</time><extensions><gpxtpx:TrackPointExtension><gpxtpx:atemp>2.4</gpxtpx:atemp></gpxtpx:TrackPointExtension></extensions></trkpt><trkpt lat="42.2045831569" lon="13.4171106387"><ele>1684.69</ele><time>2026-03-11T15:40:31Z</time><extensions><gpxtpx:TrackPointExtension><gpxtpx:atemp>2.4</gpxtpx:atemp></gpxtpx:TrackPointExtension></extensions></trkpt><trkpt lat="42.2046273295" lon="13.4170828946"><ele>1684.19</ele><time>2026-03-11T15:40:32Z</time><extensions><gpxtpx:TrackPointExtension><gpxtpx:atemp>2.6</gpxtpx:atemp></gpxtpx:TrackPointExtension></extensions></trkpt><trkpt lat="42.2046665568" lon="13.4170512948"><ele>1683.70</ele><time>2026-03-11T15:40:33Z</time><extensions><gpxtpx:TrackPointExtension><gpxtpx:atemp>2.6</gpxtpx:atemp></gpxtpx:TrackPointExtension></extensions></trkpt><trkpt lat="42.2047117352" lon="13.4170314297"><ele>1683.21</ele><time>2026-03-11T15:40:34Z</time><extensions><gpxtpx:TrackPointExtension><gpxtpx:atemp>2.6</gpxtpx:atemp></gpxtpx:TrackPointExtension></extensions></trkpt><trkpt lat="42.2047558241" lon="13.4170144983"><ele>1682.72</ele><time>2026-03-11T15:40:35Z</time><extensions><gpxtpx:TrackPointExtension><gpxtpx:atemp>2.6</gpxtpx:atemp></gpxtpx:TrackPointExtension></extensions></trkpt><trkpt lat="42.2047999967" lon="13.4170000814"><ele>1681.73</ele><time>2026-03-11T15:40:36Z</time><extensions><gpxtpx:TrackPointExtension><gpxtpx:atemp>2.6</gpxtpx:atemp></gpxtpx:TrackPointExtension></extensions></trkpt><trkpt lat="42.2048427444" lon="13.4169978183"><ele>1681.29</ele><time>2026-03-11T15:40:37Z</time><extensions><gpxtpx:TrackPointExtension><gpxtpx:atemp>2.6</gpxtpx:atemp></gpxtpx:TrackPointExtension></extensions></trkpt><trkpt lat="42.2048821393" lon="13.4170078766"><ele>1680.87</ele><time>2026-03-11T15:40:38Z</time><extensions><gpxtpx:TrackPointExtension><gpxtpx:atemp>2.6</gpxtpx:atemp></gpxtpx:TrackPointExtension></extensions></trkpt><trkpt lat="42.2049210314" lon="13.4170180187"><ele>1680.45</ele><time>2026-03-11T15:40:39Z</time><extensions><gpxtpx:TrackPointExtension><gpxtpx:atemp>2.6</gpxtpx:atemp></gpxtpx:TrackPointExtension></extensions></trkpt><trkpt lat="42.2049585823" lon="13.4170343634"><ele>1680.02</ele><time>2026-03-11T15:40:40Z</time><extensions><gpxtpx:TrackPointExtension><gpxtpx:atemp>2.6</gpxtpx:atemp></gpxtpx:TrackPointExtension></extensions></trkpt><trkpt lat="42.2049948759" lon="13.4170448408"><ele>1679.66</ele><time>2026-03-11T15:40:41Z</time><extensions><gpxtpx:TrackPointExtension><gpxtpx:atemp>2.6</gpxtpx:atemp></gpxtpx:TrackPointExtension></extensions></trkpt><trkpt lat="42.2050298285" lon="13.4170464333"><ele>1679.35</ele><time>2026-03-11T15:40:42Z</time><extensions><gpxtpx:TrackPointExtension><gpxtpx:atemp>2.6</gpxtpx:atemp></gpxtpx:TrackPointExtension></extensions></trkpt><trkpt lat="42.2050653677" lon="13.4170453437"><ele>1679.03</ele><time>2026-03-11T15:40:43Z</time><extensions><gpxtpx:TrackPointExtension><gpxtpx:atemp>2.6</gpxtpx:atemp></gpxtpx:TrackPointExtension></extensions></trkpt><trkpt lat="42.2050986439" lon="13.4170452598"><ele>1678.72</ele><time>2026-03-11T15:40:44Z</time><extensions><gpxtpx:TrackPointExtension><gpxtpx:atemp>2.6</gpxtpx:atemp></gpxtpx:TrackPointExtension></extensions></trkpt><trkpt lat="42.2051333450" lon="13.4170462657"><ele>1678.39</ele><time>2026-03-11T15:40:45Z</time><extensions><gpxtpx:TrackPointExtension><gpxtpx:atemp>2.6</gpxtpx:atemp></gpxtpx:TrackPointExtension></extensions></trkpt><trkpt lat="42.2051677946" lon="13.4170473553"><ele>1678.03</ele><time>2026-03-11T15:40:46Z</time><extensions><gpxtpx:TrackPointExtension><gpxtpx:atemp>2.6</gpxtpx:atemp></gpxtpx:TrackPointExtension></extensions></trkpt><trkpt lat="42.2052011546" lon="13.4170426615"><ele>1677.26</ele><time>2026-03-11T15:40:47Z</time><extensions><gpxtpx:TrackPointExtension><gpxtpx:atemp>2.6</gpxtpx:atemp></gpxtpx:TrackPointExtension></extensions></trkpt><trkpt lat="42.2052335925" lon="13.4170365427"><ele>1676.84</ele><time>2026-03-11T15:40:48Z</time><extensions><gpxtpx:TrackPointExtension><gpxtpx:atemp>2.6</gpxtpx:atemp></gpxtpx:TrackPointExtension></extensions></trkpt><trkpt lat="42.2052698862" lon="13.4170141630"><ele>1676.41</ele><time>2026-03-11T15:40:49Z</time><extensions><gpxtpx:TrackPointExtension><gpxtpx:atemp>2.6</gpxtpx:atemp></gpxtpx:TrackPointExtension></extensions></trkpt><trkpt lat="42.2053006478" lon="13.4169917833"><ele>1676.03</ele><time>2026-03-11T15:40:50Z</time><extensions><gpxtpx:TrackPointExtension><gpxtpx:atemp>2.6</gpxtpx:atemp></gpxtpx:TrackPointExtension></extensions></trkpt><trkpt lat="42.2053310741" lon="13.4169663861"><ele>1675.62</ele><time>2026-03-11T15:40:51Z</time><extensions><gpxtpx:TrackPointExtension><gpxtpx:atemp>2.6</gpxtpx:atemp></gpxtpx:TrackPointExtension></extensions></trkpt><trkpt lat="42.2053624224" lon="13.4169349540"><ele>1675.10</ele><time>2026-03-11T15:40:52Z</time><extensions><gpxtpx:TrackPointExtension><gpxtpx:atemp>2.6</gpxtpx:atemp></gpxtpx:TrackPointExtension></extensions></trkpt><trkpt lat="42.2053929325" lon="13.4169048630"><ele>1674.52</ele><time>2026-03-11T15:40:53Z</time><extensions><gpxtpx:TrackPointExtension><gpxtpx:atemp>2.6</gpxtpx:atemp></gpxtpx:TrackPointExtension></extensions></trkpt><trkpt lat="42.2054174915" lon="13.4168735985"><ele>1673.95</ele><time>2026-03-11T15:40:54Z</time><extensions><gpxtpx:TrackPointExtension><gpxtpx:atemp>2.6</gpxtpx:atemp></gpxtpx:TrackPointExtension></extensions></trkpt><trkpt lat="42.2054426372" lon="13.4168533981"><ele>1673.39</ele><time>2026-03-11T15:40:55Z</time><extensions><gpxtpx:TrackPointExtension><gpxtpx:atemp>2.6</gpxtpx:atemp></gpxtpx:TrackPointExtension></extensions></trkpt><trkpt lat="42.2054681182" lon="13.4168357961"><ele>1672.85</ele><time>2026-03-11T15:40:56Z</time><extensions><gpxtpx:TrackPointExtension><gpxtpx:atemp>2.6</gpxtpx:atemp></gpxtpx:TrackPointExtension></extensions></trkpt><trkpt lat="42.2054892406" lon="13.4168228880"><ele>1672.29</ele><time>2026-03-11T15:40:57Z</time><extensions><gpxtpx:TrackPointExtension><gpxtpx:atemp>2.6</gpxtpx:atemp></gpxtpx:TrackPointExtension></extensions></trkpt><trkpt lat="42.2055076808" lon="13.4168164339"><ele>1671.72</ele><time>2026-03-11T15:40:58Z</time><extensions><gpxtpx:TrackPointExtension><gpxtpx:atemp>2.6</gpxtpx:atemp></gpxtpx:TrackPointExtension></extensions></trkpt><trkpt lat="42.2055279650" lon="13.4168118238"><ele>1670.65</ele><time>2026-03-11T15:40:59Z</time><extensions><gpxtpx:TrackPointExtension><gpxtpx:atemp>2.6</gpxtpx:atemp></gpxtpx:TrackPointExtension></extensions></trkpt><trkpt lat="42.2055519372" lon="13.4168060403"><ele>1670.16</ele><time>2026-03-11T15:41:00Z</time><extensions><gpxtpx:TrackPointExtension><gpxtpx:atemp>2.6</gpxtpx:atemp></gpxtpx:TrackPointExtension></extensions></trkpt><trkpt lat="42.2055765800" lon="13.4167968202"><ele>1669.63</ele><time>2026-03-11T15:41:01Z</time><extensions><gpxtpx:TrackPointExtension><gpxtpx:atemp>2.6</gpxtpx:atemp></gpxtpx:TrackPointExtension></extensions></trkpt><trkpt lat="42.2056055814" lon="13.4167973232"><ele>1669.01</ele><time>2026-03-11T15:41:02Z</time><extensions><gpxtpx:TrackPointExtension><gpxtpx:atemp>2.6</gpxtpx:atemp></gpxtpx:TrackPointExtension></extensions></trkpt><trkpt lat="42.2056631651" lon="13.4168001730"><ele>1668.41</ele><time>2026-03-11T15:41:03Z</time><extensions><gpxtpx:TrackPointExtension><gpxtpx:atemp>2.6</gpxtpx:atemp></gpxtpx:TrackPointExtension></extensions></trkpt><trkpt lat="42.2057176474" lon="13.4168099798"><ele>1667.87</ele><time>2026-03-11T15:41:04Z</time><extensions><gpxtpx:TrackPointExtension><gpxtpx:atemp>2.6</gpxtpx:atemp></gpxtpx:TrackPointExtension></extensions></trkpt><trkpt lat="42.2057844512" lon="13.4168191999"><ele>1667.34</ele><time>2026-03-11T15:41:05Z</time><extensions><gpxtpx:TrackPointExtension><gpxtpx:atemp>2.6</gpxtpx:atemp></gpxtpx:TrackPointExtension></extensions></trkpt><trkpt lat="42.2058364190" lon="13.4168354608"><ele>1666.79</ele><time>2026-03-11T15:41:06Z</time><extensions><gpxtpx:TrackPointExtension><gpxtpx:atemp>2.6</gpxtpx:atemp></gpxtpx:TrackPointExtension></extensions></trkpt><trkpt lat="42.2058897279" lon="13.4168569185"><ele>1666.27</ele><time>2026-03-11T15:41:07Z</time><extensions><gpxtpx:TrackPointExtension><gpxtpx:atemp>2.6</gpxtpx:atemp></gpxtpx:TrackPointExtension></extensions></trkpt><trkpt lat="42.2059308831" lon="13.4168780409"><ele>1665.77</ele><time>2026-03-11T15:41:08Z</time><extensions><gpxtpx:TrackPointExtension><gpxtpx:atemp>2.6</gpxtpx:atemp></gpxtpx:TrackPointExtension></extensions></trkpt><trkpt lat="42.2059631534" lon="13.4168873448"><ele>1665.23</ele><time>2026-03-11T15:41:09Z</time><extensions><gpxtpx:TrackPointExtension><gpxtpx:atemp>2.6</gpxtpx:atemp></gpxtpx:TrackPointExtension></extensions></trkpt><trkpt lat="42.2059838567" lon="13.4168955591"><ele>1664.37</ele><time>2026-03-11T15:41:10Z</time><extensions><gpxtpx:TrackPointExtension><gpxtpx:atemp>2.6</gpxtpx:atemp></gpxtpx:TrackPointExtension></extensions></trkpt><trkpt lat="42.2060021292" lon="13.4169011749"><ele>1664.05</ele><time>2026-03-11T15:41:11Z</time><extensions><gpxtpx:TrackPointExtension><gpxtpx:atemp>2.6</gpxtpx:atemp></gpxtpx:TrackPointExtension></extensions></trkpt><trkpt lat="42.2060226649" lon="13.4168953914"><ele>1663.79</ele><time>2026-03-11T15:41:12Z</time><extensions><gpxtpx:TrackPointExtension><gpxtpx:atemp>2.6</gpxtpx:atemp></gpxtpx:TrackPointExtension></extensions></trkpt><trkpt lat="42.2060439549" lon="13.4168945532"><ele>1663.56</ele><time>2026-03-11T15:41:13Z</time><extensions><gpxtpx:TrackPointExtension><gpxtpx:atemp>2.6</gpxtpx:atemp></gpxtpx:TrackPointExtension></extensions></trkpt><trkpt lat="42.2060684301" lon="13.4168956429"><ele>1663.39</ele><time>2026-03-11T15:41:14Z</time><extensions><gpxtpx:TrackPointExtension><gpxtpx:atemp>2.6</gpxtpx:atemp></gpxtpx:TrackPointExtension></extensions></trkpt><trkpt lat="42.2060823441" lon="13.4168933798"><ele>1663.27</ele><time>2026-03-11T15:41:15Z</time><extensions><gpxtpx:TrackPointExtension><gpxtpx:atemp>2.6</gpxtpx:atemp></gpxtpx:TrackPointExtension></extensions></trkpt><trkpt lat="42.2060975991" lon="13.4168936312"><ele>1663.17</ele><time>2026-03-11T15:41:16Z</time><extensions><gpxtpx:TrackPointExtension><gpxtpx:atemp>2.6</gpxtpx:atemp></gpxtpx:TrackPointExtension></extensions></trkpt><trkpt lat="42.2061155364" lon="13.4168959782"><ele>1663.13</ele><time>2026-03-11T15:41:17Z</time><extensions><gpxtpx:TrackPointExtension><gpxtpx:atemp>2.6</gpxtpx:atemp></gpxtpx:TrackPointExtension></extensions></trkpt><trkpt lat="42.2061243374" lon="13.4168952238"><ele>1663.10</ele><time>2026-03-11T15:41:18Z</time><extensions><gpxtpx:TrackPointExtension><gpxtpx:atemp>2.6</gpxtpx:atemp></gpxtpx:TrackPointExtension></extensions></trkpt><trkpt lat="42.2061372455" lon="13.4168863390"><ele>1663.07</ele><time>2026-03-11T15:41:19Z</time><extensions><gpxtpx:TrackPointExtension><gpxtpx:atemp>2.6</gpxtpx:atemp></gpxtpx:TrackPointExtension></extensions></trkpt><trkpt lat="42.2061464656" lon="13.4168793820"><ele>1663.07</ele><time>2026-03-11T15:41:20Z</time><extensions><gpxtpx:TrackPointExtension><gpxtpx:atemp>2.6</gpxtpx:atemp></gpxtpx:TrackPointExtension></extensions></trkpt><trkpt lat="42.2061565239" lon="13.4168675635"><ele>1663.07</ele><time>2026-03-11T15:41:21Z</time><extensions><gpxtpx:TrackPointExtension><gpxtpx:atemp>2.6</gpxtpx:atemp></gpxtpx:TrackPointExtension></extensions></trkpt><trkpt lat="42.2061687615" lon="13.4168646298"><ele>1663.19</ele><time>2026-03-11T15:41:22Z</time><extensions><gpxtpx:TrackPointExtension><gpxtpx:atemp>2.6</gpxtpx:atemp></gpxtpx:TrackPointExtension></extensions></trkpt><trkpt lat="42.2061816696" lon="13.4168608580"><ele>1663.25</ele><time>2026-03-11T15:41:23Z</time><extensions><gpxtpx:TrackPointExtension><gpxtpx:atemp>2.6</gpxtpx:atemp></gpxtpx:TrackPointExtension></extensions></trkpt><trkpt lat="42.2061953321" lon="13.4168633725"><ele>1663.30</ele><time>2026-03-11T15:41:24Z</time><extensions><gpxtpx:TrackPointExtension><gpxtpx:atemp>2.6</gpxtpx:atemp></gpxtpx:TrackPointExtension></extensions></trkpt><trkpt lat="42.2062074859" lon="13.4168556612"><ele>1663.35</ele><time>2026-03-11T15:41:25Z</time><extensions><gpxtpx:TrackPointExtension><gpxtpx:atemp>2.6</gpxtpx:atemp></gpxtpx:TrackPointExtension></extensions></trkpt><trkpt lat="42.2062295303" lon="13.4168452676"><ele>1663.38</ele><time>2026-03-11T15:41:26Z</time><extensions><gpxtpx:TrackPointExtension><gpxtpx:atemp>2.6</gpxtpx:atemp></gpxtpx:TrackPointExtension></extensions></trkpt><trkpt lat="42.2062506527" lon="13.4168364666"><ele>1663.41</ele><time>2026-03-11T15:41:27Z</time><extensions><gpxtpx:TrackPointExtension><gpxtpx:atemp>2.6</gpxtpx:atemp></gpxtpx:TrackPointExtension></extensions></trkpt><trkpt lat="42.2062688414" lon="13.4168259893"><ele>1663.43</ele><time>2026-03-11T15:41:28Z</time><extensions><gpxtpx:TrackPointExtension><gpxtpx:atemp>2.6</gpxtpx:atemp></gpxtpx:TrackPointExtension></extensions></trkpt><trkpt lat="42.2062919755" lon="13.4168163501"><ele>1663.45</ele><time>2026-03-11T15:41:29Z</time><extensions><gpxtpx:TrackPointExtension><gpxtpx:atemp>2.6</gpxtpx:atemp></gpxtpx:TrackPointExtension></extensions></trkpt><trkpt lat="42.2063270956" lon="13.4167993348"><ele>1663.48</ele><time>2026-03-11T15:41:30Z</time><extensions><gpxtpx:TrackPointExtension><gpxtpx:atemp>2.6</gpxtpx:atemp></gpxtpx:TrackPointExtension></extensions></trkpt><trkpt lat="42.2063608747" lon="13.4167844988"><ele>1663.51</ele><time>2026-03-11T15:41:31Z</time><extensions><gpxtpx:TrackPointExtension><gpxtpx:atemp>2.6</gpxtpx:atemp></gpxtpx:TrackPointExtension></extensions></trkpt><trkpt lat="42.2063927259" lon="13.4167783801"><ele>1663.51</ele><time>2026-03-11T15:41:32Z</time><extensions><gpxtpx:TrackPointExtension><gpxtpx:atemp>2.6</gpxtpx:atemp></gpxtpx:TrackPointExtension></extensions></trkpt><trkpt lat="42.2064220626" lon="13.4167753626"><ele>1663.48</ele><time>2026-03-11T15:41:33Z</time><extensions><gpxtpx:TrackPointExtension><gpxtpx:atemp>2.6</gpxtpx:atemp></gpxtpx:TrackPointExtension></extensions></trkpt><trkpt lat="42.2064492200" lon="13.4167820681"><ele>1663.46</ele><time>2026-03-11T15:41:34Z</time><extensions><gpxtpx:TrackPointExtension><gpxtpx:atemp>2.6</gpxtpx:atemp></gpxtpx:TrackPointExtension></extensions></trkpt><trkpt lat="42.2064789757" lon="13.4167937189"><ele>1663.36</ele><time>2026-03-11T15:41:35Z</time><extensions><gpxtpx:TrackPointExtension><gpxtpx:atemp>2.6</gpxtpx:atemp></gpxtpx:TrackPointExtension></extensions></trkpt><trkpt lat="42.2065070551" lon="13.4168146737"><ele>1663.18</ele><time>2026-03-11T15:41:36Z</time><extensions><gpxtpx:TrackPointExtension><gpxtpx:atemp>2.6</gpxtpx:atemp></gpxtpx:TrackPointExtension></extensions></trkpt><trkpt lat="42.2065331228" lon="13.4168349579"><ele>1662.99</ele><time>2026-03-11T15:41:37Z</time><extensions><gpxtpx:TrackPointExtension><gpxtpx:atemp>2.6</gpxtpx:atemp></gpxtpx:TrackPointExtension></extensions></trkpt><trkpt lat="42.2065550834" lon="13.4168582596"><ele>1662.78</ele><time>2026-03-11T15:41:38Z</time><extensions><gpxtpx:TrackPointExtension><gpxtpx:atemp>2.6</gpxtpx:atemp></gpxtpx:TrackPointExtension></extensions></trkpt><trkpt lat="42.2065770440" lon="13.4168845788"><ele>1662.52</ele><time>2026-03-11T15:41:39Z</time><extensions><gpxtpx:TrackPointExtension><gpxtpx:atemp>2.6</gpxtpx:atemp></gpxtpx:TrackPointExtension></extensions></trkpt><trkpt lat="42.2066007648" lon="13.4169102274"><ele>1662.20</ele><time>2026-03-11T15:41:40Z</time><extensions><gpxtpx:TrackPointExtension><gpxtpx:atemp>2.6</gpxtpx:atemp></gpxtpx:TrackPointExtension></extensions></trkpt><trkpt lat="42.2066201270" lon="13.4169292543"><ele>1661.88</ele><time>2026-03-11T15:41:41Z</time><extensions><gpxtpx:TrackPointExtension><gpxtpx:atemp>2.6</gpxtpx:atemp></gpxtpx:TrackPointExtension></extensions></trkpt><trkpt lat="42.2066381481" lon="13.4169353731"><ele>1661.52</ele><time>2026-03-11T15:41:42Z</time><extensions><gpxtpx:TrackPointExtension><gpxtpx:atemp>2.6</gpxtpx:atemp></gpxtpx:TrackPointExtension></extensions></trkpt><trkpt lat="42.2066606954" lon="13.4169185255"><ele>1661.09</ele><time>2026-03-11T15:41:43Z</time><extensions><gpxtpx:TrackPointExtension><gpxtpx:atemp>2.6</gpxtpx:atemp></gpxtpx:TrackPointExtension></extensions></trkpt><trkpt lat="42.2066705860" lon="13.4169006720"><ele>1660.65</ele><time>2026-03-11T15:41:44Z</time><extensions><gpxtpx:TrackPointExtension><gpxtpx:atemp>2.6</gpxtpx:atemp></gpxtpx:TrackPointExtension></extensions></trkpt><trkpt lat="42.2066762857" lon="13.4168963972"><ele>1659.93</ele><time>2026-03-11T15:41:45Z</time><extensions><gpxtpx:TrackPointExtension><gpxtpx:atemp>2.6</gpxtpx:atemp></gpxtpx:TrackPointExtension></extensions></trkpt><trkpt lat="42.2066858411" lon="13.4168975707"><ele>1659.51</ele><time>2026-03-11T15:41:46Z</time><extensions><gpxtpx:TrackPointExtension><gpxtpx:atemp>2.6</gpxtpx:atemp></gpxtpx:TrackPointExtension></extensions></trkpt><trkpt lat="42.2066974919" lon="13.4169109818"><ele>1659.12</ele><time>2026-03-11T15:41:47Z</time><extensions><gpxtpx:TrackPointExtension><gpxtpx:atemp>2.6</gpxtpx:atemp></gpxtpx:TrackPointExtension></extensions></trkpt><trkpt lat="42.2067104839" lon="13.4169256501"><ele>1658.75</ele><time>2026-03-11T15:41:48Z</time><extensions><gpxtpx:TrackPointExtension><gpxtpx:atemp>2.6</gpxtpx:atemp></gpxtpx:TrackPointExtension></extensions></trkpt><trkpt lat="42.2067302652" lon="13.4169604350"><ele>1658.39</ele><time>2026-03-11T15:41:49Z</time><extensions><gpxtpx:TrackPointExtension><gpxtpx:atemp>2.6</gpxtpx:atemp></gpxtpx:TrackPointExtension></extensions></trkpt><trkpt lat="42.2067546565" lon="13.4170000814"><ele>1658.09</ele><time>2026-03-11T15:41:50Z</time><extensions><gpxtpx:TrackPointExtension><gpxtpx:atemp>2.6</gpxtpx:atemp></gpxtpx:TrackPointExtension></extensions></trkpt><trkpt lat="42.2067719232" lon="13.4170439187"><ele>1657.79</ele><time>2026-03-11T15:41:51Z</time><extensions><gpxtpx:TrackPointExtension><gpxtpx:atemp>2.6</gpxtpx:atemp></gpxtpx:TrackPointExtension></extensions></trkpt><trkpt lat="42.2067800537" lon="13.4170826431"><ele>1657.36</ele><time>2026-03-11T15:41:52Z</time><extensions><gpxtpx:TrackPointExtension><gpxtpx:atemp>2.6</gpxtpx:atemp></gpxtpx:TrackPointExtension></extensions></trkpt><trkpt lat="42.2067850828" lon="13.4171213675"><ele>1656.85</ele><time>2026-03-11T15:41:53Z</time><extensions><gpxtpx:TrackPointExtension><gpxtpx:atemp>2.6</gpxtpx:atemp></gpxtpx:TrackPointExtension></extensions></trkpt><trkpt lat="42.2067935485" lon="13.4171551466"><ele>1656.38</ele><time>2026-03-11T15:41:54Z</time><extensions><gpxtpx:TrackPointExtension><gpxtpx:atemp>2.6</gpxtpx:atemp></gpxtpx:TrackPointExtension></extensions></trkpt><trkpt lat="42.2068163473" lon="13.4171781968"><ele>1655.95</ele><time>2026-03-11T15:41:55Z</time><extensions><gpxtpx:TrackPointExtension><gpxtpx:atemp>2.6</gpxtpx:atemp></gpxtpx:TrackPointExtension></extensions></trkpt><trkpt lat="42.2068530601" lon="13.4171785321"><ele>1655.58</ele><time>2026-03-11T15:41:56Z</time><extensions><gpxtpx:TrackPointExtension><gpxtpx:atemp>2.6</gpxtpx:atemp></gpxtpx:TrackPointExtension></extensions></trkpt><trkpt lat="42.2069051955" lon="13.4171541408"><ele>1654.86</ele><time>2026-03-11T15:41:57Z</time><extensions><gpxtpx:TrackPointExtension><gpxtpx:atemp>2.6</gpxtpx:atemp></gpxtpx:TrackPointExtension></extensions></trkpt><trkpt lat="42.2069505416" lon="13.4171308391"><ele>1654.35</ele><time>2026-03-11T15:41:58Z</time><extensions><gpxtpx:TrackPointExtension><gpxtpx:atemp>2.6</gpxtpx:atemp></gpxtpx:TrackPointExtension></extensions></trkpt><trkpt lat="42.2069915291" lon="13.4171146620"><ele>1653.69</ele><time>2026-03-11T15:41:59Z</time><extensions><gpxtpx:TrackPointExtension><gpxtpx:atemp>2.6</gpxtpx:atemp></gpxtpx:TrackPointExtension></extensions></trkpt><trkpt lat="42.2070294991" lon="13.4170973953"><ele>1652.93</ele><time>2026-03-11T15:42:00Z</time><extensions><gpxtpx:TrackPointExtension><gpxtpx:atemp>2.6</gpxtpx:atemp></gpxtpx:TrackPointExtension></extensions></trkpt><trkpt lat="42.2070684750" lon="13.4170802962"><ele>1652.10</ele><time>2026-03-11T15:42:01Z</time><extensions><gpxtpx:TrackPointExtension><gpxtpx:atemp>2.6</gpxtpx:atemp></gpxtpx:TrackPointExtension></extensions></trkpt><trkpt lat="42.2071009967" lon="13.4170676395"><ele>1651.31</ele><time>2026-03-11T15:42:02Z</time><extensions><gpxtpx:TrackPointExtension><gpxtpx:atemp>2.6</gpxtpx:atemp></gpxtpx:TrackPointExtension></extensions></trkpt><trkpt lat="42.2071315907" lon="13.4170537256"><ele>1650.69</ele><time>2026-03-11T15:42:03Z</time><extensions><gpxtpx:TrackPointExtension><gpxtpx:atemp>2.6</gpxtpx:atemp></gpxtpx:TrackPointExtension></extensions></trkpt><trkpt lat="42.2071565688" lon="13.4170381352"><ele>1650.20</ele><time>2026-03-11T15:42:04Z</time><extensions><gpxtpx:TrackPointExtension><gpxtpx:atemp>2.6</gpxtpx:atemp></gpxtpx:TrackPointExtension></extensions></trkpt><trkpt lat="42.2071849834" lon="13.4170230478"><ele>1649.81</ele><time>2026-03-11T15:42:05Z</time><extensions><gpxtpx:TrackPointExtension><gpxtpx:atemp>2.6</gpxtpx:atemp></gpxtpx:TrackPointExtension></extensions></trkpt><trkpt lat="42.2072097939" lon="13.4170129895"><ele>1649.49</ele><time>2026-03-11T15:42:06Z</time><extensions><gpxtpx:TrackPointExtension><gpxtpx:atemp>2.6</gpxtpx:atemp></gpxtpx:TrackPointExtension></extensions></trkpt><trkpt lat="42.2072339337" lon="13.4170030989"><ele>1649.00</ele><time>2026-03-11T15:42:07Z</time><extensions><gpxtpx:TrackPointExtension><gpxtpx:atemp>2.6</gpxtpx:atemp></gpxtpx:TrackPointExtension></extensions></trkpt><trkpt lat="42.2072600853" lon="13.4169987403"><ele>1648.85</ele><time>2026-03-11T15:42:08Z</time><extensions><gpxtpx:TrackPointExtension><gpxtpx:atemp>2.6</gpxtpx:atemp></gpxtpx:TrackPointExtension></extensions></trkpt><trkpt lat="42.2072883323" lon="13.4169955552"><ele>1648.71</ele><time>2026-03-11T15:42:09Z</time><extensions><gpxtpx:TrackPointExtension><gpxtpx:atemp>2.6</gpxtpx:atemp></gpxtpx:TrackPointExtension></extensions></trkpt><trkpt lat="42.2073175851" lon="13.4169909451"><ele>1648.52</ele><time>2026-03-11T15:42:10Z</time><extensions><gpxtpx:TrackPointExtension><gpxtpx:atemp>2.6</gpxtpx:atemp></gpxtpx:TrackPointExtension></extensions></trkpt><trkpt lat="42.2073470894" lon="13.4169869218"><ele>1648.34</ele><time>2026-03-11T15:42:11Z</time><extensions><gpxtpx:TrackPointExtension><gpxtpx:atemp>2.6</gpxtpx:atemp></gpxtpx:TrackPointExtension></extensions></trkpt><trkpt lat="42.2073795274" lon="13.4169822279"><ele>1648.17</ele><time>2026-03-11T15:42:12Z</time><extensions><gpxtpx:TrackPointExtension><gpxtpx:atemp>2.6</gpxtpx:atemp></gpxtpx:TrackPointExtension></extensions></trkpt><trkpt lat="42.2074107919" lon="13.4169787914"><ele>1648.00</ele><time>2026-03-11T15:42:13Z</time><extensions><gpxtpx:TrackPointExtension><gpxtpx:atemp>2.6</gpxtpx:atemp></gpxtpx:TrackPointExtension></extensions></trkpt><trkpt lat="42.2074526176" lon="13.4169768635"><ele>1647.82</ele><time>2026-03-11T15:42:14Z</time><extensions><gpxtpx:TrackPointExtension><gpxtpx:atemp>2.6</gpxtpx:atemp></gpxtpx:TrackPointExtension></extensions></trkpt><trkpt lat="42.2074923478" lon="13.4169726726"><ele>1647.66</ele><time>2026-03-11T15:42:15Z</time><extensions><gpxtpx:TrackPointExtension><gpxtpx:atemp>2.6</gpxtpx:atemp></gpxtpx:TrackPointExtension></extensions></trkpt><trkpt lat="42.2075317428" lon="13.4169648774"><ele>1647.48</ele><time>2026-03-11T15:42:16Z</time><extensions><gpxtpx:TrackPointExtension><gpxtpx:atemp>2.6</gpxtpx:atemp></gpxtpx:TrackPointExtension></extensions></trkpt><trkpt lat="42.2075722273" lon="13.4169566631"><ele>1647.25</ele><time>2026-03-11T15:42:17Z</time><extensions><gpxtpx:TrackPointExtension><gpxtpx:atemp>2.6</gpxtpx:atemp></gpxtpx:TrackPointExtension></extensions></trkpt><trkpt lat="42.2076120414" lon="13.4169460181"><ele>1646.94</ele><time>2026-03-11T15:42:18Z</time><extensions><gpxtpx:TrackPointExtension><gpxtpx:atemp>2.6</gpxtpx:atemp></gpxtpx:TrackPointExtension></extensions></trkpt><trkpt lat="42.2076494247" lon="13.4169357922"><ele>1646.05</ele><time>2026-03-11T15:42:19Z</time><extensions><gpxtpx:TrackPointExtension><gpxtpx:atemp>2.6</gpxtpx:atemp></gpxtpx:TrackPointExtension></extensions></trkpt><trkpt lat="42.2076849639" lon="13.4169258177"><ele>1645.57</ele><time>2026-03-11T15:42:20Z</time><extensions><gpxtpx:TrackPointExtension><gpxtpx:atemp>2.6</gpxtpx:atemp></gpxtpx:TrackPointExtension></extensions></trkpt><trkpt lat="42.2077192459" lon="13.4169154242"><ele>1645.09</ele><time>2026-03-11T15:42:21Z</time><extensions><gpxtpx:TrackPointExtension><gpxtpx:atemp>2.6</gpxtpx:atemp></gpxtpx:TrackPointExtension></extensions></trkpt><trkpt lat="42.2077543661" lon="13.4169042762"><ele>1644.69</ele><time>2026-03-11T15:42:22Z</time><extensions><gpxtpx:TrackPointExtension><gpxtpx:atemp>2.6</gpxtpx:atemp></gpxtpx:TrackPointExtension></extensions></trkpt><trkpt lat="42.2077897377" lon="13.4168936312"><ele>1644.31</ele><time>2026-03-11T15:42:23Z</time><extensions><gpxtpx:TrackPointExtension><gpxtpx:atemp>2.6</gpxtpx:atemp></gpxtpx:TrackPointExtension></extensions></trkpt><trkpt lat="42.2078238521" lon="13.4168842435"><ele>1643.93</ele><time>2026-03-11T15:42:24Z</time><extensions><gpxtpx:TrackPointExtension><gpxtpx:atemp>2.6</gpxtpx:atemp></gpxtpx:TrackPointExtension></extensions></trkpt><trkpt lat="42.2078571282" lon="13.4168727603"><ele>1643.58</ele><time>2026-03-11T15:42:25Z</time><extensions><gpxtpx:TrackPointExtension><gpxtpx:atemp>2.6</gpxtpx:atemp></gpxtpx:TrackPointExtension></extensions></trkpt><trkpt lat="42.2078883927" lon="13.4168622829"><ele>1643.23</ele><time>2026-03-11T15:42:26Z</time><extensions><gpxtpx:TrackPointExtension><gpxtpx:atemp>2.6</gpxtpx:atemp></gpxtpx:TrackPointExtension></extensions></trkpt><trkpt lat="42.2079193220" lon="13.4168535657"><ele>1642.91</ele><time>2026-03-11T15:42:27Z</time><extensions><gpxtpx:TrackPointExtension><gpxtpx:atemp>2.6</gpxtpx:atemp></gpxtpx:TrackPointExtension></extensions></trkpt><trkpt lat="42.2079479881" lon="13.4168431722"><ele>1642.62</ele><time>2026-03-11T15:42:28Z</time><extensions><gpxtpx:TrackPointExtension><gpxtpx:atemp>2.6</gpxtpx:atemp></gpxtpx:TrackPointExtension></extensions></trkpt><trkpt lat="42.2079774924" lon="13.4168358799"><ele>1642.41</ele><time>2026-03-11T15:42:29Z</time><extensions><gpxtpx:TrackPointExtension><gpxtpx:atemp>2.6</gpxtpx:atemp></gpxtpx:TrackPointExtension></extensions></trkpt><trkpt lat="42.2080141213" lon="13.4168272465"><ele>1642.22</ele><time>2026-03-11T15:42:30Z</time><extensions><gpxtpx:TrackPointExtension><gpxtpx:atemp>2.6</gpxtpx:atemp></gpxtpx:TrackPointExtension></extensions></trkpt><trkpt lat="42.2080470622" lon="13.4168178588"><ele>1641.80</ele><time>2026-03-11T15:42:31Z</time><extensions><gpxtpx:TrackPointExtension><gpxtpx:atemp>2.6</gpxtpx:atemp></gpxtpx:TrackPointExtension></extensions></trkpt><trkpt lat="42.2080737166" lon="13.4168077167"><ele>1641.60</ele><time>2026-03-11T15:42:32Z</time><extensions><gpxtpx:TrackPointExtension><gpxtpx:atemp>2.7</gpxtpx:atemp></gpxtpx:TrackPointExtension></extensions></trkpt><trkpt lat="42.2081016283" lon="13.4167983290"><ele>1641.41</ele><time>2026-03-11T15:42:33Z</time><extensions><gpxtpx:TrackPointExtension><gpxtpx:atemp>2.7</gpxtpx:atemp></gpxtpx:TrackPointExtension></extensions></trkpt><trkpt lat="42.2081244271" lon="13.4167893603"><ele>1641.25</ele><time>2026-03-11T15:42:34Z</time><extensions><gpxtpx:TrackPointExtension><gpxtpx:atemp>2.7</gpxtpx:atemp></gpxtpx:TrackPointExtension></extensions></trkpt><trkpt lat="42.2081454657" lon="13.4167815652"><ele>1641.09</ele><time>2026-03-11T15:42:35Z</time><extensions><gpxtpx:TrackPointExtension><gpxtpx:atemp>2.7</gpxtpx:atemp></gpxtpx:TrackPointExtension></extensions></trkpt><trkpt lat="42.2081625648" lon="13.4167724289"><ele>1640.97</ele><time>2026-03-11T15:42:36Z</time><extensions><gpxtpx:TrackPointExtension><gpxtpx:atemp>2.7</gpxtpx:atemp></gpxtpx:TrackPointExtension></extensions></trkpt><trkpt lat="42.2081792448" lon="13.4167619515"><ele>1640.87</ele><time>2026-03-11T15:42:37Z</time><extensions><gpxtpx:TrackPointExtension><gpxtpx:atemp>2.7</gpxtpx:atemp></gpxtpx:TrackPointExtension></extensions></trkpt><trkpt lat="42.2082000319" lon="13.4167510550"><ele>1640.78</ele><time>2026-03-11T15:42:38Z</time><extensions><gpxtpx:TrackPointExtension><gpxtpx:atemp>2.7</gpxtpx:atemp></gpxtpx:TrackPointExtension></extensions></trkpt><trkpt lat="42.2082214896" lon="13.4167416673"><ele>1640.70</ele><time>2026-03-11T15:42:39Z</time><extensions><gpxtpx:TrackPointExtension><gpxtpx:atemp>2.7</gpxtpx:atemp></gpxtpx:TrackPointExtension></extensions></trkpt><trkpt lat="42.2082426958" lon="13.4167369734"><ele>1640.65</ele><time>2026-03-11T15:42:40Z</time><extensions><gpxtpx:TrackPointExtension><gpxtpx:atemp>2.7</gpxtpx:atemp></gpxtpx:TrackPointExtension></extensions></trkpt><trkpt lat="42.2082648240" lon="13.4167307708"><ele>1640.57</ele><time>2026-03-11T15:42:41Z</time><extensions><gpxtpx:TrackPointExtension><gpxtpx:atemp>2.7</gpxtpx:atemp></gpxtpx:TrackPointExtension></extensions></trkpt><trkpt lat="42.2082845215" lon="13.4167240653"><ele>1640.37</ele><time>2026-03-11T15:42:42Z</time><extensions><gpxtpx:TrackPointExtension><gpxtpx:atemp>2.7</gpxtpx:atemp></gpxtpx:TrackPointExtension></extensions></trkpt><trkpt lat="42.2083069850" lon="13.4167155996"><ele>1640.28</ele><time>2026-03-11T15:42:43Z</time><extensions><gpxtpx:TrackPointExtension><gpxtpx:atemp>2.7</gpxtpx:atemp></gpxtpx:TrackPointExtension></extensions></trkpt><trkpt lat="42.2083296999" lon="13.4167069662"><ele>1640.21</ele><time>2026-03-11T15:42:44Z</time><extensions><gpxtpx:TrackPointExtension><gpxtpx:atemp>2.7</gpxtpx:atemp></gpxtpx:TrackPointExtension></extensions></trkpt><trkpt lat="42.2083527502" lon="13.4166996740"><ele>1640.12</ele><time>2026-03-11T15:42:45Z</time><extensions><gpxtpx:TrackPointExtension><gpxtpx:atemp>2.7</gpxtpx:atemp></gpxtpx:TrackPointExtension></extensions></trkpt><trkpt lat="42.2083751298" lon="13.4166921303"><ele>1640.03</ele><time>2026-03-11T15:42:46Z</time><extensions><gpxtpx:TrackPointExtension><gpxtpx:atemp>2.7</gpxtpx:atemp></gpxtpx:TrackPointExtension></extensions></trkpt><trkpt lat="42.2083958331" lon="13.4166838322"><ele>1639.99</ele><time>2026-03-11T15:42:47Z</time><extensions><gpxtpx:TrackPointExtension><gpxtpx:atemp>2.7</gpxtpx:atemp></gpxtpx:TrackPointExtension></extensions></trkpt><trkpt lat="42.2084177937" lon="13.4166724328"><ele>1639.95</ele><time>2026-03-11T15:42:48Z</time><extensions><gpxtpx:TrackPointExtension><gpxtpx:atemp>2.7</gpxtpx:atemp></gpxtpx:TrackPointExtension></extensions></trkpt><trkpt lat="42.2084386647" lon="13.4166645538"><ele>1639.88</ele><time>2026-03-11T15:42:49Z</time><extensions><gpxtpx:TrackPointExtension><gpxtpx:atemp>2.7</gpxtpx:atemp></gpxtpx:TrackPointExtension></extensions></trkpt><trkpt lat="42.2084592842" lon="13.4166612849"><ele>1639.82</ele><time>2026-03-11T15:42:50Z</time><extensions><gpxtpx:TrackPointExtension><gpxtpx:atemp>2.7</gpxtpx:atemp></gpxtpx:TrackPointExtension></extensions></trkpt><trkpt lat="42.2084784787" lon="13.4166544955"><ele>1639.74</ele><time>2026-03-11T15:42:51Z</time><extensions><gpxtpx:TrackPointExtension><gpxtpx:atemp>2.7</gpxtpx:atemp></gpxtpx:TrackPointExtension></extensions></trkpt><trkpt lat="42.2084991820" lon="13.4166501369"><ele>1639.68</ele><time>2026-03-11T15:42:52Z</time><extensions><gpxtpx:TrackPointExtension><gpxtpx:atemp>2.7</gpxtpx:atemp></gpxtpx:TrackPointExtension></extensions></trkpt><trkpt lat="42.2085180413" lon="13.4166484606"><ele>1639.63</ele><time>2026-03-11T15:42:53Z</time><extensions><gpxtpx:TrackPointExtension><gpxtpx:atemp>2.7</gpxtpx:atemp></gpxtpx:TrackPointExtension></extensions></trkpt><trkpt lat="42.2085372359" lon="13.4166470356"><ele>1639.44</ele><time>2026-03-11T15:42:54Z</time><extensions><gpxtpx:TrackPointExtension><gpxtpx:atemp>2.7</gpxtpx:atemp></gpxtpx:TrackPointExtension></extensions></trkpt><trkpt lat="42.2085565981" lon="13.4166443534"><ele>1639.33</ele><time>2026-03-11T15:42:55Z</time><extensions><gpxtpx:TrackPointExtension><gpxtpx:atemp>2.7</gpxtpx:atemp></gpxtpx:TrackPointExtension></extensions></trkpt><trkpt lat="42.2085754573" lon="13.4166432638"><ele>1639.22</ele><time>2026-03-11T15:42:56Z</time><extensions><gpxtpx:TrackPointExtension><gpxtpx:atemp>2.7</gpxtpx:atemp></gpxtpx:TrackPointExtension></extensions></trkpt><trkpt lat="42.2086000163" lon="13.4166447725"><ele>1639.12</ele><time>2026-03-11T15:42:57Z</time><extensions><gpxtpx:TrackPointExtension><gpxtpx:atemp>2.7</gpxtpx:atemp></gpxtpx:TrackPointExtension></extensions></trkpt><trkpt lat="42.2086245753" lon="13.4166447725"><ele>1639.01</ele><time>2026-03-11T15:42:58Z</time><extensions><gpxtpx:TrackPointExtension><gpxtpx:atemp>2.7</gpxtpx:atemp></gpxtpx:TrackPointExtension></extensions></trkpt><trkpt lat="42.2086484637" lon="13.4166462813"><ele>1638.88</ele><time>2026-03-11T15:42:59Z</time><extensions><gpxtpx:TrackPointExtension><gpxtpx:atemp>2.7</gpxtpx:atemp></gpxtpx:TrackPointExtension></extensions></trkpt><trkpt lat="42.2086718492" lon="13.4166494664"><ele>1638.76</ele><time>2026-03-11T15:43:00Z</time><extensions><gpxtpx:TrackPointExtension><gpxtpx:atemp>2.7</gpxtpx:atemp></gpxtpx:TrackPointExtension></extensions></trkpt><trkpt lat="42.2086967435" lon="13.4166539926"><ele>1638.67</ele><time>2026-03-11T15:43:01Z</time><extensions><gpxtpx:TrackPointExtension><gpxtpx:atemp>2.7</gpxtpx:atemp></gpxtpx:TrackPointExtension></extensions></trkpt><trkpt lat="42.2087230626" lon="13.4166572616"><ele>1638.59</ele><time>2026-03-11T15:43:02Z</time><extensions><gpxtpx:TrackPointExtension><gpxtpx:atemp>2.7</gpxtpx:atemp></gpxtpx:TrackPointExtension></extensions></trkpt><trkpt lat="42.2087478731" lon="13.4166630451"><ele>1638.51</ele><time>2026-03-11T15:43:03Z</time><extensions><gpxtpx:TrackPointExtension><gpxtpx:atemp>2.7</gpxtpx:atemp></gpxtpx:TrackPointExtension></extensions></trkpt><trkpt lat="42.2087750304" lon="13.4166672360"><ele>1638.42</ele><time>2026-03-11T15:43:04Z</time><extensions><gpxtpx:TrackPointExtension><gpxtpx:atemp>2.7</gpxtpx:atemp></gpxtpx:TrackPointExtension></extensions></trkpt><trkpt lat="42.2087984998" lon="13.4166704211"><ele>1638.14</ele><time>2026-03-11T15:43:05Z</time><extensions><gpxtpx:TrackPointExtension><gpxtpx:atemp>2.7</gpxtpx:atemp></gpxtpx:TrackPointExtension></extensions></trkpt><trkpt lat="42.2088222206" lon="13.4166733548"><ele>1637.97</ele><time>2026-03-11T15:43:06Z</time><extensions><gpxtpx:TrackPointExtension><gpxtpx:atemp>2.7</gpxtpx:atemp></gpxtpx:TrackPointExtension></extensions></trkpt><trkpt lat="42.2088499647" lon="13.4166738577"><ele>1637.79</ele><time>2026-03-11T15:43:07Z</time><extensions><gpxtpx:TrackPointExtension><gpxtpx:atemp>2.7</gpxtpx:atemp></gpxtpx:TrackPointExtension></extensions></trkpt><trkpt lat="42.2088748589" lon="13.4166743606"><ele>1637.60</ele><time>2026-03-11T15:43:08Z</time><extensions><gpxtpx:TrackPointExtension><gpxtpx:atemp>2.7</gpxtpx:atemp></gpxtpx:TrackPointExtension></extensions></trkpt><trkpt lat="42.2088985797" lon="13.4166759532"><ele>1637.43</ele><time>2026-03-11T15:43:09Z</time><extensions><gpxtpx:TrackPointExtension><gpxtpx:atemp>2.7</gpxtpx:atemp></gpxtpx:TrackPointExtension></extensions></trkpt><trkpt lat="42.2089236416" lon="13.4166743606"><ele>1637.33</ele><time>2026-03-11T15:43:10Z</time><extensions><gpxtpx:TrackPointExtension><gpxtpx:atemp>2.7</gpxtpx:atemp></gpxtpx:TrackPointExtension></extensions></trkpt><trkpt lat="42.2089474462" lon="13.4166744445"><ele>1637.24</ele><time>2026-03-11T15:43:11Z</time><extensions><gpxtpx:TrackPointExtension><gpxtpx:atemp>2.7</gpxtpx:atemp></gpxtpx:TrackPointExtension></extensions></trkpt><trkpt lat="42.2089728434" lon="13.4166719299"><ele>1637.16</ele><time>2026-03-11T15:43:12Z</time><extensions><gpxtpx:TrackPointExtension><gpxtpx:atemp>2.7</gpxtpx:atemp></gpxtpx:TrackPointExtension></extensions></trkpt><trkpt lat="42.2089976538" lon="13.4166733548"><ele>1637.06</ele><time>2026-03-11T15:43:13Z</time><extensions><gpxtpx:TrackPointExtension><gpxtpx:atemp>2.7</gpxtpx:atemp></gpxtpx:TrackPointExtension></extensions></trkpt><trkpt lat="42.2090255655" lon="13.4166814853"><ele>1636.91</ele><time>2026-03-11T15:43:14Z</time><extensions><gpxtpx:TrackPointExtension><gpxtpx:atemp>2.7</gpxtpx:atemp></gpxtpx:TrackPointExtension></extensions></trkpt><trkpt lat="42.2090510465" lon="13.4166852571"><ele>1636.73</ele><time>2026-03-11T15:43:15Z</time><extensions><gpxtpx:TrackPointExtension><gpxtpx:atemp>2.7</gpxtpx:atemp></gpxtpx:TrackPointExtension></extensions></trkpt><trkpt lat="42.2090718336" lon="13.4166840836"><ele>1636.57</ele><time>2026-03-11T15:43:16Z</time><extensions><gpxtpx:TrackPointExtension><gpxtpx:atemp>2.7</gpxtpx:atemp></gpxtpx:TrackPointExtension></extensions></trkpt><trkpt lat="42.2090934590" lon="13.4166902862"><ele>1636.37</ele><time>2026-03-11T15:43:17Z</time><extensions><gpxtpx:TrackPointExtension><gpxtpx:atemp>2.7</gpxtpx:atemp></gpxtpx:TrackPointExtension></extensions></trkpt><trkpt lat="42.2091221251" lon="13.4166931361"><ele>1636.29</ele><time>2026-03-11T15:43:18Z</time><extensions><gpxtpx:TrackPointExtension><gpxtpx:atemp>2.7</gpxtpx:atemp></gpxtpx:TrackPointExtension></extensions></trkpt><trkpt lat="42.2091472708" lon="13.4166940581"><ele>1636.23</ele><time>2026-03-11T15:43:19Z</time><extensions><gpxtpx:TrackPointExtension><gpxtpx:atemp>2.7</gpxtpx:atemp></gpxtpx:TrackPointExtension></extensions></trkpt><trkpt lat="42.2091693990" lon="13.4166968241"><ele>1636.15</ele><time>2026-03-11T15:43:20Z</time><extensions><gpxtpx:TrackPointExtension><gpxtpx:atemp>2.7</gpxtpx:atemp></gpxtpx:TrackPointExtension></extensions></trkpt><trkpt lat="42.2091924492" lon="13.4166972432"><ele>1636.09</ele><time>2026-03-11T15:43:21Z</time><extensions><gpxtpx:TrackPointExtension><gpxtpx:atemp>2.7</gpxtpx:atemp></gpxtpx:TrackPointExtension></extensions></trkpt><trkpt lat="42.2092148289" lon="13.4166992549"><ele>1636.04</ele><time>2026-03-11T15:43:22Z</time><extensions><gpxtpx:TrackPointExtension><gpxtpx:atemp>2.7</gpxtpx:atemp></gpxtpx:TrackPointExtension></extensions></trkpt><trkpt lat="42.2092365380" lon="13.4166989196"><ele>1635.95</ele><time>2026-03-11T15:43:23Z</time><extensions><gpxtpx:TrackPointExtension><gpxtpx:atemp>2.7</gpxtpx:atemp></gpxtpx:TrackPointExtension></extensions></trkpt><trkpt lat="42.2092572413" lon="13.4167000931"><ele>1635.85</ele><time>2026-03-11T15:43:24Z</time><extensions><gpxtpx:TrackPointExtension><gpxtpx:atemp>2.7</gpxtpx:atemp></gpxtpx:TrackPointExtension></extensions></trkpt><trkpt lat="42.2092741728" lon="13.4166956507"><ele>1635.73</ele><time>2026-03-11T15:43:25Z</time><extensions><gpxtpx:TrackPointExtension><gpxtpx:atemp>2.7</gpxtpx:atemp></gpxtpx:TrackPointExtension></extensions></trkpt><trkpt lat="42.2092922777" lon="13.4166923817"><ele>1635.62</ele><time>2026-03-11T15:43:26Z</time><extensions><gpxtpx:TrackPointExtension><gpxtpx:atemp>2.7</gpxtpx:atemp></gpxtpx:TrackPointExtension></extensions></trkpt><trkpt lat="42.2093122266" lon="13.4166879393"><ele>1635.52</ele><time>2026-03-11T15:43:27Z</time><extensions><gpxtpx:TrackPointExtension><gpxtpx:atemp>2.7</gpxtpx:atemp></gpxtpx:TrackPointExtension></extensions></trkpt><trkpt lat="42.2093321756" lon="13.4166873526"><ele>1635.42</ele><time>2026-03-11T15:43:28Z</time><extensions><gpxtpx:TrackPointExtension><gpxtpx:atemp>2.7</gpxtpx:atemp></gpxtpx:TrackPointExtension></extensions></trkpt><trkpt lat="42.2093528789" lon="13.4166897833"><ele>1635.26</ele><time>2026-03-11T15:43:29Z</time><extensions><gpxtpx:TrackPointExtension><gpxtpx:atemp>2.7</gpxtpx:atemp></gpxtpx:TrackPointExtension></extensions></trkpt><trkpt lat="42.2093718220" lon="13.4166883584"><ele>1635.20</ele><time>2026-03-11T15:43:30Z</time><extensions><gpxtpx:TrackPointExtension><gpxtpx:atemp>2.7</gpxtpx:atemp></gpxtpx:TrackPointExtension></extensions></trkpt><trkpt lat="42.2093899269" lon="13.4166883584"><ele>1635.13</ele><time>2026-03-11T15:43:31Z</time><extensions><gpxtpx:TrackPointExtension><gpxtpx:atemp>2.7</gpxtpx:atemp></gpxtpx:TrackPointExtension></extensions></trkpt><trkpt lat="42.2094071936" lon="13.4166911244"><ele>1635.10</ele><time>2026-03-11T15:43:32Z</time><extensions><gpxtpx:TrackPointExtension><gpxtpx:atemp>2.7</gpxtpx:atemp></gpxtpx:TrackPointExtension></extensions></trkpt><trkpt lat="42.2094249632" lon="13.4166907892"><ele>1635.08</ele><time>2026-03-11T15:43:33Z</time><extensions><gpxtpx:TrackPointExtension><gpxtpx:atemp>2.7</gpxtpx:atemp></gpxtpx:TrackPointExtension></extensions></trkpt><trkpt lat="42.2094414756" lon="13.4166941419"><ele>1635.08</ele><time>2026-03-11T15:43:34Z</time><extensions><gpxtpx:TrackPointExtension><gpxtpx:atemp>2.7</gpxtpx:atemp></gpxtpx:TrackPointExtension></extensions></trkpt><trkpt lat="42.2094565630" lon="13.4166966565"><ele>1635.07</ele><time>2026-03-11T15:43:35Z</time><extensions><gpxtpx:TrackPointExtension><gpxtpx:atemp>2.7</gpxtpx:atemp></gpxtpx:TrackPointExtension></extensions></trkpt><trkpt lat="42.2094697226" lon="13.4166981652"><ele>1635.07</ele><time>2026-03-11T15:43:36Z</time><extensions><gpxtpx:TrackPointExtension><gpxtpx:atemp>2.7</gpxtpx:atemp></gpxtpx:TrackPointExtension></extensions></trkpt><trkpt lat="42.2094829660" lon="13.4167006798"><ele>1635.05</ele><time>2026-03-11T15:43:37Z</time><extensions><gpxtpx:TrackPointExtension><gpxtpx:atemp>2.7</gpxtpx:atemp></gpxtpx:TrackPointExtension></extensions></trkpt><trkpt lat="42.2094955388" lon="13.4167025238"><ele>1635.04</ele><time>2026-03-11T15:43:38Z</time><extensions><gpxtpx:TrackPointExtension><gpxtpx:atemp>2.7</gpxtpx:atemp></gpxtpx:TrackPointExtension></extensions></trkpt><trkpt lat="42.2095030826" lon="13.4167055413"><ele>1635.02</ele><time>2026-03-11T15:43:39Z</time><extensions><gpxtpx:TrackPointExtension><gpxtpx:atemp>2.7</gpxtpx:atemp></gpxtpx:TrackPointExtension></extensions></trkpt><trkpt lat="42.2095071897" lon="13.4167052899"><ele>1634.83</ele><time>2026-03-11T15:43:40Z</time><extensions><gpxtpx:TrackPointExtension><gpxtpx:atemp>2.7</gpxtpx:atemp></gpxtpx:TrackPointExtension></extensions></trkpt><trkpt lat="42.2095084470" lon="13.4167070501"><ele>1634.79</ele><time>2026-03-11T15:43:41Z</time><extensions><gpxtpx:TrackPointExtension><gpxtpx:atemp>2.7</gpxtpx:atemp></gpxtpx:TrackPointExtension></extensions></trkpt><trkpt lat="42.2095081955" lon="13.4167079721"><ele>1634.76</ele><time>2026-03-11T15:43:42Z</time><extensions><gpxtpx:TrackPointExtension><gpxtpx:atemp>2.7</gpxtpx:atemp></gpxtpx:TrackPointExtension></extensions></trkpt><trkpt lat="42.2095076926" lon="13.4167084750"><ele>1634.78</ele><time>2026-03-11T15:43:43Z</time><extensions><gpxtpx:TrackPointExtension><gpxtpx:atemp>2.7</gpxtpx:atemp></gpxtpx:TrackPointExtension></extensions></trkpt><trkpt lat="42.2095075250" lon="13.4167079721"><ele>1634.81</ele><time>2026-03-11T15:43:44Z</time><extensions><gpxtpx:TrackPointExtension><gpxtpx:atemp>2.7</gpxtpx:atemp></gpxtpx:TrackPointExtension></extensions></trkpt><trkpt lat="42.2095077764" lon="13.4167082235"><ele>1634.85</ele><time>2026-03-11T15:43:45Z</time><extensions><gpxtpx:TrackPointExtension><gpxtpx:atemp>2.7</gpxtpx:atemp></gpxtpx:TrackPointExtension></extensions></trkpt><trkpt lat="42.2095074411" lon="13.4167081397"><ele>1634.90</ele><time>2026-03-11T15:43:46Z</time><extensions><gpxtpx:TrackPointExtension><gpxtpx:atemp>2.7</gpxtpx:atemp></gpxtpx:TrackPointExtension></extensions></trkpt><trkpt lat="42.2095071897" lon="13.4167080559"><ele>1634.94</ele><time>2026-03-11T15:43:47Z</time><extensions><gpxtpx:TrackPointExtension><gpxtpx:atemp>2.7</gpxtpx:atemp></gpxtpx:TrackPointExtension></extensions></trkpt><trkpt lat="42.2095068544" lon="13.4167074692"><ele>1634.97</ele><time>2026-03-11T15:43:48Z</time><extensions><gpxtpx:TrackPointExtension><gpxtpx:atemp>2.7</gpxtpx:atemp></gpxtpx:TrackPointExtension></extensions></trkpt><trkpt lat="42.2095061839" lon="13.4167076368"><ele>1634.97</ele><time>2026-03-11T15:43:49Z</time><extensions><gpxtpx:TrackPointExtension><gpxtpx:atemp>2.7</gpxtpx:atemp></gpxtpx:TrackPointExtension></extensions></trkpt><trkpt lat="42.2095059324" lon="13.4167077206"><ele>1634.98</ele><time>2026-03-11T15:43:50Z</time><extensions><gpxtpx:TrackPointExtension><gpxtpx:atemp>2.7</gpxtpx:atemp></gpxtpx:TrackPointExtension></extensions></trkpt><trkpt lat="42.2095057648" lon="13.4167082235"><ele>1634.98</ele><time>2026-03-11T15:43:51Z</time><extensions><gpxtpx:TrackPointExtension><gpxtpx:atemp>2.7</gpxtpx:atemp></gpxtpx:TrackPointExtension></extensions></trkpt><trkpt lat="42.2095056809" lon="13.4167086426"><ele>1634.98</ele><time>2026-03-11T15:43:52Z</time><extensions><gpxtpx:TrackPointExtension><gpxtpx:atemp>2.7</gpxtpx:atemp></gpxtpx:TrackPointExtension></extensions></trkpt><trkpt lat="42.2095051780" lon="13.4167090617"><ele>1634.97</ele><time>2026-03-11T15:43:53Z</time><extensions><gpxtpx:TrackPointExtension><gpxtpx:atemp>2.7</gpxtpx:atemp></gpxtpx:TrackPointExtension></extensions></trkpt><trkpt lat="42.2095051780" lon="13.4167092294"><ele>1634.94</ele><time>2026-03-11T15:43:54Z</time><extensions><gpxtpx:TrackPointExtension><gpxtpx:atemp>2.7</gpxtpx:atemp></gpxtpx:TrackPointExtension></extensions></trkpt><trkpt lat="42.2095047589" lon="13.4167084750"><ele>1634.93</ele><time>2026-03-11T15:43:55Z</time><extensions><gpxtpx:TrackPointExtension><gpxtpx:atemp>2.7</gpxtpx:atemp></gpxtpx:TrackPointExtension></extensions></trkpt><trkpt lat="42.2095042560" lon="13.4167087264"><ele>1634.93</ele><time>2026-03-11T15:43:56Z</time><extensions><gpxtpx:TrackPointExtension><gpxtpx:atemp>2.7</gpxtpx:atemp></gpxtpx:TrackPointExtension></extensions></trkpt><trkpt lat="42.2095041722" lon="13.4167079721"><ele>1634.92</ele><time>2026-03-11T15:43:57Z</time><extensions><gpxtpx:TrackPointExtension><gpxtpx:atemp>2.7</gpxtpx:atemp></gpxtpx:TrackPointExtension></extensions></trkpt><trkpt lat="42.2095048428" lon="13.4167073853"><ele>1634.94</ele><time>2026-03-11T15:43:58Z</time><extensions><gpxtpx:TrackPointExtension><gpxtpx:atemp>2.7</gpxtpx:atemp></gpxtpx:TrackPointExtension></extensions></trkpt><trkpt lat="42.2095047589" lon="13.4167070501"><ele>1634.97</ele><time>2026-03-11T15:43:59Z</time><extensions><gpxtpx:TrackPointExtension><gpxtpx:atemp>2.7</gpxtpx:atemp></gpxtpx:TrackPointExtension></extensions></trkpt><trkpt lat="42.2095033340" lon="13.4167081397"><ele>1635.04</ele><time>2026-03-11T15:44:00Z</time><extensions><gpxtpx:TrackPointExtension><gpxtpx:atemp>2.7</gpxtpx:atemp></gpxtpx:TrackPointExtension></extensions></trkpt><trkpt lat="42.2095037531" lon="13.4167075530"><ele>1635.09</ele><time>2026-03-11T15:44:01Z</time><extensions><gpxtpx:TrackPointExtension><gpxtpx:atemp>2.7</gpxtpx:atemp></gpxtpx:TrackPointExtension></extensions></trkpt><trkpt lat="42.2095038369" lon="13.4167077206"><ele>1635.11</ele><time>2026-03-11T15:44:02Z</time><extensions><gpxtpx:TrackPointExtension><gpxtpx:atemp>2.7</gpxtpx:atemp></gpxtpx:TrackPointExtension></extensions></trkpt><trkpt lat="42.2095038369" lon="13.4167074692"><ele>1635.07</ele><time>2026-03-11T15:44:03Z</time><extensions><gpxtpx:TrackPointExtension><gpxtpx:atemp>2.7</gpxtpx:atemp></gpxtpx:TrackPointExtension></extensions></trkpt><trkpt lat="42.2095041722" lon="13.4167068824"><ele>1634.93</ele><time>2026-03-11T15:44:04Z</time><extensions><gpxtpx:TrackPointExtension><gpxtpx:atemp>2.7</gpxtpx:atemp></gpxtpx:TrackPointExtension></extensions></trkpt><trkpt lat="42.2095043398" lon="13.4167069662"><ele>1634.83</ele><time>2026-03-11T15:44:05Z</time><extensions><gpxtpx:TrackPointExtension><gpxtpx:atemp>2.7</gpxtpx:atemp></gpxtpx:TrackPointExtension></extensions></trkpt><trkpt lat="42.2095044237" lon="13.4167068824"><ele>1634.73</ele><time>2026-03-11T15:44:06Z</time><extensions><gpxtpx:TrackPointExtension><gpxtpx:atemp>2.7</gpxtpx:atemp></gpxtpx:TrackPointExtension></extensions></trkpt><trkpt lat="42.2095040884" lon="13.4167070501"><ele>1634.69</ele><time>2026-03-11T15:44:07Z</time><extensions><gpxtpx:TrackPointExtension><gpxtpx:atemp>2.7</gpxtpx:atemp></gpxtpx:TrackPointExtension></extensions></trkpt><trkpt lat="42.2095040884" lon="13.4167072177"><ele>1634.67</ele><time>2026-03-11T15:44:08Z</time><extensions><gpxtpx:TrackPointExtension><gpxtpx:atemp>2.7</gpxtpx:atemp></gpxtpx:TrackPointExtension></extensions></trkpt><trkpt lat="42.2095041722" lon="13.4167070501"><ele>1634.69</ele><time>2026-03-11T15:44:09Z</time><extensions><gpxtpx:TrackPointExtension><gpxtpx:atemp>2.7</gpxtpx:atemp></gpxtpx:TrackPointExtension></extensions></trkpt><trkpt lat="42.2095037531" lon="13.4167075530"><ele>1634.71</ele><time>2026-03-11T15:44:10Z</time><extensions><gpxtpx:TrackPointExtension><gpxtpx:atemp>2.7</gpxtpx:atemp></gpxtpx:TrackPointExtension></extensions></trkpt><trkpt lat="42.2095040884" lon="13.4167071339"><ele>1634.78</ele><time>2026-03-11T15:44:11Z</time><extensions><gpxtpx:TrackPointExtension><gpxtpx:atemp>2.7</gpxtpx:atemp></gpxtpx:TrackPointExtension></extensions></trkpt><trkpt lat="42.2095037531" lon="13.4167072177"><ele>1634.83</ele><time>2026-03-11T15:44:12Z</time><extensions><gpxtpx:TrackPointExtension><gpxtpx:atemp>2.7</gpxtpx:atemp></gpxtpx:TrackPointExtension></extensions></trkpt><trkpt lat="42.2095042560" lon="13.4167072177"><ele>1634.89</ele><time>2026-03-11T15:44:13Z</time><extensions><gpxtpx:TrackPointExtension><gpxtpx:atemp>2.7</gpxtpx:atemp></gpxtpx:TrackPointExtension></extensions></trkpt><trkpt lat="42.2095043398" lon="13.4167069662"><ele>1634.95</ele><time>2026-03-11T15:44:14Z</time><extensions><gpxtpx:TrackPointExtension><gpxtpx:atemp>2.7</gpxtpx:atemp></gpxtpx:TrackPointExtension></extensions></trkpt><trkpt lat="42.2095039207" lon="13.4167079721"><ele>1635.15</ele><time>2026-03-11T15:44:15Z</time><extensions><gpxtpx:TrackPointExtension><gpxtpx:atemp>2.7</gpxtpx:atemp></gpxtpx:TrackPointExtension></extensions></trkpt><trkpt lat="42.2095051780" lon="13.4167036973"><ele>1635.25</ele><time>2026-03-11T15:44:16Z</time><extensions><gpxtpx:TrackPointExtension><gpxtpx:atemp>2.7</gpxtpx:atemp></gpxtpx:TrackPointExtension></extensions></trkpt><trkpt lat="42.2095085308" lon="13.4167042840"><ele>1635.34</ele><time>2026-03-11T15:44:17Z</time><extensions><gpxtpx:TrackPointExtension><gpxtpx:atemp>2.7</gpxtpx:atemp></gpxtpx:TrackPointExtension></extensions></trkpt><trkpt lat="42.2095137276" lon="13.4167022724"><ele>1635.38</ele><time>2026-03-11T15:44:18Z</time><extensions><gpxtpx:TrackPointExtension><gpxtpx:atemp>2.7</gpxtpx:atemp></gpxtpx:TrackPointExtension></extensions></trkpt><trkpt lat="42.2095183376" lon="13.4167039488"><ele>1635.39</ele><time>2026-03-11T15:44:19Z</time><extensions><gpxtpx:TrackPointExtension><gpxtpx:atemp>2.7</gpxtpx:atemp></gpxtpx:TrackPointExtension></extensions></trkpt><trkpt lat="42.2095252946" lon="13.4167009313"><ele>1635.38</ele><time>2026-03-11T15:44:20Z</time><extensions><gpxtpx:TrackPointExtension><gpxtpx:atemp>2.7</gpxtpx:atemp></gpxtpx:TrackPointExtension></extensions></trkpt><trkpt lat="42.2095327545" lon="13.4167010989"><ele>1635.29</ele><time>2026-03-11T15:44:21Z</time><extensions><gpxtpx:TrackPointExtension><gpxtpx:atemp>2.7</gpxtpx:atemp></gpxtpx:TrackPointExtension></extensions></trkpt><trkpt lat="42.2095412202" lon="13.4167002607"><ele>1635.21</ele><time>2026-03-11T15:44:22Z</time><extensions><gpxtpx:TrackPointExtension><gpxtpx:atemp>2.7</gpxtpx:atemp></gpxtpx:TrackPointExtension></extensions></trkpt><trkpt lat="42.2095498536" lon="13.4166995902"><ele>1635.11</ele><time>2026-03-11T15:44:23Z</time><extensions><gpxtpx:TrackPointExtension><gpxtpx:atemp>2.7</gpxtpx:atemp></gpxtpx:TrackPointExtension></extensions></trkpt><trkpt lat="42.2095600795" lon="13.4166992549"><ele>1635.00</ele><time>2026-03-11T15:44:24Z</time><extensions><gpxtpx:TrackPointExtension><gpxtpx:atemp>2.7</gpxtpx:atemp></gpxtpx:TrackPointExtension></extensions></trkpt><trkpt lat="42.2095708922" lon="13.4166988358"><ele>1634.96</ele><time>2026-03-11T15:44:25Z</time><extensions><gpxtpx:TrackPointExtension><gpxtpx:atemp>2.7</gpxtpx:atemp></gpxtpx:TrackPointExtension></extensions></trkpt><trkpt lat="42.2095770948" lon="13.4167020209"><ele>1634.85</ele><time>2026-03-11T15:44:26Z</time><extensions><gpxtpx:TrackPointExtension><gpxtpx:atemp>2.7</gpxtpx:atemp></gpxtpx:TrackPointExtension></extensions></trkpt><trkpt lat="42.2095861472" lon="13.4167010989"><ele>1634.82</ele><time>2026-03-11T15:44:27Z</time><extensions><gpxtpx:TrackPointExtension><gpxtpx:atemp>2.7</gpxtpx:atemp></gpxtpx:TrackPointExtension></extensions></trkpt><trkpt lat="42.2095968761" lon="13.4167010989"><ele>1634.77</ele><time>2026-03-11T15:44:28Z</time><extensions><gpxtpx:TrackPointExtension><gpxtpx:atemp>2.7</gpxtpx:atemp></gpxtpx:TrackPointExtension></extensions></trkpt><trkpt lat="42.2096065991" lon="13.4166990872"><ele>1634.74</ele><time>2026-03-11T15:44:29Z</time><extensions><gpxtpx:TrackPointExtension><gpxtpx:atemp>2.7</gpxtpx:atemp></gpxtpx:TrackPointExtension></extensions></trkpt><trkpt lat="42.2096157353" lon="13.4166962374"><ele>1634.73</ele><time>2026-03-11T15:44:30Z</time><extensions><gpxtpx:TrackPointExtension><gpxtpx:atemp>2.7</gpxtpx:atemp></gpxtpx:TrackPointExtension></extensions></trkpt><trkpt lat="42.2096241172" lon="13.4166972432"><ele>1634.72</ele><time>2026-03-11T15:44:31Z</time><extensions><gpxtpx:TrackPointExtension><gpxtpx:atemp>2.7</gpxtpx:atemp></gpxtpx:TrackPointExtension></extensions></trkpt><trkpt lat="42.2096322477" lon="13.4166979976"><ele>1634.71</ele><time>2026-03-11T15:44:32Z</time><extensions><gpxtpx:TrackPointExtension><gpxtpx:atemp>2.7</gpxtpx:atemp></gpxtpx:TrackPointExtension></extensions></trkpt><trkpt lat="42.2096384503" lon="13.4166952316"><ele>1634.71</ele><time>2026-03-11T15:44:33Z</time><extensions><gpxtpx:TrackPointExtension><gpxtpx:atemp>2.7</gpxtpx:atemp></gpxtpx:TrackPointExtension></extensions></trkpt><trkpt lat="42.2096474189" lon="13.4166941419"><ele>1634.71</ele><time>2026-03-11T15:44:34Z</time><extensions><gpxtpx:TrackPointExtension><gpxtpx:atemp>2.7</gpxtpx:atemp></gpxtpx:TrackPointExtension></extensions></trkpt><trkpt lat="42.2096531186" lon="13.4166980814"><ele>1634.72</ele><time>2026-03-11T15:44:35Z</time><extensions><gpxtpx:TrackPointExtension><gpxtpx:atemp>2.7</gpxtpx:atemp></gpxtpx:TrackPointExtension></extensions></trkpt><trkpt lat="42.2096616682" lon="13.4167004284"><ele>1634.72</ele><time>2026-03-11T15:44:36Z</time><extensions><gpxtpx:TrackPointExtension><gpxtpx:atemp>2.6</gpxtpx:atemp></gpxtpx:TrackPointExtension></extensions></trkpt><trkpt lat="42.2096694633" lon="13.4167042840"><ele>1634.71</ele><time>2026-03-11T15:44:37Z</time><extensions><gpxtpx:TrackPointExtension><gpxtpx:atemp>2.6</gpxtpx:atemp></gpxtpx:TrackPointExtension></extensions></trkpt><trkpt lat="42.2096775938" lon="13.4167028591"><ele>1634.69</ele><time>2026-03-11T15:44:38Z</time><extensions><gpxtpx:TrackPointExtension><gpxtpx:atemp>2.6</gpxtpx:atemp></gpxtpx:TrackPointExtension></extensions></trkpt><trkpt lat="42.2096827906" lon="13.4167015180"><ele>1634.69</ele><time>2026-03-11T15:44:39Z</time><extensions><gpxtpx:TrackPointExtension><gpxtpx:atemp>2.6</gpxtpx:atemp></gpxtpx:TrackPointExtension></extensions></trkpt><trkpt lat="42.2096825391" lon="13.4167019371"><ele>1634.67</ele><time>2026-03-11T15:44:40Z</time><extensions><gpxtpx:TrackPointExtension><gpxtpx:atemp>2.6</gpxtpx:atemp></gpxtpx:TrackPointExtension></extensions></trkpt><trkpt lat="42.2096882388" lon="13.4166987520"><ele>1634.66</ele><time>2026-03-11T15:44:41Z</time><extensions><gpxtpx:TrackPointExtension><gpxtpx:atemp>2.6</gpxtpx:atemp></gpxtpx:TrackPointExtension></extensions></trkpt><trkpt lat="42.2096970398" lon="13.4166997578"><ele>1634.62</ele><time>2026-03-11T15:44:42Z</time><extensions><gpxtpx:TrackPointExtension><gpxtpx:atemp>2.6</gpxtpx:atemp></gpxtpx:TrackPointExtension></extensions></trkpt><trkpt lat="42.2097060923" lon="13.4167017695"><ele>1634.59</ele><time>2026-03-11T15:44:43Z</time><extensions><gpxtpx:TrackPointExtension><gpxtpx:atemp>2.6</gpxtpx:atemp></gpxtpx:TrackPointExtension></extensions></trkpt><trkpt lat="42.2097112890" lon="13.4167004284"><ele>1634.59</ele><time>2026-03-11T15:44:44Z</time><extensions><gpxtpx:TrackPointExtension><gpxtpx:atemp>2.6</gpxtpx:atemp></gpxtpx:TrackPointExtension></extensions></trkpt><trkpt lat="42.2097155638" lon="13.4167004284"><ele>1634.57</ele><time>2026-03-11T15:44:45Z</time><extensions><gpxtpx:TrackPointExtension><gpxtpx:atemp>2.6</gpxtpx:atemp></gpxtpx:TrackPointExtension></extensions></trkpt><trkpt lat="42.2097215988" lon="13.4166978300"><ele>1634.57</ele><time>2026-03-11T15:44:46Z</time><extensions><gpxtpx:TrackPointExtension><gpxtpx:atemp>2.6</gpxtpx:atemp></gpxtpx:TrackPointExtension></extensions></trkpt><trkpt lat="42.2097294778" lon="13.4166985843"><ele>1634.58</ele><time>2026-03-11T15:44:47Z</time><extensions><gpxtpx:TrackPointExtension><gpxtpx:atemp>2.6</gpxtpx:atemp></gpxtpx:TrackPointExtension></extensions></trkpt><trkpt lat="42.2097384464" lon="13.4166964889"><ele>1634.59</ele><time>2026-03-11T15:44:48Z</time><extensions><gpxtpx:TrackPointExtension><gpxtpx:atemp>2.6</gpxtpx:atemp></gpxtpx:TrackPointExtension></extensions></trkpt><trkpt lat="42.2097420506" lon="13.4166930523"><ele>1634.65</ele><time>2026-03-11T15:44:49Z</time><extensions><gpxtpx:TrackPointExtension><gpxtpx:atemp>2.6</gpxtpx:atemp></gpxtpx:TrackPointExtension></extensions></trkpt><trkpt lat="42.2097513545" lon="13.4166947287"><ele>1634.65</ele><time>2026-03-11T15:44:50Z</time><extensions><gpxtpx:TrackPointExtension><gpxtpx:atemp>2.6</gpxtpx:atemp></gpxtpx:TrackPointExtension></extensions></trkpt><trkpt lat="42.2097579762" lon="13.4166969918"><ele>1634.68</ele><time>2026-03-11T15:44:51Z</time><extensions><gpxtpx:TrackPointExtension><gpxtpx:atemp>2.6</gpxtpx:atemp></gpxtpx:TrackPointExtension></extensions></trkpt><trkpt lat="42.2097697947" lon="13.4166997578"><ele>1634.69</ele><time>2026-03-11T15:44:52Z</time><extensions><gpxtpx:TrackPointExtension><gpxtpx:atemp>2.6</gpxtpx:atemp></gpxtpx:TrackPointExtension></extensions></trkpt><trkpt lat="42.2097808588" lon="13.4167025238"><ele>1634.70</ele><time>2026-03-11T15:44:53Z</time><extensions><gpxtpx:TrackPointExtension><gpxtpx:atemp>2.6</gpxtpx:atemp></gpxtpx:TrackPointExtension></extensions></trkpt><trkpt lat="42.2097902466" lon="13.4167064633"><ele>1634.69</ele><time>2026-03-11T15:44:54Z</time><extensions><gpxtpx:TrackPointExtension><gpxtpx:atemp>2.6</gpxtpx:atemp></gpxtpx:TrackPointExtension></extensions></trkpt><trkpt lat="42.2098008916" lon="13.4167071339"><ele>1634.66</ele><time>2026-03-11T15:44:55Z</time><extensions><gpxtpx:TrackPointExtension><gpxtpx:atemp>2.6</gpxtpx:atemp></gpxtpx:TrackPointExtension></extensions></trkpt><trkpt lat="42.2098101955" lon="13.4167084750"><ele>1634.59</ele><time>2026-03-11T15:44:56Z</time><extensions><gpxtpx:TrackPointExtension><gpxtpx:atemp>2.6</gpxtpx:atemp></gpxtpx:TrackPointExtension></extensions></trkpt><trkpt lat="42.2098186612" lon="13.4167170245"><ele>1634.50</ele><time>2026-03-11T15:44:57Z</time><extensions><gpxtpx:TrackPointExtension><gpxtpx:atemp>2.6</gpxtpx:atemp></gpxtpx:TrackPointExtension></extensions></trkpt><trkpt lat="42.2098310664" lon="13.4167228919"><ele>1634.42</ele><time>2026-03-11T15:44:58Z</time><extensions><gpxtpx:TrackPointExtension><gpxtpx:atemp>2.6</gpxtpx:atemp></gpxtpx:TrackPointExtension></extensions></trkpt><trkpt lat="42.2098394483" lon="13.4167281725"><ele>1634.37</ele><time>2026-03-11T15:44:59Z</time><extensions><gpxtpx:TrackPointExtension><gpxtpx:atemp>2.6</gpxtpx:atemp></gpxtpx:TrackPointExtension></extensions></trkpt><trkpt lat="42.2098456509" lon="13.4167320281"><ele>1634.34</ele><time>2026-03-11T15:45:00Z</time><extensions><gpxtpx:TrackPointExtension><gpxtpx:atemp>2.6</gpxtpx:atemp></gpxtpx:TrackPointExtension></extensions></trkpt><trkpt lat="42.2098576371" lon="13.4167394880"><ele>1634.32</ele><time>2026-03-11T15:45:01Z</time><extensions><gpxtpx:TrackPointExtension><gpxtpx:atemp>2.6</gpxtpx:atemp></gpxtpx:TrackPointExtension></extensions></trkpt><trkpt lat="42.2098672763" lon="13.4167443495"><ele>1634.30</ele><time>2026-03-11T15:45:02Z</time><extensions><gpxtpx:TrackPointExtension><gpxtpx:atemp>2.6</gpxtpx:atemp></gpxtpx:TrackPointExtension></extensions></trkpt><trkpt lat="42.2098780889" lon="13.4167527314"><ele>1634.28</ele><time>2026-03-11T15:45:03Z</time><extensions><gpxtpx:TrackPointExtension><gpxtpx:atemp>2.6</gpxtpx:atemp></gpxtpx:TrackPointExtension></extensions></trkpt><trkpt lat="42.2098922543" lon="13.4167624544"><ele>1634.26</ele><time>2026-03-11T15:45:04Z</time><extensions><gpxtpx:TrackPointExtension><gpxtpx:atemp>2.6</gpxtpx:atemp></gpxtpx:TrackPointExtension></extensions></trkpt><trkpt lat="42.2099047434" lon="13.4167740215"><ele>1634.23</ele><time>2026-03-11T15:45:05Z</time><extensions><gpxtpx:TrackPointExtension><gpxtpx:atemp>2.6</gpxtpx:atemp></gpxtpx:TrackPointExtension></extensions></trkpt><trkpt lat="42.2099145502" lon="13.4167881869"><ele>1634.23</ele><time>2026-03-11T15:45:06Z</time><extensions><gpxtpx:TrackPointExtension><gpxtpx:atemp>2.6</gpxtpx:atemp></gpxtpx:TrackPointExtension></extensions></trkpt><trkpt lat="42.2099235188" lon="13.4168046992"><ele>1634.20</ele><time>2026-03-11T15:45:07Z</time><extensions><gpxtpx:TrackPointExtension><gpxtpx:atemp>2.6</gpxtpx:atemp></gpxtpx:TrackPointExtension></extensions></trkpt><trkpt lat="42.2099293862" lon="13.4168212954"><ele>1634.15</ele><time>2026-03-11T15:45:08Z</time><extensions><gpxtpx:TrackPointExtension><gpxtpx:atemp>2.6</gpxtpx:atemp></gpxtpx:TrackPointExtension></extensions></trkpt><trkpt lat="42.2099331580" lon="13.4168313537"><ele>1634.12</ele><time>2026-03-11T15:45:09Z</time><extensions><gpxtpx:TrackPointExtension><gpxtpx:atemp>2.6</gpxtpx:atemp></gpxtpx:TrackPointExtension></extensions></trkpt><trkpt lat="42.2099393606" lon="13.4168483689"><ele>1634.09</ele><time>2026-03-11T15:45:10Z</time><extensions><gpxtpx:TrackPointExtension><gpxtpx:atemp>2.6</gpxtpx:atemp></gpxtpx:TrackPointExtension></extensions></trkpt><trkpt lat="42.2099440545" lon="13.4168697428"><ele>1634.07</ele><time>2026-03-11T15:45:11Z</time><extensions><gpxtpx:TrackPointExtension><gpxtpx:atemp>2.6</gpxtpx:atemp></gpxtpx:TrackPointExtension></extensions></trkpt><trkpt lat="42.2099486645" lon="13.4168927930"><ele>1634.00</ele><time>2026-03-11T15:45:12Z</time><extensions><gpxtpx:TrackPointExtension><gpxtpx:atemp>2.6</gpxtpx:atemp></gpxtpx:TrackPointExtension></extensions></trkpt><trkpt lat="42.2099472396" lon="13.4169194475"><ele>1633.92</ele><time>2026-03-11T15:45:13Z</time><extensions><gpxtpx:TrackPointExtension><gpxtpx:atemp>2.6</gpxtpx:atemp></gpxtpx:TrackPointExtension></extensions></trkpt><trkpt lat="42.2099442221" lon="13.4169437550"><ele>1633.82</ele><time>2026-03-11T15:45:14Z</time><extensions><gpxtpx:TrackPointExtension><gpxtpx:atemp>2.6</gpxtpx:atemp></gpxtpx:TrackPointExtension></extensions></trkpt><trkpt lat="42.2099440545" lon="13.4169620275"><ele>1633.72</ele><time>2026-03-11T15:45:15Z</time><extensions><gpxtpx:TrackPointExtension><gpxtpx:atemp>2.6</gpxtpx:atemp></gpxtpx:TrackPointExtension></extensions></trkpt><trkpt lat="42.2099417914" lon="13.4169801325"><ele>1633.60</ele><time>2026-03-11T15:45:16Z</time><extensions><gpxtpx:TrackPointExtension><gpxtpx:atemp>2.6</gpxtpx:atemp></gpxtpx:TrackPointExtension></extensions></trkpt><trkpt lat="42.2099409532" lon="13.4169989917"><ele>1633.52</ele><time>2026-03-11T15:45:17Z</time><extensions><gpxtpx:TrackPointExtension><gpxtpx:atemp>2.6</gpxtpx:atemp></gpxtpx:TrackPointExtension></extensions></trkpt><trkpt lat="42.2099390253" lon="13.4170163423"><ele>1633.46</ele><time>2026-03-11T15:45:18Z</time><extensions><gpxtpx:TrackPointExtension><gpxtpx:atemp>2.6</gpxtpx:atemp></gpxtpx:TrackPointExtension></extensions></trkpt><trkpt lat="42.2099390253" lon="13.4170287475"><ele>1633.40</ele><time>2026-03-11T15:45:19Z</time><extensions><gpxtpx:TrackPointExtension><gpxtpx:atemp>2.6</gpxtpx:atemp></gpxtpx:TrackPointExtension></extensions></trkpt><trkpt lat="42.2099384386" lon="13.4170433320"><ele>1633.34</ele><time>2026-03-11T15:45:20Z</time><extensions><gpxtpx:TrackPointExtension><gpxtpx:atemp>2.6</gpxtpx:atemp></gpxtpx:TrackPointExtension></extensions></trkpt><trkpt lat="42.2099408694" lon="13.4170524683"><ele>1633.30</ele><time>2026-03-11T15:45:21Z</time><extensions><gpxtpx:TrackPointExtension><gpxtpx:atemp>2.6</gpxtpx:atemp></gpxtpx:TrackPointExtension></extensions></trkpt><trkpt lat="42.2099383548" lon="13.4170655441"><ele>1633.26</ele><time>2026-03-11T15:45:22Z</time><extensions><gpxtpx:TrackPointExtension><gpxtpx:atemp>2.6</gpxtpx:atemp></gpxtpx:TrackPointExtension></extensions></trkpt><trkpt lat="42.2099382710" lon="13.4170773625"><ele>1633.23</ele><time>2026-03-11T15:45:23Z</time><extensions><gpxtpx:TrackPointExtension><gpxtpx:atemp>2.6</gpxtpx:atemp></gpxtpx:TrackPointExtension></extensions></trkpt><trkpt lat="42.2099387739" lon="13.4170871694"><ele>1633.11</ele><time>2026-03-11T15:45:24Z</time><extensions><gpxtpx:TrackPointExtension><gpxtpx:atemp>2.6</gpxtpx:atemp></gpxtpx:TrackPointExtension></extensions></trkpt><trkpt lat="42.2099395283" lon="13.4170976467"><ele>1633.03</ele><time>2026-03-11T15:45:25Z</time><extensions><gpxtpx:TrackPointExtension><gpxtpx:atemp>2.6</gpxtpx:atemp></gpxtpx:TrackPointExtension></extensions></trkpt><trkpt lat="42.2099404503" lon="13.4171089623"><ele>1632.94</ele><time>2026-03-11T15:45:26Z</time><extensions><gpxtpx:TrackPointExtension><gpxtpx:atemp>2.6</gpxtpx:atemp></gpxtpx:TrackPointExtension></extensions></trkpt><trkpt lat="42.2099400312" lon="13.4171247203"><ele>1632.88</ele><time>2026-03-11T15:45:27Z</time><extensions><gpxtpx:TrackPointExtension><gpxtpx:atemp>2.6</gpxtpx:atemp></gpxtpx:TrackPointExtension></extensions></trkpt><trkpt lat="42.2099390253" lon="13.4171341918"><ele>1632.86</ele><time>2026-03-11T15:45:28Z</time><extensions><gpxtpx:TrackPointExtension><gpxtpx:atemp>2.6</gpxtpx:atemp></gpxtpx:TrackPointExtension></extensions></trkpt><trkpt lat="42.2099387739" lon="13.4171435796"><ele>1632.86</ele><time>2026-03-11T15:45:29Z</time><extensions><gpxtpx:TrackPointExtension><gpxtpx:atemp>2.6</gpxtpx:atemp></gpxtpx:TrackPointExtension></extensions></trkpt><trkpt lat="42.2099392768" lon="13.4171505366"><ele>1632.86</ele><time>2026-03-11T15:45:30Z</time><extensions><gpxtpx:TrackPointExtension><gpxtpx:atemp>2.6</gpxtpx:atemp></gpxtpx:TrackPointExtension></extensions></trkpt><trkpt lat="42.2099386901" lon="13.4171571583"><ele>1632.86</ele><time>2026-03-11T15:45:31Z</time><extensions><gpxtpx:TrackPointExtension><gpxtpx:atemp>2.6</gpxtpx:atemp></gpxtpx:TrackPointExtension></extensions></trkpt><trkpt lat="42.2099376842" lon="13.4171648696"><ele>1632.85</ele><time>2026-03-11T15:45:32Z</time><extensions><gpxtpx:TrackPointExtension><gpxtpx:atemp>2.7</gpxtpx:atemp></gpxtpx:TrackPointExtension></extensions></trkpt><trkpt lat="42.2099414561" lon="13.4171731677"><ele>1632.84</ele><time>2026-03-11T15:45:33Z</time><extensions><gpxtpx:TrackPointExtension><gpxtpx:atemp>2.7</gpxtpx:atemp></gpxtpx:TrackPointExtension></extensions></trkpt><trkpt lat="42.2099430487" lon="13.4171821363"><ele>1632.84</ele><time>2026-03-11T15:45:34Z</time><extensions><gpxtpx:TrackPointExtension><gpxtpx:atemp>2.7</gpxtpx:atemp></gpxtpx:TrackPointExtension></extensions></trkpt><trkpt lat="42.2099437192" lon="13.4171871655"><ele>1632.79</ele><time>2026-03-11T15:45:35Z</time><extensions><gpxtpx:TrackPointExtension><gpxtpx:atemp>2.7</gpxtpx:atemp></gpxtpx:TrackPointExtension></extensions></trkpt><trkpt lat="42.2099433839" lon="13.4171859920"><ele>1632.78</ele><time>2026-03-11T15:45:36Z</time><extensions><gpxtpx:TrackPointExtension><gpxtpx:atemp>2.7</gpxtpx:atemp></gpxtpx:TrackPointExtension></extensions></trkpt><trkpt lat="42.2099434678" lon="13.4171905182"><ele>1632.77</ele><time>2026-03-11T15:45:37Z</time><extensions><gpxtpx:TrackPointExtension><gpxtpx:atemp>2.7</gpxtpx:atemp></gpxtpx:TrackPointExtension></extensions></trkpt><trkpt lat="42.2099416237" lon="13.4171966370"><ele>1632.77</ele><time>2026-03-11T15:45:38Z</time><extensions><gpxtpx:TrackPointExtension><gpxtpx:atemp>2.7</gpxtpx:atemp></gpxtpx:TrackPointExtension></extensions></trkpt><trkpt lat="42.2099390253" lon="13.4171986487"><ele>1632.77</ele><time>2026-03-11T15:45:39Z</time><extensions><gpxtpx:TrackPointExtension><gpxtpx:atemp>2.7</gpxtpx:atemp></gpxtpx:TrackPointExtension></extensions></trkpt><trkpt lat="42.2099361755" lon="13.4171994869"><ele>1632.80</ele><time>2026-03-11T15:45:40Z</time><extensions><gpxtpx:TrackPointExtension><gpxtpx:atemp>2.7</gpxtpx:atemp></gpxtpx:TrackPointExtension></extensions></trkpt><trkpt lat="42.2099320684" lon="13.4172039293"><ele>1632.82</ele><time>2026-03-11T15:45:41Z</time><extensions><gpxtpx:TrackPointExtension><gpxtpx:atemp>2.7</gpxtpx:atemp></gpxtpx:TrackPointExtension></extensions></trkpt><trkpt lat="42.2099294700" lon="13.4172052704"><ele>1632.82</ele><time>2026-03-11T15:45:42Z</time><extensions><gpxtpx:TrackPointExtension><gpxtpx:atemp>2.7</gpxtpx:atemp></gpxtpx:TrackPointExtension></extensions></trkpt><trkpt lat="42.2099217586" lon="13.4172051866"><ele>1632.85</ele><time>2026-03-11T15:45:43Z</time><extensions><gpxtpx:TrackPointExtension><gpxtpx:atemp>2.7</gpxtpx:atemp></gpxtpx:TrackPointExtension></extensions></trkpt><trkpt lat="42.2099136282" lon="13.4172055218"><ele>1632.88</ele><time>2026-03-11T15:45:44Z</time><extensions><gpxtpx:TrackPointExtension><gpxtpx:atemp>2.7</gpxtpx:atemp></gpxtpx:TrackPointExtension></extensions></trkpt><trkpt lat="42.2099066712" lon="13.4172003251"><ele>1632.88</ele><time>2026-03-11T15:45:45Z</time><extensions><gpxtpx:TrackPointExtension><gpxtpx:atemp>2.7</gpxtpx:atemp></gpxtpx:TrackPointExtension></extensions></trkpt><trkpt lat="42.2098992951" lon="13.4171959665"><ele>1632.87</ele><time>2026-03-11T15:45:46Z</time><extensions><gpxtpx:TrackPointExtension><gpxtpx:atemp>2.7</gpxtpx:atemp></gpxtpx:TrackPointExtension></extensions></trkpt><trkpt lat="42.2098929249" lon="13.4171948768"><ele>1632.87</ele><time>2026-03-11T15:45:47Z</time><extensions><gpxtpx:TrackPointExtension><gpxtpx:atemp>2.7</gpxtpx:atemp></gpxtpx:TrackPointExtension></extensions></trkpt><trkpt lat="42.2098891530" lon="13.4171922784"><ele>1632.88</ele><time>2026-03-11T15:45:48Z</time><extensions><gpxtpx:TrackPointExtension><gpxtpx:atemp>2.7</gpxtpx:atemp></gpxtpx:TrackPointExtension></extensions></trkpt><trkpt lat="42.2098871414" lon="13.4171903506"><ele>1632.90</ele><time>2026-03-11T15:45:49Z</time><extensions><gpxtpx:TrackPointExtension><gpxtpx:atemp>2.7</gpxtpx:atemp></gpxtpx:TrackPointExtension></extensions></trkpt><trkpt lat="42.2098844592" lon="13.4171903506"><ele>1632.90</ele><time>2026-03-11T15:45:50Z</time><extensions><gpxtpx:TrackPointExtension><gpxtpx:atemp>2.7</gpxtpx:atemp></gpxtpx:TrackPointExtension></extensions></trkpt><trkpt lat="42.2098826990" lon="13.4171877522"><ele>1632.93</ele><time>2026-03-11T15:45:51Z</time><extensions><gpxtpx:TrackPointExtension><gpxtpx:atemp>2.7</gpxtpx:atemp></gpxtpx:TrackPointExtension></extensions></trkpt><trkpt lat="42.2098818608" lon="13.4171896800"><ele>1633.00</ele><time>2026-03-11T15:45:52Z</time><extensions><gpxtpx:TrackPointExtension><gpxtpx:atemp>2.7</gpxtpx:atemp></gpxtpx:TrackPointExtension></extensions></trkpt><trkpt lat="42.2098811902" lon="13.4171890933"><ele>1633.06</ele><time>2026-03-11T15:45:53Z</time><extensions><gpxtpx:TrackPointExtension><gpxtpx:atemp>2.7</gpxtpx:atemp></gpxtpx:TrackPointExtension></extensions></trkpt><trkpt lat="42.2098805197" lon="13.4171877522"><ele>1633.09</ele><time>2026-03-11T15:45:54Z</time><extensions><gpxtpx:TrackPointExtension><gpxtpx:atemp>2.7</gpxtpx:atemp></gpxtpx:TrackPointExtension></extensions></trkpt><trkpt lat="42.2098797653" lon="13.4171879198"><ele>1633.11</ele><time>2026-03-11T15:45:55Z</time><extensions><gpxtpx:TrackPointExtension><gpxtpx:atemp>2.7</gpxtpx:atemp></gpxtpx:TrackPointExtension></extensions></trkpt><trkpt lat="42.2098794300" lon="13.4171879198"><ele>1633.12</ele><time>2026-03-11T15:45:56Z</time><extensions><gpxtpx:TrackPointExtension><gpxtpx:atemp>2.7</gpxtpx:atemp></gpxtpx:TrackPointExtension></extensions></trkpt><trkpt lat="42.2098790947" lon="13.4171904344"><ele>1633.12</ele><time>2026-03-11T15:45:57Z</time><extensions><gpxtpx:TrackPointExtension><gpxtpx:atemp>2.7</gpxtpx:atemp></gpxtpx:TrackPointExtension></extensions></trkpt><trkpt lat="42.2098789271" lon="13.4171883389"><ele>1633.13</ele><time>2026-03-11T15:45:58Z</time><extensions><gpxtpx:TrackPointExtension><gpxtpx:atemp>2.7</gpxtpx:atemp></gpxtpx:TrackPointExtension></extensions></trkpt><trkpt lat="42.2098780889" lon="13.4171865787"><ele>1633.13</ele><time>2026-03-11T15:45:59Z</time><extensions><gpxtpx:TrackPointExtension><gpxtpx:atemp>2.7</gpxtpx:atemp></gpxtpx:TrackPointExtension></extensions></trkpt><trkpt lat="42.2098773345" lon="13.4171870816"><ele>1633.13</ele><time>2026-03-11T15:46:00Z</time><extensions><gpxtpx:TrackPointExtension><gpxtpx:atemp>2.7</gpxtpx:atemp></gpxtpx:TrackPointExtension></extensions></trkpt><trkpt lat="42.2098775860" lon="13.4171884228"><ele>1633.13</ele><time>2026-03-11T15:46:01Z</time><extensions><gpxtpx:TrackPointExtension><gpxtpx:atemp>2.7</gpxtpx:atemp></gpxtpx:TrackPointExtension></extensions></trkpt><trkpt lat="42.2098770831" lon="13.4171891771"><ele>1633.14</ele><time>2026-03-11T15:46:02Z</time><extensions><gpxtpx:TrackPointExtension><gpxtpx:atemp>2.7</gpxtpx:atemp></gpxtpx:TrackPointExtension></extensions></trkpt><trkpt lat="42.2098770831" lon="13.4171889257"><ele>1633.16</ele><time>2026-03-11T15:46:03Z</time><extensions><gpxtpx:TrackPointExtension><gpxtpx:atemp>2.7</gpxtpx:atemp></gpxtpx:TrackPointExtension></extensions></trkpt><trkpt lat="42.2098772507" lon="13.4171881713"><ele>1633.17</ele><time>2026-03-11T15:46:04Z</time><extensions><gpxtpx:TrackPointExtension><gpxtpx:atemp>2.7</gpxtpx:atemp></gpxtpx:TrackPointExtension></extensions></trkpt><trkpt lat="42.2098770831" lon="13.4171875846"><ele>1633.18</ele><time>2026-03-11T15:46:05Z</time><extensions><gpxtpx:TrackPointExtension><gpxtpx:atemp>2.7</gpxtpx:atemp></gpxtpx:TrackPointExtension></extensions></trkpt><trkpt lat="42.2098770831" lon="13.4171870816"><ele>1633.18</ele><time>2026-03-11T15:46:06Z</time><extensions><gpxtpx:TrackPointExtension><gpxtpx:atemp>2.7</gpxtpx:atemp></gpxtpx:TrackPointExtension></extensions></trkpt><trkpt lat="42.2098770831" lon="13.4171866626"><ele>1633.20</ele><time>2026-03-11T15:46:07Z</time><extensions><gpxtpx:TrackPointExtension><gpxtpx:atemp>2.7</gpxtpx:atemp></gpxtpx:TrackPointExtension></extensions></trkpt><trkpt lat="42.2098785918" lon="13.4171851538"><ele>1633.25</ele><time>2026-03-11T15:46:08Z</time><extensions><gpxtpx:TrackPointExtension><gpxtpx:atemp>2.7</gpxtpx:atemp></gpxtpx:TrackPointExtension></extensions></trkpt><trkpt lat="42.2098782565" lon="13.4171829745"><ele>1633.38</ele><time>2026-03-11T15:46:09Z</time><extensions><gpxtpx:TrackPointExtension><gpxtpx:atemp>2.7</gpxtpx:atemp></gpxtpx:TrackPointExtension></extensions></trkpt><trkpt lat="42.2098790947" lon="13.4171828907"><ele>1633.56</ele><time>2026-03-11T15:46:10Z</time><extensions><gpxtpx:TrackPointExtension><gpxtpx:atemp>2.7</gpxtpx:atemp></gpxtpx:TrackPointExtension></extensions></trkpt><trkpt lat="42.2098770831" lon="13.4171851538"><ele>1633.59</ele><time>2026-03-11T15:46:11Z</time><extensions><gpxtpx:TrackPointExtension><gpxtpx:atemp>2.7</gpxtpx:atemp></gpxtpx:TrackPointExtension></extensions></trkpt><trkpt lat="42.2098769993" lon="13.4171839803"><ele>1633.61</ele><time>2026-03-11T15:46:12Z</time><extensions><gpxtpx:TrackPointExtension><gpxtpx:atemp>2.7</gpxtpx:atemp></gpxtpx:TrackPointExtension></extensions></trkpt><trkpt lat="42.2098779213" lon="13.4171817172"><ele>1633.58</ele><time>2026-03-11T15:46:13Z</time><extensions><gpxtpx:TrackPointExtension><gpxtpx:atemp>2.7</gpxtpx:atemp></gpxtpx:TrackPointExtension></extensions></trkpt><trkpt lat="42.2098770831" lon="13.4171817172"><ele>1633.51</ele><time>2026-03-11T15:46:14Z</time><extensions><gpxtpx:TrackPointExtension><gpxtpx:atemp>2.7</gpxtpx:atemp></gpxtpx:TrackPointExtension></extensions></trkpt><trkpt lat="42.2098759934" lon="13.4171795379"><ele>1633.42</ele><time>2026-03-11T15:46:15Z</time><extensions><gpxtpx:TrackPointExtension><gpxtpx:atemp>2.7</gpxtpx:atemp></gpxtpx:TrackPointExtension></extensions></trkpt><trkpt lat="42.2098759934" lon="13.4171781968"><ele>1633.33</ele><time>2026-03-11T15:46:16Z</time><extensions><gpxtpx:TrackPointExtension><gpxtpx:atemp>2.7</gpxtpx:atemp></gpxtpx:TrackPointExtension></extensions></trkpt><trkpt lat="42.2098747361" lon="13.4171770234"><ele>1633.29</ele><time>2026-03-11T15:46:17Z</time><extensions><gpxtpx:TrackPointExtension><gpxtpx:atemp>2.7</gpxtpx:atemp></gpxtpx:TrackPointExtension></extensions></trkpt><trkpt lat="42.2098755743" lon="13.4171766881"><ele>1633.25</ele><time>2026-03-11T15:46:18Z</time><extensions><gpxtpx:TrackPointExtension><gpxtpx:atemp>2.7</gpxtpx:atemp></gpxtpx:TrackPointExtension></extensions></trkpt><trkpt lat="42.2098749876" lon="13.4171761852"><ele>1633.19</ele><time>2026-03-11T15:46:19Z</time><extensions><gpxtpx:TrackPointExtension><gpxtpx:atemp>2.7</gpxtpx:atemp></gpxtpx:TrackPointExtension></extensions></trkpt><trkpt lat="42.2098749876" lon="13.4171762690"><ele>1633.15</ele><time>2026-03-11T15:46:20Z</time><extensions><gpxtpx:TrackPointExtension><gpxtpx:atemp>2.7</gpxtpx:atemp></gpxtpx:TrackPointExtension></extensions></trkpt><trkpt lat="42.2098743170" lon="13.4171759337"><ele>1633.12</ele><time>2026-03-11T15:46:21Z</time><extensions><gpxtpx:TrackPointExtension><gpxtpx:atemp>2.7</gpxtpx:atemp></gpxtpx:TrackPointExtension></extensions></trkpt><trkpt lat="42.2098753229" lon="13.4171765205"><ele>1633.09</ele><time>2026-03-11T15:46:22Z</time><extensions><gpxtpx:TrackPointExtension><gpxtpx:atemp>2.7</gpxtpx:atemp></gpxtpx:TrackPointExtension></extensions></trkpt><trkpt lat="42.2098761611" lon="13.4171767719"><ele>1633.08</ele><time>2026-03-11T15:46:23Z</time><extensions><gpxtpx:TrackPointExtension><gpxtpx:atemp>2.7</gpxtpx:atemp></gpxtpx:TrackPointExtension></extensions></trkpt><trkpt lat="42.2098759934" lon="13.4171766881"><ele>1633.05</ele><time>2026-03-11T15:46:24Z</time><extensions><gpxtpx:TrackPointExtension><gpxtpx:atemp>2.7</gpxtpx:atemp></gpxtpx:TrackPointExtension></extensions></trkpt><trkpt lat="42.2098780889" lon="13.4171774425"><ele>1633.05</ele><time>2026-03-11T15:46:25Z</time><extensions><gpxtpx:TrackPointExtension><gpxtpx:atemp>2.7</gpxtpx:atemp></gpxtpx:TrackPointExtension></extensions></trkpt><trkpt lat="42.2098787595" lon="13.4171774425"><ele>1633.05</ele><time>2026-03-11T15:46:26Z</time><extensions><gpxtpx:TrackPointExtension><gpxtpx:atemp>2.7</gpxtpx:atemp></gpxtpx:TrackPointExtension></extensions></trkpt><trkpt lat="42.2098794300" lon="13.4171771910"><ele>1633.05</ele><time>2026-03-11T15:46:27Z</time><extensions><gpxtpx:TrackPointExtension><gpxtpx:atemp>2.7</gpxtpx:atemp></gpxtpx:TrackPointExtension></extensions></trkpt><trkpt lat="42.2098802682" lon="13.4171766881"><ele>1633.02</ele><time>2026-03-11T15:46:28Z</time><extensions><gpxtpx:TrackPointExtension><gpxtpx:atemp>2.7</gpxtpx:atemp></gpxtpx:TrackPointExtension></extensions></trkpt><trkpt lat="42.2098795976" lon="13.4171758499"><ele>1633.03</ele><time>2026-03-11T15:46:29Z</time><extensions><gpxtpx:TrackPointExtension><gpxtpx:atemp>2.7</gpxtpx:atemp></gpxtpx:TrackPointExtension></extensions></trkpt><trkpt lat="42.2098787595" lon="13.4171760175"><ele>1633.01</ele><time>2026-03-11T15:46:30Z</time><extensions><gpxtpx:TrackPointExtension><gpxtpx:atemp>2.7</gpxtpx:atemp></gpxtpx:TrackPointExtension></extensions></trkpt><trkpt lat="42.2098783404" lon="13.4171778616"><ele>1633.01</ele><time>2026-03-11T15:46:31Z</time><extensions><gpxtpx:TrackPointExtension><gpxtpx:atemp>2.7</gpxtpx:atemp></gpxtpx:TrackPointExtension></extensions></trkpt><trkpt lat="42.2098782565" lon="13.4171786997"><ele>1632.98</ele><time>2026-03-11T15:46:32Z</time><extensions><gpxtpx:TrackPointExtension><gpxtpx:atemp>2.7</gpxtpx:atemp></gpxtpx:TrackPointExtension></extensions></trkpt><trkpt lat="42.2098775860" lon="13.4171785321"><ele>1632.97</ele><time>2026-03-11T15:46:33Z</time><extensions><gpxtpx:TrackPointExtension><gpxtpx:atemp>2.7</gpxtpx:atemp></gpxtpx:TrackPointExtension></extensions></trkpt><trkpt lat="42.2098779213" lon="13.4171778616"><ele>1632.97</ele><time>2026-03-11T15:46:34Z</time><extensions><gpxtpx:TrackPointExtension><gpxtpx:atemp>2.9</gpxtpx:atemp></gpxtpx:TrackPointExtension></extensions></trkpt><trkpt lat="42.2098789271" lon="13.4171777777"><ele>1632.93</ele><time>2026-03-11T15:46:35Z</time><extensions><gpxtpx:TrackPointExtension><gpxtpx:atemp>2.9</gpxtpx:atemp></gpxtpx:TrackPointExtension></extensions></trkpt><trkpt lat="42.2098786756" lon="13.4171775263"><ele>1632.93</ele><time>2026-03-11T15:46:36Z</time><extensions><gpxtpx:TrackPointExtension><gpxtpx:atemp>2.9</gpxtpx:atemp></gpxtpx:TrackPointExtension></extensions></trkpt><trkpt lat="42.2098790947" lon="13.4171775263"><ele>1632.89</ele><time>2026-03-11T15:46:37Z</time><extensions><gpxtpx:TrackPointExtension><gpxtpx:atemp>2.9</gpxtpx:atemp></gpxtpx:TrackPointExtension></extensions></trkpt><trkpt lat="42.2098796815" lon="13.4171773586"><ele>1632.88</ele><time>2026-03-11T15:46:38Z</time><extensions><gpxtpx:TrackPointExtension><gpxtpx:atemp>2.9</gpxtpx:atemp></gpxtpx:TrackPointExtension></extensions></trkpt><trkpt lat="42.2098809388" lon="13.4171762690"><ele>1632.87</ele><time>2026-03-11T15:46:39Z</time><extensions><gpxtpx:TrackPointExtension><gpxtpx:atemp>2.9</gpxtpx:atemp></gpxtpx:TrackPointExtension></extensions></trkpt><trkpt lat="42.2098832857" lon="13.4171735868"><ele>1632.83</ele><time>2026-03-11T15:46:40Z</time><extensions><gpxtpx:TrackPointExtension><gpxtpx:atemp>2.9</gpxtpx:atemp></gpxtpx:TrackPointExtension></extensions></trkpt><trkpt lat="42.2098846268" lon="13.4171710722"><ele>1632.81</ele><time>2026-03-11T15:46:41Z</time><extensions><gpxtpx:TrackPointExtension><gpxtpx:atemp>2.9</gpxtpx:atemp></gpxtpx:TrackPointExtension></extensions></trkpt><trkpt lat="42.2098845430" lon="13.4171702340"><ele>1632.77</ele><time>2026-03-11T15:46:42Z</time><extensions><gpxtpx:TrackPointExtension><gpxtpx:atemp>2.9</gpxtpx:atemp></gpxtpx:TrackPointExtension></extensions></trkpt><trkpt lat="42.2098835371" lon="13.4171696473"><ele>1632.74</ele><time>2026-03-11T15:46:43Z</time><extensions><gpxtpx:TrackPointExtension><gpxtpx:atemp>2.9</gpxtpx:atemp></gpxtpx:TrackPointExtension></extensions></trkpt><trkpt lat="42.2098863870" lon="13.4171662945"><ele>1632.76</ele><time>2026-03-11T15:46:44Z</time><extensions><gpxtpx:TrackPointExtension><gpxtpx:atemp>2.9</gpxtpx:atemp></gpxtpx:TrackPointExtension></extensions></trkpt><trkpt lat="42.2098865546" lon="13.4171660431"><ele>1632.76</ele><time>2026-03-11T15:46:45Z</time><extensions><gpxtpx:TrackPointExtension><gpxtpx:atemp>2.9</gpxtpx:atemp></gpxtpx:TrackPointExtension></extensions></trkpt><trkpt lat="42.2098860517" lon="13.4171643667"><ele>1632.75</ele><time>2026-03-11T15:46:46Z</time><extensions><gpxtpx:TrackPointExtension><gpxtpx:atemp>2.9</gpxtpx:atemp></gpxtpx:TrackPointExtension></extensions></trkpt><trkpt lat="42.2098850459" lon="13.4171623550"><ele>1632.73</ele><time>2026-03-11T15:46:47Z</time><extensions><gpxtpx:TrackPointExtension><gpxtpx:atemp>2.9</gpxtpx:atemp></gpxtpx:TrackPointExtension></extensions></trkpt><trkpt lat="42.2098837886" lon="13.4171624389"><ele>1632.72</ele><time>2026-03-11T15:46:48Z</time><extensions><gpxtpx:TrackPointExtension><gpxtpx:atemp>2.9</gpxtpx:atemp></gpxtpx:TrackPointExtension></extensions></trkpt><trkpt lat="42.2098843753" lon="13.4171619359"><ele>1632.66</ele><time>2026-03-11T15:46:49Z</time><extensions><gpxtpx:TrackPointExtension><gpxtpx:atemp>2.9</gpxtpx:atemp></gpxtpx:TrackPointExtension></extensions></trkpt><trkpt lat="42.2098855488" lon="13.4171639476"><ele>1632.63</ele><time>2026-03-11T15:46:50Z</time><extensions><gpxtpx:TrackPointExtension><gpxtpx:atemp>2.9</gpxtpx:atemp></gpxtpx:TrackPointExtension></extensions></trkpt><trkpt lat="42.2098851297" lon="13.4171656240"><ele>1632.62</ele><time>2026-03-11T15:46:51Z</time><extensions><gpxtpx:TrackPointExtension><gpxtpx:atemp>2.9</gpxtpx:atemp></gpxtpx:TrackPointExtension></extensions></trkpt><trkpt lat="42.2098853812" lon="13.4171660431"><ele>1632.74</ele><time>2026-03-11T15:46:52Z</time><extensions><gpxtpx:TrackPointExtension><gpxtpx:atemp>2.9</gpxtpx:atemp></gpxtpx:TrackPointExtension></extensions></trkpt><trkpt lat="42.2098861355" lon="13.4171647858"><ele>1632.94</ele><time>2026-03-11T15:46:53Z</time><extensions><gpxtpx:TrackPointExtension><gpxtpx:atemp>2.9</gpxtpx:atemp></gpxtpx:TrackPointExtension></extensions></trkpt><trkpt lat="42.2098865546" lon="13.4171646181"><ele>1633.10</ele><time>2026-03-11T15:46:54Z</time><extensions><gpxtpx:TrackPointExtension><gpxtpx:atemp>2.9</gpxtpx:atemp></gpxtpx:TrackPointExtension></extensions></trkpt><trkpt lat="42.2098871414" lon="13.4171655402"><ele>1633.18</ele><time>2026-03-11T15:46:55Z</time><extensions><gpxtpx:TrackPointExtension><gpxtpx:atemp>2.9</gpxtpx:atemp></gpxtpx:TrackPointExtension></extensions></trkpt><trkpt lat="42.2098864708" lon="13.4171661269"><ele>1633.16</ele><time>2026-03-11T15:46:56Z</time><extensions><gpxtpx:TrackPointExtension><gpxtpx:atemp>2.9</gpxtpx:atemp></gpxtpx:TrackPointExtension></extensions></trkpt><trkpt lat="42.2098870575" lon="13.4171666298"><ele>1633.12</ele><time>2026-03-11T15:46:57Z</time><extensions><gpxtpx:TrackPointExtension><gpxtpx:atemp>2.9</gpxtpx:atemp></gpxtpx:TrackPointExtension></extensions></trkpt><trkpt lat="42.2098851297" lon="13.4171665460"><ele>1633.10</ele><time>2026-03-11T15:46:58Z</time><extensions><gpxtpx:TrackPointExtension><gpxtpx:atemp>2.9</gpxtpx:atemp></gpxtpx:TrackPointExtension></extensions></trkpt><trkpt lat="42.2098852973" lon="13.4171655402"><ele>1633.16</ele><time>2026-03-11T15:46:59Z</time><extensions><gpxtpx:TrackPointExtension><gpxtpx:atemp>2.9</gpxtpx:atemp></gpxtpx:TrackPointExtension></extensions></trkpt><trkpt lat="42.2098884825" lon="13.4171659593"><ele>1633.34</ele><time>2026-03-11T15:47:00Z</time><extensions><gpxtpx:TrackPointExtension><gpxtpx:atemp>2.9</gpxtpx:atemp></gpxtpx:TrackPointExtension></extensions></trkpt><trkpt lat="42.2098875605" lon="13.4171632770"><ele>1633.54</ele><time>2026-03-11T15:47:01Z</time><extensions><gpxtpx:TrackPointExtension><gpxtpx:atemp>2.9</gpxtpx:atemp></gpxtpx:TrackPointExtension></extensions></trkpt><trkpt lat="42.2098877281" lon="13.4171650372"><ele>1633.64</ele><time>2026-03-11T15:47:02Z</time><extensions><gpxtpx:TrackPointExtension><gpxtpx:atemp>2.9</gpxtpx:atemp></gpxtpx:TrackPointExtension></extensions></trkpt><trkpt lat="42.2098885663" lon="13.4171690606"><ele>1633.69</ele><time>2026-03-11T15:47:03Z</time><extensions><gpxtpx:TrackPointExtension><gpxtpx:atemp>2.9</gpxtpx:atemp></gpxtpx:TrackPointExtension></extensions></trkpt><trkpt lat="42.2098889854" lon="13.4171669651"><ele>1633.65</ele><time>2026-03-11T15:47:04Z</time><extensions><gpxtpx:TrackPointExtension><gpxtpx:atemp>2.9</gpxtpx:atemp></gpxtpx:TrackPointExtension></extensions></trkpt><trkpt lat="42.2098881472" lon="13.4171683900"><ele>1633.56</ele><time>2026-03-11T15:47:05Z</time><extensions><gpxtpx:TrackPointExtension><gpxtpx:atemp>2.9</gpxtpx:atemp></gpxtpx:TrackPointExtension></extensions></trkpt><trkpt lat="42.2098868899" lon="13.4171708208"><ele>1633.44</ele><time>2026-03-11T15:47:06Z</time><extensions><gpxtpx:TrackPointExtension><gpxtpx:atemp>2.9</gpxtpx:atemp></gpxtpx:TrackPointExtension></extensions></trkpt><trkpt lat="42.2098867223" lon="13.4171726648"><ele>1633.25</ele><time>2026-03-11T15:47:07Z</time><extensions><gpxtpx:TrackPointExtension><gpxtpx:atemp>2.9</gpxtpx:atemp></gpxtpx:TrackPointExtension></extensions></trkpt><trkpt lat="42.2098867223" lon="13.4171729162"><ele>1632.84</ele><time>2026-03-11T15:47:08Z</time><extensions><gpxtpx:TrackPointExtension><gpxtpx:atemp>2.9</gpxtpx:atemp></gpxtpx:TrackPointExtension></extensions></trkpt><trkpt lat="42.2098869737" lon="13.4171731677"><ele>1632.68</ele><time>2026-03-11T15:47:09Z</time><extensions><gpxtpx:TrackPointExtension><gpxtpx:atemp>2.9</gpxtpx:atemp></gpxtpx:TrackPointExtension></extensions></trkpt><trkpt lat="42.2098879796" lon="13.4171757661"><ele>1632.54</ele><time>2026-03-11T15:47:10Z</time><extensions><gpxtpx:TrackPointExtension><gpxtpx:atemp>2.9</gpxtpx:atemp></gpxtpx:TrackPointExtension></extensions></trkpt><trkpt lat="42.2098880634" lon="13.4171746764"><ele>1632.45</ele><time>2026-03-11T15:47:11Z</time><extensions><gpxtpx:TrackPointExtension><gpxtpx:atemp>2.9</gpxtpx:atemp></gpxtpx:TrackPointExtension></extensions></trkpt><trkpt lat="42.2098880634" lon="13.4171753470"><ele>1632.42</ele><time>2026-03-11T15:47:12Z</time><extensions><gpxtpx:TrackPointExtension><gpxtpx:atemp>2.9</gpxtpx:atemp></gpxtpx:TrackPointExtension></extensions></trkpt><trkpt lat="42.2098885663" lon="13.4171791188"><ele>1632.41</ele><time>2026-03-11T15:47:13Z</time><extensions><gpxtpx:TrackPointExtension><gpxtpx:atemp>2.9</gpxtpx:atemp></gpxtpx:TrackPointExtension></extensions></trkpt><trkpt lat="42.2098888177" lon="13.4171808790"><ele>1632.34</ele><time>2026-03-11T15:47:14Z</time><extensions><gpxtpx:TrackPointExtension><gpxtpx:atemp>2.9</gpxtpx:atemp></gpxtpx:TrackPointExtension></extensions></trkpt><trkpt lat="42.2098884825" lon="13.4171835613"><ele>1632.30</ele><time>2026-03-11T15:47:15Z</time><extensions><gpxtpx:TrackPointExtension><gpxtpx:atemp>2.9</gpxtpx:atemp></gpxtpx:TrackPointExtension></extensions></trkpt><trkpt lat="42.2098888177" lon="13.4171851538"><ele>1632.30</ele><time>2026-03-11T15:47:16Z</time><extensions><gpxtpx:TrackPointExtension><gpxtpx:atemp>2.9</gpxtpx:atemp></gpxtpx:TrackPointExtension></extensions></trkpt><trkpt lat="42.2098888177" lon="13.4171885904"><ele>1632.22</ele><time>2026-03-11T15:47:17Z</time><extensions><gpxtpx:TrackPointExtension><gpxtpx:atemp>2.9</gpxtpx:atemp></gpxtpx:TrackPointExtension></extensions></trkpt><trkpt lat="42.2098881472" lon="13.4171908535"><ele>1632.19</ele><time>2026-03-11T15:47:18Z</time><extensions><gpxtpx:TrackPointExtension><gpxtpx:atemp>2.9</gpxtpx:atemp></gpxtpx:TrackPointExtension></extensions></trkpt><trkpt lat="42.2098877281" lon="13.4171891771"><ele>1632.19</ele><time>2026-03-11T15:47:19Z</time><extensions><gpxtpx:TrackPointExtension><gpxtpx:atemp>2.9</gpxtpx:atemp></gpxtpx:TrackPointExtension></extensions></trkpt><trkpt lat="42.2098866384" lon="13.4171898477"><ele>1632.19</ele><time>2026-03-11T15:47:20Z</time><extensions><gpxtpx:TrackPointExtension><gpxtpx:atemp>2.9</gpxtpx:atemp></gpxtpx:TrackPointExtension></extensions></trkpt><trkpt lat="42.2098863870" lon="13.4171890933"><ele>1632.04</ele><time>2026-03-11T15:47:21Z</time><extensions><gpxtpx:TrackPointExtension><gpxtpx:atemp>2.9</gpxtpx:atemp></gpxtpx:TrackPointExtension></extensions></trkpt><trkpt lat="42.2098857164" lon="13.4171894286"><ele>1631.87</ele><time>2026-03-11T15:47:22Z</time><extensions><gpxtpx:TrackPointExtension><gpxtpx:atemp>2.9</gpxtpx:atemp></gpxtpx:TrackPointExtension></extensions></trkpt><trkpt lat="42.2098856326" lon="13.4171893448"><ele>1631.74</ele><time>2026-03-11T15:47:23Z</time><extensions><gpxtpx:TrackPointExtension><gpxtpx:atemp>2.9</gpxtpx:atemp></gpxtpx:TrackPointExtension></extensions></trkpt><trkpt lat="42.2098853812" lon="13.4171907697"><ele>1631.48</ele><time>2026-03-11T15:47:24Z</time><extensions><gpxtpx:TrackPointExtension><gpxtpx:atemp>2.9</gpxtpx:atemp></gpxtpx:TrackPointExtension></extensions></trkpt><trkpt lat="42.2098848782" lon="13.4171907697"><ele>1631.24</ele><time>2026-03-11T15:47:25Z</time><extensions><gpxtpx:TrackPointExtension><gpxtpx:atemp>2.9</gpxtpx:atemp></gpxtpx:TrackPointExtension></extensions></trkpt><trkpt lat="42.2098849621" lon="13.4171899315"><ele>1631.31</ele><time>2026-03-11T15:47:26Z</time><extensions><gpxtpx:TrackPointExtension><gpxtpx:atemp>2.9</gpxtpx:atemp></gpxtpx:TrackPointExtension></extensions></trkpt><trkpt lat="42.2098852973" lon="13.4171884228"><ele>1631.39</ele><time>2026-03-11T15:47:27Z</time><extensions><gpxtpx:TrackPointExtension><gpxtpx:atemp>2.9</gpxtpx:atemp></gpxtpx:TrackPointExtension></extensions></trkpt><trkpt lat="42.2098847944" lon="13.4171879198"><ele>1631.47</ele><time>2026-03-11T15:47:28Z</time><extensions><gpxtpx:TrackPointExtension><gpxtpx:atemp>2.9</gpxtpx:atemp></gpxtpx:TrackPointExtension></extensions></trkpt><trkpt lat="42.2098838724" lon="13.4171882551"><ele>1631.61</ele><time>2026-03-11T15:47:29Z</time><extensions><gpxtpx:TrackPointExtension><gpxtpx:atemp>2.9</gpxtpx:atemp></gpxtpx:TrackPointExtension></extensions></trkpt><trkpt lat="42.2098842915" lon="13.4171884228"><ele>1632.60</ele><time>2026-03-11T15:47:30Z</time><extensions><gpxtpx:TrackPointExtension><gpxtpx:atemp>2.9</gpxtpx:atemp></gpxtpx:TrackPointExtension></extensions></trkpt><trkpt lat="42.2098833695" lon="13.4171880875"><ele>1633.09</ele><time>2026-03-11T15:47:31Z</time><extensions><gpxtpx:TrackPointExtension><gpxtpx:atemp>2.9</gpxtpx:atemp></gpxtpx:TrackPointExtension></extensions></trkpt><trkpt lat="42.2098832857" lon="13.4171857405"><ele>1633.41</ele><time>2026-03-11T15:47:32Z</time><extensions><gpxtpx:TrackPointExtension><gpxtpx:atemp>2.9</gpxtpx:atemp></gpxtpx:TrackPointExtension></extensions></trkpt><trkpt lat="42.2098833695" lon="13.4171851538"><ele>1633.58</ele><time>2026-03-11T15:47:33Z</time><extensions><gpxtpx:TrackPointExtension><gpxtpx:atemp>2.9</gpxtpx:atemp></gpxtpx:TrackPointExtension></extensions></trkpt><trkpt lat="42.2098832857" lon="13.4171853215"><ele>1633.59</ele><time>2026-03-11T15:47:34Z</time><extensions><gpxtpx:TrackPointExtension><gpxtpx:atemp>2.8</gpxtpx:atemp></gpxtpx:TrackPointExtension></extensions></trkpt><trkpt lat="42.2098833695" lon="13.4171852376"><ele>1633.55</ele><time>2026-03-11T15:47:35Z</time><extensions><gpxtpx:TrackPointExtension><gpxtpx:atemp>2.8</gpxtpx:atemp></gpxtpx:TrackPointExtension></extensions></trkpt><trkpt lat="42.2098827828" lon="13.4171888418"><ele>1633.52</ele><time>2026-03-11T15:47:36Z</time><extensions><gpxtpx:TrackPointExtension><gpxtpx:atemp>2.8</gpxtpx:atemp></gpxtpx:TrackPointExtension></extensions></trkpt><trkpt lat="42.2098878957" lon="13.4171868302"><ele>1633.41</ele><time>2026-03-11T15:47:37Z</time><extensions><gpxtpx:TrackPointExtension><gpxtpx:atemp>2.8</gpxtpx:atemp></gpxtpx:TrackPointExtension></extensions></trkpt><trkpt lat="42.2098879796" lon="13.4171867464"><ele>1633.25</ele><time>2026-03-11T15:47:38Z</time><extensions><gpxtpx:TrackPointExtension><gpxtpx:atemp>2.8</gpxtpx:atemp></gpxtpx:TrackPointExtension></extensions></trkpt><trkpt lat="42.2098876443" lon="13.4171867464"><ele>1633.02</ele><time>2026-03-11T15:47:39Z</time><extensions><gpxtpx:TrackPointExtension><gpxtpx:atemp>2.8</gpxtpx:atemp></gpxtpx:TrackPointExtension></extensions></trkpt><trkpt lat="42.2098876443" lon="13.4171874169"><ele>1632.81</ele><time>2026-03-11T15:47:40Z</time><extensions><gpxtpx:TrackPointExtension><gpxtpx:atemp>2.8</gpxtpx:atemp></gpxtpx:TrackPointExtension></extensions></trkpt><trkpt lat="42.2098867223" lon="13.4171882551"><ele>1632.68</ele><time>2026-03-11T15:47:41Z</time><extensions><gpxtpx:TrackPointExtension><gpxtpx:atemp>2.8</gpxtpx:atemp></gpxtpx:TrackPointExtension></extensions></trkpt><trkpt lat="42.2098868899" lon="13.4171877522"><ele>1632.45</ele><time>2026-03-11T15:47:42Z</time><extensions><gpxtpx:TrackPointExtension><gpxtpx:atemp>2.8</gpxtpx:atemp></gpxtpx:TrackPointExtension></extensions></trkpt><trkpt lat="42.2098875605" lon="13.4171874169"><ele>1632.42</ele><time>2026-03-11T15:47:43Z</time><extensions><gpxtpx:TrackPointExtension><gpxtpx:atemp>2.8</gpxtpx:atemp></gpxtpx:TrackPointExtension></extensions></trkpt><trkpt lat="42.2098877281" lon="13.4171866626"><ele>1632.40</ele><time>2026-03-11T15:47:44Z</time><extensions><gpxtpx:TrackPointExtension><gpxtpx:atemp>2.8</gpxtpx:atemp></gpxtpx:TrackPointExtension></extensions></trkpt><trkpt lat="42.2098881472" lon="13.4171859920"><ele>1632.37</ele><time>2026-03-11T15:47:45Z</time><extensions><gpxtpx:TrackPointExtension><gpxtpx:atemp>2.8</gpxtpx:atemp></gpxtpx:TrackPointExtension></extensions></trkpt><trkpt lat="42.2098904941" lon="13.4171876684"><ele>1632.35</ele><time>2026-03-11T15:47:46Z</time><extensions><gpxtpx:TrackPointExtension><gpxtpx:atemp>2.8</gpxtpx:atemp></gpxtpx:TrackPointExtension></extensions></trkpt><trkpt lat="42.2098921705" lon="13.4171848185"><ele>1632.34</ele><time>2026-03-11T15:47:47Z</time><extensions><gpxtpx:TrackPointExtension><gpxtpx:atemp>2.8</gpxtpx:atemp></gpxtpx:TrackPointExtension></extensions></trkpt><trkpt lat="42.2098915838" lon="13.4171828907"><ele>1632.49</ele><time>2026-03-11T15:47:48Z</time><extensions><gpxtpx:TrackPointExtension><gpxtpx:atemp>2.8</gpxtpx:atemp></gpxtpx:TrackPointExtension></extensions></trkpt><trkpt lat="42.2098915000" lon="13.4171825554"><ele>1632.79</ele><time>2026-03-11T15:47:49Z</time><extensions><gpxtpx:TrackPointExtension><gpxtpx:atemp>2.8</gpxtpx:atemp></gpxtpx:TrackPointExtension></extensions></trkpt><trkpt lat="42.2098918352" lon="13.4171762690"><ele>1633.02</ele><time>2026-03-11T15:47:50Z</time><extensions><gpxtpx:TrackPointExtension><gpxtpx:atemp>2.8</gpxtpx:atemp></gpxtpx:TrackPointExtension></extensions></trkpt><trkpt lat="42.2098924220" lon="13.4171758499"><ele>1633.13</ele><time>2026-03-11T15:47:51Z</time><extensions><gpxtpx:TrackPointExtension><gpxtpx:atemp>2.8</gpxtpx:atemp></gpxtpx:TrackPointExtension></extensions></trkpt><trkpt lat="42.2098907456" lon="13.4171747603"><ele>1633.19</ele><time>2026-03-11T15:47:52Z</time><extensions><gpxtpx:TrackPointExtension><gpxtpx:atemp>2.8</gpxtpx:atemp></gpxtpx:TrackPointExtension></extensions></trkpt><trkpt lat="42.2098910809" lon="13.4171746764"><ele>1633.15</ele><time>2026-03-11T15:47:53Z</time><extensions><gpxtpx:TrackPointExtension><gpxtpx:atemp>2.8</gpxtpx:atemp></gpxtpx:TrackPointExtension></extensions></trkpt><trkpt lat="42.2098909970" lon="13.4171766881"><ele>1633.10</ele><time>2026-03-11T15:47:54Z</time><extensions><gpxtpx:TrackPointExtension><gpxtpx:atemp>2.8</gpxtpx:atemp></gpxtpx:TrackPointExtension></extensions></trkpt><trkpt lat="42.2098911647" lon="13.4171749279"><ele>1633.03</ele><time>2026-03-11T15:47:55Z</time><extensions><gpxtpx:TrackPointExtension><gpxtpx:atemp>2.8</gpxtpx:atemp></gpxtpx:TrackPointExtension></extensions></trkpt><trkpt lat="42.2098906618" lon="13.4171744250"><ele>1632.92</ele><time>2026-03-11T15:47:56Z</time><extensions><gpxtpx:TrackPointExtension><gpxtpx:atemp>2.8</gpxtpx:atemp></gpxtpx:TrackPointExtension></extensions></trkpt><trkpt lat="42.2098929249" lon="13.4171731677"><ele>1632.77</ele><time>2026-03-11T15:47:57Z</time><extensions><gpxtpx:TrackPointExtension><gpxtpx:atemp>2.8</gpxtpx:atemp></gpxtpx:TrackPointExtension></extensions></trkpt><trkpt lat="42.2098935954" lon="13.4171723295"><ele>1632.65</ele><time>2026-03-11T15:47:58Z</time><extensions><gpxtpx:TrackPointExtension><gpxtpx:atemp>2.8</gpxtpx:atemp></gpxtpx:TrackPointExtension></extensions></trkpt><trkpt lat="42.2098937631" lon="13.4171708208"><ele>1632.55</ele><time>2026-03-11T15:47:59Z</time><extensions><gpxtpx:TrackPointExtension><gpxtpx:atemp>2.8</gpxtpx:atemp></gpxtpx:TrackPointExtension></extensions></trkpt><trkpt lat="42.2098939307" lon="13.4171713237"><ele>1632.46</ele><time>2026-03-11T15:48:00Z</time><extensions><gpxtpx:TrackPointExtension><gpxtpx:atemp>2.8</gpxtpx:atemp></gpxtpx:TrackPointExtension></extensions></trkpt><trkpt lat="42.2098942660" lon="13.4171702340"><ele>1632.38</ele><time>2026-03-11T15:48:01Z</time><extensions><gpxtpx:TrackPointExtension><gpxtpx:atemp>2.8</gpxtpx:atemp></gpxtpx:TrackPointExtension></extensions></trkpt><trkpt lat="42.2098945174" lon="13.4171703178"><ele>1632.32</ele><time>2026-03-11T15:48:02Z</time><extensions><gpxtpx:TrackPointExtension><gpxtpx:atemp>2.8</gpxtpx:atemp></gpxtpx:TrackPointExtension></extensions></trkpt><trkpt lat="42.2098954394" lon="13.4171704855"><ele>1632.29</ele><time>2026-03-11T15:48:03Z</time><extensions><gpxtpx:TrackPointExtension><gpxtpx:atemp>2.8</gpxtpx:atemp></gpxtpx:TrackPointExtension></extensions></trkpt><trkpt lat="42.2098954394" lon="13.4171719942"><ele>1632.28</ele><time>2026-03-11T15:48:04Z</time><extensions><gpxtpx:TrackPointExtension><gpxtpx:atemp>2.8</gpxtpx:atemp></gpxtpx:TrackPointExtension></extensions></trkpt><trkpt lat="42.2098947689" lon="13.4171726648"><ele>1632.28</ele><time>2026-03-11T15:48:05Z</time><extensions><gpxtpx:TrackPointExtension><gpxtpx:atemp>2.8</gpxtpx:atemp></gpxtpx:TrackPointExtension></extensions></trkpt><trkpt lat="42.2098945174" lon="13.4171737544"><ele>1632.28</ele><time>2026-03-11T15:48:06Z</time><extensions><gpxtpx:TrackPointExtension><gpxtpx:atemp>2.8</gpxtpx:atemp></gpxtpx:TrackPointExtension></extensions></trkpt><trkpt lat="42.2098948527" lon="13.4171740897"><ele>1632.28</ele><time>2026-03-11T15:48:07Z</time><extensions><gpxtpx:TrackPointExtension><gpxtpx:atemp>2.8</gpxtpx:atemp></gpxtpx:TrackPointExtension></extensions></trkpt><trkpt lat="42.2098951880" lon="13.4171735868"><ele>1632.19</ele><time>2026-03-11T15:48:08Z</time><extensions><gpxtpx:TrackPointExtension><gpxtpx:atemp>2.8</gpxtpx:atemp></gpxtpx:TrackPointExtension></extensions></trkpt><trkpt lat="42.2098956909" lon="13.4171739221"><ele>1631.97</ele><time>2026-03-11T15:48:09Z</time><extensions><gpxtpx:TrackPointExtension><gpxtpx:atemp>2.8</gpxtpx:atemp></gpxtpx:TrackPointExtension></extensions></trkpt><trkpt lat="42.2098954394" lon="13.4171734191"><ele>1631.79</ele><time>2026-03-11T15:48:10Z</time><extensions><gpxtpx:TrackPointExtension><gpxtpx:atemp>2.8</gpxtpx:atemp></gpxtpx:TrackPointExtension></extensions></trkpt><trkpt lat="42.2098960262" lon="13.4171733353"><ele>1631.70</ele><time>2026-03-11T15:48:11Z</time><extensions><gpxtpx:TrackPointExtension><gpxtpx:atemp>2.8</gpxtpx:atemp></gpxtpx:TrackPointExtension></extensions></trkpt><trkpt lat="42.2098962776" lon="13.4171730839"><ele>1631.64</ele><time>2026-03-11T15:48:12Z</time><extensions><gpxtpx:TrackPointExtension><gpxtpx:atemp>2.8</gpxtpx:atemp></gpxtpx:TrackPointExtension></extensions></trkpt><trkpt lat="42.2098963615" lon="13.4171724971"><ele>1631.61</ele><time>2026-03-11T15:48:13Z</time><extensions><gpxtpx:TrackPointExtension><gpxtpx:atemp>2.8</gpxtpx:atemp></gpxtpx:TrackPointExtension></extensions></trkpt><trkpt lat="42.2098962776" lon="13.4171729162"><ele>1631.63</ele><time>2026-03-11T15:48:14Z</time><extensions><gpxtpx:TrackPointExtension><gpxtpx:atemp>2.8</gpxtpx:atemp></gpxtpx:TrackPointExtension></extensions></trkpt><trkpt lat="42.2098965291" lon="13.4171719942"><ele>1631.72</ele><time>2026-03-11T15:48:15Z</time><extensions><gpxtpx:TrackPointExtension><gpxtpx:atemp>2.8</gpxtpx:atemp></gpxtpx:TrackPointExtension></extensions></trkpt><trkpt lat="42.2098965291" lon="13.4171716589"><ele>1631.87</ele><time>2026-03-11T15:48:16Z</time><extensions><gpxtpx:TrackPointExtension><gpxtpx:atemp>2.8</gpxtpx:atemp></gpxtpx:TrackPointExtension></extensions></trkpt><trkpt lat="42.2098968644" lon="13.4171722457"><ele>1632.13</ele><time>2026-03-11T15:48:17Z</time><extensions><gpxtpx:TrackPointExtension><gpxtpx:atemp>2.8</gpxtpx:atemp></gpxtpx:TrackPointExtension></extensions></trkpt><trkpt lat="42.2098973673" lon="13.4171723295"><ele>1632.24</ele><time>2026-03-11T15:48:18Z</time><extensions><gpxtpx:TrackPointExtension><gpxtpx:atemp>2.8</gpxtpx:atemp></gpxtpx:TrackPointExtension></extensions></trkpt><trkpt lat="42.2098970320" lon="13.4171721619"><ele>1632.32</ele><time>2026-03-11T15:48:19Z</time><extensions><gpxtpx:TrackPointExtension><gpxtpx:atemp>2.8</gpxtpx:atemp></gpxtpx:TrackPointExtension></extensions></trkpt><trkpt lat="42.2098935954" lon="13.4171730839"><ele>1632.45</ele><time>2026-03-11T15:48:20Z</time><extensions><gpxtpx:TrackPointExtension><gpxtpx:atemp>2.8</gpxtpx:atemp></gpxtpx:TrackPointExtension></extensions></trkpt><trkpt lat="42.2098936792" lon="13.4171734191"><ele>1632.59</ele><time>2026-03-11T15:48:21Z</time><extensions><gpxtpx:TrackPointExtension><gpxtpx:atemp>2.8</gpxtpx:atemp></gpxtpx:TrackPointExtension></extensions></trkpt><trkpt lat="42.2098904941" lon="13.4171727486"><ele>1632.66</ele><time>2026-03-11T15:48:22Z</time><extensions><gpxtpx:TrackPointExtension><gpxtpx:atemp>2.8</gpxtpx:atemp></gpxtpx:TrackPointExtension></extensions></trkpt><trkpt lat="42.2098895721" lon="13.4171752632"><ele>1632.70</ele><time>2026-03-11T15:48:23Z</time><extensions><gpxtpx:TrackPointExtension><gpxtpx:atemp>2.8</gpxtpx:atemp></gpxtpx:TrackPointExtension></extensions></trkpt><trkpt lat="42.2098890692" lon="13.4171781968"><ele>1632.73</ele><time>2026-03-11T15:48:24Z</time><extensions><gpxtpx:TrackPointExtension><gpxtpx:atemp>2.8</gpxtpx:atemp></gpxtpx:TrackPointExtension></extensions></trkpt><trkpt lat="42.2098894883" lon="13.4171782807"><ele>1632.63</ele><time>2026-03-11T15:48:25Z</time><extensions><gpxtpx:TrackPointExtension><gpxtpx:atemp>2.8</gpxtpx:atemp></gpxtpx:TrackPointExtension></extensions></trkpt><trkpt lat="42.2098912485" lon="13.4171777777"><ele>1632.50</ele><time>2026-03-11T15:48:26Z</time><extensions><gpxtpx:TrackPointExtension><gpxtpx:atemp>2.8</gpxtpx:atemp></gpxtpx:TrackPointExtension></extensions></trkpt><trkpt lat="42.2098902427" lon="13.4171765205"><ele>1632.38</ele><time>2026-03-11T15:48:27Z</time><extensions><gpxtpx:TrackPointExtension><gpxtpx:atemp>2.8</gpxtpx:atemp></gpxtpx:TrackPointExtension></extensions></trkpt><trkpt lat="42.2098949365" lon="13.4171664622"><ele>1632.28</ele><time>2026-03-11T15:48:28Z</time><extensions><gpxtpx:TrackPointExtension><gpxtpx:atemp>2.8</gpxtpx:atemp></gpxtpx:TrackPointExtension></extensions></trkpt><trkpt lat="42.2098958585" lon="13.4171687253"><ele>1632.29</ele><time>2026-03-11T15:48:29Z</time><extensions><gpxtpx:TrackPointExtension><gpxtpx:atemp>2.8</gpxtpx:atemp></gpxtpx:TrackPointExtension></extensions></trkpt><trkpt lat="42.2098968644" lon="13.4171701502"><ele>1632.30</ele><time>2026-03-11T15:48:30Z</time><extensions><gpxtpx:TrackPointExtension><gpxtpx:atemp>2.8</gpxtpx:atemp></gpxtpx:TrackPointExtension></extensions></trkpt><trkpt lat="42.2098967806" lon="13.4171719942"><ele>1632.34</ele><time>2026-03-11T15:48:31Z</time><extensions><gpxtpx:TrackPointExtension><gpxtpx:atemp>2.8</gpxtpx:atemp></gpxtpx:TrackPointExtension></extensions></trkpt><trkpt lat="42.2098957747" lon="13.4171706531"><ele>1632.42</ele><time>2026-03-11T15:48:32Z</time><extensions><gpxtpx:TrackPointExtension><gpxtpx:atemp>2.8</gpxtpx:atemp></gpxtpx:TrackPointExtension></extensions></trkpt><trkpt lat="42.2098966967" lon="13.4171700664"><ele>1632.49</ele><time>2026-03-11T15:48:33Z</time><extensions><gpxtpx:TrackPointExtension><gpxtpx:atemp>2.8</gpxtpx:atemp></gpxtpx:TrackPointExtension></extensions></trkpt><trkpt lat="42.2098970320" lon="13.4171711560"><ele>1632.53</ele><time>2026-03-11T15:48:34Z</time><extensions><gpxtpx:TrackPointExtension><gpxtpx:atemp>2.9</gpxtpx:atemp></gpxtpx:TrackPointExtension></extensions></trkpt><trkpt lat="42.2098984569" lon="13.4171695635"><ele>1632.55</ele><time>2026-03-11T15:48:35Z</time><extensions><gpxtpx:TrackPointExtension><gpxtpx:atemp>2.9</gpxtpx:atemp></gpxtpx:TrackPointExtension></extensions></trkpt><trkpt lat="42.2098984569" lon="13.4171695635"><ele>1632.57</ele><time>2026-03-11T15:48:36Z</time><extensions><gpxtpx:TrackPointExtension><gpxtpx:atemp>2.9</gpxtpx:atemp></gpxtpx:TrackPointExtension></extensions></trkpt><trkpt lat="42.2098984569" lon="13.4171680547"><ele>1632.57</ele><time>2026-03-11T15:48:37Z</time><extensions><gpxtpx:TrackPointExtension><gpxtpx:atemp>2.9</gpxtpx:atemp></gpxtpx:TrackPointExtension></extensions></trkpt><trkpt lat="42.2098952718" lon="13.4171701502"><ele>1632.58</ele><time>2026-03-11T15:48:38Z</time><extensions><gpxtpx:TrackPointExtension><gpxtpx:atemp>2.9</gpxtpx:atemp></gpxtpx:TrackPointExtension></extensions></trkpt><trkpt lat="42.2098974511" lon="13.4171669651"><ele>1632.58</ele><time>2026-03-11T15:48:39Z</time><extensions><gpxtpx:TrackPointExtension><gpxtpx:atemp>2.9</gpxtpx:atemp></gpxtpx:TrackPointExtension></extensions></trkpt><trkpt lat="42.2098975349" lon="13.4171675518"><ele>1632.42</ele><time>2026-03-11T15:48:40Z</time><extensions><gpxtpx:TrackPointExtension><gpxtpx:atemp>2.9</gpxtpx:atemp></gpxtpx:TrackPointExtension></extensions></trkpt><trkpt lat="42.2098962776" lon="13.4171709884"><ele>1632.23</ele><time>2026-03-11T15:48:41Z</time><extensions><gpxtpx:TrackPointExtension><gpxtpx:atemp>2.9</gpxtpx:atemp></gpxtpx:TrackPointExtension></extensions></trkpt><trkpt lat="42.2098929249" lon="13.4171708208"><ele>1631.91</ele><time>2026-03-11T15:48:42Z</time><extensions><gpxtpx:TrackPointExtension><gpxtpx:atemp>2.9</gpxtpx:atemp></gpxtpx:TrackPointExtension></extensions></trkpt><trkpt lat="42.2098927572" lon="13.4171720780"><ele>1631.67</ele><time>2026-03-11T15:48:43Z</time><extensions><gpxtpx:TrackPointExtension><gpxtpx:atemp>2.9</gpxtpx:atemp></gpxtpx:TrackPointExtension></extensions></trkpt><trkpt lat="42.2098911647" lon="13.4171727486"><ele>1631.49</ele><time>2026-03-11T15:48:44Z</time><extensions><gpxtpx:TrackPointExtension><gpxtpx:atemp>2.9</gpxtpx:atemp></gpxtpx:TrackPointExtension></extensions></trkpt><trkpt lat="42.2098902427" lon="13.4171745926"><ele>1631.29</ele><time>2026-03-11T15:48:45Z</time><extensions><gpxtpx:TrackPointExtension><gpxtpx:atemp>2.9</gpxtpx:atemp></gpxtpx:TrackPointExtension></extensions></trkpt><trkpt lat="42.2098889854" lon="13.4171754308"><ele>1631.11</ele><time>2026-03-11T15:48:46Z</time><extensions><gpxtpx:TrackPointExtension><gpxtpx:atemp>2.9</gpxtpx:atemp></gpxtpx:TrackPointExtension></extensions></trkpt><trkpt lat="42.2098879796" lon="13.4171761852"><ele>1630.95</ele><time>2026-03-11T15:48:47Z</time><extensions><gpxtpx:TrackPointExtension><gpxtpx:atemp>2.9</gpxtpx:atemp></gpxtpx:TrackPointExtension></extensions></trkpt><trkpt lat="42.2098880634" lon="13.4171766881"><ele>1630.82</ele><time>2026-03-11T15:48:48Z</time><extensions><gpxtpx:TrackPointExtension><gpxtpx:atemp>2.9</gpxtpx:atemp></gpxtpx:TrackPointExtension></extensions></trkpt><trkpt lat="42.2098875605" lon="13.4171768557"><ele>1630.72</ele><time>2026-03-11T15:48:49Z</time><extensions><gpxtpx:TrackPointExtension><gpxtpx:atemp>2.9</gpxtpx:atemp></gpxtpx:TrackPointExtension></extensions></trkpt><trkpt lat="42.2098875605" lon="13.4171768557"><ele>1630.66</ele><time>2026-03-11T15:48:50Z</time><extensions><gpxtpx:TrackPointExtension><gpxtpx:atemp>2.9</gpxtpx:atemp></gpxtpx:TrackPointExtension></extensions></trkpt><trkpt lat="42.2098873928" lon="13.4171776939"><ele>1630.65</ele><time>2026-03-11T15:48:51Z</time><extensions><gpxtpx:TrackPointExtension><gpxtpx:atemp>2.9</gpxtpx:atemp></gpxtpx:TrackPointExtension></extensions></trkpt><trkpt lat="42.2098866384" lon="13.4171783645"><ele>1630.66</ele><time>2026-03-11T15:48:52Z</time><extensions><gpxtpx:TrackPointExtension><gpxtpx:atemp>2.9</gpxtpx:atemp></gpxtpx:TrackPointExtension></extensions></trkpt><trkpt lat="42.2098862194" lon="13.4171783645"><ele>1630.73</ele><time>2026-03-11T15:48:53Z</time><extensions><gpxtpx:TrackPointExtension><gpxtpx:atemp>2.9</gpxtpx:atemp></gpxtpx:TrackPointExtension></extensions></trkpt><trkpt lat="42.2098862194" lon="13.4171788674"><ele>1630.79</ele><time>2026-03-11T15:48:54Z</time><extensions><gpxtpx:TrackPointExtension><gpxtpx:atemp>2.9</gpxtpx:atemp></gpxtpx:TrackPointExtension></extensions></trkpt><trkpt lat="42.2098854650" lon="13.4171793703"><ele>1630.86</ele><time>2026-03-11T15:48:55Z</time><extensions><gpxtpx:TrackPointExtension><gpxtpx:atemp>2.9</gpxtpx:atemp></gpxtpx:TrackPointExtension></extensions></trkpt><trkpt lat="42.2098846268" lon="13.4171794541"><ele>1630.93</ele><time>2026-03-11T15:48:56Z</time><extensions><gpxtpx:TrackPointExtension><gpxtpx:atemp>2.9</gpxtpx:atemp></gpxtpx:TrackPointExtension></extensions></trkpt><trkpt lat="42.2098842915" lon="13.4171796218"><ele>1630.98</ele><time>2026-03-11T15:48:57Z</time><extensions><gpxtpx:TrackPointExtension><gpxtpx:atemp>2.9</gpxtpx:atemp></gpxtpx:TrackPointExtension></extensions></trkpt><trkpt lat="42.2098836210" lon="13.4171800409"><ele>1631.07</ele><time>2026-03-11T15:48:58Z</time><extensions><gpxtpx:TrackPointExtension><gpxtpx:atemp>2.9</gpxtpx:atemp></gpxtpx:TrackPointExtension></extensions></trkpt><trkpt lat="42.2098835371" lon="13.4171803761"><ele>1631.17</ele><time>2026-03-11T15:48:59Z</time><extensions><gpxtpx:TrackPointExtension><gpxtpx:atemp>2.9</gpxtpx:atemp></gpxtpx:TrackPointExtension></extensions></trkpt><trkpt lat="42.2098828666" lon="13.4171804599"><ele>1631.29</ele><time>2026-03-11T15:49:00Z</time><extensions><gpxtpx:TrackPointExtension><gpxtpx:atemp>2.9</gpxtpx:atemp></gpxtpx:TrackPointExtension></extensions></trkpt><trkpt lat="42.2098824475" lon="13.4171805438"><ele>1631.38</ele><time>2026-03-11T15:49:01Z</time><extensions><gpxtpx:TrackPointExtension><gpxtpx:atemp>2.9</gpxtpx:atemp></gpxtpx:TrackPointExtension></extensions></trkpt><trkpt lat="42.2098818608" lon="13.4171809629"><ele>1631.43</ele><time>2026-03-11T15:49:02Z</time><extensions><gpxtpx:TrackPointExtension><gpxtpx:atemp>2.9</gpxtpx:atemp></gpxtpx:TrackPointExtension></extensions></trkpt><trkpt lat="42.2098810226" lon="13.4171811305"><ele>1631.50</ele><time>2026-03-11T15:49:03Z</time><extensions><gpxtpx:TrackPointExtension><gpxtpx:atemp>2.9</gpxtpx:atemp></gpxtpx:TrackPointExtension></extensions></trkpt><trkpt lat="42.2098811902" lon="13.4171812981"><ele>1631.52</ele><time>2026-03-11T15:49:04Z</time><extensions><gpxtpx:TrackPointExtension><gpxtpx:atemp>2.9</gpxtpx:atemp></gpxtpx:TrackPointExtension></extensions></trkpt><trkpt lat="42.2098812740" lon="13.4171812981"><ele>1631.55</ele><time>2026-03-11T15:49:05Z</time><extensions><gpxtpx:TrackPointExtension><gpxtpx:atemp>2.9</gpxtpx:atemp></gpxtpx:TrackPointExtension></extensions></trkpt><trkpt lat="42.2098804358" lon="13.4171812981"><ele>1631.57</ele><time>2026-03-11T15:49:06Z</time><extensions><gpxtpx:TrackPointExtension><gpxtpx:atemp>2.9</gpxtpx:atemp></gpxtpx:TrackPointExtension></extensions></trkpt><trkpt lat="42.2098800167" lon="13.4171812981"><ele>1631.59</ele><time>2026-03-11T15:49:07Z</time><extensions><gpxtpx:TrackPointExtension><gpxtpx:atemp>2.9</gpxtpx:atemp></gpxtpx:TrackPointExtension></extensions></trkpt><trkpt lat="42.2098798491" lon="13.4171813820"><ele>1631.61</ele><time>2026-03-11T15:49:08Z</time><extensions><gpxtpx:TrackPointExtension><gpxtpx:atemp>2.9</gpxtpx:atemp></gpxtpx:TrackPointExtension></extensions></trkpt><trkpt lat="42.2098795976" lon="13.4171811305"><ele>1631.61</ele><time>2026-03-11T15:49:09Z</time><extensions><gpxtpx:TrackPointExtension><gpxtpx:atemp>2.9</gpxtpx:atemp></gpxtpx:TrackPointExtension></extensions></trkpt><trkpt lat="42.2098793462" lon="13.4171814658"><ele>1631.62</ele><time>2026-03-11T15:49:10Z</time><extensions><gpxtpx:TrackPointExtension><gpxtpx:atemp>2.9</gpxtpx:atemp></gpxtpx:TrackPointExtension></extensions></trkpt><trkpt lat="42.2098796815" lon="13.4171813820"><ele>1631.63</ele><time>2026-03-11T15:49:11Z</time><extensions><gpxtpx:TrackPointExtension><gpxtpx:atemp>2.9</gpxtpx:atemp></gpxtpx:TrackPointExtension></extensions></trkpt><trkpt lat="42.2098797653" lon="13.4171813820"><ele>1631.63</ele><time>2026-03-11T15:49:12Z</time><extensions><gpxtpx:TrackPointExtension><gpxtpx:atemp>2.9</gpxtpx:atemp></gpxtpx:TrackPointExtension></extensions></trkpt><trkpt lat="42.2098799329" lon="13.4171814658"><ele>1631.66</ele><time>2026-03-11T15:49:13Z</time><extensions><gpxtpx:TrackPointExtension><gpxtpx:atemp>2.9</gpxtpx:atemp></gpxtpx:TrackPointExtension></extensions></trkpt><trkpt lat="42.2098801844" lon="13.4171817172"><ele>1631.66</ele><time>2026-03-11T15:49:14Z</time><extensions><gpxtpx:TrackPointExtension><gpxtpx:atemp>2.9</gpxtpx:atemp></gpxtpx:TrackPointExtension></extensions></trkpt><trkpt lat="42.2098803520" lon="13.4171816334"><ele>1631.68</ele><time>2026-03-11T15:49:15Z</time><extensions><gpxtpx:TrackPointExtension><gpxtpx:atemp>2.9</gpxtpx:atemp></gpxtpx:TrackPointExtension></extensions></trkpt><trkpt lat="42.2098803520" lon="13.4171815496"><ele>1631.70</ele><time>2026-03-11T15:49:16Z</time><extensions><gpxtpx:TrackPointExtension><gpxtpx:atemp>2.9</gpxtpx:atemp></gpxtpx:TrackPointExtension></extensions></trkpt><trkpt lat="42.2098801844" lon="13.4171817172"><ele>1631.72</ele><time>2026-03-11T15:49:17Z</time><extensions><gpxtpx:TrackPointExtension><gpxtpx:atemp>2.9</gpxtpx:atemp></gpxtpx:TrackPointExtension></extensions></trkpt><trkpt lat="42.2098803520" lon="13.4171818849"><ele>1631.74</ele><time>2026-03-11T15:49:18Z</time><extensions><gpxtpx:TrackPointExtension><gpxtpx:atemp>2.9</gpxtpx:atemp></gpxtpx:TrackPointExtension></extensions></trkpt><trkpt lat="42.2098804358" lon="13.4171818849"><ele>1631.74</ele><time>2026-03-11T15:49:19Z</time><extensions><gpxtpx:TrackPointExtension><gpxtpx:atemp>2.9</gpxtpx:atemp></gpxtpx:TrackPointExtension></extensions></trkpt><trkpt lat="42.2098803520" lon="13.4171818849"><ele>1631.75</ele><time>2026-03-11T15:49:20Z</time><extensions><gpxtpx:TrackPointExtension><gpxtpx:atemp>2.9</gpxtpx:atemp></gpxtpx:TrackPointExtension></extensions></trkpt><trkpt lat="42.2098803520" lon="13.4171819687"><ele>1631.78</ele><time>2026-03-11T15:49:21Z</time><extensions><gpxtpx:TrackPointExtension><gpxtpx:atemp>2.9</gpxtpx:atemp></gpxtpx:TrackPointExtension></extensions></trkpt><trkpt lat="42.2098802682" lon="13.4171821363"><ele>1631.80</ele><time>2026-03-11T15:49:22Z</time><extensions><gpxtpx:TrackPointExtension><gpxtpx:atemp>2.9</gpxtpx:atemp></gpxtpx:TrackPointExtension></extensions></trkpt><trkpt lat="42.2098799329" lon="13.4171824716"><ele>1631.81</ele><time>2026-03-11T15:49:23Z</time><extensions><gpxtpx:TrackPointExtension><gpxtpx:atemp>2.9</gpxtpx:atemp></gpxtpx:TrackPointExtension></extensions></trkpt><trkpt lat="42.2098797653" lon="13.4171825554"><ele>1631.83</ele><time>2026-03-11T15:49:24Z</time><extensions><gpxtpx:TrackPointExtension><gpxtpx:atemp>2.9</gpxtpx:atemp></gpxtpx:TrackPointExtension></extensions></trkpt><trkpt lat="42.2098801844" lon="13.4171828907"><ele>1631.88</ele><time>2026-03-11T15:49:25Z</time><extensions><gpxtpx:TrackPointExtension><gpxtpx:atemp>2.9</gpxtpx:atemp></gpxtpx:TrackPointExtension></extensions></trkpt><trkpt lat="42.2098801844" lon="13.4171829745"><ele>1631.91</ele><time>2026-03-11T15:49:26Z</time><extensions><gpxtpx:TrackPointExtension><gpxtpx:atemp>2.9</gpxtpx:atemp></gpxtpx:TrackPointExtension></extensions></trkpt><trkpt lat="42.2098802682" lon="13.4171830583"><ele>1631.95</ele><time>2026-03-11T15:49:27Z</time><extensions><gpxtpx:TrackPointExtension><gpxtpx:atemp>2.9</gpxtpx:atemp></gpxtpx:TrackPointExtension></extensions></trkpt><trkpt lat="42.2098771669" lon="13.4171835613"><ele>1632.21</ele><time>2026-03-11T15:49:28Z</time><extensions><gpxtpx:TrackPointExtension><gpxtpx:atemp>2.9</gpxtpx:atemp></gpxtpx:TrackPointExtension></extensions></trkpt><trkpt lat="42.2098780889" lon="13.4171804599"><ele>1632.79</ele><time>2026-03-11T15:49:29Z</time><extensions><gpxtpx:TrackPointExtension><gpxtpx:atemp>2.9</gpxtpx:atemp></gpxtpx:TrackPointExtension></extensions></trkpt><trkpt lat="42.2098775860" lon="13.4171806276"><ele>1633.28</ele><time>2026-03-11T15:49:30Z</time><extensions><gpxtpx:TrackPointExtension><gpxtpx:atemp>2.9</gpxtpx:atemp></gpxtpx:TrackPointExtension></extensions></trkpt><trkpt lat="42.2098775860" lon="13.4171809629"><ele>1633.53</ele><time>2026-03-11T15:49:31Z</time><extensions><gpxtpx:TrackPointExtension><gpxtpx:atemp>2.9</gpxtpx:atemp></gpxtpx:TrackPointExtension></extensions></trkpt><trkpt lat="42.2098780889" lon="13.4171820525"><ele>1633.66</ele><time>2026-03-11T15:49:32Z</time><extensions><gpxtpx:TrackPointExtension><gpxtpx:atemp>2.9</gpxtpx:atemp></gpxtpx:TrackPointExtension></extensions></trkpt><trkpt lat="42.2098781727" lon="13.4171825554"><ele>1633.65</ele><time>2026-03-11T15:49:33Z</time><extensions><gpxtpx:TrackPointExtension><gpxtpx:atemp>2.9</gpxtpx:atemp></gpxtpx:TrackPointExtension></extensions></trkpt><trkpt lat="42.2098779213" lon="13.4171830583"><ele>1633.50</ele><time>2026-03-11T15:49:34Z</time><extensions><gpxtpx:TrackPointExtension><gpxtpx:atemp>2.9</gpxtpx:atemp></gpxtpx:TrackPointExtension></extensions></trkpt><trkpt lat="42.2098774184" lon="13.4171835613"><ele>1633.28</ele><time>2026-03-11T15:49:35Z</time><extensions><gpxtpx:TrackPointExtension><gpxtpx:atemp>2.9</gpxtpx:atemp></gpxtpx:TrackPointExtension></extensions></trkpt><trkpt lat="42.2098775860" lon="13.4171845671"><ele>1633.02</ele><time>2026-03-11T15:49:36Z</time><extensions><gpxtpx:TrackPointExtension><gpxtpx:atemp>2.9</gpxtpx:atemp></gpxtpx:TrackPointExtension></extensions></trkpt><trkpt lat="42.2098771669" lon="13.4171844833"><ele>1632.62</ele><time>2026-03-11T15:49:37Z</time><extensions><gpxtpx:TrackPointExtension><gpxtpx:atemp>2.9</gpxtpx:atemp></gpxtpx:TrackPointExtension></extensions></trkpt><trkpt lat="42.2098784242" lon="13.4171857405"><ele>1632.50</ele><time>2026-03-11T15:49:38Z</time><extensions><gpxtpx:TrackPointExtension><gpxtpx:atemp>2.9</gpxtpx:atemp></gpxtpx:TrackPointExtension></extensions></trkpt><trkpt lat="42.2098784242" lon="13.4171856567"><ele>1632.40</ele><time>2026-03-11T15:49:39Z</time><extensions><gpxtpx:TrackPointExtension><gpxtpx:atemp>2.9</gpxtpx:atemp></gpxtpx:TrackPointExtension></extensions></trkpt><trkpt lat="42.2098781727" lon="13.4171865787"><ele>1632.27</ele><time>2026-03-11T15:49:40Z</time><extensions><gpxtpx:TrackPointExtension><gpxtpx:atemp>2.9</gpxtpx:atemp></gpxtpx:TrackPointExtension></extensions></trkpt><trkpt lat="42.2098782565" lon="13.4171867464"><ele>1632.08</ele><time>2026-03-11T15:49:41Z</time><extensions><gpxtpx:TrackPointExtension><gpxtpx:atemp>2.9</gpxtpx:atemp></gpxtpx:TrackPointExtension></extensions></trkpt><trkpt lat="42.2098785918" lon="13.4171857405"><ele>1631.90</ele><time>2026-03-11T15:49:42Z</time><extensions><gpxtpx:TrackPointExtension><gpxtpx:atemp>2.9</gpxtpx:atemp></gpxtpx:TrackPointExtension></extensions></trkpt><trkpt lat="42.2098787595" lon="13.4171854891"><ele>1631.73</ele><time>2026-03-11T15:49:43Z</time><extensions><gpxtpx:TrackPointExtension><gpxtpx:atemp>2.9</gpxtpx:atemp></gpxtpx:TrackPointExtension></extensions></trkpt><trkpt lat="42.2098792624" lon="13.4171845671"><ele>1631.52</ele><time>2026-03-11T15:49:44Z</time><extensions><gpxtpx:TrackPointExtension><gpxtpx:atemp>2.9</gpxtpx:atemp></gpxtpx:TrackPointExtension></extensions></trkpt><trkpt lat="42.2098795976" lon="13.4171842318"><ele>1631.31</ele><time>2026-03-11T15:49:45Z</time><extensions><gpxtpx:TrackPointExtension><gpxtpx:atemp>2.9</gpxtpx:atemp></gpxtpx:TrackPointExtension></extensions></trkpt><trkpt lat="42.2098800167" lon="13.4171839803"><ele>1631.09</ele><time>2026-03-11T15:49:46Z</time><extensions><gpxtpx:TrackPointExtension><gpxtpx:atemp>2.9</gpxtpx:atemp></gpxtpx:TrackPointExtension></extensions></trkpt><trkpt lat="42.2098802682" lon="13.4171837289"><ele>1630.98</ele><time>2026-03-11T15:49:47Z</time><extensions><gpxtpx:TrackPointExtension><gpxtpx:atemp>2.9</gpxtpx:atemp></gpxtpx:TrackPointExtension></extensions></trkpt><trkpt lat="42.2098806873" lon="13.4171842318"><ele>1630.87</ele><time>2026-03-11T15:49:48Z</time><extensions><gpxtpx:TrackPointExtension><gpxtpx:atemp>2.9</gpxtpx:atemp></gpxtpx:TrackPointExtension></extensions></trkpt><trkpt lat="42.2098809388" lon="13.4171847347"><ele>1630.63</ele><time>2026-03-11T15:49:49Z</time><extensions><gpxtpx:TrackPointExtension><gpxtpx:atemp>2.9</gpxtpx:atemp></gpxtpx:TrackPointExtension></extensions></trkpt><trkpt lat="42.2098813578" lon="13.4171848185"><ele>1630.56</ele><time>2026-03-11T15:49:50Z</time><extensions><gpxtpx:TrackPointExtension><gpxtpx:atemp>2.9</gpxtpx:atemp></gpxtpx:TrackPointExtension></extensions></trkpt><trkpt lat="42.2098820284" lon="13.4171842318"><ele>1630.59</ele><time>2026-03-11T15:49:51Z</time><extensions><gpxtpx:TrackPointExtension><gpxtpx:atemp>2.9</gpxtpx:atemp></gpxtpx:TrackPointExtension></extensions></trkpt><trkpt lat="42.2098825313" lon="13.4171844833"><ele>1630.65</ele><time>2026-03-11T15:49:52Z</time><extensions><gpxtpx:TrackPointExtension><gpxtpx:atemp>2.9</gpxtpx:atemp></gpxtpx:TrackPointExtension></extensions></trkpt><trkpt lat="42.2098827828" lon="13.4171844833"><ele>1630.69</ele><time>2026-03-11T15:49:53Z</time><extensions><gpxtpx:TrackPointExtension><gpxtpx:atemp>2.9</gpxtpx:atemp></gpxtpx:TrackPointExtension></extensions></trkpt><trkpt lat="42.2098828666" lon="13.4171846509"><ele>1630.79</ele><time>2026-03-11T15:49:54Z</time><extensions><gpxtpx:TrackPointExtension><gpxtpx:atemp>2.9</gpxtpx:atemp></gpxtpx:TrackPointExtension></extensions></trkpt><trkpt lat="42.2098827828" lon="13.4171847347"><ele>1631.02</ele><time>2026-03-11T15:49:55Z</time><extensions><gpxtpx:TrackPointExtension><gpxtpx:atemp>2.9</gpxtpx:atemp></gpxtpx:TrackPointExtension></extensions></trkpt><trkpt lat="42.2098829504" lon="13.4171847347"><ele>1631.34</ele><time>2026-03-11T15:49:56Z</time><extensions><gpxtpx:TrackPointExtension><gpxtpx:atemp>2.9</gpxtpx:atemp></gpxtpx:TrackPointExtension></extensions></trkpt><trkpt lat="42.2098826990" lon="13.4171846509"><ele>1631.73</ele><time>2026-03-11T15:49:57Z</time><extensions><gpxtpx:TrackPointExtension><gpxtpx:atemp>2.9</gpxtpx:atemp></gpxtpx:TrackPointExtension></extensions></trkpt><trkpt lat="42.2098826990" lon="13.4171847347"><ele>1632.22</ele><time>2026-03-11T15:49:58Z</time><extensions><gpxtpx:TrackPointExtension><gpxtpx:atemp>2.9</gpxtpx:atemp></gpxtpx:TrackPointExtension></extensions></trkpt><trkpt lat="42.2098824475" lon="13.4171849862"><ele>1632.60</ele><time>2026-03-11T15:49:59Z</time><extensions><gpxtpx:TrackPointExtension><gpxtpx:atemp>2.9</gpxtpx:atemp></gpxtpx:TrackPointExtension></extensions></trkpt><trkpt lat="42.2098828666" lon="13.4171847347"><ele>1633.03</ele><time>2026-03-11T15:50:00Z</time><extensions><gpxtpx:TrackPointExtension><gpxtpx:atemp>2.9</gpxtpx:atemp></gpxtpx:TrackPointExtension></extensions></trkpt><trkpt lat="42.2098829504" lon="13.4171843994"><ele>1633.15</ele><time>2026-03-11T15:50:01Z</time><extensions><gpxtpx:TrackPointExtension><gpxtpx:atemp>2.9</gpxtpx:atemp></gpxtpx:TrackPointExtension></extensions></trkpt><trkpt lat="42.2098827828" lon="13.4171846509"><ele>1633.10</ele><time>2026-03-11T15:50:02Z</time><extensions><gpxtpx:TrackPointExtension><gpxtpx:atemp>2.9</gpxtpx:atemp></gpxtpx:TrackPointExtension></extensions></trkpt><trkpt lat="42.2098830342" lon="13.4171844833"><ele>1632.99</ele><time>2026-03-11T15:50:03Z</time><extensions><gpxtpx:TrackPointExtension><gpxtpx:atemp>2.9</gpxtpx:atemp></gpxtpx:TrackPointExtension></extensions></trkpt><trkpt lat="42.2098833695" lon="13.4171841480"><ele>1632.88</ele><time>2026-03-11T15:50:04Z</time><extensions><gpxtpx:TrackPointExtension><gpxtpx:atemp>2.9</gpxtpx:atemp></gpxtpx:TrackPointExtension></extensions></trkpt><trkpt lat="42.2098830342" lon="13.4171839803"><ele>1632.77</ele><time>2026-03-11T15:50:05Z</time><extensions><gpxtpx:TrackPointExtension><gpxtpx:atemp>2.9</gpxtpx:atemp></gpxtpx:TrackPointExtension></extensions></trkpt><trkpt lat="42.2098831180" lon="13.4171838965"><ele>1632.60</ele><time>2026-03-11T15:50:06Z</time><extensions><gpxtpx:TrackPointExtension><gpxtpx:atemp>2.9</gpxtpx:atemp></gpxtpx:TrackPointExtension></extensions></trkpt><trkpt lat="42.2098833695" lon="13.4171834774"><ele>1632.39</ele><time>2026-03-11T15:50:07Z</time><extensions><gpxtpx:TrackPointExtension><gpxtpx:atemp>2.9</gpxtpx:atemp></gpxtpx:TrackPointExtension></extensions></trkpt><trkpt lat="42.2098833695" lon="13.4171832260"><ele>1632.22</ele><time>2026-03-11T15:50:08Z</time><extensions><gpxtpx:TrackPointExtension><gpxtpx:atemp>2.9</gpxtpx:atemp></gpxtpx:TrackPointExtension></extensions></trkpt><trkpt lat="42.2098834533" lon="13.4171833936"><ele>1632.05</ele><time>2026-03-11T15:50:09Z</time><extensions><gpxtpx:TrackPointExtension><gpxtpx:atemp>2.9</gpxtpx:atemp></gpxtpx:TrackPointExtension></extensions></trkpt><trkpt lat="42.2098835371" lon="13.4171831422"><ele>1631.77</ele><time>2026-03-11T15:50:10Z</time><extensions><gpxtpx:TrackPointExtension><gpxtpx:atemp>2.9</gpxtpx:atemp></gpxtpx:TrackPointExtension></extensions></trkpt><trkpt lat="42.2098836210" lon="13.4171829745"><ele>1631.52</ele><time>2026-03-11T15:50:11Z</time><extensions><gpxtpx:TrackPointExtension><gpxtpx:atemp>2.9</gpxtpx:atemp></gpxtpx:TrackPointExtension></extensions></trkpt><trkpt lat="42.2098837886" lon="13.4171825554"><ele>1631.33</ele><time>2026-03-11T15:50:12Z</time><extensions><gpxtpx:TrackPointExtension><gpxtpx:atemp>2.9</gpxtpx:atemp></gpxtpx:TrackPointExtension></extensions></trkpt><trkpt lat="42.2098835371" lon="13.4171826392"><ele>1631.33</ele><time>2026-03-11T15:50:13Z</time><extensions><gpxtpx:TrackPointExtension><gpxtpx:atemp>2.9</gpxtpx:atemp></gpxtpx:TrackPointExtension></extensions></trkpt><trkpt lat="42.2098836210" lon="13.4171825554"><ele>1631.41</ele><time>2026-03-11T15:50:14Z</time><extensions><gpxtpx:TrackPointExtension><gpxtpx:atemp>2.9</gpxtpx:atemp></gpxtpx:TrackPointExtension></extensions></trkpt><trkpt lat="42.2098835371" lon="13.4171827231"><ele>1631.55</ele><time>2026-03-11T15:50:15Z</time><extensions><gpxtpx:TrackPointExtension><gpxtpx:atemp>2.9</gpxtpx:atemp></gpxtpx:TrackPointExtension></extensions></trkpt><trkpt lat="42.2098836210" lon="13.4171827231"><ele>1631.64</ele><time>2026-03-11T15:50:16Z</time><extensions><gpxtpx:TrackPointExtension><gpxtpx:atemp>2.9</gpxtpx:atemp></gpxtpx:TrackPointExtension></extensions></trkpt><trkpt lat="42.2098835371" lon="13.4171824716"><ele>1631.70</ele><time>2026-03-11T15:50:17Z</time><extensions><gpxtpx:TrackPointExtension><gpxtpx:atemp>2.9</gpxtpx:atemp></gpxtpx:TrackPointExtension></extensions></trkpt><trkpt lat="42.2098836210" lon="13.4171821363"><ele>1631.77</ele><time>2026-03-11T15:50:18Z</time><extensions><gpxtpx:TrackPointExtension><gpxtpx:atemp>2.9</gpxtpx:atemp></gpxtpx:TrackPointExtension></extensions></trkpt><trkpt lat="42.2098836210" lon="13.4171820525"><ele>1631.77</ele><time>2026-03-11T15:50:19Z</time><extensions><gpxtpx:TrackPointExtension><gpxtpx:atemp>2.9</gpxtpx:atemp></gpxtpx:TrackPointExtension></extensions></trkpt><trkpt lat="42.2098836210" lon="13.4171818849"><ele>1631.77</ele><time>2026-03-11T15:50:20Z</time><extensions><gpxtpx:TrackPointExtension><gpxtpx:atemp>2.9</gpxtpx:atemp></gpxtpx:TrackPointExtension></extensions></trkpt><trkpt lat="42.2098838724" lon="13.4171818849"><ele>1631.76</ele><time>2026-03-11T15:50:21Z</time><extensions><gpxtpx:TrackPointExtension><gpxtpx:atemp>2.9</gpxtpx:atemp></gpxtpx:TrackPointExtension></extensions></trkpt><trkpt lat="42.2098838724" lon="13.4171817172"><ele>1631.76</ele><time>2026-03-11T15:50:22Z</time><extensions><gpxtpx:TrackPointExtension><gpxtpx:atemp>2.9</gpxtpx:atemp></gpxtpx:TrackPointExtension></extensions></trkpt><trkpt lat="42.2098839562" lon="13.4171815496"><ele>1631.78</ele><time>2026-03-11T15:50:23Z</time><extensions><gpxtpx:TrackPointExtension><gpxtpx:atemp>2.9</gpxtpx:atemp></gpxtpx:TrackPointExtension></extensions></trkpt><trkpt lat="42.2098840401" lon="13.4171814658"><ele>1631.81</ele><time>2026-03-11T15:50:24Z</time><extensions><gpxtpx:TrackPointExtension><gpxtpx:atemp>2.9</gpxtpx:atemp></gpxtpx:TrackPointExtension></extensions></trkpt><trkpt lat="42.2098841239" lon="13.4171811305"><ele>1631.89</ele><time>2026-03-11T15:50:25Z</time><extensions><gpxtpx:TrackPointExtension><gpxtpx:atemp>2.9</gpxtpx:atemp></gpxtpx:TrackPointExtension></extensions></trkpt><trkpt lat="42.2098841239" lon="13.4171810467"><ele>1631.88</ele><time>2026-03-11T15:50:26Z</time><extensions><gpxtpx:TrackPointExtension><gpxtpx:atemp>2.9</gpxtpx:atemp></gpxtpx:TrackPointExtension></extensions></trkpt><trkpt lat="42.2098840401" lon="13.4171808790"><ele>1631.94</ele><time>2026-03-11T15:50:27Z</time><extensions><gpxtpx:TrackPointExtension><gpxtpx:atemp>2.9</gpxtpx:atemp></gpxtpx:TrackPointExtension></extensions></trkpt><trkpt lat="42.2098842915" lon="13.4171808790"><ele>1632.05</ele><time>2026-03-11T15:50:28Z</time><extensions><gpxtpx:TrackPointExtension><gpxtpx:atemp>2.9</gpxtpx:atemp></gpxtpx:TrackPointExtension></extensions></trkpt><trkpt lat="42.2098843753" lon="13.4171806276"><ele>1632.10</ele><time>2026-03-11T15:50:29Z</time><extensions><gpxtpx:TrackPointExtension><gpxtpx:atemp>2.9</gpxtpx:atemp></gpxtpx:TrackPointExtension></extensions></trkpt><trkpt lat="42.2098845430" lon="13.4171807952"><ele>1632.19</ele><time>2026-03-11T15:50:30Z</time><extensions><gpxtpx:TrackPointExtension><gpxtpx:atemp>2.9</gpxtpx:atemp></gpxtpx:TrackPointExtension></extensions></trkpt><trkpt lat="42.2098847944" lon="13.4171806276"><ele>1632.22</ele><time>2026-03-11T15:50:31Z</time><extensions><gpxtpx:TrackPointExtension><gpxtpx:atemp>2.9</gpxtpx:atemp></gpxtpx:TrackPointExtension></extensions></trkpt><trkpt lat="42.2098849621" lon="13.4171803761"><ele>1632.19</ele><time>2026-03-11T15:50:32Z</time><extensions><gpxtpx:TrackPointExtension><gpxtpx:atemp>2.9</gpxtpx:atemp></gpxtpx:TrackPointExtension></extensions></trkpt><trkpt lat="42.2098850459" lon="13.4171802923"><ele>1632.17</ele><time>2026-03-11T15:50:33Z</time><extensions><gpxtpx:TrackPointExtension><gpxtpx:atemp>2.9</gpxtpx:atemp></gpxtpx:TrackPointExtension></extensions></trkpt><trkpt lat="42.2098852973" lon="13.4171801247"><ele>1632.08</ele><time>2026-03-11T15:50:34Z</time><extensions><gpxtpx:TrackPointExtension><gpxtpx:atemp>3.0</gpxtpx:atemp></gpxtpx:TrackPointExtension></extensions></trkpt><trkpt lat="42.2098854650" lon="13.4171799570"><ele>1631.98</ele><time>2026-03-11T15:50:35Z</time><extensions><gpxtpx:TrackPointExtension><gpxtpx:atemp>3.0</gpxtpx:atemp></gpxtpx:TrackPointExtension></extensions></trkpt><trkpt lat="42.2098855488" lon="13.4171797894"><ele>1631.93</ele><time>2026-03-11T15:50:36Z</time><extensions><gpxtpx:TrackPointExtension><gpxtpx:atemp>3.0</gpxtpx:atemp></gpxtpx:TrackPointExtension></extensions></trkpt><trkpt lat="42.2098858841" lon="13.4171794541"><ele>1631.91</ele><time>2026-03-11T15:50:37Z</time><extensions><gpxtpx:TrackPointExtension><gpxtpx:atemp>3.0</gpxtpx:atemp></gpxtpx:TrackPointExtension></extensions></trkpt><trkpt lat="42.2098858841" lon="13.4171793703"><ele>1631.86</ele><time>2026-03-11T15:50:38Z</time><extensions><gpxtpx:TrackPointExtension><gpxtpx:atemp>3.0</gpxtpx:atemp></gpxtpx:TrackPointExtension></extensions></trkpt><trkpt lat="42.2098858841" lon="13.4171792865"><ele>1631.77</ele><time>2026-03-11T15:50:39Z</time><extensions><gpxtpx:TrackPointExtension><gpxtpx:atemp>3.0</gpxtpx:atemp></gpxtpx:TrackPointExtension></extensions></trkpt><trkpt lat="42.2098860517" lon="13.4171792865"><ele>1631.74</ele><time>2026-03-11T15:50:40Z</time><extensions><gpxtpx:TrackPointExtension><gpxtpx:atemp>3.0</gpxtpx:atemp></gpxtpx:TrackPointExtension></extensions></trkpt><trkpt lat="42.2098860517" lon="13.4171791188"><ele>1631.75</ele><time>2026-03-11T15:50:41Z</time><extensions><gpxtpx:TrackPointExtension><gpxtpx:atemp>3.0</gpxtpx:atemp></gpxtpx:TrackPointExtension></extensions></trkpt><trkpt lat="42.2098860517" lon="13.4171789512"><ele>1631.76</ele><time>2026-03-11T15:50:42Z</time><extensions><gpxtpx:TrackPointExtension><gpxtpx:atemp>3.0</gpxtpx:atemp></gpxtpx:TrackPointExtension></extensions></trkpt><trkpt lat="42.2098824475" lon="13.4171782807"><ele>1631.81</ele><time>2026-03-11T15:50:43Z</time><extensions><gpxtpx:TrackPointExtension><gpxtpx:atemp>3.0</gpxtpx:atemp></gpxtpx:TrackPointExtension></extensions></trkpt><trkpt lat="42.2098816931" lon="13.4171776939"><ele>1631.85</ele><time>2026-03-11T15:50:44Z</time><extensions><gpxtpx:TrackPointExtension><gpxtpx:atemp>3.0</gpxtpx:atemp></gpxtpx:TrackPointExtension></extensions></trkpt><trkpt lat="42.2098782565" lon="13.4171687253"><ele>1631.95</ele><time>2026-03-11T15:50:45Z</time><extensions><gpxtpx:TrackPointExtension><gpxtpx:atemp>3.0</gpxtpx:atemp></gpxtpx:TrackPointExtension></extensions></trkpt><trkpt lat="42.2098774184" lon="13.4171622712"><ele>1632.19</ele><time>2026-03-11T15:50:46Z</time><extensions><gpxtpx:TrackPointExtension><gpxtpx:atemp>3.0</gpxtpx:atemp></gpxtpx:TrackPointExtension></extensions></trkpt><trkpt lat="42.2098775860" lon="13.4171626903"><ele>1632.26</ele><time>2026-03-11T15:50:47Z</time><extensions><gpxtpx:TrackPointExtension><gpxtpx:atemp>3.0</gpxtpx:atemp></gpxtpx:TrackPointExtension></extensions></trkpt><trkpt lat="42.2098778374" lon="13.4171629418"><ele>1632.35</ele><time>2026-03-11T15:50:48Z</time><extensions><gpxtpx:TrackPointExtension><gpxtpx:atemp>3.0</gpxtpx:atemp></gpxtpx:TrackPointExtension></extensions></trkpt><trkpt lat="42.2098782565" lon="13.4171688929"><ele>1632.49</ele><time>2026-03-11T15:50:49Z</time><extensions><gpxtpx:TrackPointExtension><gpxtpx:atemp>3.0</gpxtpx:atemp></gpxtpx:TrackPointExtension></extensions></trkpt><trkpt lat="42.2098793462" lon="13.4171704855"><ele>1632.64</ele><time>2026-03-11T15:50:50Z</time><extensions><gpxtpx:TrackPointExtension><gpxtpx:atemp>3.0</gpxtpx:atemp></gpxtpx:TrackPointExtension></extensions></trkpt><trkpt lat="42.2098808549" lon="13.4171714913"><ele>1632.74</ele><time>2026-03-11T15:50:51Z</time><extensions><gpxtpx:TrackPointExtension><gpxtpx:atemp>3.0</gpxtpx:atemp></gpxtpx:TrackPointExtension></extensions></trkpt><trkpt lat="42.2098812740" lon="13.4171703178"><ele>1632.85</ele><time>2026-03-11T15:50:52Z</time><extensions><gpxtpx:TrackPointExtension><gpxtpx:atemp>3.0</gpxtpx:atemp></gpxtpx:TrackPointExtension></extensions></trkpt><trkpt lat="42.2098836210" lon="13.4171681385"><ele>1632.92</ele><time>2026-03-11T15:50:53Z</time><extensions><gpxtpx:TrackPointExtension><gpxtpx:atemp>3.0</gpxtpx:atemp></gpxtpx:TrackPointExtension></extensions></trkpt><trkpt lat="42.2098844592" lon="13.4171653725"><ele>1632.98</ele><time>2026-03-11T15:50:54Z</time><extensions><gpxtpx:TrackPointExtension><gpxtpx:atemp>3.0</gpxtpx:atemp></gpxtpx:TrackPointExtension></extensions></trkpt><trkpt lat="42.2098839562" lon="13.4171664622"><ele>1633.01</ele><time>2026-03-11T15:50:55Z</time><extensions><gpxtpx:TrackPointExtension><gpxtpx:atemp>3.0</gpxtpx:atemp></gpxtpx:TrackPointExtension></extensions></trkpt><trkpt lat="42.2098848782" lon="13.4171670489"><ele>1633.01</ele><time>2026-03-11T15:50:56Z</time><extensions><gpxtpx:TrackPointExtension><gpxtpx:atemp>3.0</gpxtpx:atemp></gpxtpx:TrackPointExtension></extensions></trkpt><trkpt lat="42.2098841239" lon="13.4171675518"><ele>1632.99</ele><time>2026-03-11T15:50:57Z</time><extensions><gpxtpx:TrackPointExtension><gpxtpx:atemp>3.0</gpxtpx:atemp></gpxtpx:TrackPointExtension></extensions></trkpt><trkpt lat="42.2098832857" lon="13.4171694797"><ele>1632.95</ele><time>2026-03-11T15:50:58Z</time><extensions><gpxtpx:TrackPointExtension><gpxtpx:atemp>3.0</gpxtpx:atemp></gpxtpx:TrackPointExtension></extensions></trkpt><trkpt lat="42.2098833695" lon="13.4171706531"><ele>1632.93</ele><time>2026-03-11T15:50:59Z</time><extensions><gpxtpx:TrackPointExtension><gpxtpx:atemp>3.0</gpxtpx:atemp></gpxtpx:TrackPointExtension></extensions></trkpt><trkpt lat="42.2098828666" lon="13.4171710722"><ele>1632.88</ele><time>2026-03-11T15:51:00Z</time><extensions><gpxtpx:TrackPointExtension><gpxtpx:atemp>3.0</gpxtpx:atemp></gpxtpx:TrackPointExtension></extensions></trkpt><trkpt lat="42.2098830342" lon="13.4171722457"><ele>1632.86</ele><time>2026-03-11T15:51:01Z</time><extensions><gpxtpx:TrackPointExtension><gpxtpx:atemp>3.0</gpxtpx:atemp></gpxtpx:TrackPointExtension></extensions></trkpt><trkpt lat="42.2098832857" lon="13.4171728324"><ele>1632.86</ele><time>2026-03-11T15:51:02Z</time><extensions><gpxtpx:TrackPointExtension><gpxtpx:atemp>3.0</gpxtpx:atemp></gpxtpx:TrackPointExtension></extensions></trkpt><trkpt lat="42.2098830342" lon="13.4171728324"><ele>1632.82</ele><time>2026-03-11T15:51:03Z</time><extensions><gpxtpx:TrackPointExtension><gpxtpx:atemp>3.0</gpxtpx:atemp></gpxtpx:TrackPointExtension></extensions></trkpt><trkpt lat="42.2098831180" lon="13.4171728324"><ele>1632.83</ele><time>2026-03-11T15:51:04Z</time><extensions><gpxtpx:TrackPointExtension><gpxtpx:atemp>3.0</gpxtpx:atemp></gpxtpx:TrackPointExtension></extensions></trkpt><trkpt lat="42.2098829504" lon="13.4171724971"><ele>1632.83</ele><time>2026-03-11T15:51:05Z</time><extensions><gpxtpx:TrackPointExtension><gpxtpx:atemp>3.0</gpxtpx:atemp></gpxtpx:TrackPointExtension></extensions></trkpt><trkpt lat="42.2098822799" lon="13.4171725810"><ele>1632.79</ele><time>2026-03-11T15:51:06Z</time><extensions><gpxtpx:TrackPointExtension><gpxtpx:atemp>3.0</gpxtpx:atemp></gpxtpx:TrackPointExtension></extensions></trkpt><trkpt lat="42.2098810226" lon="13.4171749279"><ele>1632.77</ele><time>2026-03-11T15:51:07Z</time><extensions><gpxtpx:TrackPointExtension><gpxtpx:atemp>3.0</gpxtpx:atemp></gpxtpx:TrackPointExtension></extensions></trkpt><trkpt lat="42.2098799329" lon="13.4171743412"><ele>1632.74</ele><time>2026-03-11T15:51:08Z</time><extensions><gpxtpx:TrackPointExtension><gpxtpx:atemp>3.0</gpxtpx:atemp></gpxtpx:TrackPointExtension></extensions></trkpt><trkpt lat="42.2098794300" lon="13.4171755984"><ele>1632.71</ele><time>2026-03-11T15:51:09Z</time><extensions><gpxtpx:TrackPointExtension><gpxtpx:atemp>3.0</gpxtpx:atemp></gpxtpx:TrackPointExtension></extensions></trkpt><trkpt lat="42.2098801844" lon="13.4171754308"><ele>1632.69</ele><time>2026-03-11T15:51:10Z</time><extensions><gpxtpx:TrackPointExtension><gpxtpx:atemp>3.0</gpxtpx:atemp></gpxtpx:TrackPointExtension></extensions></trkpt><trkpt lat="42.2098810226" lon="13.4171762690"><ele>1632.68</ele><time>2026-03-11T15:51:11Z</time><extensions><gpxtpx:TrackPointExtension><gpxtpx:atemp>3.0</gpxtpx:atemp></gpxtpx:TrackPointExtension></extensions></trkpt><trkpt lat="42.2098820284" lon="13.4171761852"><ele>1632.68</ele><time>2026-03-11T15:51:12Z</time><extensions><gpxtpx:TrackPointExtension><gpxtpx:atemp>3.0</gpxtpx:atemp></gpxtpx:TrackPointExtension></extensions></trkpt><trkpt lat="42.2098832857" lon="13.4171743412"><ele>1632.70</ele><time>2026-03-11T15:51:13Z</time><extensions><gpxtpx:TrackPointExtension><gpxtpx:atemp>3.0</gpxtpx:atemp></gpxtpx:TrackPointExtension></extensions></trkpt><trkpt lat="42.2098834533" lon="13.4171746764"><ele>1632.71</ele><time>2026-03-11T15:51:14Z</time><extensions><gpxtpx:TrackPointExtension><gpxtpx:atemp>3.0</gpxtpx:atemp></gpxtpx:TrackPointExtension></extensions></trkpt><trkpt lat="42.2098840401" lon="13.4171745926"><ele>1632.64</ele><time>2026-03-11T15:51:15Z</time><extensions><gpxtpx:TrackPointExtension><gpxtpx:atemp>3.0</gpxtpx:atemp></gpxtpx:TrackPointExtension></extensions></trkpt><trkpt lat="42.2098850459" lon="13.4171737544"><ele>1632.52</ele><time>2026-03-11T15:51:16Z</time><extensions><gpxtpx:TrackPointExtension><gpxtpx:atemp>3.0</gpxtpx:atemp></gpxtpx:TrackPointExtension></extensions></trkpt><trkpt lat="42.2098858841" lon="13.4171738382"><ele>1632.46</ele><time>2026-03-11T15:51:17Z</time><extensions><gpxtpx:TrackPointExtension><gpxtpx:atemp>3.0</gpxtpx:atemp></gpxtpx:TrackPointExtension></extensions></trkpt><trkpt lat="42.2098866384" lon="13.4171736706"><ele>1632.33</ele><time>2026-03-11T15:51:18Z</time><extensions><gpxtpx:TrackPointExtension><gpxtpx:atemp>3.0</gpxtpx:atemp></gpxtpx:TrackPointExtension></extensions></trkpt><trkpt lat="42.2098879796" lon="13.4171740897"><ele>1632.19</ele><time>2026-03-11T15:51:19Z</time><extensions><gpxtpx:TrackPointExtension><gpxtpx:atemp>3.0</gpxtpx:atemp></gpxtpx:TrackPointExtension></extensions></trkpt><trkpt lat="42.2098849621" lon="13.4171728324"><ele>1632.11</ele><time>2026-03-11T15:51:20Z</time><extensions><gpxtpx:TrackPointExtension><gpxtpx:atemp>3.0</gpxtpx:atemp></gpxtpx:TrackPointExtension></extensions></trkpt><trkpt lat="42.2098835371" lon="13.4171685576"><ele>1632.24</ele><time>2026-03-11T15:51:21Z</time><extensions><gpxtpx:TrackPointExtension><gpxtpx:atemp>3.0</gpxtpx:atemp></gpxtpx:TrackPointExtension></extensions></trkpt><trkpt lat="42.2098840401" lon="13.4171698987"><ele>1632.49</ele><time>2026-03-11T15:51:22Z</time><extensions><gpxtpx:TrackPointExtension><gpxtpx:atemp>3.0</gpxtpx:atemp></gpxtpx:TrackPointExtension></extensions></trkpt><trkpt lat="42.2098856326" lon="13.4171723295"><ele>1632.75</ele><time>2026-03-11T15:51:23Z</time><extensions><gpxtpx:TrackPointExtension><gpxtpx:atemp>3.0</gpxtpx:atemp></gpxtpx:TrackPointExtension></extensions></trkpt><trkpt lat="42.2098858841" lon="13.4171735868"><ele>1632.88</ele><time>2026-03-11T15:51:24Z</time><extensions><gpxtpx:TrackPointExtension><gpxtpx:atemp>3.0</gpxtpx:atemp></gpxtpx:TrackPointExtension></extensions></trkpt><trkpt lat="42.2098861355" lon="13.4171738382"><ele>1632.96</ele><time>2026-03-11T15:51:25Z</time><extensions><gpxtpx:TrackPointExtension><gpxtpx:atemp>3.0</gpxtpx:atemp></gpxtpx:TrackPointExtension></extensions></trkpt><trkpt lat="42.2098856326" lon="13.4171746764"><ele>1632.94</ele><time>2026-03-11T15:51:26Z</time><extensions><gpxtpx:TrackPointExtension><gpxtpx:atemp>3.0</gpxtpx:atemp></gpxtpx:TrackPointExtension></extensions></trkpt><trkpt lat="42.2098891530" lon="13.4171723295"><ele>1632.88</ele><time>2026-03-11T15:51:27Z</time><extensions><gpxtpx:TrackPointExtension><gpxtpx:atemp>3.0</gpxtpx:atemp></gpxtpx:TrackPointExtension></extensions></trkpt><trkpt lat="42.2098913323" lon="13.4171721619"><ele>1632.80</ele><time>2026-03-11T15:51:28Z</time><extensions><gpxtpx:TrackPointExtension><gpxtpx:atemp>3.0</gpxtpx:atemp></gpxtpx:TrackPointExtension></extensions></trkpt><trkpt lat="42.2098906618" lon="13.4171737544"><ele>1632.76</ele><time>2026-03-11T15:51:29Z</time><extensions><gpxtpx:TrackPointExtension><gpxtpx:atemp>3.0</gpxtpx:atemp></gpxtpx:TrackPointExtension></extensions></trkpt><trkpt lat="42.2098907456" lon="13.4171767719"><ele>1632.74</ele><time>2026-03-11T15:51:30Z</time><extensions><gpxtpx:TrackPointExtension><gpxtpx:atemp>3.0</gpxtpx:atemp></gpxtpx:TrackPointExtension></extensions></trkpt><trkpt lat="42.2098915000" lon="13.4171771910"><ele>1632.72</ele><time>2026-03-11T15:51:31Z</time><extensions><gpxtpx:TrackPointExtension><gpxtpx:atemp>3.0</gpxtpx:atemp></gpxtpx:TrackPointExtension></extensions></trkpt><trkpt lat="42.2098903265" lon="13.4171790350"><ele>1632.71</ele><time>2026-03-11T15:51:32Z</time><extensions><gpxtpx:TrackPointExtension><gpxtpx:atemp>3.0</gpxtpx:atemp></gpxtpx:TrackPointExtension></extensions></trkpt><trkpt lat="42.2098894883" lon="13.4171811305"><ele>1632.70</ele><time>2026-03-11T15:51:33Z</time><extensions><gpxtpx:TrackPointExtension><gpxtpx:atemp>3.0</gpxtpx:atemp></gpxtpx:TrackPointExtension></extensions></trkpt><trkpt lat="42.2098896559" lon="13.4171816334"><ele>1632.67</ele><time>2026-03-11T15:51:34Z</time><extensions><gpxtpx:TrackPointExtension><gpxtpx:atemp>3.0</gpxtpx:atemp></gpxtpx:TrackPointExtension></extensions></trkpt><trkpt lat="42.2098902427" lon="13.4171813820"><ele>1632.65</ele><time>2026-03-11T15:51:35Z</time><extensions><gpxtpx:TrackPointExtension><gpxtpx:atemp>3.0</gpxtpx:atemp></gpxtpx:TrackPointExtension></extensions></trkpt><trkpt lat="42.2098899912" lon="13.4171827231"><ele>1632.65</ele><time>2026-03-11T15:51:36Z</time><extensions><gpxtpx:TrackPointExtension><gpxtpx:atemp>3.0</gpxtpx:atemp></gpxtpx:TrackPointExtension></extensions></trkpt><trkpt lat="42.2098898236" lon="13.4171817172"><ele>1632.65</ele><time>2026-03-11T15:51:37Z</time><extensions><gpxtpx:TrackPointExtension><gpxtpx:atemp>3.0</gpxtpx:atemp></gpxtpx:TrackPointExtension></extensions></trkpt><trkpt lat="42.2098905779" lon="13.4171808790"><ele>1632.66</ele><time>2026-03-11T15:51:38Z</time><extensions><gpxtpx:TrackPointExtension><gpxtpx:atemp>3.0</gpxtpx:atemp></gpxtpx:TrackPointExtension></extensions></trkpt><trkpt lat="42.2098912485" lon="13.4171801247"><ele>1632.67</ele><time>2026-03-11T15:51:39Z</time><extensions><gpxtpx:TrackPointExtension><gpxtpx:atemp>3.0</gpxtpx:atemp></gpxtpx:TrackPointExtension></extensions></trkpt><trkpt lat="42.2098915000" lon="13.4171794541"><ele>1632.67</ele><time>2026-03-11T15:51:40Z</time><extensions><gpxtpx:TrackPointExtension><gpxtpx:atemp>3.0</gpxtpx:atemp></gpxtpx:TrackPointExtension></extensions></trkpt><trkpt lat="42.2098917514" lon="13.4171776939"><ele>1632.69</ele><time>2026-03-11T15:51:41Z</time><extensions><gpxtpx:TrackPointExtension><gpxtpx:atemp>3.0</gpxtpx:atemp></gpxtpx:TrackPointExtension></extensions></trkpt><trkpt lat="42.2098913323" lon="13.4171790350"><ele>1632.72</ele><time>2026-03-11T15:51:42Z</time><extensions><gpxtpx:TrackPointExtension><gpxtpx:atemp>3.0</gpxtpx:atemp></gpxtpx:TrackPointExtension></extensions></trkpt><trkpt lat="42.2098913323" lon="13.4171786997"><ele>1632.74</ele><time>2026-03-11T15:51:43Z</time><extensions><gpxtpx:TrackPointExtension><gpxtpx:atemp>3.0</gpxtpx:atemp></gpxtpx:TrackPointExtension></extensions></trkpt><trkpt lat="42.2098917514" lon="13.4171786997"><ele>1632.76</ele><time>2026-03-11T15:51:44Z</time><extensions><gpxtpx:TrackPointExtension><gpxtpx:atemp>3.0</gpxtpx:atemp></gpxtpx:TrackPointExtension></extensions></trkpt><trkpt lat="42.2098913323" lon="13.4171787836"><ele>1632.77</ele><time>2026-03-11T15:51:45Z</time><extensions><gpxtpx:TrackPointExtension><gpxtpx:atemp>3.0</gpxtpx:atemp></gpxtpx:TrackPointExtension></extensions></trkpt><trkpt lat="42.2098912485" lon="13.4171783645"><ele>1632.78</ele><time>2026-03-11T15:51:46Z</time><extensions><gpxtpx:TrackPointExtension><gpxtpx:atemp>3.0</gpxtpx:atemp></gpxtpx:TrackPointExtension></extensions></trkpt><trkpt lat="42.2098912485" lon="13.4171784483"><ele>1632.78</ele><time>2026-03-11T15:51:47Z</time><extensions><gpxtpx:TrackPointExtension><gpxtpx:atemp>3.0</gpxtpx:atemp></gpxtpx:TrackPointExtension></extensions></trkpt><trkpt lat="42.2098912485" lon="13.4171788674"><ele>1632.78</ele><time>2026-03-11T15:51:48Z</time><extensions><gpxtpx:TrackPointExtension><gpxtpx:atemp>3.0</gpxtpx:atemp></gpxtpx:TrackPointExtension></extensions></trkpt><trkpt lat="42.2098915838" lon="13.4171783645"><ele>1632.78</ele><time>2026-03-11T15:51:49Z</time><extensions><gpxtpx:TrackPointExtension><gpxtpx:atemp>3.0</gpxtpx:atemp></gpxtpx:TrackPointExtension></extensions></trkpt><trkpt lat="42.2098916676" lon="13.4171786997"><ele>1632.78</ele><time>2026-03-11T15:51:50Z</time><extensions><gpxtpx:TrackPointExtension><gpxtpx:atemp>3.0</gpxtpx:atemp></gpxtpx:TrackPointExtension></extensions></trkpt><trkpt lat="42.2098910809" lon="13.4171778616"><ele>1632.78</ele><time>2026-03-11T15:51:51Z</time><extensions><gpxtpx:TrackPointExtension><gpxtpx:atemp>3.0</gpxtpx:atemp></gpxtpx:TrackPointExtension></extensions></trkpt><trkpt lat="42.2098888177" lon="13.4171778616"><ele>1632.76</ele><time>2026-03-11T15:51:52Z</time><extensions><gpxtpx:TrackPointExtension><gpxtpx:atemp>3.0</gpxtpx:atemp></gpxtpx:TrackPointExtension></extensions></trkpt><trkpt lat="42.2098888177" lon="13.4171773586"><ele>1632.73</ele><time>2026-03-11T15:51:53Z</time><extensions><gpxtpx:TrackPointExtension><gpxtpx:atemp>3.0</gpxtpx:atemp></gpxtpx:TrackPointExtension></extensions></trkpt><trkpt lat="42.2098888177" lon="13.4171767719"><ele>1632.72</ele><time>2026-03-11T15:51:54Z</time><extensions><gpxtpx:TrackPointExtension><gpxtpx:atemp>3.0</gpxtpx:atemp></gpxtpx:TrackPointExtension></extensions></trkpt><trkpt lat="42.2098890692" lon="13.4171763528"><ele>1632.70</ele><time>2026-03-11T15:51:55Z</time><extensions><gpxtpx:TrackPointExtension><gpxtpx:atemp>3.0</gpxtpx:atemp></gpxtpx:TrackPointExtension></extensions></trkpt><trkpt lat="42.2098887339" lon="13.4171764366"><ele>1632.66</ele><time>2026-03-11T15:51:56Z</time><extensions><gpxtpx:TrackPointExtension><gpxtpx:atemp>3.0</gpxtpx:atemp></gpxtpx:TrackPointExtension></extensions></trkpt><trkpt lat="42.2098886501" lon="13.4171759337"><ele>1632.64</ele><time>2026-03-11T15:51:57Z</time><extensions><gpxtpx:TrackPointExtension><gpxtpx:atemp>3.0</gpxtpx:atemp></gpxtpx:TrackPointExtension></extensions></trkpt><trkpt lat="42.2098878957" lon="13.4171762690"><ele>1632.64</ele><time>2026-03-11T15:51:58Z</time><extensions><gpxtpx:TrackPointExtension><gpxtpx:atemp>3.0</gpxtpx:atemp></gpxtpx:TrackPointExtension></extensions></trkpt><trkpt lat="42.2098877281" lon="13.4171761852"><ele>1632.64</ele><time>2026-03-11T15:51:59Z</time><extensions><gpxtpx:TrackPointExtension><gpxtpx:atemp>3.0</gpxtpx:atemp></gpxtpx:TrackPointExtension></extensions></trkpt><trkpt lat="42.2098863870" lon="13.4171784483"><ele>1632.62</ele><time>2026-03-11T15:52:00Z</time><extensions><gpxtpx:TrackPointExtension><gpxtpx:atemp>3.0</gpxtpx:atemp></gpxtpx:TrackPointExtension></extensions></trkpt><trkpt lat="42.2098852973" lon="13.4171803761"><ele>1632.61</ele><time>2026-03-11T15:52:01Z</time><extensions><gpxtpx:TrackPointExtension><gpxtpx:atemp>3.0</gpxtpx:atemp></gpxtpx:TrackPointExtension></extensions></trkpt><trkpt lat="42.2098837886" lon="13.4171801247"><ele>1632.60</ele><time>2026-03-11T15:52:02Z</time><extensions><gpxtpx:TrackPointExtension><gpxtpx:atemp>3.0</gpxtpx:atemp></gpxtpx:TrackPointExtension></extensions></trkpt><trkpt lat="42.2098822799" lon="13.4171795379"><ele>1632.60</ele><time>2026-03-11T15:52:03Z</time><extensions><gpxtpx:TrackPointExtension><gpxtpx:atemp>3.0</gpxtpx:atemp></gpxtpx:TrackPointExtension></extensions></trkpt><trkpt lat="42.2098803520" lon="13.4171812981"><ele>1632.59</ele><time>2026-03-11T15:52:04Z</time><extensions><gpxtpx:TrackPointExtension><gpxtpx:atemp>3.0</gpxtpx:atemp></gpxtpx:TrackPointExtension></extensions></trkpt><trkpt lat="42.2098791786" lon="13.4171821363"><ele>1632.57</ele><time>2026-03-11T15:52:05Z</time><extensions><gpxtpx:TrackPointExtension><gpxtpx:atemp>3.0</gpxtpx:atemp></gpxtpx:TrackPointExtension></extensions></trkpt><trkpt lat="42.2098778374" lon="13.4171834774"><ele>1632.57</ele><time>2026-03-11T15:52:06Z</time><extensions><gpxtpx:TrackPointExtension><gpxtpx:atemp>3.0</gpxtpx:atemp></gpxtpx:TrackPointExtension></extensions></trkpt><trkpt lat="42.2098770831" lon="13.4171842318"><ele>1632.54</ele><time>2026-03-11T15:52:07Z</time><extensions><gpxtpx:TrackPointExtension><gpxtpx:atemp>3.0</gpxtpx:atemp></gpxtpx:TrackPointExtension></extensions></trkpt><trkpt lat="42.2098752391" lon="13.4171864949"><ele>1632.53</ele><time>2026-03-11T15:52:08Z</time><extensions><gpxtpx:TrackPointExtension><gpxtpx:atemp>3.0</gpxtpx:atemp></gpxtpx:TrackPointExtension></extensions></trkpt><trkpt lat="42.2098753229" lon="13.4171889257"><ele>1632.52</ele><time>2026-03-11T15:52:09Z</time><extensions><gpxtpx:TrackPointExtension><gpxtpx:atemp>3.0</gpxtpx:atemp></gpxtpx:TrackPointExtension></extensions></trkpt><trkpt lat="42.2098742332" lon="13.4171889257"><ele>1632.51</ele><time>2026-03-11T15:52:10Z</time><extensions><gpxtpx:TrackPointExtension><gpxtpx:atemp>3.0</gpxtpx:atemp></gpxtpx:TrackPointExtension></extensions></trkpt><trkpt lat="42.2098747361" lon="13.4171885904"><ele>1632.51</ele><time>2026-03-11T15:52:11Z</time><extensions><gpxtpx:TrackPointExtension><gpxtpx:atemp>3.0</gpxtpx:atemp></gpxtpx:TrackPointExtension></extensions></trkpt><trkpt lat="42.2098744847" lon="13.4171880875"><ele>1632.51</ele><time>2026-03-11T15:52:12Z</time><extensions><gpxtpx:TrackPointExtension><gpxtpx:atemp>3.0</gpxtpx:atemp></gpxtpx:TrackPointExtension></extensions></trkpt><trkpt lat="42.2098741494" lon="13.4171876684"><ele>1632.51</ele><time>2026-03-11T15:52:13Z</time><extensions><gpxtpx:TrackPointExtension><gpxtpx:atemp>3.0</gpxtpx:atemp></gpxtpx:TrackPointExtension></extensions></trkpt><trkpt lat="42.2098738980" lon="13.4171874169"><ele>1632.52</ele><time>2026-03-11T15:52:14Z</time><extensions><gpxtpx:TrackPointExtension><gpxtpx:atemp>3.0</gpxtpx:atemp></gpxtpx:TrackPointExtension></extensions></trkpt><trkpt lat="42.2098717187" lon="13.4171927813"><ele>1632.53</ele><time>2026-03-11T15:52:15Z</time><extensions><gpxtpx:TrackPointExtension><gpxtpx:atemp>3.0</gpxtpx:atemp></gpxtpx:TrackPointExtension></extensions></trkpt><trkpt lat="42.2098696232" lon="13.4171970561"><ele>1632.55</ele><time>2026-03-11T15:52:16Z</time><extensions><gpxtpx:TrackPointExtension><gpxtpx:atemp>3.0</gpxtpx:atemp></gpxtpx:TrackPointExtension></extensions></trkpt><trkpt lat="42.2098699585" lon="13.4171989840"><ele>1632.59</ele><time>2026-03-11T15:52:17Z</time><extensions><gpxtpx:TrackPointExtension><gpxtpx:atemp>3.0</gpxtpx:atemp></gpxtpx:TrackPointExtension></extensions></trkpt><trkpt lat="42.2098707967" lon="13.4171978943"><ele>1632.59</ele><time>2026-03-11T15:52:18Z</time><extensions><gpxtpx:TrackPointExtension><gpxtpx:atemp>3.0</gpxtpx:atemp></gpxtpx:TrackPointExtension></extensions></trkpt><trkpt lat="42.2098701261" lon="13.4171970561"><ele>1632.59</ele><time>2026-03-11T15:52:19Z</time><extensions><gpxtpx:TrackPointExtension><gpxtpx:atemp>3.0</gpxtpx:atemp></gpxtpx:TrackPointExtension></extensions></trkpt><trkpt lat="42.2098693717" lon="13.4171944577"><ele>1632.59</ele><time>2026-03-11T15:52:20Z</time><extensions><gpxtpx:TrackPointExtension><gpxtpx:atemp>3.0</gpxtpx:atemp></gpxtpx:TrackPointExtension></extensions></trkpt><trkpt lat="42.2098677792" lon="13.4171972238"><ele>1632.58</ele><time>2026-03-11T15:52:21Z</time><extensions><gpxtpx:TrackPointExtension><gpxtpx:atemp>3.0</gpxtpx:atemp></gpxtpx:TrackPointExtension></extensions></trkpt><trkpt lat="42.2098689526" lon="13.4171970561"><ele>1632.54</ele><time>2026-03-11T15:52:22Z</time><extensions><gpxtpx:TrackPointExtension><gpxtpx:atemp>3.0</gpxtpx:atemp></gpxtpx:TrackPointExtension></extensions></trkpt><trkpt lat="42.2098688688" lon="13.4171961341"><ele>1632.49</ele><time>2026-03-11T15:52:23Z</time><extensions><gpxtpx:TrackPointExtension><gpxtpx:atemp>3.0</gpxtpx:atemp></gpxtpx:TrackPointExtension></extensions></trkpt><trkpt lat="42.2098693717" lon="13.4171942901"><ele>1632.47</ele><time>2026-03-11T15:52:24Z</time><extensions><gpxtpx:TrackPointExtension><gpxtpx:atemp>3.0</gpxtpx:atemp></gpxtpx:TrackPointExtension></extensions></trkpt><trkpt lat="42.2098710481" lon="13.4171927813"><ele>1632.45</ele><time>2026-03-11T15:52:25Z</time><extensions><gpxtpx:TrackPointExtension><gpxtpx:atemp>3.0</gpxtpx:atemp></gpxtpx:TrackPointExtension></extensions></trkpt><trkpt lat="42.2098714672" lon="13.4171935357"><ele>1632.45</ele><time>2026-03-11T15:52:26Z</time><extensions><gpxtpx:TrackPointExtension><gpxtpx:atemp>3.0</gpxtpx:atemp></gpxtpx:TrackPointExtension></extensions></trkpt><trkpt lat="42.2098710481" lon="13.4171931166"><ele>1632.45</ele><time>2026-03-11T15:52:27Z</time><extensions><gpxtpx:TrackPointExtension><gpxtpx:atemp>3.0</gpxtpx:atemp></gpxtpx:TrackPointExtension></extensions></trkpt><trkpt lat="42.2098717187" lon="13.4171923622"><ele>1632.45</ele><time>2026-03-11T15:52:28Z</time><extensions><gpxtpx:TrackPointExtension><gpxtpx:atemp>3.0</gpxtpx:atemp></gpxtpx:TrackPointExtension></extensions></trkpt><trkpt lat="42.2098719701" lon="13.4171924461"><ele>1632.47</ele><time>2026-03-11T15:52:29Z</time><extensions><gpxtpx:TrackPointExtension><gpxtpx:atemp>3.0</gpxtpx:atemp></gpxtpx:TrackPointExtension></extensions></trkpt><trkpt lat="42.2098725569" lon="13.4171925299"><ele>1632.56</ele><time>2026-03-11T15:52:30Z</time><extensions><gpxtpx:TrackPointExtension><gpxtpx:atemp>3.0</gpxtpx:atemp></gpxtpx:TrackPointExtension></extensions></trkpt><trkpt lat="42.2098717187" lon="13.4171942901"><ele>1632.59</ele><time>2026-03-11T15:52:31Z</time><extensions><gpxtpx:TrackPointExtension><gpxtpx:atemp>3.0</gpxtpx:atemp></gpxtpx:TrackPointExtension></extensions></trkpt><trkpt lat="42.2098722216" lon="13.4171935357"><ele>1632.60</ele><time>2026-03-11T15:52:32Z</time><extensions><gpxtpx:TrackPointExtension><gpxtpx:atemp>3.0</gpxtpx:atemp></gpxtpx:TrackPointExtension></extensions></trkpt><trkpt lat="42.2098739818" lon="13.4171918593"><ele>1632.60</ele><time>2026-03-11T15:52:33Z</time><extensions><gpxtpx:TrackPointExtension><gpxtpx:atemp>3.0</gpxtpx:atemp></gpxtpx:TrackPointExtension></extensions></trkpt><trkpt lat="42.2098758258" lon="13.4171907697"><ele>1632.60</ele><time>2026-03-11T15:52:34Z</time><extensions><gpxtpx:TrackPointExtension><gpxtpx:atemp>3.0</gpxtpx:atemp></gpxtpx:TrackPointExtension></extensions></trkpt><trkpt lat="42.2098761611" lon="13.4171898477"><ele>1632.60</ele><time>2026-03-11T15:52:35Z</time><extensions><gpxtpx:TrackPointExtension><gpxtpx:atemp>3.0</gpxtpx:atemp></gpxtpx:TrackPointExtension></extensions></trkpt><trkpt lat="42.2098760772" lon="13.4171903506"><ele>1632.60</ele><time>2026-03-11T15:52:36Z</time><extensions><gpxtpx:TrackPointExtension><gpxtpx:atemp>3.0</gpxtpx:atemp></gpxtpx:TrackPointExtension></extensions></trkpt><trkpt lat="42.2098768316" lon="13.4171895962"><ele>1632.59</ele><time>2026-03-11T15:52:37Z</time><extensions><gpxtpx:TrackPointExtension><gpxtpx:atemp>3.0</gpxtpx:atemp></gpxtpx:TrackPointExtension></extensions></trkpt><trkpt lat="42.2098767478" lon="13.4171896800"><ele>1632.58</ele><time>2026-03-11T15:52:38Z</time><extensions><gpxtpx:TrackPointExtension><gpxtpx:atemp>3.0</gpxtpx:atemp></gpxtpx:TrackPointExtension></extensions></trkpt><trkpt lat="42.2098766640" lon="13.4171893448"><ele>1632.56</ele><time>2026-03-11T15:52:39Z</time><extensions><gpxtpx:TrackPointExtension><gpxtpx:atemp>3.0</gpxtpx:atemp></gpxtpx:TrackPointExtension></extensions></trkpt><trkpt lat="42.2098762449" lon="13.4171890933"><ele>1632.52</ele><time>2026-03-11T15:52:40Z</time><extensions><gpxtpx:TrackPointExtension><gpxtpx:atemp>3.0</gpxtpx:atemp></gpxtpx:TrackPointExtension></extensions></trkpt><trkpt lat="42.2098747361" lon="13.4171901830"><ele>1632.50</ele><time>2026-03-11T15:52:41Z</time><extensions><gpxtpx:TrackPointExtension><gpxtpx:atemp>3.0</gpxtpx:atemp></gpxtpx:TrackPointExtension></extensions></trkpt><trkpt lat="42.2098750714" lon="13.4171896800"><ele>1632.52</ele><time>2026-03-11T15:52:42Z</time><extensions><gpxtpx:TrackPointExtension><gpxtpx:atemp>3.0</gpxtpx:atemp></gpxtpx:TrackPointExtension></extensions></trkpt><trkpt lat="42.2098757420" lon="13.4171893448"><ele>1632.61</ele><time>2026-03-11T15:52:43Z</time><extensions><gpxtpx:TrackPointExtension><gpxtpx:atemp>3.0</gpxtpx:atemp></gpxtpx:TrackPointExtension></extensions></trkpt><trkpt lat="42.2098758258" lon="13.4171891771"><ele>1632.72</ele><time>2026-03-11T15:52:44Z</time><extensions><gpxtpx:TrackPointExtension><gpxtpx:atemp>3.0</gpxtpx:atemp></gpxtpx:TrackPointExtension></extensions></trkpt><trkpt lat="42.2098772507" lon="13.4171862435"><ele>1632.79</ele><time>2026-03-11T15:52:45Z</time><extensions><gpxtpx:TrackPointExtension><gpxtpx:atemp>3.0</gpxtpx:atemp></gpxtpx:TrackPointExtension></extensions></trkpt><trkpt lat="42.2098771669" lon="13.4171858244"><ele>1632.84</ele><time>2026-03-11T15:52:46Z</time><extensions><gpxtpx:TrackPointExtension><gpxtpx:atemp>3.0</gpxtpx:atemp></gpxtpx:TrackPointExtension></extensions></trkpt><trkpt lat="42.2098781727" lon="13.4171872493"><ele>1632.86</ele><time>2026-03-11T15:52:47Z</time><extensions><gpxtpx:TrackPointExtension><gpxtpx:atemp>3.0</gpxtpx:atemp></gpxtpx:TrackPointExtension></extensions></trkpt><trkpt lat="42.2098769993" lon="13.4171892609"><ele>1632.86</ele><time>2026-03-11T15:52:48Z</time><extensions><gpxtpx:TrackPointExtension><gpxtpx:atemp>3.0</gpxtpx:atemp></gpxtpx:TrackPointExtension></extensions></trkpt><trkpt lat="42.2098761611" lon="13.4171894286"><ele>1632.84</ele><time>2026-03-11T15:52:49Z</time><extensions><gpxtpx:TrackPointExtension><gpxtpx:atemp>3.0</gpxtpx:atemp></gpxtpx:TrackPointExtension></extensions></trkpt><trkpt lat="42.2098756582" lon="13.4171902668"><ele>1632.83</ele><time>2026-03-11T15:52:50Z</time><extensions><gpxtpx:TrackPointExtension><gpxtpx:atemp>3.0</gpxtpx:atemp></gpxtpx:TrackPointExtension></extensions></trkpt><trkpt lat="42.2098742332" lon="13.4171894286"><ele>1632.81</ele><time>2026-03-11T15:52:51Z</time><extensions><gpxtpx:TrackPointExtension><gpxtpx:atemp>3.0</gpxtpx:atemp></gpxtpx:TrackPointExtension></extensions></trkpt><trkpt lat="42.2098751552" lon="13.4171878360"><ele>1632.76</ele><time>2026-03-11T15:52:52Z</time><extensions><gpxtpx:TrackPointExtension><gpxtpx:atemp>3.0</gpxtpx:atemp></gpxtpx:TrackPointExtension></extensions></trkpt><trkpt lat="42.2098746523" lon="13.4171869978"><ele>1632.74</ele><time>2026-03-11T15:52:53Z</time><extensions><gpxtpx:TrackPointExtension><gpxtpx:atemp>3.0</gpxtpx:atemp></gpxtpx:TrackPointExtension></extensions></trkpt><trkpt lat="42.2098745685" lon="13.4171867464"><ele>1632.74</ele><time>2026-03-11T15:52:54Z</time><extensions><gpxtpx:TrackPointExtension><gpxtpx:atemp>3.0</gpxtpx:atemp></gpxtpx:TrackPointExtension></extensions></trkpt><trkpt lat="42.2098748200" lon="13.4171874169"><ele>1632.74</ele><time>2026-03-11T15:52:55Z</time><extensions><gpxtpx:TrackPointExtension><gpxtpx:atemp>3.0</gpxtpx:atemp></gpxtpx:TrackPointExtension></extensions></trkpt><trkpt lat="42.2098746523" lon="13.4171870816"><ele>1632.71</ele><time>2026-03-11T15:52:56Z</time><extensions><gpxtpx:TrackPointExtension><gpxtpx:atemp>3.0</gpxtpx:atemp></gpxtpx:TrackPointExtension></extensions></trkpt><trkpt lat="42.2098754905" lon="13.4171797894"><ele>1632.67</ele><time>2026-03-11T15:52:57Z</time><extensions><gpxtpx:TrackPointExtension><gpxtpx:atemp>3.0</gpxtpx:atemp></gpxtpx:TrackPointExtension></extensions></trkpt><trkpt lat="42.2098771669" lon="13.4171777777"><ele>1632.63</ele><time>2026-03-11T15:52:58Z</time><extensions><gpxtpx:TrackPointExtension><gpxtpx:atemp>3.0</gpxtpx:atemp></gpxtpx:TrackPointExtension></extensions></trkpt><trkpt lat="42.2098768316" lon="13.4171750955"><ele>1632.61</ele><time>2026-03-11T15:52:59Z</time><extensions><gpxtpx:TrackPointExtension><gpxtpx:atemp>3.0</gpxtpx:atemp></gpxtpx:TrackPointExtension></extensions></trkpt><trkpt lat="42.2098768316" lon="13.4171743412"><ele>1632.60</ele><time>2026-03-11T15:53:00Z</time><extensions><gpxtpx:TrackPointExtension><gpxtpx:atemp>3.0</gpxtpx:atemp></gpxtpx:TrackPointExtension></extensions></trkpt><trkpt lat="42.2098766640" lon="13.4171739221"><ele>1632.59</ele><time>2026-03-11T15:53:01Z</time><extensions><gpxtpx:TrackPointExtension><gpxtpx:atemp>3.0</gpxtpx:atemp></gpxtpx:TrackPointExtension></extensions></trkpt><trkpt lat="42.2098688688" lon="13.4171759337"><ele>1632.59</ele><time>2026-03-11T15:53:02Z</time><extensions><gpxtpx:TrackPointExtension><gpxtpx:atemp>3.0</gpxtpx:atemp></gpxtpx:TrackPointExtension></extensions></trkpt><trkpt lat="42.2098671924" lon="13.4171788674"><ele>1632.58</ele><time>2026-03-11T15:53:03Z</time><extensions><gpxtpx:TrackPointExtension><gpxtpx:atemp>3.0</gpxtpx:atemp></gpxtpx:TrackPointExtension></extensions></trkpt><trkpt lat="42.2098705452" lon="13.4171791188"><ele>1632.57</ele><time>2026-03-11T15:53:04Z</time><extensions><gpxtpx:TrackPointExtension><gpxtpx:atemp>3.0</gpxtpx:atemp></gpxtpx:TrackPointExtension></extensions></trkpt><trkpt lat="42.2098696232" lon="13.4171826392"><ele>1632.55</ele><time>2026-03-11T15:53:05Z</time><extensions><gpxtpx:TrackPointExtension><gpxtpx:atemp>3.0</gpxtpx:atemp></gpxtpx:TrackPointExtension></extensions></trkpt><trkpt lat="42.2098692879" lon="13.4171827231"><ele>1632.54</ele><time>2026-03-11T15:53:06Z</time><extensions><gpxtpx:TrackPointExtension><gpxtpx:atemp>3.0</gpxtpx:atemp></gpxtpx:TrackPointExtension></extensions></trkpt><trkpt lat="42.2098690365" lon="13.4171828907"><ele>1632.51</ele><time>2026-03-11T15:53:07Z</time><extensions><gpxtpx:TrackPointExtension><gpxtpx:atemp>3.0</gpxtpx:atemp></gpxtpx:TrackPointExtension></extensions></trkpt><trkpt lat="42.2098687850" lon="13.4171836451"><ele>1632.49</ele><time>2026-03-11T15:53:08Z</time><extensions><gpxtpx:TrackPointExtension><gpxtpx:atemp>3.0</gpxtpx:atemp></gpxtpx:TrackPointExtension></extensions></trkpt><trkpt lat="42.2098697908" lon="13.4171823878"><ele>1632.51</ele><time>2026-03-11T15:53:09Z</time><extensions><gpxtpx:TrackPointExtension><gpxtpx:atemp>3.0</gpxtpx:atemp></gpxtpx:TrackPointExtension></extensions></trkpt><trkpt lat="42.2098708805" lon="13.4171789512"><ele>1632.54</ele><time>2026-03-11T15:53:10Z</time><extensions><gpxtpx:TrackPointExtension><gpxtpx:atemp>3.0</gpxtpx:atemp></gpxtpx:TrackPointExtension></extensions></trkpt><trkpt lat="42.2098694555" lon="13.4171815496"><ele>1632.58</ele><time>2026-03-11T15:53:11Z</time><extensions><gpxtpx:TrackPointExtension><gpxtpx:atemp>3.0</gpxtpx:atemp></gpxtpx:TrackPointExtension></extensions></trkpt><trkpt lat="42.2098692879" lon="13.4171817172"><ele>1632.61</ele><time>2026-03-11T15:53:12Z</time><extensions><gpxtpx:TrackPointExtension><gpxtpx:atemp>3.0</gpxtpx:atemp></gpxtpx:TrackPointExtension></extensions></trkpt><trkpt lat="42.2098757420" lon="13.4171790350"><ele>1632.63</ele><time>2026-03-11T15:53:13Z</time><extensions><gpxtpx:TrackPointExtension><gpxtpx:atemp>3.0</gpxtpx:atemp></gpxtpx:TrackPointExtension></extensions></trkpt><trkpt lat="42.2098784242" lon="13.4171788674"><ele>1632.64</ele><time>2026-03-11T15:53:14Z</time><extensions><gpxtpx:TrackPointExtension><gpxtpx:atemp>3.0</gpxtpx:atemp></gpxtpx:TrackPointExtension></extensions></trkpt><trkpt lat="42.2098761611" lon="13.4171805438"><ele>1632.66</ele><time>2026-03-11T15:53:15Z</time><extensions><gpxtpx:TrackPointExtension><gpxtpx:atemp>3.0</gpxtpx:atemp></gpxtpx:TrackPointExtension></extensions></trkpt><trkpt lat="42.2098758258" lon="13.4171854891"><ele>1632.66</ele><time>2026-03-11T15:53:16Z</time><extensions><gpxtpx:TrackPointExtension><gpxtpx:atemp>3.0</gpxtpx:atemp></gpxtpx:TrackPointExtension></extensions></trkpt><trkpt lat="42.2098762449" lon="13.4171868302"><ele>1632.66</ele><time>2026-03-11T15:53:17Z</time><extensions><gpxtpx:TrackPointExtension><gpxtpx:atemp>3.0</gpxtpx:atemp></gpxtpx:TrackPointExtension></extensions></trkpt><trkpt lat="42.2098766640" lon="13.4171878360"><ele>1632.67</ele><time>2026-03-11T15:53:18Z</time><extensions><gpxtpx:TrackPointExtension><gpxtpx:atemp>3.0</gpxtpx:atemp></gpxtpx:TrackPointExtension></extensions></trkpt><trkpt lat="42.2098780889" lon="13.4171864949"><ele>1632.67</ele><time>2026-03-11T15:53:19Z</time><extensions><gpxtpx:TrackPointExtension><gpxtpx:atemp>3.0</gpxtpx:atemp></gpxtpx:TrackPointExtension></extensions></trkpt><trkpt lat="42.2098771669" lon="13.4171872493"><ele>1632.69</ele><time>2026-03-11T15:53:20Z</time><extensions><gpxtpx:TrackPointExtension><gpxtpx:atemp>3.0</gpxtpx:atemp></gpxtpx:TrackPointExtension></extensions></trkpt><trkpt lat="42.2098781727" lon="13.4171862435"><ele>1632.69</ele><time>2026-03-11T15:53:21Z</time><extensions><gpxtpx:TrackPointExtension><gpxtpx:atemp>3.0</gpxtpx:atemp></gpxtpx:TrackPointExtension></extensions></trkpt><trkpt lat="42.2098778374" lon="13.4171882551"><ele>1632.69</ele><time>2026-03-11T15:53:22Z</time><extensions><gpxtpx:TrackPointExtension><gpxtpx:atemp>3.0</gpxtpx:atemp></gpxtpx:TrackPointExtension></extensions></trkpt><trkpt lat="42.2098773345" lon="13.4171899315"><ele>1632.69</ele><time>2026-03-11T15:53:23Z</time><extensions><gpxtpx:TrackPointExtension><gpxtpx:atemp>3.0</gpxtpx:atemp></gpxtpx:TrackPointExtension></extensions></trkpt><trkpt lat="42.2098778374" lon="13.4171901830"><ele>1632.69</ele><time>2026-03-11T15:53:24Z</time><extensions><gpxtpx:TrackPointExtension><gpxtpx:atemp>3.0</gpxtpx:atemp></gpxtpx:TrackPointExtension></extensions></trkpt><trkpt lat="42.2098791786" lon="13.4171901830"><ele>1632.69</ele><time>2026-03-11T15:53:25Z</time><extensions><gpxtpx:TrackPointExtension><gpxtpx:atemp>3.0</gpxtpx:atemp></gpxtpx:TrackPointExtension></extensions></trkpt><trkpt lat="42.2098780889" lon="13.4171903506"><ele>1632.67</ele><time>2026-03-11T15:53:26Z</time><extensions><gpxtpx:TrackPointExtension><gpxtpx:atemp>3.0</gpxtpx:atemp></gpxtpx:TrackPointExtension></extensions></trkpt><trkpt lat="42.2098770831" lon="13.4171903506"><ele>1632.62</ele><time>2026-03-11T15:53:27Z</time><extensions><gpxtpx:TrackPointExtension><gpxtpx:atemp>3.0</gpxtpx:atemp></gpxtpx:TrackPointExtension></extensions></trkpt><trkpt lat="42.2098764963" lon="13.4171903506"><ele>1632.59</ele><time>2026-03-11T15:53:28Z</time><extensions><gpxtpx:TrackPointExtension><gpxtpx:atemp>3.0</gpxtpx:atemp></gpxtpx:TrackPointExtension></extensions></trkpt><trkpt lat="42.2098766640" lon="13.4171901830"><ele>1632.55</ele><time>2026-03-11T15:53:29Z</time><extensions><gpxtpx:TrackPointExtension><gpxtpx:atemp>3.0</gpxtpx:atemp></gpxtpx:TrackPointExtension></extensions></trkpt><trkpt lat="42.2098770831" lon="13.4171908535"><ele>1632.53</ele><time>2026-03-11T15:53:30Z</time><extensions><gpxtpx:TrackPointExtension><gpxtpx:atemp>3.0</gpxtpx:atemp></gpxtpx:TrackPointExtension></extensions></trkpt><trkpt lat="42.2098771669" lon="13.4171914402"><ele>1632.52</ele><time>2026-03-11T15:53:31Z</time><extensions><gpxtpx:TrackPointExtension><gpxtpx:atemp>3.0</gpxtpx:atemp></gpxtpx:TrackPointExtension></extensions></trkpt><trkpt lat="42.2098778374" lon="13.4171920270"><ele>1632.53</ele><time>2026-03-11T15:53:32Z</time><extensions><gpxtpx:TrackPointExtension><gpxtpx:atemp>3.0</gpxtpx:atemp></gpxtpx:TrackPointExtension></extensions></trkpt><trkpt lat="42.2098786756" lon="13.4171918593"><ele>1632.64</ele><time>2026-03-11T15:53:33Z</time><extensions><gpxtpx:TrackPointExtension><gpxtpx:atemp>3.0</gpxtpx:atemp></gpxtpx:TrackPointExtension></extensions></trkpt><trkpt lat="42.2098789271" lon="13.4171921946"><ele>1632.73</ele><time>2026-03-11T15:53:34Z</time><extensions><gpxtpx:TrackPointExtension><gpxtpx:atemp>3.1</gpxtpx:atemp></gpxtpx:TrackPointExtension></extensions></trkpt><trkpt lat="42.2098793462" lon="13.4171913564"><ele>1632.78</ele><time>2026-03-11T15:53:35Z</time><extensions><gpxtpx:TrackPointExtension><gpxtpx:atemp>3.1</gpxtpx:atemp></gpxtpx:TrackPointExtension></extensions></trkpt><trkpt lat="42.2098793462" lon="13.4171912726"><ele>1632.83</ele><time>2026-03-11T15:53:36Z</time><extensions><gpxtpx:TrackPointExtension><gpxtpx:atemp>3.1</gpxtpx:atemp></gpxtpx:TrackPointExtension></extensions></trkpt><trkpt lat="42.2098798491" lon="13.4171907697"><ele>1632.83</ele><time>2026-03-11T15:53:37Z</time><extensions><gpxtpx:TrackPointExtension><gpxtpx:atemp>3.1</gpxtpx:atemp></gpxtpx:TrackPointExtension></extensions></trkpt><trkpt lat="42.2098803520" lon="13.4171913564"><ele>1632.81</ele><time>2026-03-11T15:53:38Z</time><extensions><gpxtpx:TrackPointExtension><gpxtpx:atemp>3.1</gpxtpx:atemp></gpxtpx:TrackPointExtension></extensions></trkpt><trkpt lat="42.2098803520" lon="13.4171902668"><ele>1632.72</ele><time>2026-03-11T15:53:39Z</time><extensions><gpxtpx:TrackPointExtension><gpxtpx:atemp>3.1</gpxtpx:atemp></gpxtpx:TrackPointExtension></extensions></trkpt><trkpt lat="42.2098805197" lon="13.4171900991"><ele>1632.71</ele><time>2026-03-11T15:53:40Z</time><extensions><gpxtpx:TrackPointExtension><gpxtpx:atemp>3.1</gpxtpx:atemp></gpxtpx:TrackPointExtension></extensions></trkpt><trkpt lat="42.2098809388" lon="13.4171896800"><ele>1632.67</ele><time>2026-03-11T15:53:41Z</time><extensions><gpxtpx:TrackPointExtension><gpxtpx:atemp>3.1</gpxtpx:atemp></gpxtpx:TrackPointExtension></extensions></trkpt><trkpt lat="42.2098809388" lon="13.4171892609"><ele>1632.64</ele><time>2026-03-11T15:53:42Z</time><extensions><gpxtpx:TrackPointExtension><gpxtpx:atemp>3.1</gpxtpx:atemp></gpxtpx:TrackPointExtension></extensions></trkpt><trkpt lat="42.2098811902" lon="13.4171890933"><ele>1632.63</ele><time>2026-03-11T15:53:43Z</time><extensions><gpxtpx:TrackPointExtension><gpxtpx:atemp>3.1</gpxtpx:atemp></gpxtpx:TrackPointExtension></extensions></trkpt><trkpt lat="42.2098815255" lon="13.4171882551"><ele>1632.63</ele><time>2026-03-11T15:53:44Z</time><extensions><gpxtpx:TrackPointExtension><gpxtpx:atemp>3.1</gpxtpx:atemp></gpxtpx:TrackPointExtension></extensions></trkpt><trkpt lat="42.2098818608" lon="13.4171878360"><ele>1632.63</ele><time>2026-03-11T15:53:45Z</time><extensions><gpxtpx:TrackPointExtension><gpxtpx:atemp>3.1</gpxtpx:atemp></gpxtpx:TrackPointExtension></extensions></trkpt><trkpt lat="42.2098819446" lon="13.4171873331"><ele>1632.63</ele><time>2026-03-11T15:53:46Z</time><extensions><gpxtpx:TrackPointExtension><gpxtpx:atemp>3.1</gpxtpx:atemp></gpxtpx:TrackPointExtension></extensions></trkpt><trkpt lat="42.2098822799" lon="13.4171863273"><ele>1632.63</ele><time>2026-03-11T15:53:47Z</time><extensions><gpxtpx:TrackPointExtension><gpxtpx:atemp>3.1</gpxtpx:atemp></gpxtpx:TrackPointExtension></extensions></trkpt><trkpt lat="42.2098824475" lon="13.4171853215"><ele>1632.63</ele><time>2026-03-11T15:53:48Z</time><extensions><gpxtpx:TrackPointExtension><gpxtpx:atemp>3.1</gpxtpx:atemp></gpxtpx:TrackPointExtension></extensions></trkpt><trkpt lat="42.2098826990" lon="13.4171846509"><ele>1632.63</ele><time>2026-03-11T15:53:49Z</time><extensions><gpxtpx:TrackPointExtension><gpxtpx:atemp>3.1</gpxtpx:atemp></gpxtpx:TrackPointExtension></extensions></trkpt><trkpt lat="42.2098825313" lon="13.4171845671"><ele>1632.62</ele><time>2026-03-11T15:53:50Z</time><extensions><gpxtpx:TrackPointExtension><gpxtpx:atemp>3.1</gpxtpx:atemp></gpxtpx:TrackPointExtension></extensions></trkpt><trkpt lat="42.2098822799" lon="13.4171841480"><ele>1632.61</ele><time>2026-03-11T15:53:51Z</time><extensions><gpxtpx:TrackPointExtension><gpxtpx:atemp>3.1</gpxtpx:atemp></gpxtpx:TrackPointExtension></extensions></trkpt><trkpt lat="42.2098817769" lon="13.4171836451"><ele>1632.61</ele><time>2026-03-11T15:53:52Z</time><extensions><gpxtpx:TrackPointExtension><gpxtpx:atemp>3.1</gpxtpx:atemp></gpxtpx:TrackPointExtension></extensions></trkpt><trkpt lat="42.2098811902" lon="13.4171826392"><ele>1632.59</ele><time>2026-03-11T15:53:53Z</time><extensions><gpxtpx:TrackPointExtension><gpxtpx:atemp>3.1</gpxtpx:atemp></gpxtpx:TrackPointExtension></extensions></trkpt><trkpt lat="42.2098807711" lon="13.4171828907"><ele>1632.56</ele><time>2026-03-11T15:53:54Z</time><extensions><gpxtpx:TrackPointExtension><gpxtpx:atemp>3.1</gpxtpx:atemp></gpxtpx:TrackPointExtension></extensions></trkpt><trkpt lat="42.2098804358" lon="13.4171826392"><ele>1632.57</ele><time>2026-03-11T15:53:55Z</time><extensions><gpxtpx:TrackPointExtension><gpxtpx:atemp>3.1</gpxtpx:atemp></gpxtpx:TrackPointExtension></extensions></trkpt><trkpt lat="42.2098824475" lon="13.4171825554"><ele>1632.59</ele><time>2026-03-11T15:53:56Z</time><extensions><gpxtpx:TrackPointExtension><gpxtpx:atemp>3.1</gpxtpx:atemp></gpxtpx:TrackPointExtension></extensions></trkpt><trkpt lat="42.2098831180" lon="13.4171831422"><ele>1632.59</ele><time>2026-03-11T15:53:57Z</time><extensions><gpxtpx:TrackPointExtension><gpxtpx:atemp>3.1</gpxtpx:atemp></gpxtpx:TrackPointExtension></extensions></trkpt><trkpt lat="42.2098845430" lon="13.4171850700"><ele>1632.59</ele><time>2026-03-11T15:53:58Z</time><extensions><gpxtpx:TrackPointExtension><gpxtpx:atemp>3.1</gpxtpx:atemp></gpxtpx:TrackPointExtension></extensions></trkpt><trkpt lat="42.2098865546" lon="13.4171855729"><ele>1632.59</ele><time>2026-03-11T15:53:59Z</time><extensions><gpxtpx:TrackPointExtension><gpxtpx:atemp>3.1</gpxtpx:atemp></gpxtpx:TrackPointExtension></extensions></trkpt><trkpt lat="42.2098879796" lon="13.4171855729"><ele>1632.59</ele><time>2026-03-11T15:54:00Z</time><extensions><gpxtpx:TrackPointExtension><gpxtpx:atemp>3.1</gpxtpx:atemp></gpxtpx:TrackPointExtension></extensions></trkpt><trkpt lat="42.2098887339" lon="13.4171853215"><ele>1632.59</ele><time>2026-03-11T15:54:01Z</time><extensions><gpxtpx:TrackPointExtension><gpxtpx:atemp>3.1</gpxtpx:atemp></gpxtpx:TrackPointExtension></extensions></trkpt><trkpt lat="42.2098893207" lon="13.4171836451"><ele>1632.59</ele><time>2026-03-11T15:54:02Z</time><extensions><gpxtpx:TrackPointExtension><gpxtpx:atemp>3.1</gpxtpx:atemp></gpxtpx:TrackPointExtension></extensions></trkpt><trkpt lat="42.2098892368" lon="13.4171839803"><ele>1632.59</ele><time>2026-03-11T15:54:03Z</time><extensions><gpxtpx:TrackPointExtension><gpxtpx:atemp>3.1</gpxtpx:atemp></gpxtpx:TrackPointExtension></extensions></trkpt><trkpt lat="42.2098905779" lon="13.4171840642"><ele>1632.59</ele><time>2026-03-11T15:54:04Z</time><extensions><gpxtpx:TrackPointExtension><gpxtpx:atemp>3.1</gpxtpx:atemp></gpxtpx:TrackPointExtension></extensions></trkpt><trkpt lat="42.2098905779" lon="13.4171840642"><ele>1632.59</ele><time>2026-03-11T15:54:05Z</time><extensions><gpxtpx:TrackPointExtension><gpxtpx:atemp>3.1</gpxtpx:atemp></gpxtpx:TrackPointExtension></extensions></trkpt><trkpt lat="42.2098904941" lon="13.4171832260"><ele>1632.60</ele><time>2026-03-11T15:54:06Z</time><extensions><gpxtpx:TrackPointExtension><gpxtpx:atemp>3.1</gpxtpx:atemp></gpxtpx:TrackPointExtension></extensions></trkpt><trkpt lat="42.2098901588" lon="13.4171826392"><ele>1632.63</ele><time>2026-03-11T15:54:07Z</time><extensions><gpxtpx:TrackPointExtension><gpxtpx:atemp>3.1</gpxtpx:atemp></gpxtpx:TrackPointExtension></extensions></trkpt><trkpt lat="42.2098901588" lon="13.4171825554"><ele>1632.65</ele><time>2026-03-11T15:54:08Z</time><extensions><gpxtpx:TrackPointExtension><gpxtpx:atemp>3.1</gpxtpx:atemp></gpxtpx:TrackPointExtension></extensions></trkpt><trkpt lat="42.2098903265" lon="13.4171821363"><ele>1632.65</ele><time>2026-03-11T15:54:09Z</time><extensions><gpxtpx:TrackPointExtension><gpxtpx:atemp>3.1</gpxtpx:atemp></gpxtpx:TrackPointExtension></extensions></trkpt><trkpt lat="42.2098904941" lon="13.4171826392"><ele>1632.62</ele><time>2026-03-11T15:54:10Z</time><extensions><gpxtpx:TrackPointExtension><gpxtpx:atemp>3.1</gpxtpx:atemp></gpxtpx:TrackPointExtension></extensions></trkpt><trkpt lat="42.2098896559" lon="13.4171828907"><ele>1632.61</ele><time>2026-03-11T15:54:11Z</time><extensions><gpxtpx:TrackPointExtension><gpxtpx:atemp>3.1</gpxtpx:atemp></gpxtpx:TrackPointExtension></extensions></trkpt><trkpt lat="42.2098893207" lon="13.4171822201"><ele>1632.60</ele><time>2026-03-11T15:54:12Z</time><extensions><gpxtpx:TrackPointExtension><gpxtpx:atemp>3.1</gpxtpx:atemp></gpxtpx:TrackPointExtension></extensions></trkpt><trkpt lat="42.2098888177" lon="13.4171830583"><ele>1632.59</ele><time>2026-03-11T15:54:13Z</time><extensions><gpxtpx:TrackPointExtension><gpxtpx:atemp>3.1</gpxtpx:atemp></gpxtpx:TrackPointExtension></extensions></trkpt><trkpt lat="42.2098885663" lon="13.4171831422"><ele>1632.56</ele><time>2026-03-11T15:54:14Z</time><extensions><gpxtpx:TrackPointExtension><gpxtpx:atemp>3.1</gpxtpx:atemp></gpxtpx:TrackPointExtension></extensions></trkpt><trkpt lat="42.2098876443" lon="13.4171831422"><ele>1632.55</ele><time>2026-03-11T15:54:15Z</time><extensions><gpxtpx:TrackPointExtension><gpxtpx:atemp>3.1</gpxtpx:atemp></gpxtpx:TrackPointExtension></extensions></trkpt><trkpt lat="42.2098870575" lon="13.4171830583"><ele>1632.55</ele><time>2026-03-11T15:54:16Z</time><extensions><gpxtpx:TrackPointExtension><gpxtpx:atemp>3.1</gpxtpx:atemp></gpxtpx:TrackPointExtension></extensions></trkpt><trkpt lat="42.2098874766" lon="13.4171832260"><ele>1632.54</ele><time>2026-03-11T15:54:17Z</time><extensions><gpxtpx:TrackPointExtension><gpxtpx:atemp>3.1</gpxtpx:atemp></gpxtpx:TrackPointExtension></extensions></trkpt><trkpt lat="42.2098871414" lon="13.4171830583"><ele>1632.52</ele><time>2026-03-11T15:54:18Z</time><extensions><gpxtpx:TrackPointExtension><gpxtpx:atemp>3.1</gpxtpx:atemp></gpxtpx:TrackPointExtension></extensions></trkpt><trkpt lat="42.2098868899" lon="13.4171846509"><ele>1632.52</ele><time>2026-03-11T15:54:19Z</time><extensions><gpxtpx:TrackPointExtension><gpxtpx:atemp>3.1</gpxtpx:atemp></gpxtpx:TrackPointExtension></extensions></trkpt><trkpt lat="42.2098864708" lon="13.4171847347"><ele>1632.56</ele><time>2026-03-11T15:54:20Z</time><extensions><gpxtpx:TrackPointExtension><gpxtpx:atemp>3.1</gpxtpx:atemp></gpxtpx:TrackPointExtension></extensions></trkpt><trkpt lat="42.2098863870" lon="13.4171839803"><ele>1632.61</ele><time>2026-03-11T15:54:21Z</time><extensions><gpxtpx:TrackPointExtension><gpxtpx:atemp>3.1</gpxtpx:atemp></gpxtpx:TrackPointExtension></extensions></trkpt><trkpt lat="42.2098863870" lon="13.4171847347"><ele>1632.71</ele><time>2026-03-11T15:54:22Z</time><extensions><gpxtpx:TrackPointExtension><gpxtpx:atemp>3.1</gpxtpx:atemp></gpxtpx:TrackPointExtension></extensions></trkpt><trkpt lat="42.2098861355" lon="13.4171845671"><ele>1632.78</ele><time>2026-03-11T15:54:23Z</time><extensions><gpxtpx:TrackPointExtension><gpxtpx:atemp>3.1</gpxtpx:atemp></gpxtpx:TrackPointExtension></extensions></trkpt><trkpt lat="42.2098859679" lon="13.4171852376"><ele>1632.84</ele><time>2026-03-11T15:54:24Z</time><extensions><gpxtpx:TrackPointExtension><gpxtpx:atemp>3.1</gpxtpx:atemp></gpxtpx:TrackPointExtension></extensions></trkpt><trkpt lat="42.2098858841" lon="13.4171849862"><ele>1632.89</ele><time>2026-03-11T15:54:25Z</time><extensions><gpxtpx:TrackPointExtension><gpxtpx:atemp>3.1</gpxtpx:atemp></gpxtpx:TrackPointExtension></extensions></trkpt><trkpt lat="42.2098856326" lon="13.4171842318"><ele>1632.90</ele><time>2026-03-11T15:54:26Z</time><extensions><gpxtpx:TrackPointExtension><gpxtpx:atemp>3.1</gpxtpx:atemp></gpxtpx:TrackPointExtension></extensions></trkpt><trkpt lat="42.2098855488" lon="13.4171842318"><ele>1632.87</ele><time>2026-03-11T15:54:27Z</time><extensions><gpxtpx:TrackPointExtension><gpxtpx:atemp>3.1</gpxtpx:atemp></gpxtpx:TrackPointExtension></extensions></trkpt><trkpt lat="42.2098853812" lon="13.4171841480"><ele>1632.81</ele><time>2026-03-11T15:54:28Z</time><extensions><gpxtpx:TrackPointExtension><gpxtpx:atemp>3.1</gpxtpx:atemp></gpxtpx:TrackPointExtension></extensions></trkpt><trkpt lat="42.2098848782" lon="13.4171807952"><ele>1632.74</ele><time>2026-03-11T15:54:29Z</time><extensions><gpxtpx:TrackPointExtension><gpxtpx:atemp>3.1</gpxtpx:atemp></gpxtpx:TrackPointExtension></extensions></trkpt><trkpt lat="42.2098838724" lon="13.4171817172"><ele>1632.69</ele><time>2026-03-11T15:54:30Z</time><extensions><gpxtpx:TrackPointExtension><gpxtpx:atemp>3.1</gpxtpx:atemp></gpxtpx:TrackPointExtension></extensions></trkpt><trkpt lat="42.2098851297" lon="13.4171825554"><ele>1632.66</ele><time>2026-03-11T15:54:31Z</time><extensions><gpxtpx:TrackPointExtension><gpxtpx:atemp>3.1</gpxtpx:atemp></gpxtpx:TrackPointExtension></extensions></trkpt><trkpt lat="42.2098857164" lon="13.4171846509"><ele>1632.66</ele><time>2026-03-11T15:54:32Z</time><extensions><gpxtpx:TrackPointExtension><gpxtpx:atemp>3.2</gpxtpx:atemp></gpxtpx:TrackPointExtension></extensions></trkpt><trkpt lat="42.2098862194" lon="13.4171832260"><ele>1632.66</ele><time>2026-03-11T15:54:33Z</time><extensions><gpxtpx:TrackPointExtension><gpxtpx:atemp>3.2</gpxtpx:atemp></gpxtpx:TrackPointExtension></extensions></trkpt><trkpt lat="42.2098859679" lon="13.4171823878"><ele>1632.66</ele><time>2026-03-11T15:54:34Z</time><extensions><gpxtpx:TrackPointExtension><gpxtpx:atemp>3.2</gpxtpx:atemp></gpxtpx:TrackPointExtension></extensions></trkpt><trkpt lat="42.2098851297" lon="13.4171835613"><ele>1632.65</ele><time>2026-03-11T15:54:35Z</time><extensions><gpxtpx:TrackPointExtension><gpxtpx:atemp>3.2</gpxtpx:atemp></gpxtpx:TrackPointExtension></extensions></trkpt><trkpt lat="42.2098845430" lon="13.4171851538"><ele>1632.60</ele><time>2026-03-11T15:54:36Z</time><extensions><gpxtpx:TrackPointExtension><gpxtpx:atemp>3.2</gpxtpx:atemp></gpxtpx:TrackPointExtension></extensions></trkpt><trkpt lat="42.2098840401" lon="13.4171836451"><ele>1632.52</ele><time>2026-03-11T15:54:37Z</time><extensions><gpxtpx:TrackPointExtension><gpxtpx:atemp>3.2</gpxtpx:atemp></gpxtpx:TrackPointExtension></extensions></trkpt><trkpt lat="42.2098855488" lon="13.4171854891"><ele>1632.47</ele><time>2026-03-11T15:54:38Z</time><extensions><gpxtpx:TrackPointExtension><gpxtpx:atemp>3.2</gpxtpx:atemp></gpxtpx:TrackPointExtension></extensions></trkpt><trkpt lat="42.2098859679" lon="13.4171845671"><ele>1632.44</ele><time>2026-03-11T15:54:39Z</time><extensions><gpxtpx:TrackPointExtension><gpxtpx:atemp>3.2</gpxtpx:atemp></gpxtpx:TrackPointExtension></extensions></trkpt><trkpt lat="42.2098870575" lon="13.4171852376"><ele>1632.42</ele><time>2026-03-11T15:54:40Z</time><extensions><gpxtpx:TrackPointExtension><gpxtpx:atemp>3.2</gpxtpx:atemp></gpxtpx:TrackPointExtension></extensions></trkpt><trkpt lat="42.2098869737" lon="13.4171849862"><ele>1632.39</ele><time>2026-03-11T15:54:41Z</time><extensions><gpxtpx:TrackPointExtension><gpxtpx:atemp>3.2</gpxtpx:atemp></gpxtpx:TrackPointExtension></extensions></trkpt><trkpt lat="42.2098871414" lon="13.4171857405"><ele>1632.37</ele><time>2026-03-11T15:54:42Z</time><extensions><gpxtpx:TrackPointExtension><gpxtpx:atemp>3.2</gpxtpx:atemp></gpxtpx:TrackPointExtension></extensions></trkpt><trkpt lat="42.2098910809" lon="13.4171865787"><ele>1632.36</ele><time>2026-03-11T15:54:43Z</time><extensions><gpxtpx:TrackPointExtension><gpxtpx:atemp>3.2</gpxtpx:atemp></gpxtpx:TrackPointExtension></extensions></trkpt><trkpt lat="42.2098896559" lon="13.4171859920"><ele>1632.33</ele><time>2026-03-11T15:54:44Z</time><extensions><gpxtpx:TrackPointExtension><gpxtpx:atemp>3.2</gpxtpx:atemp></gpxtpx:TrackPointExtension></extensions></trkpt><trkpt lat="42.2098895721" lon="13.4171869978"><ele>1632.32</ele><time>2026-03-11T15:54:45Z</time><extensions><gpxtpx:TrackPointExtension><gpxtpx:atemp>3.2</gpxtpx:atemp></gpxtpx:TrackPointExtension></extensions></trkpt><trkpt lat="42.2098899912" lon="13.4171870816"><ele>1632.32</ele><time>2026-03-11T15:54:46Z</time><extensions><gpxtpx:TrackPointExtension><gpxtpx:atemp>3.2</gpxtpx:atemp></gpxtpx:TrackPointExtension></extensions></trkpt><trkpt lat="42.2098903265" lon="13.4171884228"><ele>1632.38</ele><time>2026-03-11T15:54:47Z</time><extensions><gpxtpx:TrackPointExtension><gpxtpx:atemp>3.2</gpxtpx:atemp></gpxtpx:TrackPointExtension></extensions></trkpt><trkpt lat="42.2098899912" lon="13.4171891771"><ele>1632.47</ele><time>2026-03-11T15:54:48Z</time><extensions><gpxtpx:TrackPointExtension><gpxtpx:atemp>3.2</gpxtpx:atemp></gpxtpx:TrackPointExtension></extensions></trkpt><trkpt lat="42.2098909970" lon="13.4171884228"><ele>1632.49</ele><time>2026-03-11T15:54:49Z</time><extensions><gpxtpx:TrackPointExtension><gpxtpx:atemp>3.2</gpxtpx:atemp></gpxtpx:TrackPointExtension></extensions></trkpt><trkpt lat="42.2098917514" lon="13.4171881713"><ele>1632.51</ele><time>2026-03-11T15:54:50Z</time><extensions><gpxtpx:TrackPointExtension><gpxtpx:atemp>3.2</gpxtpx:atemp></gpxtpx:TrackPointExtension></extensions></trkpt><trkpt lat="42.2098923381" lon="13.4171884228"><ele>1632.52</ele><time>2026-03-11T15:54:51Z</time><extensions><gpxtpx:TrackPointExtension><gpxtpx:atemp>3.2</gpxtpx:atemp></gpxtpx:TrackPointExtension></extensions></trkpt><trkpt lat="42.2098943498" lon="13.4171887580"><ele>1632.52</ele><time>2026-03-11T15:54:52Z</time><extensions><gpxtpx:TrackPointExtension><gpxtpx:atemp>3.2</gpxtpx:atemp></gpxtpx:TrackPointExtension></extensions></trkpt><trkpt lat="42.2098955233" lon="13.4171876684"><ele>1632.52</ele><time>2026-03-11T15:54:53Z</time><extensions><gpxtpx:TrackPointExtension><gpxtpx:atemp>3.2</gpxtpx:atemp></gpxtpx:TrackPointExtension></extensions></trkpt><trkpt lat="42.2098972835" lon="13.4171868302"><ele>1632.53</ele><time>2026-03-11T15:54:54Z</time><extensions><gpxtpx:TrackPointExtension><gpxtpx:atemp>3.2</gpxtpx:atemp></gpxtpx:TrackPointExtension></extensions></trkpt><trkpt lat="42.2098986246" lon="13.4171859920"><ele>1632.54</ele><time>2026-03-11T15:54:55Z</time><extensions><gpxtpx:TrackPointExtension><gpxtpx:atemp>3.2</gpxtpx:atemp></gpxtpx:TrackPointExtension></extensions></trkpt><trkpt lat="42.2098993789" lon="13.4171859920"><ele>1632.54</ele><time>2026-03-11T15:54:56Z</time><extensions><gpxtpx:TrackPointExtension><gpxtpx:atemp>3.2</gpxtpx:atemp></gpxtpx:TrackPointExtension></extensions></trkpt><trkpt lat="42.2098999657" lon="13.4171855729"><ele>1632.54</ele><time>2026-03-11T15:54:57Z</time><extensions><gpxtpx:TrackPointExtension><gpxtpx:atemp>3.2</gpxtpx:atemp></gpxtpx:TrackPointExtension></extensions></trkpt><trkpt lat="42.2098990437" lon="13.4171852376"><ele>1632.54</ele><time>2026-03-11T15:54:58Z</time><extensions><gpxtpx:TrackPointExtension><gpxtpx:atemp>3.2</gpxtpx:atemp></gpxtpx:TrackPointExtension></extensions></trkpt><trkpt lat="42.2098987922" lon="13.4171859920"><ele>1632.53</ele><time>2026-03-11T15:54:59Z</time><extensions><gpxtpx:TrackPointExtension><gpxtpx:atemp>3.2</gpxtpx:atemp></gpxtpx:TrackPointExtension></extensions></trkpt><trkpt lat="42.2098985408" lon="13.4171865787"><ele>1632.50</ele><time>2026-03-11T15:55:00Z</time><extensions><gpxtpx:TrackPointExtension><gpxtpx:atemp>3.2</gpxtpx:atemp></gpxtpx:TrackPointExtension></extensions></trkpt><trkpt lat="42.2098986246" lon="13.4171874169"><ele>1632.46</ele><time>2026-03-11T15:55:01Z</time><extensions><gpxtpx:TrackPointExtension><gpxtpx:atemp>3.2</gpxtpx:atemp></gpxtpx:TrackPointExtension></extensions></trkpt><trkpt lat="42.2098979540" lon="13.4171886742"><ele>1632.42</ele><time>2026-03-11T15:55:02Z</time><extensions><gpxtpx:TrackPointExtension><gpxtpx:atemp>3.2</gpxtpx:atemp></gpxtpx:TrackPointExtension></extensions></trkpt><trkpt lat="42.2098963615" lon="13.4171894286"><ele>1632.32</ele><time>2026-03-11T15:55:03Z</time><extensions><gpxtpx:TrackPointExtension><gpxtpx:atemp>3.2</gpxtpx:atemp></gpxtpx:TrackPointExtension></extensions></trkpt><trkpt lat="42.2098953556" lon="13.4171877522"><ele>1632.27</ele><time>2026-03-11T15:55:04Z</time><extensions><gpxtpx:TrackPointExtension><gpxtpx:atemp>3.2</gpxtpx:atemp></gpxtpx:TrackPointExtension></extensions></trkpt><trkpt lat="42.2098936792" lon="13.4171895962"><ele>1632.21</ele><time>2026-03-11T15:55:05Z</time><extensions><gpxtpx:TrackPointExtension><gpxtpx:atemp>3.2</gpxtpx:atemp></gpxtpx:TrackPointExtension></extensions></trkpt><trkpt lat="42.2098915000" lon="13.4171897639"><ele>1632.19</ele><time>2026-03-11T15:55:06Z</time><extensions><gpxtpx:TrackPointExtension><gpxtpx:atemp>3.2</gpxtpx:atemp></gpxtpx:TrackPointExtension></extensions></trkpt><trkpt lat="42.2098898236" lon="13.4171881713"><ele>1632.17</ele><time>2026-03-11T15:55:07Z</time><extensions><gpxtpx:TrackPointExtension><gpxtpx:atemp>3.2</gpxtpx:atemp></gpxtpx:TrackPointExtension></extensions></trkpt><trkpt lat="42.2098907456" lon="13.4171842318"><ele>1632.20</ele><time>2026-03-11T15:55:08Z</time><extensions><gpxtpx:TrackPointExtension><gpxtpx:atemp>3.2</gpxtpx:atemp></gpxtpx:TrackPointExtension></extensions></trkpt><trkpt lat="42.2098924220" lon="13.4171825554"><ele>1632.31</ele><time>2026-03-11T15:55:09Z</time><extensions><gpxtpx:TrackPointExtension><gpxtpx:atemp>3.2</gpxtpx:atemp></gpxtpx:TrackPointExtension></extensions></trkpt><trkpt lat="42.2098910809" lon="13.4171830583"><ele>1632.41</ele><time>2026-03-11T15:55:10Z</time><extensions><gpxtpx:TrackPointExtension><gpxtpx:atemp>3.2</gpxtpx:atemp></gpxtpx:TrackPointExtension></extensions></trkpt><trkpt lat="42.2098910809" lon="13.4171834774"><ele>1632.51</ele><time>2026-03-11T15:55:11Z</time><extensions><gpxtpx:TrackPointExtension><gpxtpx:atemp>3.2</gpxtpx:atemp></gpxtpx:TrackPointExtension></extensions></trkpt><trkpt lat="42.2098899912" lon="13.4171824716"><ele>1632.54</ele><time>2026-03-11T15:55:12Z</time><extensions><gpxtpx:TrackPointExtension><gpxtpx:atemp>3.2</gpxtpx:atemp></gpxtpx:TrackPointExtension></extensions></trkpt><trkpt lat="42.2098897398" lon="13.4171823878"><ele>1632.57</ele><time>2026-03-11T15:55:13Z</time><extensions><gpxtpx:TrackPointExtension><gpxtpx:atemp>3.2</gpxtpx:atemp></gpxtpx:TrackPointExtension></extensions></trkpt><trkpt lat="42.2098895721" lon="13.4171789512"><ele>1632.59</ele><time>2026-03-11T15:55:14Z</time><extensions><gpxtpx:TrackPointExtension><gpxtpx:atemp>3.2</gpxtpx:atemp></gpxtpx:TrackPointExtension></extensions></trkpt><trkpt lat="42.2098885663" lon="13.4171806276"><ele>1632.59</ele><time>2026-03-11T15:55:15Z</time><extensions><gpxtpx:TrackPointExtension><gpxtpx:atemp>3.2</gpxtpx:atemp></gpxtpx:TrackPointExtension></extensions></trkpt><trkpt lat="42.2098878957" lon="13.4171802923"><ele>1632.60</ele><time>2026-03-11T15:55:16Z</time><extensions><gpxtpx:TrackPointExtension><gpxtpx:atemp>3.2</gpxtpx:atemp></gpxtpx:TrackPointExtension></extensions></trkpt><trkpt lat="42.2098877281" lon="13.4171812981"><ele>1632.60</ele><time>2026-03-11T15:55:17Z</time><extensions><gpxtpx:TrackPointExtension><gpxtpx:atemp>3.2</gpxtpx:atemp></gpxtpx:TrackPointExtension></extensions></trkpt><trkpt lat="42.2098872252" lon="13.4171820525"><ele>1632.64</ele><time>2026-03-11T15:55:18Z</time><extensions><gpxtpx:TrackPointExtension><gpxtpx:atemp>3.2</gpxtpx:atemp></gpxtpx:TrackPointExtension></extensions></trkpt><trkpt lat="42.2098873928" lon="13.4171758499"><ele>1632.71</ele><time>2026-03-11T15:55:19Z</time><extensions><gpxtpx:TrackPointExtension><gpxtpx:atemp>3.2</gpxtpx:atemp></gpxtpx:TrackPointExtension></extensions></trkpt><trkpt lat="42.2098907456" lon="13.4171755984"><ele>1632.80</ele><time>2026-03-11T15:55:20Z</time><extensions><gpxtpx:TrackPointExtension><gpxtpx:atemp>3.2</gpxtpx:atemp></gpxtpx:TrackPointExtension></extensions></trkpt><trkpt lat="42.2098896559" lon="13.4171734191"><ele>1632.80</ele><time>2026-03-11T15:55:21Z</time><extensions><gpxtpx:TrackPointExtension><gpxtpx:atemp>3.2</gpxtpx:atemp></gpxtpx:TrackPointExtension></extensions></trkpt><trkpt lat="42.2098892368" lon="13.4171714913"><ele>1632.80</ele><time>2026-03-11T15:55:22Z</time><extensions><gpxtpx:TrackPointExtension><gpxtpx:atemp>3.2</gpxtpx:atemp></gpxtpx:TrackPointExtension></extensions></trkpt><trkpt lat="42.2098887339" lon="13.4171702340"><ele>1632.81</ele><time>2026-03-11T15:55:23Z</time><extensions><gpxtpx:TrackPointExtension><gpxtpx:atemp>3.2</gpxtpx:atemp></gpxtpx:TrackPointExtension></extensions></trkpt><trkpt lat="42.2098863870" lon="13.4171660431"><ele>1632.77</ele><time>2026-03-11T15:55:24Z</time><extensions><gpxtpx:TrackPointExtension><gpxtpx:atemp>3.2</gpxtpx:atemp></gpxtpx:TrackPointExtension></extensions></trkpt><trkpt lat="42.2098843753" lon="13.4171619359"><ele>1632.74</ele><time>2026-03-11T15:55:25Z</time><extensions><gpxtpx:TrackPointExtension><gpxtpx:atemp>3.2</gpxtpx:atemp></gpxtpx:TrackPointExtension></extensions></trkpt><trkpt lat="42.2098796815" lon="13.4171560686"><ele>1632.72</ele><time>2026-03-11T15:55:26Z</time><extensions><gpxtpx:TrackPointExtension><gpxtpx:atemp>3.2</gpxtpx:atemp></gpxtpx:TrackPointExtension></extensions></trkpt><trkpt lat="42.2098727245" lon="13.4171536379"><ele>1632.72</ele><time>2026-03-11T15:55:27Z</time><extensions><gpxtpx:TrackPointExtension><gpxtpx:atemp>3.2</gpxtpx:atemp></gpxtpx:TrackPointExtension></extensions></trkpt><trkpt lat="42.2098669410" lon="13.4171496984"><ele>1632.72</ele><time>2026-03-11T15:55:28Z</time><extensions><gpxtpx:TrackPointExtension><gpxtpx:atemp>3.2</gpxtpx:atemp></gpxtpx:TrackPointExtension></extensions></trkpt><trkpt lat="42.2098573856" lon="13.4171471838"><ele>1632.74</ele><time>2026-03-11T15:55:29Z</time><extensions><gpxtpx:TrackPointExtension><gpxtpx:atemp>3.2</gpxtpx:atemp></gpxtpx:TrackPointExtension></extensions></trkpt><trkpt lat="42.2098509315" lon="13.4171487764"><ele>1632.73</ele><time>2026-03-11T15:55:30Z</time><extensions><gpxtpx:TrackPointExtension><gpxtpx:atemp>3.2</gpxtpx:atemp></gpxtpx:TrackPointExtension></extensions></trkpt><trkpt lat="42.2098457348" lon="13.4171455912"><ele>1632.74</ele><time>2026-03-11T15:55:31Z</time><extensions><gpxtpx:TrackPointExtension><gpxtpx:atemp>3.2</gpxtpx:atemp></gpxtpx:TrackPointExtension></extensions></trkpt><trkpt lat="42.2098382749" lon="13.4171483573"><ele>1632.77</ele><time>2026-03-11T15:55:32Z</time><extensions><gpxtpx:TrackPointExtension><gpxtpx:atemp>3.0</gpxtpx:atemp></gpxtpx:TrackPointExtension></extensions></trkpt><trkpt lat="42.2098302282" lon="13.4171487764"><ele>1632.79</ele><time>2026-03-11T15:55:33Z</time><extensions><gpxtpx:TrackPointExtension><gpxtpx:atemp>3.0</gpxtpx:atemp></gpxtpx:TrackPointExtension></extensions></trkpt><trkpt lat="42.2098242771" lon="13.4171455912"><ele>1632.85</ele><time>2026-03-11T15:55:34Z</time><extensions><gpxtpx:TrackPointExtension><gpxtpx:atemp>3.0</gpxtpx:atemp></gpxtpx:TrackPointExtension></extensions></trkpt><trkpt lat="42.2098173201" lon="13.4171432443"><ele>1632.87</ele><time>2026-03-11T15:55:35Z</time><extensions><gpxtpx:TrackPointExtension><gpxtpx:atemp>3.0</gpxtpx:atemp></gpxtpx:TrackPointExtension></extensions></trkpt><trkpt lat="42.2098092735" lon="13.4171457589"><ele>1632.88</ele><time>2026-03-11T15:55:36Z</time><extensions><gpxtpx:TrackPointExtension><gpxtpx:atemp>3.0</gpxtpx:atemp></gpxtpx:TrackPointExtension></extensions></trkpt><trkpt lat="42.2098028194" lon="13.4171419870"><ele>1632.90</ele><time>2026-03-11T15:55:37Z</time><extensions><gpxtpx:TrackPointExtension><gpxtpx:atemp>3.0</gpxtpx:atemp></gpxtpx:TrackPointExtension></extensions></trkpt><trkpt lat="42.2097948566" lon="13.4171434958"><ele>1632.94</ele><time>2026-03-11T15:55:38Z</time><extensions><gpxtpx:TrackPointExtension><gpxtpx:atemp>3.0</gpxtpx:atemp></gpxtpx:TrackPointExtension></extensions></trkpt><trkpt lat="42.2097846307" lon="13.4171465971"><ele>1632.98</ele><time>2026-03-11T15:55:39Z</time><extensions><gpxtpx:TrackPointExtension><gpxtpx:atemp>3.0</gpxtpx:atemp></gpxtpx:TrackPointExtension></extensions></trkpt><trkpt lat="42.2097770870" lon="13.4171454236"><ele>1633.00</ele><time>2026-03-11T15:55:40Z</time><extensions><gpxtpx:TrackPointExtension><gpxtpx:atemp>3.0</gpxtpx:atemp></gpxtpx:TrackPointExtension></extensions></trkpt><trkpt lat="42.2097707167" lon="13.4171466809"><ele>1633.02</ele><time>2026-03-11T15:55:41Z</time><extensions><gpxtpx:TrackPointExtension><gpxtpx:atemp>3.0</gpxtpx:atemp></gpxtpx:TrackPointExtension></extensions></trkpt><trkpt lat="42.2097633407" lon="13.4171479382"><ele>1633.02</ele><time>2026-03-11T15:55:42Z</time><extensions><gpxtpx:TrackPointExtension><gpxtpx:atemp>3.0</gpxtpx:atemp></gpxtpx:TrackPointExtension></extensions></trkpt><trkpt lat="42.2097550426" lon="13.4171484411"><ele>1633.04</ele><time>2026-03-11T15:55:43Z</time><extensions><gpxtpx:TrackPointExtension><gpxtpx:atemp>3.0</gpxtpx:atemp></gpxtpx:TrackPointExtension></extensions></trkpt><trkpt lat="42.2097492591" lon="13.4171518777"><ele>1633.06</ele><time>2026-03-11T15:55:44Z</time><extensions><gpxtpx:TrackPointExtension><gpxtpx:atemp>3.0</gpxtpx:atemp></gpxtpx:TrackPointExtension></extensions></trkpt><trkpt lat="42.2097412962" lon="13.4171512909"><ele>1633.07</ele><time>2026-03-11T15:55:45Z</time><extensions><gpxtpx:TrackPointExtension><gpxtpx:atemp>3.0</gpxtpx:atemp></gpxtpx:TrackPointExtension></extensions></trkpt><trkpt lat="42.2097354289" lon="13.4171513747"><ele>1633.10</ele><time>2026-03-11T15:55:46Z</time><extensions><gpxtpx:TrackPointExtension><gpxtpx:atemp>3.0</gpxtpx:atemp></gpxtpx:TrackPointExtension></extensions></trkpt><trkpt lat="42.2097293939" lon="13.4171509556"><ele>1633.11</ele><time>2026-03-11T15:55:47Z</time><extensions><gpxtpx:TrackPointExtension><gpxtpx:atemp>3.0</gpxtpx:atemp></gpxtpx:TrackPointExtension></extensions></trkpt><trkpt lat="42.2097213473" lon="13.4171539731"><ele>1633.11</ele><time>2026-03-11T15:55:48Z</time><extensions><gpxtpx:TrackPointExtension><gpxtpx:atemp>3.0</gpxtpx:atemp></gpxtpx:TrackPointExtension></extensions></trkpt><trkpt lat="42.2097130492" lon="13.4171566553"><ele>1633.12</ele><time>2026-03-11T15:55:49Z</time><extensions><gpxtpx:TrackPointExtension><gpxtpx:atemp>3.0</gpxtpx:atemp></gpxtpx:TrackPointExtension></extensions></trkpt><trkpt lat="42.2097065952" lon="13.4171570744"><ele>1633.12</ele><time>2026-03-11T15:55:50Z</time><extensions><gpxtpx:TrackPointExtension><gpxtpx:atemp>3.0</gpxtpx:atemp></gpxtpx:TrackPointExtension></extensions></trkpt><trkpt lat="42.2096982971" lon="13.4171601757"><ele>1633.12</ele><time>2026-03-11T15:55:51Z</time><extensions><gpxtpx:TrackPointExtension><gpxtpx:atemp>3.0</gpxtpx:atemp></gpxtpx:TrackPointExtension></extensions></trkpt><trkpt lat="42.2096906696" lon="13.4171637800"><ele>1633.12</ele><time>2026-03-11T15:55:52Z</time><extensions><gpxtpx:TrackPointExtension><gpxtpx:atemp>3.0</gpxtpx:atemp></gpxtpx:TrackPointExtension></extensions></trkpt><trkpt lat="42.2096815333" lon="13.4171643667"><ele>1633.14</ele><time>2026-03-11T15:55:53Z</time><extensions><gpxtpx:TrackPointExtension><gpxtpx:atemp>3.0</gpxtpx:atemp></gpxtpx:TrackPointExtension></extensions></trkpt><trkpt lat="42.2096739896" lon="13.4171687253"><ele>1633.13</ele><time>2026-03-11T15:55:54Z</time><extensions><gpxtpx:TrackPointExtension><gpxtpx:atemp>3.0</gpxtpx:atemp></gpxtpx:TrackPointExtension></extensions></trkpt><trkpt lat="42.2096670326" lon="13.4171749279"><ele>1633.13</ele><time>2026-03-11T15:55:55Z</time><extensions><gpxtpx:TrackPointExtension><gpxtpx:atemp>3.0</gpxtpx:atemp></gpxtpx:TrackPointExtension></extensions></trkpt><trkpt lat="42.2096615843" lon="13.4171821363"><ele>1633.13</ele><time>2026-03-11T15:55:56Z</time><extensions><gpxtpx:TrackPointExtension><gpxtpx:atemp>3.0</gpxtpx:atemp></gpxtpx:TrackPointExtension></extensions></trkpt><trkpt lat="42.2096562199" lon="13.4171863273"><ele>1633.09</ele><time>2026-03-11T15:55:57Z</time><extensions><gpxtpx:TrackPointExtension><gpxtpx:atemp>3.0</gpxtpx:atemp></gpxtpx:TrackPointExtension></extensions></trkpt><trkpt lat="42.2096513584" lon="13.4171953797"><ele>1633.08</ele><time>2026-03-11T15:55:58Z</time><extensions><gpxtpx:TrackPointExtension><gpxtpx:atemp>3.0</gpxtpx:atemp></gpxtpx:TrackPointExtension></extensions></trkpt><trkpt lat="42.2096473351" lon="13.4172036778"><ele>1633.04</ele><time>2026-03-11T15:55:59Z</time><extensions><gpxtpx:TrackPointExtension><gpxtpx:atemp>3.0</gpxtpx:atemp></gpxtpx:TrackPointExtension></extensions></trkpt><trkpt lat="42.2096439824" lon="13.4172132332"><ele>1633.02</ele><time>2026-03-11T15:56:00Z</time><extensions><gpxtpx:TrackPointExtension><gpxtpx:atemp>3.0</gpxtpx:atemp></gpxtpx:TrackPointExtension></extensions></trkpt><trkpt lat="42.2096399590" lon="13.4172201902"><ele>1632.99</ele><time>2026-03-11T15:56:01Z</time><extensions><gpxtpx:TrackPointExtension><gpxtpx:atemp>3.0</gpxtpx:atemp></gpxtpx:TrackPointExtension></extensions></trkpt><trkpt lat="42.2096361872" lon="13.4172274824"><ele>1632.96</ele><time>2026-03-11T15:56:02Z</time><extensions><gpxtpx:TrackPointExtension><gpxtpx:atemp>3.0</gpxtpx:atemp></gpxtpx:TrackPointExtension></extensions></trkpt><trkpt lat="42.2096333373" lon="13.4172356967"><ele>1632.95</ele><time>2026-03-11T15:56:03Z</time><extensions><gpxtpx:TrackPointExtension><gpxtpx:atemp>3.0</gpxtpx:atemp></gpxtpx:TrackPointExtension></extensions></trkpt><trkpt lat="42.2096318286" lon="13.4172450844"><ele>1632.95</ele><time>2026-03-11T15:56:04Z</time><extensions><gpxtpx:TrackPointExtension><gpxtpx:atemp>3.0</gpxtpx:atemp></gpxtpx:TrackPointExtension></extensions></trkpt><trkpt lat="42.2096310742" lon="13.4172524605"><ele>1632.95</ele><time>2026-03-11T15:56:05Z</time><extensions><gpxtpx:TrackPointExtension><gpxtpx:atemp>3.0</gpxtpx:atemp></gpxtpx:TrackPointExtension></extensions></trkpt><trkpt lat="42.2096325830" lon="13.4172609262"><ele>1632.96</ele><time>2026-03-11T15:56:06Z</time><extensions><gpxtpx:TrackPointExtension><gpxtpx:atemp>3.0</gpxtpx:atemp></gpxtpx:TrackPointExtension></extensions></trkpt><trkpt lat="42.2096358519" lon="13.4172707330"><ele>1632.99</ele><time>2026-03-11T15:56:07Z</time><extensions><gpxtpx:TrackPointExtension><gpxtpx:atemp>3.0</gpxtpx:atemp></gpxtpx:TrackPointExtension></extensions></trkpt><trkpt lat="42.2096386179" lon="13.4172800370"><ele>1633.02</ele><time>2026-03-11T15:56:08Z</time><extensions><gpxtpx:TrackPointExtension><gpxtpx:atemp>3.0</gpxtpx:atemp></gpxtpx:TrackPointExtension></extensions></trkpt><trkpt lat="42.2096455749" lon="13.4172821324"><ele>1633.08</ele><time>2026-03-11T15:56:09Z</time><extensions><gpxtpx:TrackPointExtension><gpxtpx:atemp>3.0</gpxtpx:atemp></gpxtpx:TrackPointExtension></extensions></trkpt><trkpt lat="42.2096513584" lon="13.4172864910"><ele>1633.09</ele><time>2026-03-11T15:56:10Z</time><extensions><gpxtpx:TrackPointExtension><gpxtpx:atemp>3.0</gpxtpx:atemp></gpxtpx:TrackPointExtension></extensions></trkpt><trkpt lat="42.2096576449" lon="13.4172933642"><ele>1633.08</ele><time>2026-03-11T15:56:11Z</time><extensions><gpxtpx:TrackPointExtension><gpxtpx:atemp>3.0</gpxtpx:atemp></gpxtpx:TrackPointExtension></extensions></trkpt><trkpt lat="42.2096639313" lon="13.4172994830"><ele>1633.11</ele><time>2026-03-11T15:56:12Z</time><extensions><gpxtpx:TrackPointExtension><gpxtpx:atemp>3.0</gpxtpx:atemp></gpxtpx:TrackPointExtension></extensions></trkpt><trkpt lat="42.2096707206" lon="13.4173023328"><ele>1633.14</ele><time>2026-03-11T15:56:13Z</time><extensions><gpxtpx:TrackPointExtension><gpxtpx:atemp>3.0</gpxtpx:atemp></gpxtpx:TrackPointExtension></extensions></trkpt><trkpt lat="42.2096775938" lon="13.4173074458"><ele>1633.12</ele><time>2026-03-11T15:56:14Z</time><extensions><gpxtpx:TrackPointExtension><gpxtpx:atemp>3.0</gpxtpx:atemp></gpxtpx:TrackPointExtension></extensions></trkpt><trkpt lat="42.2096814495" lon="13.4173140675"><ele>1633.11</ele><time>2026-03-11T15:56:15Z</time><extensions><gpxtpx:TrackPointExtension><gpxtpx:atemp>3.0</gpxtpx:atemp></gpxtpx:TrackPointExtension></extensions></trkpt><trkpt lat="42.2096872330" lon="13.4173185937"><ele>1633.11</ele><time>2026-03-11T15:56:16Z</time><extensions><gpxtpx:TrackPointExtension><gpxtpx:atemp>3.0</gpxtpx:atemp></gpxtpx:TrackPointExtension></extensions></trkpt><trkpt lat="42.2096938547" lon="13.4173250478"><ele>1633.09</ele><time>2026-03-11T15:56:17Z</time><extensions><gpxtpx:TrackPointExtension><gpxtpx:atemp>3.0</gpxtpx:atemp></gpxtpx:TrackPointExtension></extensions></trkpt><trkpt lat="42.2097002249" lon="13.4173309989"><ele>1633.08</ele><time>2026-03-11T15:56:18Z</time><extensions><gpxtpx:TrackPointExtension><gpxtpx:atemp>3.0</gpxtpx:atemp></gpxtpx:TrackPointExtension></extensions></trkpt><trkpt lat="42.2097083554" lon="13.4173407219"><ele>1633.02</ele><time>2026-03-11T15:56:19Z</time><extensions><gpxtpx:TrackPointExtension><gpxtpx:atemp>3.0</gpxtpx:atemp></gpxtpx:TrackPointExtension></extensions></trkpt><trkpt lat="42.2097132169" lon="13.4173427336"><ele>1633.00</ele><time>2026-03-11T15:56:20Z</time><extensions><gpxtpx:TrackPointExtension><gpxtpx:atemp>3.0</gpxtpx:atemp></gpxtpx:TrackPointExtension></extensions></trkpt><trkpt lat="42.2097203415" lon="13.4173480980"><ele>1633.01</ele><time>2026-03-11T15:56:21Z</time><extensions><gpxtpx:TrackPointExtension><gpxtpx:atemp>3.0</gpxtpx:atemp></gpxtpx:TrackPointExtension></extensions></trkpt><trkpt lat="42.2097268794" lon="13.4173527919"><ele>1633.02</ele><time>2026-03-11T15:56:22Z</time><extensions><gpxtpx:TrackPointExtension><gpxtpx:atemp>3.0</gpxtpx:atemp></gpxtpx:TrackPointExtension></extensions></trkpt><trkpt lat="42.2097319923" lon="13.4173540492"><ele>1633.03</ele><time>2026-03-11T15:56:23Z</time><extensions><gpxtpx:TrackPointExtension><gpxtpx:atemp>3.0</gpxtpx:atemp></gpxtpx:TrackPointExtension></extensions></trkpt><trkpt lat="42.2097336687" lon="13.4173529595"><ele>1633.05</ele><time>2026-03-11T15:56:24Z</time><extensions><gpxtpx:TrackPointExtension><gpxtpx:atemp>3.0</gpxtpx:atemp></gpxtpx:TrackPointExtension></extensions></trkpt><trkpt lat="42.2097312380" lon="13.4173490200"><ele>1633.06</ele><time>2026-03-11T15:56:25Z</time><extensions><gpxtpx:TrackPointExtension><gpxtpx:atemp>3.0</gpxtpx:atemp></gpxtpx:TrackPointExtension></extensions></trkpt><trkpt lat="42.2097311541" lon="13.4173490200"><ele>1633.07</ele><time>2026-03-11T15:56:26Z</time><extensions><gpxtpx:TrackPointExtension><gpxtpx:atemp>3.0</gpxtpx:atemp></gpxtpx:TrackPointExtension></extensions></trkpt><trkpt lat="42.2097302321" lon="13.4173497744"><ele>1633.08</ele><time>2026-03-11T15:56:27Z</time><extensions><gpxtpx:TrackPointExtension><gpxtpx:atemp>3.0</gpxtpx:atemp></gpxtpx:TrackPointExtension></extensions></trkpt><trkpt lat="42.2097303998" lon="13.4173498582"><ele>1633.08</ele><time>2026-03-11T15:56:28Z</time><extensions><gpxtpx:TrackPointExtension><gpxtpx:atemp>3.0</gpxtpx:atemp></gpxtpx:TrackPointExtension></extensions></trkpt><trkpt lat="42.2097299807" lon="13.4173489362"><ele>1633.07</ele><time>2026-03-11T15:56:29Z</time><extensions><gpxtpx:TrackPointExtension><gpxtpx:atemp>3.0</gpxtpx:atemp></gpxtpx:TrackPointExtension></extensions></trkpt><trkpt lat="42.2097298969" lon="13.4173491877"><ele>1633.02</ele><time>2026-03-11T15:56:30Z</time><extensions><gpxtpx:TrackPointExtension><gpxtpx:atemp>3.0</gpxtpx:atemp></gpxtpx:TrackPointExtension></extensions></trkpt><trkpt lat="42.2097300645" lon="13.4173497744"><ele>1632.83</ele><time>2026-03-11T15:56:31Z</time><extensions><gpxtpx:TrackPointExtension><gpxtpx:atemp>3.0</gpxtpx:atemp></gpxtpx:TrackPointExtension></extensions></trkpt><trkpt lat="42.2097308189" lon="13.4173519537"><ele>1632.78</ele><time>2026-03-11T15:56:32Z</time><extensions><gpxtpx:TrackPointExtension><gpxtpx:atemp>3.1</gpxtpx:atemp></gpxtpx:TrackPointExtension></extensions></trkpt><trkpt lat="42.2097313218" lon="13.4173528757"><ele>1632.78</ele><time>2026-03-11T15:56:33Z</time><extensions><gpxtpx:TrackPointExtension><gpxtpx:atemp>3.1</gpxtpx:atemp></gpxtpx:TrackPointExtension></extensions></trkpt><trkpt lat="42.2097316571" lon="13.4173532948"><ele>1632.78</ele><time>2026-03-11T15:56:34Z</time><extensions><gpxtpx:TrackPointExtension><gpxtpx:atemp>3.1</gpxtpx:atemp></gpxtpx:TrackPointExtension></extensions></trkpt><trkpt lat="42.2097312380" lon="13.4173544683"><ele>1632.76</ele><time>2026-03-11T15:56:35Z</time><extensions><gpxtpx:TrackPointExtension><gpxtpx:atemp>3.1</gpxtpx:atemp></gpxtpx:TrackPointExtension></extensions></trkpt><trkpt lat="42.2097334173" lon="13.4173576534"><ele>1632.74</ele><time>2026-03-11T15:56:36Z</time><extensions><gpxtpx:TrackPointExtension><gpxtpx:atemp>3.1</gpxtpx:atemp></gpxtpx:TrackPointExtension></extensions></trkpt><trkpt lat="42.2097360995" lon="13.4173678793"><ele>1632.75</ele><time>2026-03-11T15:56:37Z</time><extensions><gpxtpx:TrackPointExtension><gpxtpx:atemp>3.1</gpxtpx:atemp></gpxtpx:TrackPointExtension></extensions></trkpt><trkpt lat="42.2097425535" lon="13.4173744172"><ele>1632.77</ele><time>2026-03-11T15:56:38Z</time><extensions><gpxtpx:TrackPointExtension><gpxtpx:atemp>3.1</gpxtpx:atemp></gpxtpx:TrackPointExtension></extensions></trkpt><trkpt lat="42.2097492591" lon="13.4173766803"><ele>1632.80</ele><time>2026-03-11T15:56:39Z</time><extensions><gpxtpx:TrackPointExtension><gpxtpx:atemp>3.1</gpxtpx:atemp></gpxtpx:TrackPointExtension></extensions></trkpt><trkpt lat="42.2097556293" lon="13.4173757583"><ele>1632.82</ele><time>2026-03-11T15:56:40Z</time><extensions><gpxtpx:TrackPointExtension><gpxtpx:atemp>3.1</gpxtpx:atemp></gpxtpx:TrackPointExtension></extensions></trkpt><trkpt lat="42.2097619995" lon="13.4173793625"><ele>1632.88</ele><time>2026-03-11T15:56:41Z</time><extensions><gpxtpx:TrackPointExtension><gpxtpx:atemp>3.1</gpxtpx:atemp></gpxtpx:TrackPointExtension></extensions></trkpt><trkpt lat="42.2097681183" lon="13.4173859842"><ele>1632.94</ele><time>2026-03-11T15:56:42Z</time><extensions><gpxtpx:TrackPointExtension><gpxtpx:atemp>3.1</gpxtpx:atemp></gpxtpx:TrackPointExtension></extensions></trkpt><trkpt lat="42.2097749915" lon="13.4173913486"><ele>1632.98</ele><time>2026-03-11T15:56:43Z</time><extensions><gpxtpx:TrackPointExtension><gpxtpx:atemp>3.1</gpxtpx:atemp></gpxtpx:TrackPointExtension></extensions></trkpt><trkpt lat="42.2097837925" lon="13.4173978865"><ele>1632.99</ele><time>2026-03-11T15:56:44Z</time><extensions><gpxtpx:TrackPointExtension><gpxtpx:atemp>3.1</gpxtpx:atemp></gpxtpx:TrackPointExtension></extensions></trkpt><trkpt lat="42.2097917553" lon="13.4174005687"><ele>1632.99</ele><time>2026-03-11T15:56:45Z</time><extensions><gpxtpx:TrackPointExtension><gpxtpx:atemp>3.1</gpxtpx:atemp></gpxtpx:TrackPointExtension></extensions></trkpt><trkpt lat="42.2098010592" lon="13.4174040891"><ele>1632.99</ele><time>2026-03-11T15:56:46Z</time><extensions><gpxtpx:TrackPointExtension><gpxtpx:atemp>3.1</gpxtpx:atemp></gpxtpx:TrackPointExtension></extensions></trkpt><trkpt lat="42.2098095249" lon="13.4174069390"><ele>1632.99</ele><time>2026-03-11T15:56:47Z</time><extensions><gpxtpx:TrackPointExtension><gpxtpx:atemp>3.1</gpxtpx:atemp></gpxtpx:TrackPointExtension></extensions></trkpt><trkpt lat="42.2098153923" lon="13.4174106270"><ele>1632.97</ele><time>2026-03-11T15:56:48Z</time><extensions><gpxtpx:TrackPointExtension><gpxtpx:atemp>3.1</gpxtpx:atemp></gpxtpx:TrackPointExtension></extensions></trkpt><trkpt lat="42.2098239418" lon="13.4174136445"><ele>1632.96</ele><time>2026-03-11T15:56:49Z</time><extensions><gpxtpx:TrackPointExtension><gpxtpx:atemp>3.1</gpxtpx:atemp></gpxtpx:TrackPointExtension></extensions></trkpt><trkpt lat="42.2098318208" lon="13.4174197633"><ele>1632.94</ele><time>2026-03-11T15:56:50Z</time><extensions><gpxtpx:TrackPointExtension><gpxtpx:atemp>3.1</gpxtpx:atemp></gpxtpx:TrackPointExtension></extensions></trkpt><trkpt lat="42.2098411247" lon="13.4174228646"><ele>1632.89</ele><time>2026-03-11T15:56:51Z</time><extensions><gpxtpx:TrackPointExtension><gpxtpx:atemp>3.1</gpxtpx:atemp></gpxtpx:TrackPointExtension></extensions></trkpt><trkpt lat="42.2098507639" lon="13.4174285643"><ele>1632.85</ele><time>2026-03-11T15:56:52Z</time><extensions><gpxtpx:TrackPointExtension><gpxtpx:atemp>3.1</gpxtpx:atemp></gpxtpx:TrackPointExtension></extensions></trkpt><trkpt lat="42.2098601516" lon="13.4174343478"><ele>1632.79</ele><time>2026-03-11T15:56:53Z</time><extensions><gpxtpx:TrackPointExtension><gpxtpx:atemp>3.1</gpxtpx:atemp></gpxtpx:TrackPointExtension></extensions></trkpt><trkpt lat="42.2098709643" lon="13.4174401313"><ele>1632.74</ele><time>2026-03-11T15:56:54Z</time><extensions><gpxtpx:TrackPointExtension><gpxtpx:atemp>3.1</gpxtpx:atemp></gpxtpx:TrackPointExtension></extensions></trkpt><trkpt lat="42.2098804358" lon="13.4174469206"><ele>1632.60</ele><time>2026-03-11T15:56:55Z</time><extensions><gpxtpx:TrackPointExtension><gpxtpx:atemp>3.1</gpxtpx:atemp></gpxtpx:TrackPointExtension></extensions></trkpt><trkpt lat="42.2098895721" lon="13.4174523689"><ele>1632.50</ele><time>2026-03-11T15:56:56Z</time><extensions><gpxtpx:TrackPointExtension><gpxtpx:atemp>3.1</gpxtpx:atemp></gpxtpx:TrackPointExtension></extensions></trkpt><trkpt lat="42.2098980378" lon="13.4174567275"><ele>1632.39</ele><time>2026-03-11T15:56:57Z</time><extensions><gpxtpx:TrackPointExtension><gpxtpx:atemp>3.1</gpxtpx:atemp></gpxtpx:TrackPointExtension></extensions></trkpt><trkpt lat="42.2099062521" lon="13.4174593259"><ele>1632.28</ele><time>2026-03-11T15:56:58Z</time><extensions><gpxtpx:TrackPointExtension><gpxtpx:atemp>3.1</gpxtpx:atemp></gpxtpx:TrackPointExtension></extensions></trkpt><trkpt lat="42.2099161427" lon="13.4174621757"><ele>1632.18</ele><time>2026-03-11T15:56:59Z</time><extensions><gpxtpx:TrackPointExtension><gpxtpx:atemp>3.1</gpxtpx:atemp></gpxtpx:TrackPointExtension></extensions></trkpt><trkpt lat="42.2099229321" lon="13.4174651932"><ele>1632.09</ele><time>2026-03-11T15:57:00Z</time><extensions><gpxtpx:TrackPointExtension><gpxtpx:atemp>3.1</gpxtpx:atemp></gpxtpx:TrackPointExtension></extensions></trkpt><trkpt lat="42.2099289671" lon="13.4174719825"><ele>1632.03</ele><time>2026-03-11T15:57:01Z</time><extensions><gpxtpx:TrackPointExtension><gpxtpx:atemp>3.1</gpxtpx:atemp></gpxtpx:TrackPointExtension></extensions></trkpt><trkpt lat="42.2099371813" lon="13.4174765926"><ele>1631.98</ele><time>2026-03-11T15:57:02Z</time><extensions><gpxtpx:TrackPointExtension><gpxtpx:atemp>3.1</gpxtpx:atemp></gpxtpx:TrackPointExtension></extensions></trkpt><trkpt lat="42.2099450603" lon="13.4174806997"><ele>1631.92</ele><time>2026-03-11T15:57:03Z</time><extensions><gpxtpx:TrackPointExtension><gpxtpx:atemp>3.1</gpxtpx:atemp></gpxtpx:TrackPointExtension></extensions></trkpt><trkpt lat="42.2099510953" lon="13.4174859803"><ele>1631.85</ele><time>2026-03-11T15:57:04Z</time><extensions><gpxtpx:TrackPointExtension><gpxtpx:atemp>3.1</gpxtpx:atemp></gpxtpx:TrackPointExtension></extensions></trkpt><trkpt lat="42.2099576332" lon="13.4174903389"><ele>1631.77</ele><time>2026-03-11T15:57:05Z</time><extensions><gpxtpx:TrackPointExtension><gpxtpx:atemp>3.1</gpxtpx:atemp></gpxtpx:TrackPointExtension></extensions></trkpt><trkpt lat="42.2099633329" lon="13.4174956195"><ele>1631.64</ele><time>2026-03-11T15:57:06Z</time><extensions><gpxtpx:TrackPointExtension><gpxtpx:atemp>3.1</gpxtpx:atemp></gpxtpx:TrackPointExtension></extensions></trkpt><trkpt lat="42.2099721339" lon="13.4175031632"><ele>1631.56</ele><time>2026-03-11T15:57:07Z</time><extensions><gpxtpx:TrackPointExtension><gpxtpx:atemp>3.1</gpxtpx:atemp></gpxtpx:TrackPointExtension></extensions></trkpt><trkpt lat="42.2099798452" lon="13.4175079409"><ele>1631.48</ele><time>2026-03-11T15:57:08Z</time><extensions><gpxtpx:TrackPointExtension><gpxtpx:atemp>3.1</gpxtpx:atemp></gpxtpx:TrackPointExtension></extensions></trkpt><trkpt lat="42.2099875566" lon="13.4175121319"><ele>1631.41</ele><time>2026-03-11T15:57:09Z</time><extensions><gpxtpx:TrackPointExtension><gpxtpx:atemp>3.1</gpxtpx:atemp></gpxtpx:TrackPointExtension></extensions></trkpt><trkpt lat="42.2099964414" lon="13.4175175801"><ele>1631.38</ele><time>2026-03-11T15:57:10Z</time><extensions><gpxtpx:TrackPointExtension><gpxtpx:atemp>3.1</gpxtpx:atemp></gpxtpx:TrackPointExtension></extensions></trkpt><trkpt lat="42.2100032307" lon="13.4175236989"><ele>1631.36</ele><time>2026-03-11T15:57:11Z</time><extensions><gpxtpx:TrackPointExtension><gpxtpx:atemp>3.1</gpxtpx:atemp></gpxtpx:TrackPointExtension></extensions></trkpt><trkpt lat="42.2100108583" lon="13.4175278898"><ele>1631.35</ele><time>2026-03-11T15:57:12Z</time><extensions><gpxtpx:TrackPointExtension><gpxtpx:atemp>3.1</gpxtpx:atemp></gpxtpx:TrackPointExtension></extensions></trkpt><trkpt lat="42.2100186534" lon="13.4175289795"><ele>1631.31</ele><time>2026-03-11T15:57:13Z</time><extensions><gpxtpx:TrackPointExtension><gpxtpx:atemp>3.1</gpxtpx:atemp></gpxtpx:TrackPointExtension></extensions></trkpt><trkpt lat="42.2100251913" lon="13.4175340924"><ele>1631.28</ele><time>2026-03-11T15:57:14Z</time><extensions><gpxtpx:TrackPointExtension><gpxtpx:atemp>3.1</gpxtpx:atemp></gpxtpx:TrackPointExtension></extensions></trkpt><trkpt lat="42.2100325674" lon="13.4175371937"><ele>1631.24</ele><time>2026-03-11T15:57:15Z</time><extensions><gpxtpx:TrackPointExtension><gpxtpx:atemp>3.1</gpxtpx:atemp></gpxtpx:TrackPointExtension></extensions></trkpt><trkpt lat="42.2100372612" lon="13.4175443184"><ele>1631.21</ele><time>2026-03-11T15:57:16Z</time><extensions><gpxtpx:TrackPointExtension><gpxtpx:atemp>3.1</gpxtpx:atemp></gpxtpx:TrackPointExtension></extensions></trkpt><trkpt lat="42.2100446373" lon="13.4175479226"><ele>1631.19</ele><time>2026-03-11T15:57:17Z</time><extensions><gpxtpx:TrackPointExtension><gpxtpx:atemp>3.1</gpxtpx:atemp></gpxtpx:TrackPointExtension></extensions></trkpt><trkpt lat="42.2100523487" lon="13.4175527841"><ele>1631.15</ele><time>2026-03-11T15:57:18Z</time><extensions><gpxtpx:TrackPointExtension><gpxtpx:atemp>3.1</gpxtpx:atemp></gpxtpx:TrackPointExtension></extensions></trkpt><trkpt lat="42.2100587189" lon="13.4175578970"><ele>1631.10</ele><time>2026-03-11T15:57:19Z</time><extensions><gpxtpx:TrackPointExtension><gpxtpx:atemp>3.1</gpxtpx:atemp></gpxtpx:TrackPointExtension></extensions></trkpt><trkpt lat="42.2100655921" lon="13.4175619204"><ele>1631.05</ele><time>2026-03-11T15:57:20Z</time><extensions><gpxtpx:TrackPointExtension><gpxtpx:atemp>3.1</gpxtpx:atemp></gpxtpx:TrackPointExtension></extensions></trkpt><trkpt lat="42.2100701183" lon="13.4175632615"><ele>1631.03</ele><time>2026-03-11T15:57:21Z</time><extensions><gpxtpx:TrackPointExtension><gpxtpx:atemp>3.1</gpxtpx:atemp></gpxtpx:TrackPointExtension></extensions></trkpt><trkpt lat="42.2100782488" lon="13.4175657760"><ele>1631.01</ele><time>2026-03-11T15:57:22Z</time><extensions><gpxtpx:TrackPointExtension><gpxtpx:atemp>3.1</gpxtpx:atemp></gpxtpx:TrackPointExtension></extensions></trkpt><trkpt lat="42.2100858763" lon="13.4175680391"><ele>1631.00</ele><time>2026-03-11T15:57:23Z</time><extensions><gpxtpx:TrackPointExtension><gpxtpx:atemp>3.1</gpxtpx:atemp></gpxtpx:TrackPointExtension></extensions></trkpt><trkpt lat="42.2100932524" lon="13.4175690450"><ele>1631.02</ele><time>2026-03-11T15:57:24Z</time><extensions><gpxtpx:TrackPointExtension><gpxtpx:atemp>3.1</gpxtpx:atemp></gpxtpx:TrackPointExtension></extensions></trkpt><trkpt lat="42.2101002932" lon="13.4175652731"><ele>1631.03</ele><time>2026-03-11T15:57:25Z</time><extensions><gpxtpx:TrackPointExtension><gpxtpx:atemp>3.1</gpxtpx:atemp></gpxtpx:TrackPointExtension></extensions></trkpt><trkpt lat="42.2101072501" lon="13.4175686259"><ele>1631.05</ele><time>2026-03-11T15:57:26Z</time><extensions><gpxtpx:TrackPointExtension><gpxtpx:atemp>3.1</gpxtpx:atemp></gpxtpx:TrackPointExtension></extensions></trkpt><trkpt lat="42.2101139557" lon="13.4175700508"><ele>1631.06</ele><time>2026-03-11T15:57:27Z</time><extensions><gpxtpx:TrackPointExtension><gpxtpx:atemp>3.1</gpxtpx:atemp></gpxtpx:TrackPointExtension></extensions></trkpt><trkpt lat="42.2101227567" lon="13.4175692964"><ele>1631.07</ele><time>2026-03-11T15:57:28Z</time><extensions><gpxtpx:TrackPointExtension><gpxtpx:atemp>3.1</gpxtpx:atemp></gpxtpx:TrackPointExtension></extensions></trkpt><trkpt lat="42.2101292945" lon="13.4175712243"><ele>1631.07</ele><time>2026-03-11T15:57:29Z</time><extensions><gpxtpx:TrackPointExtension><gpxtpx:atemp>3.1</gpxtpx:atemp></gpxtpx:TrackPointExtension></extensions></trkpt><trkpt lat="42.2101378441" lon="13.4175726492"><ele>1631.05</ele><time>2026-03-11T15:57:30Z</time><extensions><gpxtpx:TrackPointExtension><gpxtpx:atemp>3.1</gpxtpx:atemp></gpxtpx:TrackPointExtension></extensions></trkpt><trkpt lat="42.2101453878" lon="13.4175752476"><ele>1631.05</ele><time>2026-03-11T15:57:31Z</time><extensions><gpxtpx:TrackPointExtension><gpxtpx:atemp>3.1</gpxtpx:atemp></gpxtpx:TrackPointExtension></extensions></trkpt><trkpt lat="42.2101540212" lon="13.4175763372"><ele>1631.04</ele><time>2026-03-11T15:57:32Z</time><extensions><gpxtpx:TrackPointExtension><gpxtpx:atemp>2.9</gpxtpx:atemp></gpxtpx:TrackPointExtension></extensions></trkpt><trkpt lat="42.2101619840" lon="13.4175760858"><ele>1631.04</ele><time>2026-03-11T15:57:33Z</time><extensions><gpxtpx:TrackPointExtension><gpxtpx:atemp>2.9</gpxtpx:atemp></gpxtpx:TrackPointExtension></extensions></trkpt><trkpt lat="42.2101701982" lon="13.4175775945"><ele>1631.02</ele><time>2026-03-11T15:57:34Z</time><extensions><gpxtpx:TrackPointExtension><gpxtpx:atemp>2.9</gpxtpx:atemp></gpxtpx:TrackPointExtension></extensions></trkpt><trkpt lat="42.2101782449" lon="13.4175764211"><ele>1630.97</ele><time>2026-03-11T15:57:35Z</time><extensions><gpxtpx:TrackPointExtension><gpxtpx:atemp>2.9</gpxtpx:atemp></gpxtpx:TrackPointExtension></extensions></trkpt><trkpt lat="42.2101862915" lon="13.4175782651"><ele>1630.92</ele><time>2026-03-11T15:57:36Z</time><extensions><gpxtpx:TrackPointExtension><gpxtpx:atemp>2.9</gpxtpx:atemp></gpxtpx:TrackPointExtension></extensions></trkpt><trkpt lat="42.2101940867" lon="13.4175769240"><ele>1630.89</ele><time>2026-03-11T15:57:37Z</time><extensions><gpxtpx:TrackPointExtension><gpxtpx:atemp>2.9</gpxtpx:atemp></gpxtpx:TrackPointExtension></extensions></trkpt><trkpt lat="42.2102025524" lon="13.4175752476"><ele>1630.87</ele><time>2026-03-11T15:57:38Z</time><extensions><gpxtpx:TrackPointExtension><gpxtpx:atemp>2.9</gpxtpx:atemp></gpxtpx:TrackPointExtension></extensions></trkpt><trkpt lat="42.2102089226" lon="13.4175765887"><ele>1630.87</ele><time>2026-03-11T15:57:39Z</time><extensions><gpxtpx:TrackPointExtension><gpxtpx:atemp>2.9</gpxtpx:atemp></gpxtpx:TrackPointExtension></extensions></trkpt><trkpt lat="42.2102162987" lon="13.4175743256"><ele>1630.88</ele><time>2026-03-11T15:57:40Z</time><extensions><gpxtpx:TrackPointExtension><gpxtpx:atemp>2.9</gpxtpx:atemp></gpxtpx:TrackPointExtension></extensions></trkpt><trkpt lat="42.2102224175" lon="13.4175732359"><ele>1630.88</ele><time>2026-03-11T15:57:41Z</time><extensions><gpxtpx:TrackPointExtension><gpxtpx:atemp>2.9</gpxtpx:atemp></gpxtpx:TrackPointExtension></extensions></trkpt><trkpt lat="42.2102307994" lon="13.4175731521"><ele>1630.88</ele><time>2026-03-11T15:57:42Z</time><extensions><gpxtpx:TrackPointExtension><gpxtpx:atemp>2.9</gpxtpx:atemp></gpxtpx:TrackPointExtension></extensions></trkpt><trkpt lat="42.2102385946" lon="13.4175725654"><ele>1630.86</ele><time>2026-03-11T15:57:43Z</time><extensions><gpxtpx:TrackPointExtension><gpxtpx:atemp>2.9</gpxtpx:atemp></gpxtpx:TrackPointExtension></extensions></trkpt><trkpt lat="42.2102454677" lon="13.4175763372"><ele>1630.81</ele><time>2026-03-11T15:57:44Z</time><extensions><gpxtpx:TrackPointExtension><gpxtpx:atemp>2.9</gpxtpx:atemp></gpxtpx:TrackPointExtension></extensions></trkpt><trkpt lat="42.2102533467" lon="13.4175773431"><ele>1630.79</ele><time>2026-03-11T15:57:45Z</time><extensions><gpxtpx:TrackPointExtension><gpxtpx:atemp>2.9</gpxtpx:atemp></gpxtpx:TrackPointExtension></extensions></trkpt><trkpt lat="42.2102620639" lon="13.4175825398"><ele>1630.78</ele><time>2026-03-11T15:57:46Z</time><extensions><gpxtpx:TrackPointExtension><gpxtpx:atemp>2.9</gpxtpx:atemp></gpxtpx:TrackPointExtension></extensions></trkpt><trkpt lat="42.2102719545" lon="13.4175835457"><ele>1630.77</ele><time>2026-03-11T15:57:47Z</time><extensions><gpxtpx:TrackPointExtension><gpxtpx:atemp>2.9</gpxtpx:atemp></gpxtpx:TrackPointExtension></extensions></trkpt><trkpt lat="42.2102837730" lon="13.4175851382"><ele>1630.75</ele><time>2026-03-11T15:57:48Z</time><extensions><gpxtpx:TrackPointExtension><gpxtpx:atemp>2.9</gpxtpx:atemp></gpxtpx:TrackPointExtension></extensions></trkpt><trkpt lat="42.2102923226" lon="13.4175890777"><ele>1630.73</ele><time>2026-03-11T15:57:49Z</time><extensions><gpxtpx:TrackPointExtension><gpxtpx:atemp>2.9</gpxtpx:atemp></gpxtpx:TrackPointExtension></extensions></trkpt><trkpt lat="42.2102966812" lon="13.4175867308"><ele>1630.73</ele><time>2026-03-11T15:57:50Z</time><extensions><gpxtpx:TrackPointExtension><gpxtpx:atemp>2.9</gpxtpx:atemp></gpxtpx:TrackPointExtension></extensions></trkpt><trkpt lat="42.2102970164" lon="13.4175896645"><ele>1630.73</ele><time>2026-03-11T15:57:51Z</time><extensions><gpxtpx:TrackPointExtension><gpxtpx:atemp>2.9</gpxtpx:atemp></gpxtpx:TrackPointExtension></extensions></trkpt><trkpt lat="42.2103000339" lon="13.4175853897"><ele>1630.64</ele><time>2026-03-11T15:57:52Z</time><extensions><gpxtpx:TrackPointExtension><gpxtpx:atemp>2.9</gpxtpx:atemp></gpxtpx:TrackPointExtension></extensions></trkpt><trkpt lat="42.2103045601" lon="13.4175807796"><ele>1630.58</ele><time>2026-03-11T15:57:53Z</time><extensions><gpxtpx:TrackPointExtension><gpxtpx:atemp>2.9</gpxtpx:atemp></gpxtpx:TrackPointExtension></extensions></trkpt><trkpt lat="42.2103074938" lon="13.4175715595"><ele>1630.53</ele><time>2026-03-11T15:57:54Z</time><extensions><gpxtpx:TrackPointExtension><gpxtpx:atemp>2.9</gpxtpx:atemp></gpxtpx:TrackPointExtension></extensions></trkpt><trkpt lat="42.2103127744" lon="13.4175649378"><ele>1630.48</ele><time>2026-03-11T15:57:55Z</time><extensions><gpxtpx:TrackPointExtension><gpxtpx:atemp>2.9</gpxtpx:atemp></gpxtpx:TrackPointExtension></extensions></trkpt><trkpt lat="42.2103148699" lon="13.4175590705"><ele>1630.44</ele><time>2026-03-11T15:57:56Z</time><extensions><gpxtpx:TrackPointExtension><gpxtpx:atemp>2.9</gpxtpx:atemp></gpxtpx:TrackPointExtension></extensions></trkpt><trkpt lat="42.2103182226" lon="13.4175522812"><ele>1630.39</ele><time>2026-03-11T15:57:57Z</time><extensions><gpxtpx:TrackPointExtension><gpxtpx:atemp>2.9</gpxtpx:atemp></gpxtpx:TrackPointExtension></extensions></trkpt><trkpt lat="42.2103249282" lon="13.4175453242"><ele>1630.36</ele><time>2026-03-11T15:57:58Z</time><extensions><gpxtpx:TrackPointExtension><gpxtpx:atemp>2.9</gpxtpx:atemp></gpxtpx:TrackPointExtension></extensions></trkpt><trkpt lat="42.2103338968" lon="13.4175379481"><ele>1630.31</ele><time>2026-03-11T15:57:59Z</time><extensions><gpxtpx:TrackPointExtension><gpxtpx:atemp>2.9</gpxtpx:atemp></gpxtpx:TrackPointExtension></extensions></trkpt><trkpt lat="42.2103411891" lon="13.4175314941"><ele>1630.30</ele><time>2026-03-11T15:58:00Z</time><extensions><gpxtpx:TrackPointExtension><gpxtpx:atemp>2.9</gpxtpx:atemp></gpxtpx:TrackPointExtension></extensions></trkpt><trkpt lat="42.2103475593" lon="13.4175273869"><ele>1630.28</ele><time>2026-03-11T15:58:01Z</time><extensions><gpxtpx:TrackPointExtension><gpxtpx:atemp>2.9</gpxtpx:atemp></gpxtpx:TrackPointExtension></extensions></trkpt><trkpt lat="42.2103550192" lon="13.4175225254"><ele>1630.25</ele><time>2026-03-11T15:58:02Z</time><extensions><gpxtpx:TrackPointExtension><gpxtpx:atemp>2.9</gpxtpx:atemp></gpxtpx:TrackPointExtension></extensions></trkpt><trkpt lat="42.2103626467" lon="13.4175167419"><ele>1630.19</ele><time>2026-03-11T15:58:03Z</time><extensions><gpxtpx:TrackPointExtension><gpxtpx:atemp>2.9</gpxtpx:atemp></gpxtpx:TrackPointExtension></extensions></trkpt><trkpt lat="42.2103698552" lon="13.4175098687"><ele>1630.12</ele><time>2026-03-11T15:58:04Z</time><extensions><gpxtpx:TrackPointExtension><gpxtpx:atemp>2.9</gpxtpx:atemp></gpxtpx:TrackPointExtension></extensions></trkpt><trkpt lat="42.2103760578" lon="13.4175016545"><ele>1630.10</ele><time>2026-03-11T15:58:05Z</time><extensions><gpxtpx:TrackPointExtension><gpxtpx:atemp>2.9</gpxtpx:atemp></gpxtpx:TrackPointExtension></extensions></trkpt><trkpt lat="42.2103827633" lon="13.4174958710"><ele>1630.08</ele><time>2026-03-11T15:58:06Z</time><extensions><gpxtpx:TrackPointExtension><gpxtpx:atemp>2.9</gpxtpx:atemp></gpxtpx:TrackPointExtension></extensions></trkpt><trkpt lat="42.2103900556" lon="13.4174911771"><ele>1630.04</ele><time>2026-03-11T15:58:07Z</time><extensions><gpxtpx:TrackPointExtension><gpxtpx:atemp>2.9</gpxtpx:atemp></gpxtpx:TrackPointExtension></extensions></trkpt><trkpt lat="42.2103973478" lon="13.4174874891"><ele>1630.02</ele><time>2026-03-11T15:58:08Z</time><extensions><gpxtpx:TrackPointExtension><gpxtpx:atemp>2.9</gpxtpx:atemp></gpxtpx:TrackPointExtension></extensions></trkpt><trkpt lat="42.2104048915" lon="13.4174867347"><ele>1630.03</ele><time>2026-03-11T15:58:09Z</time><extensions><gpxtpx:TrackPointExtension><gpxtpx:atemp>2.9</gpxtpx:atemp></gpxtpx:TrackPointExtension></extensions></trkpt><trkpt lat="42.2104118485" lon="13.4174882434"><ele>1630.02</ele><time>2026-03-11T15:58:10Z</time><extensions><gpxtpx:TrackPointExtension><gpxtpx:atemp>2.9</gpxtpx:atemp></gpxtpx:TrackPointExtension></extensions></trkpt><trkpt lat="42.2104186378" lon="13.4174878243"><ele>1630.03</ele><time>2026-03-11T15:58:11Z</time><extensions><gpxtpx:TrackPointExtension><gpxtpx:atemp>2.9</gpxtpx:atemp></gpxtpx:TrackPointExtension></extensions></trkpt><trkpt lat="42.2104252595" lon="13.4174865671"><ele>1630.03</ele><time>2026-03-11T15:58:12Z</time><extensions><gpxtpx:TrackPointExtension><gpxtpx:atemp>2.9</gpxtpx:atemp></gpxtpx:TrackPointExtension></extensions></trkpt><trkpt lat="42.2104272712" lon="13.4174881596"><ele>1630.01</ele><time>2026-03-11T15:58:13Z</time><extensions><gpxtpx:TrackPointExtension><gpxtpx:atemp>2.9</gpxtpx:atemp></gpxtpx:TrackPointExtension></extensions></trkpt><trkpt lat="42.2104308754" lon="13.4174854774"><ele>1630.00</ele><time>2026-03-11T15:58:14Z</time><extensions><gpxtpx:TrackPointExtension><gpxtpx:atemp>2.9</gpxtpx:atemp></gpxtpx:TrackPointExtension></extensions></trkpt><trkpt lat="42.2104350664" lon="13.4174856450"><ele>1629.97</ele><time>2026-03-11T15:58:15Z</time><extensions><gpxtpx:TrackPointExtension><gpxtpx:atemp>2.9</gpxtpx:atemp></gpxtpx:TrackPointExtension></extensions></trkpt><trkpt lat="42.2104415204" lon="13.4174810350"><ele>1629.94</ele><time>2026-03-11T15:58:16Z</time><extensions><gpxtpx:TrackPointExtension><gpxtpx:atemp>2.9</gpxtpx:atemp></gpxtpx:TrackPointExtension></extensions></trkpt><trkpt lat="42.2104489803" lon="13.4174752515"><ele>1629.92</ele><time>2026-03-11T15:58:17Z</time><extensions><gpxtpx:TrackPointExtension><gpxtpx:atemp>2.9</gpxtpx:atemp></gpxtpx:TrackPointExtension></extensions></trkpt><trkpt lat="42.2104560211" lon="13.4174663667"><ele>1629.88</ele><time>2026-03-11T15:58:18Z</time><extensions><gpxtpx:TrackPointExtension><gpxtpx:atemp>2.9</gpxtpx:atemp></gpxtpx:TrackPointExtension></extensions></trkpt><trkpt lat="42.2104635648" lon="13.4174538776"><ele>1629.83</ele><time>2026-03-11T15:58:19Z</time><extensions><gpxtpx:TrackPointExtension><gpxtpx:atemp>2.9</gpxtpx:atemp></gpxtpx:TrackPointExtension></extensions></trkpt><trkpt lat="42.2104718629" lon="13.4174399637"><ele>1629.80</ele><time>2026-03-11T15:58:20Z</time><extensions><gpxtpx:TrackPointExtension><gpxtpx:atemp>2.9</gpxtpx:atemp></gpxtpx:TrackPointExtension></extensions></trkpt><trkpt lat="42.2104781494" lon="13.4174294863"><ele>1629.76</ele><time>2026-03-11T15:58:21Z</time><extensions><gpxtpx:TrackPointExtension><gpxtpx:atemp>2.9</gpxtpx:atemp></gpxtpx:TrackPointExtension></extensions></trkpt><trkpt lat="42.2104831785" lon="13.4174216911"><ele>1629.70</ele><time>2026-03-11T15:58:22Z</time><extensions><gpxtpx:TrackPointExtension><gpxtpx:atemp>2.9</gpxtpx:atemp></gpxtpx:TrackPointExtension></extensions></trkpt><trkpt lat="42.2104894649" lon="13.4174134769"><ele>1629.63</ele><time>2026-03-11T15:58:23Z</time><extensions><gpxtpx:TrackPointExtension><gpxtpx:atemp>2.9</gpxtpx:atemp></gpxtpx:TrackPointExtension></extensions></trkpt><trkpt lat="42.2104948293" lon="13.4174061846"><ele>1629.55</ele><time>2026-03-11T15:58:24Z</time><extensions><gpxtpx:TrackPointExtension><gpxtpx:atemp>2.9</gpxtpx:atemp></gpxtpx:TrackPointExtension></extensions></trkpt><trkpt lat="42.2105000261" lon="13.4173984732"><ele>1629.49</ele><time>2026-03-11T15:58:25Z</time><extensions><gpxtpx:TrackPointExtension><gpxtpx:atemp>2.9</gpxtpx:atemp></gpxtpx:TrackPointExtension></extensions></trkpt><trkpt lat="42.2105074860" lon="13.4173893370"><ele>1629.44</ele><time>2026-03-11T15:58:26Z</time><extensions><gpxtpx:TrackPointExtension><gpxtpx:atemp>2.9</gpxtpx:atemp></gpxtpx:TrackPointExtension></extensions></trkpt><trkpt lat="42.2105110902" lon="13.4173824638"><ele>1629.41</ele><time>2026-03-11T15:58:27Z</time><extensions><gpxtpx:TrackPointExtension><gpxtpx:atemp>2.9</gpxtpx:atemp></gpxtpx:TrackPointExtension></extensions></trkpt><trkpt lat="42.2105181310" lon="13.4173747525"><ele>1629.37</ele><time>2026-03-11T15:58:28Z</time><extensions><gpxtpx:TrackPointExtension><gpxtpx:atemp>2.9</gpxtpx:atemp></gpxtpx:TrackPointExtension></extensions></trkpt><trkpt lat="42.2105224896" lon="13.4173664544"><ele>1629.28</ele><time>2026-03-11T15:58:29Z</time><extensions><gpxtpx:TrackPointExtension><gpxtpx:atemp>2.9</gpxtpx:atemp></gpxtpx:TrackPointExtension></extensions></trkpt><trkpt lat="42.2105278540" lon="13.4173611738"><ele>1629.25</ele><time>2026-03-11T15:58:30Z</time><extensions><gpxtpx:TrackPointExtension><gpxtpx:atemp>2.9</gpxtpx:atemp></gpxtpx:TrackPointExtension></extensions></trkpt><trkpt lat="42.2105324641" lon="13.4173492715"><ele>1629.25</ele><time>2026-03-11T15:58:31Z</time><extensions><gpxtpx:TrackPointExtension><gpxtpx:atemp>2.9</gpxtpx:atemp></gpxtpx:TrackPointExtension></extensions></trkpt><trkpt lat="42.2105364874" lon="13.4173387941"><ele>1629.28</ele><time>2026-03-11T15:58:32Z</time><extensions><gpxtpx:TrackPointExtension><gpxtpx:atemp>2.8</gpxtpx:atemp></gpxtpx:TrackPointExtension></extensions></trkpt><trkpt lat="42.2105425224" lon="13.4173296578"><ele>1629.28</ele><time>2026-03-11T15:58:33Z</time><extensions><gpxtpx:TrackPointExtension><gpxtpx:atemp>2.8</gpxtpx:atemp></gpxtpx:TrackPointExtension></extensions></trkpt><trkpt lat="42.2105474677" lon="13.4173200186"><ele>1629.25</ele><time>2026-03-11T15:58:34Z</time><extensions><gpxtpx:TrackPointExtension><gpxtpx:atemp>2.8</gpxtpx:atemp></gpxtpx:TrackPointExtension></extensions></trkpt><trkpt lat="42.2105519939" lon="13.4173104633"><ele>1629.23</ele><time>2026-03-11T15:58:35Z</time><extensions><gpxtpx:TrackPointExtension><gpxtpx:atemp>2.8</gpxtpx:atemp></gpxtpx:TrackPointExtension></extensions></trkpt><trkpt lat="42.2105566878" lon="13.4173005726"><ele>1629.22</ele><time>2026-03-11T15:58:36Z</time><extensions><gpxtpx:TrackPointExtension><gpxtpx:atemp>2.8</gpxtpx:atemp></gpxtpx:TrackPointExtension></extensions></trkpt><trkpt lat="42.2105614655" lon="13.4172951244"><ele>1629.17</ele><time>2026-03-11T15:58:37Z</time><extensions><gpxtpx:TrackPointExtension><gpxtpx:atemp>2.8</gpxtpx:atemp></gpxtpx:TrackPointExtension></extensions></trkpt><trkpt lat="42.2105686739" lon="13.4172878321"><ele>1629.11</ele><time>2026-03-11T15:58:38Z</time><extensions><gpxtpx:TrackPointExtension><gpxtpx:atemp>2.8</gpxtpx:atemp></gpxtpx:TrackPointExtension></extensions></trkpt><trkpt lat="42.2105759662" lon="13.4172783606"><ele>1629.07</ele><time>2026-03-11T15:58:39Z</time><extensions><gpxtpx:TrackPointExtension><gpxtpx:atemp>2.8</gpxtpx:atemp></gpxtpx:TrackPointExtension></extensions></trkpt><trkpt lat="42.2105838452" lon="13.4172687214"><ele>1629.05</ele><time>2026-03-11T15:58:40Z</time><extensions><gpxtpx:TrackPointExtension><gpxtpx:atemp>2.8</gpxtpx:atemp></gpxtpx:TrackPointExtension></extensions></trkpt><trkpt lat="42.2105914727" lon="13.4172631893"><ele>1629.03</ele><time>2026-03-11T15:58:41Z</time><extensions><gpxtpx:TrackPointExtension><gpxtpx:atemp>2.8</gpxtpx:atemp></gpxtpx:TrackPointExtension></extensions></trkpt><trkpt lat="42.2105969209" lon="13.4172540531"><ele>1628.99</ele><time>2026-03-11T15:58:42Z</time><extensions><gpxtpx:TrackPointExtension><gpxtpx:atemp>2.8</gpxtpx:atemp></gpxtpx:TrackPointExtension></extensions></trkpt><trkpt lat="42.2106041294" lon="13.4172463417"><ele>1628.98</ele><time>2026-03-11T15:58:43Z</time><extensions><gpxtpx:TrackPointExtension><gpxtpx:atemp>2.8</gpxtpx:atemp></gpxtpx:TrackPointExtension></extensions></trkpt><trkpt lat="42.2106103320" lon="13.4172409773"><ele>1628.98</ele><time>2026-03-11T15:58:44Z</time><extensions><gpxtpx:TrackPointExtension><gpxtpx:atemp>2.8</gpxtpx:atemp></gpxtpx:TrackPointExtension></extensions></trkpt><trkpt lat="42.2106174566" lon="13.4172327630"><ele>1628.98</ele><time>2026-03-11T15:58:45Z</time><extensions><gpxtpx:TrackPointExtension><gpxtpx:atemp>2.8</gpxtpx:atemp></gpxtpx:TrackPointExtension></extensions></trkpt><trkpt lat="42.2106249165" lon="13.4172263928"><ele>1628.98</ele><time>2026-03-11T15:58:46Z</time><extensions><gpxtpx:TrackPointExtension><gpxtpx:atemp>2.8</gpxtpx:atemp></gpxtpx:TrackPointExtension></extensions></trkpt><trkpt lat="42.2106319573" lon="13.4172196873"><ele>1628.95</ele><time>2026-03-11T15:58:47Z</time><extensions><gpxtpx:TrackPointExtension><gpxtpx:atemp>2.8</gpxtpx:atemp></gpxtpx:TrackPointExtension></extensions></trkpt><trkpt lat="42.2106378246" lon="13.4172131494"><ele>1628.91</ele><time>2026-03-11T15:58:48Z</time><extensions><gpxtpx:TrackPointExtension><gpxtpx:atemp>2.8</gpxtpx:atemp></gpxtpx:TrackPointExtension></extensions></trkpt><trkpt lat="42.2106472962" lon="13.4172100481"><ele>1628.85</ele><time>2026-03-11T15:58:49Z</time><extensions><gpxtpx:TrackPointExtension><gpxtpx:atemp>2.8</gpxtpx:atemp></gpxtpx:TrackPointExtension></extensions></trkpt><trkpt lat="42.2106545884" lon="13.4172028396"><ele>1628.80</ele><time>2026-03-11T15:58:50Z</time><extensions><gpxtpx:TrackPointExtension><gpxtpx:atemp>2.8</gpxtpx:atemp></gpxtpx:TrackPointExtension></extensions></trkpt><trkpt lat="42.2106606234" lon="13.4171960503"><ele>1628.77</ele><time>2026-03-11T15:58:51Z</time><extensions><gpxtpx:TrackPointExtension><gpxtpx:atemp>2.8</gpxtpx:atemp></gpxtpx:TrackPointExtension></extensions></trkpt><trkpt lat="42.2106680833" lon="13.4171919432"><ele>1628.73</ele><time>2026-03-11T15:58:52Z</time><extensions><gpxtpx:TrackPointExtension><gpxtpx:atemp>2.8</gpxtpx:atemp></gpxtpx:TrackPointExtension></extensions></trkpt><trkpt lat="42.2106721904" lon="13.4171839803"><ele>1628.69</ele><time>2026-03-11T15:58:53Z</time><extensions><gpxtpx:TrackPointExtension><gpxtpx:atemp>2.8</gpxtpx:atemp></gpxtpx:TrackPointExtension></extensions></trkpt><trkpt lat="42.2106765490" lon="13.4171796218"><ele>1628.65</ele><time>2026-03-11T15:58:54Z</time><extensions><gpxtpx:TrackPointExtension><gpxtpx:atemp>2.8</gpxtpx:atemp></gpxtpx:TrackPointExtension></extensions></trkpt><trkpt lat="42.2106817458" lon="13.4171730839"><ele>1628.63</ele><time>2026-03-11T15:58:55Z</time><extensions><gpxtpx:TrackPointExtension><gpxtpx:atemp>2.8</gpxtpx:atemp></gpxtpx:TrackPointExtension></extensions></trkpt><trkpt lat="42.2106868587" lon="13.4171657916"><ele>1628.62</ele><time>2026-03-11T15:58:56Z</time><extensions><gpxtpx:TrackPointExtension><gpxtpx:atemp>2.8</gpxtpx:atemp></gpxtpx:TrackPointExtension></extensions></trkpt><trkpt lat="42.2106946539" lon="13.4171607625"><ele>1628.64</ele><time>2026-03-11T15:58:57Z</time><extensions><gpxtpx:TrackPointExtension><gpxtpx:atemp>2.8</gpxtpx:atemp></gpxtpx:TrackPointExtension></extensions></trkpt><trkpt lat="42.2107004374" lon="13.4171546437"><ele>1628.70</ele><time>2026-03-11T15:58:58Z</time><extensions><gpxtpx:TrackPointExtension><gpxtpx:atemp>2.8</gpxtpx:atemp></gpxtpx:TrackPointExtension></extensions></trkpt><trkpt lat="42.2107081488" lon="13.4171491954"><ele>1628.76</ele><time>2026-03-11T15:58:59Z</time><extensions><gpxtpx:TrackPointExtension><gpxtpx:atemp>2.8</gpxtpx:atemp></gpxtpx:TrackPointExtension></extensions></trkpt><trkpt lat="42.2107142676" lon="13.4171439987"><ele>1628.81</ele><time>2026-03-11T15:59:00Z</time><extensions><gpxtpx:TrackPointExtension><gpxtpx:atemp>2.8</gpxtpx:atemp></gpxtpx:TrackPointExtension></extensions></trkpt><trkpt lat="42.2107176203" lon="13.4171375446"><ele>1628.84</ele><time>2026-03-11T15:59:01Z</time><extensions><gpxtpx:TrackPointExtension><gpxtpx:atemp>2.8</gpxtpx:atemp></gpxtpx:TrackPointExtension></extensions></trkpt><trkpt lat="42.2107240744" lon="13.4171322640"><ele>1628.85</ele><time>2026-03-11T15:59:02Z</time><extensions><gpxtpx:TrackPointExtension><gpxtpx:atemp>2.8</gpxtpx:atemp></gpxtpx:TrackPointExtension></extensions></trkpt><trkpt lat="42.2107304446" lon="13.4171245527"><ele>1628.87</ele><time>2026-03-11T15:59:03Z</time><extensions><gpxtpx:TrackPointExtension><gpxtpx:atemp>2.8</gpxtpx:atemp></gpxtpx:TrackPointExtension></extensions></trkpt><trkpt lat="42.2107368987" lon="13.4171191882"><ele>1628.91</ele><time>2026-03-11T15:59:04Z</time><extensions><gpxtpx:TrackPointExtension><gpxtpx:atemp>2.8</gpxtpx:atemp></gpxtpx:TrackPointExtension></extensions></trkpt><trkpt lat="42.2107427660" lon="13.4171146620"><ele>1628.94</ele><time>2026-03-11T15:59:05Z</time><extensions><gpxtpx:TrackPointExtension><gpxtpx:atemp>2.8</gpxtpx:atemp></gpxtpx:TrackPointExtension></extensions></trkpt><trkpt lat="42.2107494716" lon="13.4171093814"><ele>1628.97</ele><time>2026-03-11T15:59:06Z</time><extensions><gpxtpx:TrackPointExtension><gpxtpx:atemp>2.8</gpxtpx:atemp></gpxtpx:TrackPointExtension></extensions></trkpt><trkpt lat="42.2107567638" lon="13.4171073698"><ele>1628.98</ele><time>2026-03-11T15:59:07Z</time><extensions><gpxtpx:TrackPointExtension><gpxtpx:atemp>2.8</gpxtpx:atemp></gpxtpx:TrackPointExtension></extensions></trkpt><trkpt lat="42.2107622959" lon="13.4171003290"><ele>1628.98</ele><time>2026-03-11T15:59:08Z</time><extensions><gpxtpx:TrackPointExtension><gpxtpx:atemp>2.8</gpxtpx:atemp></gpxtpx:TrackPointExtension></extensions></trkpt><trkpt lat="42.2107682470" lon="13.4170956351"><ele>1628.99</ele><time>2026-03-11T15:59:09Z</time><extensions><gpxtpx:TrackPointExtension><gpxtpx:atemp>2.8</gpxtpx:atemp></gpxtpx:TrackPointExtension></extensions></trkpt><trkpt lat="42.2107736953" lon="13.4170936234"><ele>1629.02</ele><time>2026-03-11T15:59:10Z</time><extensions><gpxtpx:TrackPointExtension><gpxtpx:atemp>2.8</gpxtpx:atemp></gpxtpx:TrackPointExtension></extensions></trkpt><trkpt lat="42.2107795626" lon="13.4170878399"><ele>1629.06</ele><time>2026-03-11T15:59:11Z</time><extensions><gpxtpx:TrackPointExtension><gpxtpx:atemp>2.8</gpxtpx:atemp></gpxtpx:TrackPointExtension></extensions></trkpt><trkpt lat="42.2107850946" lon="13.4170834813"><ele>1629.09</ele><time>2026-03-11T15:59:12Z</time><extensions><gpxtpx:TrackPointExtension><gpxtpx:atemp>2.8</gpxtpx:atemp></gpxtpx:TrackPointExtension></extensions></trkpt><trkpt lat="42.2107922193" lon="13.4170767758"><ele>1629.11</ele><time>2026-03-11T15:59:13Z</time><extensions><gpxtpx:TrackPointExtension><gpxtpx:atemp>2.8</gpxtpx:atemp></gpxtpx:TrackPointExtension></extensions></trkpt><trkpt lat="42.2107994277" lon="13.4170705732"><ele>1629.12</ele><time>2026-03-11T15:59:14Z</time><extensions><gpxtpx:TrackPointExtension><gpxtpx:atemp>2.8</gpxtpx:atemp></gpxtpx:TrackPointExtension></extensions></trkpt><trkpt lat="42.2108059656" lon="13.4170645382"><ele>1629.12</ele><time>2026-03-11T15:59:15Z</time><extensions><gpxtpx:TrackPointExtension><gpxtpx:atemp>2.8</gpxtpx:atemp></gpxtpx:TrackPointExtension></extensions></trkpt><trkpt lat="42.2108136769" lon="13.4170567431"><ele>1629.12</ele><time>2026-03-11T15:59:16Z</time><extensions><gpxtpx:TrackPointExtension><gpxtpx:atemp>2.8</gpxtpx:atemp></gpxtpx:TrackPointExtension></extensions></trkpt><trkpt lat="42.2108190414" lon="13.4170523845"><ele>1629.12</ele><time>2026-03-11T15:59:17Z</time><extensions><gpxtpx:TrackPointExtension><gpxtpx:atemp>2.8</gpxtpx:atemp></gpxtpx:TrackPointExtension></extensions></trkpt><trkpt lat="42.2108236514" lon="13.4170453437"><ele>1629.12</ele><time>2026-03-11T15:59:18Z</time><extensions><gpxtpx:TrackPointExtension><gpxtpx:atemp>2.8</gpxtpx:atemp></gpxtpx:TrackPointExtension></extensions></trkpt><trkpt lat="42.2108287644" lon="13.4170381352"><ele>1629.12</ele><time>2026-03-11T15:59:19Z</time><extensions><gpxtpx:TrackPointExtension><gpxtpx:atemp>2.8</gpxtpx:atemp></gpxtpx:TrackPointExtension></extensions></trkpt><trkpt lat="42.2108345479" lon="13.4170341957"><ele>1629.12</ele><time>2026-03-11T15:59:20Z</time><extensions><gpxtpx:TrackPointExtension><gpxtpx:atemp>2.8</gpxtpx:atemp></gpxtpx:TrackPointExtension></extensions></trkpt><trkpt lat="42.2108416725" lon="13.4170266520"><ele>1629.14</ele><time>2026-03-11T15:59:21Z</time><extensions><gpxtpx:TrackPointExtension><gpxtpx:atemp>2.8</gpxtpx:atemp></gpxtpx:TrackPointExtension></extensions></trkpt><trkpt lat="42.2108480427" lon="13.4170192759"><ele>1629.15</ele><time>2026-03-11T15:59:22Z</time><extensions><gpxtpx:TrackPointExtension><gpxtpx:atemp>2.8</gpxtpx:atemp></gpxtpx:TrackPointExtension></extensions></trkpt><trkpt lat="42.2108547483" lon="13.4170155879"><ele>1629.16</ele><time>2026-03-11T15:59:23Z</time><extensions><gpxtpx:TrackPointExtension><gpxtpx:atemp>2.8</gpxtpx:atemp></gpxtpx:TrackPointExtension></extensions></trkpt><trkpt lat="42.2108601965" lon="13.4170113970"><ele>1629.16</ele><time>2026-03-11T15:59:24Z</time><extensions><gpxtpx:TrackPointExtension><gpxtpx:atemp>2.8</gpxtpx:atemp></gpxtpx:TrackPointExtension></extensions></trkpt><trkpt lat="42.2108663991" lon="13.4170045238"><ele>1629.18</ele><time>2026-03-11T15:59:25Z</time><extensions><gpxtpx:TrackPointExtension><gpxtpx:atemp>2.8</gpxtpx:atemp></gpxtpx:TrackPointExtension></extensions></trkpt><trkpt lat="42.2108728532" lon="13.4169956390"><ele>1629.20</ele><time>2026-03-11T15:59:26Z</time><extensions><gpxtpx:TrackPointExtension><gpxtpx:atemp>2.8</gpxtpx:atemp></gpxtpx:TrackPointExtension></extensions></trkpt><trkpt lat="42.2108787205" lon="13.4169893526"><ele>1629.21</ele><time>2026-03-11T15:59:27Z</time><extensions><gpxtpx:TrackPointExtension><gpxtpx:atemp>2.8</gpxtpx:atemp></gpxtpx:TrackPointExtension></extensions></trkpt><trkpt lat="42.2108859289" lon="13.4169823956"><ele>1629.24</ele><time>2026-03-11T15:59:28Z</time><extensions><gpxtpx:TrackPointExtension><gpxtpx:atemp>2.8</gpxtpx:atemp></gpxtpx:TrackPointExtension></extensions></trkpt><trkpt lat="42.2108925506" lon="13.4169737622"><ele>1629.24</ele><time>2026-03-11T15:59:29Z</time><extensions><gpxtpx:TrackPointExtension><gpxtpx:atemp>2.8</gpxtpx:atemp></gpxtpx:TrackPointExtension></extensions></trkpt><trkpt lat="42.2108984180" lon="13.4169661347"><ele>1629.24</ele><time>2026-03-11T15:59:30Z</time><extensions><gpxtpx:TrackPointExtension><gpxtpx:atemp>2.8</gpxtpx:atemp></gpxtpx:TrackPointExtension></extensions></trkpt><trkpt lat="42.2109039500" lon="13.4169586748"><ele>1629.26</ele><time>2026-03-11T15:59:31Z</time><extensions><gpxtpx:TrackPointExtension><gpxtpx:atemp>2.8</gpxtpx:atemp></gpxtpx:TrackPointExtension></extensions></trkpt><trkpt lat="42.2109083924" lon="13.4169519693"><ele>1629.26</ele><time>2026-03-11T15:59:32Z</time><extensions><gpxtpx:TrackPointExtension><gpxtpx:atemp>2.7</gpxtpx:atemp></gpxtpx:TrackPointExtension></extensions></trkpt><trkpt lat="42.2109145951" lon="13.4169448446"><ele>1629.27</ele><time>2026-03-11T15:59:33Z</time><extensions><gpxtpx:TrackPointExtension><gpxtpx:atemp>2.7</gpxtpx:atemp></gpxtpx:TrackPointExtension></extensions></trkpt><trkpt lat="42.2109228931" lon="13.4169369657"><ele>1629.28</ele><time>2026-03-11T15:59:34Z</time><extensions><gpxtpx:TrackPointExtension><gpxtpx:atemp>2.7</gpxtpx:atemp></gpxtpx:TrackPointExtension></extensions></trkpt><trkpt lat="42.2109296825" lon="13.4169291705"><ele>1629.30</ele><time>2026-03-11T15:59:35Z</time><extensions><gpxtpx:TrackPointExtension><gpxtpx:atemp>2.7</gpxtpx:atemp></gpxtpx:TrackPointExtension></extensions></trkpt><trkpt lat="42.2109355498" lon="13.4169233870"><ele>1629.32</ele><time>2026-03-11T15:59:36Z</time><extensions><gpxtpx:TrackPointExtension><gpxtpx:atemp>2.7</gpxtpx:atemp></gpxtpx:TrackPointExtension></extensions></trkpt><trkpt lat="42.2109407466" lon="13.4169169329"><ele>1629.34</ele><time>2026-03-11T15:59:37Z</time><extensions><gpxtpx:TrackPointExtension><gpxtpx:atemp>2.7</gpxtpx:atemp></gpxtpx:TrackPointExtension></extensions></trkpt><trkpt lat="42.2109472845" lon="13.4169112332"><ele>1629.35</ele><time>2026-03-11T15:59:38Z</time><extensions><gpxtpx:TrackPointExtension><gpxtpx:atemp>2.7</gpxtpx:atemp></gpxtpx:TrackPointExtension></extensions></trkpt><trkpt lat="42.2109539900" lon="13.4169044439"><ele>1629.37</ele><time>2026-03-11T15:59:39Z</time><extensions><gpxtpx:TrackPointExtension><gpxtpx:atemp>2.7</gpxtpx:atemp></gpxtpx:TrackPointExtension></extensions></trkpt><trkpt lat="42.2109590191" lon="13.4168977384"><ele>1629.40</ele><time>2026-03-11T15:59:40Z</time><extensions><gpxtpx:TrackPointExtension><gpxtpx:atemp>2.7</gpxtpx:atemp></gpxtpx:TrackPointExtension></extensions></trkpt><trkpt lat="42.2109646350" lon="13.4168936312"><ele>1629.44</ele><time>2026-03-11T15:59:41Z</time><extensions><gpxtpx:TrackPointExtension><gpxtpx:atemp>2.7</gpxtpx:atemp></gpxtpx:TrackPointExtension></extensions></trkpt><trkpt lat="42.2109706700" lon="13.4168858360"><ele>1629.49</ele><time>2026-03-11T15:59:42Z</time><extensions><gpxtpx:TrackPointExtension><gpxtpx:atemp>2.7</gpxtpx:atemp></gpxtpx:TrackPointExtension></extensions></trkpt><trkpt lat="42.2109768726" lon="13.4168781247"><ele>1629.49</ele><time>2026-03-11T15:59:43Z</time><extensions><gpxtpx:TrackPointExtension><gpxtpx:atemp>2.7</gpxtpx:atemp></gpxtpx:TrackPointExtension></extensions></trkpt><trkpt lat="42.2109827399" lon="13.4168717545"><ele>1629.48</ele><time>2026-03-11T15:59:44Z</time><extensions><gpxtpx:TrackPointExtension><gpxtpx:atemp>2.7</gpxtpx:atemp></gpxtpx:TrackPointExtension></extensions></trkpt><trkpt lat="42.2109873500" lon="13.4168639593"><ele>1629.49</ele><time>2026-03-11T15:59:45Z</time><extensions><gpxtpx:TrackPointExtension><gpxtpx:atemp>2.7</gpxtpx:atemp></gpxtpx:TrackPointExtension></extensions></trkpt><trkpt lat="42.2109939717" lon="13.4168603551"><ele>1629.48</ele><time>2026-03-11T15:59:46Z</time><extensions><gpxtpx:TrackPointExtension><gpxtpx:atemp>2.7</gpxtpx:atemp></gpxtpx:TrackPointExtension></extensions></trkpt><trkpt lat="42.2109985817" lon="13.4168547392"><ele>1629.50</ele><time>2026-03-11T15:59:47Z</time><extensions><gpxtpx:TrackPointExtension><gpxtpx:atemp>2.7</gpxtpx:atemp></gpxtpx:TrackPointExtension></extensions></trkpt><trkpt lat="42.2110043652" lon="13.4168486204"><ele>1629.57</ele><time>2026-03-11T15:59:48Z</time><extensions><gpxtpx:TrackPointExtension><gpxtpx:atemp>2.7</gpxtpx:atemp></gpxtpx:TrackPointExtension></extensions></trkpt><trkpt lat="42.2110105678" lon="13.4168414958"><ele>1629.60</ele><time>2026-03-11T15:59:49Z</time><extensions><gpxtpx:TrackPointExtension><gpxtpx:atemp>2.7</gpxtpx:atemp></gpxtpx:TrackPointExtension></extensions></trkpt><trkpt lat="42.2110167705" lon="13.4168373886"><ele>1629.65</ele><time>2026-03-11T15:59:50Z</time><extensions><gpxtpx:TrackPointExtension><gpxtpx:atemp>2.7</gpxtpx:atemp></gpxtpx:TrackPointExtension></extensions></trkpt><trkpt lat="42.2110236436" lon="13.4168359637"><ele>1629.70</ele><time>2026-03-11T15:59:51Z</time><extensions><gpxtpx:TrackPointExtension><gpxtpx:atemp>2.7</gpxtpx:atemp></gpxtpx:TrackPointExtension></extensions></trkpt><trkpt lat="42.2110317741" lon="13.4168311860"><ele>1629.77</ele><time>2026-03-11T15:59:52Z</time><extensions><gpxtpx:TrackPointExtension><gpxtpx:atemp>2.7</gpxtpx:atemp></gpxtpx:TrackPointExtension></extensions></trkpt><trkpt lat="42.2110379767" lon="13.4168261569"><ele>1629.80</ele><time>2026-03-11T15:59:53Z</time><extensions><gpxtpx:TrackPointExtension><gpxtpx:atemp>2.7</gpxtpx:atemp></gpxtpx:TrackPointExtension></extensions></trkpt><trkpt lat="42.2110465262" lon="13.4168182779"><ele>1629.80</ele><time>2026-03-11T15:59:54Z</time><extensions><gpxtpx:TrackPointExtension><gpxtpx:atemp>2.7</gpxtpx:atemp></gpxtpx:TrackPointExtension></extensions></trkpt><trkpt lat="42.2110538185" lon="13.4168115724"><ele>1629.80</ele><time>2026-03-11T15:59:55Z</time><extensions><gpxtpx:TrackPointExtension><gpxtpx:atemp>2.7</gpxtpx:atemp></gpxtpx:TrackPointExtension></extensions></trkpt><trkpt lat="42.2110624518" lon="13.4168082196"><ele>1629.80</ele><time>2026-03-11T15:59:56Z</time><extensions><gpxtpx:TrackPointExtension><gpxtpx:atemp>2.7</gpxtpx:atemp></gpxtpx:TrackPointExtension></extensions></trkpt><trkpt lat="42.2110681515" lon="13.4168033581"><ele>1629.80</ele><time>2026-03-11T15:59:57Z</time><extensions><gpxtpx:TrackPointExtension><gpxtpx:atemp>2.7</gpxtpx:atemp></gpxtpx:TrackPointExtension></extensions></trkpt><trkpt lat="42.2110757791" lon="13.4167961497"><ele>1629.78</ele><time>2026-03-11T15:59:58Z</time><extensions><gpxtpx:TrackPointExtension><gpxtpx:atemp>2.7</gpxtpx:atemp></gpxtpx:TrackPointExtension></extensions></trkpt><trkpt lat="42.2110822331" lon="13.4167919587"><ele>1629.77</ele><time>2026-03-11T15:59:59Z</time><extensions><gpxtpx:TrackPointExtension><gpxtpx:atemp>2.7</gpxtpx:atemp></gpxtpx:TrackPointExtension></extensions></trkpt><trkpt lat="42.2110883519" lon="13.4167841636"><ele>1629.76</ele><time>2026-03-11T16:00:00Z</time><extensions><gpxtpx:TrackPointExtension><gpxtpx:atemp>2.7</gpxtpx:atemp></gpxtpx:TrackPointExtension></extensions></trkpt><trkpt lat="42.2110911179" lon="13.4167790506"><ele>1629.76</ele><time>2026-03-11T16:00:01Z</time><extensions><gpxtpx:TrackPointExtension><gpxtpx:atemp>2.7</gpxtpx:atemp></gpxtpx:TrackPointExtension></extensions></trkpt><trkpt lat="42.2110992484" lon="13.4167746920"><ele>1629.76</ele><time>2026-03-11T16:00:02Z</time><extensions><gpxtpx:TrackPointExtension><gpxtpx:atemp>2.7</gpxtpx:atemp></gpxtpx:TrackPointExtension></extensions></trkpt><trkpt lat="42.2111024335" lon="13.4167676512"><ele>1629.76</ele><time>2026-03-11T16:00:03Z</time><extensions><gpxtpx:TrackPointExtension><gpxtpx:atemp>2.7</gpxtpx:atemp></gpxtpx:TrackPointExtension></extensions></trkpt><trkpt lat="42.2111099772" lon="13.4167687409"><ele>1629.78</ele><time>2026-03-11T16:00:04Z</time><extensions><gpxtpx:TrackPointExtension><gpxtpx:atemp>2.7</gpxtpx:atemp></gpxtpx:TrackPointExtension></extensions></trkpt><trkpt lat="42.2111166827" lon="13.4167642985"><ele>1629.78</ele><time>2026-03-11T16:00:05Z</time><extensions><gpxtpx:TrackPointExtension><gpxtpx:atemp>2.7</gpxtpx:atemp></gpxtpx:TrackPointExtension></extensions></trkpt><trkpt lat="42.2111261543" lon="13.4167594370"><ele>1629.78</ele><time>2026-03-11T16:00:06Z</time><extensions><gpxtpx:TrackPointExtension><gpxtpx:atemp>2.7</gpxtpx:atemp></gpxtpx:TrackPointExtension></extensions></trkpt><trkpt lat="42.2111348715" lon="13.4167579282"><ele>1629.78</ele><time>2026-03-11T16:00:07Z</time><extensions><gpxtpx:TrackPointExtension><gpxtpx:atemp>2.7</gpxtpx:atemp></gpxtpx:TrackPointExtension></extensions></trkpt><trkpt lat="42.2111412417" lon="13.4167549945"><ele>1629.77</ele><time>2026-03-11T16:00:08Z</time><extensions><gpxtpx:TrackPointExtension><gpxtpx:atemp>2.7</gpxtpx:atemp></gpxtpx:TrackPointExtension></extensions></trkpt><trkpt lat="42.2111502942" lon="13.4167534858"><ele>1629.77</ele><time>2026-03-11T16:00:09Z</time><extensions><gpxtpx:TrackPointExtension><gpxtpx:atemp>2.7</gpxtpx:atemp></gpxtpx:TrackPointExtension></extensions></trkpt><trkpt lat="42.2111588437" lon="13.4167512227"><ele>1629.77</ele><time>2026-03-11T16:00:10Z</time><extensions><gpxtpx:TrackPointExtension><gpxtpx:atemp>2.7</gpxtpx:atemp></gpxtpx:TrackPointExtension></extensions></trkpt><trkpt lat="42.2111673933" lon="13.4167489596"><ele>1629.73</ele><time>2026-03-11T16:00:11Z</time><extensions><gpxtpx:TrackPointExtension><gpxtpx:atemp>2.7</gpxtpx:atemp></gpxtpx:TrackPointExtension></extensions></trkpt><trkpt lat="42.2111741826" lon="13.4167518932"><ele>1629.72</ele><time>2026-03-11T16:00:12Z</time><extensions><gpxtpx:TrackPointExtension><gpxtpx:atemp>2.7</gpxtpx:atemp></gpxtpx:TrackPointExtension></extensions></trkpt><trkpt lat="42.2111826483" lon="13.4167511389"><ele>1629.69</ele><time>2026-03-11T16:00:13Z</time><extensions><gpxtpx:TrackPointExtension><gpxtpx:atemp>2.7</gpxtpx:atemp></gpxtpx:TrackPointExtension></extensions></trkpt><trkpt lat="42.2111915331" lon="13.4167517256"><ele>1629.67</ele><time>2026-03-11T16:00:14Z</time><extensions><gpxtpx:TrackPointExtension><gpxtpx:atemp>2.7</gpxtpx:atemp></gpxtpx:TrackPointExtension></extensions></trkpt><trkpt lat="42.2112005856" lon="13.4167519771"><ele>1629.65</ele><time>2026-03-11T16:00:15Z</time><extensions><gpxtpx:TrackPointExtension><gpxtpx:atemp>2.7</gpxtpx:atemp></gpxtpx:TrackPointExtension></extensions></trkpt><trkpt lat="42.2112082969" lon="13.4167500492"><ele>1629.62</ele><time>2026-03-11T16:00:16Z</time><extensions><gpxtpx:TrackPointExtension><gpxtpx:atemp>2.7</gpxtpx:atemp></gpxtpx:TrackPointExtension></extensions></trkpt><trkpt lat="42.2112159245" lon="13.4167521447"><ele>1629.56</ele><time>2026-03-11T16:00:17Z</time><extensions><gpxtpx:TrackPointExtension><gpxtpx:atemp>2.7</gpxtpx:atemp></gpxtpx:TrackPointExtension></extensions></trkpt><trkpt lat="42.2112234682" lon="13.4167517256"><ele>1629.48</ele><time>2026-03-11T16:00:18Z</time><extensions><gpxtpx:TrackPointExtension><gpxtpx:atemp>2.7</gpxtpx:atemp></gpxtpx:TrackPointExtension></extensions></trkpt><trkpt lat="42.2112335265" lon="13.4167548269"><ele>1629.40</ele><time>2026-03-11T16:00:19Z</time><extensions><gpxtpx:TrackPointExtension><gpxtpx:atemp>2.7</gpxtpx:atemp></gpxtpx:TrackPointExtension></extensions></trkpt><trkpt lat="42.2112417407" lon="13.4167555813"><ele>1629.35</ele><time>2026-03-11T16:00:20Z</time><extensions><gpxtpx:TrackPointExtension><gpxtpx:atemp>2.7</gpxtpx:atemp></gpxtpx:TrackPointExtension></extensions></trkpt><trkpt lat="42.2112497874" lon="13.4167546593"><ele>1629.31</ele><time>2026-03-11T16:00:21Z</time><extensions><gpxtpx:TrackPointExtension><gpxtpx:atemp>2.7</gpxtpx:atemp></gpxtpx:TrackPointExtension></extensions></trkpt><trkpt lat="42.2112566605" lon="13.4167571738"><ele>1629.28</ele><time>2026-03-11T16:00:22Z</time><extensions><gpxtpx:TrackPointExtension><gpxtpx:atemp>2.7</gpxtpx:atemp></gpxtpx:TrackPointExtension></extensions></trkpt><trkpt lat="42.2112657968" lon="13.4167567547"><ele>1629.26</ele><time>2026-03-11T16:00:23Z</time><extensions><gpxtpx:TrackPointExtension><gpxtpx:atemp>2.7</gpxtpx:atemp></gpxtpx:TrackPointExtension></extensions></trkpt><trkpt lat="42.2112744302" lon="13.4167573415"><ele>1629.26</ele><time>2026-03-11T16:00:24Z</time><extensions><gpxtpx:TrackPointExtension><gpxtpx:atemp>2.7</gpxtpx:atemp></gpxtpx:TrackPointExtension></extensions></trkpt><trkpt lat="42.2112824768" lon="13.4167570900"><ele>1629.23</ele><time>2026-03-11T16:00:25Z</time><extensions><gpxtpx:TrackPointExtension><gpxtpx:atemp>2.7</gpxtpx:atemp></gpxtpx:TrackPointExtension></extensions></trkpt><trkpt lat="42.2112906910" lon="13.4167593531"><ele>1629.18</ele><time>2026-03-11T16:00:26Z</time><extensions><gpxtpx:TrackPointExtension><gpxtpx:atemp>2.7</gpxtpx:atemp></gpxtpx:TrackPointExtension></extensions></trkpt><trkpt lat="42.2112971451" lon="13.4167630412"><ele>1629.15</ele><time>2026-03-11T16:00:27Z</time><extensions><gpxtpx:TrackPointExtension><gpxtpx:atemp>2.7</gpxtpx:atemp></gpxtpx:TrackPointExtension></extensions></trkpt><trkpt lat="42.2113061976" lon="13.4167646337"><ele>1629.12</ele><time>2026-03-11T16:00:28Z</time><extensions><gpxtpx:TrackPointExtension><gpxtpx:atemp>2.7</gpxtpx:atemp></gpxtpx:TrackPointExtension></extensions></trkpt><trkpt lat="42.2113145795" lon="13.4167678189"><ele>1629.09</ele><time>2026-03-11T16:00:29Z</time><extensions><gpxtpx:TrackPointExtension><gpxtpx:atemp>2.7</gpxtpx:atemp></gpxtpx:TrackPointExtension></extensions></trkpt><trkpt lat="42.2113214526" lon="13.4167739376"><ele>1629.08</ele><time>2026-03-11T16:00:30Z</time><extensions><gpxtpx:TrackPointExtension><gpxtpx:atemp>2.7</gpxtpx:atemp></gpxtpx:TrackPointExtension></extensions></trkpt><trkpt lat="42.2113288287" lon="13.4167770389"><ele>1629.05</ele><time>2026-03-11T16:00:31Z</time><extensions><gpxtpx:TrackPointExtension><gpxtpx:atemp>2.7</gpxtpx:atemp></gpxtpx:TrackPointExtension></extensions></trkpt><trkpt lat="42.2113366239" lon="13.4167835768"><ele>1629.03</ele><time>2026-03-11T16:00:32Z</time><extensions><gpxtpx:TrackPointExtension><gpxtpx:atemp>2.7</gpxtpx:atemp></gpxtpx:TrackPointExtension></extensions></trkpt><trkpt lat="42.2113440000" lon="13.4167857561"><ele>1629.00</ele><time>2026-03-11T16:00:33Z</time><extensions><gpxtpx:TrackPointExtension><gpxtpx:atemp>2.7</gpxtpx:atemp></gpxtpx:TrackPointExtension></extensions></trkpt><trkpt lat="42.2113516275" lon="13.4167897794"><ele>1628.98</ele><time>2026-03-11T16:00:34Z</time><extensions><gpxtpx:TrackPointExtension><gpxtpx:atemp>2.7</gpxtpx:atemp></gpxtpx:TrackPointExtension></extensions></trkpt><trkpt lat="42.2113597579" lon="13.4167915396"><ele>1628.97</ele><time>2026-03-11T16:00:35Z</time><extensions><gpxtpx:TrackPointExtension><gpxtpx:atemp>2.7</gpxtpx:atemp></gpxtpx:TrackPointExtension></extensions></trkpt><trkpt lat="42.2113690618" lon="13.4167940542"><ele>1628.94</ele><time>2026-03-11T16:00:36Z</time><extensions><gpxtpx:TrackPointExtension><gpxtpx:atemp>2.7</gpxtpx:atemp></gpxtpx:TrackPointExtension></extensions></trkpt><trkpt lat="42.2113787849" lon="13.4167971555"><ele>1628.88</ele><time>2026-03-11T16:00:37Z</time><extensions><gpxtpx:TrackPointExtension><gpxtpx:atemp>2.7</gpxtpx:atemp></gpxtpx:TrackPointExtension></extensions></trkpt><trkpt lat="42.2113875858" lon="13.4167992510"><ele>1628.84</ele><time>2026-03-11T16:00:38Z</time><extensions><gpxtpx:TrackPointExtension><gpxtpx:atemp>2.7</gpxtpx:atemp></gpxtpx:TrackPointExtension></extensions></trkpt><trkpt lat="42.2113958839" lon="13.4168030228"><ele>1628.79</ele><time>2026-03-11T16:00:39Z</time><extensions><gpxtpx:TrackPointExtension><gpxtpx:atemp>2.7</gpxtpx:atemp></gpxtpx:TrackPointExtension></extensions></trkpt><trkpt lat="42.2114052717" lon="13.4168076329"><ele>1628.72</ele><time>2026-03-11T16:00:40Z</time><extensions><gpxtpx:TrackPointExtension><gpxtpx:atemp>2.7</gpxtpx:atemp></gpxtpx:TrackPointExtension></extensions></trkpt><trkpt lat="42.2114121448" lon="13.4168115724"><ele>1628.62</ele><time>2026-03-11T16:00:41Z</time><extensions><gpxtpx:TrackPointExtension><gpxtpx:atemp>2.7</gpxtpx:atemp></gpxtpx:TrackPointExtension></extensions></trkpt><trkpt lat="42.2114187665" lon="13.4168192837"><ele>1628.60</ele><time>2026-03-11T16:00:42Z</time><extensions><gpxtpx:TrackPointExtension><gpxtpx:atemp>2.7</gpxtpx:atemp></gpxtpx:TrackPointExtension></extensions></trkpt><trkpt lat="42.2114273999" lon="13.4168240614"><ele>1628.59</ele><time>2026-03-11T16:00:43Z</time><extensions><gpxtpx:TrackPointExtension><gpxtpx:atemp>2.7</gpxtpx:atemp></gpxtpx:TrackPointExtension></extensions></trkpt><trkpt lat="42.2114357818" lon="13.4168276656"><ele>1628.54</ele><time>2026-03-11T16:00:44Z</time><extensions><gpxtpx:TrackPointExtension><gpxtpx:atemp>2.7</gpxtpx:atemp></gpxtpx:TrackPointExtension></extensions></trkpt><trkpt lat="42.2114418168" lon="13.4168363828"><ele>1628.46</ele><time>2026-03-11T16:00:45Z</time><extensions><gpxtpx:TrackPointExtension><gpxtpx:atemp>2.7</gpxtpx:atemp></gpxtpx:TrackPointExtension></extensions></trkpt><trkpt lat="42.2114513721" lon="13.4168393165"><ele>1628.44</ele><time>2026-03-11T16:00:46Z</time><extensions><gpxtpx:TrackPointExtension><gpxtpx:atemp>2.7</gpxtpx:atemp></gpxtpx:TrackPointExtension></extensions></trkpt><trkpt lat="42.2114582453" lon="13.4168468602"><ele>1628.45</ele><time>2026-03-11T16:00:47Z</time><extensions><gpxtpx:TrackPointExtension><gpxtpx:atemp>2.7</gpxtpx:atemp></gpxtpx:TrackPointExtension></extensions></trkpt><trkpt lat="42.2114663757" lon="13.4168525599"><ele>1628.42</ele><time>2026-03-11T16:00:48Z</time><extensions><gpxtpx:TrackPointExtension><gpxtpx:atemp>2.7</gpxtpx:atemp></gpxtpx:TrackPointExtension></extensions></trkpt><trkpt lat="42.2114741709" lon="13.4168575890"><ele>1628.35</ele><time>2026-03-11T16:00:49Z</time><extensions><gpxtpx:TrackPointExtension><gpxtpx:atemp>2.7</gpxtpx:atemp></gpxtpx:TrackPointExtension></extensions></trkpt><trkpt lat="42.2114812955" lon="13.4168605227"><ele>1628.29</ele><time>2026-03-11T16:00:50Z</time><extensions><gpxtpx:TrackPointExtension><gpxtpx:atemp>2.7</gpxtpx:atemp></gpxtpx:TrackPointExtension></extensions></trkpt><trkpt lat="42.2114877496" lon="13.4168685693"><ele>1628.27</ele><time>2026-03-11T16:00:51Z</time><extensions><gpxtpx:TrackPointExtension><gpxtpx:atemp>2.7</gpxtpx:atemp></gpxtpx:TrackPointExtension></extensions></trkpt><trkpt lat="42.2114961315" lon="13.4168735985"><ele>1628.24</ele><time>2026-03-11T16:00:52Z</time><extensions><gpxtpx:TrackPointExtension><gpxtpx:atemp>2.7</gpxtpx:atemp></gpxtpx:TrackPointExtension></extensions></trkpt><trkpt lat="42.2115034238" lon="13.4168786276"><ele>1628.21</ele><time>2026-03-11T16:00:53Z</time><extensions><gpxtpx:TrackPointExtension><gpxtpx:atemp>2.7</gpxtpx:atemp></gpxtpx:TrackPointExtension></extensions></trkpt><trkpt lat="42.2115110513" lon="13.4168829862"><ele>1628.18</ele><time>2026-03-11T16:00:54Z</time><extensions><gpxtpx:TrackPointExtension><gpxtpx:atemp>2.7</gpxtpx:atemp></gpxtpx:TrackPointExtension></extensions></trkpt><trkpt lat="42.2115184274" lon="13.4168889374"><ele>1628.15</ele><time>2026-03-11T16:00:55Z</time><extensions><gpxtpx:TrackPointExtension><gpxtpx:atemp>2.7</gpxtpx:atemp></gpxtpx:TrackPointExtension></extensions></trkpt><trkpt lat="42.2115277313" lon="13.4168928768"><ele>1628.12</ele><time>2026-03-11T16:00:56Z</time><extensions><gpxtpx:TrackPointExtension><gpxtpx:atemp>2.7</gpxtpx:atemp></gpxtpx:TrackPointExtension></extensions></trkpt><trkpt lat="42.2115365323" lon="13.4168968163"><ele>1628.09</ele><time>2026-03-11T16:00:57Z</time><extensions><gpxtpx:TrackPointExtension><gpxtpx:atemp>2.7</gpxtpx:atemp></gpxtpx:TrackPointExtension></extensions></trkpt><trkpt lat="42.2115446627" lon="13.4169009235"><ele>1628.00</ele><time>2026-03-11T16:00:58Z</time><extensions><gpxtpx:TrackPointExtension><gpxtpx:atemp>2.7</gpxtpx:atemp></gpxtpx:TrackPointExtension></extensions></trkpt><trkpt lat="42.2115546372" lon="13.4169029351"><ele>1627.97</ele><time>2026-03-11T16:00:59Z</time><extensions><gpxtpx:TrackPointExtension><gpxtpx:atemp>2.7</gpxtpx:atemp></gpxtpx:TrackPointExtension></extensions></trkpt><trkpt lat="42.2115637735" lon="13.4169068746"><ele>1627.94</ele><time>2026-03-11T16:01:00Z</time><extensions><gpxtpx:TrackPointExtension><gpxtpx:atemp>2.7</gpxtpx:atemp></gpxtpx:TrackPointExtension></extensions></trkpt><trkpt lat="42.2115711495" lon="13.4169080481"><ele>1627.91</ele><time>2026-03-11T16:01:01Z</time><extensions><gpxtpx:TrackPointExtension><gpxtpx:atemp>2.7</gpxtpx:atemp></gpxtpx:TrackPointExtension></extensions></trkpt><trkpt lat="42.2115817945" lon="13.4169091377"><ele>1627.88</ele><time>2026-03-11T16:01:02Z</time><extensions><gpxtpx:TrackPointExtension><gpxtpx:atemp>2.7</gpxtpx:atemp></gpxtpx:TrackPointExtension></extensions></trkpt><trkpt lat="42.2115898412" lon="13.4169116523"><ele>1627.86</ele><time>2026-03-11T16:01:03Z</time><extensions><gpxtpx:TrackPointExtension><gpxtpx:atemp>2.7</gpxtpx:atemp></gpxtpx:TrackPointExtension></extensions></trkpt><trkpt lat="42.2115989774" lon="13.4169171844"><ele>1627.84</ele><time>2026-03-11T16:01:04Z</time><extensions><gpxtpx:TrackPointExtension><gpxtpx:atemp>2.7</gpxtpx:atemp></gpxtpx:TrackPointExtension></extensions></trkpt><trkpt lat="42.2116061859" lon="13.4169198666"><ele>1627.83</ele><time>2026-03-11T16:01:05Z</time><extensions><gpxtpx:TrackPointExtension><gpxtpx:atemp>2.7</gpxtpx:atemp></gpxtpx:TrackPointExtension></extensions></trkpt><trkpt lat="42.2116157413" lon="13.4169213753"><ele>1627.80</ele><time>2026-03-11T16:01:06Z</time><extensions><gpxtpx:TrackPointExtension><gpxtpx:atemp>2.7</gpxtpx:atemp></gpxtpx:TrackPointExtension></extensions></trkpt><trkpt lat="42.2116245423" lon="13.4169264883"><ele>1627.73</ele><time>2026-03-11T16:01:07Z</time><extensions><gpxtpx:TrackPointExtension><gpxtpx:atemp>2.7</gpxtpx:atemp></gpxtpx:TrackPointExtension></extensions></trkpt><trkpt lat="42.2116330918" lon="13.4169294219"><ele>1627.69</ele><time>2026-03-11T16:01:08Z</time><extensions><gpxtpx:TrackPointExtension><gpxtpx:atemp>2.7</gpxtpx:atemp></gpxtpx:TrackPointExtension></extensions></trkpt><trkpt lat="42.2116412222" lon="13.4169319365"><ele>1627.59</ele><time>2026-03-11T16:01:09Z</time><extensions><gpxtpx:TrackPointExtension><gpxtpx:atemp>2.7</gpxtpx:atemp></gpxtpx:TrackPointExtension></extensions></trkpt><trkpt lat="42.2116502747" lon="13.4169325233"><ele>1627.57</ele><time>2026-03-11T16:01:10Z</time><extensions><gpxtpx:TrackPointExtension><gpxtpx:atemp>2.7</gpxtpx:atemp></gpxtpx:TrackPointExtension></extensions></trkpt><trkpt lat="42.2116593271" lon="13.4169344511"><ele>1627.54</ele><time>2026-03-11T16:01:11Z</time><extensions><gpxtpx:TrackPointExtension><gpxtpx:atemp>2.7</gpxtpx:atemp></gpxtpx:TrackPointExtension></extensions></trkpt><trkpt lat="42.2116687987" lon="13.4169366304"><ele>1627.51</ele><time>2026-03-11T16:01:12Z</time><extensions><gpxtpx:TrackPointExtension><gpxtpx:atemp>2.7</gpxtpx:atemp></gpxtpx:TrackPointExtension></extensions></trkpt><trkpt lat="42.2116795275" lon="13.4169396479"><ele>1627.49</ele><time>2026-03-11T16:01:13Z</time><extensions><gpxtpx:TrackPointExtension><gpxtpx:atemp>2.7</gpxtpx:atemp></gpxtpx:TrackPointExtension></extensions></trkpt><trkpt lat="42.2116883285" lon="13.4169442579"><ele>1627.47</ele><time>2026-03-11T16:01:14Z</time><extensions><gpxtpx:TrackPointExtension><gpxtpx:atemp>2.7</gpxtpx:atemp></gpxtpx:TrackPointExtension></extensions></trkpt><trkpt lat="42.2116967943" lon="13.4169466887"><ele>1627.45</ele><time>2026-03-11T16:01:15Z</time><extensions><gpxtpx:TrackPointExtension><gpxtpx:atemp>2.7</gpxtpx:atemp></gpxtpx:TrackPointExtension></extensions></trkpt><trkpt lat="42.2117078584" lon="13.4169463534"><ele>1627.44</ele><time>2026-03-11T16:01:16Z</time><extensions><gpxtpx:TrackPointExtension><gpxtpx:atemp>2.7</gpxtpx:atemp></gpxtpx:TrackPointExtension></extensions></trkpt><trkpt lat="42.2117154859" lon="13.4169484489"><ele>1627.42</ele><time>2026-03-11T16:01:17Z</time><extensions><gpxtpx:TrackPointExtension><gpxtpx:atemp>2.7</gpxtpx:atemp></gpxtpx:TrackPointExtension></extensions></trkpt><trkpt lat="42.2117234487" lon="13.4169500414"><ele>1627.38</ele><time>2026-03-11T16:01:18Z</time><extensions><gpxtpx:TrackPointExtension><gpxtpx:atemp>2.7</gpxtpx:atemp></gpxtpx:TrackPointExtension></extensions></trkpt><trkpt lat="42.2117302381" lon="13.4169540647"><ele>1627.30</ele><time>2026-03-11T16:01:19Z</time><extensions><gpxtpx:TrackPointExtension><gpxtpx:atemp>2.7</gpxtpx:atemp></gpxtpx:TrackPointExtension></extensions></trkpt><trkpt lat="42.2117377818" lon="13.4169558249"><ele>1627.19</ele><time>2026-03-11T16:01:20Z</time><extensions><gpxtpx:TrackPointExtension><gpxtpx:atemp>2.7</gpxtpx:atemp></gpxtpx:TrackPointExtension></extensions></trkpt><trkpt lat="42.2117476724" lon="13.4169554897"><ele>1627.03</ele><time>2026-03-11T16:01:21Z</time><extensions><gpxtpx:TrackPointExtension><gpxtpx:atemp>2.7</gpxtpx:atemp></gpxtpx:TrackPointExtension></extensions></trkpt><trkpt lat="42.2117559705" lon="13.4169570822"><ele>1626.91</ele><time>2026-03-11T16:01:22Z</time><extensions><gpxtpx:TrackPointExtension><gpxtpx:atemp>2.7</gpxtpx:atemp></gpxtpx:TrackPointExtension></extensions></trkpt><trkpt lat="42.2117652744" lon="13.4169559926"><ele>1626.83</ele><time>2026-03-11T16:01:23Z</time><extensions><gpxtpx:TrackPointExtension><gpxtpx:atemp>2.7</gpxtpx:atemp></gpxtpx:TrackPointExtension></extensions></trkpt><trkpt lat="42.2117731534" lon="13.4169576690"><ele>1626.77</ele><time>2026-03-11T16:01:24Z</time><extensions><gpxtpx:TrackPointExtension><gpxtpx:atemp>2.7</gpxtpx:atemp></gpxtpx:TrackPointExtension></extensions></trkpt><trkpt lat="42.2117833793" lon="13.4169591777"><ele>1626.74</ele><time>2026-03-11T16:01:25Z</time><extensions><gpxtpx:TrackPointExtension><gpxtpx:atemp>2.7</gpxtpx:atemp></gpxtpx:TrackPointExtension></extensions></trkpt><trkpt lat="42.2117913421" lon="13.4169570822"><ele>1626.69</ele><time>2026-03-11T16:01:26Z</time><extensions><gpxtpx:TrackPointExtension><gpxtpx:atemp>2.7</gpxtpx:atemp></gpxtpx:TrackPointExtension></extensions></trkpt><trkpt lat="42.2117997240" lon="13.4169578366"><ele>1626.65</ele><time>2026-03-11T16:01:27Z</time><extensions><gpxtpx:TrackPointExtension><gpxtpx:atemp>2.7</gpxtpx:atemp></gpxtpx:TrackPointExtension></extensions></trkpt><trkpt lat="42.2118096985" lon="13.4169584233"><ele>1626.61</ele><time>2026-03-11T16:01:28Z</time><extensions><gpxtpx:TrackPointExtension><gpxtpx:atemp>2.7</gpxtpx:atemp></gpxtpx:TrackPointExtension></extensions></trkpt><trkpt lat="42.2118187509" lon="13.4169565793"><ele>1626.59</ele><time>2026-03-11T16:01:29Z</time><extensions><gpxtpx:TrackPointExtension><gpxtpx:atemp>2.7</gpxtpx:atemp></gpxtpx:TrackPointExtension></extensions></trkpt><trkpt lat="42.2118274681" lon="13.4169549868"><ele>1626.52</ele><time>2026-03-11T16:01:30Z</time><extensions><gpxtpx:TrackPointExtension><gpxtpx:atemp>2.7</gpxtpx:atemp></gpxtpx:TrackPointExtension></extensions></trkpt><trkpt lat="42.2118364368" lon="13.4169528913"><ele>1626.46</ele><time>2026-03-11T16:01:31Z</time><extensions><gpxtpx:TrackPointExtension><gpxtpx:atemp>2.7</gpxtpx:atemp></gpxtpx:TrackPointExtension></extensions></trkpt><trkpt lat="42.2118460760" lon="13.4169539809"><ele>1626.46</ele><time>2026-03-11T16:01:32Z</time><extensions><gpxtpx:TrackPointExtension><gpxtpx:atemp>2.8</gpxtpx:atemp></gpxtpx:TrackPointExtension></extensions></trkpt><trkpt lat="42.2118542902" lon="13.4169534780"><ele>1626.40</ele><time>2026-03-11T16:01:33Z</time><extensions><gpxtpx:TrackPointExtension><gpxtpx:atemp>2.8</gpxtpx:atemp></gpxtpx:TrackPointExtension></extensions></trkpt><trkpt lat="42.2118625883" lon="13.4169548191"><ele>1626.39</ele><time>2026-03-11T16:01:34Z</time><extensions><gpxtpx:TrackPointExtension><gpxtpx:atemp>2.8</gpxtpx:atemp></gpxtpx:TrackPointExtension></extensions></trkpt><trkpt lat="42.2118715569" lon="13.4169556573"><ele>1626.38</ele><time>2026-03-11T16:01:35Z</time><extensions><gpxtpx:TrackPointExtension><gpxtpx:atemp>2.8</gpxtpx:atemp></gpxtpx:TrackPointExtension></extensions></trkpt><trkpt lat="42.2118796874" lon="13.4169561602"><ele>1626.31</ele><time>2026-03-11T16:01:36Z</time><extensions><gpxtpx:TrackPointExtension><gpxtpx:atemp>2.8</gpxtpx:atemp></gpxtpx:TrackPointExtension></extensions></trkpt><trkpt lat="42.2118894942" lon="13.4169551544"><ele>1626.22</ele><time>2026-03-11T16:01:37Z</time><extensions><gpxtpx:TrackPointExtension><gpxtpx:atemp>2.8</gpxtpx:atemp></gpxtpx:TrackPointExtension></extensions></trkpt><trkpt lat="42.2118986305" lon="13.4169524722"><ele>1626.17</ele><time>2026-03-11T16:01:38Z</time><extensions><gpxtpx:TrackPointExtension><gpxtpx:atemp>2.8</gpxtpx:atemp></gpxtpx:TrackPointExtension></extensions></trkpt><trkpt lat="42.2119083535" lon="13.4169512987"><ele>1626.14</ele><time>2026-03-11T16:01:39Z</time><extensions><gpxtpx:TrackPointExtension><gpxtpx:atemp>2.8</gpxtpx:atemp></gpxtpx:TrackPointExtension></extensions></trkpt><trkpt lat="42.2119157296" lon="13.4169522207"><ele>1626.12</ele><time>2026-03-11T16:01:40Z</time><extensions><gpxtpx:TrackPointExtension><gpxtpx:atemp>2.8</gpxtpx:atemp></gpxtpx:TrackPointExtension></extensions></trkpt><trkpt lat="42.2119230218" lon="13.4169514664"><ele>1626.09</ele><time>2026-03-11T16:01:41Z</time><extensions><gpxtpx:TrackPointExtension><gpxtpx:atemp>2.8</gpxtpx:atemp></gpxtpx:TrackPointExtension></extensions></trkpt><trkpt lat="42.2119296435" lon="13.4169525560"><ele>1626.05</ele><time>2026-03-11T16:01:42Z</time><extensions><gpxtpx:TrackPointExtension><gpxtpx:atemp>2.8</gpxtpx:atemp></gpxtpx:TrackPointExtension></extensions></trkpt><trkpt lat="42.2119368520" lon="13.4169518854"><ele>1626.00</ele><time>2026-03-11T16:01:43Z</time><extensions><gpxtpx:TrackPointExtension><gpxtpx:atemp>2.8</gpxtpx:atemp></gpxtpx:TrackPointExtension></extensions></trkpt><trkpt lat="42.2119454853" lon="13.4169520531"><ele>1625.93</ele><time>2026-03-11T16:01:44Z</time><extensions><gpxtpx:TrackPointExtension><gpxtpx:atemp>2.8</gpxtpx:atemp></gpxtpx:TrackPointExtension></extensions></trkpt><trkpt lat="42.2119548731" lon="13.4169533942"><ele>1625.91</ele><time>2026-03-11T16:01:45Z</time><extensions><gpxtpx:TrackPointExtension><gpxtpx:atemp>2.8</gpxtpx:atemp></gpxtpx:TrackPointExtension></extensions></trkpt><trkpt lat="42.2119626682" lon="13.4169518854"><ele>1625.90</ele><time>2026-03-11T16:01:46Z</time><extensions><gpxtpx:TrackPointExtension><gpxtpx:atemp>2.8</gpxtpx:atemp></gpxtpx:TrackPointExtension></extensions></trkpt><trkpt lat="42.2119695414" lon="13.4169538971"><ele>1625.88</ele><time>2026-03-11T16:01:47Z</time><extensions><gpxtpx:TrackPointExtension><gpxtpx:atemp>2.8</gpxtpx:atemp></gpxtpx:TrackPointExtension></extensions></trkpt><trkpt lat="42.2119777557" lon="13.4169531427"><ele>1625.87</ele><time>2026-03-11T16:01:48Z</time><extensions><gpxtpx:TrackPointExtension><gpxtpx:atemp>2.8</gpxtpx:atemp></gpxtpx:TrackPointExtension></extensions></trkpt><trkpt lat="42.2119866405" lon="13.4169536456"><ele>1625.85</ele><time>2026-03-11T16:01:49Z</time><extensions><gpxtpx:TrackPointExtension><gpxtpx:atemp>2.8</gpxtpx:atemp></gpxtpx:TrackPointExtension></extensions></trkpt><trkpt lat="42.2119950224" lon="13.4169538971"><ele>1625.83</ele><time>2026-03-11T16:01:50Z</time><extensions><gpxtpx:TrackPointExtension><gpxtpx:atemp>2.8</gpxtpx:atemp></gpxtpx:TrackPointExtension></extensions></trkpt><trkpt lat="42.2120046616" lon="13.4169539809"><ele>1625.80</ele><time>2026-03-11T16:01:51Z</time><extensions><gpxtpx:TrackPointExtension><gpxtpx:atemp>2.8</gpxtpx:atemp></gpxtpx:TrackPointExtension></extensions></trkpt><trkpt lat="42.2120123729" lon="13.4169562440"><ele>1625.79</ele><time>2026-03-11T16:01:52Z</time><extensions><gpxtpx:TrackPointExtension><gpxtpx:atemp>2.8</gpxtpx:atemp></gpxtpx:TrackPointExtension></extensions></trkpt><trkpt lat="42.2120211739" lon="13.4169549868"><ele>1625.77</ele><time>2026-03-11T16:01:53Z</time><extensions><gpxtpx:TrackPointExtension><gpxtpx:atemp>2.8</gpxtpx:atemp></gpxtpx:TrackPointExtension></extensions></trkpt><trkpt lat="42.2120280471" lon="13.4169545677"><ele>1625.73</ele><time>2026-03-11T16:01:54Z</time><extensions><gpxtpx:TrackPointExtension><gpxtpx:atemp>2.8</gpxtpx:atemp></gpxtpx:TrackPointExtension></extensions></trkpt><trkpt lat="42.2120341659" lon="13.4169532266"><ele>1625.64</ele><time>2026-03-11T16:01:55Z</time><extensions><gpxtpx:TrackPointExtension><gpxtpx:atemp>2.8</gpxtpx:atemp></gpxtpx:TrackPointExtension></extensions></trkpt><trkpt lat="42.2120416258" lon="13.4169536456"><ele>1625.61</ele><time>2026-03-11T16:01:56Z</time><extensions><gpxtpx:TrackPointExtension><gpxtpx:atemp>2.8</gpxtpx:atemp></gpxtpx:TrackPointExtension></extensions></trkpt><trkpt lat="42.2120501753" lon="13.4169545677"><ele>1625.57</ele><time>2026-03-11T16:01:57Z</time><extensions><gpxtpx:TrackPointExtension><gpxtpx:atemp>2.8</gpxtpx:atemp></gpxtpx:TrackPointExtension></extensions></trkpt><trkpt lat="42.2120580543" lon="13.4169561602"><ele>1625.54</ele><time>2026-03-11T16:01:58Z</time><extensions><gpxtpx:TrackPointExtension><gpxtpx:atemp>2.8</gpxtpx:atemp></gpxtpx:TrackPointExtension></extensions></trkpt><trkpt lat="42.2120655980" lon="13.4169580881"><ele>1625.52</ele><time>2026-03-11T16:01:59Z</time><extensions><gpxtpx:TrackPointExtension><gpxtpx:atemp>2.8</gpxtpx:atemp></gpxtpx:TrackPointExtension></extensions></trkpt><trkpt lat="42.2120739799" lon="13.4169580881"><ele>1625.49</ele><time>2026-03-11T16:02:00Z</time><extensions><gpxtpx:TrackPointExtension><gpxtpx:atemp>2.8</gpxtpx:atemp></gpxtpx:TrackPointExtension></extensions></trkpt><trkpt lat="42.2120799311" lon="13.4169616923"><ele>1625.46</ele><time>2026-03-11T16:02:01Z</time><extensions><gpxtpx:TrackPointExtension><gpxtpx:atemp>2.8</gpxtpx:atemp></gpxtpx:TrackPointExtension></extensions></trkpt><trkpt lat="42.2120883968" lon="13.4169611894"><ele>1625.43</ele><time>2026-03-11T16:02:02Z</time><extensions><gpxtpx:TrackPointExtension><gpxtpx:atemp>2.8</gpxtpx:atemp></gpxtpx:TrackPointExtension></extensions></trkpt><trkpt lat="42.2120960243" lon="13.4169607703"><ele>1625.38</ele><time>2026-03-11T16:02:03Z</time><extensions><gpxtpx:TrackPointExtension><gpxtpx:atemp>2.8</gpxtpx:atemp></gpxtpx:TrackPointExtension></extensions></trkpt><trkpt lat="42.2121047415" lon="13.4169627819"><ele>1625.33</ele><time>2026-03-11T16:02:04Z</time><extensions><gpxtpx:TrackPointExtension><gpxtpx:atemp>2.8</gpxtpx:atemp></gpxtpx:TrackPointExtension></extensions></trkpt><trkpt lat="42.2121137939" lon="13.4169622790"><ele>1625.27</ele><time>2026-03-11T16:02:05Z</time><extensions><gpxtpx:TrackPointExtension><gpxtpx:atemp>2.8</gpxtpx:atemp></gpxtpx:TrackPointExtension></extensions></trkpt><trkpt lat="42.2121209186" lon="13.4169639554"><ele>1625.21</ele><time>2026-03-11T16:02:06Z</time><extensions><gpxtpx:TrackPointExtension><gpxtpx:atemp>2.8</gpxtpx:atemp></gpxtpx:TrackPointExtension></extensions></trkpt><trkpt lat="42.2121292166" lon="13.4169643745"><ele>1625.13</ele><time>2026-03-11T16:02:07Z</time><extensions><gpxtpx:TrackPointExtension><gpxtpx:atemp>2.8</gpxtpx:atemp></gpxtpx:TrackPointExtension></extensions></trkpt><trkpt lat="42.2121386882" lon="13.4169674758"><ele>1625.11</ele><time>2026-03-11T16:02:08Z</time><extensions><gpxtpx:TrackPointExtension><gpxtpx:atemp>2.8</gpxtpx:atemp></gpxtpx:TrackPointExtension></extensions></trkpt><trkpt lat="42.2121457290" lon="13.4169677272"><ele>1625.10</ele><time>2026-03-11T16:02:09Z</time><extensions><gpxtpx:TrackPointExtension><gpxtpx:atemp>2.8</gpxtpx:atemp></gpxtpx:TrackPointExtension></extensions></trkpt><trkpt lat="42.2121540271" lon="13.4169676434"><ele>1625.08</ele><time>2026-03-11T16:02:10Z</time><extensions><gpxtpx:TrackPointExtension><gpxtpx:atemp>2.8</gpxtpx:atemp></gpxtpx:TrackPointExtension></extensions></trkpt><trkpt lat="42.2121610679" lon="13.4169675596"><ele>1625.08</ele><time>2026-03-11T16:02:11Z</time><extensions><gpxtpx:TrackPointExtension><gpxtpx:atemp>2.8</gpxtpx:atemp></gpxtpx:TrackPointExtension></extensions></trkpt><trkpt lat="42.2121680249" lon="13.4169649612"><ele>1625.08</ele><time>2026-03-11T16:02:12Z</time><extensions><gpxtpx:TrackPointExtension><gpxtpx:atemp>2.8</gpxtpx:atemp></gpxtpx:TrackPointExtension></extensions></trkpt><trkpt lat="42.2121760715" lon="13.4169657994"><ele>1625.08</ele><time>2026-03-11T16:02:13Z</time><extensions><gpxtpx:TrackPointExtension><gpxtpx:atemp>2.8</gpxtpx:atemp></gpxtpx:TrackPointExtension></extensions></trkpt><trkpt lat="42.2121840343" lon="13.4169656318"><ele>1625.07</ele><time>2026-03-11T16:02:14Z</time><extensions><gpxtpx:TrackPointExtension><gpxtpx:atemp>2.8</gpxtpx:atemp></gpxtpx:TrackPointExtension></extensions></trkpt><trkpt lat="42.2121924162" lon="13.4169663861"><ele>1625.07</ele><time>2026-03-11T16:02:15Z</time><extensions><gpxtpx:TrackPointExtension><gpxtpx:atemp>2.8</gpxtpx:atemp></gpxtpx:TrackPointExtension></extensions></trkpt><trkpt lat="42.2122008819" lon="13.4169673920"><ele>1625.04</ele><time>2026-03-11T16:02:16Z</time><extensions><gpxtpx:TrackPointExtension><gpxtpx:atemp>2.8</gpxtpx:atemp></gpxtpx:TrackPointExtension></extensions></trkpt><trkpt lat="42.2122094315" lon="13.4169666376"><ele>1624.99</ele><time>2026-03-11T16:02:17Z</time><extensions><gpxtpx:TrackPointExtension><gpxtpx:atemp>2.8</gpxtpx:atemp></gpxtpx:TrackPointExtension></extensions></trkpt><trkpt lat="42.2122172266" lon="13.4169673920"><ele>1624.94</ele><time>2026-03-11T16:02:18Z</time><extensions><gpxtpx:TrackPointExtension><gpxtpx:atemp>2.8</gpxtpx:atemp></gpxtpx:TrackPointExtension></extensions></trkpt><trkpt lat="42.2122257762" lon="13.4169668891"><ele>1624.92</ele><time>2026-03-11T16:02:19Z</time><extensions><gpxtpx:TrackPointExtension><gpxtpx:atemp>2.8</gpxtpx:atemp></gpxtpx:TrackPointExtension></extensions></trkpt><trkpt lat="42.2122328170" lon="13.4169695713"><ele>1624.90</ele><time>2026-03-11T16:02:20Z</time><extensions><gpxtpx:TrackPointExtension><gpxtpx:atemp>2.8</gpxtpx:atemp></gpxtpx:TrackPointExtension></extensions></trkpt><trkpt lat="42.2122421209" lon="13.4169688169"><ele>1624.89</ele><time>2026-03-11T16:02:21Z</time><extensions><gpxtpx:TrackPointExtension><gpxtpx:atemp>2.8</gpxtpx:atemp></gpxtpx:TrackPointExtension></extensions></trkpt><trkpt lat="42.2122503351" lon="13.4169690683"><ele>1624.87</ele><time>2026-03-11T16:02:22Z</time><extensions><gpxtpx:TrackPointExtension><gpxtpx:atemp>2.8</gpxtpx:atemp></gpxtpx:TrackPointExtension></extensions></trkpt><trkpt lat="42.2122587170" lon="13.4169700742"><ele>1624.86</ele><time>2026-03-11T16:02:23Z</time><extensions><gpxtpx:TrackPointExtension><gpxtpx:atemp>2.8</gpxtpx:atemp></gpxtpx:TrackPointExtension></extensions></trkpt><trkpt lat="42.2122679371" lon="13.4169700742"><ele>1624.82</ele><time>2026-03-11T16:02:24Z</time><extensions><gpxtpx:TrackPointExtension><gpxtpx:atemp>2.8</gpxtpx:atemp></gpxtpx:TrackPointExtension></extensions></trkpt><trkpt lat="42.2122762352" lon="13.4169690683"><ele>1624.78</ele><time>2026-03-11T16:02:25Z</time><extensions><gpxtpx:TrackPointExtension><gpxtpx:atemp>2.8</gpxtpx:atemp></gpxtpx:TrackPointExtension></extensions></trkpt><trkpt lat="42.2122823540" lon="13.4169686493"><ele>1624.76</ele><time>2026-03-11T16:02:26Z</time><extensions><gpxtpx:TrackPointExtension><gpxtpx:atemp>2.8</gpxtpx:atemp></gpxtpx:TrackPointExtension></extensions></trkpt><trkpt lat="42.2122923285" lon="13.4169688169"><ele>1624.75</ele><time>2026-03-11T16:02:27Z</time><extensions><gpxtpx:TrackPointExtension><gpxtpx:atemp>2.8</gpxtpx:atemp></gpxtpx:TrackPointExtension></extensions></trkpt><trkpt lat="42.2123004589" lon="13.4169690683"><ele>1624.73</ele><time>2026-03-11T16:02:28Z</time><extensions><gpxtpx:TrackPointExtension><gpxtpx:atemp>2.8</gpxtpx:atemp></gpxtpx:TrackPointExtension></extensions></trkpt><trkpt lat="42.2123099305" lon="13.4169666376"><ele>1624.70</ele><time>2026-03-11T16:02:29Z</time><extensions><gpxtpx:TrackPointExtension><gpxtpx:atemp>2.8</gpxtpx:atemp></gpxtpx:TrackPointExtension></extensions></trkpt><trkpt lat="42.2123202402" lon="13.4169669729"><ele>1624.64</ele><time>2026-03-11T16:02:30Z</time><extensions><gpxtpx:TrackPointExtension><gpxtpx:atemp>2.8</gpxtpx:atemp></gpxtpx:TrackPointExtension></extensions></trkpt><trkpt lat="42.2123289574" lon="13.4169674758"><ele>1624.61</ele><time>2026-03-11T16:02:31Z</time><extensions><gpxtpx:TrackPointExtension><gpxtpx:atemp>2.8</gpxtpx:atemp></gpxtpx:TrackPointExtension></extensions></trkpt><trkpt lat="42.2123373393" lon="13.4169690683"><ele>1624.55</ele><time>2026-03-11T16:02:32Z</time><extensions><gpxtpx:TrackPointExtension><gpxtpx:atemp>2.8</gpxtpx:atemp></gpxtpx:TrackPointExtension></extensions></trkpt><trkpt lat="42.2123475652" lon="13.4169690683"><ele>1624.50</ele><time>2026-03-11T16:02:33Z</time><extensions><gpxtpx:TrackPointExtension><gpxtpx:atemp>2.8</gpxtpx:atemp></gpxtpx:TrackPointExtension></extensions></trkpt><trkpt lat="42.2123569530" lon="13.4169711638"><ele>1624.45</ele><time>2026-03-11T16:02:34Z</time><extensions><gpxtpx:TrackPointExtension><gpxtpx:atemp>2.9</gpxtpx:atemp></gpxtpx:TrackPointExtension></extensions></trkpt><trkpt lat="42.2123655863" lon="13.4169711638"><ele>1624.41</ele><time>2026-03-11T16:02:35Z</time><extensions><gpxtpx:TrackPointExtension><gpxtpx:atemp>2.9</gpxtpx:atemp></gpxtpx:TrackPointExtension></extensions></trkpt><trkpt lat="42.2123737168" lon="13.4169711638"><ele>1624.37</ele><time>2026-03-11T16:02:36Z</time><extensions><gpxtpx:TrackPointExtension><gpxtpx:atemp>2.9</gpxtpx:atemp></gpxtpx:TrackPointExtension></extensions></trkpt><trkpt lat="42.2123806737" lon="13.4169737622"><ele>1624.30</ele><time>2026-03-11T16:02:37Z</time><extensions><gpxtpx:TrackPointExtension><gpxtpx:atemp>2.9</gpxtpx:atemp></gpxtpx:TrackPointExtension></extensions></trkpt><trkpt lat="42.2123896424" lon="13.4169730917"><ele>1624.25</ele><time>2026-03-11T16:02:38Z</time><extensions><gpxtpx:TrackPointExtension><gpxtpx:atemp>2.9</gpxtpx:atemp></gpxtpx:TrackPointExtension></extensions></trkpt><trkpt lat="42.2123976890" lon="13.4169742651"><ele>1624.23</ele><time>2026-03-11T16:02:39Z</time><extensions><gpxtpx:TrackPointExtension><gpxtpx:atemp>2.9</gpxtpx:atemp></gpxtpx:TrackPointExtension></extensions></trkpt><trkpt lat="42.2124058194" lon="13.4169762768"><ele>1624.20</ele><time>2026-03-11T16:02:40Z</time><extensions><gpxtpx:TrackPointExtension><gpxtpx:atemp>2.9</gpxtpx:atemp></gpxtpx:TrackPointExtension></extensions></trkpt><trkpt lat="42.2124125250" lon="13.4169760253"><ele>1624.14</ele><time>2026-03-11T16:02:41Z</time><extensions><gpxtpx:TrackPointExtension><gpxtpx:atemp>2.9</gpxtpx:atemp></gpxtpx:TrackPointExtension></extensions></trkpt><trkpt lat="42.2124212421" lon="13.4169775341"><ele>1624.11</ele><time>2026-03-11T16:02:42Z</time><extensions><gpxtpx:TrackPointExtension><gpxtpx:atemp>2.9</gpxtpx:atemp></gpxtpx:TrackPointExtension></extensions></trkpt><trkpt lat="42.2124289535" lon="13.4169774503"><ele>1624.09</ele><time>2026-03-11T16:02:43Z</time><extensions><gpxtpx:TrackPointExtension><gpxtpx:atemp>2.9</gpxtpx:atemp></gpxtpx:TrackPointExtension></extensions></trkpt><trkpt lat="42.2124369163" lon="13.4169799648"><ele>1624.06</ele><time>2026-03-11T16:02:44Z</time><extensions><gpxtpx:TrackPointExtension><gpxtpx:atemp>2.9</gpxtpx:atemp></gpxtpx:TrackPointExtension></extensions></trkpt><trkpt lat="42.2124455497" lon="13.4169810545"><ele>1624.03</ele><time>2026-03-11T16:02:45Z</time><extensions><gpxtpx:TrackPointExtension><gpxtpx:atemp>2.9</gpxtpx:atemp></gpxtpx:TrackPointExtension></extensions></trkpt><trkpt lat="42.2124524228" lon="13.4169793781"><ele>1624.00</ele><time>2026-03-11T16:02:46Z</time><extensions><gpxtpx:TrackPointExtension><gpxtpx:atemp>2.9</gpxtpx:atemp></gpxtpx:TrackPointExtension></extensions></trkpt><trkpt lat="42.2124549374" lon="13.4169804677"><ele>1623.97</ele><time>2026-03-11T16:02:47Z</time><extensions><gpxtpx:TrackPointExtension><gpxtpx:atemp>2.9</gpxtpx:atemp></gpxtpx:TrackPointExtension></extensions></trkpt><trkpt lat="42.2124550212" lon="13.4169819765"><ele>1623.97</ele><time>2026-03-11T16:02:48Z</time><extensions><gpxtpx:TrackPointExtension><gpxtpx:atemp>2.9</gpxtpx:atemp></gpxtpx:TrackPointExtension></extensions></trkpt><trkpt lat="42.2124581225" lon="13.4169801325"><ele>1623.96</ele><time>2026-03-11T16:02:49Z</time><extensions><gpxtpx:TrackPointExtension><gpxtpx:atemp>2.9</gpxtpx:atemp></gpxtpx:TrackPointExtension></extensions></trkpt><trkpt lat="42.2124646604" lon="13.4169803839"><ele>1623.95</ele><time>2026-03-11T16:02:50Z</time><extensions><gpxtpx:TrackPointExtension><gpxtpx:atemp>2.9</gpxtpx:atemp></gpxtpx:TrackPointExtension></extensions></trkpt><trkpt lat="42.2124723718" lon="13.4169790428"><ele>1623.94</ele><time>2026-03-11T16:02:51Z</time><extensions><gpxtpx:TrackPointExtension><gpxtpx:atemp>2.9</gpxtpx:atemp></gpxtpx:TrackPointExtension></extensions></trkpt><trkpt lat="42.2124801669" lon="13.4169808868"><ele>1623.92</ele><time>2026-03-11T16:02:52Z</time><extensions><gpxtpx:TrackPointExtension><gpxtpx:atemp>2.9</gpxtpx:atemp></gpxtpx:TrackPointExtension></extensions></trkpt><trkpt lat="42.2124885488" lon="13.4169795457"><ele>1623.87</ele><time>2026-03-11T16:02:53Z</time><extensions><gpxtpx:TrackPointExtension><gpxtpx:atemp>2.9</gpxtpx:atemp></gpxtpx:TrackPointExtension></extensions></trkpt><trkpt lat="42.2124969307" lon="13.4169785399"><ele>1623.83</ele><time>2026-03-11T16:02:54Z</time><extensions><gpxtpx:TrackPointExtension><gpxtpx:atemp>2.9</gpxtpx:atemp></gpxtpx:TrackPointExtension></extensions></trkpt><trkpt lat="42.2125038877" lon="13.4169800486"><ele>1623.81</ele><time>2026-03-11T16:02:55Z</time><extensions><gpxtpx:TrackPointExtension><gpxtpx:atemp>2.9</gpxtpx:atemp></gpxtpx:TrackPointExtension></extensions></trkpt><trkpt lat="42.2125145327" lon="13.4169811383"><ele>1623.78</ele><time>2026-03-11T16:02:56Z</time><extensions><gpxtpx:TrackPointExtension><gpxtpx:atemp>2.9</gpxtpx:atemp></gpxtpx:TrackPointExtension></extensions></trkpt><trkpt lat="42.2125215735" lon="13.4169839881"><ele>1623.77</ele><time>2026-03-11T16:02:57Z</time><extensions><gpxtpx:TrackPointExtension><gpxtpx:atemp>2.9</gpxtpx:atemp></gpxtpx:TrackPointExtension></extensions></trkpt><trkpt lat="42.2125291172" lon="13.4169829823"><ele>1623.72</ele><time>2026-03-11T16:02:58Z</time><extensions><gpxtpx:TrackPointExtension><gpxtpx:atemp>2.9</gpxtpx:atemp></gpxtpx:TrackPointExtension></extensions></trkpt><trkpt lat="42.2125362419" lon="13.4169827309"><ele>1623.70</ele><time>2026-03-11T16:02:59Z</time><extensions><gpxtpx:TrackPointExtension><gpxtpx:atemp>2.9</gpxtpx:atemp></gpxtpx:TrackPointExtension></extensions></trkpt><trkpt lat="42.2125447914" lon="13.4169835690"><ele>1623.66</ele><time>2026-03-11T16:03:00Z</time><extensions><gpxtpx:TrackPointExtension><gpxtpx:atemp>2.9</gpxtpx:atemp></gpxtpx:TrackPointExtension></extensions></trkpt><trkpt lat="42.2125531733" lon="13.4169814736"><ele>1623.63</ele><time>2026-03-11T16:03:01Z</time><extensions><gpxtpx:TrackPointExtension><gpxtpx:atemp>2.9</gpxtpx:atemp></gpxtpx:TrackPointExtension></extensions></trkpt><trkpt lat="42.2125596274" lon="13.4169822279"><ele>1623.61</ele><time>2026-03-11T16:03:02Z</time><extensions><gpxtpx:TrackPointExtension><gpxtpx:atemp>2.9</gpxtpx:atemp></gpxtpx:TrackPointExtension></extensions></trkpt><trkpt lat="42.2125681769" lon="13.4169810545"><ele>1623.58</ele><time>2026-03-11T16:03:03Z</time><extensions><gpxtpx:TrackPointExtension><gpxtpx:atemp>2.9</gpxtpx:atemp></gpxtpx:TrackPointExtension></extensions></trkpt><trkpt lat="42.2125770617" lon="13.4169829823"><ele>1623.51</ele><time>2026-03-11T16:03:04Z</time><extensions><gpxtpx:TrackPointExtension><gpxtpx:atemp>2.9</gpxtpx:atemp></gpxtpx:TrackPointExtension></extensions></trkpt><trkpt lat="42.2125861980" lon="13.4169835690"><ele>1623.51</ele><time>2026-03-11T16:03:05Z</time><extensions><gpxtpx:TrackPointExtension><gpxtpx:atemp>2.9</gpxtpx:atemp></gpxtpx:TrackPointExtension></extensions></trkpt><trkpt lat="42.2125946637" lon="13.4169831499"><ele>1623.50</ele><time>2026-03-11T16:03:06Z</time><extensions><gpxtpx:TrackPointExtension><gpxtpx:atemp>2.9</gpxtpx:atemp></gpxtpx:TrackPointExtension></extensions></trkpt><trkpt lat="42.2126017883" lon="13.4169826470"><ele>1623.50</ele><time>2026-03-11T16:03:07Z</time><extensions><gpxtpx:TrackPointExtension><gpxtpx:atemp>2.9</gpxtpx:atemp></gpxtpx:TrackPointExtension></extensions></trkpt><trkpt lat="42.2126088291" lon="13.4169801325"><ele>1623.50</ele><time>2026-03-11T16:03:08Z</time><extensions><gpxtpx:TrackPointExtension><gpxtpx:atemp>2.9</gpxtpx:atemp></gpxtpx:TrackPointExtension></extensions></trkpt><trkpt lat="42.2126162890" lon="13.4169824794"><ele>1623.49</ele><time>2026-03-11T16:03:09Z</time><extensions><gpxtpx:TrackPointExtension><gpxtpx:atemp>2.9</gpxtpx:atemp></gpxtpx:TrackPointExtension></extensions></trkpt><trkpt lat="42.2126247548" lon="13.4169815574"><ele>1623.49</ele><time>2026-03-11T16:03:10Z</time><extensions><gpxtpx:TrackPointExtension><gpxtpx:atemp>2.9</gpxtpx:atemp></gpxtpx:TrackPointExtension></extensions></trkpt><trkpt lat="42.2126332205" lon="13.4169810545"><ele>1623.49</ele><time>2026-03-11T16:03:11Z</time><extensions><gpxtpx:TrackPointExtension><gpxtpx:atemp>2.9</gpxtpx:atemp></gpxtpx:TrackPointExtension></extensions></trkpt><trkpt lat="42.2126409318" lon="13.4169802163"><ele>1623.46</ele><time>2026-03-11T16:03:12Z</time><extensions><gpxtpx:TrackPointExtension><gpxtpx:atemp>2.9</gpxtpx:atemp></gpxtpx:TrackPointExtension></extensions></trkpt><trkpt lat="42.2126490623" lon="13.4169784561"><ele>1623.41</ele><time>2026-03-11T16:03:13Z</time><extensions><gpxtpx:TrackPointExtension><gpxtpx:atemp>2.9</gpxtpx:atemp></gpxtpx:TrackPointExtension></extensions></trkpt><trkpt lat="42.2126556840" lon="13.4169775341"><ele>1623.36</ele><time>2026-03-11T16:03:14Z</time><extensions><gpxtpx:TrackPointExtension><gpxtpx:atemp>2.9</gpxtpx:atemp></gpxtpx:TrackPointExtension></extensions></trkpt><trkpt lat="42.2126631439" lon="13.4169745166"><ele>1623.33</ele><time>2026-03-11T16:03:15Z</time><extensions><gpxtpx:TrackPointExtension><gpxtpx:atemp>2.9</gpxtpx:atemp></gpxtpx:TrackPointExtension></extensions></trkpt><trkpt lat="42.2126696818" lon="13.4169751871"><ele>1623.30</ele><time>2026-03-11T16:03:16Z</time><extensions><gpxtpx:TrackPointExtension><gpxtpx:atemp>2.9</gpxtpx:atemp></gpxtpx:TrackPointExtension></extensions></trkpt><trkpt lat="42.2126780637" lon="13.4169731755"><ele>1623.27</ele><time>2026-03-11T16:03:17Z</time><extensions><gpxtpx:TrackPointExtension><gpxtpx:atemp>2.9</gpxtpx:atemp></gpxtpx:TrackPointExtension></extensions></trkpt><trkpt lat="42.2126857750" lon="13.4169705771"><ele>1623.27</ele><time>2026-03-11T16:03:18Z</time><extensions><gpxtpx:TrackPointExtension><gpxtpx:atemp>2.9</gpxtpx:atemp></gpxtpx:TrackPointExtension></extensions></trkpt><trkpt lat="42.2126932349" lon="13.4169708285"><ele>1623.26</ele><time>2026-03-11T16:03:19Z</time><extensions><gpxtpx:TrackPointExtension><gpxtpx:atemp>2.9</gpxtpx:atemp></gpxtpx:TrackPointExtension></extensions></trkpt><trkpt lat="42.2127012815" lon="13.4169719182"><ele>1623.22</ele><time>2026-03-11T16:03:20Z</time><extensions><gpxtpx:TrackPointExtension><gpxtpx:atemp>2.9</gpxtpx:atemp></gpxtpx:TrackPointExtension></extensions></trkpt><trkpt lat="42.2127086576" lon="13.4169705771"><ele>1623.23</ele><time>2026-03-11T16:03:21Z</time><extensions><gpxtpx:TrackPointExtension><gpxtpx:atemp>2.9</gpxtpx:atemp></gpxtpx:TrackPointExtension></extensions></trkpt><trkpt lat="42.2127169557" lon="13.4169692360"><ele>1623.20</ele><time>2026-03-11T16:03:22Z</time><extensions><gpxtpx:TrackPointExtension><gpxtpx:atemp>2.9</gpxtpx:atemp></gpxtpx:TrackPointExtension></extensions></trkpt><trkpt lat="42.2127240803" lon="13.4169692360"><ele>1623.13</ele><time>2026-03-11T16:03:23Z</time><extensions><gpxtpx:TrackPointExtension><gpxtpx:atemp>2.9</gpxtpx:atemp></gpxtpx:TrackPointExtension></extensions></trkpt><trkpt lat="42.2127331328" lon="13.4169660509"><ele>1623.08</ele><time>2026-03-11T16:03:24Z</time><extensions><gpxtpx:TrackPointExtension><gpxtpx:atemp>2.9</gpxtpx:atemp></gpxtpx:TrackPointExtension></extensions></trkpt><trkpt lat="42.2127404250" lon="13.4169659670"><ele>1623.02</ele><time>2026-03-11T16:03:25Z</time><extensions><gpxtpx:TrackPointExtension><gpxtpx:atemp>2.9</gpxtpx:atemp></gpxtpx:TrackPointExtension></extensions></trkpt><trkpt lat="42.2127471305" lon="13.4169650450"><ele>1623.02</ele><time>2026-03-11T16:03:26Z</time><extensions><gpxtpx:TrackPointExtension><gpxtpx:atemp>2.9</gpxtpx:atemp></gpxtpx:TrackPointExtension></extensions></trkpt><trkpt lat="42.2127543390" lon="13.4169650450"><ele>1622.98</ele><time>2026-03-11T16:03:27Z</time><extensions><gpxtpx:TrackPointExtension><gpxtpx:atemp>2.9</gpxtpx:atemp></gpxtpx:TrackPointExtension></extensions></trkpt><trkpt lat="42.2127618827" lon="13.4169662185"><ele>1622.98</ele><time>2026-03-11T16:03:28Z</time><extensions><gpxtpx:TrackPointExtension><gpxtpx:atemp>2.9</gpxtpx:atemp></gpxtpx:TrackPointExtension></extensions></trkpt><trkpt lat="42.2127692588" lon="13.4169638716"><ele>1622.96</ele><time>2026-03-11T16:03:29Z</time><extensions><gpxtpx:TrackPointExtension><gpxtpx:atemp>2.9</gpxtpx:atemp></gpxtpx:TrackPointExtension></extensions></trkpt><trkpt lat="42.2127766348" lon="13.4169636201"><ele>1622.95</ele><time>2026-03-11T16:03:30Z</time><extensions><gpxtpx:TrackPointExtension><gpxtpx:atemp>2.9</gpxtpx:atemp></gpxtpx:TrackPointExtension></extensions></trkpt><trkpt lat="42.2127865255" lon="13.4169611894"><ele>1622.92</ele><time>2026-03-11T16:03:31Z</time><extensions><gpxtpx:TrackPointExtension><gpxtpx:atemp>2.9</gpxtpx:atemp></gpxtpx:TrackPointExtension></extensions></trkpt><trkpt lat="42.2127948236" lon="13.4169601835"><ele>1622.89</ele><time>2026-03-11T16:03:32Z</time><extensions><gpxtpx:TrackPointExtension><gpxtpx:atemp>2.9</gpxtpx:atemp></gpxtpx:TrackPointExtension></extensions></trkpt><trkpt lat="42.2128038760" lon="13.4169591777"><ele>1622.87</ele><time>2026-03-11T16:03:33Z</time><extensions><gpxtpx:TrackPointExtension><gpxtpx:atemp>2.9</gpxtpx:atemp></gpxtpx:TrackPointExtension></extensions></trkpt><trkpt lat="42.2128108330" lon="13.4169567470"><ele>1622.85</ele><time>2026-03-11T16:03:34Z</time><extensions><gpxtpx:TrackPointExtension><gpxtpx:atemp>2.7</gpxtpx:atemp></gpxtpx:TrackPointExtension></extensions></trkpt><trkpt lat="42.2128178738" lon="13.4169565793"><ele>1622.84</ele><time>2026-03-11T16:03:35Z</time><extensions><gpxtpx:TrackPointExtension><gpxtpx:atemp>2.7</gpxtpx:atemp></gpxtpx:TrackPointExtension></extensions></trkpt><trkpt lat="42.2128261719" lon="13.4169538971"><ele>1622.83</ele><time>2026-03-11T16:03:36Z</time><extensions><gpxtpx:TrackPointExtension><gpxtpx:atemp>2.7</gpxtpx:atemp></gpxtpx:TrackPointExtension></extensions></trkpt><trkpt lat="42.2128346376" lon="13.4169516340"><ele>1622.83</ele><time>2026-03-11T16:03:37Z</time><extensions><gpxtpx:TrackPointExtension><gpxtpx:atemp>2.7</gpxtpx:atemp></gpxtpx:TrackPointExtension></extensions></trkpt><trkpt lat="42.2128456179" lon="13.4169510473"><ele>1622.82</ele><time>2026-03-11T16:03:38Z</time><extensions><gpxtpx:TrackPointExtension><gpxtpx:atemp>2.7</gpxtpx:atemp></gpxtpx:TrackPointExtension></extensions></trkpt><trkpt lat="42.2128556762" lon="13.4169481974"><ele>1622.76</ele><time>2026-03-11T16:03:39Z</time><extensions><gpxtpx:TrackPointExtension><gpxtpx:atemp>2.7</gpxtpx:atemp></gpxtpx:TrackPointExtension></extensions></trkpt><trkpt lat="42.2128648963" lon="13.4169464372"><ele>1622.73</ele><time>2026-03-11T16:03:40Z</time><extensions><gpxtpx:TrackPointExtension><gpxtpx:atemp>2.7</gpxtpx:atemp></gpxtpx:TrackPointExtension></extensions></trkpt><trkpt lat="42.2128747869" lon="13.4169432521"><ele>1622.72</ele><time>2026-03-11T16:03:41Z</time><extensions><gpxtpx:TrackPointExtension><gpxtpx:atemp>2.7</gpxtpx:atemp></gpxtpx:TrackPointExtension></extensions></trkpt><trkpt lat="42.2128848452" lon="13.4169425815"><ele>1622.71</ele><time>2026-03-11T16:03:42Z</time><extensions><gpxtpx:TrackPointExtension><gpxtpx:atemp>2.7</gpxtpx:atemp></gpxtpx:TrackPointExtension></extensions></trkpt><trkpt lat="42.2128953226" lon="13.4169413242"><ele>1622.69</ele><time>2026-03-11T16:03:43Z</time><extensions><gpxtpx:TrackPointExtension><gpxtpx:atemp>2.7</gpxtpx:atemp></gpxtpx:TrackPointExtension></extensions></trkpt><trkpt lat="42.2129041236" lon="13.4169392288"><ele>1622.65</ele><time>2026-03-11T16:03:44Z</time><extensions><gpxtpx:TrackPointExtension><gpxtpx:atemp>2.7</gpxtpx:atemp></gpxtpx:TrackPointExtension></extensions></trkpt><trkpt lat="42.2129132599" lon="13.4169425815"><ele>1622.59</ele><time>2026-03-11T16:03:45Z</time><extensions><gpxtpx:TrackPointExtension><gpxtpx:atemp>2.7</gpxtpx:atemp></gpxtpx:TrackPointExtension></extensions></trkpt><trkpt lat="42.2129220609" lon="13.4169399831"><ele>1622.55</ele><time>2026-03-11T16:03:46Z</time><extensions><gpxtpx:TrackPointExtension><gpxtpx:atemp>2.7</gpxtpx:atemp></gpxtpx:TrackPointExtension></extensions></trkpt><trkpt lat="42.2129313648" lon="13.4169362951"><ele>1622.51</ele><time>2026-03-11T16:03:47Z</time><extensions><gpxtpx:TrackPointExtension><gpxtpx:atemp>2.7</gpxtpx:atemp></gpxtpx:TrackPointExtension></extensions></trkpt><trkpt lat="42.2129389923" lon="13.4169359598"><ele>1622.49</ele><time>2026-03-11T16:03:48Z</time><extensions><gpxtpx:TrackPointExtension><gpxtpx:atemp>2.7</gpxtpx:atemp></gpxtpx:TrackPointExtension></extensions></trkpt><trkpt lat="42.2129482962" lon="13.4169334453"><ele>1622.46</ele><time>2026-03-11T16:03:49Z</time><extensions><gpxtpx:TrackPointExtension><gpxtpx:atemp>2.7</gpxtpx:atemp></gpxtpx:TrackPointExtension></extensions></trkpt><trkpt lat="42.2129558399" lon="13.4169330262"><ele>1622.37</ele><time>2026-03-11T16:03:50Z</time><extensions><gpxtpx:TrackPointExtension><gpxtpx:atemp>2.7</gpxtpx:atemp></gpxtpx:TrackPointExtension></extensions></trkpt><trkpt lat="42.2129625455" lon="13.4169301763"><ele>1622.33</ele><time>2026-03-11T16:03:51Z</time><extensions><gpxtpx:TrackPointExtension><gpxtpx:atemp>2.7</gpxtpx:atemp></gpxtpx:TrackPointExtension></extensions></trkpt><trkpt lat="42.2129723523" lon="13.4169277456"><ele>1622.29</ele><time>2026-03-11T16:03:52Z</time><extensions><gpxtpx:TrackPointExtension><gpxtpx:atemp>2.7</gpxtpx:atemp></gpxtpx:TrackPointExtension></extensions></trkpt><trkpt lat="42.2129811533" lon="13.4169252310"><ele>1622.23</ele><time>2026-03-11T16:03:53Z</time><extensions><gpxtpx:TrackPointExtension><gpxtpx:atemp>2.7</gpxtpx:atemp></gpxtpx:TrackPointExtension></extensions></trkpt><trkpt lat="42.2129911277" lon="13.4169212915"><ele>1622.20</ele><time>2026-03-11T16:03:54Z</time><extensions><gpxtpx:TrackPointExtension><gpxtpx:atemp>2.7</gpxtpx:atemp></gpxtpx:TrackPointExtension></extensions></trkpt><trkpt lat="42.2129996773" lon="13.4169215430"><ele>1622.19</ele><time>2026-03-11T16:03:55Z</time><extensions><gpxtpx:TrackPointExtension><gpxtpx:atemp>2.7</gpxtpx:atemp></gpxtpx:TrackPointExtension></extensions></trkpt><trkpt lat="42.2130105738" lon="13.4169175196"><ele>1622.16</ele><time>2026-03-11T16:03:56Z</time><extensions><gpxtpx:TrackPointExtension><gpxtpx:atemp>2.7</gpxtpx:atemp></gpxtpx:TrackPointExtension></extensions></trkpt><trkpt lat="42.2130211350" lon="13.4169140831"><ele>1622.15</ele><time>2026-03-11T16:03:57Z</time><extensions><gpxtpx:TrackPointExtension><gpxtpx:atemp>2.7</gpxtpx:atemp></gpxtpx:TrackPointExtension></extensions></trkpt><trkpt lat="42.2130318638" lon="13.4169130772"><ele>1622.14</ele><time>2026-03-11T16:03:58Z</time><extensions><gpxtpx:TrackPointExtension><gpxtpx:atemp>2.7</gpxtpx:atemp></gpxtpx:TrackPointExtension></extensions></trkpt><trkpt lat="42.2130410839" lon="13.4169099759"><ele>1622.13</ele><time>2026-03-11T16:03:59Z</time><extensions><gpxtpx:TrackPointExtension><gpxtpx:atemp>2.7</gpxtpx:atemp></gpxtpx:TrackPointExtension></extensions></trkpt><trkpt lat="42.2130503878" lon="13.4169083834"><ele>1622.12</ele><time>2026-03-11T16:04:00Z</time><extensions><gpxtpx:TrackPointExtension><gpxtpx:atemp>2.7</gpxtpx:atemp></gpxtpx:TrackPointExtension></extensions></trkpt><trkpt lat="42.2130601946" lon="13.4169056173"><ele>1622.12</ele><time>2026-03-11T16:04:01Z</time><extensions><gpxtpx:TrackPointExtension><gpxtpx:atemp>2.7</gpxtpx:atemp></gpxtpx:TrackPointExtension></extensions></trkpt><trkpt lat="42.2130693309" lon="13.4169015940"><ele>1622.08</ele><time>2026-03-11T16:04:02Z</time><extensions><gpxtpx:TrackPointExtension><gpxtpx:atemp>2.7</gpxtpx:atemp></gpxtpx:TrackPointExtension></extensions></trkpt><trkpt lat="42.2130779643" lon="13.4168976545"><ele>1622.03</ele><time>2026-03-11T16:04:03Z</time><extensions><gpxtpx:TrackPointExtension><gpxtpx:atemp>2.7</gpxtpx:atemp></gpxtpx:TrackPointExtension></extensions></trkpt><trkpt lat="42.2130877711" lon="13.4168922901"><ele>1621.99</ele><time>2026-03-11T16:04:04Z</time><extensions><gpxtpx:TrackPointExtension><gpxtpx:atemp>2.7</gpxtpx:atemp></gpxtpx:TrackPointExtension></extensions></trkpt><trkpt lat="42.2130943928" lon="13.4168884344"><ele>1621.96</ele><time>2026-03-11T16:04:05Z</time><extensions><gpxtpx:TrackPointExtension><gpxtpx:atemp>2.7</gpxtpx:atemp></gpxtpx:TrackPointExtension></extensions></trkpt><trkpt lat="42.2131015174" lon="13.4168863390"><ele>1621.95</ele><time>2026-03-11T16:04:06Z</time><extensions><gpxtpx:TrackPointExtension><gpxtpx:atemp>2.7</gpxtpx:atemp></gpxtpx:TrackPointExtension></extensions></trkpt><trkpt lat="42.2131123301" lon="13.4168852493"><ele>1621.92</ele><time>2026-03-11T16:04:07Z</time><extensions><gpxtpx:TrackPointExtension><gpxtpx:atemp>2.7</gpxtpx:atemp></gpxtpx:TrackPointExtension></extensions></trkpt><trkpt lat="42.2131206281" lon="13.4168849979"><ele>1621.91</ele><time>2026-03-11T16:04:08Z</time><extensions><gpxtpx:TrackPointExtension><gpxtpx:atemp>2.7</gpxtpx:atemp></gpxtpx:TrackPointExtension></extensions></trkpt><trkpt lat="42.2131301835" lon="13.4168823995"><ele>1621.91</ele><time>2026-03-11T16:04:09Z</time><extensions><gpxtpx:TrackPointExtension><gpxtpx:atemp>2.7</gpxtpx:atemp></gpxtpx:TrackPointExtension></extensions></trkpt><trkpt lat="42.2131384816" lon="13.4168788791"><ele>1621.91</ele><time>2026-03-11T16:04:10Z</time><extensions><gpxtpx:TrackPointExtension><gpxtpx:atemp>2.7</gpxtpx:atemp></gpxtpx:TrackPointExtension></extensions></trkpt><trkpt lat="42.2131481208" lon="13.4168757778"><ele>1621.91</ele><time>2026-03-11T16:04:11Z</time><extensions><gpxtpx:TrackPointExtension><gpxtpx:atemp>2.7</gpxtpx:atemp></gpxtpx:TrackPointExtension></extensions></trkpt><trkpt lat="42.2131570894" lon="13.4168739337"><ele>1621.89</ele><time>2026-03-11T16:04:12Z</time><extensions><gpxtpx:TrackPointExtension><gpxtpx:atemp>2.7</gpxtpx:atemp></gpxtpx:TrackPointExtension></extensions></trkpt><trkpt lat="42.2131655551" lon="13.4168727603"><ele>1621.87</ele><time>2026-03-11T16:04:13Z</time><extensions><gpxtpx:TrackPointExtension><gpxtpx:atemp>2.7</gpxtpx:atemp></gpxtpx:TrackPointExtension></extensions></trkpt><trkpt lat="42.2131732665" lon="13.4168707486"><ele>1621.84</ele><time>2026-03-11T16:04:14Z</time><extensions><gpxtpx:TrackPointExtension><gpxtpx:atemp>2.7</gpxtpx:atemp></gpxtpx:TrackPointExtension></extensions></trkpt><trkpt lat="42.2131824866" lon="13.4168709163"><ele>1621.79</ele><time>2026-03-11T16:04:15Z</time><extensions><gpxtpx:TrackPointExtension><gpxtpx:atemp>2.7</gpxtpx:atemp></gpxtpx:TrackPointExtension></extensions></trkpt><trkpt lat="42.2131904494" lon="13.4168700781"><ele>1621.74</ele><time>2026-03-11T16:04:16Z</time><extensions><gpxtpx:TrackPointExtension><gpxtpx:atemp>2.7</gpxtpx:atemp></gpxtpx:TrackPointExtension></extensions></trkpt><trkpt lat="42.2132005915" lon="13.4168679826"><ele>1621.72</ele><time>2026-03-11T16:04:17Z</time><extensions><gpxtpx:TrackPointExtension><gpxtpx:atemp>2.7</gpxtpx:atemp></gpxtpx:TrackPointExtension></extensions></trkpt><trkpt lat="42.2132075485" lon="13.4168667253"><ele>1621.69</ele><time>2026-03-11T16:04:18Z</time><extensions><gpxtpx:TrackPointExtension><gpxtpx:atemp>2.7</gpxtpx:atemp></gpxtpx:TrackPointExtension></extensions></trkpt><trkpt lat="42.2132147569" lon="13.4168633725"><ele>1621.68</ele><time>2026-03-11T16:04:19Z</time><extensions><gpxtpx:TrackPointExtension><gpxtpx:atemp>2.7</gpxtpx:atemp></gpxtpx:TrackPointExtension></extensions></trkpt><trkpt lat="42.2132226359" lon="13.4168631211"><ele>1621.67</ele><time>2026-03-11T16:04:20Z</time><extensions><gpxtpx:TrackPointExtension><gpxtpx:atemp>2.7</gpxtpx:atemp></gpxtpx:TrackPointExtension></extensions></trkpt><trkpt lat="42.2132317722" lon="13.4168593492"><ele>1621.67</ele><time>2026-03-11T16:04:21Z</time><extensions><gpxtpx:TrackPointExtension><gpxtpx:atemp>2.7</gpxtpx:atemp></gpxtpx:TrackPointExtension></extensions></trkpt><trkpt lat="42.2132406570" lon="13.4168567508"><ele>1621.66</ele><time>2026-03-11T16:04:22Z</time><extensions><gpxtpx:TrackPointExtension><gpxtpx:atemp>2.7</gpxtpx:atemp></gpxtpx:TrackPointExtension></extensions></trkpt><trkpt lat="42.2132487874" lon="13.4168555774"><ele>1621.66</ele><time>2026-03-11T16:04:23Z</time><extensions><gpxtpx:TrackPointExtension><gpxtpx:atemp>2.7</gpxtpx:atemp></gpxtpx:TrackPointExtension></extensions></trkpt><trkpt lat="42.2132561635" lon="13.4168539848"><ele>1621.66</ele><time>2026-03-11T16:04:24Z</time><extensions><gpxtpx:TrackPointExtension><gpxtpx:atemp>2.7</gpxtpx:atemp></gpxtpx:TrackPointExtension></extensions></trkpt><trkpt lat="42.2132638749" lon="13.4168525599"><ele>1621.66</ele><time>2026-03-11T16:04:25Z</time><extensions><gpxtpx:TrackPointExtension><gpxtpx:atemp>2.7</gpxtpx:atemp></gpxtpx:TrackPointExtension></extensions></trkpt><trkpt lat="42.2132727597" lon="13.4168502968"><ele>1621.66</ele><time>2026-03-11T16:04:26Z</time><extensions><gpxtpx:TrackPointExtension><gpxtpx:atemp>2.7</gpxtpx:atemp></gpxtpx:TrackPointExtension></extensions></trkpt><trkpt lat="42.2132817283" lon="13.4168494586"><ele>1621.62</ele><time>2026-03-11T16:04:27Z</time><extensions><gpxtpx:TrackPointExtension><gpxtpx:atemp>2.7</gpxtpx:atemp></gpxtpx:TrackPointExtension></extensions></trkpt><trkpt lat="42.2132900264" lon="13.4168499615"><ele>1621.58</ele><time>2026-03-11T16:04:28Z</time><extensions><gpxtpx:TrackPointExtension><gpxtpx:atemp>2.7</gpxtpx:atemp></gpxtpx:TrackPointExtension></extensions></trkpt><trkpt lat="42.2132989950" lon="13.4168475308"><ele>1621.54</ele><time>2026-03-11T16:04:29Z</time><extensions><gpxtpx:TrackPointExtension><gpxtpx:atemp>2.7</gpxtpx:atemp></gpxtpx:TrackPointExtension></extensions></trkpt><trkpt lat="42.2133076284" lon="13.4168464411"><ele>1621.52</ele><time>2026-03-11T16:04:30Z</time><extensions><gpxtpx:TrackPointExtension><gpxtpx:atemp>2.7</gpxtpx:atemp></gpxtpx:TrackPointExtension></extensions></trkpt><trkpt lat="42.2133174352" lon="13.4168424178"><ele>1621.50</ele><time>2026-03-11T16:04:31Z</time><extensions><gpxtpx:TrackPointExtension><gpxtpx:atemp>2.7</gpxtpx:atemp></gpxtpx:TrackPointExtension></extensions></trkpt><trkpt lat="42.2133261524" lon="13.4168419987"><ele>1621.45</ele><time>2026-03-11T16:04:32Z</time><extensions><gpxtpx:TrackPointExtension><gpxtpx:atemp>2.7</gpxtpx:atemp></gpxtpx:TrackPointExtension></extensions></trkpt><trkpt lat="42.2133344505" lon="13.4168426692"><ele>1621.40</ele><time>2026-03-11T16:04:33Z</time><extensions><gpxtpx:TrackPointExtension><gpxtpx:atemp>2.7</gpxtpx:atemp></gpxtpx:TrackPointExtension></extensions></trkpt><trkpt lat="42.2133426648" lon="13.4168400709"><ele>1621.35</ele><time>2026-03-11T16:04:34Z</time><extensions><gpxtpx:TrackPointExtension><gpxtpx:atemp>2.8</gpxtpx:atemp></gpxtpx:TrackPointExtension></extensions></trkpt><trkpt lat="42.2133504599" lon="13.4168401547"><ele>1621.31</ele><time>2026-03-11T16:04:35Z</time><extensions><gpxtpx:TrackPointExtension><gpxtpx:atemp>2.8</gpxtpx:atemp></gpxtpx:TrackPointExtension></extensions></trkpt><trkpt lat="42.2133582551" lon="13.4168391488"><ele>1621.23</ele><time>2026-03-11T16:04:36Z</time><extensions><gpxtpx:TrackPointExtension><gpxtpx:atemp>2.8</gpxtpx:atemp></gpxtpx:TrackPointExtension></extensions></trkpt><trkpt lat="42.2133663855" lon="13.4168379754"><ele>1621.19</ele><time>2026-03-11T16:04:37Z</time><extensions><gpxtpx:TrackPointExtension><gpxtpx:atemp>2.8</gpxtpx:atemp></gpxtpx:TrackPointExtension></extensions></trkpt><trkpt lat="42.2133750189" lon="13.4168360475"><ele>1621.17</ele><time>2026-03-11T16:04:38Z</time><extensions><gpxtpx:TrackPointExtension><gpxtpx:atemp>2.8</gpxtpx:atemp></gpxtpx:TrackPointExtension></extensions></trkpt><trkpt lat="42.2133840714" lon="13.4168339521"><ele>1621.15</ele><time>2026-03-11T16:04:39Z</time><extensions><gpxtpx:TrackPointExtension><gpxtpx:atemp>2.8</gpxtpx:atemp></gpxtpx:TrackPointExtension></extensions></trkpt><trkpt lat="42.2133912798" lon="13.4168341197"><ele>1621.10</ele><time>2026-03-11T16:04:40Z</time><extensions><gpxtpx:TrackPointExtension><gpxtpx:atemp>2.8</gpxtpx:atemp></gpxtpx:TrackPointExtension></extensions></trkpt><trkpt lat="42.2133995779" lon="13.4168317728"><ele>1621.08</ele><time>2026-03-11T16:04:41Z</time><extensions><gpxtpx:TrackPointExtension><gpxtpx:atemp>2.8</gpxtpx:atemp></gpxtpx:TrackPointExtension></extensions></trkpt><trkpt lat="42.2134071216" lon="13.4168298449"><ele>1621.07</ele><time>2026-03-11T16:04:42Z</time><extensions><gpxtpx:TrackPointExtension><gpxtpx:atemp>2.8</gpxtpx:atemp></gpxtpx:TrackPointExtension></extensions></trkpt><trkpt lat="42.2134161741" lon="13.4168278333"><ele>1621.07</ele><time>2026-03-11T16:04:43Z</time><extensions><gpxtpx:TrackPointExtension><gpxtpx:atemp>2.8</gpxtpx:atemp></gpxtpx:TrackPointExtension></extensions></trkpt><trkpt lat="42.2134257294" lon="13.4168241452"><ele>1621.05</ele><time>2026-03-11T16:04:44Z</time><extensions><gpxtpx:TrackPointExtension><gpxtpx:atemp>2.8</gpxtpx:atemp></gpxtpx:TrackPointExtension></extensions></trkpt><trkpt lat="42.2134340275" lon="13.4168229718"><ele>1621.03</ele><time>2026-03-11T16:04:45Z</time><extensions><gpxtpx:TrackPointExtension><gpxtpx:atemp>2.8</gpxtpx:atemp></gpxtpx:TrackPointExtension></extensions></trkpt><trkpt lat="42.2134426609" lon="13.4168212954"><ele>1620.99</ele><time>2026-03-11T16:04:46Z</time><extensions><gpxtpx:TrackPointExtension><gpxtpx:atemp>2.8</gpxtpx:atemp></gpxtpx:TrackPointExtension></extensions></trkpt><trkpt lat="42.2134503722" lon="13.4168188646"><ele>1620.90</ele><time>2026-03-11T16:04:47Z</time><extensions><gpxtpx:TrackPointExtension><gpxtpx:atemp>2.8</gpxtpx:atemp></gpxtpx:TrackPointExtension></extensions></trkpt><trkpt lat="42.2134573292" lon="13.4168184455"><ele>1620.78</ele><time>2026-03-11T16:04:48Z</time><extensions><gpxtpx:TrackPointExtension><gpxtpx:atemp>2.8</gpxtpx:atemp></gpxtpx:TrackPointExtension></extensions></trkpt><trkpt lat="42.2134660464" lon="13.4168173559"><ele>1620.74</ele><time>2026-03-11T16:04:49Z</time><extensions><gpxtpx:TrackPointExtension><gpxtpx:atemp>2.8</gpxtpx:atemp></gpxtpx:TrackPointExtension></extensions></trkpt><trkpt lat="42.2134732548" lon="13.4168183617"><ele>1620.68</ele><time>2026-03-11T16:04:50Z</time><extensions><gpxtpx:TrackPointExtension><gpxtpx:atemp>2.8</gpxtpx:atemp></gpxtpx:TrackPointExtension></extensions></trkpt><trkpt lat="42.2134824749" lon="13.4168184455"><ele>1620.63</ele><time>2026-03-11T16:04:51Z</time><extensions><gpxtpx:TrackPointExtension><gpxtpx:atemp>2.8</gpxtpx:atemp></gpxtpx:TrackPointExtension></extensions></trkpt><trkpt lat="42.2134909406" lon="13.4168139193"><ele>1620.60</ele><time>2026-03-11T16:04:52Z</time><extensions><gpxtpx:TrackPointExtension><gpxtpx:atemp>2.8</gpxtpx:atemp></gpxtpx:TrackPointExtension></extensions></trkpt><trkpt lat="42.2134993225" lon="13.4168119915"><ele>1620.55</ele><time>2026-03-11T16:04:53Z</time><extensions><gpxtpx:TrackPointExtension><gpxtpx:atemp>2.8</gpxtpx:atemp></gpxtpx:TrackPointExtension></extensions></trkpt><trkpt lat="42.2135080397" lon="13.4168094769"><ele>1620.53</ele><time>2026-03-11T16:04:54Z</time><extensions><gpxtpx:TrackPointExtension><gpxtpx:atemp>2.8</gpxtpx:atemp></gpxtpx:TrackPointExtension></extensions></trkpt><trkpt lat="42.2135172598" lon="13.4168070462"><ele>1620.50</ele><time>2026-03-11T16:04:55Z</time><extensions><gpxtpx:TrackPointExtension><gpxtpx:atemp>2.8</gpxtpx:atemp></gpxtpx:TrackPointExtension></extensions></trkpt><trkpt lat="42.2135241330" lon="13.4168054536"><ele>1620.48</ele><time>2026-03-11T16:04:56Z</time><extensions><gpxtpx:TrackPointExtension><gpxtpx:atemp>2.8</gpxtpx:atemp></gpxtpx:TrackPointExtension></extensions></trkpt><trkpt lat="42.2135328501" lon="13.4168017656"><ele>1620.47</ele><time>2026-03-11T16:04:57Z</time><extensions><gpxtpx:TrackPointExtension><gpxtpx:atemp>2.8</gpxtpx:atemp></gpxtpx:TrackPointExtension></extensions></trkpt><trkpt lat="42.2135433275" lon="13.4167967364"><ele>1620.46</ele><time>2026-03-11T16:04:58Z</time><extensions><gpxtpx:TrackPointExtension><gpxtpx:atemp>2.8</gpxtpx:atemp></gpxtpx:TrackPointExtension></extensions></trkpt><trkpt lat="42.2135518771" lon="13.4167929646"><ele>1620.45</ele><time>2026-03-11T16:04:59Z</time><extensions><gpxtpx:TrackPointExtension><gpxtpx:atemp>2.8</gpxtpx:atemp></gpxtpx:TrackPointExtension></extensions></trkpt><trkpt lat="42.2135597561" lon="13.4167922940"><ele>1620.45</ele><time>2026-03-11T16:05:00Z</time><extensions><gpxtpx:TrackPointExtension><gpxtpx:atemp>2.8</gpxtpx:atemp></gpxtpx:TrackPointExtension></extensions></trkpt><trkpt lat="42.2135675512" lon="13.4167895280"><ele>1620.43</ele><time>2026-03-11T16:05:01Z</time><extensions><gpxtpx:TrackPointExtension><gpxtpx:atemp>2.8</gpxtpx:atemp></gpxtpx:TrackPointExtension></extensions></trkpt><trkpt lat="42.2135754302" lon="13.4167892765"><ele>1620.42</ele><time>2026-03-11T16:05:02Z</time><extensions><gpxtpx:TrackPointExtension><gpxtpx:atemp>2.8</gpxtpx:atemp></gpxtpx:TrackPointExtension></extensions></trkpt><trkpt lat="42.2135838959" lon="13.4167871810"><ele>1620.42</ele><time>2026-03-11T16:05:03Z</time><extensions><gpxtpx:TrackPointExtension><gpxtpx:atemp>2.8</gpxtpx:atemp></gpxtpx:TrackPointExtension></extensions></trkpt><trkpt lat="42.2135934513" lon="13.4167836607"><ele>1620.40</ele><time>2026-03-11T16:05:04Z</time><extensions><gpxtpx:TrackPointExtension><gpxtpx:atemp>2.8</gpxtpx:atemp></gpxtpx:TrackPointExtension></extensions></trkpt><trkpt lat="42.2136010788" lon="13.4167829901"><ele>1620.36</ele><time>2026-03-11T16:05:05Z</time><extensions><gpxtpx:TrackPointExtension><gpxtpx:atemp>2.8</gpxtpx:atemp></gpxtpx:TrackPointExtension></extensions></trkpt><trkpt lat="42.2136088740" lon="13.4167803917"><ele>1620.32</ele><time>2026-03-11T16:05:06Z</time><extensions><gpxtpx:TrackPointExtension><gpxtpx:atemp>2.8</gpxtpx:atemp></gpxtpx:TrackPointExtension></extensions></trkpt><trkpt lat="42.2136156633" lon="13.4167793859"><ele>1620.27</ele><time>2026-03-11T16:05:07Z</time><extensions><gpxtpx:TrackPointExtension><gpxtpx:atemp>2.8</gpxtpx:atemp></gpxtpx:TrackPointExtension></extensions></trkpt><trkpt lat="42.2136242967" lon="13.4167772904"><ele>1620.23</ele><time>2026-03-11T16:05:08Z</time><extensions><gpxtpx:TrackPointExtension><gpxtpx:atemp>2.8</gpxtpx:atemp></gpxtpx:TrackPointExtension></extensions></trkpt><trkpt lat="42.2136326786" lon="13.4167754464"><ele>1620.20</ele><time>2026-03-11T16:05:09Z</time><extensions><gpxtpx:TrackPointExtension><gpxtpx:atemp>2.8</gpxtpx:atemp></gpxtpx:TrackPointExtension></extensions></trkpt><trkpt lat="42.2136398870" lon="13.4167770389"><ele>1620.18</ele><time>2026-03-11T16:05:10Z</time><extensions><gpxtpx:TrackPointExtension><gpxtpx:atemp>2.8</gpxtpx:atemp></gpxtpx:TrackPointExtension></extensions></trkpt><trkpt lat="42.2136493586" lon="13.4167747758"><ele>1620.16</ele><time>2026-03-11T16:05:11Z</time><extensions><gpxtpx:TrackPointExtension><gpxtpx:atemp>2.8</gpxtpx:atemp></gpxtpx:TrackPointExtension></extensions></trkpt><trkpt lat="42.2136583272" lon="13.4167742729"><ele>1620.15</ele><time>2026-03-11T16:05:12Z</time><extensions><gpxtpx:TrackPointExtension><gpxtpx:atemp>2.8</gpxtpx:atemp></gpxtpx:TrackPointExtension></extensions></trkpt><trkpt lat="42.2136680502" lon="13.4167730995"><ele>1620.15</ele><time>2026-03-11T16:05:13Z</time><extensions><gpxtpx:TrackPointExtension><gpxtpx:atemp>2.8</gpxtpx:atemp></gpxtpx:TrackPointExtension></extensions></trkpt><trkpt lat="42.2136751749" lon="13.4167711716"><ele>1620.15</ele><time>2026-03-11T16:05:14Z</time><extensions><gpxtpx:TrackPointExtension><gpxtpx:atemp>2.8</gpxtpx:atemp></gpxtpx:TrackPointExtension></extensions></trkpt><trkpt lat="42.2136835568" lon="13.4167742729"><ele>1620.14</ele><time>2026-03-11T16:05:15Z</time><extensions><gpxtpx:TrackPointExtension><gpxtpx:atemp>2.8</gpxtpx:atemp></gpxtpx:TrackPointExtension></extensions></trkpt><trkpt lat="42.2136924416" lon="13.4167740215"><ele>1620.13</ele><time>2026-03-11T16:05:16Z</time><extensions><gpxtpx:TrackPointExtension><gpxtpx:atemp>2.8</gpxtpx:atemp></gpxtpx:TrackPointExtension></extensions></trkpt><trkpt lat="42.2137014940" lon="13.4167740215"><ele>1620.12</ele><time>2026-03-11T16:05:17Z</time><extensions><gpxtpx:TrackPointExtension><gpxtpx:atemp>2.8</gpxtpx:atemp></gpxtpx:TrackPointExtension></extensions></trkpt><trkpt lat="42.2137093730" lon="13.4167747758"><ele>1620.10</ele><time>2026-03-11T16:05:18Z</time><extensions><gpxtpx:TrackPointExtension><gpxtpx:atemp>2.8</gpxtpx:atemp></gpxtpx:TrackPointExtension></extensions></trkpt><trkpt lat="42.2137172520" lon="13.4167733509"><ele>1620.08</ele><time>2026-03-11T16:05:19Z</time><extensions><gpxtpx:TrackPointExtension><gpxtpx:atemp>2.8</gpxtpx:atemp></gpxtpx:TrackPointExtension></extensions></trkpt><trkpt lat="42.2137261368" lon="13.4167716745"><ele>1620.06</ele><time>2026-03-11T16:05:20Z</time><extensions><gpxtpx:TrackPointExtension><gpxtpx:atemp>2.8</gpxtpx:atemp></gpxtpx:TrackPointExtension></extensions></trkpt><trkpt lat="42.2137350217" lon="13.4167719260"><ele>1620.02</ele><time>2026-03-11T16:05:21Z</time><extensions><gpxtpx:TrackPointExtension><gpxtpx:atemp>2.8</gpxtpx:atemp></gpxtpx:TrackPointExtension></extensions></trkpt><trkpt lat="42.2137435712" lon="13.4167675674"><ele>1619.95</ele><time>2026-03-11T16:05:22Z</time><extensions><gpxtpx:TrackPointExtension><gpxtpx:atemp>2.8</gpxtpx:atemp></gpxtpx:TrackPointExtension></extensions></trkpt><trkpt lat="42.2137507796" lon="13.4167672321"><ele>1619.92</ele><time>2026-03-11T16:05:23Z</time><extensions><gpxtpx:TrackPointExtension><gpxtpx:atemp>2.8</gpxtpx:atemp></gpxtpx:TrackPointExtension></extensions></trkpt><trkpt lat="42.2137609217" lon="13.4167636279"><ele>1619.89</ele><time>2026-03-11T16:05:24Z</time><extensions><gpxtpx:TrackPointExtension><gpxtpx:atemp>2.8</gpxtpx:atemp></gpxtpx:TrackPointExtension></extensions></trkpt><trkpt lat="42.2137692198" lon="13.4167616162"><ele>1619.87</ele><time>2026-03-11T16:05:25Z</time><extensions><gpxtpx:TrackPointExtension><gpxtpx:atemp>2.8</gpxtpx:atemp></gpxtpx:TrackPointExtension></extensions></trkpt><trkpt lat="42.2137788590" lon="13.4167579282"><ele>1619.86</ele><time>2026-03-11T16:05:26Z</time><extensions><gpxtpx:TrackPointExtension><gpxtpx:atemp>2.8</gpxtpx:atemp></gpxtpx:TrackPointExtension></extensions></trkpt><trkpt lat="42.2137862351" lon="13.4167577606"><ele>1619.85</ele><time>2026-03-11T16:05:27Z</time><extensions><gpxtpx:TrackPointExtension><gpxtpx:atemp>2.8</gpxtpx:atemp></gpxtpx:TrackPointExtension></extensions></trkpt><trkpt lat="42.2137934435" lon="13.4167570900"><ele>1619.85</ele><time>2026-03-11T16:05:28Z</time><extensions><gpxtpx:TrackPointExtension><gpxtpx:atemp>2.8</gpxtpx:atemp></gpxtpx:TrackPointExtension></extensions></trkpt><trkpt lat="42.2138026636" lon="13.4167546593"><ele>1619.85</ele><time>2026-03-11T16:05:29Z</time><extensions><gpxtpx:TrackPointExtension><gpxtpx:atemp>2.8</gpxtpx:atemp></gpxtpx:TrackPointExtension></extensions></trkpt><trkpt lat="42.2138101235" lon="13.4167536534"><ele>1619.85</ele><time>2026-03-11T16:05:30Z</time><extensions><gpxtpx:TrackPointExtension><gpxtpx:atemp>2.8</gpxtpx:atemp></gpxtpx:TrackPointExtension></extensions></trkpt><trkpt lat="42.2138186730" lon="13.4167516418"><ele>1619.85</ele><time>2026-03-11T16:05:31Z</time><extensions><gpxtpx:TrackPointExtension><gpxtpx:atemp>2.8</gpxtpx:atemp></gpxtpx:TrackPointExtension></extensions></trkpt><trkpt lat="42.2138260491" lon="13.4167499654"><ele>1619.84</ele><time>2026-03-11T16:05:32Z</time><extensions><gpxtpx:TrackPointExtension><gpxtpx:atemp>2.8</gpxtpx:atemp></gpxtpx:TrackPointExtension></extensions></trkpt><trkpt lat="42.2138347663" lon="13.4167464450"><ele>1619.81</ele><time>2026-03-11T16:05:33Z</time><extensions><gpxtpx:TrackPointExtension><gpxtpx:atemp>2.8</gpxtpx:atemp></gpxtpx:TrackPointExtension></extensions></trkpt><trkpt lat="42.2138428967" lon="13.4167451877"><ele>1619.72</ele><time>2026-03-11T16:05:34Z</time><extensions><gpxtpx:TrackPointExtension><gpxtpx:atemp>3.0</gpxtpx:atemp></gpxtpx:TrackPointExtension></extensions></trkpt><trkpt lat="42.2138496861" lon="13.4167433437"><ele>1619.70</ele><time>2026-03-11T16:05:35Z</time><extensions><gpxtpx:TrackPointExtension><gpxtpx:atemp>3.0</gpxtpx:atemp></gpxtpx:TrackPointExtension></extensions></trkpt><trkpt lat="42.2138589900" lon="13.4167423379"><ele>1619.70</ele><time>2026-03-11T16:05:36Z</time><extensions><gpxtpx:TrackPointExtension><gpxtpx:atemp>3.0</gpxtpx:atemp></gpxtpx:TrackPointExtension></extensions></trkpt><trkpt lat="42.2138680425" lon="13.4167391527"><ele>1619.70</ele><time>2026-03-11T16:05:37Z</time><extensions><gpxtpx:TrackPointExtension><gpxtpx:atemp>3.0</gpxtpx:atemp></gpxtpx:TrackPointExtension></extensions></trkpt><trkpt lat="42.2138770949" lon="13.4167347942"><ele>1619.69</ele><time>2026-03-11T16:05:38Z</time><extensions><gpxtpx:TrackPointExtension><gpxtpx:atemp>3.0</gpxtpx:atemp></gpxtpx:TrackPointExtension></extensions></trkpt><trkpt lat="42.2138841357" lon="13.4167334531"><ele>1619.67</ele><time>2026-03-11T16:05:39Z</time><extensions><gpxtpx:TrackPointExtension><gpxtpx:atemp>3.0</gpxtpx:atemp></gpxtpx:TrackPointExtension></extensions></trkpt><trkpt lat="42.2138923500" lon="13.4167317767"><ele>1619.66</ele><time>2026-03-11T16:05:40Z</time><extensions><gpxtpx:TrackPointExtension><gpxtpx:atemp>3.0</gpxtpx:atemp></gpxtpx:TrackPointExtension></extensions></trkpt><trkpt lat="42.2139011510" lon="13.4167297650"><ele>1619.61</ele><time>2026-03-11T16:05:41Z</time><extensions><gpxtpx:TrackPointExtension><gpxtpx:atemp>3.0</gpxtpx:atemp></gpxtpx:TrackPointExtension></extensions></trkpt><trkpt lat="42.2139081918" lon="13.4167257417"><ele>1619.52</ele><time>2026-03-11T16:05:42Z</time><extensions><gpxtpx:TrackPointExtension><gpxtpx:atemp>3.0</gpxtpx:atemp></gpxtpx:TrackPointExtension></extensions></trkpt><trkpt lat="42.2139180824" lon="13.4167244844"><ele>1619.44</ele><time>2026-03-11T16:05:43Z</time><extensions><gpxtpx:TrackPointExtension><gpxtpx:atemp>3.0</gpxtpx:atemp></gpxtpx:TrackPointExtension></extensions></trkpt><trkpt lat="42.2139273863" lon="13.4167234786"><ele>1619.39</ele><time>2026-03-11T16:05:44Z</time><extensions><gpxtpx:TrackPointExtension><gpxtpx:atemp>3.0</gpxtpx:atemp></gpxtpx:TrackPointExtension></extensions></trkpt><trkpt lat="42.2139359359" lon="13.4167244844"><ele>1619.35</ele><time>2026-03-11T16:05:45Z</time><extensions><gpxtpx:TrackPointExtension><gpxtpx:atemp>3.0</gpxtpx:atemp></gpxtpx:TrackPointExtension></extensions></trkpt><trkpt lat="42.2139462456" lon="13.4167216346"><ele>1619.32</ele><time>2026-03-11T16:05:46Z</time><extensions><gpxtpx:TrackPointExtension><gpxtpx:atemp>3.0</gpxtpx:atemp></gpxtpx:TrackPointExtension></extensions></trkpt><trkpt lat="42.2139558848" lon="13.4167189524"><ele>1619.28</ele><time>2026-03-11T16:05:47Z</time><extensions><gpxtpx:TrackPointExtension><gpxtpx:atemp>3.0</gpxtpx:atemp></gpxtpx:TrackPointExtension></extensions></trkpt><trkpt lat="42.2139647696" lon="13.4167171922"><ele>1619.23</ele><time>2026-03-11T16:05:48Z</time><extensions><gpxtpx:TrackPointExtension><gpxtpx:atemp>3.0</gpxtpx:atemp></gpxtpx:TrackPointExtension></extensions></trkpt><trkpt lat="42.2139733192" lon="13.4167146776"><ele>1619.19</ele><time>2026-03-11T16:05:49Z</time><extensions><gpxtpx:TrackPointExtension><gpxtpx:atemp>3.0</gpxtpx:atemp></gpxtpx:TrackPointExtension></extensions></trkpt><trkpt lat="42.2139804438" lon="13.4167130850"><ele>1619.14</ele><time>2026-03-11T16:05:50Z</time><extensions><gpxtpx:TrackPointExtension><gpxtpx:atemp>3.0</gpxtpx:atemp></gpxtpx:TrackPointExtension></extensions></trkpt><trkpt lat="42.2139896639" lon="13.4167100675"><ele>1619.08</ele><time>2026-03-11T16:05:51Z</time><extensions><gpxtpx:TrackPointExtension><gpxtpx:atemp>3.0</gpxtpx:atemp></gpxtpx:TrackPointExtension></extensions></trkpt><trkpt lat="42.2139979620" lon="13.4167083912"><ele>1619.00</ele><time>2026-03-11T16:05:52Z</time><extensions><gpxtpx:TrackPointExtension><gpxtpx:atemp>3.0</gpxtpx:atemp></gpxtpx:TrackPointExtension></extensions></trkpt><trkpt lat="42.2140066791" lon="13.4167077206"><ele>1618.96</ele><time>2026-03-11T16:05:53Z</time><extensions><gpxtpx:TrackPointExtension><gpxtpx:atemp>3.0</gpxtpx:atemp></gpxtpx:TrackPointExtension></extensions></trkpt><trkpt lat="42.2140161507" lon="13.4167036973"><ele>1618.94</ele><time>2026-03-11T16:05:54Z</time><extensions><gpxtpx:TrackPointExtension><gpxtpx:atemp>3.0</gpxtpx:atemp></gpxtpx:TrackPointExtension></extensions></trkpt><trkpt lat="42.2140222695" lon="13.4167040326"><ele>1618.86</ele><time>2026-03-11T16:05:55Z</time><extensions><gpxtpx:TrackPointExtension><gpxtpx:atemp>3.0</gpxtpx:atemp></gpxtpx:TrackPointExtension></extensions></trkpt><trkpt lat="42.2140304837" lon="13.4167002607"><ele>1618.86</ele><time>2026-03-11T16:05:56Z</time><extensions><gpxtpx:TrackPointExtension><gpxtpx:atemp>3.0</gpxtpx:atemp></gpxtpx:TrackPointExtension></extensions></trkpt><trkpt lat="42.2140391171" lon="13.4166976623"><ele>1618.72</ele><time>2026-03-11T16:05:57Z</time><extensions><gpxtpx:TrackPointExtension><gpxtpx:atemp>3.0</gpxtpx:atemp></gpxtpx:TrackPointExtension></extensions></trkpt><trkpt lat="42.2140468284" lon="13.4166962374"><ele>1618.72</ele><time>2026-03-11T16:05:58Z</time><extensions><gpxtpx:TrackPointExtension><gpxtpx:atemp>3.0</gpxtpx:atemp></gpxtpx:TrackPointExtension></extensions></trkpt><trkpt lat="42.2140556294" lon="13.4166951478"><ele>1618.68</ele><time>2026-03-11T16:05:59Z</time><extensions><gpxtpx:TrackPointExtension><gpxtpx:atemp>3.0</gpxtpx:atemp></gpxtpx:TrackPointExtension></extensions></trkpt><trkpt lat="42.2140641790" lon="13.4166949801"><ele>1618.64</ele><time>2026-03-11T16:06:00Z</time><extensions><gpxtpx:TrackPointExtension><gpxtpx:atemp>3.0</gpxtpx:atemp></gpxtpx:TrackPointExtension></extensions></trkpt><trkpt lat="42.2140725609" lon="13.4166951478"><ele>1618.60</ele><time>2026-03-11T16:06:01Z</time><extensions><gpxtpx:TrackPointExtension><gpxtpx:atemp>3.0</gpxtpx:atemp></gpxtpx:TrackPointExtension></extensions></trkpt><trkpt lat="42.2140805237" lon="13.4166904539"><ele>1618.58</ele><time>2026-03-11T16:06:02Z</time><extensions><gpxtpx:TrackPointExtension><gpxtpx:atemp>3.0</gpxtpx:atemp></gpxtpx:TrackPointExtension></extensions></trkpt><trkpt lat="42.2140892409" lon="13.4166883584"><ele>1618.57</ele><time>2026-03-11T16:06:03Z</time><extensions><gpxtpx:TrackPointExtension><gpxtpx:atemp>3.0</gpxtpx:atemp></gpxtpx:TrackPointExtension></extensions></trkpt><trkpt lat="42.2140979581" lon="13.4166853409"><ele>1618.57</ele><time>2026-03-11T16:06:04Z</time><extensions><gpxtpx:TrackPointExtension><gpxtpx:atemp>3.0</gpxtpx:atemp></gpxtpx:TrackPointExtension></extensions></trkpt><trkpt lat="42.2141076811" lon="13.4166843351"><ele>1618.57</ele><time>2026-03-11T16:06:05Z</time><extensions><gpxtpx:TrackPointExtension><gpxtpx:atemp>3.0</gpxtpx:atemp></gpxtpx:TrackPointExtension></extensions></trkpt><trkpt lat="42.2141163982" lon="13.4166821558"><ele>1618.57</ele><time>2026-03-11T16:06:06Z</time><extensions><gpxtpx:TrackPointExtension><gpxtpx:atemp>3.0</gpxtpx:atemp></gpxtpx:TrackPointExtension></extensions></trkpt><trkpt lat="42.2141252831" lon="13.4166814853"><ele>1618.62</ele><time>2026-03-11T16:06:07Z</time><extensions><gpxtpx:TrackPointExtension><gpxtpx:atemp>3.0</gpxtpx:atemp></gpxtpx:TrackPointExtension></extensions></trkpt><trkpt lat="42.2141321562" lon="13.4166838322"><ele>1618.67</ele><time>2026-03-11T16:06:08Z</time><extensions><gpxtpx:TrackPointExtension><gpxtpx:atemp>3.0</gpxtpx:atemp></gpxtpx:TrackPointExtension></extensions></trkpt><trkpt lat="42.2141401190" lon="13.4166806471"><ele>1618.70</ele><time>2026-03-11T16:06:09Z</time><extensions><gpxtpx:TrackPointExtension><gpxtpx:atemp>3.0</gpxtpx:atemp></gpxtpx:TrackPointExtension></extensions></trkpt><trkpt lat="42.2141498420" lon="13.4166765399"><ele>1618.71</ele><time>2026-03-11T16:06:10Z</time><extensions><gpxtpx:TrackPointExtension><gpxtpx:atemp>3.0</gpxtpx:atemp></gpxtpx:TrackPointExtension></extensions></trkpt><trkpt lat="42.2141582239" lon="13.4166749474"><ele>1618.69</ele><time>2026-03-11T16:06:11Z</time><extensions><gpxtpx:TrackPointExtension><gpxtpx:atemp>3.0</gpxtpx:atemp></gpxtpx:TrackPointExtension></extensions></trkpt><trkpt lat="42.2141657677" lon="13.4166724328"><ele>1618.65</ele><time>2026-03-11T16:06:12Z</time><extensions><gpxtpx:TrackPointExtension><gpxtpx:atemp>3.0</gpxtpx:atemp></gpxtpx:TrackPointExtension></extensions></trkpt><trkpt lat="42.2141771670" lon="13.4166690800"><ele>1618.56</ele><time>2026-03-11T16:06:13Z</time><extensions><gpxtpx:TrackPointExtension><gpxtpx:atemp>3.0</gpxtpx:atemp></gpxtpx:TrackPointExtension></extensions></trkpt><trkpt lat="42.2141844593" lon="13.4166656435"><ele>1618.46</ele><time>2026-03-11T16:06:14Z</time><extensions><gpxtpx:TrackPointExtension><gpxtpx:atemp>3.0</gpxtpx:atemp></gpxtpx:TrackPointExtension></extensions></trkpt><trkpt lat="42.2141911648" lon="13.4166667331"><ele>1618.36</ele><time>2026-03-11T16:06:15Z</time><extensions><gpxtpx:TrackPointExtension><gpxtpx:atemp>3.0</gpxtpx:atemp></gpxtpx:TrackPointExtension></extensions></trkpt><trkpt lat="42.2142002173" lon="13.4166620392"><ele>1618.28</ele><time>2026-03-11T16:06:16Z</time><extensions><gpxtpx:TrackPointExtension><gpxtpx:atemp>3.0</gpxtpx:atemp></gpxtpx:TrackPointExtension></extensions></trkpt><trkpt lat="42.2142082639" lon="13.4166595247"><ele>1618.24</ele><time>2026-03-11T16:06:17Z</time><extensions><gpxtpx:TrackPointExtension><gpxtpx:atemp>3.0</gpxtpx:atemp></gpxtpx:TrackPointExtension></extensions></trkpt><trkpt lat="42.2142173164" lon="13.4166551661"><ele>1618.20</ele><time>2026-03-11T16:06:18Z</time><extensions><gpxtpx:TrackPointExtension><gpxtpx:atemp>3.0</gpxtpx:atemp></gpxtpx:TrackPointExtension></extensions></trkpt><trkpt lat="42.2142255306" lon="13.4166504722"><ele>1618.18</ele><time>2026-03-11T16:06:19Z</time><extensions><gpxtpx:TrackPointExtension><gpxtpx:atemp>3.0</gpxtpx:atemp></gpxtpx:TrackPointExtension></extensions></trkpt><trkpt lat="42.2142335773" lon="13.4166473709"><ele>1618.21</ele><time>2026-03-11T16:06:20Z</time><extensions><gpxtpx:TrackPointExtension><gpxtpx:atemp>3.0</gpxtpx:atemp></gpxtpx:TrackPointExtension></extensions></trkpt><trkpt lat="42.2142417915" lon="13.4166447725"><ele>1618.24</ele><time>2026-03-11T16:06:21Z</time><extensions><gpxtpx:TrackPointExtension><gpxtpx:atemp>3.0</gpxtpx:atemp></gpxtpx:TrackPointExtension></extensions></trkpt><trkpt lat="42.2142502572" lon="13.4166440181"><ele>1618.25</ele><time>2026-03-11T16:06:22Z</time><extensions><gpxtpx:TrackPointExtension><gpxtpx:atemp>3.0</gpxtpx:atemp></gpxtpx:TrackPointExtension></extensions></trkpt><trkpt lat="42.2142593935" lon="13.4166413359"><ele>1618.26</ele><time>2026-03-11T16:06:23Z</time><extensions><gpxtpx:TrackPointExtension><gpxtpx:atemp>3.0</gpxtpx:atemp></gpxtpx:TrackPointExtension></extensions></trkpt><trkpt lat="42.2142670210" lon="13.4166374803"><ele>1618.29</ele><time>2026-03-11T16:06:24Z</time><extensions><gpxtpx:TrackPointExtension><gpxtpx:atemp>3.0</gpxtpx:atemp></gpxtpx:TrackPointExtension></extensions></trkpt><trkpt lat="42.2142745648" lon="13.4166326188"><ele>1618.30</ele><time>2026-03-11T16:06:25Z</time><extensions><gpxtpx:TrackPointExtension><gpxtpx:atemp>3.0</gpxtpx:atemp></gpxtpx:TrackPointExtension></extensions></trkpt><trkpt lat="42.2142828628" lon="13.4166289307"><ele>1618.33</ele><time>2026-03-11T16:06:26Z</time><extensions><gpxtpx:TrackPointExtension><gpxtpx:atemp>3.0</gpxtpx:atemp></gpxtpx:TrackPointExtension></extensions></trkpt><trkpt lat="42.2142914962" lon="13.4166265000"><ele>1618.37</ele><time>2026-03-11T16:06:27Z</time><extensions><gpxtpx:TrackPointExtension><gpxtpx:atemp>3.0</gpxtpx:atemp></gpxtpx:TrackPointExtension></extensions></trkpt><trkpt lat="42.2143018898" lon="13.4166195430"><ele>1618.43</ele><time>2026-03-11T16:06:28Z</time><extensions><gpxtpx:TrackPointExtension><gpxtpx:atemp>3.0</gpxtpx:atemp></gpxtpx:TrackPointExtension></extensions></trkpt><trkpt lat="42.2143106908" lon="13.4166167770"><ele>1618.50</ele><time>2026-03-11T16:06:29Z</time><extensions><gpxtpx:TrackPointExtension><gpxtpx:atemp>3.0</gpxtpx:atemp></gpxtpx:TrackPointExtension></extensions></trkpt><trkpt lat="42.2143201623" lon="13.4166134242"><ele>1618.52</ele><time>2026-03-11T16:06:30Z</time><extensions><gpxtpx:TrackPointExtension><gpxtpx:atemp>3.0</gpxtpx:atemp></gpxtpx:TrackPointExtension></extensions></trkpt><trkpt lat="42.2143284604" lon="13.4166098200"><ele>1618.54</ele><time>2026-03-11T16:06:31Z</time><extensions><gpxtpx:TrackPointExtension><gpxtpx:atemp>3.0</gpxtpx:atemp></gpxtpx:TrackPointExtension></extensions></trkpt><trkpt lat="42.2143373452" lon="13.4166104905"><ele>1618.54</ele><time>2026-03-11T16:06:32Z</time><extensions><gpxtpx:TrackPointExtension><gpxtpx:atemp>3.0</gpxtpx:atemp></gpxtpx:TrackPointExtension></extensions></trkpt><trkpt lat="42.2143461462" lon="13.4166089818"><ele>1618.52</ele><time>2026-03-11T16:06:33Z</time><extensions><gpxtpx:TrackPointExtension><gpxtpx:atemp>3.0</gpxtpx:atemp></gpxtpx:TrackPointExtension></extensions></trkpt><trkpt lat="42.2143556178" lon="13.4166066349"><ele>1618.48</ele><time>2026-03-11T16:06:34Z</time><extensions><gpxtpx:TrackPointExtension><gpxtpx:atemp>3.0</gpxtpx:atemp></gpxtpx:TrackPointExtension></extensions></trkpt><trkpt lat="42.2143652570" lon="13.4166053776"><ele>1618.40</ele><time>2026-03-11T16:06:35Z</time><extensions><gpxtpx:TrackPointExtension><gpxtpx:atemp>3.0</gpxtpx:atemp></gpxtpx:TrackPointExtension></extensions></trkpt><trkpt lat="42.2143728845" lon="13.4166022763"><ele>1618.40</ele><time>2026-03-11T16:06:36Z</time><extensions><gpxtpx:TrackPointExtension><gpxtpx:atemp>3.0</gpxtpx:atemp></gpxtpx:TrackPointExtension></extensions></trkpt><trkpt lat="42.2143818531" lon="13.4166037850"><ele>1618.35</ele><time>2026-03-11T16:06:37Z</time><extensions><gpxtpx:TrackPointExtension><gpxtpx:atemp>3.0</gpxtpx:atemp></gpxtpx:TrackPointExtension></extensions></trkpt><trkpt lat="42.2143919952" lon="13.4165994264"><ele>1618.27</ele><time>2026-03-11T16:06:38Z</time><extensions><gpxtpx:TrackPointExtension><gpxtpx:atemp>2.8</gpxtpx:atemp></gpxtpx:TrackPointExtension></extensions></trkpt><trkpt lat="42.2144004609" lon="13.4165950678"><ele>1618.20</ele><time>2026-03-11T16:06:39Z</time><extensions><gpxtpx:TrackPointExtension><gpxtpx:atemp>2.8</gpxtpx:atemp></gpxtpx:TrackPointExtension></extensions></trkpt><trkpt lat="42.2144094296" lon="13.4165942296"><ele>1618.10</ele><time>2026-03-11T16:06:40Z</time><extensions><gpxtpx:TrackPointExtension><gpxtpx:atemp>2.8</gpxtpx:atemp></gpxtpx:TrackPointExtension></extensions></trkpt><trkpt lat="42.2144181468" lon="13.4165909607"><ele>1618.00</ele><time>2026-03-11T16:06:41Z</time><extensions><gpxtpx:TrackPointExtension><gpxtpx:atemp>2.8</gpxtpx:atemp></gpxtpx:TrackPointExtension></extensions></trkpt><trkpt lat="42.2144279536" lon="13.4165882785"><ele>1617.91</ele><time>2026-03-11T16:06:42Z</time><extensions><gpxtpx:TrackPointExtension><gpxtpx:atemp>2.8</gpxtpx:atemp></gpxtpx:TrackPointExtension></extensions></trkpt><trkpt lat="42.2144369222" lon="13.4165840875"><ele>1617.78</ele><time>2026-03-11T16:06:43Z</time><extensions><gpxtpx:TrackPointExtension><gpxtpx:atemp>2.8</gpxtpx:atemp></gpxtpx:TrackPointExtension></extensions></trkpt><trkpt lat="42.2144487407" lon="13.4165789746"><ele>1617.69</ele><time>2026-03-11T16:06:44Z</time><extensions><gpxtpx:TrackPointExtension><gpxtpx:atemp>2.8</gpxtpx:atemp></gpxtpx:TrackPointExtension></extensions></trkpt><trkpt lat="42.2144574579" lon="13.4165780526"><ele>1617.59</ele><time>2026-03-11T16:06:45Z</time><extensions><gpxtpx:TrackPointExtension><gpxtpx:atemp>2.8</gpxtpx:atemp></gpxtpx:TrackPointExtension></extensions></trkpt><trkpt lat="42.2144665942" lon="13.4165739454"><ele>1617.50</ele><time>2026-03-11T16:06:46Z</time><extensions><gpxtpx:TrackPointExtension><gpxtpx:atemp>2.8</gpxtpx:atemp></gpxtpx:TrackPointExtension></extensions></trkpt><trkpt lat="42.2144752275" lon="13.4165724367"><ele>1617.42</ele><time>2026-03-11T16:06:47Z</time><extensions><gpxtpx:TrackPointExtension><gpxtpx:atemp>2.8</gpxtpx:atemp></gpxtpx:TrackPointExtension></extensions></trkpt><trkpt lat="42.2144823521" lon="13.4165686648"><ele>1617.39</ele><time>2026-03-11T16:06:48Z</time><extensions><gpxtpx:TrackPointExtension><gpxtpx:atemp>2.8</gpxtpx:atemp></gpxtpx:TrackPointExtension></extensions></trkpt><trkpt lat="42.2144895606" lon="13.4165653959"><ele>1617.35</ele><time>2026-03-11T16:06:49Z</time><extensions><gpxtpx:TrackPointExtension><gpxtpx:atemp>2.8</gpxtpx:atemp></gpxtpx:TrackPointExtension></extensions></trkpt><trkpt lat="42.2144974396" lon="13.4165631328"><ele>1617.28</ele><time>2026-03-11T16:06:50Z</time><extensions><gpxtpx:TrackPointExtension><gpxtpx:atemp>2.8</gpxtpx:atemp></gpxtpx:TrackPointExtension></extensions></trkpt><trkpt lat="42.2145044804" lon="13.4165587742"><ele>1617.20</ele><time>2026-03-11T16:06:51Z</time><extensions><gpxtpx:TrackPointExtension><gpxtpx:atemp>2.8</gpxtpx:atemp></gpxtpx:TrackPointExtension></extensions></trkpt><trkpt lat="42.2145145386" lon="13.4165546671"><ele>1617.15</ele><time>2026-03-11T16:06:52Z</time><extensions><gpxtpx:TrackPointExtension><gpxtpx:atemp>2.8</gpxtpx:atemp></gpxtpx:TrackPointExtension></extensions></trkpt><trkpt lat="42.2145234235" lon="13.4165494703"><ele>1617.11</ele><time>2026-03-11T16:06:53Z</time><extensions><gpxtpx:TrackPointExtension><gpxtpx:atemp>2.8</gpxtpx:atemp></gpxtpx:TrackPointExtension></extensions></trkpt><trkpt lat="42.2145315539" lon="13.4165441897"><ele>1617.03</ele><time>2026-03-11T16:06:54Z</time><extensions><gpxtpx:TrackPointExtension><gpxtpx:atemp>2.8</gpxtpx:atemp></gpxtpx:TrackPointExtension></extensions></trkpt><trkpt lat="42.2145389300" lon="13.4165422618"><ele>1616.90</ele><time>2026-03-11T16:06:55Z</time><extensions><gpxtpx:TrackPointExtension><gpxtpx:atemp>2.8</gpxtpx:atemp></gpxtpx:TrackPointExtension></extensions></trkpt><trkpt lat="42.2145473957" lon="13.4165362269"><ele>1616.84</ele><time>2026-03-11T16:06:56Z</time><extensions><gpxtpx:TrackPointExtension><gpxtpx:atemp>2.8</gpxtpx:atemp></gpxtpx:TrackPointExtension></extensions></trkpt><trkpt lat="42.2145566996" lon="13.4165360592"><ele>1616.80</ele><time>2026-03-11T16:06:57Z</time><extensions><gpxtpx:TrackPointExtension><gpxtpx:atemp>2.8</gpxtpx:atemp></gpxtpx:TrackPointExtension></extensions></trkpt><trkpt lat="42.2145644948" lon="13.4165335447"><ele>1616.77</ele><time>2026-03-11T16:06:58Z</time><extensions><gpxtpx:TrackPointExtension><gpxtpx:atemp>2.8</gpxtpx:atemp></gpxtpx:TrackPointExtension></extensions></trkpt><trkpt lat="42.2145726252" lon="13.4165342990"><ele>1616.75</ele><time>2026-03-11T16:06:59Z</time><extensions><gpxtpx:TrackPointExtension><gpxtpx:atemp>2.8</gpxtpx:atemp></gpxtpx:TrackPointExtension></extensions></trkpt><trkpt lat="42.2145816777" lon="13.4165321197"><ele>1616.74</ele><time>2026-03-11T16:07:00Z</time><extensions><gpxtpx:TrackPointExtension><gpxtpx:atemp>2.8</gpxtpx:atemp></gpxtpx:TrackPointExtension></extensions></trkpt><trkpt lat="42.2145904787" lon="13.4165306948"><ele>1616.72</ele><time>2026-03-11T16:07:01Z</time><extensions><gpxtpx:TrackPointExtension><gpxtpx:atemp>2.8</gpxtpx:atemp></gpxtpx:TrackPointExtension></extensions></trkpt><trkpt lat="42.2145983577" lon="13.4165297728"><ele>1616.71</ele><time>2026-03-11T16:07:02Z</time><extensions><gpxtpx:TrackPointExtension><gpxtpx:atemp>2.8</gpxtpx:atemp></gpxtpx:TrackPointExtension></extensions></trkpt><trkpt lat="42.2146063205" lon="13.4165282641"><ele>1616.71</ele><time>2026-03-11T16:07:03Z</time><extensions><gpxtpx:TrackPointExtension><gpxtpx:atemp>2.8</gpxtpx:atemp></gpxtpx:TrackPointExtension></extensions></trkpt><trkpt lat="42.2146155406" lon="13.4165267553"><ele>1616.69</ele><time>2026-03-11T16:07:04Z</time><extensions><gpxtpx:TrackPointExtension><gpxtpx:atemp>2.8</gpxtpx:atemp></gpxtpx:TrackPointExtension></extensions></trkpt><trkpt lat="42.2146239225" lon="13.4165238217"><ele>1616.68</ele><time>2026-03-11T16:07:05Z</time><extensions><gpxtpx:TrackPointExtension><gpxtpx:atemp>2.8</gpxtpx:atemp></gpxtpx:TrackPointExtension></extensions></trkpt><trkpt lat="42.2146324720" lon="13.4165197983"><ele>1616.69</ele><time>2026-03-11T16:07:06Z</time><extensions><gpxtpx:TrackPointExtension><gpxtpx:atemp>2.8</gpxtpx:atemp></gpxtpx:TrackPointExtension></extensions></trkpt><trkpt lat="42.2146403510" lon="13.4165162779"><ele>1616.69</ele><time>2026-03-11T16:07:07Z</time><extensions><gpxtpx:TrackPointExtension><gpxtpx:atemp>2.8</gpxtpx:atemp></gpxtpx:TrackPointExtension></extensions></trkpt><trkpt lat="42.2146509960" lon="13.4165111650"><ele>1616.71</ele><time>2026-03-11T16:07:08Z</time><extensions><gpxtpx:TrackPointExtension><gpxtpx:atemp>2.8</gpxtpx:atemp></gpxtpx:TrackPointExtension></extensions></trkpt><trkpt lat="42.2146600485" lon="13.4165073931"><ele>1616.72</ele><time>2026-03-11T16:07:09Z</time><extensions><gpxtpx:TrackPointExtension><gpxtpx:atemp>2.8</gpxtpx:atemp></gpxtpx:TrackPointExtension></extensions></trkpt><trkpt lat="42.2146690171" lon="13.4165051300"><ele>1616.77</ele><time>2026-03-11T16:07:10Z</time><extensions><gpxtpx:TrackPointExtension><gpxtpx:atemp>2.8</gpxtpx:atemp></gpxtpx:TrackPointExtension></extensions></trkpt><trkpt lat="42.2146776505" lon="13.4165024478"><ele>1616.79</ele><time>2026-03-11T16:07:11Z</time><extensions><gpxtpx:TrackPointExtension><gpxtpx:atemp>2.8</gpxtpx:atemp></gpxtpx:TrackPointExtension></extensions></trkpt><trkpt lat="42.2146850266" lon="13.4164978378"><ele>1616.80</ele><time>2026-03-11T16:07:12Z</time><extensions><gpxtpx:TrackPointExtension><gpxtpx:atemp>2.8</gpxtpx:atemp></gpxtpx:TrackPointExtension></extensions></trkpt><trkpt lat="42.2146928217" lon="13.4164947364"><ele>1616.80</ele><time>2026-03-11T16:07:13Z</time><extensions><gpxtpx:TrackPointExtension><gpxtpx:atemp>2.8</gpxtpx:atemp></gpxtpx:TrackPointExtension></extensions></trkpt><trkpt lat="42.2146996949" lon="13.4164918866"><ele>1616.80</ele><time>2026-03-11T16:07:14Z</time><extensions><gpxtpx:TrackPointExtension><gpxtpx:atemp>2.8</gpxtpx:atemp></gpxtpx:TrackPointExtension></extensions></trkpt><trkpt lat="42.2147062328" lon="13.4164918866"><ele>1616.79</ele><time>2026-03-11T16:07:15Z</time><extensions><gpxtpx:TrackPointExtension><gpxtpx:atemp>2.8</gpxtpx:atemp></gpxtpx:TrackPointExtension></extensions></trkpt><trkpt lat="42.2147150338" lon="13.4164891206"><ele>1616.76</ele><time>2026-03-11T16:07:16Z</time><extensions><gpxtpx:TrackPointExtension><gpxtpx:atemp>2.8</gpxtpx:atemp></gpxtpx:TrackPointExtension></extensions></trkpt><trkpt lat="42.2147223260" lon="13.4164857678"><ele>1616.72</ele><time>2026-03-11T16:07:17Z</time><extensions><gpxtpx:TrackPointExtension><gpxtpx:atemp>2.8</gpxtpx:atemp></gpxtpx:TrackPointExtension></extensions></trkpt><trkpt lat="42.2147313785" lon="13.4164850973"><ele>1616.66</ele><time>2026-03-11T16:07:18Z</time><extensions><gpxtpx:TrackPointExtension><gpxtpx:atemp>2.8</gpxtpx:atemp></gpxtpx:TrackPointExtension></extensions></trkpt><trkpt lat="42.2147392575" lon="13.4164840914"><ele>1616.64</ele><time>2026-03-11T16:07:19Z</time><extensions><gpxtpx:TrackPointExtension><gpxtpx:atemp>2.8</gpxtpx:atemp></gpxtpx:TrackPointExtension></extensions></trkpt><trkpt lat="42.2147479746" lon="13.4164815769"><ele>1616.61</ele><time>2026-03-11T16:07:20Z</time><extensions><gpxtpx:TrackPointExtension><gpxtpx:atemp>2.8</gpxtpx:atemp></gpxtpx:TrackPointExtension></extensions></trkpt><trkpt lat="42.2147560213" lon="13.4164768830"><ele>1616.56</ele><time>2026-03-11T16:07:21Z</time><extensions><gpxtpx:TrackPointExtension><gpxtpx:atemp>2.8</gpxtpx:atemp></gpxtpx:TrackPointExtension></extensions></trkpt><trkpt lat="42.2147648223" lon="13.4164719377"><ele>1616.50</ele><time>2026-03-11T16:07:22Z</time><extensions><gpxtpx:TrackPointExtension><gpxtpx:atemp>2.8</gpxtpx:atemp></gpxtpx:TrackPointExtension></extensions></trkpt><trkpt lat="42.2147747967" lon="13.4164698422"><ele>1616.43</ele><time>2026-03-11T16:07:23Z</time><extensions><gpxtpx:TrackPointExtension><gpxtpx:atemp>2.8</gpxtpx:atemp></gpxtpx:TrackPointExtension></extensions></trkpt><trkpt lat="42.2147851903" lon="13.4164675791"><ele>1616.36</ele><time>2026-03-11T16:07:24Z</time><extensions><gpxtpx:TrackPointExtension><gpxtpx:atemp>2.8</gpxtpx:atemp></gpxtpx:TrackPointExtension></extensions></trkpt><trkpt lat="42.2147946618" lon="13.4164641425"><ele>1616.33</ele><time>2026-03-11T16:07:25Z</time><extensions><gpxtpx:TrackPointExtension><gpxtpx:atemp>2.8</gpxtpx:atemp></gpxtpx:TrackPointExtension></extensions></trkpt><trkpt lat="42.2148024570" lon="13.4164646454"><ele>1616.26</ele><time>2026-03-11T16:07:26Z</time><extensions><gpxtpx:TrackPointExtension><gpxtpx:atemp>2.8</gpxtpx:atemp></gpxtpx:TrackPointExtension></extensions></trkpt><trkpt lat="42.2148106713" lon="13.4164588619"><ele>1616.20</ele><time>2026-03-11T16:07:27Z</time><extensions><gpxtpx:TrackPointExtension><gpxtpx:atemp>2.8</gpxtpx:atemp></gpxtpx:TrackPointExtension></extensions></trkpt><trkpt lat="42.2148185503" lon="13.4164545871"><ele>1616.17</ele><time>2026-03-11T16:07:28Z</time><extensions><gpxtpx:TrackPointExtension><gpxtpx:atemp>2.8</gpxtpx:atemp></gpxtpx:TrackPointExtension></extensions></trkpt><trkpt lat="42.2148253396" lon="13.4164531622"><ele>1616.09</ele><time>2026-03-11T16:07:29Z</time><extensions><gpxtpx:TrackPointExtension><gpxtpx:atemp>2.8</gpxtpx:atemp></gpxtpx:TrackPointExtension></extensions></trkpt><trkpt lat="42.2148316260" lon="13.4164480492"><ele>1615.98</ele><time>2026-03-11T16:07:30Z</time><extensions><gpxtpx:TrackPointExtension><gpxtpx:atemp>2.8</gpxtpx:atemp></gpxtpx:TrackPointExtension></extensions></trkpt><trkpt lat="42.2148402594" lon="13.4164460376"><ele>1615.87</ele><time>2026-03-11T16:07:31Z</time><extensions><gpxtpx:TrackPointExtension><gpxtpx:atemp>2.8</gpxtpx:atemp></gpxtpx:TrackPointExtension></extensions></trkpt><trkpt lat="42.2148492280" lon="13.4164445288"><ele>1615.76</ele><time>2026-03-11T16:07:32Z</time><extensions><gpxtpx:TrackPointExtension><gpxtpx:atemp>2.8</gpxtpx:atemp></gpxtpx:TrackPointExtension></extensions></trkpt><trkpt lat="42.2148558497" lon="13.4164405894"><ele>1615.60</ele><time>2026-03-11T16:07:33Z</time><extensions><gpxtpx:TrackPointExtension><gpxtpx:atemp>2.8</gpxtpx:atemp></gpxtpx:TrackPointExtension></extensions></trkpt><trkpt lat="42.2148638964" lon="13.4164378233"><ele>1615.49</ele><time>2026-03-11T16:07:34Z</time><extensions><gpxtpx:TrackPointExtension><gpxtpx:atemp>2.7</gpxtpx:atemp></gpxtpx:TrackPointExtension></extensions></trkpt><trkpt lat="42.2148736194" lon="13.4164325427"><ele>1615.39</ele><time>2026-03-11T16:07:35Z</time><extensions><gpxtpx:TrackPointExtension><gpxtpx:atemp>2.7</gpxtpx:atemp></gpxtpx:TrackPointExtension></extensions></trkpt><trkpt lat="42.2148821689" lon="13.4164303634"><ele>1615.34</ele><time>2026-03-11T16:07:36Z</time><extensions><gpxtpx:TrackPointExtension><gpxtpx:atemp>2.7</gpxtpx:atemp></gpxtpx:TrackPointExtension></extensions></trkpt><trkpt lat="42.2148908861" lon="13.4164258372"><ele>1615.32</ele><time>2026-03-11T16:07:37Z</time><extensions><gpxtpx:TrackPointExtension><gpxtpx:atemp>2.7</gpxtpx:atemp></gpxtpx:TrackPointExtension></extensions></trkpt><trkpt lat="42.2149030399" lon="13.4164207242"><ele>1615.32</ele><time>2026-03-11T16:07:38Z</time><extensions><gpxtpx:TrackPointExtension><gpxtpx:atemp>2.7</gpxtpx:atemp></gpxtpx:TrackPointExtension></extensions></trkpt><trkpt lat="42.2149113379" lon="13.4164212272"><ele>1615.32</ele><time>2026-03-11T16:07:39Z</time><extensions><gpxtpx:TrackPointExtension><gpxtpx:atemp>2.7</gpxtpx:atemp></gpxtpx:TrackPointExtension></extensions></trkpt><trkpt lat="42.2149216477" lon="13.4164177906"><ele>1615.35</ele><time>2026-03-11T16:07:40Z</time><extensions><gpxtpx:TrackPointExtension><gpxtpx:atemp>2.7</gpxtpx:atemp></gpxtpx:TrackPointExtension></extensions></trkpt><trkpt lat="42.2149308678" lon="13.4164137673"><ele>1615.42</ele><time>2026-03-11T16:07:41Z</time><extensions><gpxtpx:TrackPointExtension><gpxtpx:atemp>2.7</gpxtpx:atemp></gpxtpx:TrackPointExtension></extensions></trkpt><trkpt lat="42.2149387468" lon="13.4164127614"><ele>1615.48</ele><time>2026-03-11T16:07:42Z</time><extensions><gpxtpx:TrackPointExtension><gpxtpx:atemp>2.7</gpxtpx:atemp></gpxtpx:TrackPointExtension></extensions></trkpt><trkpt lat="42.2149477992" lon="13.4164088219"><ele>1615.56</ele><time>2026-03-11T16:07:43Z</time><extensions><gpxtpx:TrackPointExtension><gpxtpx:atemp>2.7</gpxtpx:atemp></gpxtpx:TrackPointExtension></extensions></trkpt><trkpt lat="42.2149575222" lon="13.4164085705"><ele>1615.62</ele><time>2026-03-11T16:07:44Z</time><extensions><gpxtpx:TrackPointExtension><gpxtpx:atemp>2.7</gpxtpx:atemp></gpxtpx:TrackPointExtension></extensions></trkpt><trkpt lat="42.2149669938" lon="13.4164045472"><ele>1615.67</ele><time>2026-03-11T16:07:45Z</time><extensions><gpxtpx:TrackPointExtension><gpxtpx:atemp>2.7</gpxtpx:atemp></gpxtpx:TrackPointExtension></extensions></trkpt><trkpt lat="42.2149756271" lon="13.4164008591"><ele>1615.71</ele><time>2026-03-11T16:07:46Z</time><extensions><gpxtpx:TrackPointExtension><gpxtpx:atemp>2.7</gpxtpx:atemp></gpxtpx:TrackPointExtension></extensions></trkpt><trkpt lat="42.2149826679" lon="13.4163977578"><ele>1615.73</ele><time>2026-03-11T16:07:47Z</time><extensions><gpxtpx:TrackPointExtension><gpxtpx:atemp>2.7</gpxtpx:atemp></gpxtpx:TrackPointExtension></extensions></trkpt><trkpt lat="42.2149925586" lon="13.4163918905"><ele>1615.73</ele><time>2026-03-11T16:07:48Z</time><extensions><gpxtpx:TrackPointExtension><gpxtpx:atemp>2.7</gpxtpx:atemp></gpxtpx:TrackPointExtension></extensions></trkpt><trkpt lat="42.2149993479" lon="13.4163898788"><ele>1615.73</ele><time>2026-03-11T16:07:49Z</time><extensions><gpxtpx:TrackPointExtension><gpxtpx:atemp>2.7</gpxtpx:atemp></gpxtpx:TrackPointExtension></extensions></trkpt><trkpt lat="42.2150077298" lon="13.4163869452"><ele>1615.73</ele><time>2026-03-11T16:07:50Z</time><extensions><gpxtpx:TrackPointExtension><gpxtpx:atemp>2.7</gpxtpx:atemp></gpxtpx:TrackPointExtension></extensions></trkpt><trkpt lat="42.2150173690" lon="13.4163821675"><ele>1615.71</ele><time>2026-03-11T16:07:51Z</time><extensions><gpxtpx:TrackPointExtension><gpxtpx:atemp>2.7</gpxtpx:atemp></gpxtpx:TrackPointExtension></extensions></trkpt><trkpt lat="42.2150256671" lon="13.4163787309"><ele>1615.68</ele><time>2026-03-11T16:07:52Z</time><extensions><gpxtpx:TrackPointExtension><gpxtpx:atemp>2.7</gpxtpx:atemp></gpxtpx:TrackPointExtension></extensions></trkpt><trkpt lat="42.2150342166" lon="13.4163736179"><ele>1615.67</ele><time>2026-03-11T16:07:53Z</time><extensions><gpxtpx:TrackPointExtension><gpxtpx:atemp>2.7</gpxtpx:atemp></gpxtpx:TrackPointExtension></extensions></trkpt><trkpt lat="42.2150423471" lon="13.4163675830"><ele>1615.67</ele><time>2026-03-11T16:07:54Z</time><extensions><gpxtpx:TrackPointExtension><gpxtpx:atemp>2.7</gpxtpx:atemp></gpxtpx:TrackPointExtension></extensions></trkpt><trkpt lat="42.2150503937" lon="13.4163666610"><ele>1615.64</ele><time>2026-03-11T16:07:55Z</time><extensions><gpxtpx:TrackPointExtension><gpxtpx:atemp>2.7</gpxtpx:atemp></gpxtpx:TrackPointExtension></extensions></trkpt><trkpt lat="42.2150588594" lon="13.4163640626"><ele>1615.60</ele><time>2026-03-11T16:07:56Z</time><extensions><gpxtpx:TrackPointExtension><gpxtpx:atemp>2.7</gpxtpx:atemp></gpxtpx:TrackPointExtension></extensions></trkpt><trkpt lat="42.2150679957" lon="13.4163613804"><ele>1615.60</ele><time>2026-03-11T16:07:57Z</time><extensions><gpxtpx:TrackPointExtension><gpxtpx:atemp>2.7</gpxtpx:atemp></gpxtpx:TrackPointExtension></extensions></trkpt><trkpt lat="42.2150765453" lon="13.4163578600"><ele>1615.60</ele><time>2026-03-11T16:07:58Z</time><extensions><gpxtpx:TrackPointExtension><gpxtpx:atemp>2.7</gpxtpx:atemp></gpxtpx:TrackPointExtension></extensions></trkpt><trkpt lat="42.2150840890" lon="13.4163546748"><ele>1615.60</ele><time>2026-03-11T16:07:59Z</time><extensions><gpxtpx:TrackPointExtension><gpxtpx:atemp>2.7</gpxtpx:atemp></gpxtpx:TrackPointExtension></extensions></trkpt><trkpt lat="42.2150915489" lon="13.4163498972"><ele>1615.60</ele><time>2026-03-11T16:08:00Z</time><extensions><gpxtpx:TrackPointExtension><gpxtpx:atemp>2.7</gpxtpx:atemp></gpxtpx:TrackPointExtension></extensions></trkpt><trkpt lat="42.2151024453" lon="13.4163437784"><ele>1615.60</ele><time>2026-03-11T16:08:01Z</time><extensions><gpxtpx:TrackPointExtension><gpxtpx:atemp>2.7</gpxtpx:atemp></gpxtpx:TrackPointExtension></extensions></trkpt><trkpt lat="42.2151090670" lon="13.4163395874"><ele>1615.60</ele><time>2026-03-11T16:08:02Z</time><extensions><gpxtpx:TrackPointExtension><gpxtpx:atemp>2.7</gpxtpx:atemp></gpxtpx:TrackPointExtension></extensions></trkpt><trkpt lat="42.2151172813" lon="13.4163378272"><ele>1615.61</ele><time>2026-03-11T16:08:03Z</time><extensions><gpxtpx:TrackPointExtension><gpxtpx:atemp>2.7</gpxtpx:atemp></gpxtpx:TrackPointExtension></extensions></trkpt><trkpt lat="42.2151261661" lon="13.4163336363"><ele>1615.65</ele><time>2026-03-11T16:08:04Z</time><extensions><gpxtpx:TrackPointExtension><gpxtpx:atemp>2.7</gpxtpx:atemp></gpxtpx:TrackPointExtension></extensions></trkpt><trkpt lat="42.2151354700" lon="13.4163292777"><ele>1615.67</ele><time>2026-03-11T16:08:05Z</time><extensions><gpxtpx:TrackPointExtension><gpxtpx:atemp>2.7</gpxtpx:atemp></gpxtpx:TrackPointExtension></extensions></trkpt><trkpt lat="42.2151435167" lon="13.4163251705"><ele>1615.67</ele><time>2026-03-11T16:08:06Z</time><extensions><gpxtpx:TrackPointExtension><gpxtpx:atemp>2.7</gpxtpx:atemp></gpxtpx:TrackPointExtension></extensions></trkpt><trkpt lat="42.2151523177" lon="13.4163195547"><ele>1615.67</ele><time>2026-03-11T16:08:07Z</time><extensions><gpxtpx:TrackPointExtension><gpxtpx:atemp>2.7</gpxtpx:atemp></gpxtpx:TrackPointExtension></extensions></trkpt><trkpt lat="42.2151587717" lon="13.4163168725"><ele>1615.67</ele><time>2026-03-11T16:08:08Z</time><extensions><gpxtpx:TrackPointExtension><gpxtpx:atemp>2.7</gpxtpx:atemp></gpxtpx:TrackPointExtension></extensions></trkpt><trkpt lat="42.2151656449" lon="13.4163118433"><ele>1615.66</ele><time>2026-03-11T16:08:09Z</time><extensions><gpxtpx:TrackPointExtension><gpxtpx:atemp>2.7</gpxtpx:atemp></gpxtpx:TrackPointExtension></extensions></trkpt><trkpt lat="42.2151749488" lon="13.4163069818"><ele>1615.64</ele><time>2026-03-11T16:08:10Z</time><extensions><gpxtpx:TrackPointExtension><gpxtpx:atemp>2.7</gpxtpx:atemp></gpxtpx:TrackPointExtension></extensions></trkpt><trkpt lat="42.2151840851" lon="13.4163001925"><ele>1615.59</ele><time>2026-03-11T16:08:11Z</time><extensions><gpxtpx:TrackPointExtension><gpxtpx:atemp>2.7</gpxtpx:atemp></gpxtpx:TrackPointExtension></extensions></trkpt><trkpt lat="42.2151927184" lon="13.4162958339"><ele>1615.56</ele><time>2026-03-11T16:08:12Z</time><extensions><gpxtpx:TrackPointExtension><gpxtpx:atemp>2.7</gpxtpx:atemp></gpxtpx:TrackPointExtension></extensions></trkpt><trkpt lat="42.2152006812" lon="13.4162920620"><ele>1615.54</ele><time>2026-03-11T16:08:13Z</time><extensions><gpxtpx:TrackPointExtension><gpxtpx:atemp>2.7</gpxtpx:atemp></gpxtpx:TrackPointExtension></extensions></trkpt><trkpt lat="42.2152066324" lon="13.4162913915"><ele>1615.54</ele><time>2026-03-11T16:08:14Z</time><extensions><gpxtpx:TrackPointExtension><gpxtpx:atemp>2.7</gpxtpx:atemp></gpxtpx:TrackPointExtension></extensions></trkpt><trkpt lat="42.2152170260" lon="13.4162870329"><ele>1615.61</ele><time>2026-03-11T16:08:15Z</time><extensions><gpxtpx:TrackPointExtension><gpxtpx:atemp>2.7</gpxtpx:atemp></gpxtpx:TrackPointExtension></extensions></trkpt><trkpt lat="42.2152259946" lon="13.4162854403"><ele>1615.66</ele><time>2026-03-11T16:08:16Z</time><extensions><gpxtpx:TrackPointExtension><gpxtpx:atemp>2.7</gpxtpx:atemp></gpxtpx:TrackPointExtension></extensions></trkpt><trkpt lat="42.2152358852" lon="13.4162812494"><ele>1615.71</ele><time>2026-03-11T16:08:17Z</time><extensions><gpxtpx:TrackPointExtension><gpxtpx:atemp>2.7</gpxtpx:atemp></gpxtpx:TrackPointExtension></extensions></trkpt><trkpt lat="42.2152440995" lon="13.4162766393"><ele>1615.76</ele><time>2026-03-11T16:08:18Z</time><extensions><gpxtpx:TrackPointExtension><gpxtpx:atemp>2.7</gpxtpx:atemp></gpxtpx:TrackPointExtension></extensions></trkpt><trkpt lat="42.2152524814" lon="13.4162709396"><ele>1615.81</ele><time>2026-03-11T16:08:19Z</time><extensions><gpxtpx:TrackPointExtension><gpxtpx:atemp>2.7</gpxtpx:atemp></gpxtpx:TrackPointExtension></extensions></trkpt><trkpt lat="42.2152646352" lon="13.4162701853"><ele>1615.85</ele><time>2026-03-11T16:08:20Z</time><extensions><gpxtpx:TrackPointExtension><gpxtpx:atemp>2.7</gpxtpx:atemp></gpxtpx:TrackPointExtension></extensions></trkpt><trkpt lat="42.2152715921" lon="13.4162679221"><ele>1615.89</ele><time>2026-03-11T16:08:21Z</time><extensions><gpxtpx:TrackPointExtension><gpxtpx:atemp>2.7</gpxtpx:atemp></gpxtpx:TrackPointExtension></extensions></trkpt><trkpt lat="42.2152808961" lon="13.4162612166"><ele>1615.91</ele><time>2026-03-11T16:08:22Z</time><extensions><gpxtpx:TrackPointExtension><gpxtpx:atemp>2.7</gpxtpx:atemp></gpxtpx:TrackPointExtension></extensions></trkpt><trkpt lat="42.2152884398" lon="13.4162599593"><ele>1615.94</ele><time>2026-03-11T16:08:23Z</time><extensions><gpxtpx:TrackPointExtension><gpxtpx:atemp>2.7</gpxtpx:atemp></gpxtpx:TrackPointExtension></extensions></trkpt><trkpt lat="42.2152965702" lon="13.4162583668"><ele>1615.97</ele><time>2026-03-11T16:08:24Z</time><extensions><gpxtpx:TrackPointExtension><gpxtpx:atemp>2.7</gpxtpx:atemp></gpxtpx:TrackPointExtension></extensions></trkpt><trkpt lat="42.2153014317" lon="13.4162588697"><ele>1616.00</ele><time>2026-03-11T16:08:25Z</time><extensions><gpxtpx:TrackPointExtension><gpxtpx:atemp>2.7</gpxtpx:atemp></gpxtpx:TrackPointExtension></extensions></trkpt><trkpt lat="42.2153107356" lon="13.4162568580"><ele>1616.01</ele><time>2026-03-11T16:08:26Z</time><extensions><gpxtpx:TrackPointExtension><gpxtpx:atemp>2.7</gpxtpx:atemp></gpxtpx:TrackPointExtension></extensions></trkpt><trkpt lat="42.2153191175" lon="13.4162565228"><ele>1616.07</ele><time>2026-03-11T16:08:27Z</time><extensions><gpxtpx:TrackPointExtension><gpxtpx:atemp>2.7</gpxtpx:atemp></gpxtpx:TrackPointExtension></extensions></trkpt><trkpt lat="42.2153283376" lon="13.4162473865"><ele>1616.07</ele><time>2026-03-11T16:08:28Z</time><extensions><gpxtpx:TrackPointExtension><gpxtpx:atemp>2.7</gpxtpx:atemp></gpxtpx:TrackPointExtension></extensions></trkpt><trkpt lat="42.2153332829" lon="13.4162376635"><ele>1616.04</ele><time>2026-03-11T16:08:29Z</time><extensions><gpxtpx:TrackPointExtension><gpxtpx:atemp>2.7</gpxtpx:atemp></gpxtpx:TrackPointExtension></extensions></trkpt><trkpt lat="42.2153417487" lon="13.4162355680"><ele>1615.96</ele><time>2026-03-11T16:08:30Z</time><extensions><gpxtpx:TrackPointExtension><gpxtpx:atemp>2.7</gpxtpx:atemp></gpxtpx:TrackPointExtension></extensions></trkpt><trkpt lat="42.2153505497" lon="13.4162330534"><ele>1615.89</ele><time>2026-03-11T16:08:31Z</time><extensions><gpxtpx:TrackPointExtension><gpxtpx:atemp>2.7</gpxtpx:atemp></gpxtpx:TrackPointExtension></extensions></trkpt><trkpt lat="42.2153539862" lon="13.4162327182"><ele>1615.85</ele><time>2026-03-11T16:08:32Z</time><extensions><gpxtpx:TrackPointExtension><gpxtpx:atemp>2.7</gpxtpx:atemp></gpxtpx:TrackPointExtension></extensions></trkpt><trkpt lat="42.2153631225" lon="13.4162287787"><ele>1615.81</ele><time>2026-03-11T16:08:33Z</time><extensions><gpxtpx:TrackPointExtension><gpxtpx:atemp>2.7</gpxtpx:atemp></gpxtpx:TrackPointExtension></extensions></trkpt><trkpt lat="42.2153716721" lon="13.4162248392"><ele>1615.79</ele><time>2026-03-11T16:08:34Z</time><extensions><gpxtpx:TrackPointExtension><gpxtpx:atemp>2.9</gpxtpx:atemp></gpxtpx:TrackPointExtension></extensions></trkpt><trkpt lat="42.2153786290" lon="13.4162203968"><ele>1615.78</ele><time>2026-03-11T16:08:35Z</time><extensions><gpxtpx:TrackPointExtension><gpxtpx:atemp>2.9</gpxtpx:atemp></gpxtpx:TrackPointExtension></extensions></trkpt><trkpt lat="42.2153871786" lon="13.4162160382"><ele>1615.78</ele><time>2026-03-11T16:08:36Z</time><extensions><gpxtpx:TrackPointExtension><gpxtpx:atemp>2.9</gpxtpx:atemp></gpxtpx:TrackPointExtension></extensions></trkpt><trkpt lat="42.2153952252" lon="13.4162106737"><ele>1615.79</ele><time>2026-03-11T16:08:37Z</time><extensions><gpxtpx:TrackPointExtension><gpxtpx:atemp>2.9</gpxtpx:atemp></gpxtpx:TrackPointExtension></extensions></trkpt><trkpt lat="42.2154029366" lon="13.4162055608"><ele>1615.81</ele><time>2026-03-11T16:08:38Z</time><extensions><gpxtpx:TrackPointExtension><gpxtpx:atemp>2.9</gpxtpx:atemp></gpxtpx:TrackPointExtension></extensions></trkpt><trkpt lat="42.2154111508" lon="13.4162016213"><ele>1615.82</ele><time>2026-03-11T16:08:39Z</time><extensions><gpxtpx:TrackPointExtension><gpxtpx:atemp>2.9</gpxtpx:atemp></gpxtpx:TrackPointExtension></extensions></trkpt><trkpt lat="42.2154192813" lon="13.4161972627"><ele>1615.83</ele><time>2026-03-11T16:08:40Z</time><extensions><gpxtpx:TrackPointExtension><gpxtpx:atemp>2.9</gpxtpx:atemp></gpxtpx:TrackPointExtension></extensions></trkpt><trkpt lat="42.2154258192" lon="13.4161951672"><ele>1615.86</ele><time>2026-03-11T16:08:41Z</time><extensions><gpxtpx:TrackPointExtension><gpxtpx:atemp>2.9</gpxtpx:atemp></gpxtpx:TrackPointExtension></extensions></trkpt><trkpt lat="42.2154326923" lon="13.4161906410"><ele>1615.86</ele><time>2026-03-11T16:08:42Z</time><extensions><gpxtpx:TrackPointExtension><gpxtpx:atemp>2.9</gpxtpx:atemp></gpxtpx:TrackPointExtension></extensions></trkpt><trkpt lat="42.2154398169" lon="13.4161864500"><ele>1615.83</ele><time>2026-03-11T16:08:43Z</time><extensions><gpxtpx:TrackPointExtension><gpxtpx:atemp>2.9</gpxtpx:atemp></gpxtpx:TrackPointExtension></extensions></trkpt><trkpt lat="42.2154470254" lon="13.4161825944"><ele>1615.83</ele><time>2026-03-11T16:08:44Z</time><extensions><gpxtpx:TrackPointExtension><gpxtpx:atemp>2.9</gpxtpx:atemp></gpxtpx:TrackPointExtension></extensions></trkpt><trkpt lat="42.2154543176" lon="13.4161779843"><ele>1615.83</ele><time>2026-03-11T16:08:45Z</time><extensions><gpxtpx:TrackPointExtension><gpxtpx:atemp>2.9</gpxtpx:atemp></gpxtpx:TrackPointExtension></extensions></trkpt><trkpt lat="42.2154613584" lon="13.4161735419"><ele>1615.87</ele><time>2026-03-11T16:08:46Z</time><extensions><gpxtpx:TrackPointExtension><gpxtpx:atemp>2.9</gpxtpx:atemp></gpxtpx:TrackPointExtension></extensions></trkpt><trkpt lat="42.2154707462" lon="13.4161668364"><ele>1615.85</ele><time>2026-03-11T16:08:47Z</time><extensions><gpxtpx:TrackPointExtension><gpxtpx:atemp>2.9</gpxtpx:atemp></gpxtpx:TrackPointExtension></extensions></trkpt><trkpt lat="42.2154780384" lon="13.4161616396"><ele>1615.81</ele><time>2026-03-11T16:08:48Z</time><extensions><gpxtpx:TrackPointExtension><gpxtpx:atemp>2.9</gpxtpx:atemp></gpxtpx:TrackPointExtension></extensions></trkpt><trkpt lat="42.2154870909" lon="13.4161588736"><ele>1615.80</ele><time>2026-03-11T16:08:49Z</time><extensions><gpxtpx:TrackPointExtension><gpxtpx:atemp>2.9</gpxtpx:atemp></gpxtpx:TrackPointExtension></extensions></trkpt><trkpt lat="42.2154943831" lon="13.4161539283"><ele>1615.78</ele><time>2026-03-11T16:08:50Z</time><extensions><gpxtpx:TrackPointExtension><gpxtpx:atemp>2.9</gpxtpx:atemp></gpxtpx:TrackPointExtension></extensions></trkpt><trkpt lat="42.2155021783" lon="13.4161472227"><ele>1615.74</ele><time>2026-03-11T16:08:51Z</time><extensions><gpxtpx:TrackPointExtension><gpxtpx:atemp>2.9</gpxtpx:atemp></gpxtpx:TrackPointExtension></extensions></trkpt><trkpt lat="42.2155095544" lon="13.4161453787"><ele>1615.70</ele><time>2026-03-11T16:08:52Z</time><extensions><gpxtpx:TrackPointExtension><gpxtpx:atemp>2.9</gpxtpx:atemp></gpxtpx:TrackPointExtension></extensions></trkpt><trkpt lat="42.2155159246" lon="13.4161394276"><ele>1615.66</ele><time>2026-03-11T16:08:53Z</time><extensions><gpxtpx:TrackPointExtension><gpxtpx:atemp>2.9</gpxtpx:atemp></gpxtpx:TrackPointExtension></extensions></trkpt><trkpt lat="42.2155224625" lon="13.4161344822"><ele>1615.64</ele><time>2026-03-11T16:08:54Z</time><extensions><gpxtpx:TrackPointExtension><gpxtpx:atemp>2.9</gpxtpx:atemp></gpxtpx:TrackPointExtension></extensions></trkpt><trkpt lat="42.2155310959" lon="13.4161304589"><ele>1615.63</ele><time>2026-03-11T16:08:55Z</time><extensions><gpxtpx:TrackPointExtension><gpxtpx:atemp>2.9</gpxtpx:atemp></gpxtpx:TrackPointExtension></extensions></trkpt><trkpt lat="42.2155391425" lon="13.4161259327"><ele>1615.61</ele><time>2026-03-11T16:08:56Z</time><extensions><gpxtpx:TrackPointExtension><gpxtpx:atemp>2.9</gpxtpx:atemp></gpxtpx:TrackPointExtension></extensions></trkpt><trkpt lat="42.2155452613" lon="13.4161221609"><ele>1615.60</ele><time>2026-03-11T16:08:57Z</time><extensions><gpxtpx:TrackPointExtension><gpxtpx:atemp>2.9</gpxtpx:atemp></gpxtpx:TrackPointExtension></extensions></trkpt><trkpt lat="42.2155517992" lon="13.4161163773"><ele>1615.57</ele><time>2026-03-11T16:08:58Z</time><extensions><gpxtpx:TrackPointExtension><gpxtpx:atemp>2.9</gpxtpx:atemp></gpxtpx:TrackPointExtension></extensions></trkpt><trkpt lat="42.2155605163" lon="13.4161121864"><ele>1615.55</ele><time>2026-03-11T16:08:59Z</time><extensions><gpxtpx:TrackPointExtension><gpxtpx:atemp>2.9</gpxtpx:atemp></gpxtpx:TrackPointExtension></extensions></trkpt><trkpt lat="42.2155674733" lon="13.4161094204"><ele>1615.55</ele><time>2026-03-11T16:09:00Z</time><extensions><gpxtpx:TrackPointExtension><gpxtpx:atemp>2.9</gpxtpx:atemp></gpxtpx:TrackPointExtension></extensions></trkpt><trkpt lat="42.2155757714" lon="13.4161040559"><ele>1615.53</ele><time>2026-03-11T16:09:01Z</time><extensions><gpxtpx:TrackPointExtension><gpxtpx:atemp>2.9</gpxtpx:atemp></gpxtpx:TrackPointExtension></extensions></trkpt><trkpt lat="42.2155839857" lon="13.4160982724"><ele>1615.52</ele><time>2026-03-11T16:09:02Z</time><extensions><gpxtpx:TrackPointExtension><gpxtpx:atemp>2.9</gpxtpx:atemp></gpxtpx:TrackPointExtension></extensions></trkpt><trkpt lat="42.2155934572" lon="13.4160918184"><ele>1615.50</ele><time>2026-03-11T16:09:03Z</time><extensions><gpxtpx:TrackPointExtension><gpxtpx:atemp>2.9</gpxtpx:atemp></gpxtpx:TrackPointExtension></extensions></trkpt><trkpt lat="42.2156025935" lon="13.4160853643"><ele>1615.50</ele><time>2026-03-11T16:09:04Z</time><extensions><gpxtpx:TrackPointExtension><gpxtpx:atemp>2.9</gpxtpx:atemp></gpxtpx:TrackPointExtension></extensions></trkpt><trkpt lat="42.2156103887" lon="13.4160840232"><ele>1615.50</ele><time>2026-03-11T16:09:05Z</time><extensions><gpxtpx:TrackPointExtension><gpxtpx:atemp>2.9</gpxtpx:atemp></gpxtpx:TrackPointExtension></extensions></trkpt><trkpt lat="42.2156196926" lon="13.4160777368"><ele>1615.49</ele><time>2026-03-11T16:09:06Z</time><extensions><gpxtpx:TrackPointExtension><gpxtpx:atemp>2.9</gpxtpx:atemp></gpxtpx:TrackPointExtension></extensions></trkpt><trkpt lat="42.2156283259" lon="13.4160686843"><ele>1615.49</ele><time>2026-03-11T16:09:07Z</time><extensions><gpxtpx:TrackPointExtension><gpxtpx:atemp>2.9</gpxtpx:atemp></gpxtpx:TrackPointExtension></extensions></trkpt><trkpt lat="42.2156357858" lon="13.4160673432"><ele>1615.50</ele><time>2026-03-11T16:09:08Z</time><extensions><gpxtpx:TrackPointExtension><gpxtpx:atemp>2.9</gpxtpx:atemp></gpxtpx:TrackPointExtension></extensions></trkpt><trkpt lat="42.2156429943" lon="13.4160607215"><ele>1615.55</ele><time>2026-03-11T16:09:09Z</time><extensions><gpxtpx:TrackPointExtension><gpxtpx:atemp>2.9</gpxtpx:atemp></gpxtpx:TrackPointExtension></extensions></trkpt><trkpt lat="42.2156513762" lon="13.4160559438"><ele>1615.60</ele><time>2026-03-11T16:09:10Z</time><extensions><gpxtpx:TrackPointExtension><gpxtpx:atemp>2.9</gpxtpx:atemp></gpxtpx:TrackPointExtension></extensions></trkpt><trkpt lat="42.2156597581" lon="13.4160497412"><ele>1615.61</ele><time>2026-03-11T16:09:11Z</time><extensions><gpxtpx:TrackPointExtension><gpxtpx:atemp>2.9</gpxtpx:atemp></gpxtpx:TrackPointExtension></extensions></trkpt><trkpt lat="42.2156681400" lon="13.4160431195"><ele>1615.63</ele><time>2026-03-11T16:09:12Z</time><extensions><gpxtpx:TrackPointExtension><gpxtpx:atemp>2.9</gpxtpx:atemp></gpxtpx:TrackPointExtension></extensions></trkpt><trkpt lat="42.2156760190" lon="13.4160388447"><ele>1615.71</ele><time>2026-03-11T16:09:13Z</time><extensions><gpxtpx:TrackPointExtension><gpxtpx:atemp>2.9</gpxtpx:atemp></gpxtpx:TrackPointExtension></extensions></trkpt><trkpt lat="42.2156848200" lon="13.4160344861"><ele>1615.73</ele><time>2026-03-11T16:09:14Z</time><extensions><gpxtpx:TrackPointExtension><gpxtpx:atemp>2.9</gpxtpx:atemp></gpxtpx:TrackPointExtension></extensions></trkpt><trkpt lat="42.2156926990" lon="13.4160272777"><ele>1615.74</ele><time>2026-03-11T16:09:15Z</time><extensions><gpxtpx:TrackPointExtension><gpxtpx:atemp>2.9</gpxtpx:atemp></gpxtpx:TrackPointExtension></extensions></trkpt><trkpt lat="42.2157004941" lon="13.4160231706"><ele>1615.74</ele><time>2026-03-11T16:09:16Z</time><extensions><gpxtpx:TrackPointExtension><gpxtpx:atemp>2.9</gpxtpx:atemp></gpxtpx:TrackPointExtension></extensions></trkpt><trkpt lat="42.2157092951" lon="13.4160171356"><ele>1615.73</ele><time>2026-03-11T16:09:17Z</time><extensions><gpxtpx:TrackPointExtension><gpxtpx:atemp>2.9</gpxtpx:atemp></gpxtpx:TrackPointExtension></extensions></trkpt><trkpt lat="42.2157198563" lon="13.4160117712"><ele>1615.73</ele><time>2026-03-11T16:09:18Z</time><extensions><gpxtpx:TrackPointExtension><gpxtpx:atemp>2.9</gpxtpx:atemp></gpxtpx:TrackPointExtension></extensions></trkpt><trkpt lat="42.2157245502" lon="13.4160083346"><ele>1615.73</ele><time>2026-03-11T16:09:19Z</time><extensions><gpxtpx:TrackPointExtension><gpxtpx:atemp>2.9</gpxtpx:atemp></gpxtpx:TrackPointExtension></extensions></trkpt><trkpt lat="42.2157334350" lon="13.4160038922"><ele>1615.72</ele><time>2026-03-11T16:09:20Z</time><extensions><gpxtpx:TrackPointExtension><gpxtpx:atemp>2.9</gpxtpx:atemp></gpxtpx:TrackPointExtension></extensions></trkpt><trkpt lat="42.2157400567" lon="13.4159984440"><ele>1615.68</ele><time>2026-03-11T16:09:21Z</time><extensions><gpxtpx:TrackPointExtension><gpxtpx:atemp>2.9</gpxtpx:atemp></gpxtpx:TrackPointExtension></extensions></trkpt><trkpt lat="42.2157473490" lon="13.4159960970"><ele>1615.68</ele><time>2026-03-11T16:09:22Z</time><extensions><gpxtpx:TrackPointExtension><gpxtpx:atemp>2.9</gpxtpx:atemp></gpxtpx:TrackPointExtension></extensions></trkpt><trkpt lat="42.2157545574" lon="13.4159902297"><ele>1615.70</ele><time>2026-03-11T16:09:23Z</time><extensions><gpxtpx:TrackPointExtension><gpxtpx:atemp>2.9</gpxtpx:atemp></gpxtpx:TrackPointExtension></extensions></trkpt><trkpt lat="42.2157595865" lon="13.4159826860"><ele>1615.68</ele><time>2026-03-11T16:09:24Z</time><extensions><gpxtpx:TrackPointExtension><gpxtpx:atemp>2.9</gpxtpx:atemp></gpxtpx:TrackPointExtension></extensions></trkpt><trkpt lat="42.2157642804" lon="13.4159761481"><ele>1615.65</ele><time>2026-03-11T16:09:25Z</time><extensions><gpxtpx:TrackPointExtension><gpxtpx:atemp>2.9</gpxtpx:atemp></gpxtpx:TrackPointExtension></extensions></trkpt><trkpt lat="42.2157646995" lon="13.4159751423"><ele>1615.65</ele><time>2026-03-11T16:09:26Z</time><extensions><gpxtpx:TrackPointExtension><gpxtpx:atemp>2.9</gpxtpx:atemp></gpxtpx:TrackPointExtension></extensions></trkpt><trkpt lat="42.2157643642" lon="13.4159743879"><ele>1615.64</ele><time>2026-03-11T16:09:27Z</time><extensions><gpxtpx:TrackPointExtension><gpxtpx:atemp>2.9</gpxtpx:atemp></gpxtpx:TrackPointExtension></extensions></trkpt><trkpt lat="42.2157720756" lon="13.4159708675"><ele>1615.61</ele><time>2026-03-11T16:09:28Z</time><extensions><gpxtpx:TrackPointExtension><gpxtpx:atemp>2.9</gpxtpx:atemp></gpxtpx:TrackPointExtension></extensions></trkpt><trkpt lat="42.2157809604" lon="13.4159639943"><ele>1615.59</ele><time>2026-03-11T16:09:29Z</time><extensions><gpxtpx:TrackPointExtension><gpxtpx:atemp>2.9</gpxtpx:atemp></gpxtpx:TrackPointExtension></extensions></trkpt><trkpt lat="42.2157881688" lon="13.4159595519"><ele>1615.56</ele><time>2026-03-11T16:09:30Z</time><extensions><gpxtpx:TrackPointExtension><gpxtpx:atemp>2.9</gpxtpx:atemp></gpxtpx:TrackPointExtension></extensions></trkpt><trkpt lat="42.2157977242" lon="13.4159553610"><ele>1615.54</ele><time>2026-03-11T16:09:31Z</time><extensions><gpxtpx:TrackPointExtension><gpxtpx:atemp>2.9</gpxtpx:atemp></gpxtpx:TrackPointExtension></extensions></trkpt><trkpt lat="42.2158028372" lon="13.4159507509"><ele>1615.52</ele><time>2026-03-11T16:09:32Z</time><extensions><gpxtpx:TrackPointExtension><gpxtpx:atemp>2.9</gpxtpx:atemp></gpxtpx:TrackPointExtension></extensions></trkpt><trkpt lat="42.2158099618" lon="13.4159437940"><ele>1615.51</ele><time>2026-03-11T16:09:33Z</time><extensions><gpxtpx:TrackPointExtension><gpxtpx:atemp>2.9</gpxtpx:atemp></gpxtpx:TrackPointExtension></extensions></trkpt><trkpt lat="42.2158183437" lon="13.4159397706"><ele>1615.51</ele><time>2026-03-11T16:09:34Z</time><extensions><gpxtpx:TrackPointExtension><gpxtpx:atemp>3.0</gpxtpx:atemp></gpxtpx:TrackPointExtension></extensions></trkpt><trkpt lat="42.2158267256" lon="13.4159354959"><ele>1615.53</ele><time>2026-03-11T16:09:35Z</time><extensions><gpxtpx:TrackPointExtension><gpxtpx:atemp>3.0</gpxtpx:atemp></gpxtpx:TrackPointExtension></extensions></trkpt><trkpt lat="42.2158325929" lon="13.4159275331"><ele>1615.62</ele><time>2026-03-11T16:09:36Z</time><extensions><gpxtpx:TrackPointExtension><gpxtpx:atemp>3.0</gpxtpx:atemp></gpxtpx:TrackPointExtension></extensions></trkpt><trkpt lat="42.2158412263" lon="13.4159265272"><ele>1615.67</ele><time>2026-03-11T16:09:37Z</time><extensions><gpxtpx:TrackPointExtension><gpxtpx:atemp>3.0</gpxtpx:atemp></gpxtpx:TrackPointExtension></extensions></trkpt><trkpt lat="42.2158489376" lon="13.4159207437"><ele>1615.71</ele><time>2026-03-11T16:09:38Z</time><extensions><gpxtpx:TrackPointExtension><gpxtpx:atemp>3.0</gpxtpx:atemp></gpxtpx:TrackPointExtension></extensions></trkpt><trkpt lat="42.2158553917" lon="13.4159164689"><ele>1615.73</ele><time>2026-03-11T16:09:39Z</time><extensions><gpxtpx:TrackPointExtension><gpxtpx:atemp>3.0</gpxtpx:atemp></gpxtpx:TrackPointExtension></extensions></trkpt><trkpt lat="42.2158621810" lon="13.4159105178"><ele>1615.77</ele><time>2026-03-11T16:09:40Z</time><extensions><gpxtpx:TrackPointExtension><gpxtpx:atemp>3.0</gpxtpx:atemp></gpxtpx:TrackPointExtension></extensions></trkpt><trkpt lat="42.2158670425" lon="13.4159084223"><ele>1615.83</ele><time>2026-03-11T16:09:41Z</time><extensions><gpxtpx:TrackPointExtension><gpxtpx:atemp>3.0</gpxtpx:atemp></gpxtpx:TrackPointExtension></extensions></trkpt><trkpt lat="42.2158740833" lon="13.4159032255"><ele>1615.87</ele><time>2026-03-11T16:09:42Z</time><extensions><gpxtpx:TrackPointExtension><gpxtpx:atemp>3.0</gpxtpx:atemp></gpxtpx:TrackPointExtension></extensions></trkpt><trkpt lat="42.2158808727" lon="13.4159010462"><ele>1615.89</ele><time>2026-03-11T16:09:43Z</time><extensions><gpxtpx:TrackPointExtension><gpxtpx:atemp>3.0</gpxtpx:atemp></gpxtpx:TrackPointExtension></extensions></trkpt><trkpt lat="42.2158887517" lon="13.4158985317"><ele>1615.92</ele><time>2026-03-11T16:09:44Z</time><extensions><gpxtpx:TrackPointExtension><gpxtpx:atemp>3.0</gpxtpx:atemp></gpxtpx:TrackPointExtension></extensions></trkpt><trkpt lat="42.2158979718" lon="13.4158964362"><ele>1615.94</ele><time>2026-03-11T16:09:45Z</time><extensions><gpxtpx:TrackPointExtension><gpxtpx:atemp>3.0</gpxtpx:atemp></gpxtpx:TrackPointExtension></extensions></trkpt><trkpt lat="42.2159053478" lon="13.4158947598"><ele>1615.97</ele><time>2026-03-11T16:09:46Z</time><extensions><gpxtpx:TrackPointExtension><gpxtpx:atemp>3.0</gpxtpx:atemp></gpxtpx:TrackPointExtension></extensions></trkpt><trkpt lat="42.2159133945" lon="13.4158914909"><ele>1616.00</ele><time>2026-03-11T16:09:47Z</time><extensions><gpxtpx:TrackPointExtension><gpxtpx:atemp>3.0</gpxtpx:atemp></gpxtpx:TrackPointExtension></extensions></trkpt><trkpt lat="42.2159212735" lon="13.4158893954"><ele>1616.01</ele><time>2026-03-11T16:09:48Z</time><extensions><gpxtpx:TrackPointExtension><gpxtpx:atemp>3.0</gpxtpx:atemp></gpxtpx:TrackPointExtension></extensions></trkpt><trkpt lat="42.2159292363" lon="13.4158864617"><ele>1616.02</ele><time>2026-03-11T16:09:49Z</time><extensions><gpxtpx:TrackPointExtension><gpxtpx:atemp>3.0</gpxtpx:atemp></gpxtpx:TrackPointExtension></extensions></trkpt><trkpt lat="42.2159379534" lon="13.4158830252"><ele>1616.02</ele><time>2026-03-11T16:09:50Z</time><extensions><gpxtpx:TrackPointExtension><gpxtpx:atemp>3.0</gpxtpx:atemp></gpxtpx:TrackPointExtension></extensions></trkpt><trkpt lat="42.2159442399" lon="13.4158812650"><ele>1616.05</ele><time>2026-03-11T16:09:51Z</time><extensions><gpxtpx:TrackPointExtension><gpxtpx:atemp>3.0</gpxtpx:atemp></gpxtpx:TrackPointExtension></extensions></trkpt><trkpt lat="42.2159516998" lon="13.4158786666"><ele>1616.06</ele><time>2026-03-11T16:09:52Z</time><extensions><gpxtpx:TrackPointExtension><gpxtpx:atemp>3.0</gpxtpx:atemp></gpxtpx:TrackPointExtension></extensions></trkpt><trkpt lat="42.2159598302" lon="13.4158759844"><ele>1616.09</ele><time>2026-03-11T16:09:53Z</time><extensions><gpxtpx:TrackPointExtension><gpxtpx:atemp>3.0</gpxtpx:atemp></gpxtpx:TrackPointExtension></extensions></trkpt><trkpt lat="42.2159685474" lon="13.4158721287"><ele>1616.11</ele><time>2026-03-11T16:09:54Z</time><extensions><gpxtpx:TrackPointExtension><gpxtpx:atemp>3.0</gpxtpx:atemp></gpxtpx:TrackPointExtension></extensions></trkpt><trkpt lat="42.2159759235" lon="13.4158671834"><ele>1616.12</ele><time>2026-03-11T16:09:55Z</time><extensions><gpxtpx:TrackPointExtension><gpxtpx:atemp>3.0</gpxtpx:atemp></gpxtpx:TrackPointExtension></extensions></trkpt><trkpt lat="42.2159826290" lon="13.4158630762"><ele>1616.12</ele><time>2026-03-11T16:09:56Z</time><extensions><gpxtpx:TrackPointExtension><gpxtpx:atemp>3.0</gpxtpx:atemp></gpxtpx:TrackPointExtension></extensions></trkpt><trkpt lat="42.2159902565" lon="13.4158564545"><ele>1616.12</ele><time>2026-03-11T16:09:57Z</time><extensions><gpxtpx:TrackPointExtension><gpxtpx:atemp>3.0</gpxtpx:atemp></gpxtpx:TrackPointExtension></extensions></trkpt><trkpt lat="42.2159976326" lon="13.4158526827"><ele>1616.11</ele><time>2026-03-11T16:09:58Z</time><extensions><gpxtpx:TrackPointExtension><gpxtpx:atemp>3.0</gpxtpx:atemp></gpxtpx:TrackPointExtension></extensions></trkpt><trkpt lat="42.2160044219" lon="13.4158485755"><ele>1616.10</ele><time>2026-03-11T16:09:59Z</time><extensions><gpxtpx:TrackPointExtension><gpxtpx:atemp>3.0</gpxtpx:atemp></gpxtpx:TrackPointExtension></extensions></trkpt><trkpt lat="42.2160132229" lon="13.4158457257"><ele>1616.10</ele><time>2026-03-11T16:10:00Z</time><extensions><gpxtpx:TrackPointExtension><gpxtpx:atemp>3.0</gpxtpx:atemp></gpxtpx:TrackPointExtension></extensions></trkpt><trkpt lat="42.2160225268" lon="13.4158424567"><ele>1616.11</ele><time>2026-03-11T16:10:01Z</time><extensions><gpxtpx:TrackPointExtension><gpxtpx:atemp>3.0</gpxtpx:atemp></gpxtpx:TrackPointExtension></extensions></trkpt><trkpt lat="42.2160304897" lon="13.4158390202"><ele>1616.16</ele><time>2026-03-11T16:10:02Z</time><extensions><gpxtpx:TrackPointExtension><gpxtpx:atemp>3.0</gpxtpx:atemp></gpxtpx:TrackPointExtension></extensions></trkpt><trkpt lat="42.2160378657" lon="13.4158375952"><ele>1616.20</ele><time>2026-03-11T16:10:03Z</time><extensions><gpxtpx:TrackPointExtension><gpxtpx:atemp>3.0</gpxtpx:atemp></gpxtpx:TrackPointExtension></extensions></trkpt><trkpt lat="42.2160459962" lon="13.4158334881"><ele>1616.24</ele><time>2026-03-11T16:10:04Z</time><extensions><gpxtpx:TrackPointExtension><gpxtpx:atemp>3.0</gpxtpx:atemp></gpxtpx:TrackPointExtension></extensions></trkpt><trkpt lat="42.2160545457" lon="13.4158293810"><ele>1616.28</ele><time>2026-03-11T16:10:05Z</time><extensions><gpxtpx:TrackPointExtension><gpxtpx:atemp>3.0</gpxtpx:atemp></gpxtpx:TrackPointExtension></extensions></trkpt><trkpt lat="42.2160617542" lon="13.4158280399"><ele>1616.28</ele><time>2026-03-11T16:10:06Z</time><extensions><gpxtpx:TrackPointExtension><gpxtpx:atemp>3.0</gpxtpx:atemp></gpxtpx:TrackPointExtension></extensions></trkpt><trkpt lat="42.2160678729" lon="13.4158252738"><ele>1616.28</ele><time>2026-03-11T16:10:07Z</time><extensions><gpxtpx:TrackPointExtension><gpxtpx:atemp>3.0</gpxtpx:atemp></gpxtpx:TrackPointExtension></extensions></trkpt><trkpt lat="42.2160743270" lon="13.4158236813"><ele>1616.23</ele><time>2026-03-11T16:10:08Z</time><extensions><gpxtpx:TrackPointExtension><gpxtpx:atemp>3.0</gpxtpx:atemp></gpxtpx:TrackPointExtension></extensions></trkpt><trkpt lat="42.2160826251" lon="13.4158191551"><ele>1616.15</ele><time>2026-03-11T16:10:09Z</time><extensions><gpxtpx:TrackPointExtension><gpxtpx:atemp>3.0</gpxtpx:atemp></gpxtpx:TrackPointExtension></extensions></trkpt><trkpt lat="42.2160909232" lon="13.4158123657"><ele>1615.99</ele><time>2026-03-11T16:10:10Z</time><extensions><gpxtpx:TrackPointExtension><gpxtpx:atemp>3.0</gpxtpx:atemp></gpxtpx:TrackPointExtension></extensions></trkpt><trkpt lat="42.2160982993" lon="13.4158088453"><ele>1615.95</ele><time>2026-03-11T16:10:11Z</time><extensions><gpxtpx:TrackPointExtension><gpxtpx:atemp>3.0</gpxtpx:atemp></gpxtpx:TrackPointExtension></extensions></trkpt><trkpt lat="42.2161100339" lon="13.4158041514"><ele>1615.96</ele><time>2026-03-11T16:10:12Z</time><extensions><gpxtpx:TrackPointExtension><gpxtpx:atemp>3.0</gpxtpx:atemp></gpxtpx:TrackPointExtension></extensions></trkpt><trkpt lat="42.2161185835" lon="13.4158004634"><ele>1615.97</ele><time>2026-03-11T16:10:13Z</time><extensions><gpxtpx:TrackPointExtension><gpxtpx:atemp>3.0</gpxtpx:atemp></gpxtpx:TrackPointExtension></extensions></trkpt><trkpt lat="42.2161257919" lon="13.4158012178"><ele>1615.95</ele><time>2026-03-11T16:10:14Z</time><extensions><gpxtpx:TrackPointExtension><gpxtpx:atemp>3.0</gpxtpx:atemp></gpxtpx:TrackPointExtension></extensions></trkpt><trkpt lat="42.2161348443" lon="13.4158008825"><ele>1615.94</ele><time>2026-03-11T16:10:15Z</time><extensions><gpxtpx:TrackPointExtension><gpxtpx:atemp>3.0</gpxtpx:atemp></gpxtpx:TrackPointExtension></extensions></trkpt><trkpt lat="42.2161435615" lon="13.4157995414"><ele>1615.94</ele><time>2026-03-11T16:10:16Z</time><extensions><gpxtpx:TrackPointExtension><gpxtpx:atemp>3.0</gpxtpx:atemp></gpxtpx:TrackPointExtension></extensions></trkpt><trkpt lat="42.2161517758" lon="13.4157944284"><ele>1615.90</ele><time>2026-03-11T16:10:17Z</time><extensions><gpxtpx:TrackPointExtension><gpxtpx:atemp>3.0</gpxtpx:atemp></gpxtpx:TrackPointExtension></extensions></trkpt><trkpt lat="42.2161544580" lon="13.4157925844"><ele>1615.86</ele><time>2026-03-11T16:10:18Z</time><extensions><gpxtpx:TrackPointExtension><gpxtpx:atemp>3.0</gpxtpx:atemp></gpxtpx:TrackPointExtension></extensions></trkpt><trkpt lat="42.2161645163" lon="13.4157885611"><ele>1615.83</ele><time>2026-03-11T16:10:19Z</time><extensions><gpxtpx:TrackPointExtension><gpxtpx:atemp>3.0</gpxtpx:atemp></gpxtpx:TrackPointExtension></extensions></trkpt><trkpt lat="42.2161729820" lon="13.4157841187"><ele>1615.82</ele><time>2026-03-11T16:10:20Z</time><extensions><gpxtpx:TrackPointExtension><gpxtpx:atemp>3.0</gpxtpx:atemp></gpxtpx:TrackPointExtension></extensions></trkpt><trkpt lat="42.2161801904" lon="13.4157783352"><ele>1615.82</ele><time>2026-03-11T16:10:21Z</time><extensions><gpxtpx:TrackPointExtension><gpxtpx:atemp>3.0</gpxtpx:atemp></gpxtpx:TrackPointExtension></extensions></trkpt><trkpt lat="42.2161887400" lon="13.4157753177"><ele>1615.82</ele><time>2026-03-11T16:10:22Z</time><extensions><gpxtpx:TrackPointExtension><gpxtpx:atemp>3.0</gpxtpx:atemp></gpxtpx:TrackPointExtension></extensions></trkpt><trkpt lat="42.2161959484" lon="13.4157720488"><ele>1615.82</ele><time>2026-03-11T16:10:23Z</time><extensions><gpxtpx:TrackPointExtension><gpxtpx:atemp>3.0</gpxtpx:atemp></gpxtpx:TrackPointExtension></extensions></trkpt><trkpt lat="42.2162028216" lon="13.4157678578"><ele>1615.82</ele><time>2026-03-11T16:10:24Z</time><extensions><gpxtpx:TrackPointExtension><gpxtpx:atemp>3.0</gpxtpx:atemp></gpxtpx:TrackPointExtension></extensions></trkpt><trkpt lat="42.2162099462" lon="13.4157657623"><ele>1615.84</ele><time>2026-03-11T16:10:25Z</time><extensions><gpxtpx:TrackPointExtension><gpxtpx:atemp>3.0</gpxtpx:atemp></gpxtpx:TrackPointExtension></extensions></trkpt><trkpt lat="42.2162175737" lon="13.4157607332"><ele>1615.85</ele><time>2026-03-11T16:10:26Z</time><extensions><gpxtpx:TrackPointExtension><gpxtpx:atemp>3.0</gpxtpx:atemp></gpxtpx:TrackPointExtension></extensions></trkpt><trkpt lat="42.2162251174" lon="13.4157551173"><ele>1615.87</ele><time>2026-03-11T16:10:27Z</time><extensions><gpxtpx:TrackPointExtension><gpxtpx:atemp>3.0</gpxtpx:atemp></gpxtpx:TrackPointExtension></extensions></trkpt><trkpt lat="42.2162335832" lon="13.4157507587"><ele>1615.87</ele><time>2026-03-11T16:10:28Z</time><extensions><gpxtpx:TrackPointExtension><gpxtpx:atemp>3.0</gpxtpx:atemp></gpxtpx:TrackPointExtension></extensions></trkpt><trkpt lat="42.2162411269" lon="13.4157456458"><ele>1615.89</ele><time>2026-03-11T16:10:29Z</time><extensions><gpxtpx:TrackPointExtension><gpxtpx:atemp>3.0</gpxtpx:atemp></gpxtpx:TrackPointExtension></extensions></trkpt><trkpt lat="42.2162497602" lon="13.4157421254"><ele>1615.89</ele><time>2026-03-11T16:10:30Z</time><extensions><gpxtpx:TrackPointExtension><gpxtpx:atemp>3.0</gpxtpx:atemp></gpxtpx:TrackPointExtension></extensions></trkpt><trkpt lat="42.2162589803" lon="13.4157375991"><ele>1615.89</ele><time>2026-03-11T16:10:31Z</time><extensions><gpxtpx:TrackPointExtension><gpxtpx:atemp>3.0</gpxtpx:atemp></gpxtpx:TrackPointExtension></extensions></trkpt><trkpt lat="42.2162657697" lon="13.4157319833"><ele>1615.89</ele><time>2026-03-11T16:10:32Z</time><extensions><gpxtpx:TrackPointExtension><gpxtpx:atemp>2.7</gpxtpx:atemp></gpxtpx:TrackPointExtension></extensions></trkpt><trkpt lat="42.2162731458" lon="13.4157264512"><ele>1615.96</ele><time>2026-03-11T16:10:33Z</time><extensions><gpxtpx:TrackPointExtension><gpxtpx:atemp>2.7</gpxtpx:atemp></gpxtpx:TrackPointExtension></extensions></trkpt><trkpt lat="42.2162818629" lon="13.4157231823"><ele>1616.00</ele><time>2026-03-11T16:10:34Z</time><extensions><gpxtpx:TrackPointExtension><gpxtpx:atemp>2.7</gpxtpx:atemp></gpxtpx:TrackPointExtension></extensions></trkpt><trkpt lat="42.2162896581" lon="13.4157181531"><ele>1616.01</ele><time>2026-03-11T16:10:35Z</time><extensions><gpxtpx:TrackPointExtension><gpxtpx:atemp>2.7</gpxtpx:atemp></gpxtpx:TrackPointExtension></extensions></trkpt><trkpt lat="42.2162975371" lon="13.4157125372"><ele>1616.01</ele><time>2026-03-11T16:10:36Z</time><extensions><gpxtpx:TrackPointExtension><gpxtpx:atemp>2.7</gpxtpx:atemp></gpxtpx:TrackPointExtension></extensions></trkpt><trkpt lat="42.2163056675" lon="13.4157108609"><ele>1616.01</ele><time>2026-03-11T16:10:37Z</time><extensions><gpxtpx:TrackPointExtension><gpxtpx:atemp>2.7</gpxtpx:atemp></gpxtpx:TrackPointExtension></extensions></trkpt><trkpt lat="42.2163151391" lon="13.4157058317"><ele>1616.01</ele><time>2026-03-11T16:10:38Z</time><extensions><gpxtpx:TrackPointExtension><gpxtpx:atemp>2.7</gpxtpx:atemp></gpxtpx:TrackPointExtension></extensions></trkpt><trkpt lat="42.2163241915" lon="13.4157019760"><ele>1616.01</ele><time>2026-03-11T16:10:39Z</time><extensions><gpxtpx:TrackPointExtension><gpxtpx:atemp>2.7</gpxtpx:atemp></gpxtpx:TrackPointExtension></extensions></trkpt><trkpt lat="42.2163318191" lon="13.4156955220"><ele>1616.01</ele><time>2026-03-11T16:10:40Z</time><extensions><gpxtpx:TrackPointExtension><gpxtpx:atemp>2.7</gpxtpx:atemp></gpxtpx:TrackPointExtension></extensions></trkpt><trkpt lat="42.2163405363" lon="13.4156927560"><ele>1615.99</ele><time>2026-03-11T16:10:41Z</time><extensions><gpxtpx:TrackPointExtension><gpxtpx:atemp>2.7</gpxtpx:atemp></gpxtpx:TrackPointExtension></extensions></trkpt><trkpt lat="42.2163488343" lon="13.4156879783"><ele>1615.93</ele><time>2026-03-11T16:10:42Z</time><extensions><gpxtpx:TrackPointExtension><gpxtpx:atemp>2.7</gpxtpx:atemp></gpxtpx:TrackPointExtension></extensions></trkpt><trkpt lat="42.2163599823" lon="13.4156810213"><ele>1615.86</ele><time>2026-03-11T16:10:43Z</time><extensions><gpxtpx:TrackPointExtension><gpxtpx:atemp>2.7</gpxtpx:atemp></gpxtpx:TrackPointExtension></extensions></trkpt><trkpt lat="42.2163714655" lon="13.4156746510"><ele>1615.81</ele><time>2026-03-11T16:10:44Z</time><extensions><gpxtpx:TrackPointExtension><gpxtpx:atemp>2.7</gpxtpx:atemp></gpxtpx:TrackPointExtension></extensions></trkpt><trkpt lat="42.2163800988" lon="13.4156683646"><ele>1615.73</ele><time>2026-03-11T16:10:45Z</time><extensions><gpxtpx:TrackPointExtension><gpxtpx:atemp>2.7</gpxtpx:atemp></gpxtpx:TrackPointExtension></extensions></trkpt><trkpt lat="42.2163916659" lon="13.4156629164"><ele>1615.66</ele><time>2026-03-11T16:10:46Z</time><extensions><gpxtpx:TrackPointExtension><gpxtpx:atemp>2.7</gpxtpx:atemp></gpxtpx:TrackPointExtension></extensions></trkpt><trkpt lat="42.2163998801" lon="13.4156578872"><ele>1615.60</ele><time>2026-03-11T16:10:47Z</time><extensions><gpxtpx:TrackPointExtension><gpxtpx:atemp>2.7</gpxtpx:atemp></gpxtpx:TrackPointExtension></extensions></trkpt><trkpt lat="42.2164106928" lon="13.4156499244"><ele>1615.52</ele><time>2026-03-11T16:10:48Z</time><extensions><gpxtpx:TrackPointExtension><gpxtpx:atemp>2.7</gpxtpx:atemp></gpxtpx:TrackPointExtension></extensions></trkpt><trkpt lat="42.2164205834" lon="13.4156463202"><ele>1615.42</ele><time>2026-03-11T16:10:49Z</time><extensions><gpxtpx:TrackPointExtension><gpxtpx:atemp>2.7</gpxtpx:atemp></gpxtpx:TrackPointExtension></extensions></trkpt><trkpt lat="42.2164321505" lon="13.4156413749"><ele>1615.29</ele><time>2026-03-11T16:10:50Z</time><extensions><gpxtpx:TrackPointExtension><gpxtpx:atemp>2.7</gpxtpx:atemp></gpxtpx:TrackPointExtension></extensions></trkpt><trkpt lat="42.2164436337" lon="13.4156362619"><ele>1615.16</ele><time>2026-03-11T16:10:51Z</time><extensions><gpxtpx:TrackPointExtension><gpxtpx:atemp>2.7</gpxtpx:atemp></gpxtpx:TrackPointExtension></extensions></trkpt><trkpt lat="42.2164515965" lon="13.4156344179"><ele>1615.09</ele><time>2026-03-11T16:10:52Z</time><extensions><gpxtpx:TrackPointExtension><gpxtpx:atemp>2.7</gpxtpx:atemp></gpxtpx:TrackPointExtension></extensions></trkpt><trkpt lat="42.2164603975" lon="13.4156313166"><ele>1614.99</ele><time>2026-03-11T16:10:53Z</time><extensions><gpxtpx:TrackPointExtension><gpxtpx:atemp>2.7</gpxtpx:atemp></gpxtpx:TrackPointExtension></extensions></trkpt><trkpt lat="42.2164696176" lon="13.4156309813"><ele>1614.90</ele><time>2026-03-11T16:10:54Z</time><extensions><gpxtpx:TrackPointExtension><gpxtpx:atemp>2.7</gpxtpx:atemp></gpxtpx:TrackPointExtension></extensions></trkpt><trkpt lat="42.2164770775" lon="13.4156201687"><ele>1614.84</ele><time>2026-03-11T16:10:55Z</time><extensions><gpxtpx:TrackPointExtension><gpxtpx:atemp>2.7</gpxtpx:atemp></gpxtpx:TrackPointExtension></extensions></trkpt><trkpt lat="42.2164873872" lon="13.4156170674"><ele>1614.66</ele><time>2026-03-11T16:10:56Z</time><extensions><gpxtpx:TrackPointExtension><gpxtpx:atemp>2.7</gpxtpx:atemp></gpxtpx:TrackPointExtension></extensions></trkpt><trkpt lat="42.2164958529" lon="13.4156142175"><ele>1614.53</ele><time>2026-03-11T16:10:57Z</time><extensions><gpxtpx:TrackPointExtension><gpxtpx:atemp>2.7</gpxtpx:atemp></gpxtpx:TrackPointExtension></extensions></trkpt><trkpt lat="42.2165036481" lon="13.4156124573"><ele>1614.43</ele><time>2026-03-11T16:10:58Z</time><extensions><gpxtpx:TrackPointExtension><gpxtpx:atemp>2.7</gpxtpx:atemp></gpxtpx:TrackPointExtension></extensions></trkpt><trkpt lat="42.2165104374" lon="13.4156076796"><ele>1614.37</ele><time>2026-03-11T16:10:59Z</time><extensions><gpxtpx:TrackPointExtension><gpxtpx:atemp>2.7</gpxtpx:atemp></gpxtpx:TrackPointExtension></extensions></trkpt><trkpt lat="42.2165189870" lon="13.4156056680"><ele>1614.33</ele><time>2026-03-11T16:11:00Z</time><extensions><gpxtpx:TrackPointExtension><gpxtpx:atemp>2.7</gpxtpx:atemp></gpxtpx:TrackPointExtension></extensions></trkpt><trkpt lat="42.2165289614" lon="13.4156004712"><ele>1614.29</ele><time>2026-03-11T16:11:01Z</time><extensions><gpxtpx:TrackPointExtension><gpxtpx:atemp>2.7</gpxtpx:atemp></gpxtpx:TrackPointExtension></extensions></trkpt><trkpt lat="42.2165387683" lon="13.4155933466"><ele>1614.27</ele><time>2026-03-11T16:11:02Z</time><extensions><gpxtpx:TrackPointExtension><gpxtpx:atemp>2.7</gpxtpx:atemp></gpxtpx:TrackPointExtension></extensions></trkpt><trkpt lat="42.2165467311" lon="13.4155926760"><ele>1614.25</ele><time>2026-03-11T16:11:03Z</time><extensions><gpxtpx:TrackPointExtension><gpxtpx:atemp>2.7</gpxtpx:atemp></gpxtpx:TrackPointExtension></extensions></trkpt><trkpt lat="42.2165552806" lon="13.4155885689"><ele>1614.24</ele><time>2026-03-11T16:11:04Z</time><extensions><gpxtpx:TrackPointExtension><gpxtpx:atemp>2.7</gpxtpx:atemp></gpxtpx:TrackPointExtension></extensions></trkpt><trkpt lat="42.2165627405" lon="13.4155841265"><ele>1614.24</ele><time>2026-03-11T16:11:05Z</time><extensions><gpxtpx:TrackPointExtension><gpxtpx:atemp>2.7</gpxtpx:atemp></gpxtpx:TrackPointExtension></extensions></trkpt><trkpt lat="42.2165697813" lon="13.4155823663"><ele>1614.22</ele><time>2026-03-11T16:11:06Z</time><extensions><gpxtpx:TrackPointExtension><gpxtpx:atemp>2.7</gpxtpx:atemp></gpxtpx:TrackPointExtension></extensions></trkpt><trkpt lat="42.2165796719" lon="13.4155760799"><ele>1614.21</ele><time>2026-03-11T16:11:07Z</time><extensions><gpxtpx:TrackPointExtension><gpxtpx:atemp>2.7</gpxtpx:atemp></gpxtpx:TrackPointExtension></extensions></trkpt><trkpt lat="42.2165889759" lon="13.4155714698"><ele>1614.19</ele><time>2026-03-11T16:11:08Z</time><extensions><gpxtpx:TrackPointExtension><gpxtpx:atemp>2.7</gpxtpx:atemp></gpxtpx:TrackPointExtension></extensions></trkpt><trkpt lat="42.2165967710" lon="13.4155693743"><ele>1614.16</ele><time>2026-03-11T16:11:09Z</time><extensions><gpxtpx:TrackPointExtension><gpxtpx:atemp>2.7</gpxtpx:atemp></gpxtpx:TrackPointExtension></extensions></trkpt><trkpt lat="42.2166050691" lon="13.4155623335"><ele>1614.15</ele><time>2026-03-11T16:11:10Z</time><extensions><gpxtpx:TrackPointExtension><gpxtpx:atemp>2.7</gpxtpx:atemp></gpxtpx:TrackPointExtension></extensions></trkpt><trkpt lat="42.2166133672" lon="13.4155597351"><ele>1614.12</ele><time>2026-03-11T16:11:11Z</time><extensions><gpxtpx:TrackPointExtension><gpxtpx:atemp>2.7</gpxtpx:atemp></gpxtpx:TrackPointExtension></extensions></trkpt><trkpt lat="42.2166203242" lon="13.4155532811"><ele>1614.07</ele><time>2026-03-11T16:11:12Z</time><extensions><gpxtpx:TrackPointExtension><gpxtpx:atemp>2.7</gpxtpx:atemp></gpxtpx:TrackPointExtension></extensions></trkpt><trkpt lat="42.2166274488" lon="13.4155496769"><ele>1614.01</ele><time>2026-03-11T16:11:13Z</time><extensions><gpxtpx:TrackPointExtension><gpxtpx:atemp>2.7</gpxtpx:atemp></gpxtpx:TrackPointExtension></extensions></trkpt><trkpt lat="42.2166357469" lon="13.4155471623"><ele>1614.01</ele><time>2026-03-11T16:11:14Z</time><extensions><gpxtpx:TrackPointExtension><gpxtpx:atemp>2.7</gpxtpx:atemp></gpxtpx:TrackPointExtension></extensions></trkpt><trkpt lat="42.2166439611" lon="13.4155430552"><ele>1614.03</ele><time>2026-03-11T16:11:15Z</time><extensions><gpxtpx:TrackPointExtension><gpxtpx:atemp>2.7</gpxtpx:atemp></gpxtpx:TrackPointExtension></extensions></trkpt><trkpt lat="42.2166517563" lon="13.4155387804"><ele>1614.05</ele><time>2026-03-11T16:11:16Z</time><extensions><gpxtpx:TrackPointExtension><gpxtpx:atemp>2.7</gpxtpx:atemp></gpxtpx:TrackPointExtension></extensions></trkpt><trkpt lat="42.2166587971" lon="13.4155337512"><ele>1614.06</ele><time>2026-03-11T16:11:17Z</time><extensions><gpxtpx:TrackPointExtension><gpxtpx:atemp>2.7</gpxtpx:atemp></gpxtpx:TrackPointExtension></extensions></trkpt><trkpt lat="42.2166626528" lon="13.4155319910"><ele>1614.15</ele><time>2026-03-11T16:11:18Z</time><extensions><gpxtpx:TrackPointExtension><gpxtpx:atemp>2.7</gpxtpx:atemp></gpxtpx:TrackPointExtension></extensions></trkpt><trkpt lat="42.2166694421" lon="13.4155288897"><ele>1614.25</ele><time>2026-03-11T16:11:19Z</time><extensions><gpxtpx:TrackPointExtension><gpxtpx:atemp>2.7</gpxtpx:atemp></gpxtpx:TrackPointExtension></extensions></trkpt><trkpt lat="42.2166764829" lon="13.4155273810"><ele>1614.27</ele><time>2026-03-11T16:11:20Z</time><extensions><gpxtpx:TrackPointExtension><gpxtpx:atemp>2.7</gpxtpx:atemp></gpxtpx:TrackPointExtension></extensions></trkpt><trkpt lat="42.2166842781" lon="13.4155233577"><ele>1614.27</ele><time>2026-03-11T16:11:21Z</time><extensions><gpxtpx:TrackPointExtension><gpxtpx:atemp>2.7</gpxtpx:atemp></gpxtpx:TrackPointExtension></extensions></trkpt><trkpt lat="42.2166917380" lon="13.4155206755"><ele>1614.28</ele><time>2026-03-11T16:11:22Z</time><extensions><gpxtpx:TrackPointExtension><gpxtpx:atemp>2.7</gpxtpx:atemp></gpxtpx:TrackPointExtension></extensions></trkpt><trkpt lat="42.2167000361" lon="13.4155169874"><ele>1614.28</ele><time>2026-03-11T16:11:23Z</time><extensions><gpxtpx:TrackPointExtension><gpxtpx:atemp>2.7</gpxtpx:atemp></gpxtpx:TrackPointExtension></extensions></trkpt><trkpt lat="42.2167092562" lon="13.4155123774"><ele>1614.28</ele><time>2026-03-11T16:11:24Z</time><extensions><gpxtpx:TrackPointExtension><gpxtpx:atemp>2.7</gpxtpx:atemp></gpxtpx:TrackPointExtension></extensions></trkpt><trkpt lat="42.2167179734" lon="13.4155104496"><ele>1614.28</ele><time>2026-03-11T16:11:25Z</time><extensions><gpxtpx:TrackPointExtension><gpxtpx:atemp>2.7</gpxtpx:atemp></gpxtpx:TrackPointExtension></extensions></trkpt><trkpt lat="42.2167270258" lon="13.4155072644"><ele>1614.24</ele><time>2026-03-11T16:11:26Z</time><extensions><gpxtpx:TrackPointExtension><gpxtpx:atemp>2.7</gpxtpx:atemp></gpxtpx:TrackPointExtension></extensions></trkpt><trkpt lat="42.2167337313" lon="13.4155035764"><ele>1614.23</ele><time>2026-03-11T16:11:27Z</time><extensions><gpxtpx:TrackPointExtension><gpxtpx:atemp>2.7</gpxtpx:atemp></gpxtpx:TrackPointExtension></extensions></trkpt><trkpt lat="42.2167420294" lon="13.4155007266"><ele>1614.20</ele><time>2026-03-11T16:11:28Z</time><extensions><gpxtpx:TrackPointExtension><gpxtpx:atemp>2.7</gpxtpx:atemp></gpxtpx:TrackPointExtension></extensions></trkpt><trkpt lat="42.2167497408" lon="13.4154962841"><ele>1614.19</ele><time>2026-03-11T16:11:29Z</time><extensions><gpxtpx:TrackPointExtension><gpxtpx:atemp>2.7</gpxtpx:atemp></gpxtpx:TrackPointExtension></extensions></trkpt><trkpt lat="42.2167575359" lon="13.4154937696"><ele>1614.18</ele><time>2026-03-11T16:11:30Z</time><extensions><gpxtpx:TrackPointExtension><gpxtpx:atemp>2.7</gpxtpx:atemp></gpxtpx:TrackPointExtension></extensions></trkpt><trkpt lat="42.2167653311" lon="13.4154902492"><ele>1614.16</ele><time>2026-03-11T16:11:31Z</time><extensions><gpxtpx:TrackPointExtension><gpxtpx:atemp>2.7</gpxtpx:atemp></gpxtpx:TrackPointExtension></extensions></trkpt><trkpt lat="42.2167740483" lon="13.4154857229"><ele>1614.16</ele><time>2026-03-11T16:11:32Z</time><extensions><gpxtpx:TrackPointExtension><gpxtpx:atemp>2.7</gpxtpx:atemp></gpxtpx:TrackPointExtension></extensions></trkpt><trkpt lat="42.2167826816" lon="13.4154809453"><ele>1614.15</ele><time>2026-03-11T16:11:33Z</time><extensions><gpxtpx:TrackPointExtension><gpxtpx:atemp>2.7</gpxtpx:atemp></gpxtpx:TrackPointExtension></extensions></trkpt><trkpt lat="42.2167931590" lon="13.4154786821"><ele>1614.14</ele><time>2026-03-11T16:11:34Z</time><extensions><gpxtpx:TrackPointExtension><gpxtpx:atemp>2.7</gpxtpx:atemp></gpxtpx:TrackPointExtension></extensions></trkpt><trkpt lat="42.2168044746" lon="13.4154733177"><ele>1614.11</ele><time>2026-03-11T16:11:35Z</time><extensions><gpxtpx:TrackPointExtension><gpxtpx:atemp>2.7</gpxtpx:atemp></gpxtpx:TrackPointExtension></extensions></trkpt><trkpt lat="42.2168111801" lon="13.4154711384"><ele>1614.06</ele><time>2026-03-11T16:11:36Z</time><extensions><gpxtpx:TrackPointExtension><gpxtpx:atemp>2.7</gpxtpx:atemp></gpxtpx:TrackPointExtension></extensions></trkpt><trkpt lat="42.2168199811" lon="13.4154692944"><ele>1614.03</ele><time>2026-03-11T16:11:37Z</time><extensions><gpxtpx:TrackPointExtension><gpxtpx:atemp>2.7</gpxtpx:atemp></gpxtpx:TrackPointExtension></extensions></trkpt><trkpt lat="42.2168297879" lon="13.4154630918"><ele>1613.98</ele><time>2026-03-11T16:11:38Z</time><extensions><gpxtpx:TrackPointExtension><gpxtpx:atemp>2.7</gpxtpx:atemp></gpxtpx:TrackPointExtension></extensions></trkpt><trkpt lat="42.2168366611" lon="13.4154613316"><ele>1613.91</ele><time>2026-03-11T16:11:39Z</time><extensions><gpxtpx:TrackPointExtension><gpxtpx:atemp>2.7</gpxtpx:atemp></gpxtpx:TrackPointExtension></extensions></trkpt><trkpt lat="42.2168439534" lon="13.4154573921"><ele>1613.82</ele><time>2026-03-11T16:11:40Z</time><extensions><gpxtpx:TrackPointExtension><gpxtpx:atemp>2.7</gpxtpx:atemp></gpxtpx:TrackPointExtension></extensions></trkpt><trkpt lat="42.2168513294" lon="13.4154541232"><ele>1613.77</ele><time>2026-03-11T16:11:41Z</time><extensions><gpxtpx:TrackPointExtension><gpxtpx:atemp>2.7</gpxtpx:atemp></gpxtpx:TrackPointExtension></extensions></trkpt><trkpt lat="42.2168587893" lon="13.4154511895"><ele>1613.72</ele><time>2026-03-11T16:11:42Z</time><extensions><gpxtpx:TrackPointExtension><gpxtpx:atemp>2.7</gpxtpx:atemp></gpxtpx:TrackPointExtension></extensions></trkpt><trkpt lat="42.2168658301" lon="13.4154454898"><ele>1613.69</ele><time>2026-03-11T16:11:43Z</time><extensions><gpxtpx:TrackPointExtension><gpxtpx:atemp>2.7</gpxtpx:atemp></gpxtpx:TrackPointExtension></extensions></trkpt><trkpt lat="42.2168746311" lon="13.4154404607"><ele>1613.65</ele><time>2026-03-11T16:11:44Z</time><extensions><gpxtpx:TrackPointExtension><gpxtpx:atemp>2.7</gpxtpx:atemp></gpxtpx:TrackPointExtension></extensions></trkpt><trkpt lat="42.2168832645" lon="13.4154368564"><ele>1613.64</ele><time>2026-03-11T16:11:45Z</time><extensions><gpxtpx:TrackPointExtension><gpxtpx:atemp>2.7</gpxtpx:atemp></gpxtpx:TrackPointExtension></extensions></trkpt><trkpt lat="42.2168916464" lon="13.4154315758"><ele>1613.64</ele><time>2026-03-11T16:11:46Z</time><extensions><gpxtpx:TrackPointExtension><gpxtpx:atemp>2.7</gpxtpx:atemp></gpxtpx:TrackPointExtension></extensions></trkpt><trkpt lat="42.2168999445" lon="13.4154283907"><ele>1613.64</ele><time>2026-03-11T16:11:47Z</time><extensions><gpxtpx:TrackPointExtension><gpxtpx:atemp>2.7</gpxtpx:atemp></gpxtpx:TrackPointExtension></extensions></trkpt><trkpt lat="42.2169076558" lon="13.4154243674"><ele>1613.65</ele><time>2026-03-11T16:11:48Z</time><extensions><gpxtpx:TrackPointExtension><gpxtpx:atemp>2.7</gpxtpx:atemp></gpxtpx:TrackPointExtension></extensions></trkpt><trkpt lat="42.2169153672" lon="13.4154199250"><ele>1613.65</ele><time>2026-03-11T16:11:49Z</time><extensions><gpxtpx:TrackPointExtension><gpxtpx:atemp>2.7</gpxtpx:atemp></gpxtpx:TrackPointExtension></extensions></trkpt><trkpt lat="42.2169224918" lon="13.4154168237"><ele>1613.66</ele><time>2026-03-11T16:11:50Z</time><extensions><gpxtpx:TrackPointExtension><gpxtpx:atemp>2.7</gpxtpx:atemp></gpxtpx:TrackPointExtension></extensions></trkpt><trkpt lat="42.2169307899" lon="13.4154118784"><ele>1613.66</ele><time>2026-03-11T16:11:51Z</time><extensions><gpxtpx:TrackPointExtension><gpxtpx:atemp>2.7</gpxtpx:atemp></gpxtpx:TrackPointExtension></extensions></trkpt><trkpt lat="42.2169391718" lon="13.4154057596"><ele>1613.66</ele><time>2026-03-11T16:11:52Z</time><extensions><gpxtpx:TrackPointExtension><gpxtpx:atemp>2.7</gpxtpx:atemp></gpxtpx:TrackPointExtension></extensions></trkpt><trkpt lat="42.2169466317" lon="13.4154028259"><ele>1613.62</ele><time>2026-03-11T16:11:53Z</time><extensions><gpxtpx:TrackPointExtension><gpxtpx:atemp>2.7</gpxtpx:atemp></gpxtpx:TrackPointExtension></extensions></trkpt><trkpt lat="42.2169544268" lon="13.4153987188"><ele>1613.49</ele><time>2026-03-11T16:11:54Z</time><extensions><gpxtpx:TrackPointExtension><gpxtpx:atemp>2.7</gpxtpx:atemp></gpxtpx:TrackPointExtension></extensions></trkpt><trkpt lat="42.2169623896" lon="13.4153980482"><ele>1613.42</ele><time>2026-03-11T16:11:55Z</time><extensions><gpxtpx:TrackPointExtension><gpxtpx:atemp>2.7</gpxtpx:atemp></gpxtpx:TrackPointExtension></extensions></trkpt><trkpt lat="42.2169715259" lon="13.4153944440"><ele>1613.37</ele><time>2026-03-11T16:11:56Z</time><extensions><gpxtpx:TrackPointExtension><gpxtpx:atemp>2.7</gpxtpx:atemp></gpxtpx:TrackPointExtension></extensions></trkpt><trkpt lat="42.2169786505" lon="13.4153893311"><ele>1613.34</ele><time>2026-03-11T16:11:57Z</time><extensions><gpxtpx:TrackPointExtension><gpxtpx:atemp>2.7</gpxtpx:atemp></gpxtpx:TrackPointExtension></extensions></trkpt><trkpt lat="42.2169848531" lon="13.4153879900"><ele>1613.31</ele><time>2026-03-11T16:11:58Z</time><extensions><gpxtpx:TrackPointExtension><gpxtpx:atemp>2.7</gpxtpx:atemp></gpxtpx:TrackPointExtension></extensions></trkpt><trkpt lat="42.2169926483" lon="13.4153841343"><ele>1613.27</ele><time>2026-03-11T16:11:59Z</time><extensions><gpxtpx:TrackPointExtension><gpxtpx:atemp>2.7</gpxtpx:atemp></gpxtpx:TrackPointExtension></extensions></trkpt><trkpt lat="42.2170006949" lon="13.4153780993"><ele>1613.25</ele><time>2026-03-11T16:12:00Z</time><extensions><gpxtpx:TrackPointExtension><gpxtpx:atemp>2.7</gpxtpx:atemp></gpxtpx:TrackPointExtension></extensions></trkpt><trkpt lat="42.2170103341" lon="13.4153735731"><ele>1613.24</ele><time>2026-03-11T16:12:01Z</time><extensions><gpxtpx:TrackPointExtension><gpxtpx:atemp>2.7</gpxtpx:atemp></gpxtpx:TrackPointExtension></extensions></trkpt><trkpt lat="42.2170181293" lon="13.4153693821"><ele>1613.23</ele><time>2026-03-11T16:12:02Z</time><extensions><gpxtpx:TrackPointExtension><gpxtpx:atemp>2.7</gpxtpx:atemp></gpxtpx:TrackPointExtension></extensions></trkpt><trkpt lat="42.2170264274" lon="13.4153665323"><ele>1613.22</ele><time>2026-03-11T16:12:03Z</time><extensions><gpxtpx:TrackPointExtension><gpxtpx:atemp>2.7</gpxtpx:atemp></gpxtpx:TrackPointExtension></extensions></trkpt><trkpt lat="42.2170349769" lon="13.4153619222"><ele>1613.21</ele><time>2026-03-11T16:12:04Z</time><extensions><gpxtpx:TrackPointExtension><gpxtpx:atemp>2.7</gpxtpx:atemp></gpxtpx:TrackPointExtension></extensions></trkpt><trkpt lat="42.2170432750" lon="13.4153573960"><ele>1613.15</ele><time>2026-03-11T16:12:05Z</time><extensions><gpxtpx:TrackPointExtension><gpxtpx:atemp>2.7</gpxtpx:atemp></gpxtpx:TrackPointExtension></extensions></trkpt><trkpt lat="42.2170514893" lon="13.4153553843"><ele>1613.10</ele><time>2026-03-11T16:12:06Z</time><extensions><gpxtpx:TrackPointExtension><gpxtpx:atemp>2.7</gpxtpx:atemp></gpxtpx:TrackPointExtension></extensions></trkpt><trkpt lat="42.2170596197" lon="13.4153516963"><ele>1613.05</ele><time>2026-03-11T16:12:07Z</time><extensions><gpxtpx:TrackPointExtension><gpxtpx:atemp>2.7</gpxtpx:atemp></gpxtpx:TrackPointExtension></extensions></trkpt><trkpt lat="42.2170687560" lon="13.4153461643"><ele>1612.95</ele><time>2026-03-11T16:12:08Z</time><extensions><gpxtpx:TrackPointExtension><gpxtpx:atemp>2.7</gpxtpx:atemp></gpxtpx:TrackPointExtension></extensions></trkpt><trkpt lat="42.2170773894" lon="13.4153431468"><ele>1612.87</ele><time>2026-03-11T16:12:09Z</time><extensions><gpxtpx:TrackPointExtension><gpxtpx:atemp>2.7</gpxtpx:atemp></gpxtpx:TrackPointExtension></extensions></trkpt><trkpt lat="42.2170844302" lon="13.4153389558"><ele>1612.82</ele><time>2026-03-11T16:12:10Z</time><extensions><gpxtpx:TrackPointExtension><gpxtpx:atemp>2.7</gpxtpx:atemp></gpxtpx:TrackPointExtension></extensions></trkpt><trkpt lat="42.2170911357" lon="13.4153350163"><ele>1612.81</ele><time>2026-03-11T16:12:11Z</time><extensions><gpxtpx:TrackPointExtension><gpxtpx:atemp>2.7</gpxtpx:atemp></gpxtpx:TrackPointExtension></extensions></trkpt><trkpt lat="42.2170996852" lon="13.4153316636"><ele>1612.80</ele><time>2026-03-11T16:12:12Z</time><extensions><gpxtpx:TrackPointExtension><gpxtpx:atemp>2.7</gpxtpx:atemp></gpxtpx:TrackPointExtension></extensions></trkpt><trkpt lat="42.2171061393" lon="13.4153271373"><ele>1612.80</ele><time>2026-03-11T16:12:13Z</time><extensions><gpxtpx:TrackPointExtension><gpxtpx:atemp>2.7</gpxtpx:atemp></gpxtpx:TrackPointExtension></extensions></trkpt><trkpt lat="42.2171134315" lon="13.4153216891"><ele>1612.82</ele><time>2026-03-11T16:12:14Z</time><extensions><gpxtpx:TrackPointExtension><gpxtpx:atemp>2.7</gpxtpx:atemp></gpxtpx:TrackPointExtension></extensions></trkpt><trkpt lat="42.2171221487" lon="13.4153169952"><ele>1612.86</ele><time>2026-03-11T16:12:15Z</time><extensions><gpxtpx:TrackPointExtension><gpxtpx:atemp>2.7</gpxtpx:atemp></gpxtpx:TrackPointExtension></extensions></trkpt><trkpt lat="42.2171300277" lon="13.4153118823"><ele>1612.88</ele><time>2026-03-11T16:12:16Z</time><extensions><gpxtpx:TrackPointExtension><gpxtpx:atemp>2.7</gpxtpx:atemp></gpxtpx:TrackPointExtension></extensions></trkpt><trkpt lat="42.2171372361" lon="13.4153089486"><ele>1612.92</ele><time>2026-03-11T16:12:17Z</time><extensions><gpxtpx:TrackPointExtension><gpxtpx:atemp>2.7</gpxtpx:atemp></gpxtpx:TrackPointExtension></extensions></trkpt><trkpt lat="42.2171457857" lon="13.4153051767"><ele>1612.92</ele><time>2026-03-11T16:12:18Z</time><extensions><gpxtpx:TrackPointExtension><gpxtpx:atemp>2.7</gpxtpx:atemp></gpxtpx:TrackPointExtension></extensions></trkpt><trkpt lat="42.2171545867" lon="13.4153001476"><ele>1612.90</ele><time>2026-03-11T16:12:19Z</time><extensions><gpxtpx:TrackPointExtension><gpxtpx:atemp>2.7</gpxtpx:atemp></gpxtpx:TrackPointExtension></extensions></trkpt><trkpt lat="42.2171606217" lon="13.4152979683"><ele>1612.89</ele><time>2026-03-11T16:12:20Z</time><extensions><gpxtpx:TrackPointExtension><gpxtpx:atemp>2.7</gpxtpx:atemp></gpxtpx:TrackPointExtension></extensions></trkpt><trkpt lat="42.2171685845" lon="13.4152938612"><ele>1612.89</ele><time>2026-03-11T16:12:21Z</time><extensions><gpxtpx:TrackPointExtension><gpxtpx:atemp>2.7</gpxtpx:atemp></gpxtpx:TrackPointExtension></extensions></trkpt><trkpt lat="42.2171787266" lon="13.4152865689"><ele>1612.90</ele><time>2026-03-11T16:12:22Z</time><extensions><gpxtpx:TrackPointExtension><gpxtpx:atemp>2.7</gpxtpx:atemp></gpxtpx:TrackPointExtension></extensions></trkpt><trkpt lat="42.2171868570" lon="13.4152833838"><ele>1612.90</ele><time>2026-03-11T16:12:23Z</time><extensions><gpxtpx:TrackPointExtension><gpxtpx:atemp>2.7</gpxtpx:atemp></gpxtpx:TrackPointExtension></extensions></trkpt><trkpt lat="42.2171953227" lon="13.4152794443"><ele>1612.90</ele><time>2026-03-11T16:12:24Z</time><extensions><gpxtpx:TrackPointExtension><gpxtpx:atemp>2.7</gpxtpx:atemp></gpxtpx:TrackPointExtension></extensions></trkpt><trkpt lat="42.2172025312" lon="13.4152733255"><ele>1612.92</ele><time>2026-03-11T16:12:25Z</time><extensions><gpxtpx:TrackPointExtension><gpxtpx:atemp>2.7</gpxtpx:atemp></gpxtpx:TrackPointExtension></extensions></trkpt><trkpt lat="42.2172117513" lon="13.4152708948"><ele>1612.95</ele><time>2026-03-11T16:12:26Z</time><extensions><gpxtpx:TrackPointExtension><gpxtpx:atemp>2.7</gpxtpx:atemp></gpxtpx:TrackPointExtension></extensions></trkpt><trkpt lat="42.2172210552" lon="13.4152660333"><ele>1613.01</ele><time>2026-03-11T16:12:27Z</time><extensions><gpxtpx:TrackPointExtension><gpxtpx:atemp>2.7</gpxtpx:atemp></gpxtpx:TrackPointExtension></extensions></trkpt><trkpt lat="42.2172301915" lon="13.4152639378"><ele>1613.04</ele><time>2026-03-11T16:12:28Z</time><extensions><gpxtpx:TrackPointExtension><gpxtpx:atemp>2.7</gpxtpx:atemp></gpxtpx:TrackPointExtension></extensions></trkpt><trkpt lat="42.2172366455" lon="13.4152574837"><ele>1613.07</ele><time>2026-03-11T16:12:29Z</time><extensions><gpxtpx:TrackPointExtension><gpxtpx:atemp>2.7</gpxtpx:atemp></gpxtpx:TrackPointExtension></extensions></trkpt><trkpt lat="42.2172432672" lon="13.4152549691"><ele>1613.08</ele><time>2026-03-11T16:12:30Z</time><extensions><gpxtpx:TrackPointExtension><gpxtpx:atemp>2.7</gpxtpx:atemp></gpxtpx:TrackPointExtension></extensions></trkpt><trkpt lat="42.2172490507" lon="13.4152546339"><ele>1613.09</ele><time>2026-03-11T16:12:31Z</time><extensions><gpxtpx:TrackPointExtension><gpxtpx:atemp>2.7</gpxtpx:atemp></gpxtpx:TrackPointExtension></extensions></trkpt><trkpt lat="42.2172564268" lon="13.4152513649"><ele>1613.09</ele><time>2026-03-11T16:12:32Z</time><extensions><gpxtpx:TrackPointExtension><gpxtpx:atemp>3.0</gpxtpx:atemp></gpxtpx:TrackPointExtension></extensions></trkpt><trkpt lat="42.2172617912" lon="13.4152465872"><ele>1613.09</ele><time>2026-03-11T16:12:33Z</time><extensions><gpxtpx:TrackPointExtension><gpxtpx:atemp>3.0</gpxtpx:atemp></gpxtpx:TrackPointExtension></extensions></trkpt><trkpt lat="42.2172683291" lon="13.4152434859"><ele>1613.09</ele><time>2026-03-11T16:12:34Z</time><extensions><gpxtpx:TrackPointExtension><gpxtpx:atemp>3.0</gpxtpx:atemp></gpxtpx:TrackPointExtension></extensions></trkpt><trkpt lat="42.2172752861" lon="13.4152393788"><ele>1613.09</ele><time>2026-03-11T16:12:35Z</time><extensions><gpxtpx:TrackPointExtension><gpxtpx:atemp>3.0</gpxtpx:atemp></gpxtpx:TrackPointExtension></extensions></trkpt><trkpt lat="42.2172824945" lon="13.4152372833"><ele>1613.10</ele><time>2026-03-11T16:12:36Z</time><extensions><gpxtpx:TrackPointExtension><gpxtpx:atemp>3.0</gpxtpx:atemp></gpxtpx:TrackPointExtension></extensions></trkpt><trkpt lat="42.2172902897" lon="13.4152339306"><ele>1613.10</ele><time>2026-03-11T16:12:37Z</time><extensions><gpxtpx:TrackPointExtension><gpxtpx:atemp>3.0</gpxtpx:atemp></gpxtpx:TrackPointExtension></extensions></trkpt><trkpt lat="42.2172968276" lon="13.4152292367"><ele>1613.10</ele><time>2026-03-11T16:12:38Z</time><extensions><gpxtpx:TrackPointExtension><gpxtpx:atemp>3.0</gpxtpx:atemp></gpxtpx:TrackPointExtension></extensions></trkpt><trkpt lat="42.2173035331" lon="13.4152287338"><ele>1613.10</ele><time>2026-03-11T16:12:39Z</time><extensions><gpxtpx:TrackPointExtension><gpxtpx:atemp>3.0</gpxtpx:atemp></gpxtpx:TrackPointExtension></extensions></trkpt><trkpt lat="42.2173112445" lon="13.4152250458"><ele>1613.07</ele><time>2026-03-11T16:12:40Z</time><extensions><gpxtpx:TrackPointExtension><gpxtpx:atemp>3.0</gpxtpx:atemp></gpxtpx:TrackPointExtension></extensions></trkpt><trkpt lat="42.2173188720" lon="13.4152210224"><ele>1613.06</ele><time>2026-03-11T16:12:41Z</time><extensions><gpxtpx:TrackPointExtension><gpxtpx:atemp>3.0</gpxtpx:atemp></gpxtpx:TrackPointExtension></extensions></trkpt><trkpt lat="42.2173261642" lon="13.4152194299"><ele>1613.04</ele><time>2026-03-11T16:12:42Z</time><extensions><gpxtpx:TrackPointExtension><gpxtpx:atemp>3.0</gpxtpx:atemp></gpxtpx:TrackPointExtension></extensions></trkpt><trkpt lat="42.2173336241" lon="13.4152153227"><ele>1613.02</ele><time>2026-03-11T16:12:43Z</time><extensions><gpxtpx:TrackPointExtension><gpxtpx:atemp>3.0</gpxtpx:atemp></gpxtpx:TrackPointExtension></extensions></trkpt><trkpt lat="42.2173411679" lon="13.4152129758"><ele>1613.01</ele><time>2026-03-11T16:12:44Z</time><extensions><gpxtpx:TrackPointExtension><gpxtpx:atemp>3.0</gpxtpx:atemp></gpxtpx:TrackPointExtension></extensions></trkpt><trkpt lat="42.2173473705" lon="13.4152104612"><ele>1612.99</ele><time>2026-03-11T16:12:45Z</time><extensions><gpxtpx:TrackPointExtension><gpxtpx:atemp>3.0</gpxtpx:atemp></gpxtpx:TrackPointExtension></extensions></trkpt><trkpt lat="42.2173544951" lon="13.4152072761"><ele>1612.97</ele><time>2026-03-11T16:12:46Z</time><extensions><gpxtpx:TrackPointExtension><gpxtpx:atemp>3.0</gpxtpx:atemp></gpxtpx:TrackPointExtension></extensions></trkpt><trkpt lat="42.2173612844" lon="13.4152061865"><ele>1612.96</ele><time>2026-03-11T16:12:47Z</time><extensions><gpxtpx:TrackPointExtension><gpxtpx:atemp>3.0</gpxtpx:atemp></gpxtpx:TrackPointExtension></extensions></trkpt><trkpt lat="42.2173680738" lon="13.4152039234"><ele>1612.95</ele><time>2026-03-11T16:12:48Z</time><extensions><gpxtpx:TrackPointExtension><gpxtpx:atemp>3.0</gpxtpx:atemp></gpxtpx:TrackPointExtension></extensions></trkpt><trkpt lat="42.2173764557" lon="13.4152005706"><ele>1612.94</ele><time>2026-03-11T16:12:49Z</time><extensions><gpxtpx:TrackPointExtension><gpxtpx:atemp>3.0</gpxtpx:atemp></gpxtpx:TrackPointExtension></extensions></trkpt><trkpt lat="42.2173826583" lon="13.4151971340"><ele>1612.93</ele><time>2026-03-11T16:12:50Z</time><extensions><gpxtpx:TrackPointExtension><gpxtpx:atemp>3.0</gpxtpx:atemp></gpxtpx:TrackPointExtension></extensions></trkpt><trkpt lat="42.2173910402" lon="13.4151932783"><ele>1612.93</ele><time>2026-03-11T16:12:51Z</time><extensions><gpxtpx:TrackPointExtension><gpxtpx:atemp>3.0</gpxtpx:atemp></gpxtpx:TrackPointExtension></extensions></trkpt><trkpt lat="42.2173989192" lon="13.4151899256"><ele>1612.95</ele><time>2026-03-11T16:12:52Z</time><extensions><gpxtpx:TrackPointExtension><gpxtpx:atemp>3.0</gpxtpx:atemp></gpxtpx:TrackPointExtension></extensions></trkpt><trkpt lat="42.2174077202" lon="13.4151850641"><ele>1612.97</ele><time>2026-03-11T16:12:53Z</time><extensions><gpxtpx:TrackPointExtension><gpxtpx:atemp>3.0</gpxtpx:atemp></gpxtpx:TrackPointExtension></extensions></trkpt><trkpt lat="42.2174144257" lon="13.4151812922"><ele>1612.99</ele><time>2026-03-11T16:12:54Z</time><extensions><gpxtpx:TrackPointExtension><gpxtpx:atemp>3.0</gpxtpx:atemp></gpxtpx:TrackPointExtension></extensions></trkpt><trkpt lat="42.2174222209" lon="13.4151783586"><ele>1613.00</ele><time>2026-03-11T16:12:55Z</time><extensions><gpxtpx:TrackPointExtension><gpxtpx:atemp>3.0</gpxtpx:atemp></gpxtpx:TrackPointExtension></extensions></trkpt><trkpt lat="42.2174305189" lon="13.4151732456"><ele>1613.02</ele><time>2026-03-11T16:12:56Z</time><extensions><gpxtpx:TrackPointExtension><gpxtpx:atemp>3.0</gpxtpx:atemp></gpxtpx:TrackPointExtension></extensions></trkpt><trkpt lat="42.2174379788" lon="13.4151681326"><ele>1613.03</ele><time>2026-03-11T16:12:57Z</time><extensions><gpxtpx:TrackPointExtension><gpxtpx:atemp>3.0</gpxtpx:atemp></gpxtpx:TrackPointExtension></extensions></trkpt><trkpt lat="42.2174439300" lon="13.4151667915"><ele>1613.06</ele><time>2026-03-11T16:12:58Z</time><extensions><gpxtpx:TrackPointExtension><gpxtpx:atemp>3.0</gpxtpx:atemp></gpxtpx:TrackPointExtension></extensions></trkpt><trkpt lat="42.2174502164" lon="13.4151633549"><ele>1613.08</ele><time>2026-03-11T16:12:59Z</time><extensions><gpxtpx:TrackPointExtension><gpxtpx:atemp>3.0</gpxtpx:atemp></gpxtpx:TrackPointExtension></extensions></trkpt><trkpt lat="42.2174588498" lon="13.4151587449"><ele>1613.11</ele><time>2026-03-11T16:13:00Z</time><extensions><gpxtpx:TrackPointExtension><gpxtpx:atemp>3.0</gpxtpx:atemp></gpxtpx:TrackPointExtension></extensions></trkpt><trkpt lat="42.2174665611" lon="13.4151545539"><ele>1613.16</ele><time>2026-03-11T16:13:01Z</time><extensions><gpxtpx:TrackPointExtension><gpxtpx:atemp>3.0</gpxtpx:atemp></gpxtpx:TrackPointExtension></extensions></trkpt><trkpt lat="42.2174747754" lon="13.4151523747"><ele>1613.21</ele><time>2026-03-11T16:13:02Z</time><extensions><gpxtpx:TrackPointExtension><gpxtpx:atemp>3.0</gpxtpx:atemp></gpxtpx:TrackPointExtension></extensions></trkpt><trkpt lat="42.2174812295" lon="13.4151486866"><ele>1613.27</ele><time>2026-03-11T16:13:03Z</time><extensions><gpxtpx:TrackPointExtension><gpxtpx:atemp>3.0</gpxtpx:atemp></gpxtpx:TrackPointExtension></extensions></trkpt><trkpt lat="42.2174904495" lon="13.4151421487"><ele>1613.29</ele><time>2026-03-11T16:13:04Z</time><extensions><gpxtpx:TrackPointExtension><gpxtpx:atemp>3.0</gpxtpx:atemp></gpxtpx:TrackPointExtension></extensions></trkpt><trkpt lat="42.2174991667" lon="13.4151401371"><ele>1613.31</ele><time>2026-03-11T16:13:05Z</time><extensions><gpxtpx:TrackPointExtension><gpxtpx:atemp>3.0</gpxtpx:atemp></gpxtpx:TrackPointExtension></extensions></trkpt><trkpt lat="42.2175053693" lon="13.4151379578"><ele>1613.31</ele><time>2026-03-11T16:13:06Z</time><extensions><gpxtpx:TrackPointExtension><gpxtpx:atemp>3.0</gpxtpx:atemp></gpxtpx:TrackPointExtension></extensions></trkpt><trkpt lat="42.2175143380" lon="13.4151337668"><ele>1613.31</ele><time>2026-03-11T16:13:07Z</time><extensions><gpxtpx:TrackPointExtension><gpxtpx:atemp>3.0</gpxtpx:atemp></gpxtpx:TrackPointExtension></extensions></trkpt><trkpt lat="42.2175217979" lon="13.4151302464"><ele>1613.31</ele><time>2026-03-11T16:13:08Z</time><extensions><gpxtpx:TrackPointExtension><gpxtpx:atemp>3.0</gpxtpx:atemp></gpxtpx:TrackPointExtension></extensions></trkpt><trkpt lat="42.2175298445" lon="13.4151270613"><ele>1613.31</ele><time>2026-03-11T16:13:09Z</time><extensions><gpxtpx:TrackPointExtension><gpxtpx:atemp>3.0</gpxtpx:atemp></gpxtpx:TrackPointExtension></extensions></trkpt><trkpt lat="42.2175377235" lon="13.4151229542"><ele>1613.31</ele><time>2026-03-11T16:13:10Z</time><extensions><gpxtpx:TrackPointExtension><gpxtpx:atemp>3.0</gpxtpx:atemp></gpxtpx:TrackPointExtension></extensions></trkpt><trkpt lat="42.2175457701" lon="13.4151209425"><ele>1613.36</ele><time>2026-03-11T16:13:11Z</time><extensions><gpxtpx:TrackPointExtension><gpxtpx:atemp>3.0</gpxtpx:atemp></gpxtpx:TrackPointExtension></extensions></trkpt><trkpt lat="42.2175552417" lon="13.4151176736"><ele>1613.40</ele><time>2026-03-11T16:13:12Z</time><extensions><gpxtpx:TrackPointExtension><gpxtpx:atemp>3.0</gpxtpx:atemp></gpxtpx:TrackPointExtension></extensions></trkpt><trkpt lat="42.2175633721" lon="13.4151155781"><ele>1613.45</ele><time>2026-03-11T16:13:13Z</time><extensions><gpxtpx:TrackPointExtension><gpxtpx:atemp>3.0</gpxtpx:atemp></gpxtpx:TrackPointExtension></extensions></trkpt><trkpt lat="42.2175691556" lon="13.4151140694"><ele>1613.48</ele><time>2026-03-11T16:13:14Z</time><extensions><gpxtpx:TrackPointExtension><gpxtpx:atemp>3.0</gpxtpx:atemp></gpxtpx:TrackPointExtension></extensions></trkpt><trkpt lat="42.2175766993" lon="13.4151073638"><ele>1613.48</ele><time>2026-03-11T16:13:15Z</time><extensions><gpxtpx:TrackPointExtension><gpxtpx:atemp>3.0</gpxtpx:atemp></gpxtpx:TrackPointExtension></extensions></trkpt><trkpt lat="42.2175839916" lon="13.4151006583"><ele>1613.48</ele><time>2026-03-11T16:13:16Z</time><extensions><gpxtpx:TrackPointExtension><gpxtpx:atemp>3.0</gpxtpx:atemp></gpxtpx:TrackPointExtension></extensions></trkpt><trkpt lat="42.2175919544" lon="13.4150974732"><ele>1613.48</ele><time>2026-03-11T16:13:17Z</time><extensions><gpxtpx:TrackPointExtension><gpxtpx:atemp>3.0</gpxtpx:atemp></gpxtpx:TrackPointExtension></extensions></trkpt><trkpt lat="42.2175994981" lon="13.4150907677"><ele>1613.48</ele><time>2026-03-11T16:13:18Z</time><extensions><gpxtpx:TrackPointExtension><gpxtpx:atemp>3.0</gpxtpx:atemp></gpxtpx:TrackPointExtension></extensions></trkpt><trkpt lat="42.2176081315" lon="13.4150832240"><ele>1613.48</ele><time>2026-03-11T16:13:19Z</time><extensions><gpxtpx:TrackPointExtension><gpxtpx:atemp>3.0</gpxtpx:atemp></gpxtpx:TrackPointExtension></extensions></trkpt><trkpt lat="42.2176164296" lon="13.4150780272"><ele>1613.48</ele><time>2026-03-11T16:13:20Z</time><extensions><gpxtpx:TrackPointExtension><gpxtpx:atemp>3.0</gpxtpx:atemp></gpxtpx:TrackPointExtension></extensions></trkpt><trkpt lat="42.2176224645" lon="13.4150694776"><ele>1613.48</ele><time>2026-03-11T16:13:21Z</time><extensions><gpxtpx:TrackPointExtension><gpxtpx:atemp>3.0</gpxtpx:atemp></gpxtpx:TrackPointExtension></extensions></trkpt><trkpt lat="42.2176293377" lon="13.4150634427"><ele>1613.52</ele><time>2026-03-11T16:13:22Z</time><extensions><gpxtpx:TrackPointExtension><gpxtpx:atemp>3.0</gpxtpx:atemp></gpxtpx:TrackPointExtension></extensions></trkpt><trkpt lat="42.2176361270" lon="13.4150550608"><ele>1613.59</ele><time>2026-03-11T16:13:23Z</time><extensions><gpxtpx:TrackPointExtension><gpxtpx:atemp>3.0</gpxtpx:atemp></gpxtpx:TrackPointExtension></extensions></trkpt><trkpt lat="42.2176431678" lon="13.4150476847"><ele>1613.60</ele><time>2026-03-11T16:13:24Z</time><extensions><gpxtpx:TrackPointExtension><gpxtpx:atemp>3.0</gpxtpx:atemp></gpxtpx:TrackPointExtension></extensions></trkpt><trkpt lat="42.2176505439" lon="13.4150357824"><ele>1613.64</ele><time>2026-03-11T16:13:25Z</time><extensions><gpxtpx:TrackPointExtension><gpxtpx:atemp>3.0</gpxtpx:atemp></gpxtpx:TrackPointExtension></extensions></trkpt><trkpt lat="42.2176576685" lon="13.4150262270"><ele>1613.67</ele><time>2026-03-11T16:13:26Z</time><extensions><gpxtpx:TrackPointExtension><gpxtpx:atemp>3.0</gpxtpx:atemp></gpxtpx:TrackPointExtension></extensions></trkpt><trkpt lat="42.2176630329" lon="13.4150194377"><ele>1613.68</ele><time>2026-03-11T16:13:27Z</time><extensions><gpxtpx:TrackPointExtension><gpxtpx:atemp>3.0</gpxtpx:atemp></gpxtpx:TrackPointExtension></extensions></trkpt><trkpt lat="42.2176699899" lon="13.4150109719"><ele>1613.66</ele><time>2026-03-11T16:13:28Z</time><extensions><gpxtpx:TrackPointExtension><gpxtpx:atemp>3.0</gpxtpx:atemp></gpxtpx:TrackPointExtension></extensions></trkpt><trkpt lat="42.2176757734" lon="13.4150035959"><ele>1613.62</ele><time>2026-03-11T16:13:29Z</time><extensions><gpxtpx:TrackPointExtension><gpxtpx:atemp>3.0</gpxtpx:atemp></gpxtpx:TrackPointExtension></extensions></trkpt><trkpt lat="42.2176827304" lon="13.4149967227"><ele>1613.51</ele><time>2026-03-11T16:13:30Z</time><extensions><gpxtpx:TrackPointExtension><gpxtpx:atemp>3.0</gpxtpx:atemp></gpxtpx:TrackPointExtension></extensions></trkpt><trkpt lat="42.2176874243" lon="13.4149939567"><ele>1613.39</ele><time>2026-03-11T16:13:31Z</time><extensions><gpxtpx:TrackPointExtension><gpxtpx:atemp>3.0</gpxtpx:atemp></gpxtpx:TrackPointExtension></extensions></trkpt><trkpt lat="42.2176916990" lon="13.4149891790"><ele>1613.26</ele><time>2026-03-11T16:13:32Z</time><extensions><gpxtpx:TrackPointExtension><gpxtpx:atemp>2.8</gpxtpx:atemp></gpxtpx:TrackPointExtension></extensions></trkpt><trkpt lat="42.2176968958" lon="13.4149827249"><ele>1613.10</ele><time>2026-03-11T16:13:33Z</time><extensions><gpxtpx:TrackPointExtension><gpxtpx:atemp>2.8</gpxtpx:atemp></gpxtpx:TrackPointExtension></extensions></trkpt><trkpt lat="42.2177019250" lon="13.4149777796"><ele>1612.91</ele><time>2026-03-11T16:13:34Z</time><extensions><gpxtpx:TrackPointExtension><gpxtpx:atemp>2.8</gpxtpx:atemp></gpxtpx:TrackPointExtension></extensions></trkpt><trkpt lat="42.2177076247" lon="13.4149735887"><ele>1612.72</ele><time>2026-03-11T16:13:35Z</time><extensions><gpxtpx:TrackPointExtension><gpxtpx:atemp>2.8</gpxtpx:atemp></gpxtpx:TrackPointExtension></extensions></trkpt><trkpt lat="42.2177130729" lon="13.4149694815"><ele>1612.53</ele><time>2026-03-11T16:13:36Z</time><extensions><gpxtpx:TrackPointExtension><gpxtpx:atemp>2.8</gpxtpx:atemp></gpxtpx:TrackPointExtension></extensions></trkpt><trkpt lat="42.2177196946" lon="13.4149648715"><ele>1612.15</ele><time>2026-03-11T16:13:37Z</time><extensions><gpxtpx:TrackPointExtension><gpxtpx:atemp>2.8</gpxtpx:atemp></gpxtpx:TrackPointExtension></extensions></trkpt><trkpt lat="42.2177240532" lon="13.4149583336"><ele>1612.05</ele><time>2026-03-11T16:13:38Z</time><extensions><gpxtpx:TrackPointExtension><gpxtpx:atemp>2.8</gpxtpx:atemp></gpxtpx:TrackPointExtension></extensions></trkpt><trkpt lat="42.2177316807" lon="13.4149507899"><ele>1611.95</ele><time>2026-03-11T16:13:39Z</time><extensions><gpxtpx:TrackPointExtension><gpxtpx:atemp>2.8</gpxtpx:atemp></gpxtpx:TrackPointExtension></extensions></trkpt><trkpt lat="42.2177383862" lon="13.4149425756"><ele>1611.84</ele><time>2026-03-11T16:13:40Z</time><extensions><gpxtpx:TrackPointExtension><gpxtpx:atemp>2.8</gpxtpx:atemp></gpxtpx:TrackPointExtension></extensions></trkpt><trkpt lat="42.2177463491" lon="13.4149337746"><ele>1611.75</ele><time>2026-03-11T16:13:41Z</time><extensions><gpxtpx:TrackPointExtension><gpxtpx:atemp>2.8</gpxtpx:atemp></gpxtpx:TrackPointExtension></extensions></trkpt><trkpt lat="42.2177532222" lon="13.4149277397"><ele>1611.67</ele><time>2026-03-11T16:13:42Z</time><extensions><gpxtpx:TrackPointExtension><gpxtpx:atemp>2.8</gpxtpx:atemp></gpxtpx:TrackPointExtension></extensions></trkpt><trkpt lat="42.2177590895" lon="13.4149204474"><ele>1611.57</ele><time>2026-03-11T16:13:43Z</time><extensions><gpxtpx:TrackPointExtension><gpxtpx:atemp>2.8</gpxtpx:atemp></gpxtpx:TrackPointExtension></extensions></trkpt><trkpt lat="42.2177664656" lon="13.4149132390"><ele>1611.50</ele><time>2026-03-11T16:13:44Z</time><extensions><gpxtpx:TrackPointExtension><gpxtpx:atemp>2.8</gpxtpx:atemp></gpxtpx:TrackPointExtension></extensions></trkpt><trkpt lat="42.2177743446" lon="13.4149065334"><ele>1611.46</ele><time>2026-03-11T16:13:45Z</time><extensions><gpxtpx:TrackPointExtension><gpxtpx:atemp>2.8</gpxtpx:atemp></gpxtpx:TrackPointExtension></extensions></trkpt><trkpt lat="42.2177810501" lon="13.4148996603"><ele>1611.42</ele><time>2026-03-11T16:13:46Z</time><extensions><gpxtpx:TrackPointExtension><gpxtpx:atemp>2.8</gpxtpx:atemp></gpxtpx:TrackPointExtension></extensions></trkpt><trkpt lat="42.2177902702" lon="13.4148928709"><ele>1611.36</ele><time>2026-03-11T16:13:47Z</time><extensions><gpxtpx:TrackPointExtension><gpxtpx:atemp>2.8</gpxtpx:atemp></gpxtpx:TrackPointExtension></extensions></trkpt><trkpt lat="42.2177995741" lon="13.4148871712"><ele>1611.27</ele><time>2026-03-11T16:13:48Z</time><extensions><gpxtpx:TrackPointExtension><gpxtpx:atemp>2.8</gpxtpx:atemp></gpxtpx:TrackPointExtension></extensions></trkpt><trkpt lat="42.2178077884" lon="13.4148794599"><ele>1611.07</ele><time>2026-03-11T16:13:49Z</time><extensions><gpxtpx:TrackPointExtension><gpxtpx:atemp>2.8</gpxtpx:atemp></gpxtpx:TrackPointExtension></extensions></trkpt><trkpt lat="42.2178168409" lon="13.4148758557"><ele>1610.97</ele><time>2026-03-11T16:13:50Z</time><extensions><gpxtpx:TrackPointExtension><gpxtpx:atemp>2.8</gpxtpx:atemp></gpxtpx:TrackPointExtension></extensions></trkpt><trkpt lat="42.2178245522" lon="13.4148698207"><ele>1610.86</ele><time>2026-03-11T16:13:51Z</time><extensions><gpxtpx:TrackPointExtension><gpxtpx:atemp>2.8</gpxtpx:atemp></gpxtpx:TrackPointExtension></extensions></trkpt><trkpt lat="42.2178303357" lon="13.4148618579"><ele>1610.68</ele><time>2026-03-11T16:13:52Z</time><extensions><gpxtpx:TrackPointExtension><gpxtpx:atemp>2.8</gpxtpx:atemp></gpxtpx:TrackPointExtension></extensions></trkpt><trkpt lat="42.2178371251" lon="13.4148580860"><ele>1610.51</ele><time>2026-03-11T16:13:53Z</time><extensions><gpxtpx:TrackPointExtension><gpxtpx:atemp>2.8</gpxtpx:atemp></gpxtpx:TrackPointExtension></extensions></trkpt><trkpt lat="42.2178445850" lon="13.4148510452"><ele>1610.41</ele><time>2026-03-11T16:13:54Z</time><extensions><gpxtpx:TrackPointExtension><gpxtpx:atemp>2.8</gpxtpx:atemp></gpxtpx:TrackPointExtension></extensions></trkpt><trkpt lat="42.2178526316" lon="13.4148464352"><ele>1610.34</ele><time>2026-03-11T16:13:55Z</time><extensions><gpxtpx:TrackPointExtension><gpxtpx:atemp>2.8</gpxtpx:atemp></gpxtpx:TrackPointExtension></extensions></trkpt><trkpt lat="42.2178604268" lon="13.4148405679"><ele>1610.29</ele><time>2026-03-11T16:13:56Z</time><extensions><gpxtpx:TrackPointExtension><gpxtpx:atemp>2.8</gpxtpx:atemp></gpxtpx:TrackPointExtension></extensions></trkpt><trkpt lat="42.2178675514" lon="13.4148338623"><ele>1610.25</ele><time>2026-03-11T16:13:57Z</time><extensions><gpxtpx:TrackPointExtension><gpxtpx:atemp>2.8</gpxtpx:atemp></gpxtpx:TrackPointExtension></extensions></trkpt><trkpt lat="42.2178761847" lon="13.4148292523"><ele>1610.20</ele><time>2026-03-11T16:13:58Z</time><extensions><gpxtpx:TrackPointExtension><gpxtpx:atemp>2.8</gpxtpx:atemp></gpxtpx:TrackPointExtension></extensions></trkpt><trkpt lat="42.2178824712" lon="13.4148228820"><ele>1610.20</ele><time>2026-03-11T16:13:59Z</time><extensions><gpxtpx:TrackPointExtension><gpxtpx:atemp>2.8</gpxtpx:atemp></gpxtpx:TrackPointExtension></extensions></trkpt><trkpt lat="42.2178880870" lon="13.4148177691"><ele>1610.09</ele><time>2026-03-11T16:14:00Z</time><extensions><gpxtpx:TrackPointExtension><gpxtpx:atemp>2.8</gpxtpx:atemp></gpxtpx:TrackPointExtension></extensions></trkpt><trkpt lat="42.2178957984" lon="13.4148158412"><ele>1609.99</ele><time>2026-03-11T16:14:01Z</time><extensions><gpxtpx:TrackPointExtension><gpxtpx:atemp>2.8</gpxtpx:atemp></gpxtpx:TrackPointExtension></extensions></trkpt><trkpt lat="42.2179021686" lon="13.4148120694"><ele>1609.89</ele><time>2026-03-11T16:14:02Z</time><extensions><gpxtpx:TrackPointExtension><gpxtpx:atemp>2.8</gpxtpx:atemp></gpxtpx:TrackPointExtension></extensions></trkpt><trkpt lat="42.2179109696" lon="13.4148090519"><ele>1609.81</ele><time>2026-03-11T16:14:03Z</time><extensions><gpxtpx:TrackPointExtension><gpxtpx:atemp>2.8</gpxtpx:atemp></gpxtpx:TrackPointExtension></extensions></trkpt><trkpt lat="42.2179210279" lon="13.4148058668"><ele>1609.72</ele><time>2026-03-11T16:14:04Z</time><extensions><gpxtpx:TrackPointExtension><gpxtpx:atemp>2.8</gpxtpx:atemp></gpxtpx:TrackPointExtension></extensions></trkpt><trkpt lat="42.2179281525" lon="13.4148007538"><ele>1609.62</ele><time>2026-03-11T16:14:05Z</time><extensions><gpxtpx:TrackPointExtension><gpxtpx:atemp>2.8</gpxtpx:atemp></gpxtpx:TrackPointExtension></extensions></trkpt><trkpt lat="42.2179361992" lon="13.4147975687"><ele>1609.53</ele><time>2026-03-11T16:14:06Z</time><extensions><gpxtpx:TrackPointExtension><gpxtpx:atemp>2.8</gpxtpx:atemp></gpxtpx:TrackPointExtension></extensions></trkpt><trkpt lat="42.2179441620" lon="13.4147915337"><ele>1609.44</ele><time>2026-03-11T16:14:07Z</time><extensions><gpxtpx:TrackPointExtension><gpxtpx:atemp>2.8</gpxtpx:atemp></gpxtpx:TrackPointExtension></extensions></trkpt><trkpt lat="42.2179518733" lon="13.4147861693"><ele>1609.35</ele><time>2026-03-11T16:14:08Z</time><extensions><gpxtpx:TrackPointExtension><gpxtpx:atemp>2.8</gpxtpx:atemp></gpxtpx:TrackPointExtension></extensions></trkpt><trkpt lat="42.2179601714" lon="13.4147850797"><ele>1609.30</ele><time>2026-03-11T16:14:09Z</time><extensions><gpxtpx:TrackPointExtension><gpxtpx:atemp>2.8</gpxtpx:atemp></gpxtpx:TrackPointExtension></extensions></trkpt><trkpt lat="42.2179698944" lon="13.4147807211"><ele>1609.27</ele><time>2026-03-11T16:14:10Z</time><extensions><gpxtpx:TrackPointExtension><gpxtpx:atemp>2.8</gpxtpx:atemp></gpxtpx:TrackPointExtension></extensions></trkpt><trkpt lat="42.2179769352" lon="13.4147729259"><ele>1609.25</ele><time>2026-03-11T16:14:11Z</time><extensions><gpxtpx:TrackPointExtension><gpxtpx:atemp>2.8</gpxtpx:atemp></gpxtpx:TrackPointExtension></extensions></trkpt><trkpt lat="42.2179840598" lon="13.4147692379"><ele>1609.17</ele><time>2026-03-11T16:14:12Z</time><extensions><gpxtpx:TrackPointExtension><gpxtpx:atemp>2.8</gpxtpx:atemp></gpxtpx:TrackPointExtension></extensions></trkpt><trkpt lat="42.2179920226" lon="13.4147632867"><ele>1609.16</ele><time>2026-03-11T16:14:13Z</time><extensions><gpxtpx:TrackPointExtension><gpxtpx:atemp>2.8</gpxtpx:atemp></gpxtpx:TrackPointExtension></extensions></trkpt><trkpt lat="42.2180001531" lon="13.4147553239"><ele>1609.12</ele><time>2026-03-11T16:14:14Z</time><extensions><gpxtpx:TrackPointExtension><gpxtpx:atemp>2.8</gpxtpx:atemp></gpxtpx:TrackPointExtension></extensions></trkpt><trkpt lat="42.2180081997" lon="13.4147512168"><ele>1609.10</ele><time>2026-03-11T16:14:15Z</time><extensions><gpxtpx:TrackPointExtension><gpxtpx:atemp>2.8</gpxtpx:atemp></gpxtpx:TrackPointExtension></extensions></trkpt><trkpt lat="42.2180168331" lon="13.4147457685"><ele>1609.07</ele><time>2026-03-11T16:14:16Z</time><extensions><gpxtpx:TrackPointExtension><gpxtpx:atemp>2.8</gpxtpx:atemp></gpxtpx:TrackPointExtension></extensions></trkpt><trkpt lat="42.2180252988" lon="13.4147382248"><ele>1609.05</ele><time>2026-03-11T16:14:17Z</time><extensions><gpxtpx:TrackPointExtension><gpxtpx:atemp>2.8</gpxtpx:atemp></gpxtpx:TrackPointExtension></extensions></trkpt><trkpt lat="42.2180320881" lon="13.4147343691"><ele>1609.05</ele><time>2026-03-11T16:14:18Z</time><extensions><gpxtpx:TrackPointExtension><gpxtpx:atemp>2.8</gpxtpx:atemp></gpxtpx:TrackPointExtension></extensions></trkpt><trkpt lat="42.2180391289" lon="13.4147304296"><ele>1609.05</ele><time>2026-03-11T16:14:19Z</time><extensions><gpxtpx:TrackPointExtension><gpxtpx:atemp>2.8</gpxtpx:atemp></gpxtpx:TrackPointExtension></extensions></trkpt><trkpt lat="42.2180476785" lon="13.4147256520"><ele>1609.04</ele><time>2026-03-11T16:14:20Z</time><extensions><gpxtpx:TrackPointExtension><gpxtpx:atemp>2.8</gpxtpx:atemp></gpxtpx:TrackPointExtension></extensions></trkpt><trkpt lat="42.2180553898" lon="13.4147208743"><ele>1609.02</ele><time>2026-03-11T16:14:21Z</time><extensions><gpxtpx:TrackPointExtension><gpxtpx:atemp>2.8</gpxtpx:atemp></gpxtpx:TrackPointExtension></extensions></trkpt><trkpt lat="42.2180642746" lon="13.4147187788"><ele>1609.01</ele><time>2026-03-11T16:14:22Z</time><extensions><gpxtpx:TrackPointExtension><gpxtpx:atemp>2.8</gpxtpx:atemp></gpxtpx:TrackPointExtension></extensions></trkpt><trkpt lat="42.2180719860" lon="13.4147154260"><ele>1608.97</ele><time>2026-03-11T16:14:23Z</time><extensions><gpxtpx:TrackPointExtension><gpxtpx:atemp>2.8</gpxtpx:atemp></gpxtpx:TrackPointExtension></extensions></trkpt><trkpt lat="42.2180788592" lon="13.4147129953"><ele>1608.94</ele><time>2026-03-11T16:14:24Z</time><extensions><gpxtpx:TrackPointExtension><gpxtpx:atemp>2.8</gpxtpx:atemp></gpxtpx:TrackPointExtension></extensions></trkpt><trkpt lat="42.2180857323" lon="13.4147103969"><ele>1608.92</ele><time>2026-03-11T16:14:25Z</time><extensions><gpxtpx:TrackPointExtension><gpxtpx:atemp>2.8</gpxtpx:atemp></gpxtpx:TrackPointExtension></extensions></trkpt><trkpt lat="42.2180936951" lon="13.4147060383"><ele>1608.91</ele><time>2026-03-11T16:14:26Z</time><extensions><gpxtpx:TrackPointExtension><gpxtpx:atemp>2.8</gpxtpx:atemp></gpxtpx:TrackPointExtension></extensions></trkpt><trkpt lat="42.2181025799" lon="13.4147007577"><ele>1608.90</ele><time>2026-03-11T16:14:27Z</time><extensions><gpxtpx:TrackPointExtension><gpxtpx:atemp>2.8</gpxtpx:atemp></gpxtpx:TrackPointExtension></extensions></trkpt><trkpt lat="42.2181091178" lon="13.4146993328"><ele>1608.90</ele><time>2026-03-11T16:14:28Z</time><extensions><gpxtpx:TrackPointExtension><gpxtpx:atemp>2.8</gpxtpx:atemp></gpxtpx:TrackPointExtension></extensions></trkpt><trkpt lat="42.2181190923" lon="13.4146918729"><ele>1608.87</ele><time>2026-03-11T16:14:29Z</time><extensions><gpxtpx:TrackPointExtension><gpxtpx:atemp>2.8</gpxtpx:atemp></gpxtpx:TrackPointExtension></extensions></trkpt><trkpt lat="42.2181280609" lon="13.4146873467"><ele>1608.84</ele><time>2026-03-11T16:14:30Z</time><extensions><gpxtpx:TrackPointExtension><gpxtpx:atemp>2.8</gpxtpx:atemp></gpxtpx:TrackPointExtension></extensions></trkpt><trkpt lat="42.2181357723" lon="13.4146843292"><ele>1608.82</ele><time>2026-03-11T16:14:31Z</time><extensions><gpxtpx:TrackPointExtension><gpxtpx:atemp>2.8</gpxtpx:atemp></gpxtpx:TrackPointExtension></extensions></trkpt><trkpt lat="42.2181440704" lon="13.4146790486"><ele>1608.82</ele><time>2026-03-11T16:14:32Z</time><extensions><gpxtpx:TrackPointExtension><gpxtpx:atemp>2.8</gpxtpx:atemp></gpxtpx:TrackPointExtension></extensions></trkpt><trkpt lat="42.2181512788" lon="13.4146742709"><ele>1608.80</ele><time>2026-03-11T16:14:33Z</time><extensions><gpxtpx:TrackPointExtension><gpxtpx:atemp>2.8</gpxtpx:atemp></gpxtpx:TrackPointExtension></extensions></trkpt><trkpt lat="42.2181593254" lon="13.4146710858"><ele>1608.80</ele><time>2026-03-11T16:14:34Z</time><extensions><gpxtpx:TrackPointExtension><gpxtpx:atemp>2.8</gpxtpx:atemp></gpxtpx:TrackPointExtension></extensions></trkpt><trkpt lat="42.2181673720" lon="13.4146674816"><ele>1608.81</ele><time>2026-03-11T16:14:35Z</time><extensions><gpxtpx:TrackPointExtension><gpxtpx:atemp>2.8</gpxtpx:atemp></gpxtpx:TrackPointExtension></extensions></trkpt><trkpt lat="42.2181746643" lon="13.4146670625"><ele>1608.82</ele><time>2026-03-11T16:14:36Z</time><extensions><gpxtpx:TrackPointExtension><gpxtpx:atemp>2.8</gpxtpx:atemp></gpxtpx:TrackPointExtension></extensions></trkpt><trkpt lat="42.2181824595" lon="13.4146609437"><ele>1608.83</ele><time>2026-03-11T16:14:37Z</time><extensions><gpxtpx:TrackPointExtension><gpxtpx:atemp>2.8</gpxtpx:atemp></gpxtpx:TrackPointExtension></extensions></trkpt><trkpt lat="42.2181895841" lon="13.4146561660"><ele>1608.82</ele><time>2026-03-11T16:14:38Z</time><extensions><gpxtpx:TrackPointExtension><gpxtpx:atemp>2.8</gpxtpx:atemp></gpxtpx:TrackPointExtension></extensions></trkpt><trkpt lat="42.2181968763" lon="13.4146523941"><ele>1608.82</ele><time>2026-03-11T16:14:39Z</time><extensions><gpxtpx:TrackPointExtension><gpxtpx:atemp>2.8</gpxtpx:atemp></gpxtpx:TrackPointExtension></extensions></trkpt><trkpt lat="42.2182043362" lon="13.4146473650"><ele>1608.80</ele><time>2026-03-11T16:14:40Z</time><extensions><gpxtpx:TrackPointExtension><gpxtpx:atemp>2.8</gpxtpx:atemp></gpxtpx:TrackPointExtension></extensions></trkpt><trkpt lat="42.2182109579" lon="13.4146436770"><ele>1608.79</ele><time>2026-03-11T16:14:41Z</time><extensions><gpxtpx:TrackPointExtension><gpxtpx:atemp>2.8</gpxtpx:atemp></gpxtpx:TrackPointExtension></extensions></trkpt><trkpt lat="42.2182195913" lon="13.4146397375"><ele>1608.75</ele><time>2026-03-11T16:14:42Z</time><extensions><gpxtpx:TrackPointExtension><gpxtpx:atemp>2.8</gpxtpx:atemp></gpxtpx:TrackPointExtension></extensions></trkpt><trkpt lat="42.2182277218" lon="13.4146358818"><ele>1608.64</ele><time>2026-03-11T16:14:43Z</time><extensions><gpxtpx:TrackPointExtension><gpxtpx:atemp>2.8</gpxtpx:atemp></gpxtpx:TrackPointExtension></extensions></trkpt><trkpt lat="42.2182343435" lon="13.4146342892"><ele>1608.54</ele><time>2026-03-11T16:14:44Z</time><extensions><gpxtpx:TrackPointExtension><gpxtpx:atemp>2.8</gpxtpx:atemp></gpxtpx:TrackPointExtension></extensions></trkpt><trkpt lat="42.2182428930" lon="13.4146294277"><ele>1608.46</ele><time>2026-03-11T16:14:45Z</time><extensions><gpxtpx:TrackPointExtension><gpxtpx:atemp>2.8</gpxtpx:atemp></gpxtpx:TrackPointExtension></extensions></trkpt><trkpt lat="42.2182525322" lon="13.4146223869"><ele>1608.40</ele><time>2026-03-11T16:14:46Z</time><extensions><gpxtpx:TrackPointExtension><gpxtpx:atemp>2.8</gpxtpx:atemp></gpxtpx:TrackPointExtension></extensions></trkpt><trkpt lat="42.2182601597" lon="13.4146191180"><ele>1608.29</ele><time>2026-03-11T16:14:47Z</time><extensions><gpxtpx:TrackPointExtension><gpxtpx:atemp>2.8</gpxtpx:atemp></gpxtpx:TrackPointExtension></extensions></trkpt><trkpt lat="42.2182685416" lon="13.4146149270"><ele>1608.26</ele><time>2026-03-11T16:14:48Z</time><extensions><gpxtpx:TrackPointExtension><gpxtpx:atemp>2.8</gpxtpx:atemp></gpxtpx:TrackPointExtension></extensions></trkpt><trkpt lat="42.2182766721" lon="13.4146091435"><ele>1608.24</ele><time>2026-03-11T16:14:49Z</time><extensions><gpxtpx:TrackPointExtension><gpxtpx:atemp>2.8</gpxtpx:atemp></gpxtpx:TrackPointExtension></extensions></trkpt><trkpt lat="42.2182854731" lon="13.4146055393"><ele>1608.25</ele><time>2026-03-11T16:14:50Z</time><extensions><gpxtpx:TrackPointExtension><gpxtpx:atemp>2.8</gpxtpx:atemp></gpxtpx:TrackPointExtension></extensions></trkpt><trkpt lat="42.2182944417" lon="13.4145979956"><ele>1608.25</ele><time>2026-03-11T16:14:51Z</time><extensions><gpxtpx:TrackPointExtension><gpxtpx:atemp>2.8</gpxtpx:atemp></gpxtpx:TrackPointExtension></extensions></trkpt><trkpt lat="42.2183012310" lon="13.4145909548"><ele>1608.27</ele><time>2026-03-11T16:14:52Z</time><extensions><gpxtpx:TrackPointExtension><gpxtpx:atemp>2.8</gpxtpx:atemp></gpxtpx:TrackPointExtension></extensions></trkpt><trkpt lat="42.2183082718" lon="13.4145874344"><ele>1608.30</ele><time>2026-03-11T16:14:53Z</time><extensions><gpxtpx:TrackPointExtension><gpxtpx:atemp>2.8</gpxtpx:atemp></gpxtpx:TrackPointExtension></extensions></trkpt><trkpt lat="42.2183158994" lon="13.4145831596"><ele>1608.35</ele><time>2026-03-11T16:14:54Z</time><extensions><gpxtpx:TrackPointExtension><gpxtpx:atemp>2.8</gpxtpx:atemp></gpxtpx:TrackPointExtension></extensions></trkpt><trkpt lat="42.2183227725" lon="13.4145823214"><ele>1608.40</ele><time>2026-03-11T16:14:55Z</time><extensions><gpxtpx:TrackPointExtension><gpxtpx:atemp>2.8</gpxtpx:atemp></gpxtpx:TrackPointExtension></extensions></trkpt><trkpt lat="42.2183299810" lon="13.4145759512"><ele>1608.47</ele><time>2026-03-11T16:14:56Z</time><extensions><gpxtpx:TrackPointExtension><gpxtpx:atemp>2.8</gpxtpx:atemp></gpxtpx:TrackPointExtension></extensions></trkpt><trkpt lat="42.2183372732" lon="13.4145709220"><ele>1608.53</ele><time>2026-03-11T16:14:57Z</time><extensions><gpxtpx:TrackPointExtension><gpxtpx:atemp>2.8</gpxtpx:atemp></gpxtpx:TrackPointExtension></extensions></trkpt><trkpt lat="42.2183455713" lon="13.4145677369"><ele>1608.63</ele><time>2026-03-11T16:14:58Z</time><extensions><gpxtpx:TrackPointExtension><gpxtpx:atemp>2.8</gpxtpx:atemp></gpxtpx:TrackPointExtension></extensions></trkpt><trkpt lat="42.2183542885" lon="13.4145623725"><ele>1608.67</ele><time>2026-03-11T16:14:59Z</time><extensions><gpxtpx:TrackPointExtension><gpxtpx:atemp>2.8</gpxtpx:atemp></gpxtpx:TrackPointExtension></extensions></trkpt><trkpt lat="42.2183629218" lon="13.4145571757"><ele>1608.69</ele><time>2026-03-11T16:15:00Z</time><extensions><gpxtpx:TrackPointExtension><gpxtpx:atemp>2.8</gpxtpx:atemp></gpxtpx:TrackPointExtension></extensions></trkpt><trkpt lat="42.2183714714" lon="13.4145502187"><ele>1608.71</ele><time>2026-03-11T16:15:01Z</time><extensions><gpxtpx:TrackPointExtension><gpxtpx:atemp>2.8</gpxtpx:atemp></gpxtpx:TrackPointExtension></extensions></trkpt><trkpt lat="42.2183803562" lon="13.4145464469"><ele>1608.70</ele><time>2026-03-11T16:15:02Z</time><extensions><gpxtpx:TrackPointExtension><gpxtpx:atemp>2.8</gpxtpx:atemp></gpxtpx:TrackPointExtension></extensions></trkpt><trkpt lat="42.2183876485" lon="13.4145418368"><ele>1608.69</ele><time>2026-03-11T16:15:03Z</time><extensions><gpxtpx:TrackPointExtension><gpxtpx:atemp>2.8</gpxtpx:atemp></gpxtpx:TrackPointExtension></extensions></trkpt><trkpt lat="42.2183943540" lon="13.4145403281"><ele>1608.69</ele><time>2026-03-11T16:15:04Z</time><extensions><gpxtpx:TrackPointExtension><gpxtpx:atemp>2.8</gpxtpx:atemp></gpxtpx:TrackPointExtension></extensions></trkpt><trkpt lat="42.2184033226" lon="13.4145357180"><ele>1608.68</ele><time>2026-03-11T16:15:05Z</time><extensions><gpxtpx:TrackPointExtension><gpxtpx:atemp>2.8</gpxtpx:atemp></gpxtpx:TrackPointExtension></extensions></trkpt><trkpt lat="42.2184123751" lon="13.4145326167"><ele>1608.68</ele><time>2026-03-11T16:15:06Z</time><extensions><gpxtpx:TrackPointExtension><gpxtpx:atemp>2.8</gpxtpx:atemp></gpxtpx:TrackPointExtension></extensions></trkpt><trkpt lat="42.2184234392" lon="13.4145268332"><ele>1608.68</ele><time>2026-03-11T16:15:07Z</time><extensions><gpxtpx:TrackPointExtension><gpxtpx:atemp>2.8</gpxtpx:atemp></gpxtpx:TrackPointExtension></extensions></trkpt><trkpt lat="42.2184310667" lon="13.4145193733"><ele>1608.68</ele><time>2026-03-11T16:15:08Z</time><extensions><gpxtpx:TrackPointExtension><gpxtpx:atemp>2.8</gpxtpx:atemp></gpxtpx:TrackPointExtension></extensions></trkpt><trkpt lat="42.2184382752" lon="13.4145166911"><ele>1608.66</ele><time>2026-03-11T16:15:09Z</time><extensions><gpxtpx:TrackPointExtension><gpxtpx:atemp>2.8</gpxtpx:atemp></gpxtpx:TrackPointExtension></extensions></trkpt><trkpt lat="42.2184456512" lon="13.4145101532"><ele>1608.43</ele><time>2026-03-11T16:15:10Z</time><extensions><gpxtpx:TrackPointExtension><gpxtpx:atemp>2.8</gpxtpx:atemp></gpxtpx:TrackPointExtension></extensions></trkpt><trkpt lat="42.2184489202" lon="13.4145102371"><ele>1608.28</ele><time>2026-03-11T16:15:11Z</time><extensions><gpxtpx:TrackPointExtension><gpxtpx:atemp>2.8</gpxtpx:atemp></gpxtpx:TrackPointExtension></extensions></trkpt><trkpt lat="42.2184492555" lon="13.4145096503"><ele>1608.18</ele><time>2026-03-11T16:15:12Z</time><extensions><gpxtpx:TrackPointExtension><gpxtpx:atemp>2.8</gpxtpx:atemp></gpxtpx:TrackPointExtension></extensions></trkpt><trkpt lat="42.2184486687" lon="13.4145088959"><ele>1608.10</ele><time>2026-03-11T16:15:13Z</time><extensions><gpxtpx:TrackPointExtension><gpxtpx:atemp>2.8</gpxtpx:atemp></gpxtpx:TrackPointExtension></extensions></trkpt><trkpt lat="42.2184486687" lon="13.4145081416"><ele>1608.04</ele><time>2026-03-11T16:15:14Z</time><extensions><gpxtpx:TrackPointExtension><gpxtpx:atemp>2.8</gpxtpx:atemp></gpxtpx:TrackPointExtension></extensions></trkpt><trkpt lat="42.2184489202" lon="13.4145072196"><ele>1607.97</ele><time>2026-03-11T16:15:15Z</time><extensions><gpxtpx:TrackPointExtension><gpxtpx:atemp>2.8</gpxtpx:atemp></gpxtpx:TrackPointExtension></extensions></trkpt><trkpt lat="42.2184493393" lon="13.4145078901"><ele>1607.91</ele><time>2026-03-11T16:15:16Z</time><extensions><gpxtpx:TrackPointExtension><gpxtpx:atemp>2.8</gpxtpx:atemp></gpxtpx:TrackPointExtension></extensions></trkpt><trkpt lat="42.2184485849" lon="13.4145097341"><ele>1607.87</ele><time>2026-03-11T16:15:17Z</time><extensions><gpxtpx:TrackPointExtension><gpxtpx:atemp>2.8</gpxtpx:atemp></gpxtpx:TrackPointExtension></extensions></trkpt><trkpt lat="42.2184494231" lon="13.4145100694"><ele>1607.79</ele><time>2026-03-11T16:15:18Z</time><extensions><gpxtpx:TrackPointExtension><gpxtpx:atemp>2.8</gpxtpx:atemp></gpxtpx:TrackPointExtension></extensions></trkpt><trkpt lat="42.2184497584" lon="13.4145109914"><ele>1607.75</ele><time>2026-03-11T16:15:19Z</time><extensions><gpxtpx:TrackPointExtension><gpxtpx:atemp>2.8</gpxtpx:atemp></gpxtpx:TrackPointExtension></extensions></trkpt><trkpt lat="42.2184491716" lon="13.4145110752"><ele>1607.72</ele><time>2026-03-11T16:15:20Z</time><extensions><gpxtpx:TrackPointExtension><gpxtpx:atemp>2.8</gpxtpx:atemp></gpxtpx:TrackPointExtension></extensions></trkpt><trkpt lat="42.2184490878" lon="13.4145118296"><ele>1607.66</ele><time>2026-03-11T16:15:21Z</time><extensions><gpxtpx:TrackPointExtension><gpxtpx:atemp>2.8</gpxtpx:atemp></gpxtpx:TrackPointExtension></extensions></trkpt><trkpt lat="42.2184489202" lon="13.4145123325"><ele>1607.67</ele><time>2026-03-11T16:15:22Z</time><extensions><gpxtpx:TrackPointExtension><gpxtpx:atemp>2.8</gpxtpx:atemp></gpxtpx:TrackPointExtension></extensions></trkpt><trkpt lat="42.2184487525" lon="13.4145117458"><ele>1607.71</ele><time>2026-03-11T16:15:23Z</time><extensions><gpxtpx:TrackPointExtension><gpxtpx:atemp>2.8</gpxtpx:atemp></gpxtpx:TrackPointExtension></extensions></trkpt><trkpt lat="42.2184486687" lon="13.4145117458"><ele>1607.73</ele><time>2026-03-11T16:15:24Z</time><extensions><gpxtpx:TrackPointExtension><gpxtpx:atemp>2.8</gpxtpx:atemp></gpxtpx:TrackPointExtension></extensions></trkpt><trkpt lat="42.2184485849" lon="13.4145117458"><ele>1607.74</ele><time>2026-03-11T16:15:25Z</time><extensions><gpxtpx:TrackPointExtension><gpxtpx:atemp>2.8</gpxtpx:atemp></gpxtpx:TrackPointExtension></extensions></trkpt><trkpt lat="42.2184490878" lon="13.4145111591"><ele>1607.76</ele><time>2026-03-11T16:15:26Z</time><extensions><gpxtpx:TrackPointExtension><gpxtpx:atemp>2.8</gpxtpx:atemp></gpxtpx:TrackPointExtension></extensions></trkpt><trkpt lat="42.2184491716" lon="13.4145108238"><ele>1607.77</ele><time>2026-03-11T16:15:27Z</time><extensions><gpxtpx:TrackPointExtension><gpxtpx:atemp>2.8</gpxtpx:atemp></gpxtpx:TrackPointExtension></extensions></trkpt><trkpt lat="42.2184493393" lon="13.4145111591"><ele>1607.77</ele><time>2026-03-11T16:15:28Z</time><extensions><gpxtpx:TrackPointExtension><gpxtpx:atemp>2.8</gpxtpx:atemp></gpxtpx:TrackPointExtension></extensions></trkpt><trkpt lat="42.2184490878" lon="13.4145111591"><ele>1607.77</ele><time>2026-03-11T16:15:29Z</time><extensions><gpxtpx:TrackPointExtension><gpxtpx:atemp>2.8</gpxtpx:atemp></gpxtpx:TrackPointExtension></extensions></trkpt><trkpt lat="42.2184485849" lon="13.4145109914"><ele>1607.76</ele><time>2026-03-11T16:15:30Z</time><extensions><gpxtpx:TrackPointExtension><gpxtpx:atemp>2.8</gpxtpx:atemp></gpxtpx:TrackPointExtension></extensions></trkpt><trkpt lat="42.2184480820" lon="13.4145111591"><ele>1607.75</ele><time>2026-03-11T16:15:31Z</time><extensions><gpxtpx:TrackPointExtension><gpxtpx:atemp>2.8</gpxtpx:atemp></gpxtpx:TrackPointExtension></extensions></trkpt><trkpt lat="42.2184482496" lon="13.4145116620"><ele>1607.69</ele><time>2026-03-11T16:15:32Z</time><extensions><gpxtpx:TrackPointExtension><gpxtpx:atemp>2.7</gpxtpx:atemp></gpxtpx:TrackPointExtension></extensions></trkpt><trkpt lat="42.2184476629" lon="13.4145117458"><ele>1607.59</ele><time>2026-03-11T16:15:33Z</time><extensions><gpxtpx:TrackPointExtension><gpxtpx:atemp>2.7</gpxtpx:atemp></gpxtpx:TrackPointExtension></extensions></trkpt><trkpt lat="42.2184469923" lon="13.4145117458"><ele>1607.58</ele><time>2026-03-11T16:15:34Z</time><extensions><gpxtpx:TrackPointExtension><gpxtpx:atemp>2.7</gpxtpx:atemp></gpxtpx:TrackPointExtension></extensions></trkpt><trkpt lat="42.2184463218" lon="13.4145120811"><ele>1607.55</ele><time>2026-03-11T16:15:35Z</time><extensions><gpxtpx:TrackPointExtension><gpxtpx:atemp>2.7</gpxtpx:atemp></gpxtpx:TrackPointExtension></extensions></trkpt><trkpt lat="42.2184459865" lon="13.4145120811"><ele>1607.54</ele><time>2026-03-11T16:15:36Z</time><extensions><gpxtpx:TrackPointExtension><gpxtpx:atemp>2.7</gpxtpx:atemp></gpxtpx:TrackPointExtension></extensions></trkpt><trkpt lat="42.2184459865" lon="13.4145121649"><ele>1607.54</ele><time>2026-03-11T16:15:37Z</time><extensions><gpxtpx:TrackPointExtension><gpxtpx:atemp>2.7</gpxtpx:atemp></gpxtpx:TrackPointExtension></extensions></trkpt><trkpt lat="42.2184459865" lon="13.4145122487"><ele>1607.56</ele><time>2026-03-11T16:15:38Z</time><extensions><gpxtpx:TrackPointExtension><gpxtpx:atemp>2.7</gpxtpx:atemp></gpxtpx:TrackPointExtension></extensions></trkpt><trkpt lat="42.2184460703" lon="13.4145121649"><ele>1607.60</ele><time>2026-03-11T16:15:39Z</time><extensions><gpxtpx:TrackPointExtension><gpxtpx:atemp>2.7</gpxtpx:atemp></gpxtpx:TrackPointExtension></extensions></trkpt><trkpt lat="42.2184461541" lon="13.4145121649"><ele>1607.65</ele><time>2026-03-11T16:15:40Z</time><extensions><gpxtpx:TrackPointExtension><gpxtpx:atemp>2.7</gpxtpx:atemp></gpxtpx:TrackPointExtension></extensions></trkpt><trkpt lat="42.2184465732" lon="13.4145117458"><ele>1607.73</ele><time>2026-03-11T16:15:41Z</time><extensions><gpxtpx:TrackPointExtension><gpxtpx:atemp>2.7</gpxtpx:atemp></gpxtpx:TrackPointExtension></extensions></trkpt><trkpt lat="42.2184456512" lon="13.4145120811"><ele>1607.79</ele><time>2026-03-11T16:15:42Z</time><extensions><gpxtpx:TrackPointExtension><gpxtpx:atemp>2.7</gpxtpx:atemp></gpxtpx:TrackPointExtension></extensions></trkpt><trkpt lat="42.2184463218" lon="13.4145094827"><ele>1607.82</ele><time>2026-03-11T16:15:43Z</time><extensions><gpxtpx:TrackPointExtension><gpxtpx:atemp>2.7</gpxtpx:atemp></gpxtpx:TrackPointExtension></extensions></trkpt><trkpt lat="42.2184522729" lon="13.4145072196"><ele>1607.95</ele><time>2026-03-11T16:15:44Z</time><extensions><gpxtpx:TrackPointExtension><gpxtpx:atemp>2.7</gpxtpx:atemp></gpxtpx:TrackPointExtension></extensions></trkpt><trkpt lat="42.2184592299" lon="13.4145015199"><ele>1607.99</ele><time>2026-03-11T16:15:45Z</time><extensions><gpxtpx:TrackPointExtension><gpxtpx:atemp>2.7</gpxtpx:atemp></gpxtpx:TrackPointExtension></extensions></trkpt><trkpt lat="42.2184644267" lon="13.4144964907"><ele>1608.01</ele><time>2026-03-11T16:15:46Z</time><extensions><gpxtpx:TrackPointExtension><gpxtpx:atemp>2.7</gpxtpx:atemp></gpxtpx:TrackPointExtension></extensions></trkpt><trkpt lat="42.2184722219" lon="13.4144926351"><ele>1608.04</ele><time>2026-03-11T16:15:47Z</time><extensions><gpxtpx:TrackPointExtension><gpxtpx:atemp>2.7</gpxtpx:atemp></gpxtpx:TrackPointExtension></extensions></trkpt><trkpt lat="42.2184799332" lon="13.4144873545"><ele>1608.04</ele><time>2026-03-11T16:15:48Z</time><extensions><gpxtpx:TrackPointExtension><gpxtpx:atemp>2.7</gpxtpx:atemp></gpxtpx:TrackPointExtension></extensions></trkpt><trkpt lat="42.2184876446" lon="13.4144825768"><ele>1608.04</ele><time>2026-03-11T16:15:49Z</time><extensions><gpxtpx:TrackPointExtension><gpxtpx:atemp>2.7</gpxtpx:atemp></gpxtpx:TrackPointExtension></extensions></trkpt><trkpt lat="42.2184991278" lon="13.4144750331"><ele>1608.03</ele><time>2026-03-11T16:15:50Z</time><extensions><gpxtpx:TrackPointExtension><gpxtpx:atemp>2.7</gpxtpx:atemp></gpxtpx:TrackPointExtension></extensions></trkpt><trkpt lat="42.2185104433" lon="13.4144701716"><ele>1608.00</ele><time>2026-03-11T16:15:51Z</time><extensions><gpxtpx:TrackPointExtension><gpxtpx:atemp>2.7</gpxtpx:atemp></gpxtpx:TrackPointExtension></extensions></trkpt><trkpt lat="42.2185193282" lon="13.4144682437"><ele>1608.00</ele><time>2026-03-11T16:15:52Z</time><extensions><gpxtpx:TrackPointExtension><gpxtpx:atemp>2.7</gpxtpx:atemp></gpxtpx:TrackPointExtension></extensions></trkpt><trkpt lat="42.2185288835" lon="13.4144632984"><ele>1608.01</ele><time>2026-03-11T16:15:53Z</time><extensions><gpxtpx:TrackPointExtension><gpxtpx:atemp>2.7</gpxtpx:atemp></gpxtpx:TrackPointExtension></extensions></trkpt><trkpt lat="42.2185361758" lon="13.4144572634"><ele>1608.01</ele><time>2026-03-11T16:15:54Z</time><extensions><gpxtpx:TrackPointExtension><gpxtpx:atemp>2.7</gpxtpx:atemp></gpxtpx:TrackPointExtension></extensions></trkpt><trkpt lat="42.2185436357" lon="13.4144541621"><ele>1608.01</ele><time>2026-03-11T16:15:55Z</time><extensions><gpxtpx:TrackPointExtension><gpxtpx:atemp>2.7</gpxtpx:atemp></gpxtpx:TrackPointExtension></extensions></trkpt><trkpt lat="42.2185511794" lon="13.4144470375"><ele>1608.01</ele><time>2026-03-11T16:15:56Z</time><extensions><gpxtpx:TrackPointExtension><gpxtpx:atemp>2.7</gpxtpx:atemp></gpxtpx:TrackPointExtension></extensions></trkpt><trkpt lat="42.2185592260" lon="13.4144411702"><ele>1608.01</ele><time>2026-03-11T16:15:57Z</time><extensions><gpxtpx:TrackPointExtension><gpxtpx:atemp>2.7</gpxtpx:atemp></gpxtpx:TrackPointExtension></extensions></trkpt><trkpt lat="42.2185678594" lon="13.4144371469"><ele>1608.01</ele><time>2026-03-11T16:15:58Z</time><extensions><gpxtpx:TrackPointExtension><gpxtpx:atemp>2.7</gpxtpx:atemp></gpxtpx:TrackPointExtension></extensions></trkpt><trkpt lat="42.2185751516" lon="13.4144318663"><ele>1608.01</ele><time>2026-03-11T16:15:59Z</time><extensions><gpxtpx:TrackPointExtension><gpxtpx:atemp>2.7</gpxtpx:atemp></gpxtpx:TrackPointExtension></extensions></trkpt><trkpt lat="42.2185826954" lon="13.4144273400"><ele>1608.01</ele><time>2026-03-11T16:16:00Z</time><extensions><gpxtpx:TrackPointExtension><gpxtpx:atemp>2.7</gpxtpx:atemp></gpxtpx:TrackPointExtension></extensions></trkpt><trkpt lat="42.2185912449" lon="13.4144226462"><ele>1608.03</ele><time>2026-03-11T16:16:01Z</time><extensions><gpxtpx:TrackPointExtension><gpxtpx:atemp>2.7</gpxtpx:atemp></gpxtpx:TrackPointExtension></extensions></trkpt><trkpt lat="42.2186000459" lon="13.4144204669"><ele>1608.03</ele><time>2026-03-11T16:16:02Z</time><extensions><gpxtpx:TrackPointExtension><gpxtpx:atemp>2.7</gpxtpx:atemp></gpxtpx:TrackPointExtension></extensions></trkpt><trkpt lat="42.2186081763" lon="13.4144139290"><ele>1608.03</ele><time>2026-03-11T16:16:03Z</time><extensions><gpxtpx:TrackPointExtension><gpxtpx:atemp>2.7</gpxtpx:atemp></gpxtpx:TrackPointExtension></extensions></trkpt><trkpt lat="42.2186176479" lon="13.4144093189"><ele>1608.02</ele><time>2026-03-11T16:16:04Z</time><extensions><gpxtpx:TrackPointExtension><gpxtpx:atemp>2.7</gpxtpx:atemp></gpxtpx:TrackPointExtension></extensions></trkpt><trkpt lat="42.2186262812" lon="13.4144061338"><ele>1607.99</ele><time>2026-03-11T16:16:05Z</time><extensions><gpxtpx:TrackPointExtension><gpxtpx:atemp>2.7</gpxtpx:atemp></gpxtpx:TrackPointExtension></extensions></trkpt><trkpt lat="42.2186343279" lon="13.4144002665"><ele>1607.95</ele><time>2026-03-11T16:16:06Z</time><extensions><gpxtpx:TrackPointExtension><gpxtpx:atemp>2.7</gpxtpx:atemp></gpxtpx:TrackPointExtension></extensions></trkpt><trkpt lat="42.2186406981" lon="13.4143971652"><ele>1607.88</ele><time>2026-03-11T16:16:07Z</time><extensions><gpxtpx:TrackPointExtension><gpxtpx:atemp>2.7</gpxtpx:atemp></gpxtpx:TrackPointExtension></extensions></trkpt><trkpt lat="42.2186498344" lon="13.4143915493"><ele>1607.84</ele><time>2026-03-11T16:16:08Z</time><extensions><gpxtpx:TrackPointExtension><gpxtpx:atemp>2.7</gpxtpx:atemp></gpxtpx:TrackPointExtension></extensions></trkpt><trkpt lat="42.2186584678" lon="13.4143840894"><ele>1607.81</ele><time>2026-03-11T16:16:09Z</time><extensions><gpxtpx:TrackPointExtension><gpxtpx:atemp>2.7</gpxtpx:atemp></gpxtpx:TrackPointExtension></extensions></trkpt><trkpt lat="42.2186657600" lon="13.4143799823"><ele>1607.80</ele><time>2026-03-11T16:16:10Z</time><extensions><gpxtpx:TrackPointExtension><gpxtpx:atemp>2.7</gpxtpx:atemp></gpxtpx:TrackPointExtension></extensions></trkpt><trkpt lat="42.2186744772" lon="13.4143748693"><ele>1607.81</ele><time>2026-03-11T16:16:11Z</time><extensions><gpxtpx:TrackPointExtension><gpxtpx:atemp>2.7</gpxtpx:atemp></gpxtpx:TrackPointExtension></extensions></trkpt><trkpt lat="42.2186822724" lon="13.4143699240"><ele>1607.84</ele><time>2026-03-11T16:16:12Z</time><extensions><gpxtpx:TrackPointExtension><gpxtpx:atemp>2.7</gpxtpx:atemp></gpxtpx:TrackPointExtension></extensions></trkpt><trkpt lat="42.2186900675" lon="13.4143647272"><ele>1607.84</ele><time>2026-03-11T16:16:13Z</time><extensions><gpxtpx:TrackPointExtension><gpxtpx:atemp>2.7</gpxtpx:atemp></gpxtpx:TrackPointExtension></extensions></trkpt><trkpt lat="42.2186982818" lon="13.4143596981"><ele>1607.84</ele><time>2026-03-11T16:16:14Z</time><extensions><gpxtpx:TrackPointExtension><gpxtpx:atemp>2.7</gpxtpx:atemp></gpxtpx:TrackPointExtension></extensions></trkpt><trkpt lat="42.2187055741" lon="13.4143516514"><ele>1607.84</ele><time>2026-03-11T16:16:15Z</time><extensions><gpxtpx:TrackPointExtension><gpxtpx:atemp>2.7</gpxtpx:atemp></gpxtpx:TrackPointExtension></extensions></trkpt><trkpt lat="42.2187123634" lon="13.4143486340"><ele>1607.84</ele><time>2026-03-11T16:16:16Z</time><extensions><gpxtpx:TrackPointExtension><gpxtpx:atemp>2.7</gpxtpx:atemp></gpxtpx:TrackPointExtension></extensions></trkpt><trkpt lat="42.2187209968" lon="13.4143405873"><ele>1607.83</ele><time>2026-03-11T16:16:17Z</time><extensions><gpxtpx:TrackPointExtension><gpxtpx:atemp>2.7</gpxtpx:atemp></gpxtpx:TrackPointExtension></extensions></trkpt><trkpt lat="42.2187296301" lon="13.4143357258"><ele>1607.83</ele><time>2026-03-11T16:16:18Z</time><extensions><gpxtpx:TrackPointExtension><gpxtpx:atemp>2.7</gpxtpx:atemp></gpxtpx:TrackPointExtension></extensions></trkpt><trkpt lat="42.2187374253" lon="13.4143277630"><ele>1607.82</ele><time>2026-03-11T16:16:19Z</time><extensions><gpxtpx:TrackPointExtension><gpxtpx:atemp>2.7</gpxtpx:atemp></gpxtpx:TrackPointExtension></extensions></trkpt><trkpt lat="42.2187405266" lon="13.4143253323"><ele>1607.82</ele><time>2026-03-11T16:16:20Z</time><extensions><gpxtpx:TrackPointExtension><gpxtpx:atemp>2.7</gpxtpx:atemp></gpxtpx:TrackPointExtension></extensions></trkpt><trkpt lat="42.2187497467" lon="13.4143198840"><ele>1607.81</ele><time>2026-03-11T16:16:21Z</time><extensions><gpxtpx:TrackPointExtension><gpxtpx:atemp>2.7</gpxtpx:atemp></gpxtpx:TrackPointExtension></extensions></trkpt><trkpt lat="42.2187560331" lon="13.4143191297"><ele>1607.79</ele><time>2026-03-11T16:16:22Z</time><extensions><gpxtpx:TrackPointExtension><gpxtpx:atemp>2.7</gpxtpx:atemp></gpxtpx:TrackPointExtension></extensions></trkpt><trkpt lat="42.2187642474" lon="13.4143125918"><ele>1607.77</ele><time>2026-03-11T16:16:23Z</time><extensions><gpxtpx:TrackPointExtension><gpxtpx:atemp>2.7</gpxtpx:atemp></gpxtpx:TrackPointExtension></extensions></trkpt><trkpt lat="42.2187706176" lon="13.4143069759"><ele>1607.70</ele><time>2026-03-11T16:16:24Z</time><extensions><gpxtpx:TrackPointExtension><gpxtpx:atemp>2.7</gpxtpx:atemp></gpxtpx:TrackPointExtension></extensions></trkpt><trkpt lat="42.2187782452" lon="13.4143030364"><ele>1607.65</ele><time>2026-03-11T16:16:25Z</time><extensions><gpxtpx:TrackPointExtension><gpxtpx:atemp>2.7</gpxtpx:atemp></gpxtpx:TrackPointExtension></extensions></trkpt><trkpt lat="42.2187845316" lon="13.4142985940"><ele>1607.61</ele><time>2026-03-11T16:16:26Z</time><extensions><gpxtpx:TrackPointExtension><gpxtpx:atemp>2.7</gpxtpx:atemp></gpxtpx:TrackPointExtension></extensions></trkpt><trkpt lat="42.2187906504" lon="13.4142936487"><ele>1607.57</ele><time>2026-03-11T16:16:27Z</time><extensions><gpxtpx:TrackPointExtension><gpxtpx:atemp>2.7</gpxtpx:atemp></gpxtpx:TrackPointExtension></extensions></trkpt><trkpt lat="42.2187986970" lon="13.4142861888"><ele>1607.54</ele><time>2026-03-11T16:16:28Z</time><extensions><gpxtpx:TrackPointExtension><gpxtpx:atemp>2.7</gpxtpx:atemp></gpxtpx:TrackPointExtension></extensions></trkpt><trkpt lat="42.2188050672" lon="13.4142839257"><ele>1607.52</ele><time>2026-03-11T16:16:29Z</time><extensions><gpxtpx:TrackPointExtension><gpxtpx:atemp>2.7</gpxtpx:atemp></gpxtpx:TrackPointExtension></extensions></trkpt><trkpt lat="42.2188119404" lon="13.4142831713"><ele>1607.51</ele><time>2026-03-11T16:16:30Z</time><extensions><gpxtpx:TrackPointExtension><gpxtpx:atemp>2.7</gpxtpx:atemp></gpxtpx:TrackPointExtension></extensions></trkpt><trkpt lat="42.2188185621" lon="13.4142796509"><ele>1607.51</ele><time>2026-03-11T16:16:31Z</time><extensions><gpxtpx:TrackPointExtension><gpxtpx:atemp>2.7</gpxtpx:atemp></gpxtpx:TrackPointExtension></extensions></trkpt><trkpt lat="42.2188251000" lon="13.4142736997"><ele>1607.53</ele><time>2026-03-11T16:16:32Z</time><extensions><gpxtpx:TrackPointExtension><gpxtpx:atemp>2.7</gpxtpx:atemp></gpxtpx:TrackPointExtension></extensions></trkpt><trkpt lat="42.2188328952" lon="13.4142674971"><ele>1607.56</ele><time>2026-03-11T16:16:33Z</time><extensions><gpxtpx:TrackPointExtension><gpxtpx:atemp>2.7</gpxtpx:atemp></gpxtpx:TrackPointExtension></extensions></trkpt><trkpt lat="42.2188396845" lon="13.4142605402"><ele>1607.61</ele><time>2026-03-11T16:16:34Z</time><extensions><gpxtpx:TrackPointExtension><gpxtpx:atemp>2.7</gpxtpx:atemp></gpxtpx:TrackPointExtension></extensions></trkpt><trkpt lat="42.2188476473" lon="13.4142593667"><ele>1607.65</ele><time>2026-03-11T16:16:35Z</time><extensions><gpxtpx:TrackPointExtension><gpxtpx:atemp>2.7</gpxtpx:atemp></gpxtpx:TrackPointExtension></extensions></trkpt><trkpt lat="42.2188560292" lon="13.4142537508"><ele>1607.66</ele><time>2026-03-11T16:16:36Z</time><extensions><gpxtpx:TrackPointExtension><gpxtpx:atemp>2.7</gpxtpx:atemp></gpxtpx:TrackPointExtension></extensions></trkpt><trkpt lat="42.2188641597" lon="13.4142505657"><ele>1607.67</ele><time>2026-03-11T16:16:37Z</time><extensions><gpxtpx:TrackPointExtension><gpxtpx:atemp>2.7</gpxtpx:atemp></gpxtpx:TrackPointExtension></extensions></trkpt><trkpt lat="42.2188751400" lon="13.4142474644"><ele>1607.69</ele><time>2026-03-11T16:16:38Z</time><extensions><gpxtpx:TrackPointExtension><gpxtpx:atemp>2.7</gpxtpx:atemp></gpxtpx:TrackPointExtension></extensions></trkpt><trkpt lat="42.2188837733" lon="13.4142435249"><ele>1607.73</ele><time>2026-03-11T16:16:39Z</time><extensions><gpxtpx:TrackPointExtension><gpxtpx:atemp>2.7</gpxtpx:atemp></gpxtpx:TrackPointExtension></extensions></trkpt><trkpt lat="42.2188928258" lon="13.4142408427"><ele>1607.81</ele><time>2026-03-11T16:16:40Z</time><extensions><gpxtpx:TrackPointExtension><gpxtpx:atemp>2.7</gpxtpx:atemp></gpxtpx:TrackPointExtension></extensions></trkpt><trkpt lat="42.2188995313" lon="13.4142395854"><ele>1607.90</ele><time>2026-03-11T16:16:41Z</time><extensions><gpxtpx:TrackPointExtension><gpxtpx:atemp>2.7</gpxtpx:atemp></gpxtpx:TrackPointExtension></extensions></trkpt><trkpt lat="42.2189070750" lon="13.4142372385"><ele>1607.97</ele><time>2026-03-11T16:16:42Z</time><extensions><gpxtpx:TrackPointExtension><gpxtpx:atemp>2.7</gpxtpx:atemp></gpxtpx:TrackPointExtension></extensions></trkpt><trkpt lat="42.2189165466" lon="13.4142337181"><ele>1608.00</ele><time>2026-03-11T16:16:43Z</time><extensions><gpxtpx:TrackPointExtension><gpxtpx:atemp>2.7</gpxtpx:atemp></gpxtpx:TrackPointExtension></extensions></trkpt><trkpt lat="42.2189256828" lon="13.4142303653"><ele>1608.03</ele><time>2026-03-11T16:16:44Z</time><extensions><gpxtpx:TrackPointExtension><gpxtpx:atemp>2.7</gpxtpx:atemp></gpxtpx:TrackPointExtension></extensions></trkpt><trkpt lat="42.2189310472" lon="13.4142252523"><ele>1608.07</ele><time>2026-03-11T16:16:45Z</time><extensions><gpxtpx:TrackPointExtension><gpxtpx:atemp>2.7</gpxtpx:atemp></gpxtpx:TrackPointExtension></extensions></trkpt><trkpt lat="42.2189374175" lon="13.4142211452"><ele>1608.13</ele><time>2026-03-11T16:16:46Z</time><extensions><gpxtpx:TrackPointExtension><gpxtpx:atemp>2.7</gpxtpx:atemp></gpxtpx:TrackPointExtension></extensions></trkpt><trkpt lat="42.2189452965" lon="13.4142148588"><ele>1608.17</ele><time>2026-03-11T16:16:47Z</time><extensions><gpxtpx:TrackPointExtension><gpxtpx:atemp>2.7</gpxtpx:atemp></gpxtpx:TrackPointExtension></extensions></trkpt><trkpt lat="42.2189531755" lon="13.4142132662"><ele>1608.22</ele><time>2026-03-11T16:16:48Z</time><extensions><gpxtpx:TrackPointExtension><gpxtpx:atemp>2.7</gpxtpx:atemp></gpxtpx:TrackPointExtension></extensions></trkpt><trkpt lat="42.2189616412" lon="13.4142113384"><ele>1608.30</ele><time>2026-03-11T16:16:49Z</time><extensions><gpxtpx:TrackPointExtension><gpxtpx:atemp>2.7</gpxtpx:atemp></gpxtpx:TrackPointExtension></extensions></trkpt><trkpt lat="42.2189682629" lon="13.4142066445"><ele>1608.37</ele><time>2026-03-11T16:16:50Z</time><extensions><gpxtpx:TrackPointExtension><gpxtpx:atemp>2.7</gpxtpx:atemp></gpxtpx:TrackPointExtension></extensions></trkpt><trkpt lat="42.2189770639" lon="13.4142013639"><ele>1608.43</ele><time>2026-03-11T16:16:51Z</time><extensions><gpxtpx:TrackPointExtension><gpxtpx:atemp>2.7</gpxtpx:atemp></gpxtpx:TrackPointExtension></extensions></trkpt><trkpt lat="42.2189828474" lon="13.4141965862"><ele>1608.46</ele><time>2026-03-11T16:16:52Z</time><extensions><gpxtpx:TrackPointExtension><gpxtpx:atemp>2.7</gpxtpx:atemp></gpxtpx:TrackPointExtension></extensions></trkpt><trkpt lat="42.2189894691" lon="13.4141924791"><ele>1608.51</ele><time>2026-03-11T16:16:53Z</time><extensions><gpxtpx:TrackPointExtension><gpxtpx:atemp>2.7</gpxtpx:atemp></gpxtpx:TrackPointExtension></extensions></trkpt><trkpt lat="42.2189958394" lon="13.4141875338"><ele>1608.57</ele><time>2026-03-11T16:16:54Z</time><extensions><gpxtpx:TrackPointExtension><gpxtpx:atemp>2.7</gpxtpx:atemp></gpxtpx:TrackPointExtension></extensions></trkpt><trkpt lat="42.2190027963" lon="13.4141865280"><ele>1608.62</ele><time>2026-03-11T16:16:55Z</time><extensions><gpxtpx:TrackPointExtension><gpxtpx:atemp>2.7</gpxtpx:atemp></gpxtpx:TrackPointExtension></extensions></trkpt><trkpt lat="42.2190095857" lon="13.4141810797"><ele>1608.65</ele><time>2026-03-11T16:16:56Z</time><extensions><gpxtpx:TrackPointExtension><gpxtpx:atemp>2.7</gpxtpx:atemp></gpxtpx:TrackPointExtension></extensions></trkpt><trkpt lat="42.2190163750" lon="13.4141742904"><ele>1608.66</ele><time>2026-03-11T16:16:57Z</time><extensions><gpxtpx:TrackPointExtension><gpxtpx:atemp>2.7</gpxtpx:atemp></gpxtpx:TrackPointExtension></extensions></trkpt><trkpt lat="42.2190192249" lon="13.4141707700"><ele>1608.66</ele><time>2026-03-11T16:16:58Z</time><extensions><gpxtpx:TrackPointExtension><gpxtpx:atemp>2.7</gpxtpx:atemp></gpxtpx:TrackPointExtension></extensions></trkpt><trkpt lat="42.2190285288" lon="13.4141644835"><ele>1608.66</ele><time>2026-03-11T16:16:59Z</time><extensions><gpxtpx:TrackPointExtension><gpxtpx:atemp>2.7</gpxtpx:atemp></gpxtpx:TrackPointExtension></extensions></trkpt><trkpt lat="42.2190383356" lon="13.4141572751"><ele>1608.66</ele><time>2026-03-11T16:17:00Z</time><extensions><gpxtpx:TrackPointExtension><gpxtpx:atemp>2.7</gpxtpx:atemp></gpxtpx:TrackPointExtension></extensions></trkpt><trkpt lat="42.2190442868" lon="13.4141528327"><ele>1608.66</ele><time>2026-03-11T16:17:01Z</time><extensions><gpxtpx:TrackPointExtension><gpxtpx:atemp>2.7</gpxtpx:atemp></gpxtpx:TrackPointExtension></extensions></trkpt><trkpt lat="42.2190534230" lon="13.4141460434"><ele>1608.66</ele><time>2026-03-11T16:17:02Z</time><extensions><gpxtpx:TrackPointExtension><gpxtpx:atemp>2.7</gpxtpx:atemp></gpxtpx:TrackPointExtension></extensions></trkpt><trkpt lat="42.2190630622" lon="13.4141411819"><ele>1608.62</ele><time>2026-03-11T16:17:03Z</time><extensions><gpxtpx:TrackPointExtension><gpxtpx:atemp>2.7</gpxtpx:atemp></gpxtpx:TrackPointExtension></extensions></trkpt><trkpt lat="42.2190706898" lon="13.4141396731"><ele>1608.55</ele><time>2026-03-11T16:17:04Z</time><extensions><gpxtpx:TrackPointExtension><gpxtpx:atemp>2.7</gpxtpx:atemp></gpxtpx:TrackPointExtension></extensions></trkpt><trkpt lat="42.2190793231" lon="13.4141331352"><ele>1608.50</ele><time>2026-03-11T16:17:05Z</time><extensions><gpxtpx:TrackPointExtension><gpxtpx:atemp>2.7</gpxtpx:atemp></gpxtpx:TrackPointExtension></extensions></trkpt><trkpt lat="42.2190877888" lon="13.4141287766"><ele>1608.49</ele><time>2026-03-11T16:17:06Z</time><extensions><gpxtpx:TrackPointExtension><gpxtpx:atemp>2.7</gpxtpx:atemp></gpxtpx:TrackPointExtension></extensions></trkpt><trkpt lat="42.2190953325" lon="13.4141245857"><ele>1608.47</ele><time>2026-03-11T16:17:07Z</time><extensions><gpxtpx:TrackPointExtension><gpxtpx:atemp>2.7</gpxtpx:atemp></gpxtpx:TrackPointExtension></extensions></trkpt><trkpt lat="42.2191017866" lon="13.4141221549"><ele>1608.43</ele><time>2026-03-11T16:17:08Z</time><extensions><gpxtpx:TrackPointExtension><gpxtpx:atemp>2.7</gpxtpx:atemp></gpxtpx:TrackPointExtension></extensions></trkpt><trkpt lat="42.2191105876" lon="13.4141189698"><ele>1608.39</ele><time>2026-03-11T16:17:09Z</time><extensions><gpxtpx:TrackPointExtension><gpxtpx:atemp>2.7</gpxtpx:atemp></gpxtpx:TrackPointExtension></extensions></trkpt><trkpt lat="42.2191181313" lon="13.4141160361"><ele>1608.37</ele><time>2026-03-11T16:17:10Z</time><extensions><gpxtpx:TrackPointExtension><gpxtpx:atemp>2.7</gpxtpx:atemp></gpxtpx:TrackPointExtension></extensions></trkpt><trkpt lat="42.2191280220" lon="13.4141104203"><ele>1608.34</ele><time>2026-03-11T16:17:11Z</time><extensions><gpxtpx:TrackPointExtension><gpxtpx:atemp>2.7</gpxtpx:atemp></gpxtpx:TrackPointExtension></extensions></trkpt><trkpt lat="42.2191371582" lon="13.4141068999"><ele>1608.28</ele><time>2026-03-11T16:17:12Z</time><extensions><gpxtpx:TrackPointExtension><gpxtpx:atemp>2.7</gpxtpx:atemp></gpxtpx:TrackPointExtension></extensions></trkpt><trkpt lat="42.2191444505" lon="13.4141015355"><ele>1608.25</ele><time>2026-03-11T16:17:13Z</time><extensions><gpxtpx:TrackPointExtension><gpxtpx:atemp>2.7</gpxtpx:atemp></gpxtpx:TrackPointExtension></extensions></trkpt><trkpt lat="42.2191526648" lon="13.4140976798"><ele>1608.19</ele><time>2026-03-11T16:17:14Z</time><extensions><gpxtpx:TrackPointExtension><gpxtpx:atemp>2.7</gpxtpx:atemp></gpxtpx:TrackPointExtension></extensions></trkpt><trkpt lat="42.2191612981" lon="13.4140930697"><ele>1608.09</ele><time>2026-03-11T16:17:15Z</time><extensions><gpxtpx:TrackPointExtension><gpxtpx:atemp>2.7</gpxtpx:atemp></gpxtpx:TrackPointExtension></extensions></trkpt><trkpt lat="42.2191710211" lon="13.4140857775"><ele>1607.97</ele><time>2026-03-11T16:17:16Z</time><extensions><gpxtpx:TrackPointExtension><gpxtpx:atemp>2.7</gpxtpx:atemp></gpxtpx:TrackPointExtension></extensions></trkpt><trkpt lat="42.2191789839" lon="13.4140816703"><ele>1607.92</ele><time>2026-03-11T16:17:17Z</time><extensions><gpxtpx:TrackPointExtension><gpxtpx:atemp>2.7</gpxtpx:atemp></gpxtpx:TrackPointExtension></extensions></trkpt><trkpt lat="42.2191871982" lon="13.4140770603"><ele>1607.86</ele><time>2026-03-11T16:17:18Z</time><extensions><gpxtpx:TrackPointExtension><gpxtpx:atemp>2.7</gpxtpx:atemp></gpxtpx:TrackPointExtension></extensions></trkpt><trkpt lat="42.2191960830" lon="13.4140710253"><ele>1607.81</ele><time>2026-03-11T16:17:19Z</time><extensions><gpxtpx:TrackPointExtension><gpxtpx:atemp>2.7</gpxtpx:atemp></gpxtpx:TrackPointExtension></extensions></trkpt><trkpt lat="42.2192058899" lon="13.4140672535"><ele>1607.79</ele><time>2026-03-11T16:17:20Z</time><extensions><gpxtpx:TrackPointExtension><gpxtpx:atemp>2.7</gpxtpx:atemp></gpxtpx:TrackPointExtension></extensions></trkpt><trkpt lat="42.2192145232" lon="13.4140630625"><ele>1607.73</ele><time>2026-03-11T16:17:21Z</time><extensions><gpxtpx:TrackPointExtension><gpxtpx:atemp>2.7</gpxtpx:atemp></gpxtpx:TrackPointExtension></extensions></trkpt><trkpt lat="42.2192249168" lon="13.4140575305"><ele>1607.67</ele><time>2026-03-11T16:17:22Z</time><extensions><gpxtpx:TrackPointExtension><gpxtpx:atemp>2.7</gpxtpx:atemp></gpxtpx:TrackPointExtension></extensions></trkpt><trkpt lat="42.2192352265" lon="13.4140530881"><ele>1607.62</ele><time>2026-03-11T16:17:23Z</time><extensions><gpxtpx:TrackPointExtension><gpxtpx:atemp>2.7</gpxtpx:atemp></gpxtpx:TrackPointExtension></extensions></trkpt><trkpt lat="42.2192420997" lon="13.4140489809"><ele>1607.56</ele><time>2026-03-11T16:17:24Z</time><extensions><gpxtpx:TrackPointExtension><gpxtpx:atemp>2.7</gpxtpx:atemp></gpxtpx:TrackPointExtension></extensions></trkpt><trkpt lat="42.2192511521" lon="13.4140429460"><ele>1607.49</ele><time>2026-03-11T16:17:25Z</time><extensions><gpxtpx:TrackPointExtension><gpxtpx:atemp>2.7</gpxtpx:atemp></gpxtpx:TrackPointExtension></extensions></trkpt><trkpt lat="42.2192590311" lon="13.4140388388"><ele>1607.39</ele><time>2026-03-11T16:17:26Z</time><extensions><gpxtpx:TrackPointExtension><gpxtpx:atemp>2.7</gpxtpx:atemp></gpxtpx:TrackPointExtension></extensions></trkpt><trkpt lat="42.2192690894" lon="13.4140338935"><ele>1607.30</ele><time>2026-03-11T16:17:27Z</time><extensions><gpxtpx:TrackPointExtension><gpxtpx:atemp>2.7</gpxtpx:atemp></gpxtpx:TrackPointExtension></extensions></trkpt><trkpt lat="42.2192801535" lon="13.4140272718"><ele>1607.21</ele><time>2026-03-11T16:17:28Z</time><extensions><gpxtpx:TrackPointExtension><gpxtpx:atemp>2.7</gpxtpx:atemp></gpxtpx:TrackPointExtension></extensions></trkpt><trkpt lat="42.2192922235" lon="13.4140237514"><ele>1607.17</ele><time>2026-03-11T16:17:29Z</time><extensions><gpxtpx:TrackPointExtension><gpxtpx:atemp>2.7</gpxtpx:atemp></gpxtpx:TrackPointExtension></extensions></trkpt><trkpt lat="42.2193036228" lon="13.4140184708"><ele>1607.13</ele><time>2026-03-11T16:17:30Z</time><extensions><gpxtpx:TrackPointExtension><gpxtpx:atemp>2.7</gpxtpx:atemp></gpxtpx:TrackPointExtension></extensions></trkpt><trkpt lat="42.2193139326" lon="13.4140138607"><ele>1607.09</ele><time>2026-03-11T16:17:31Z</time><extensions><gpxtpx:TrackPointExtension><gpxtpx:atemp>2.7</gpxtpx:atemp></gpxtpx:TrackPointExtension></extensions></trkpt><trkpt lat="42.2193248291" lon="13.4140137769"><ele>1607.01</ele><time>2026-03-11T16:17:32Z</time><extensions><gpxtpx:TrackPointExtension><gpxtpx:atemp>2.7</gpxtpx:atemp></gpxtpx:TrackPointExtension></extensions></trkpt><trkpt lat="42.2193368990" lon="13.4140091669"><ele>1606.90</ele><time>2026-03-11T16:17:33Z</time><extensions><gpxtpx:TrackPointExtension><gpxtpx:atemp>2.7</gpxtpx:atemp></gpxtpx:TrackPointExtension></extensions></trkpt><trkpt lat="42.2193465382" lon="13.4140080772"><ele>1606.76</ele><time>2026-03-11T16:17:34Z</time><extensions><gpxtpx:TrackPointExtension><gpxtpx:atemp>2.7</gpxtpx:atemp></gpxtpx:TrackPointExtension></extensions></trkpt><trkpt lat="42.2193568479" lon="13.4140048921"><ele>1606.64</ele><time>2026-03-11T16:17:35Z</time><extensions><gpxtpx:TrackPointExtension><gpxtpx:atemp>2.7</gpxtpx:atemp></gpxtpx:TrackPointExtension></extensions></trkpt><trkpt lat="42.2193679959" lon="13.4140010364"><ele>1606.53</ele><time>2026-03-11T16:17:36Z</time><extensions><gpxtpx:TrackPointExtension><gpxtpx:atemp>2.7</gpxtpx:atemp></gpxtpx:TrackPointExtension></extensions></trkpt><trkpt lat="42.2193786409" lon="13.4139989410"><ele>1606.40</ele><time>2026-03-11T16:17:37Z</time><extensions><gpxtpx:TrackPointExtension><gpxtpx:atemp>2.7</gpxtpx:atemp></gpxtpx:TrackPointExtension></extensions></trkpt><trkpt lat="42.2193887830" lon="13.4139947500"><ele>1606.29</ele><time>2026-03-11T16:17:38Z</time><extensions><gpxtpx:TrackPointExtension><gpxtpx:atemp>2.7</gpxtpx:atemp></gpxtpx:TrackPointExtension></extensions></trkpt><trkpt lat="42.2193994280" lon="13.4139936604"><ele>1606.12</ele><time>2026-03-11T16:17:39Z</time><extensions><gpxtpx:TrackPointExtension><gpxtpx:atemp>2.7</gpxtpx:atemp></gpxtpx:TrackPointExtension></extensions></trkpt><trkpt lat="42.2194102407" lon="13.4139901400"><ele>1606.07</ele><time>2026-03-11T16:17:40Z</time><extensions><gpxtpx:TrackPointExtension><gpxtpx:atemp>2.7</gpxtpx:atemp></gpxtpx:TrackPointExtension></extensions></trkpt><trkpt lat="42.2194216400" lon="13.4139884636"><ele>1605.98</ele><time>2026-03-11T16:17:41Z</time><extensions><gpxtpx:TrackPointExtension><gpxtpx:atemp>2.7</gpxtpx:atemp></gpxtpx:TrackPointExtension></extensions></trkpt><trkpt lat="42.2194303572" lon="13.4139859490"><ele>1605.84</ele><time>2026-03-11T16:17:42Z</time><extensions><gpxtpx:TrackPointExtension><gpxtpx:atemp>2.7</gpxtpx:atemp></gpxtpx:TrackPointExtension></extensions></trkpt><trkpt lat="42.2194419242" lon="13.4139825962"><ele>1605.70</ele><time>2026-03-11T16:17:43Z</time><extensions><gpxtpx:TrackPointExtension><gpxtpx:atemp>2.7</gpxtpx:atemp></gpxtpx:TrackPointExtension></extensions></trkpt><trkpt lat="42.2194552515" lon="13.4139824286"><ele>1605.56</ele><time>2026-03-11T16:17:44Z</time><extensions><gpxtpx:TrackPointExtension><gpxtpx:atemp>2.7</gpxtpx:atemp></gpxtpx:TrackPointExtension></extensions></trkpt><trkpt lat="42.2194671538" lon="13.4139799979"><ele>1605.44</ele><time>2026-03-11T16:17:45Z</time><extensions><gpxtpx:TrackPointExtension><gpxtpx:atemp>2.7</gpxtpx:atemp></gpxtpx:TrackPointExtension></extensions></trkpt><trkpt lat="42.2194797266" lon="13.4139791597"><ele>1605.35</ele><time>2026-03-11T16:17:46Z</time><extensions><gpxtpx:TrackPointExtension><gpxtpx:atemp>2.7</gpxtpx:atemp></gpxtpx:TrackPointExtension></extensions></trkpt><trkpt lat="42.2194922995" lon="13.4139771480"><ele>1605.25</ele><time>2026-03-11T16:17:47Z</time><extensions><gpxtpx:TrackPointExtension><gpxtpx:atemp>2.7</gpxtpx:atemp></gpxtpx:TrackPointExtension></extensions></trkpt><trkpt lat="42.2195054591" lon="13.4139748849"><ele>1605.13</ele><time>2026-03-11T16:17:48Z</time><extensions><gpxtpx:TrackPointExtension><gpxtpx:atemp>2.7</gpxtpx:atemp></gpxtpx:TrackPointExtension></extensions></trkpt><trkpt lat="42.2195172776" lon="13.4139761422"><ele>1604.99</ele><time>2026-03-11T16:17:49Z</time><extensions><gpxtpx:TrackPointExtension><gpxtpx:atemp>2.7</gpxtpx:atemp></gpxtpx:TrackPointExtension></extensions></trkpt><trkpt lat="42.2195296828" lon="13.4139747173"><ele>1604.85</ele><time>2026-03-11T16:17:50Z</time><extensions><gpxtpx:TrackPointExtension><gpxtpx:atemp>2.7</gpxtpx:atemp></gpxtpx:TrackPointExtension></extensions></trkpt><trkpt lat="42.2195408307" lon="13.4139770642"><ele>1604.59</ele><time>2026-03-11T16:17:51Z</time><extensions><gpxtpx:TrackPointExtension><gpxtpx:atemp>2.7</gpxtpx:atemp></gpxtpx:TrackPointExtension></extensions></trkpt><trkpt lat="42.2195522301" lon="13.4139770642"><ele>1604.49</ele><time>2026-03-11T16:17:52Z</time><extensions><gpxtpx:TrackPointExtension><gpxtpx:atemp>2.7</gpxtpx:atemp></gpxtpx:TrackPointExtension></extensions></trkpt><trkpt lat="42.2195643838" lon="13.4139784891"><ele>1604.36</ele><time>2026-03-11T16:17:53Z</time><extensions><gpxtpx:TrackPointExtension><gpxtpx:atemp>2.7</gpxtpx:atemp></gpxtpx:TrackPointExtension></extensions></trkpt><trkpt lat="42.2195768729" lon="13.4139791597"><ele>1604.17</ele><time>2026-03-11T16:17:54Z</time><extensions><gpxtpx:TrackPointExtension><gpxtpx:atemp>2.7</gpxtpx:atemp></gpxtpx:TrackPointExtension></extensions></trkpt><trkpt lat="42.2195874341" lon="13.4139787406"><ele>1604.00</ele><time>2026-03-11T16:17:55Z</time><extensions><gpxtpx:TrackPointExtension><gpxtpx:atemp>2.7</gpxtpx:atemp></gpxtpx:TrackPointExtension></extensions></trkpt><trkpt lat="42.2195981629" lon="13.4139818419"><ele>1603.87</ele><time>2026-03-11T16:17:56Z</time><extensions><gpxtpx:TrackPointExtension><gpxtpx:atemp>2.7</gpxtpx:atemp></gpxtpx:TrackPointExtension></extensions></trkpt><trkpt lat="42.2196081374" lon="13.4139848594"><ele>1603.78</ele><time>2026-03-11T16:17:57Z</time><extensions><gpxtpx:TrackPointExtension><gpxtpx:atemp>2.7</gpxtpx:atemp></gpxtpx:TrackPointExtension></extensions></trkpt><trkpt lat="42.2196201235" lon="13.4139871225"><ele>1603.73</ele><time>2026-03-11T16:17:58Z</time><extensions><gpxtpx:TrackPointExtension><gpxtpx:atemp>2.7</gpxtpx:atemp></gpxtpx:TrackPointExtension></extensions></trkpt><trkpt lat="42.2196295951" lon="13.4139903914"><ele>1603.64</ele><time>2026-03-11T16:17:59Z</time><extensions><gpxtpx:TrackPointExtension><gpxtpx:atemp>2.7</gpxtpx:atemp></gpxtpx:TrackPointExtension></extensions></trkpt><trkpt lat="42.2196379770" lon="13.4139908943"><ele>1603.48</ele><time>2026-03-11T16:18:00Z</time><extensions><gpxtpx:TrackPointExtension><gpxtpx:atemp>2.7</gpxtpx:atemp></gpxtpx:TrackPointExtension></extensions></trkpt><trkpt lat="42.2196468618" lon="13.4139951691"><ele>1603.33</ele><time>2026-03-11T16:18:01Z</time><extensions><gpxtpx:TrackPointExtension><gpxtpx:atemp>2.7</gpxtpx:atemp></gpxtpx:TrackPointExtension></extensions></trkpt><trkpt lat="42.2196573392" lon="13.4139975999"><ele>1603.16</ele><time>2026-03-11T16:18:02Z</time><extensions><gpxtpx:TrackPointExtension><gpxtpx:atemp>2.7</gpxtpx:atemp></gpxtpx:TrackPointExtension></extensions></trkpt><trkpt lat="42.2196671460" lon="13.4140000306"><ele>1603.07</ele><time>2026-03-11T16:18:03Z</time><extensions><gpxtpx:TrackPointExtension><gpxtpx:atemp>2.7</gpxtpx:atemp></gpxtpx:TrackPointExtension></extensions></trkpt><trkpt lat="42.2196772881" lon="13.4140033834"><ele>1603.00</ele><time>2026-03-11T16:18:04Z</time><extensions><gpxtpx:TrackPointExtension><gpxtpx:atemp>2.7</gpxtpx:atemp></gpxtpx:TrackPointExtension></extensions></trkpt><trkpt lat="42.2196864244" lon="13.4140050597"><ele>1602.90</ele><time>2026-03-11T16:18:05Z</time><extensions><gpxtpx:TrackPointExtension><gpxtpx:atemp>2.7</gpxtpx:atemp></gpxtpx:TrackPointExtension></extensions></trkpt><trkpt lat="42.2196944710" lon="13.4140069876"><ele>1602.78</ele><time>2026-03-11T16:18:06Z</time><extensions><gpxtpx:TrackPointExtension><gpxtpx:atemp>2.7</gpxtpx:atemp></gpxtpx:TrackPointExtension></extensions></trkpt><trkpt lat="42.2196967341" lon="13.4140075743"><ele>1602.65</ele><time>2026-03-11T16:18:07Z</time><extensions><gpxtpx:TrackPointExtension><gpxtpx:atemp>2.7</gpxtpx:atemp></gpxtpx:TrackPointExtension></extensions></trkpt><trkpt lat="42.2196965665" lon="13.4140075743"><ele>1602.51</ele><time>2026-03-11T16:18:08Z</time><extensions><gpxtpx:TrackPointExtension><gpxtpx:atemp>2.7</gpxtpx:atemp></gpxtpx:TrackPointExtension></extensions></trkpt><trkpt lat="42.2196972370" lon="13.4140064847"><ele>1602.40</ele><time>2026-03-11T16:18:09Z</time><extensions><gpxtpx:TrackPointExtension><gpxtpx:atemp>2.7</gpxtpx:atemp></gpxtpx:TrackPointExtension></extensions></trkpt><trkpt lat="42.2196978237" lon="13.4140058979"><ele>1602.34</ele><time>2026-03-11T16:18:10Z</time><extensions><gpxtpx:TrackPointExtension><gpxtpx:atemp>2.7</gpxtpx:atemp></gpxtpx:TrackPointExtension></extensions></trkpt><trkpt lat="42.2196975723" lon="13.4140049759"><ele>1602.27</ele><time>2026-03-11T16:18:11Z</time><extensions><gpxtpx:TrackPointExtension><gpxtpx:atemp>2.7</gpxtpx:atemp></gpxtpx:TrackPointExtension></extensions></trkpt><trkpt lat="42.2196978237" lon="13.4140049759"><ele>1602.21</ele><time>2026-03-11T16:18:12Z</time><extensions><gpxtpx:TrackPointExtension><gpxtpx:atemp>2.7</gpxtpx:atemp></gpxtpx:TrackPointExtension></extensions></trkpt><trkpt lat="42.2196983267" lon="13.4140031319"><ele>1602.14</ele><time>2026-03-11T16:18:13Z</time><extensions><gpxtpx:TrackPointExtension><gpxtpx:atemp>2.7</gpxtpx:atemp></gpxtpx:TrackPointExtension></extensions></trkpt><trkpt lat="42.2196981590" lon="13.4140032995"><ele>1602.10</ele><time>2026-03-11T16:18:14Z</time><extensions><gpxtpx:TrackPointExtension><gpxtpx:atemp>2.7</gpxtpx:atemp></gpxtpx:TrackPointExtension></extensions></trkpt><trkpt lat="42.2196978237" lon="13.4140037186"><ele>1602.15</ele><time>2026-03-11T16:18:15Z</time><extensions><gpxtpx:TrackPointExtension><gpxtpx:atemp>2.7</gpxtpx:atemp></gpxtpx:TrackPointExtension></extensions></trkpt><trkpt lat="42.2196978237" lon="13.4140034672"><ele>1602.18</ele><time>2026-03-11T16:18:16Z</time><extensions><gpxtpx:TrackPointExtension><gpxtpx:atemp>2.7</gpxtpx:atemp></gpxtpx:TrackPointExtension></extensions></trkpt><trkpt lat="42.2196995839" lon="13.4140035510"><ele>1602.19</ele><time>2026-03-11T16:18:17Z</time><extensions><gpxtpx:TrackPointExtension><gpxtpx:atemp>2.7</gpxtpx:atemp></gpxtpx:TrackPointExtension></extensions></trkpt><trkpt lat="42.2196996678" lon="13.4140028805"><ele>1602.22</ele><time>2026-03-11T16:18:18Z</time><extensions><gpxtpx:TrackPointExtension><gpxtpx:atemp>2.7</gpxtpx:atemp></gpxtpx:TrackPointExtension></extensions></trkpt><trkpt lat="42.2196994163" lon="13.4140026290"><ele>1602.25</ele><time>2026-03-11T16:18:19Z</time><extensions><gpxtpx:TrackPointExtension><gpxtpx:atemp>2.7</gpxtpx:atemp></gpxtpx:TrackPointExtension></extensions></trkpt><trkpt lat="42.2196996678" lon="13.4140025452"><ele>1602.27</ele><time>2026-03-11T16:18:20Z</time><extensions><gpxtpx:TrackPointExtension><gpxtpx:atemp>2.7</gpxtpx:atemp></gpxtpx:TrackPointExtension></extensions></trkpt><trkpt lat="42.2196998354" lon="13.4140025452"><ele>1602.27</ele><time>2026-03-11T16:18:21Z</time><extensions><gpxtpx:TrackPointExtension><gpxtpx:atemp>2.7</gpxtpx:atemp></gpxtpx:TrackPointExtension></extensions></trkpt><trkpt lat="42.2197000869" lon="13.4140027966"><ele>1602.28</ele><time>2026-03-11T16:18:22Z</time><extensions><gpxtpx:TrackPointExtension><gpxtpx:atemp>2.7</gpxtpx:atemp></gpxtpx:TrackPointExtension></extensions></trkpt><trkpt lat="42.2197000869" lon="13.4140020423"><ele>1602.28</ele><time>2026-03-11T16:18:23Z</time><extensions><gpxtpx:TrackPointExtension><gpxtpx:atemp>2.7</gpxtpx:atemp></gpxtpx:TrackPointExtension></extensions></trkpt><trkpt lat="42.2197003383" lon="13.4140015393"><ele>1602.28</ele><time>2026-03-11T16:18:24Z</time><extensions><gpxtpx:TrackPointExtension><gpxtpx:atemp>2.7</gpxtpx:atemp></gpxtpx:TrackPointExtension></extensions></trkpt><trkpt lat="42.2197008412" lon="13.4140013717"><ele>1602.26</ele><time>2026-03-11T16:18:25Z</time><extensions><gpxtpx:TrackPointExtension><gpxtpx:atemp>2.7</gpxtpx:atemp></gpxtpx:TrackPointExtension></extensions></trkpt><trkpt lat="42.2197009251" lon="13.4140013717"><ele>1602.25</ele><time>2026-03-11T16:18:26Z</time><extensions><gpxtpx:TrackPointExtension><gpxtpx:atemp>2.7</gpxtpx:atemp></gpxtpx:TrackPointExtension></extensions></trkpt><trkpt lat="42.2197008412" lon="13.4140011203"><ele>1602.25</ele><time>2026-03-11T16:18:27Z</time><extensions><gpxtpx:TrackPointExtension><gpxtpx:atemp>2.7</gpxtpx:atemp></gpxtpx:TrackPointExtension></extensions></trkpt><trkpt lat="42.2197012603" lon="13.4140005335"><ele>1602.25</ele><time>2026-03-11T16:18:28Z</time><extensions><gpxtpx:TrackPointExtension><gpxtpx:atemp>2.7</gpxtpx:atemp></gpxtpx:TrackPointExtension></extensions></trkpt><trkpt lat="42.2197009251" lon="13.4140004497"><ele>1602.30</ele><time>2026-03-11T16:18:29Z</time><extensions><gpxtpx:TrackPointExtension><gpxtpx:atemp>2.7</gpxtpx:atemp></gpxtpx:TrackPointExtension></extensions></trkpt><trkpt lat="42.2197011765" lon="13.4140002821"><ele>1602.31</ele><time>2026-03-11T16:18:30Z</time><extensions><gpxtpx:TrackPointExtension><gpxtpx:atemp>2.7</gpxtpx:atemp></gpxtpx:TrackPointExtension></extensions></trkpt><trkpt lat="42.2197014280" lon="13.4139997791"><ele>1602.34</ele><time>2026-03-11T16:18:31Z</time><extensions><gpxtpx:TrackPointExtension><gpxtpx:atemp>2.7</gpxtpx:atemp></gpxtpx:TrackPointExtension></extensions></trkpt><trkpt lat="42.2197013441" lon="13.4140001982"><ele>1602.35</ele><time>2026-03-11T16:18:32Z</time><extensions><gpxtpx:TrackPointExtension><gpxtpx:atemp>2.7</gpxtpx:atemp></gpxtpx:TrackPointExtension></extensions></trkpt><trkpt lat="42.2197012603" lon="13.4140000306"><ele>1602.37</ele><time>2026-03-11T16:18:33Z</time><extensions><gpxtpx:TrackPointExtension><gpxtpx:atemp>2.7</gpxtpx:atemp></gpxtpx:TrackPointExtension></extensions></trkpt><trkpt lat="42.2197012603" lon="13.4140001982"><ele>1602.38</ele><time>2026-03-11T16:18:34Z</time><extensions><gpxtpx:TrackPointExtension><gpxtpx:atemp>2.6</gpxtpx:atemp></gpxtpx:TrackPointExtension></extensions></trkpt><trkpt lat="42.2197013441" lon="13.4140004497"><ele>1602.38</ele><time>2026-03-11T16:18:35Z</time><extensions><gpxtpx:TrackPointExtension><gpxtpx:atemp>2.6</gpxtpx:atemp></gpxtpx:TrackPointExtension></extensions></trkpt><trkpt lat="42.2197013441" lon="13.4140004497"><ele>1602.37</ele><time>2026-03-11T16:18:36Z</time><extensions><gpxtpx:TrackPointExtension><gpxtpx:atemp>2.6</gpxtpx:atemp></gpxtpx:TrackPointExtension></extensions></trkpt><trkpt lat="42.2197013441" lon="13.4140004497"><ele>1602.37</ele><time>2026-03-11T16:18:37Z</time><extensions><gpxtpx:TrackPointExtension><gpxtpx:atemp>2.6</gpxtpx:atemp></gpxtpx:TrackPointExtension></extensions></trkpt><trkpt lat="42.2197011765" lon="13.4140005335"><ele>1602.35</ele><time>2026-03-11T16:18:38Z</time><extensions><gpxtpx:TrackPointExtension><gpxtpx:atemp>2.6</gpxtpx:atemp></gpxtpx:TrackPointExtension></extensions></trkpt><trkpt lat="42.2197013441" lon="13.4140006173"><ele>1602.30</ele><time>2026-03-11T16:18:39Z</time><extensions><gpxtpx:TrackPointExtension><gpxtpx:atemp>2.6</gpxtpx:atemp></gpxtpx:TrackPointExtension></extensions></trkpt><trkpt lat="42.2197012603" lon="13.4140008688"><ele>1602.23</ele><time>2026-03-11T16:18:40Z</time><extensions><gpxtpx:TrackPointExtension><gpxtpx:atemp>2.6</gpxtpx:atemp></gpxtpx:TrackPointExtension></extensions></trkpt><trkpt lat="42.2197011765" lon="13.4140009526"><ele>1602.20</ele><time>2026-03-11T16:18:41Z</time><extensions><gpxtpx:TrackPointExtension><gpxtpx:atemp>2.6</gpxtpx:atemp></gpxtpx:TrackPointExtension></extensions></trkpt><trkpt lat="42.2197011765" lon="13.4140008688"><ele>1602.16</ele><time>2026-03-11T16:18:42Z</time><extensions><gpxtpx:TrackPointExtension><gpxtpx:atemp>2.6</gpxtpx:atemp></gpxtpx:TrackPointExtension></extensions></trkpt><trkpt lat="42.2197015956" lon="13.4140006173"><ele>1602.13</ele><time>2026-03-11T16:18:43Z</time><extensions><gpxtpx:TrackPointExtension><gpxtpx:atemp>2.6</gpxtpx:atemp></gpxtpx:TrackPointExtension></extensions></trkpt><trkpt lat="42.2197013441" lon="13.4140013717"><ele>1602.11</ele><time>2026-03-11T16:18:44Z</time><extensions><gpxtpx:TrackPointExtension><gpxtpx:atemp>2.6</gpxtpx:atemp></gpxtpx:TrackPointExtension></extensions></trkpt><trkpt lat="42.2197014280" lon="13.4140014555"><ele>1602.07</ele><time>2026-03-11T16:18:45Z</time><extensions><gpxtpx:TrackPointExtension><gpxtpx:atemp>2.6</gpxtpx:atemp></gpxtpx:TrackPointExtension></extensions></trkpt><trkpt lat="42.2197012603" lon="13.4140015393"><ele>1602.01</ele><time>2026-03-11T16:18:46Z</time><extensions><gpxtpx:TrackPointExtension><gpxtpx:atemp>2.6</gpxtpx:atemp></gpxtpx:TrackPointExtension></extensions></trkpt><trkpt lat="42.2197011765" lon="13.4140016232"><ele>1601.95</ele><time>2026-03-11T16:18:47Z</time><extensions><gpxtpx:TrackPointExtension><gpxtpx:atemp>2.6</gpxtpx:atemp></gpxtpx:TrackPointExtension></extensions></trkpt><trkpt lat="42.2197010927" lon="13.4140015393"><ele>1601.91</ele><time>2026-03-11T16:18:48Z</time><extensions><gpxtpx:TrackPointExtension><gpxtpx:atemp>2.6</gpxtpx:atemp></gpxtpx:TrackPointExtension></extensions></trkpt><trkpt lat="42.2197009251" lon="13.4140012879"><ele>1601.91</ele><time>2026-03-11T16:18:49Z</time><extensions><gpxtpx:TrackPointExtension><gpxtpx:atemp>2.6</gpxtpx:atemp></gpxtpx:TrackPointExtension></extensions></trkpt><trkpt lat="42.2197007574" lon="13.4140013717"><ele>1601.91</ele><time>2026-03-11T16:18:50Z</time><extensions><gpxtpx:TrackPointExtension><gpxtpx:atemp>2.6</gpxtpx:atemp></gpxtpx:TrackPointExtension></extensions></trkpt><trkpt lat="42.2197006736" lon="13.4140013717"><ele>1601.95</ele><time>2026-03-11T16:18:51Z</time><extensions><gpxtpx:TrackPointExtension><gpxtpx:atemp>2.6</gpxtpx:atemp></gpxtpx:TrackPointExtension></extensions></trkpt><trkpt lat="42.2197005898" lon="13.4140011203"><ele>1602.01</ele><time>2026-03-11T16:18:52Z</time><extensions><gpxtpx:TrackPointExtension><gpxtpx:atemp>2.6</gpxtpx:atemp></gpxtpx:TrackPointExtension></extensions></trkpt><trkpt lat="42.2197005898" lon="13.4140012879"><ele>1602.08</ele><time>2026-03-11T16:18:53Z</time><extensions><gpxtpx:TrackPointExtension><gpxtpx:atemp>2.6</gpxtpx:atemp></gpxtpx:TrackPointExtension></extensions></trkpt><trkpt lat="42.2196998354" lon="13.4140010364"><ele>1602.20</ele><time>2026-03-11T16:18:54Z</time><extensions><gpxtpx:TrackPointExtension><gpxtpx:atemp>2.6</gpxtpx:atemp></gpxtpx:TrackPointExtension></extensions></trkpt><trkpt lat="42.2196997516" lon="13.4140015393"><ele>1602.28</ele><time>2026-03-11T16:18:55Z</time><extensions><gpxtpx:TrackPointExtension><gpxtpx:atemp>2.6</gpxtpx:atemp></gpxtpx:TrackPointExtension></extensions></trkpt><trkpt lat="42.2196998354" lon="13.4140017908"><ele>1602.26</ele><time>2026-03-11T16:18:56Z</time><extensions><gpxtpx:TrackPointExtension><gpxtpx:atemp>2.6</gpxtpx:atemp></gpxtpx:TrackPointExtension></extensions></trkpt><trkpt lat="42.2196998354" lon="13.4140016232"><ele>1602.26</ele><time>2026-03-11T16:18:57Z</time><extensions><gpxtpx:TrackPointExtension><gpxtpx:atemp>2.6</gpxtpx:atemp></gpxtpx:TrackPointExtension></extensions></trkpt><trkpt lat="42.2197001707" lon="13.4140017908"><ele>1602.26</ele><time>2026-03-11T16:18:58Z</time><extensions><gpxtpx:TrackPointExtension><gpxtpx:atemp>2.6</gpxtpx:atemp></gpxtpx:TrackPointExtension></extensions></trkpt><trkpt lat="42.2197000869" lon="13.4140015393"><ele>1602.26</ele><time>2026-03-11T16:18:59Z</time><extensions><gpxtpx:TrackPointExtension><gpxtpx:atemp>2.6</gpxtpx:atemp></gpxtpx:TrackPointExtension></extensions></trkpt><trkpt lat="42.2197001707" lon="13.4140017908"><ele>1602.17</ele><time>2026-03-11T16:19:00Z</time><extensions><gpxtpx:TrackPointExtension><gpxtpx:atemp>2.6</gpxtpx:atemp></gpxtpx:TrackPointExtension></extensions></trkpt><trkpt lat="42.2197001707" lon="13.4140017908"><ele>1602.10</ele><time>2026-03-11T16:19:01Z</time><extensions><gpxtpx:TrackPointExtension><gpxtpx:atemp>2.6</gpxtpx:atemp></gpxtpx:TrackPointExtension></extensions></trkpt><trkpt lat="42.2197004221" lon="13.4140030481"><ele>1602.07</ele><time>2026-03-11T16:19:02Z</time><extensions><gpxtpx:TrackPointExtension><gpxtpx:atemp>2.6</gpxtpx:atemp></gpxtpx:TrackPointExtension></extensions></trkpt><trkpt lat="42.2197009251" lon="13.4140022937"><ele>1602.07</ele><time>2026-03-11T16:19:03Z</time><extensions><gpxtpx:TrackPointExtension><gpxtpx:atemp>2.6</gpxtpx:atemp></gpxtpx:TrackPointExtension></extensions></trkpt><trkpt lat="42.2197008412" lon="13.4140019584"><ele>1602.08</ele><time>2026-03-11T16:19:04Z</time><extensions><gpxtpx:TrackPointExtension><gpxtpx:atemp>2.6</gpxtpx:atemp></gpxtpx:TrackPointExtension></extensions></trkpt><trkpt lat="42.2197011765" lon="13.4140029643"><ele>1602.10</ele><time>2026-03-11T16:19:05Z</time><extensions><gpxtpx:TrackPointExtension><gpxtpx:atemp>2.6</gpxtpx:atemp></gpxtpx:TrackPointExtension></extensions></trkpt><trkpt lat="42.2197007574" lon="13.4140032995"><ele>1602.14</ele><time>2026-03-11T16:19:06Z</time><extensions><gpxtpx:TrackPointExtension><gpxtpx:atemp>2.6</gpxtpx:atemp></gpxtpx:TrackPointExtension></extensions></trkpt><trkpt lat="42.2197011765" lon="13.4140033834"><ele>1602.16</ele><time>2026-03-11T16:19:07Z</time><extensions><gpxtpx:TrackPointExtension><gpxtpx:atemp>2.6</gpxtpx:atemp></gpxtpx:TrackPointExtension></extensions></trkpt><trkpt lat="42.2197010927" lon="13.4140040539"><ele>1602.21</ele><time>2026-03-11T16:19:08Z</time><extensions><gpxtpx:TrackPointExtension><gpxtpx:atemp>2.6</gpxtpx:atemp></gpxtpx:TrackPointExtension></extensions></trkpt><trkpt lat="42.2197007574" lon="13.4140044730"><ele>1602.24</ele><time>2026-03-11T16:19:09Z</time><extensions><gpxtpx:TrackPointExtension><gpxtpx:atemp>2.6</gpxtpx:atemp></gpxtpx:TrackPointExtension></extensions></trkpt><trkpt lat="42.2197005898" lon="13.4140043892"><ele>1602.26</ele><time>2026-03-11T16:19:10Z</time><extensions><gpxtpx:TrackPointExtension><gpxtpx:atemp>2.6</gpxtpx:atemp></gpxtpx:TrackPointExtension></extensions></trkpt><trkpt lat="42.2197005898" lon="13.4140046407"><ele>1602.28</ele><time>2026-03-11T16:19:11Z</time><extensions><gpxtpx:TrackPointExtension><gpxtpx:atemp>2.6</gpxtpx:atemp></gpxtpx:TrackPointExtension></extensions></trkpt><trkpt lat="42.2197009251" lon="13.4140041377"><ele>1602.35</ele><time>2026-03-11T16:19:12Z</time><extensions><gpxtpx:TrackPointExtension><gpxtpx:atemp>2.6</gpxtpx:atemp></gpxtpx:TrackPointExtension></extensions></trkpt><trkpt lat="42.2197014280" lon="13.4140045568"><ele>1602.37</ele><time>2026-03-11T16:19:13Z</time><extensions><gpxtpx:TrackPointExtension><gpxtpx:atemp>2.6</gpxtpx:atemp></gpxtpx:TrackPointExtension></extensions></trkpt><trkpt lat="42.2197011765" lon="13.4140036348"><ele>1602.42</ele><time>2026-03-11T16:19:14Z</time><extensions><gpxtpx:TrackPointExtension><gpxtpx:atemp>2.6</gpxtpx:atemp></gpxtpx:TrackPointExtension></extensions></trkpt><trkpt lat="42.2197011765" lon="13.4140038863"><ele>1602.43</ele><time>2026-03-11T16:19:15Z</time><extensions><gpxtpx:TrackPointExtension><gpxtpx:atemp>2.6</gpxtpx:atemp></gpxtpx:TrackPointExtension></extensions></trkpt><trkpt lat="42.2197007574" lon="13.4140036348"><ele>1602.48</ele><time>2026-03-11T16:19:16Z</time><extensions><gpxtpx:TrackPointExtension><gpxtpx:atemp>2.6</gpxtpx:atemp></gpxtpx:TrackPointExtension></extensions></trkpt><trkpt lat="42.2197005898" lon="13.4140034672"><ele>1602.52</ele><time>2026-03-11T16:19:17Z</time><extensions><gpxtpx:TrackPointExtension><gpxtpx:atemp>2.6</gpxtpx:atemp></gpxtpx:TrackPointExtension></extensions></trkpt><trkpt lat="42.2197006736" lon="13.4140040539"><ele>1602.58</ele><time>2026-03-11T16:19:18Z</time><extensions><gpxtpx:TrackPointExtension><gpxtpx:atemp>2.6</gpxtpx:atemp></gpxtpx:TrackPointExtension></extensions></trkpt><trkpt lat="42.2197009251" lon="13.4140042216"><ele>1602.58</ele><time>2026-03-11T16:19:19Z</time><extensions><gpxtpx:TrackPointExtension><gpxtpx:atemp>2.6</gpxtpx:atemp></gpxtpx:TrackPointExtension></extensions></trkpt><trkpt lat="42.2197010927" lon="13.4140046407"><ele>1602.58</ele><time>2026-03-11T16:19:20Z</time><extensions><gpxtpx:TrackPointExtension><gpxtpx:atemp>2.6</gpxtpx:atemp></gpxtpx:TrackPointExtension></extensions></trkpt><trkpt lat="42.2197013441" lon="13.4140042216"><ele>1602.48</ele><time>2026-03-11T16:19:21Z</time><extensions><gpxtpx:TrackPointExtension><gpxtpx:atemp>2.6</gpxtpx:atemp></gpxtpx:TrackPointExtension></extensions></trkpt><trkpt lat="42.2197012603" lon="13.4140043892"><ele>1602.42</ele><time>2026-03-11T16:19:22Z</time><extensions><gpxtpx:TrackPointExtension><gpxtpx:atemp>2.6</gpxtpx:atemp></gpxtpx:TrackPointExtension></extensions></trkpt><trkpt lat="42.2197011765" lon="13.4140046407"><ele>1602.20</ele><time>2026-03-11T16:19:23Z</time><extensions><gpxtpx:TrackPointExtension><gpxtpx:atemp>2.6</gpxtpx:atemp></gpxtpx:TrackPointExtension></extensions></trkpt><trkpt lat="42.2197014280" lon="13.4140044730"><ele>1602.16</ele><time>2026-03-11T16:19:24Z</time><extensions><gpxtpx:TrackPointExtension><gpxtpx:atemp>2.6</gpxtpx:atemp></gpxtpx:TrackPointExtension></extensions></trkpt><trkpt lat="42.2197013441" lon="13.4140046407"><ele>1602.20</ele><time>2026-03-11T16:19:25Z</time><extensions><gpxtpx:TrackPointExtension><gpxtpx:atemp>2.6</gpxtpx:atemp></gpxtpx:TrackPointExtension></extensions></trkpt><trkpt lat="42.2197015956" lon="13.4140048921"><ele>1602.38</ele><time>2026-03-11T16:19:26Z</time><extensions><gpxtpx:TrackPointExtension><gpxtpx:atemp>2.6</gpxtpx:atemp></gpxtpx:TrackPointExtension></extensions></trkpt><trkpt lat="42.2197017632" lon="13.4140050597"><ele>1602.56</ele><time>2026-03-11T16:19:27Z</time><extensions><gpxtpx:TrackPointExtension><gpxtpx:atemp>2.6</gpxtpx:atemp></gpxtpx:TrackPointExtension></extensions></trkpt><trkpt lat="42.2197014280" lon="13.4140052274"><ele>1602.65</ele><time>2026-03-11T16:19:28Z</time><extensions><gpxtpx:TrackPointExtension><gpxtpx:atemp>2.6</gpxtpx:atemp></gpxtpx:TrackPointExtension></extensions></trkpt><trkpt lat="42.2197011765" lon="13.4140051436"><ele>1602.70</ele><time>2026-03-11T16:19:29Z</time><extensions><gpxtpx:TrackPointExtension><gpxtpx:atemp>2.6</gpxtpx:atemp></gpxtpx:TrackPointExtension></extensions></trkpt><trkpt lat="42.2197011765" lon="13.4140051436"><ele>1602.67</ele><time>2026-03-11T16:19:30Z</time><extensions><gpxtpx:TrackPointExtension><gpxtpx:atemp>2.6</gpxtpx:atemp></gpxtpx:TrackPointExtension></extensions></trkpt><trkpt lat="42.2197014280" lon="13.4140052274"><ele>1602.63</ele><time>2026-03-11T16:19:31Z</time><extensions><gpxtpx:TrackPointExtension><gpxtpx:atemp>2.6</gpxtpx:atemp></gpxtpx:TrackPointExtension></extensions></trkpt><trkpt lat="42.2197009251" lon="13.4140056465"><ele>1602.56</ele><time>2026-03-11T16:19:32Z</time><extensions><gpxtpx:TrackPointExtension><gpxtpx:atemp>2.6</gpxtpx:atemp></gpxtpx:TrackPointExtension></extensions></trkpt><trkpt lat="42.2197007574" lon="13.4140054788"><ele>1602.49</ele><time>2026-03-11T16:19:33Z</time><extensions><gpxtpx:TrackPointExtension><gpxtpx:atemp>2.6</gpxtpx:atemp></gpxtpx:TrackPointExtension></extensions></trkpt><trkpt lat="42.2197010927" lon="13.4140051436"><ele>1602.42</ele><time>2026-03-11T16:19:34Z</time><extensions><gpxtpx:TrackPointExtension><gpxtpx:atemp>2.4</gpxtpx:atemp></gpxtpx:TrackPointExtension></extensions></trkpt><trkpt lat="42.2197010927" lon="13.4140048921"><ele>1602.36</ele><time>2026-03-11T16:19:35Z</time><extensions><gpxtpx:TrackPointExtension><gpxtpx:atemp>2.4</gpxtpx:atemp></gpxtpx:TrackPointExtension></extensions></trkpt><trkpt lat="42.2197011765" lon="13.4140051436"><ele>1602.35</ele><time>2026-03-11T16:19:36Z</time><extensions><gpxtpx:TrackPointExtension><gpxtpx:atemp>2.4</gpxtpx:atemp></gpxtpx:TrackPointExtension></extensions></trkpt><trkpt lat="42.2197011765" lon="13.4140049759"><ele>1602.35</ele><time>2026-03-11T16:19:37Z</time><extensions><gpxtpx:TrackPointExtension><gpxtpx:atemp>2.4</gpxtpx:atemp></gpxtpx:TrackPointExtension></extensions></trkpt><trkpt lat="42.2197010927" lon="13.4140052274"><ele>1602.35</ele><time>2026-03-11T16:19:38Z</time><extensions><gpxtpx:TrackPointExtension><gpxtpx:atemp>2.4</gpxtpx:atemp></gpxtpx:TrackPointExtension></extensions></trkpt><trkpt lat="42.2197011765" lon="13.4140053950"><ele>1602.37</ele><time>2026-03-11T16:19:39Z</time><extensions><gpxtpx:TrackPointExtension><gpxtpx:atemp>2.4</gpxtpx:atemp></gpxtpx:TrackPointExtension></extensions></trkpt><trkpt lat="42.2197012603" lon="13.4140054788"><ele>1602.39</ele><time>2026-03-11T16:19:40Z</time><extensions><gpxtpx:TrackPointExtension><gpxtpx:atemp>2.4</gpxtpx:atemp></gpxtpx:TrackPointExtension></extensions></trkpt><trkpt lat="42.2197013441" lon="13.4140056465"><ele>1602.40</ele><time>2026-03-11T16:19:41Z</time><extensions><gpxtpx:TrackPointExtension><gpxtpx:atemp>2.4</gpxtpx:atemp></gpxtpx:TrackPointExtension></extensions></trkpt><trkpt lat="42.2197014280" lon="13.4140059818"><ele>1602.38</ele><time>2026-03-11T16:19:42Z</time><extensions><gpxtpx:TrackPointExtension><gpxtpx:atemp>2.4</gpxtpx:atemp></gpxtpx:TrackPointExtension></extensions></trkpt><trkpt lat="42.2197014280" lon="13.4140056465"><ele>1602.37</ele><time>2026-03-11T16:19:43Z</time><extensions><gpxtpx:TrackPointExtension><gpxtpx:atemp>2.4</gpxtpx:atemp></gpxtpx:TrackPointExtension></extensions></trkpt><trkpt lat="42.2197014280" lon="13.4140051436"><ele>1602.36</ele><time>2026-03-11T16:19:44Z</time><extensions><gpxtpx:TrackPointExtension><gpxtpx:atemp>2.4</gpxtpx:atemp></gpxtpx:TrackPointExtension></extensions></trkpt><trkpt lat="42.2197012603" lon="13.4140051436"><ele>1602.35</ele><time>2026-03-11T16:19:45Z</time><extensions><gpxtpx:TrackPointExtension><gpxtpx:atemp>2.4</gpxtpx:atemp></gpxtpx:TrackPointExtension></extensions></trkpt><trkpt lat="42.2197009251" lon="13.4140050597"><ele>1602.32</ele><time>2026-03-11T16:19:46Z</time><extensions><gpxtpx:TrackPointExtension><gpxtpx:atemp>2.4</gpxtpx:atemp></gpxtpx:TrackPointExtension></extensions></trkpt><trkpt lat="42.2197009251" lon="13.4140050597"><ele>1602.32</ele><time>2026-03-11T16:19:47Z</time><extensions><gpxtpx:TrackPointExtension><gpxtpx:atemp>2.4</gpxtpx:atemp></gpxtpx:TrackPointExtension></extensions></trkpt><trkpt lat="42.2197009251" lon="13.4140049759"><ele>1602.32</ele><time>2026-03-11T16:19:48Z</time><extensions><gpxtpx:TrackPointExtension><gpxtpx:atemp>2.4</gpxtpx:atemp></gpxtpx:TrackPointExtension></extensions></trkpt><trkpt lat="42.2197002545" lon="13.4140049759"><ele>1602.32</ele><time>2026-03-11T16:19:49Z</time><extensions><gpxtpx:TrackPointExtension><gpxtpx:atemp>2.4</gpxtpx:atemp></gpxtpx:TrackPointExtension></extensions></trkpt><trkpt lat="42.2197003383" lon="13.4140049759"><ele>1602.32</ele><time>2026-03-11T16:19:50Z</time><extensions><gpxtpx:TrackPointExtension><gpxtpx:atemp>2.4</gpxtpx:atemp></gpxtpx:TrackPointExtension></extensions></trkpt><trkpt lat="42.2197003383" lon="13.4140049759"><ele>1602.33</ele><time>2026-03-11T16:19:51Z</time><extensions><gpxtpx:TrackPointExtension><gpxtpx:atemp>2.4</gpxtpx:atemp></gpxtpx:TrackPointExtension></extensions></trkpt><trkpt lat="42.2197002545" lon="13.4140047245"><ele>1602.33</ele><time>2026-03-11T16:19:52Z</time><extensions><gpxtpx:TrackPointExtension><gpxtpx:atemp>2.4</gpxtpx:atemp></gpxtpx:TrackPointExtension></extensions></trkpt><trkpt lat="42.2197000869" lon="13.4140048921"><ele>1602.35</ele><time>2026-03-11T16:19:53Z</time><extensions><gpxtpx:TrackPointExtension><gpxtpx:atemp>2.4</gpxtpx:atemp></gpxtpx:TrackPointExtension></extensions></trkpt><trkpt lat="42.2196997516" lon="13.4140050597"><ele>1602.35</ele><time>2026-03-11T16:19:54Z</time><extensions><gpxtpx:TrackPointExtension><gpxtpx:atemp>2.4</gpxtpx:atemp></gpxtpx:TrackPointExtension></extensions></trkpt><trkpt lat="42.2196995839" lon="13.4140043892"><ele>1602.35</ele><time>2026-03-11T16:19:55Z</time><extensions><gpxtpx:TrackPointExtension><gpxtpx:atemp>2.4</gpxtpx:atemp></gpxtpx:TrackPointExtension></extensions></trkpt><trkpt lat="42.2196999192" lon="13.4140040539"><ele>1602.35</ele><time>2026-03-11T16:19:56Z</time><extensions><gpxtpx:TrackPointExtension><gpxtpx:atemp>2.4</gpxtpx:atemp></gpxtpx:TrackPointExtension></extensions></trkpt><trkpt lat="42.2196992487" lon="13.4140052274"><ele>1602.35</ele><time>2026-03-11T16:19:57Z</time><extensions><gpxtpx:TrackPointExtension><gpxtpx:atemp>2.4</gpxtpx:atemp></gpxtpx:TrackPointExtension></extensions></trkpt><trkpt lat="42.2196986619" lon="13.4140057303"><ele>1602.40</ele><time>2026-03-11T16:19:58Z</time><extensions><gpxtpx:TrackPointExtension><gpxtpx:atemp>2.4</gpxtpx:atemp></gpxtpx:TrackPointExtension></extensions></trkpt><trkpt lat="42.2196991649" lon="13.4140055627"><ele>1602.41</ele><time>2026-03-11T16:19:59Z</time><extensions><gpxtpx:TrackPointExtension><gpxtpx:atemp>2.4</gpxtpx:atemp></gpxtpx:TrackPointExtension></extensions></trkpt><trkpt lat="42.2196997516" lon="13.4140067361"><ele>1602.42</ele><time>2026-03-11T16:20:00Z</time><extensions><gpxtpx:TrackPointExtension><gpxtpx:atemp>2.4</gpxtpx:atemp></gpxtpx:TrackPointExtension></extensions></trkpt><trkpt lat="42.2197012603" lon="13.4140072390"><ele>1602.45</ele><time>2026-03-11T16:20:01Z</time><extensions><gpxtpx:TrackPointExtension><gpxtpx:atemp>2.4</gpxtpx:atemp></gpxtpx:TrackPointExtension></extensions></trkpt><trkpt lat="42.2197111510" lon="13.4140086640"><ele>1602.46</ele><time>2026-03-11T16:20:02Z</time><extensions><gpxtpx:TrackPointExtension><gpxtpx:atemp>2.4</gpxtpx:atemp></gpxtpx:TrackPointExtension></extensions></trkpt><trkpt lat="42.2197196167" lon="13.4140133578"><ele>1602.47</ele><time>2026-03-11T16:20:03Z</time><extensions><gpxtpx:TrackPointExtension><gpxtpx:atemp>2.4</gpxtpx:atemp></gpxtpx:TrackPointExtension></extensions></trkpt><trkpt lat="42.2197298426" lon="13.4140174650"><ele>1602.47</ele><time>2026-03-11T16:20:04Z</time><extensions><gpxtpx:TrackPointExtension><gpxtpx:atemp>2.4</gpxtpx:atemp></gpxtpx:TrackPointExtension></extensions></trkpt><trkpt lat="42.2197409905" lon="13.4140204825"><ele>1602.47</ele><time>2026-03-11T16:20:05Z</time><extensions><gpxtpx:TrackPointExtension><gpxtpx:atemp>2.4</gpxtpx:atemp></gpxtpx:TrackPointExtension></extensions></trkpt><trkpt lat="42.2197510488" lon="13.4140251763"><ele>1602.45</ele><time>2026-03-11T16:20:06Z</time><extensions><gpxtpx:TrackPointExtension><gpxtpx:atemp>2.4</gpxtpx:atemp></gpxtpx:TrackPointExtension></extensions></trkpt><trkpt lat="42.2197604366" lon="13.4140303731"><ele>1602.40</ele><time>2026-03-11T16:20:07Z</time><extensions><gpxtpx:TrackPointExtension><gpxtpx:atemp>2.4</gpxtpx:atemp></gpxtpx:TrackPointExtension></extensions></trkpt><trkpt lat="42.2197709978" lon="13.4140346479"><ele>1602.35</ele><time>2026-03-11T16:20:08Z</time><extensions><gpxtpx:TrackPointExtension><gpxtpx:atemp>2.4</gpxtpx:atemp></gpxtpx:TrackPointExtension></extensions></trkpt><trkpt lat="42.2197778709" lon="13.4140425269"><ele>1602.25</ele><time>2026-03-11T16:20:09Z</time><extensions><gpxtpx:TrackPointExtension><gpxtpx:atemp>2.4</gpxtpx:atemp></gpxtpx:TrackPointExtension></extensions></trkpt><trkpt lat="42.2197889350" lon="13.4140446223"><ele>1602.19</ele><time>2026-03-11T16:20:10Z</time><extensions><gpxtpx:TrackPointExtension><gpxtpx:atemp>2.4</gpxtpx:atemp></gpxtpx:TrackPointExtension></extensions></trkpt><trkpt lat="42.2197959758" lon="13.4140507411"><ele>1602.12</ele><time>2026-03-11T16:20:11Z</time><extensions><gpxtpx:TrackPointExtension><gpxtpx:atemp>2.4</gpxtpx:atemp></gpxtpx:TrackPointExtension></extensions></trkpt><trkpt lat="42.2198040225" lon="13.4140553512"><ele>1602.06</ele><time>2026-03-11T16:20:12Z</time><extensions><gpxtpx:TrackPointExtension><gpxtpx:atemp>2.4</gpxtpx:atemp></gpxtpx:TrackPointExtension></extensions></trkpt><trkpt lat="42.2198120691" lon="13.4140611347"><ele>1602.00</ele><time>2026-03-11T16:20:13Z</time><extensions><gpxtpx:TrackPointExtension><gpxtpx:atemp>2.4</gpxtpx:atemp></gpxtpx:TrackPointExtension></extensions></trkpt><trkpt lat="42.2198200319" lon="13.4140667506"><ele>1601.95</ele><time>2026-03-11T16:20:14Z</time><extensions><gpxtpx:TrackPointExtension><gpxtpx:atemp>2.4</gpxtpx:atemp></gpxtpx:TrackPointExtension></extensions></trkpt><trkpt lat="42.2198286653" lon="13.4140731208"><ele>1601.92</ele><time>2026-03-11T16:20:15Z</time><extensions><gpxtpx:TrackPointExtension><gpxtpx:atemp>2.4</gpxtpx:atemp></gpxtpx:TrackPointExtension></extensions></trkpt><trkpt lat="42.2198379692" lon="13.4140788205"><ele>1601.87</ele><time>2026-03-11T16:20:16Z</time><extensions><gpxtpx:TrackPointExtension><gpxtpx:atemp>2.4</gpxtpx:atemp></gpxtpx:TrackPointExtension></extensions></trkpt><trkpt lat="42.2198466863" lon="13.4140863642"><ele>1601.81</ele><time>2026-03-11T16:20:17Z</time><extensions><gpxtpx:TrackPointExtension><gpxtpx:atemp>2.4</gpxtpx:atemp></gpxtpx:TrackPointExtension></extensions></trkpt><trkpt lat="42.2198553197" lon="13.4140897170"><ele>1601.76</ele><time>2026-03-11T16:20:18Z</time><extensions><gpxtpx:TrackPointExtension><gpxtpx:atemp>2.4</gpxtpx:atemp></gpxtpx:TrackPointExtension></extensions></trkpt><trkpt lat="42.2198606841" lon="13.4140959196"><ele>1601.70</ele><time>2026-03-11T16:20:19Z</time><extensions><gpxtpx:TrackPointExtension><gpxtpx:atemp>2.4</gpxtpx:atemp></gpxtpx:TrackPointExtension></extensions></trkpt><trkpt lat="42.2198688984" lon="13.4140997753"><ele>1601.65</ele><time>2026-03-11T16:20:20Z</time><extensions><gpxtpx:TrackPointExtension><gpxtpx:atemp>2.4</gpxtpx:atemp></gpxtpx:TrackPointExtension></extensions></trkpt><trkpt lat="42.2198780347" lon="13.4141050559"><ele>1601.61</ele><time>2026-03-11T16:20:21Z</time><extensions><gpxtpx:TrackPointExtension><gpxtpx:atemp>2.4</gpxtpx:atemp></gpxtpx:TrackPointExtension></extensions></trkpt><trkpt lat="42.2198862489" lon="13.4141099174"><ele>1601.59</ele><time>2026-03-11T16:20:22Z</time><extensions><gpxtpx:TrackPointExtension><gpxtpx:atemp>2.4</gpxtpx:atemp></gpxtpx:TrackPointExtension></extensions></trkpt><trkpt lat="42.2198945470" lon="13.4141135216"><ele>1601.56</ele><time>2026-03-11T16:20:23Z</time><extensions><gpxtpx:TrackPointExtension><gpxtpx:atemp>2.4</gpxtpx:atemp></gpxtpx:TrackPointExtension></extensions></trkpt><trkpt lat="42.2199045215" lon="13.4141187184"><ele>1601.56</ele><time>2026-03-11T16:20:24Z</time><extensions><gpxtpx:TrackPointExtension><gpxtpx:atemp>2.4</gpxtpx:atemp></gpxtpx:TrackPointExtension></extensions></trkpt><trkpt lat="42.2199139930" lon="13.4141220711"><ele>1601.54</ele><time>2026-03-11T16:20:25Z</time><extensions><gpxtpx:TrackPointExtension><gpxtpx:atemp>2.4</gpxtpx:atemp></gpxtpx:TrackPointExtension></extensions></trkpt><trkpt lat="42.2199244704" lon="13.4141249210"><ele>1601.54</ele><time>2026-03-11T16:20:26Z</time><extensions><gpxtpx:TrackPointExtension><gpxtpx:atemp>2.4</gpxtpx:atemp></gpxtpx:TrackPointExtension></extensions></trkpt><trkpt lat="42.2199322656" lon="13.4141310398"><ele>1601.54</ele><time>2026-03-11T16:20:27Z</time><extensions><gpxtpx:TrackPointExtension><gpxtpx:atemp>2.4</gpxtpx:atemp></gpxtpx:TrackPointExtension></extensions></trkpt><trkpt lat="42.2199405637" lon="13.4141366556"><ele>1601.54</ele><time>2026-03-11T16:20:28Z</time><extensions><gpxtpx:TrackPointExtension><gpxtpx:atemp>2.4</gpxtpx:atemp></gpxtpx:TrackPointExtension></extensions></trkpt><trkpt lat="42.2199495323" lon="13.4141405951"><ele>1601.52</ele><time>2026-03-11T16:20:29Z</time><extensions><gpxtpx:TrackPointExtension><gpxtpx:atemp>2.4</gpxtpx:atemp></gpxtpx:TrackPointExtension></extensions></trkpt><trkpt lat="42.2199581657" lon="13.4141452890"><ele>1601.51</ele><time>2026-03-11T16:20:30Z</time><extensions><gpxtpx:TrackPointExtension><gpxtpx:atemp>2.4</gpxtpx:atemp></gpxtpx:TrackPointExtension></extensions></trkpt><trkpt lat="42.2199643683" lon="13.4141469654"><ele>1601.49</ele><time>2026-03-11T16:20:31Z</time><extensions><gpxtpx:TrackPointExtension><gpxtpx:atemp>2.4</gpxtpx:atemp></gpxtpx:TrackPointExtension></extensions></trkpt><trkpt lat="42.2199724987" lon="13.4141523298"><ele>1601.40</ele><time>2026-03-11T16:20:32Z</time><extensions><gpxtpx:TrackPointExtension><gpxtpx:atemp>2.4</gpxtpx:atemp></gpxtpx:TrackPointExtension></extensions></trkpt><trkpt lat="42.2199809644" lon="13.4141587839"><ele>1601.36</ele><time>2026-03-11T16:20:33Z</time><extensions><gpxtpx:TrackPointExtension><gpxtpx:atemp>2.4</gpxtpx:atemp></gpxtpx:TrackPointExtension></extensions></trkpt><trkpt lat="42.2199895978" lon="13.4141605441"><ele>1601.30</ele><time>2026-03-11T16:20:34Z</time><extensions><gpxtpx:TrackPointExtension><gpxtpx:atemp>2.9</gpxtpx:atemp></gpxtpx:TrackPointExtension></extensions></trkpt><trkpt lat="42.2199957166" lon="13.4141663276"><ele>1601.25</ele><time>2026-03-11T16:20:35Z</time><extensions><gpxtpx:TrackPointExtension><gpxtpx:atemp>2.9</gpxtpx:atemp></gpxtpx:TrackPointExtension></extensions></trkpt><trkpt lat="42.2200025897" lon="13.4141702671"><ele>1601.24</ele><time>2026-03-11T16:20:36Z</time><extensions><gpxtpx:TrackPointExtension><gpxtpx:atemp>2.9</gpxtpx:atemp></gpxtpx:TrackPointExtension></extensions></trkpt><trkpt lat="42.2200104687" lon="13.4141711891"><ele>1601.22</ele><time>2026-03-11T16:20:37Z</time><extensions><gpxtpx:TrackPointExtension><gpxtpx:atemp>2.9</gpxtpx:atemp></gpxtpx:TrackPointExtension></extensions></trkpt><trkpt lat="42.2200173419" lon="13.4141796548"><ele>1601.19</ele><time>2026-03-11T16:20:38Z</time><extensions><gpxtpx:TrackPointExtension><gpxtpx:atemp>2.9</gpxtpx:atemp></gpxtpx:TrackPointExtension></extensions></trkpt><trkpt lat="42.2200241312" lon="13.4141819179"><ele>1601.18</ele><time>2026-03-11T16:20:39Z</time><extensions><gpxtpx:TrackPointExtension><gpxtpx:atemp>2.9</gpxtpx:atemp></gpxtpx:TrackPointExtension></extensions></trkpt><trkpt lat="42.2200321779" lon="13.4141904674"><ele>1601.17</ele><time>2026-03-11T16:20:40Z</time><extensions><gpxtpx:TrackPointExtension><gpxtpx:atemp>2.9</gpxtpx:atemp></gpxtpx:TrackPointExtension></extensions></trkpt><trkpt lat="42.2200397216" lon="13.4141969215"><ele>1601.17</ele><time>2026-03-11T16:20:41Z</time><extensions><gpxtpx:TrackPointExtension><gpxtpx:atemp>2.9</gpxtpx:atemp></gpxtpx:TrackPointExtension></extensions></trkpt><trkpt lat="42.2200465947" lon="13.4141985979"><ele>1601.16</ele><time>2026-03-11T16:20:42Z</time><extensions><gpxtpx:TrackPointExtension><gpxtpx:atemp>2.9</gpxtpx:atemp></gpxtpx:TrackPointExtension></extensions></trkpt><trkpt lat="42.2200530488" lon="13.4142076503"><ele>1601.16</ele><time>2026-03-11T16:20:43Z</time><extensions><gpxtpx:TrackPointExtension><gpxtpx:atemp>2.9</gpxtpx:atemp></gpxtpx:TrackPointExtension></extensions></trkpt><trkpt lat="42.2200603411" lon="13.4142114222"><ele>1601.13</ele><time>2026-03-11T16:20:44Z</time><extensions><gpxtpx:TrackPointExtension><gpxtpx:atemp>2.9</gpxtpx:atemp></gpxtpx:TrackPointExtension></extensions></trkpt><trkpt lat="42.2200692259" lon="13.4142146911"><ele>1601.10</ele><time>2026-03-11T16:20:45Z</time><extensions><gpxtpx:TrackPointExtension><gpxtpx:atemp>2.9</gpxtpx:atemp></gpxtpx:TrackPointExtension></extensions></trkpt><trkpt lat="42.2200795356" lon="13.4142197203"><ele>1601.08</ele><time>2026-03-11T16:20:46Z</time><extensions><gpxtpx:TrackPointExtension><gpxtpx:atemp>2.9</gpxtpx:atemp></gpxtpx:TrackPointExtension></extensions></trkpt><trkpt lat="42.2200879175" lon="13.4142242465"><ele>1601.06</ele><time>2026-03-11T16:20:47Z</time><extensions><gpxtpx:TrackPointExtension><gpxtpx:atemp>2.9</gpxtpx:atemp></gpxtpx:TrackPointExtension></extensions></trkpt><trkpt lat="42.2200956289" lon="13.4142316226"><ele>1601.04</ele><time>2026-03-11T16:20:48Z</time><extensions><gpxtpx:TrackPointExtension><gpxtpx:atemp>2.9</gpxtpx:atemp></gpxtpx:TrackPointExtension></extensions></trkpt><trkpt lat="42.2201051842" lon="13.4142354783"><ele>1601.03</ele><time>2026-03-11T16:20:49Z</time><extensions><gpxtpx:TrackPointExtension><gpxtpx:atemp>2.9</gpxtpx:atemp></gpxtpx:TrackPointExtension></extensions></trkpt><trkpt lat="42.2201135661" lon="13.4142382443"><ele>1601.03</ele><time>2026-03-11T16:20:50Z</time><extensions><gpxtpx:TrackPointExtension><gpxtpx:atemp>2.9</gpxtpx:atemp></gpxtpx:TrackPointExtension></extensions></trkpt><trkpt lat="42.2201214451" lon="13.4142419323"><ele>1601.02</ele><time>2026-03-11T16:20:51Z</time><extensions><gpxtpx:TrackPointExtension><gpxtpx:atemp>2.9</gpxtpx:atemp></gpxtpx:TrackPointExtension></extensions></trkpt><trkpt lat="42.2201291565" lon="13.4142455366"><ele>1601.01</ele><time>2026-03-11T16:20:52Z</time><extensions><gpxtpx:TrackPointExtension><gpxtpx:atemp>2.9</gpxtpx:atemp></gpxtpx:TrackPointExtension></extensions></trkpt><trkpt lat="42.2201357782" lon="13.4142498951"><ele>1600.97</ele><time>2026-03-11T16:20:53Z</time><extensions><gpxtpx:TrackPointExtension><gpxtpx:atemp>2.9</gpxtpx:atemp></gpxtpx:TrackPointExtension></extensions></trkpt><trkpt lat="42.2201447468" lon="13.4142549243"><ele>1600.97</ele><time>2026-03-11T16:20:54Z</time><extensions><gpxtpx:TrackPointExtension><gpxtpx:atemp>2.9</gpxtpx:atemp></gpxtpx:TrackPointExtension></extensions></trkpt><trkpt lat="42.2201541346" lon="13.4142593667"><ele>1600.90</ele><time>2026-03-11T16:20:55Z</time><extensions><gpxtpx:TrackPointExtension><gpxtpx:atemp>2.9</gpxtpx:atemp></gpxtpx:TrackPointExtension></extensions></trkpt><trkpt lat="42.2201619297" lon="13.4142648987"><ele>1600.88</ele><time>2026-03-11T16:20:56Z</time><extensions><gpxtpx:TrackPointExtension><gpxtpx:atemp>2.9</gpxtpx:atemp></gpxtpx:TrackPointExtension></extensions></trkpt><trkpt lat="42.2201699764" lon="13.4142687544"><ele>1600.87</ele><time>2026-03-11T16:20:57Z</time><extensions><gpxtpx:TrackPointExtension><gpxtpx:atemp>2.9</gpxtpx:atemp></gpxtpx:TrackPointExtension></extensions></trkpt><trkpt lat="42.2201770172" lon="13.4142740350"><ele>1600.87</ele><time>2026-03-11T16:20:58Z</time><extensions><gpxtpx:TrackPointExtension><gpxtpx:atemp>2.9</gpxtpx:atemp></gpxtpx:TrackPointExtension></extensions></trkpt><trkpt lat="42.2201848961" lon="13.4142779745"><ele>1600.88</ele><time>2026-03-11T16:20:59Z</time><extensions><gpxtpx:TrackPointExtension><gpxtpx:atemp>2.9</gpxtpx:atemp></gpxtpx:TrackPointExtension></extensions></trkpt><trkpt lat="42.2201923560" lon="13.4142820816"><ele>1600.88</ele><time>2026-03-11T16:21:00Z</time><extensions><gpxtpx:TrackPointExtension><gpxtpx:atemp>2.9</gpxtpx:atemp></gpxtpx:TrackPointExtension></extensions></trkpt><trkpt lat="42.2202002350" lon="13.4142879490"><ele>1600.88</ele><time>2026-03-11T16:21:01Z</time><extensions><gpxtpx:TrackPointExtension><gpxtpx:atemp>2.9</gpxtpx:atemp></gpxtpx:TrackPointExtension></extensions></trkpt><trkpt lat="42.2202092875" lon="13.4142901283"><ele>1600.88</ele><time>2026-03-11T16:21:02Z</time><extensions><gpxtpx:TrackPointExtension><gpxtpx:atemp>2.9</gpxtpx:atemp></gpxtpx:TrackPointExtension></extensions></trkpt><trkpt lat="42.2202171665" lon="13.4142966662"><ele>1600.88</ele><time>2026-03-11T16:21:03Z</time><extensions><gpxtpx:TrackPointExtension><gpxtpx:atemp>2.9</gpxtpx:atemp></gpxtpx:TrackPointExtension></extensions></trkpt><trkpt lat="42.2202258836" lon="13.4143006895"><ele>1600.87</ele><time>2026-03-11T16:21:04Z</time><extensions><gpxtpx:TrackPointExtension><gpxtpx:atemp>2.9</gpxtpx:atemp></gpxtpx:TrackPointExtension></extensions></trkpt><trkpt lat="42.2202329244" lon="13.4143050481"><ele>1600.82</ele><time>2026-03-11T16:21:05Z</time><extensions><gpxtpx:TrackPointExtension><gpxtpx:atemp>2.9</gpxtpx:atemp></gpxtpx:TrackPointExtension></extensions></trkpt><trkpt lat="42.2202419769" lon="13.4143106639"><ele>1600.76</ele><time>2026-03-11T16:21:06Z</time><extensions><gpxtpx:TrackPointExtension><gpxtpx:atemp>2.9</gpxtpx:atemp></gpxtpx:TrackPointExtension></extensions></trkpt><trkpt lat="42.2202511970" lon="13.4143144358"><ele>1600.57</ele><time>2026-03-11T16:21:07Z</time><extensions><gpxtpx:TrackPointExtension><gpxtpx:atemp>2.9</gpxtpx:atemp></gpxtpx:TrackPointExtension></extensions></trkpt><trkpt lat="42.2202593274" lon="13.4143194649"><ele>1600.48</ele><time>2026-03-11T16:21:08Z</time><extensions><gpxtpx:TrackPointExtension><gpxtpx:atemp>2.9</gpxtpx:atemp></gpxtpx:TrackPointExtension></extensions></trkpt><trkpt lat="42.2202686314" lon="13.4143242426"><ele>1600.40</ele><time>2026-03-11T16:21:09Z</time><extensions><gpxtpx:TrackPointExtension><gpxtpx:atemp>2.9</gpxtpx:atemp></gpxtpx:TrackPointExtension></extensions></trkpt><trkpt lat="42.2202778514" lon="13.4143295232"><ele>1600.32</ele><time>2026-03-11T16:21:10Z</time><extensions><gpxtpx:TrackPointExtension><gpxtpx:atemp>2.9</gpxtpx:atemp></gpxtpx:TrackPointExtension></extensions></trkpt><trkpt lat="42.2202849761" lon="13.4143365640"><ele>1600.26</ele><time>2026-03-11T16:21:11Z</time><extensions><gpxtpx:TrackPointExtension><gpxtpx:atemp>2.9</gpxtpx:atemp></gpxtpx:TrackPointExtension></extensions></trkpt><trkpt lat="42.2202927712" lon="13.4143412579"><ele>1600.23</ele><time>2026-03-11T16:21:12Z</time><extensions><gpxtpx:TrackPointExtension><gpxtpx:atemp>2.9</gpxtpx:atemp></gpxtpx:TrackPointExtension></extensions></trkpt><trkpt lat="42.2203023266" lon="13.4143463708"><ele>1600.22</ele><time>2026-03-11T16:21:13Z</time><extensions><gpxtpx:TrackPointExtension><gpxtpx:atemp>2.9</gpxtpx:atemp></gpxtpx:TrackPointExtension></extensions></trkpt><trkpt lat="42.2203102894" lon="13.4143512323"><ele>1600.19</ele><time>2026-03-11T16:21:14Z</time><extensions><gpxtpx:TrackPointExtension><gpxtpx:atemp>2.9</gpxtpx:atemp></gpxtpx:TrackPointExtension></extensions></trkpt><trkpt lat="42.2203190904" lon="13.4143558424"><ele>1600.17</ele><time>2026-03-11T16:21:15Z</time><extensions><gpxtpx:TrackPointExtension><gpxtpx:atemp>2.9</gpxtpx:atemp></gpxtpx:TrackPointExtension></extensions></trkpt><trkpt lat="42.2203273885" lon="13.4143600333"><ele>1600.16</ele><time>2026-03-11T16:21:16Z</time><extensions><gpxtpx:TrackPointExtension><gpxtpx:atemp>2.9</gpxtpx:atemp></gpxtpx:TrackPointExtension></extensions></trkpt><trkpt lat="42.2203344293" lon="13.4143655654"><ele>1600.13</ele><time>2026-03-11T16:21:17Z</time><extensions><gpxtpx:TrackPointExtension><gpxtpx:atemp>2.9</gpxtpx:atemp></gpxtpx:TrackPointExtension></extensions></trkpt><trkpt lat="42.2203432303" lon="13.4143710975"><ele>1600.10</ele><time>2026-03-11T16:21:18Z</time><extensions><gpxtpx:TrackPointExtension><gpxtpx:atemp>2.9</gpxtpx:atemp></gpxtpx:TrackPointExtension></extensions></trkpt><trkpt lat="42.2203522827" lon="13.4143760428"><ele>1600.06</ele><time>2026-03-11T16:21:19Z</time><extensions><gpxtpx:TrackPointExtension><gpxtpx:atemp>2.9</gpxtpx:atemp></gpxtpx:TrackPointExtension></extensions></trkpt><trkpt lat="42.2203598265" lon="13.4143827483"><ele>1600.03</ele><time>2026-03-11T16:21:20Z</time><extensions><gpxtpx:TrackPointExtension><gpxtpx:atemp>2.9</gpxtpx:atemp></gpxtpx:TrackPointExtension></extensions></trkpt><trkpt lat="42.2203683760" lon="13.4143870231"><ele>1600.02</ele><time>2026-03-11T16:21:21Z</time><extensions><gpxtpx:TrackPointExtension><gpxtpx:atemp>2.9</gpxtpx:atemp></gpxtpx:TrackPointExtension></extensions></trkpt><trkpt lat="42.2203781828" lon="13.4143926390"><ele>1600.01</ele><time>2026-03-11T16:21:22Z</time><extensions><gpxtpx:TrackPointExtension><gpxtpx:atemp>2.9</gpxtpx:atemp></gpxtpx:TrackPointExtension></extensions></trkpt><trkpt lat="42.2203877382" lon="13.4143975843"><ele>1600.00</ele><time>2026-03-11T16:21:23Z</time><extensions><gpxtpx:TrackPointExtension><gpxtpx:atemp>2.9</gpxtpx:atemp></gpxtpx:TrackPointExtension></extensions></trkpt><trkpt lat="42.2203965392" lon="13.4144034516"><ele>1599.97</ele><time>2026-03-11T16:21:24Z</time><extensions><gpxtpx:TrackPointExtension><gpxtpx:atemp>2.9</gpxtpx:atemp></gpxtpx:TrackPointExtension></extensions></trkpt><trkpt lat="42.2204031609" lon="13.4144081455"><ele>1599.91</ele><time>2026-03-11T16:21:25Z</time><extensions><gpxtpx:TrackPointExtension><gpxtpx:atemp>2.9</gpxtpx:atemp></gpxtpx:TrackPointExtension></extensions></trkpt><trkpt lat="42.2204114590" lon="13.4144118335"><ele>1599.90</ele><time>2026-03-11T16:21:26Z</time><extensions><gpxtpx:TrackPointExtension><gpxtpx:atemp>2.9</gpxtpx:atemp></gpxtpx:TrackPointExtension></extensions></trkpt><trkpt lat="42.2204195894" lon="13.4144170303"><ele>1599.89</ele><time>2026-03-11T16:21:27Z</time><extensions><gpxtpx:TrackPointExtension><gpxtpx:atemp>2.9</gpxtpx:atemp></gpxtpx:TrackPointExtension></extensions></trkpt><trkpt lat="42.2204264626" lon="13.4144231491"><ele>1599.89</ele><time>2026-03-11T16:21:28Z</time><extensions><gpxtpx:TrackPointExtension><gpxtpx:atemp>2.9</gpxtpx:atemp></gpxtpx:TrackPointExtension></extensions></trkpt><trkpt lat="42.2204347607" lon="13.4144281782"><ele>1599.86</ele><time>2026-03-11T16:21:29Z</time><extensions><gpxtpx:TrackPointExtension><gpxtpx:atemp>2.9</gpxtpx:atemp></gpxtpx:TrackPointExtension></extensions></trkpt><trkpt lat="42.2204432264" lon="13.4144336265"><ele>1599.77</ele><time>2026-03-11T16:21:30Z</time><extensions><gpxtpx:TrackPointExtension><gpxtpx:atemp>2.9</gpxtpx:atemp></gpxtpx:TrackPointExtension></extensions></trkpt><trkpt lat="42.2204504348" lon="13.4144400805"><ele>1599.74</ele><time>2026-03-11T16:21:31Z</time><extensions><gpxtpx:TrackPointExtension><gpxtpx:atemp>2.9</gpxtpx:atemp></gpxtpx:TrackPointExtension></extensions></trkpt><trkpt lat="42.2204593197" lon="13.4144440200"><ele>1599.70</ele><time>2026-03-11T16:21:32Z</time><extensions><gpxtpx:TrackPointExtension><gpxtpx:atemp>2.9</gpxtpx:atemp></gpxtpx:TrackPointExtension></extensions></trkpt><trkpt lat="42.2204652708" lon="13.4144491330"><ele>1599.68</ele><time>2026-03-11T16:21:33Z</time><extensions><gpxtpx:TrackPointExtension><gpxtpx:atemp>2.9</gpxtpx:atemp></gpxtpx:TrackPointExtension></extensions></trkpt><trkpt lat="42.2204739880" lon="13.4144495521"><ele>1599.65</ele><time>2026-03-11T16:21:34Z</time><extensions><gpxtpx:TrackPointExtension><gpxtpx:atemp>2.9</gpxtpx:atemp></gpxtpx:TrackPointExtension></extensions></trkpt><trkpt lat="42.2204832919" lon="13.4144590236"><ele>1599.63</ele><time>2026-03-11T16:21:35Z</time><extensions><gpxtpx:TrackPointExtension><gpxtpx:atemp>2.9</gpxtpx:atemp></gpxtpx:TrackPointExtension></extensions></trkpt><trkpt lat="42.2204894945" lon="13.4144636337"><ele>1599.62</ele><time>2026-03-11T16:21:36Z</time><extensions><gpxtpx:TrackPointExtension><gpxtpx:atemp>2.9</gpxtpx:atemp></gpxtpx:TrackPointExtension></extensions></trkpt><trkpt lat="42.2204992175" lon="13.4144665673"><ele>1599.60</ele><time>2026-03-11T16:21:37Z</time><extensions><gpxtpx:TrackPointExtension><gpxtpx:atemp>2.9</gpxtpx:atemp></gpxtpx:TrackPointExtension></extensions></trkpt><trkpt lat="42.2205078509" lon="13.4144709259"><ele>1599.56</ele><time>2026-03-11T16:21:38Z</time><extensions><gpxtpx:TrackPointExtension><gpxtpx:atemp>2.9</gpxtpx:atemp></gpxtpx:TrackPointExtension></extensions></trkpt><trkpt lat="42.2205161490" lon="13.4144770447"><ele>1599.54</ele><time>2026-03-11T16:21:39Z</time><extensions><gpxtpx:TrackPointExtension><gpxtpx:atemp>2.9</gpxtpx:atemp></gpxtpx:TrackPointExtension></extensions></trkpt><trkpt lat="42.2205240279" lon="13.4144838341"><ele>1599.49</ele><time>2026-03-11T16:21:40Z</time><extensions><gpxtpx:TrackPointExtension><gpxtpx:atemp>2.9</gpxtpx:atemp></gpxtpx:TrackPointExtension></extensions></trkpt><trkpt lat="42.2205314878" lon="13.4144903719"><ele>1599.41</ele><time>2026-03-11T16:21:41Z</time><extensions><gpxtpx:TrackPointExtension><gpxtpx:atemp>2.9</gpxtpx:atemp></gpxtpx:TrackPointExtension></extensions></trkpt><trkpt lat="42.2205389477" lon="13.4144972451"><ele>1599.40</ele><time>2026-03-11T16:21:42Z</time><extensions><gpxtpx:TrackPointExtension><gpxtpx:atemp>2.9</gpxtpx:atemp></gpxtpx:TrackPointExtension></extensions></trkpt><trkpt lat="42.2205478325" lon="13.4145023581"><ele>1599.39</ele><time>2026-03-11T16:21:43Z</time><extensions><gpxtpx:TrackPointExtension><gpxtpx:atemp>2.9</gpxtpx:atemp></gpxtpx:TrackPointExtension></extensions></trkpt><trkpt lat="42.2205521911" lon="13.4145085607"><ele>1599.39</ele><time>2026-03-11T16:21:44Z</time><extensions><gpxtpx:TrackPointExtension><gpxtpx:atemp>2.9</gpxtpx:atemp></gpxtpx:TrackPointExtension></extensions></trkpt><trkpt lat="42.2205587290" lon="13.4145129193"><ele>1599.38</ele><time>2026-03-11T16:21:45Z</time><extensions><gpxtpx:TrackPointExtension><gpxtpx:atemp>2.9</gpxtpx:atemp></gpxtpx:TrackPointExtension></extensions></trkpt><trkpt lat="42.2205648478" lon="13.4145181999"><ele>1599.37</ele><time>2026-03-11T16:21:46Z</time><extensions><gpxtpx:TrackPointExtension><gpxtpx:atemp>2.9</gpxtpx:atemp></gpxtpx:TrackPointExtension></extensions></trkpt><trkpt lat="42.2205723915" lon="13.4145245701"><ele>1599.34</ele><time>2026-03-11T16:21:47Z</time><extensions><gpxtpx:TrackPointExtension><gpxtpx:atemp>2.9</gpxtpx:atemp></gpxtpx:TrackPointExtension></extensions></trkpt><trkpt lat="42.2205801867" lon="13.4145293478"><ele>1599.32</ele><time>2026-03-11T16:21:48Z</time><extensions><gpxtpx:TrackPointExtension><gpxtpx:atemp>2.9</gpxtpx:atemp></gpxtpx:TrackPointExtension></extensions></trkpt><trkpt lat="42.2205877304" lon="13.4145317785"><ele>1599.31</ele><time>2026-03-11T16:21:49Z</time><extensions><gpxtpx:TrackPointExtension><gpxtpx:atemp>2.9</gpxtpx:atemp></gpxtpx:TrackPointExtension></extensions></trkpt><trkpt lat="42.2205947712" lon="13.4145394899"><ele>1599.31</ele><time>2026-03-11T16:21:50Z</time><extensions><gpxtpx:TrackPointExtension><gpxtpx:atemp>2.9</gpxtpx:atemp></gpxtpx:TrackPointExtension></extensions></trkpt><trkpt lat="42.2206031531" lon="13.4145472851"><ele>1599.31</ele><time>2026-03-11T16:21:51Z</time><extensions><gpxtpx:TrackPointExtension><gpxtpx:atemp>2.9</gpxtpx:atemp></gpxtpx:TrackPointExtension></extensions></trkpt><trkpt lat="42.2206076793" lon="13.4145555831"><ele>1599.31</ele><time>2026-03-11T16:21:52Z</time><extensions><gpxtpx:TrackPointExtension><gpxtpx:atemp>2.9</gpxtpx:atemp></gpxtpx:TrackPointExtension></extensions></trkpt><trkpt lat="42.2206156421" lon="13.4145626239"><ele>1599.27</ele><time>2026-03-11T16:21:53Z</time><extensions><gpxtpx:TrackPointExtension><gpxtpx:atemp>2.9</gpxtpx:atemp></gpxtpx:TrackPointExtension></extensions></trkpt><trkpt lat="42.2206234373" lon="13.4145712573"><ele>1599.25</ele><time>2026-03-11T16:21:54Z</time><extensions><gpxtpx:TrackPointExtension><gpxtpx:atemp>2.9</gpxtpx:atemp></gpxtpx:TrackPointExtension></extensions></trkpt><trkpt lat="42.2206332441" lon="13.4145789687"><ele>1599.24</ele><time>2026-03-11T16:21:55Z</time><extensions><gpxtpx:TrackPointExtension><gpxtpx:atemp>2.9</gpxtpx:atemp></gpxtpx:TrackPointExtension></extensions></trkpt><trkpt lat="42.2206413746" lon="13.4145894460"><ele>1599.24</ele><time>2026-03-11T16:21:56Z</time><extensions><gpxtpx:TrackPointExtension><gpxtpx:atemp>2.9</gpxtpx:atemp></gpxtpx:TrackPointExtension></extensions></trkpt><trkpt lat="42.2206487507" lon="13.4145956486"><ele>1599.21</ele><time>2026-03-11T16:21:57Z</time><extensions><gpxtpx:TrackPointExtension><gpxtpx:atemp>2.9</gpxtpx:atemp></gpxtpx:TrackPointExtension></extensions></trkpt><trkpt lat="42.2206583899" lon="13.4146001749"><ele>1599.20</ele><time>2026-03-11T16:21:58Z</time><extensions><gpxtpx:TrackPointExtension><gpxtpx:atemp>2.9</gpxtpx:atemp></gpxtpx:TrackPointExtension></extensions></trkpt><trkpt lat="42.2206647601" lon="13.4146054555"><ele>1599.19</ele><time>2026-03-11T16:21:59Z</time><extensions><gpxtpx:TrackPointExtension><gpxtpx:atemp>2.9</gpxtpx:atemp></gpxtpx:TrackPointExtension></extensions></trkpt><trkpt lat="42.2206720524" lon="13.4146128315"><ele>1599.16</ele><time>2026-03-11T16:22:00Z</time><extensions><gpxtpx:TrackPointExtension><gpxtpx:atemp>2.9</gpxtpx:atemp></gpxtpx:TrackPointExtension></extensions></trkpt><trkpt lat="42.2206785902" lon="13.4146194533"><ele>1599.14</ele><time>2026-03-11T16:22:01Z</time><extensions><gpxtpx:TrackPointExtension><gpxtpx:atemp>2.9</gpxtpx:atemp></gpxtpx:TrackPointExtension></extensions></trkpt><trkpt lat="42.2206833679" lon="13.4146228898"><ele>1599.09</ele><time>2026-03-11T16:22:02Z</time><extensions><gpxtpx:TrackPointExtension><gpxtpx:atemp>2.9</gpxtpx:atemp></gpxtpx:TrackPointExtension></extensions></trkpt><trkpt lat="42.2206893191" lon="13.4146273322"><ele>1599.05</ele><time>2026-03-11T16:22:03Z</time><extensions><gpxtpx:TrackPointExtension><gpxtpx:atemp>2.9</gpxtpx:atemp></gpxtpx:TrackPointExtension></extensions></trkpt><trkpt lat="42.2206963599" lon="13.4146349598"><ele>1598.90</ele><time>2026-03-11T16:22:04Z</time><extensions><gpxtpx:TrackPointExtension><gpxtpx:atemp>2.9</gpxtpx:atemp></gpxtpx:TrackPointExtension></extensions></trkpt><trkpt lat="42.2207034845" lon="13.4146394860"><ele>1598.84</ele><time>2026-03-11T16:22:05Z</time><extensions><gpxtpx:TrackPointExtension><gpxtpx:atemp>2.9</gpxtpx:atemp></gpxtpx:TrackPointExtension></extensions></trkpt><trkpt lat="42.2207104415" lon="13.4146441799"><ele>1598.81</ele><time>2026-03-11T16:22:06Z</time><extensions><gpxtpx:TrackPointExtension><gpxtpx:atemp>2.9</gpxtpx:atemp></gpxtpx:TrackPointExtension></extensions></trkpt><trkpt lat="42.2207186557" lon="13.4146489576"><ele>1598.76</ele><time>2026-03-11T16:22:07Z</time><extensions><gpxtpx:TrackPointExtension><gpxtpx:atemp>2.9</gpxtpx:atemp></gpxtpx:TrackPointExtension></extensions></trkpt><trkpt lat="42.2207265347" lon="13.4146530647"><ele>1598.72</ele><time>2026-03-11T16:22:08Z</time><extensions><gpxtpx:TrackPointExtension><gpxtpx:atemp>2.9</gpxtpx:atemp></gpxtpx:TrackPointExtension></extensions></trkpt><trkpt lat="42.2207341623" lon="13.4146575909"><ele>1598.68</ele><time>2026-03-11T16:22:09Z</time><extensions><gpxtpx:TrackPointExtension><gpxtpx:atemp>2.9</gpxtpx:atemp></gpxtpx:TrackPointExtension></extensions></trkpt><trkpt lat="42.2207414545" lon="13.4146639612"><ele>1598.65</ele><time>2026-03-11T16:22:10Z</time><extensions><gpxtpx:TrackPointExtension><gpxtpx:atemp>2.9</gpxtpx:atemp></gpxtpx:TrackPointExtension></extensions></trkpt><trkpt lat="42.2207488306" lon="13.4146684874"><ele>1598.63</ele><time>2026-03-11T16:22:11Z</time><extensions><gpxtpx:TrackPointExtension><gpxtpx:atemp>2.9</gpxtpx:atemp></gpxtpx:TrackPointExtension></extensions></trkpt><trkpt lat="42.2207567934" lon="13.4146777913"><ele>1598.61</ele><time>2026-03-11T16:22:12Z</time><extensions><gpxtpx:TrackPointExtension><gpxtpx:atemp>2.9</gpxtpx:atemp></gpxtpx:TrackPointExtension></extensions></trkpt><trkpt lat="42.2207646724" lon="13.4146834910"><ele>1598.60</ele><time>2026-03-11T16:22:13Z</time><extensions><gpxtpx:TrackPointExtension><gpxtpx:atemp>2.9</gpxtpx:atemp></gpxtpx:TrackPointExtension></extensions></trkpt><trkpt lat="42.2207723837" lon="13.4146882687"><ele>1598.59</ele><time>2026-03-11T16:22:14Z</time><extensions><gpxtpx:TrackPointExtension><gpxtpx:atemp>2.9</gpxtpx:atemp></gpxtpx:TrackPointExtension></extensions></trkpt><trkpt lat="42.2207784187" lon="13.4146950580"><ele>1598.55</ele><time>2026-03-11T16:22:15Z</time><extensions><gpxtpx:TrackPointExtension><gpxtpx:atemp>2.9</gpxtpx:atemp></gpxtpx:TrackPointExtension></extensions></trkpt><trkpt lat="42.2207862977" lon="13.4147014283"><ele>1598.49</ele><time>2026-03-11T16:22:16Z</time><extensions><gpxtpx:TrackPointExtension><gpxtpx:atemp>2.9</gpxtpx:atemp></gpxtpx:TrackPointExtension></extensions></trkpt><trkpt lat="42.2207944281" lon="13.4147065412"><ele>1598.47</ele><time>2026-03-11T16:22:17Z</time><extensions><gpxtpx:TrackPointExtension><gpxtpx:atemp>2.9</gpxtpx:atemp></gpxtpx:TrackPointExtension></extensions></trkpt><trkpt lat="42.2208001278" lon="13.4147123247"><ele>1598.46</ele><time>2026-03-11T16:22:18Z</time><extensions><gpxtpx:TrackPointExtension><gpxtpx:atemp>2.9</gpxtpx:atemp></gpxtpx:TrackPointExtension></extensions></trkpt><trkpt lat="42.2208060790" lon="13.4147176892"><ele>1598.45</ele><time>2026-03-11T16:22:19Z</time><extensions><gpxtpx:TrackPointExtension><gpxtpx:atemp>2.9</gpxtpx:atemp></gpxtpx:TrackPointExtension></extensions></trkpt><trkpt lat="42.2208127845" lon="13.4147249814"><ele>1598.43</ele><time>2026-03-11T16:22:20Z</time><extensions><gpxtpx:TrackPointExtension><gpxtpx:atemp>2.9</gpxtpx:atemp></gpxtpx:TrackPointExtension></extensions></trkpt><trkpt lat="42.2208199929" lon="13.4147321898"><ele>1598.40</ele><time>2026-03-11T16:22:21Z</time><extensions><gpxtpx:TrackPointExtension><gpxtpx:atemp>2.9</gpxtpx:atemp></gpxtpx:TrackPointExtension></extensions></trkpt><trkpt lat="42.2208278719" lon="13.4147358779"><ele>1598.37</ele><time>2026-03-11T16:22:22Z</time><extensions><gpxtpx:TrackPointExtension><gpxtpx:atemp>2.9</gpxtpx:atemp></gpxtpx:TrackPointExtension></extensions></trkpt><trkpt lat="42.2208347451" lon="13.4147413261"><ele>1598.34</ele><time>2026-03-11T16:22:23Z</time><extensions><gpxtpx:TrackPointExtension><gpxtpx:atemp>2.9</gpxtpx:atemp></gpxtpx:TrackPointExtension></extensions></trkpt><trkpt lat="42.2208421212" lon="13.4147450980"><ele>1598.31</ele><time>2026-03-11T16:22:24Z</time><extensions><gpxtpx:TrackPointExtension><gpxtpx:atemp>2.9</gpxtpx:atemp></gpxtpx:TrackPointExtension></extensions></trkpt><trkpt lat="42.2208494972" lon="13.4147483669"><ele>1598.27</ele><time>2026-03-11T16:22:25Z</time><extensions><gpxtpx:TrackPointExtension><gpxtpx:atemp>2.9</gpxtpx:atemp></gpxtpx:TrackPointExtension></extensions></trkpt><trkpt lat="42.2208551969" lon="13.4147563297"><ele>1598.25</ele><time>2026-03-11T16:22:26Z</time><extensions><gpxtpx:TrackPointExtension><gpxtpx:atemp>2.9</gpxtpx:atemp></gpxtpx:TrackPointExtension></extensions></trkpt><trkpt lat="42.2208627407" lon="13.4147627838"><ele>1598.22</ele><time>2026-03-11T16:22:27Z</time><extensions><gpxtpx:TrackPointExtension><gpxtpx:atemp>2.9</gpxtpx:atemp></gpxtpx:TrackPointExtension></extensions></trkpt><trkpt lat="42.2208702844" lon="13.4147702437"><ele>1598.17</ele><time>2026-03-11T16:22:28Z</time><extensions><gpxtpx:TrackPointExtension><gpxtpx:atemp>2.9</gpxtpx:atemp></gpxtpx:TrackPointExtension></extensions></trkpt><trkpt lat="42.2208776604" lon="13.4147780389"><ele>1598.11</ele><time>2026-03-11T16:22:29Z</time><extensions><gpxtpx:TrackPointExtension><gpxtpx:atemp>2.9</gpxtpx:atemp></gpxtpx:TrackPointExtension></extensions></trkpt><trkpt lat="42.2208853718" lon="13.4147841576"><ele>1598.08</ele><time>2026-03-11T16:22:30Z</time><extensions><gpxtpx:TrackPointExtension><gpxtpx:atemp>2.9</gpxtpx:atemp></gpxtpx:TrackPointExtension></extensions></trkpt><trkpt lat="42.2208931670" lon="13.4147918690"><ele>1598.03</ele><time>2026-03-11T16:22:31Z</time><extensions><gpxtpx:TrackPointExtension><gpxtpx:atemp>2.9</gpxtpx:atemp></gpxtpx:TrackPointExtension></extensions></trkpt><trkpt lat="42.2209014650" lon="13.4147964790"><ele>1597.96</ele><time>2026-03-11T16:22:32Z</time><extensions><gpxtpx:TrackPointExtension><gpxtpx:atemp>2.9</gpxtpx:atemp></gpxtpx:TrackPointExtension></extensions></trkpt><trkpt lat="42.2209088411" lon="13.4148011729"><ele>1597.91</ele><time>2026-03-11T16:22:33Z</time><extensions><gpxtpx:TrackPointExtension><gpxtpx:atemp>2.9</gpxtpx:atemp></gpxtpx:TrackPointExtension></extensions></trkpt><trkpt lat="42.2209147923" lon="13.4148083813"><ele>1597.88</ele><time>2026-03-11T16:22:34Z</time><extensions><gpxtpx:TrackPointExtension><gpxtpx:atemp>3.0</gpxtpx:atemp></gpxtpx:TrackPointExtension></extensions></trkpt><trkpt lat="42.2209222522" lon="13.4148155898"><ele>1597.86</ele><time>2026-03-11T16:22:35Z</time><extensions><gpxtpx:TrackPointExtension><gpxtpx:atemp>3.0</gpxtpx:atemp></gpxtpx:TrackPointExtension></extensions></trkpt><trkpt lat="42.2209305502" lon="13.4148247261"><ele>1597.84</ele><time>2026-03-11T16:22:36Z</time><extensions><gpxtpx:TrackPointExtension><gpxtpx:atemp>3.0</gpxtpx:atemp></gpxtpx:TrackPointExtension></extensions></trkpt><trkpt lat="42.2209359985" lon="13.4148311801"><ele>1597.82</ele><time>2026-03-11T16:22:37Z</time><extensions><gpxtpx:TrackPointExtension><gpxtpx:atemp>3.0</gpxtpx:atemp></gpxtpx:TrackPointExtension></extensions></trkpt><trkpt lat="42.2209431231" lon="13.4148374666"><ele>1597.79</ele><time>2026-03-11T16:22:38Z</time><extensions><gpxtpx:TrackPointExtension><gpxtpx:atemp>3.0</gpxtpx:atemp></gpxtpx:TrackPointExtension></extensions></trkpt><trkpt lat="42.2209500801" lon="13.4148437530"><ele>1597.74</ele><time>2026-03-11T16:22:39Z</time><extensions><gpxtpx:TrackPointExtension><gpxtpx:atemp>3.0</gpxtpx:atemp></gpxtpx:TrackPointExtension></extensions></trkpt><trkpt lat="42.2209559474" lon="13.4148498718"><ele>1597.70</ele><time>2026-03-11T16:22:40Z</time><extensions><gpxtpx:TrackPointExtension><gpxtpx:atemp>3.0</gpxtpx:atemp></gpxtpx:TrackPointExtension></extensions></trkpt><trkpt lat="42.2209642455" lon="13.4148546495"><ele>1597.66</ele><time>2026-03-11T16:22:41Z</time><extensions><gpxtpx:TrackPointExtension><gpxtpx:atemp>3.0</gpxtpx:atemp></gpxtpx:TrackPointExtension></extensions></trkpt><trkpt lat="42.2209727950" lon="13.4148588404"><ele>1597.61</ele><time>2026-03-11T16:22:42Z</time><extensions><gpxtpx:TrackPointExtension><gpxtpx:atemp>3.0</gpxtpx:atemp></gpxtpx:TrackPointExtension></extensions></trkpt><trkpt lat="42.2209783271" lon="13.4148664679"><ele>1597.58</ele><time>2026-03-11T16:22:43Z</time><extensions><gpxtpx:TrackPointExtension><gpxtpx:atemp>3.0</gpxtpx:atemp></gpxtpx:TrackPointExtension></extensions></trkpt><trkpt lat="42.2209862899" lon="13.4148730896"><ele>1597.57</ele><time>2026-03-11T16:22:44Z</time><extensions><gpxtpx:TrackPointExtension><gpxtpx:atemp>3.0</gpxtpx:atemp></gpxtpx:TrackPointExtension></extensions></trkpt><trkpt lat="42.2209927440" lon="13.4148790408"><ele>1597.56</ele><time>2026-03-11T16:22:45Z</time><extensions><gpxtpx:TrackPointExtension><gpxtpx:atemp>3.0</gpxtpx:atemp></gpxtpx:TrackPointExtension></extensions></trkpt><trkpt lat="42.2209997848" lon="13.4148866683"><ele>1597.56</ele><time>2026-03-11T16:22:46Z</time><extensions><gpxtpx:TrackPointExtension><gpxtpx:atemp>3.0</gpxtpx:atemp></gpxtpx:TrackPointExtension></extensions></trkpt><trkpt lat="42.2210079990" lon="13.4148908593"><ele>1597.56</ele><time>2026-03-11T16:22:47Z</time><extensions><gpxtpx:TrackPointExtension><gpxtpx:atemp>3.0</gpxtpx:atemp></gpxtpx:TrackPointExtension></extensions></trkpt><trkpt lat="42.2210142855" lon="13.4148971457"><ele>1597.54</ele><time>2026-03-11T16:22:48Z</time><extensions><gpxtpx:TrackPointExtension><gpxtpx:atemp>3.0</gpxtpx:atemp></gpxtpx:TrackPointExtension></extensions></trkpt><trkpt lat="42.2210215777" lon="13.4149045218"><ele>1597.51</ele><time>2026-03-11T16:22:49Z</time><extensions><gpxtpx:TrackPointExtension><gpxtpx:atemp>3.0</gpxtpx:atemp></gpxtpx:TrackPointExtension></extensions></trkpt><trkpt lat="42.2210287862" lon="13.4149097186"><ele>1597.42</ele><time>2026-03-11T16:22:50Z</time><extensions><gpxtpx:TrackPointExtension><gpxtpx:atemp>3.0</gpxtpx:atemp></gpxtpx:TrackPointExtension></extensions></trkpt><trkpt lat="42.2210343182" lon="13.4149156697"><ele>1597.31</ele><time>2026-03-11T16:22:51Z</time><extensions><gpxtpx:TrackPointExtension><gpxtpx:atemp>3.0</gpxtpx:atemp></gpxtpx:TrackPointExtension></extensions></trkpt><trkpt lat="42.2210413590" lon="13.4149221238"><ele>1597.29</ele><time>2026-03-11T16:22:52Z</time><extensions><gpxtpx:TrackPointExtension><gpxtpx:atemp>3.0</gpxtpx:atemp></gpxtpx:TrackPointExtension></extensions></trkpt><trkpt lat="42.2210487351" lon="13.4149289969"><ele>1597.26</ele><time>2026-03-11T16:22:53Z</time><extensions><gpxtpx:TrackPointExtension><gpxtpx:atemp>3.0</gpxtpx:atemp></gpxtpx:TrackPointExtension></extensions></trkpt><trkpt lat="42.2210556921" lon="13.4149358701"><ele>1597.21</ele><time>2026-03-11T16:22:54Z</time><extensions><gpxtpx:TrackPointExtension><gpxtpx:atemp>3.0</gpxtpx:atemp></gpxtpx:TrackPointExtension></extensions></trkpt><trkpt lat="42.2210631520" lon="13.4149404801"><ele>1597.17</ele><time>2026-03-11T16:22:55Z</time><extensions><gpxtpx:TrackPointExtension><gpxtpx:atemp>3.0</gpxtpx:atemp></gpxtpx:TrackPointExtension></extensions></trkpt><trkpt lat="42.2210682649" lon="13.4149464313"><ele>1597.14</ele><time>2026-03-11T16:22:56Z</time><extensions><gpxtpx:TrackPointExtension><gpxtpx:atemp>3.0</gpxtpx:atemp></gpxtpx:TrackPointExtension></extensions></trkpt><trkpt lat="42.2210762277" lon="13.4149524663"><ele>1597.13</ele><time>2026-03-11T16:22:57Z</time><extensions><gpxtpx:TrackPointExtension><gpxtpx:atemp>3.0</gpxtpx:atemp></gpxtpx:TrackPointExtension></extensions></trkpt><trkpt lat="42.2210841905" lon="13.4149580821"><ele>1597.13</ele><time>2026-03-11T16:22:58Z</time><extensions><gpxtpx:TrackPointExtension><gpxtpx:atemp>3.0</gpxtpx:atemp></gpxtpx:TrackPointExtension></extensions></trkpt><trkpt lat="42.2210909799" lon="13.4149650391"><ele>1597.08</ele><time>2026-03-11T16:22:59Z</time><extensions><gpxtpx:TrackPointExtension><gpxtpx:atemp>3.0</gpxtpx:atemp></gpxtpx:TrackPointExtension></extensions></trkpt><trkpt lat="42.2210989427" lon="13.4149734210"><ele>1597.06</ele><time>2026-03-11T16:23:00Z</time><extensions><gpxtpx:TrackPointExtension><gpxtpx:atemp>3.0</gpxtpx:atemp></gpxtpx:TrackPointExtension></extensions></trkpt><trkpt lat="42.2211071569" lon="13.4149793722"><ele>1596.99</ele><time>2026-03-11T16:23:01Z</time><extensions><gpxtpx:TrackPointExtension><gpxtpx:atemp>3.0</gpxtpx:atemp></gpxtpx:TrackPointExtension></extensions></trkpt><trkpt lat="42.2211139463" lon="13.4149859939"><ele>1596.98</ele><time>2026-03-11T16:23:02Z</time><extensions><gpxtpx:TrackPointExtension><gpxtpx:atemp>3.0</gpxtpx:atemp></gpxtpx:TrackPointExtension></extensions></trkpt><trkpt lat="42.2211228311" lon="13.4149921965"><ele>1596.96</ele><time>2026-03-11T16:23:03Z</time><extensions><gpxtpx:TrackPointExtension><gpxtpx:atemp>3.0</gpxtpx:atemp></gpxtpx:TrackPointExtension></extensions></trkpt><trkpt lat="42.2211320512" lon="13.4149980638"><ele>1596.94</ele><time>2026-03-11T16:23:04Z</time><extensions><gpxtpx:TrackPointExtension><gpxtpx:atemp>3.0</gpxtpx:atemp></gpxtpx:TrackPointExtension></extensions></trkpt><trkpt lat="42.2211389244" lon="13.4150048532"><ele>1596.92</ele><time>2026-03-11T16:23:05Z</time><extensions><gpxtpx:TrackPointExtension><gpxtpx:atemp>3.0</gpxtpx:atemp></gpxtpx:TrackPointExtension></extensions></trkpt><trkpt lat="42.2211480606" lon="13.4150098823"><ele>1596.92</ele><time>2026-03-11T16:23:06Z</time><extensions><gpxtpx:TrackPointExtension><gpxtpx:atemp>3.0</gpxtpx:atemp></gpxtpx:TrackPointExtension></extensions></trkpt><trkpt lat="42.2211559396" lon="13.4150139894"><ele>1596.88</ele><time>2026-03-11T16:23:07Z</time><extensions><gpxtpx:TrackPointExtension><gpxtpx:atemp>3.0</gpxtpx:atemp></gpxtpx:TrackPointExtension></extensions></trkpt><trkpt lat="42.2211621422" lon="13.4150207788"><ele>1596.86</ele><time>2026-03-11T16:23:08Z</time><extensions><gpxtpx:TrackPointExtension><gpxtpx:atemp>3.0</gpxtpx:atemp></gpxtpx:TrackPointExtension></extensions></trkpt><trkpt lat="42.2211697698" lon="13.4150270652"><ele>1596.84</ele><time>2026-03-11T16:23:09Z</time><extensions><gpxtpx:TrackPointExtension><gpxtpx:atemp>3.0</gpxtpx:atemp></gpxtpx:TrackPointExtension></extensions></trkpt><trkpt lat="42.2211771458" lon="13.4150336869"><ele>1596.83</ele><time>2026-03-11T16:23:10Z</time><extensions><gpxtpx:TrackPointExtension><gpxtpx:atemp>3.0</gpxtpx:atemp></gpxtpx:TrackPointExtension></extensions></trkpt><trkpt lat="42.2211836837" lon="13.4150408953"><ele>1596.77</ele><time>2026-03-11T16:23:11Z</time><extensions><gpxtpx:TrackPointExtension><gpxtpx:atemp>3.0</gpxtpx:atemp></gpxtpx:TrackPointExtension></extensions></trkpt><trkpt lat="42.2211918980" lon="13.4150469303"><ele>1596.70</ele><time>2026-03-11T16:23:12Z</time><extensions><gpxtpx:TrackPointExtension><gpxtpx:atemp>3.0</gpxtpx:atemp></gpxtpx:TrackPointExtension></extensions></trkpt><trkpt lat="42.2212002799" lon="13.4150544740"><ele>1596.63</ele><time>2026-03-11T16:23:13Z</time><extensions><gpxtpx:TrackPointExtension><gpxtpx:atemp>3.0</gpxtpx:atemp></gpxtpx:TrackPointExtension></extensions></trkpt><trkpt lat="42.2212073207" lon="13.4150618501"><ele>1596.61</ele><time>2026-03-11T16:23:14Z</time><extensions><gpxtpx:TrackPointExtension><gpxtpx:atemp>3.0</gpxtpx:atemp></gpxtpx:TrackPointExtension></extensions></trkpt><trkpt lat="42.2212156188" lon="13.4150685556"><ele>1596.60</ele><time>2026-03-11T16:23:15Z</time><extensions><gpxtpx:TrackPointExtension><gpxtpx:atemp>3.0</gpxtpx:atemp></gpxtpx:TrackPointExtension></extensions></trkpt><trkpt lat="42.2212251741" lon="13.4150711540"><ele>1596.59</ele><time>2026-03-11T16:23:16Z</time><extensions><gpxtpx:TrackPointExtension><gpxtpx:atemp>3.0</gpxtpx:atemp></gpxtpx:TrackPointExtension></extensions></trkpt><trkpt lat="42.2212308738" lon="13.4150759317"><ele>1596.57</ele><time>2026-03-11T16:23:17Z</time><extensions><gpxtpx:TrackPointExtension><gpxtpx:atemp>3.0</gpxtpx:atemp></gpxtpx:TrackPointExtension></extensions></trkpt><trkpt lat="42.2212397587" lon="13.4150786977"><ele>1596.56</ele><time>2026-03-11T16:23:18Z</time><extensions><gpxtpx:TrackPointExtension><gpxtpx:atemp>3.0</gpxtpx:atemp></gpxtpx:TrackPointExtension></extensions></trkpt><trkpt lat="42.2212477215" lon="13.4150798712"><ele>1596.56</ele><time>2026-03-11T16:23:19Z</time><extensions><gpxtpx:TrackPointExtension><gpxtpx:atemp>3.0</gpxtpx:atemp></gpxtpx:TrackPointExtension></extensions></trkpt><trkpt lat="42.2212550975" lon="13.4150832240"><ele>1596.55</ele><time>2026-03-11T16:23:20Z</time><extensions><gpxtpx:TrackPointExtension><gpxtpx:atemp>3.0</gpxtpx:atemp></gpxtpx:TrackPointExtension></extensions></trkpt><trkpt lat="42.2212635633" lon="13.4150859900"><ele>1596.53</ele><time>2026-03-11T16:23:21Z</time><extensions><gpxtpx:TrackPointExtension><gpxtpx:atemp>3.0</gpxtpx:atemp></gpxtpx:TrackPointExtension></extensions></trkpt><trkpt lat="42.2212717775" lon="13.4150884207"><ele>1596.52</ele><time>2026-03-11T16:23:22Z</time><extensions><gpxtpx:TrackPointExtension><gpxtpx:atemp>3.0</gpxtpx:atemp></gpxtpx:TrackPointExtension></extensions></trkpt><trkpt lat="42.2212799918" lon="13.4150917735"><ele>1596.50</ele><time>2026-03-11T16:23:23Z</time><extensions><gpxtpx:TrackPointExtension><gpxtpx:atemp>3.0</gpxtpx:atemp></gpxtpx:TrackPointExtension></extensions></trkpt><trkpt lat="42.2212871164" lon="13.4150970541"><ele>1596.45</ele><time>2026-03-11T16:23:24Z</time><extensions><gpxtpx:TrackPointExtension><gpxtpx:atemp>3.0</gpxtpx:atemp></gpxtpx:TrackPointExtension></extensions></trkpt><trkpt lat="42.2212948278" lon="13.4151015803"><ele>1596.36</ele><time>2026-03-11T16:23:25Z</time><extensions><gpxtpx:TrackPointExtension><gpxtpx:atemp>3.0</gpxtpx:atemp></gpxtpx:TrackPointExtension></extensions></trkpt><trkpt lat="42.2213028744" lon="13.4151076991"><ele>1596.35</ele><time>2026-03-11T16:23:26Z</time><extensions><gpxtpx:TrackPointExtension><gpxtpx:atemp>3.0</gpxtpx:atemp></gpxtpx:TrackPointExtension></extensions></trkpt><trkpt lat="42.2213085741" lon="13.4151131473"><ele>1596.33</ele><time>2026-03-11T16:23:27Z</time><extensions><gpxtpx:TrackPointExtension><gpxtpx:atemp>3.0</gpxtpx:atemp></gpxtpx:TrackPointExtension></extensions></trkpt><trkpt lat="42.2213152796" lon="13.4151134826"><ele>1596.30</ele><time>2026-03-11T16:23:28Z</time><extensions><gpxtpx:TrackPointExtension><gpxtpx:atemp>3.0</gpxtpx:atemp></gpxtpx:TrackPointExtension></extensions></trkpt><trkpt lat="42.2213201411" lon="13.4151185956"><ele>1596.27</ele><time>2026-03-11T16:23:29Z</time><extensions><gpxtpx:TrackPointExtension><gpxtpx:atemp>3.0</gpxtpx:atemp></gpxtpx:TrackPointExtension></extensions></trkpt><trkpt lat="42.2213265952" lon="13.4151221998"><ele>1596.26</ele><time>2026-03-11T16:23:30Z</time><extensions><gpxtpx:TrackPointExtension><gpxtpx:atemp>3.0</gpxtpx:atemp></gpxtpx:TrackPointExtension></extensions></trkpt><trkpt lat="42.2213332169" lon="13.4151273966"><ele>1596.26</ele><time>2026-03-11T16:23:31Z</time><extensions><gpxtpx:TrackPointExtension><gpxtpx:atemp>3.0</gpxtpx:atemp></gpxtpx:TrackPointExtension></extensions></trkpt><trkpt lat="42.2213407606" lon="13.4151298273"><ele>1596.25</ele><time>2026-03-11T16:23:32Z</time><extensions><gpxtpx:TrackPointExtension><gpxtpx:atemp>3.0</gpxtpx:atemp></gpxtpx:TrackPointExtension></extensions></trkpt><trkpt lat="42.2213482205" lon="13.4151338506"><ele>1596.22</ele><time>2026-03-11T16:23:33Z</time><extensions><gpxtpx:TrackPointExtension><gpxtpx:atemp>3.0</gpxtpx:atemp></gpxtpx:TrackPointExtension></extensions></trkpt><trkpt lat="42.2213540878" lon="13.4151370358"><ele>1596.22</ele><time>2026-03-11T16:23:34Z</time><extensions><gpxtpx:TrackPointExtension><gpxtpx:atemp>2.9</gpxtpx:atemp></gpxtpx:TrackPointExtension></extensions></trkpt><trkpt lat="42.2213596199" lon="13.4151393827"><ele>1596.19</ele><time>2026-03-11T16:23:35Z</time><extensions><gpxtpx:TrackPointExtension><gpxtpx:atemp>2.9</gpxtpx:atemp></gpxtpx:TrackPointExtension></extensions></trkpt><trkpt lat="42.2213668283" lon="13.4151398856"><ele>1596.13</ele><time>2026-03-11T16:23:36Z</time><extensions><gpxtpx:TrackPointExtension><gpxtpx:atemp>2.9</gpxtpx:atemp></gpxtpx:TrackPointExtension></extensions></trkpt><trkpt lat="42.2213747911" lon="13.4151412267"><ele>1596.08</ele><time>2026-03-11T16:23:37Z</time><extensions><gpxtpx:TrackPointExtension><gpxtpx:atemp>2.9</gpxtpx:atemp></gpxtpx:TrackPointExtension></extensions></trkpt><trkpt lat="42.2213809937" lon="13.4151443280"><ele>1596.05</ele><time>2026-03-11T16:23:38Z</time><extensions><gpxtpx:TrackPointExtension><gpxtpx:atemp>2.9</gpxtpx:atemp></gpxtpx:TrackPointExtension></extensions></trkpt><trkpt lat="42.2213879507" lon="13.4151457530"><ele>1596.02</ele><time>2026-03-11T16:23:39Z</time><extensions><gpxtpx:TrackPointExtension><gpxtpx:atemp>2.9</gpxtpx:atemp></gpxtpx:TrackPointExtension></extensions></trkpt><trkpt lat="42.2213961650" lon="13.4151448309"><ele>1595.97</ele><time>2026-03-11T16:23:40Z</time><extensions><gpxtpx:TrackPointExtension><gpxtpx:atemp>2.9</gpxtpx:atemp></gpxtpx:TrackPointExtension></extensions></trkpt><trkpt lat="42.2214033734" lon="13.4151450824"><ele>1595.95</ele><time>2026-03-11T16:23:41Z</time><extensions><gpxtpx:TrackPointExtension><gpxtpx:atemp>2.9</gpxtpx:atemp></gpxtpx:TrackPointExtension></extensions></trkpt><trkpt lat="42.2214132641" lon="13.4151449986"><ele>1595.94</ele><time>2026-03-11T16:23:42Z</time><extensions><gpxtpx:TrackPointExtension><gpxtpx:atemp>2.9</gpxtpx:atemp></gpxtpx:TrackPointExtension></extensions></trkpt><trkpt lat="42.2214210592" lon="13.4151429869"><ele>1595.92</ele><time>2026-03-11T16:23:43Z</time><extensions><gpxtpx:TrackPointExtension><gpxtpx:atemp>2.9</gpxtpx:atemp></gpxtpx:TrackPointExtension></extensions></trkpt><trkpt lat="42.2214292735" lon="13.4151412267"><ele>1595.89</ele><time>2026-03-11T16:23:44Z</time><extensions><gpxtpx:TrackPointExtension><gpxtpx:atemp>2.9</gpxtpx:atemp></gpxtpx:TrackPointExtension></extensions></trkpt><trkpt lat="42.2214368172" lon="13.4151387960"><ele>1595.87</ele><time>2026-03-11T16:23:45Z</time><extensions><gpxtpx:TrackPointExtension><gpxtpx:atemp>2.9</gpxtpx:atemp></gpxtpx:TrackPointExtension></extensions></trkpt><trkpt lat="42.2214437742" lon="13.4151346888"><ele>1595.85</ele><time>2026-03-11T16:23:46Z</time><extensions><gpxtpx:TrackPointExtension><gpxtpx:atemp>2.9</gpxtpx:atemp></gpxtpx:TrackPointExtension></extensions></trkpt><trkpt lat="42.2214517370" lon="13.4151317552"><ele>1595.82</ele><time>2026-03-11T16:23:47Z</time><extensions><gpxtpx:TrackPointExtension><gpxtpx:atemp>2.9</gpxtpx:atemp></gpxtpx:TrackPointExtension></extensions></trkpt><trkpt lat="42.2214593645" lon="13.4151305817"><ele>1595.78</ele><time>2026-03-11T16:23:48Z</time><extensions><gpxtpx:TrackPointExtension><gpxtpx:atemp>2.9</gpxtpx:atemp></gpxtpx:TrackPointExtension></extensions></trkpt><trkpt lat="42.2214653995" lon="13.4151264746"><ele>1595.77</ele><time>2026-03-11T16:23:49Z</time><extensions><gpxtpx:TrackPointExtension><gpxtpx:atemp>2.9</gpxtpx:atemp></gpxtpx:TrackPointExtension></extensions></trkpt><trkpt lat="42.2214718536" lon="13.4151279833"><ele>1595.77</ele><time>2026-03-11T16:23:50Z</time><extensions><gpxtpx:TrackPointExtension><gpxtpx:atemp>2.9</gpxtpx:atemp></gpxtpx:TrackPointExtension></extensions></trkpt><trkpt lat="42.2214792296" lon="13.4151288215"><ele>1595.78</ele><time>2026-03-11T16:23:51Z</time><extensions><gpxtpx:TrackPointExtension><gpxtpx:atemp>2.9</gpxtpx:atemp></gpxtpx:TrackPointExtension></extensions></trkpt><trkpt lat="42.2214867733" lon="13.4151285701"><ele>1595.81</ele><time>2026-03-11T16:23:52Z</time><extensions><gpxtpx:TrackPointExtension><gpxtpx:atemp>2.9</gpxtpx:atemp></gpxtpx:TrackPointExtension></extensions></trkpt><trkpt lat="42.2214943171" lon="13.4151316714"><ele>1595.85</ele><time>2026-03-11T16:23:53Z</time><extensions><gpxtpx:TrackPointExtension><gpxtpx:atemp>2.9</gpxtpx:atemp></gpxtpx:TrackPointExtension></extensions></trkpt><trkpt lat="42.2215015255" lon="13.4151345212"><ele>1595.87</ele><time>2026-03-11T16:23:54Z</time><extensions><gpxtpx:TrackPointExtension><gpxtpx:atemp>2.9</gpxtpx:atemp></gpxtpx:TrackPointExtension></extensions></trkpt><trkpt lat="42.2215101589" lon="13.4151333477"><ele>1595.87</ele><time>2026-03-11T16:23:55Z</time><extensions><gpxtpx:TrackPointExtension><gpxtpx:atemp>2.9</gpxtpx:atemp></gpxtpx:TrackPointExtension></extensions></trkpt><trkpt lat="42.2215179540" lon="13.4151344374"><ele>1595.84</ele><time>2026-03-11T16:23:56Z</time><extensions><gpxtpx:TrackPointExtension><gpxtpx:atemp>2.9</gpxtpx:atemp></gpxtpx:TrackPointExtension></extensions></trkpt><trkpt lat="42.2215238214" lon="13.4151374549"><ele>1595.80</ele><time>2026-03-11T16:23:57Z</time><extensions><gpxtpx:TrackPointExtension><gpxtpx:atemp>2.9</gpxtpx:atemp></gpxtpx:TrackPointExtension></extensions></trkpt><trkpt lat="42.2215294372" lon="13.4151391312"><ele>1595.77</ele><time>2026-03-11T16:23:58Z</time><extensions><gpxtpx:TrackPointExtension><gpxtpx:atemp>2.9</gpxtpx:atemp></gpxtpx:TrackPointExtension></extensions></trkpt><trkpt lat="42.2215306945" lon="13.4151395503"><ele>1595.69</ele><time>2026-03-11T16:23:59Z</time><extensions><gpxtpx:TrackPointExtension><gpxtpx:atemp>2.9</gpxtpx:atemp></gpxtpx:TrackPointExtension></extensions></trkpt><trkpt lat="42.2215303592" lon="13.4151422326"><ele>1595.67</ele><time>2026-03-11T16:24:00Z</time><extensions><gpxtpx:TrackPointExtension><gpxtpx:atemp>2.9</gpxtpx:atemp></gpxtpx:TrackPointExtension></extensions></trkpt><trkpt lat="42.2215298563" lon="13.4151428193"><ele>1595.66</ele><time>2026-03-11T16:24:01Z</time><extensions><gpxtpx:TrackPointExtension><gpxtpx:atemp>2.9</gpxtpx:atemp></gpxtpx:TrackPointExtension></extensions></trkpt><trkpt lat="42.2215300240" lon="13.4151435737"><ele>1595.68</ele><time>2026-03-11T16:24:02Z</time><extensions><gpxtpx:TrackPointExtension><gpxtpx:atemp>2.9</gpxtpx:atemp></gpxtpx:TrackPointExtension></extensions></trkpt><trkpt lat="42.2215292696" lon="13.4151442442"><ele>1595.73</ele><time>2026-03-11T16:24:03Z</time><extensions><gpxtpx:TrackPointExtension><gpxtpx:atemp>2.9</gpxtpx:atemp></gpxtpx:TrackPointExtension></extensions></trkpt><trkpt lat="42.2215294372" lon="13.4151453339"><ele>1595.75</ele><time>2026-03-11T16:24:04Z</time><extensions><gpxtpx:TrackPointExtension><gpxtpx:atemp>2.9</gpxtpx:atemp></gpxtpx:TrackPointExtension></extensions></trkpt><trkpt lat="42.2215289343" lon="13.4151447471"><ele>1595.76</ele><time>2026-03-11T16:24:05Z</time><extensions><gpxtpx:TrackPointExtension><gpxtpx:atemp>2.9</gpxtpx:atemp></gpxtpx:TrackPointExtension></extensions></trkpt><trkpt lat="42.2215282638" lon="13.4151449986"><ele>1595.76</ele><time>2026-03-11T16:24:06Z</time><extensions><gpxtpx:TrackPointExtension><gpxtpx:atemp>2.9</gpxtpx:atemp></gpxtpx:TrackPointExtension></extensions></trkpt><trkpt lat="42.2215289343" lon="13.4151426516"><ele>1595.78</ele><time>2026-03-11T16:24:07Z</time><extensions><gpxtpx:TrackPointExtension><gpxtpx:atemp>2.9</gpxtpx:atemp></gpxtpx:TrackPointExtension></extensions></trkpt><trkpt lat="42.2215296887" lon="13.4151415620"><ele>1595.76</ele><time>2026-03-11T16:24:08Z</time><extensions><gpxtpx:TrackPointExtension><gpxtpx:atemp>2.9</gpxtpx:atemp></gpxtpx:TrackPointExtension></extensions></trkpt><trkpt lat="42.2215294372" lon="13.4151414782"><ele>1595.74</ele><time>2026-03-11T16:24:09Z</time><extensions><gpxtpx:TrackPointExtension><gpxtpx:atemp>2.9</gpxtpx:atemp></gpxtpx:TrackPointExtension></extensions></trkpt><trkpt lat="42.2215293534" lon="13.4151424840"><ele>1595.72</ele><time>2026-03-11T16:24:10Z</time><extensions><gpxtpx:TrackPointExtension><gpxtpx:atemp>2.9</gpxtpx:atemp></gpxtpx:TrackPointExtension></extensions></trkpt><trkpt lat="42.2215295210" lon="13.4151433222"><ele>1595.72</ele><time>2026-03-11T16:24:11Z</time><extensions><gpxtpx:TrackPointExtension><gpxtpx:atemp>2.9</gpxtpx:atemp></gpxtpx:TrackPointExtension></extensions></trkpt><trkpt lat="42.2215288505" lon="13.4151444957"><ele>1595.72</ele><time>2026-03-11T16:24:12Z</time><extensions><gpxtpx:TrackPointExtension><gpxtpx:atemp>2.9</gpxtpx:atemp></gpxtpx:TrackPointExtension></extensions></trkpt><trkpt lat="42.2215285990" lon="13.4151451662"><ele>1595.72</ele><time>2026-03-11T16:24:13Z</time><extensions><gpxtpx:TrackPointExtension><gpxtpx:atemp>2.9</gpxtpx:atemp></gpxtpx:TrackPointExtension></extensions></trkpt><trkpt lat="42.2215279285" lon="13.4151454177"><ele>1595.71</ele><time>2026-03-11T16:24:14Z</time><extensions><gpxtpx:TrackPointExtension><gpxtpx:atemp>2.9</gpxtpx:atemp></gpxtpx:TrackPointExtension></extensions></trkpt><trkpt lat="42.2215269227" lon="13.4151459206"><ele>1595.68</ele><time>2026-03-11T16:24:15Z</time><extensions><gpxtpx:TrackPointExtension><gpxtpx:atemp>2.9</gpxtpx:atemp></gpxtpx:TrackPointExtension></extensions></trkpt><trkpt lat="42.2215269227" lon="13.4151463397"><ele>1595.66</ele><time>2026-03-11T16:24:16Z</time><extensions><gpxtpx:TrackPointExtension><gpxtpx:atemp>2.9</gpxtpx:atemp></gpxtpx:TrackPointExtension></extensions></trkpt><trkpt lat="42.2215273418" lon="13.4151460882"><ele>1595.65</ele><time>2026-03-11T16:24:17Z</time><extensions><gpxtpx:TrackPointExtension><gpxtpx:atemp>2.9</gpxtpx:atemp></gpxtpx:TrackPointExtension></extensions></trkpt><trkpt lat="42.2215281799" lon="13.4151459206"><ele>1595.61</ele><time>2026-03-11T16:24:18Z</time><extensions><gpxtpx:TrackPointExtension><gpxtpx:atemp>2.9</gpxtpx:atemp></gpxtpx:TrackPointExtension></extensions></trkpt><trkpt lat="42.2215277608" lon="13.4151464235"><ele>1595.57</ele><time>2026-03-11T16:24:19Z</time><extensions><gpxtpx:TrackPointExtension><gpxtpx:atemp>2.9</gpxtpx:atemp></gpxtpx:TrackPointExtension></extensions></trkpt><trkpt lat="42.2215278447" lon="13.4151466750"><ele>1595.57</ele><time>2026-03-11T16:24:20Z</time><extensions><gpxtpx:TrackPointExtension><gpxtpx:atemp>2.9</gpxtpx:atemp></gpxtpx:TrackPointExtension></extensions></trkpt><trkpt lat="42.2215275932" lon="13.4151457530"><ele>1595.57</ele><time>2026-03-11T16:24:21Z</time><extensions><gpxtpx:TrackPointExtension><gpxtpx:atemp>2.9</gpxtpx:atemp></gpxtpx:TrackPointExtension></extensions></trkpt><trkpt lat="42.2215269227" lon="13.4151434898"><ele>1595.54</ele><time>2026-03-11T16:24:22Z</time><extensions><gpxtpx:TrackPointExtension><gpxtpx:atemp>2.9</gpxtpx:atemp></gpxtpx:TrackPointExtension></extensions></trkpt><trkpt lat="42.2215270903" lon="13.4151429869"><ele>1595.48</ele><time>2026-03-11T16:24:23Z</time><extensions><gpxtpx:TrackPointExtension><gpxtpx:atemp>2.9</gpxtpx:atemp></gpxtpx:TrackPointExtension></extensions></trkpt><trkpt lat="42.2215274256" lon="13.4151431546"><ele>1595.40</ele><time>2026-03-11T16:24:24Z</time><extensions><gpxtpx:TrackPointExtension><gpxtpx:atemp>2.9</gpxtpx:atemp></gpxtpx:TrackPointExtension></extensions></trkpt><trkpt lat="42.2215275932" lon="13.4151420649"><ele>1595.13</ele><time>2026-03-11T16:24:25Z</time><extensions><gpxtpx:TrackPointExtension><gpxtpx:atemp>2.9</gpxtpx:atemp></gpxtpx:TrackPointExtension></extensions></trkpt><trkpt lat="42.2215257492" lon="13.4151447471"><ele>1595.00</ele><time>2026-03-11T16:24:26Z</time><extensions><gpxtpx:TrackPointExtension><gpxtpx:atemp>2.9</gpxtpx:atemp></gpxtpx:TrackPointExtension></extensions></trkpt><trkpt lat="42.2215256654" lon="13.4151462559"><ele>1594.97</ele><time>2026-03-11T16:24:27Z</time><extensions><gpxtpx:TrackPointExtension><gpxtpx:atemp>2.9</gpxtpx:atemp></gpxtpx:TrackPointExtension></extensions></trkpt><trkpt lat="42.2215258330" lon="13.4151428193"><ele>1595.34</ele><time>2026-03-11T16:24:28Z</time><extensions><gpxtpx:TrackPointExtension><gpxtpx:atemp>2.9</gpxtpx:atemp></gpxtpx:TrackPointExtension></extensions></trkpt><trkpt lat="42.2215264197" lon="13.4151405562"><ele>1595.59</ele><time>2026-03-11T16:24:29Z</time><extensions><gpxtpx:TrackPointExtension><gpxtpx:atemp>2.9</gpxtpx:atemp></gpxtpx:TrackPointExtension></extensions></trkpt><trkpt lat="42.2215258330" lon="13.4151391312"><ele>1595.79</ele><time>2026-03-11T16:24:30Z</time><extensions><gpxtpx:TrackPointExtension><gpxtpx:atemp>2.9</gpxtpx:atemp></gpxtpx:TrackPointExtension></extensions></trkpt><trkpt lat="42.2215280961" lon="13.4151403885"><ele>1595.97</ele><time>2026-03-11T16:24:31Z</time><extensions><gpxtpx:TrackPointExtension><gpxtpx:atemp>2.9</gpxtpx:atemp></gpxtpx:TrackPointExtension></extensions></trkpt><trkpt lat="42.2215277608" lon="13.4151367843"><ele>1596.08</ele><time>2026-03-11T16:24:32Z</time><extensions><gpxtpx:TrackPointExtension><gpxtpx:atemp>2.9</gpxtpx:atemp></gpxtpx:TrackPointExtension></extensions></trkpt><trkpt lat="42.2215283476" lon="13.4151373710"><ele>1596.00</ele><time>2026-03-11T16:24:33Z</time><extensions><gpxtpx:TrackPointExtension><gpxtpx:atemp>2.9</gpxtpx:atemp></gpxtpx:TrackPointExtension></extensions></trkpt><trkpt lat="42.2215281799" lon="13.4151355270"><ele>1595.83</ele><time>2026-03-11T16:24:34Z</time><extensions><gpxtpx:TrackPointExtension><gpxtpx:atemp>3.1</gpxtpx:atemp></gpxtpx:TrackPointExtension></extensions></trkpt><trkpt lat="42.2215270903" lon="13.4151339345"><ele>1595.57</ele><time>2026-03-11T16:24:35Z</time><extensions><gpxtpx:TrackPointExtension><gpxtpx:atemp>3.1</gpxtpx:atemp></gpxtpx:TrackPointExtension></extensions></trkpt><trkpt lat="42.2215281799" lon="13.4151338506"><ele>1595.47</ele><time>2026-03-11T16:24:36Z</time><extensions><gpxtpx:TrackPointExtension><gpxtpx:atemp>3.1</gpxtpx:atemp></gpxtpx:TrackPointExtension></extensions></trkpt><trkpt lat="42.2215289343" lon="13.4151360299"><ele>1595.38</ele><time>2026-03-11T16:24:37Z</time><extensions><gpxtpx:TrackPointExtension><gpxtpx:atemp>3.1</gpxtpx:atemp></gpxtpx:TrackPointExtension></extensions></trkpt><trkpt lat="42.2215282638" lon="13.4151347727"><ele>1595.35</ele><time>2026-03-11T16:24:38Z</time><extensions><gpxtpx:TrackPointExtension><gpxtpx:atemp>3.1</gpxtpx:atemp></gpxtpx:TrackPointExtension></extensions></trkpt><trkpt lat="42.2215282638" lon="13.4151340183"><ele>1595.31</ele><time>2026-03-11T16:24:39Z</time><extensions><gpxtpx:TrackPointExtension><gpxtpx:atemp>3.1</gpxtpx:atemp></gpxtpx:TrackPointExtension></extensions></trkpt><trkpt lat="42.2215288505" lon="13.4151330963"><ele>1595.24</ele><time>2026-03-11T16:24:40Z</time><extensions><gpxtpx:TrackPointExtension><gpxtpx:atemp>3.1</gpxtpx:atemp></gpxtpx:TrackPointExtension></extensions></trkpt><trkpt lat="42.2215290181" lon="13.4151317552"><ele>1595.10</ele><time>2026-03-11T16:24:41Z</time><extensions><gpxtpx:TrackPointExtension><gpxtpx:atemp>3.1</gpxtpx:atemp></gpxtpx:TrackPointExtension></extensions></trkpt><trkpt lat="42.2215299401" lon="13.4151304979"><ele>1594.96</ele><time>2026-03-11T16:24:42Z</time><extensions><gpxtpx:TrackPointExtension><gpxtpx:atemp>3.1</gpxtpx:atemp></gpxtpx:TrackPointExtension></extensions></trkpt><trkpt lat="42.2215312812" lon="13.4151301626"><ele>1594.84</ele><time>2026-03-11T16:24:43Z</time><extensions><gpxtpx:TrackPointExtension><gpxtpx:atemp>3.1</gpxtpx:atemp></gpxtpx:TrackPointExtension></extensions></trkpt><trkpt lat="42.2215313651" lon="13.4151295759"><ele>1594.76</ele><time>2026-03-11T16:24:44Z</time><extensions><gpxtpx:TrackPointExtension><gpxtpx:atemp>3.1</gpxtpx:atemp></gpxtpx:TrackPointExtension></extensions></trkpt><trkpt lat="42.2215324547" lon="13.4151289891"><ele>1594.69</ele><time>2026-03-11T16:24:45Z</time><extensions><gpxtpx:TrackPointExtension><gpxtpx:atemp>3.1</gpxtpx:atemp></gpxtpx:TrackPointExtension></extensions></trkpt><trkpt lat="42.2215333767" lon="13.4151286539"><ele>1594.59</ele><time>2026-03-11T16:24:46Z</time><extensions><gpxtpx:TrackPointExtension><gpxtpx:atemp>3.1</gpxtpx:atemp></gpxtpx:TrackPointExtension></extensions></trkpt><trkpt lat="42.2215340473" lon="13.4151281510"><ele>1594.55</ele><time>2026-03-11T16:24:47Z</time><extensions><gpxtpx:TrackPointExtension><gpxtpx:atemp>3.1</gpxtpx:atemp></gpxtpx:TrackPointExtension></extensions></trkpt><trkpt lat="42.2215349693" lon="13.4151277319"><ele>1594.51</ele><time>2026-03-11T16:24:48Z</time><extensions><gpxtpx:TrackPointExtension><gpxtpx:atemp>3.1</gpxtpx:atemp></gpxtpx:TrackPointExtension></extensions></trkpt><trkpt lat="42.2215358913" lon="13.4151274804"><ele>1594.48</ele><time>2026-03-11T16:24:49Z</time><extensions><gpxtpx:TrackPointExtension><gpxtpx:atemp>3.1</gpxtpx:atemp></gpxtpx:TrackPointExtension></extensions></trkpt><trkpt lat="42.2215356398" lon="13.4151274804"><ele>1594.46</ele><time>2026-03-11T16:24:50Z</time><extensions><gpxtpx:TrackPointExtension><gpxtpx:atemp>3.1</gpxtpx:atemp></gpxtpx:TrackPointExtension></extensions></trkpt><trkpt lat="42.2215359751" lon="13.4151267260"><ele>1594.44</ele><time>2026-03-11T16:24:51Z</time><extensions><gpxtpx:TrackPointExtension><gpxtpx:atemp>3.1</gpxtpx:atemp></gpxtpx:TrackPointExtension></extensions></trkpt><trkpt lat="42.2215369809" lon="13.4151266422"><ele>1594.44</ele><time>2026-03-11T16:24:52Z</time><extensions><gpxtpx:TrackPointExtension><gpxtpx:atemp>3.1</gpxtpx:atemp></gpxtpx:TrackPointExtension></extensions></trkpt><trkpt lat="42.2215370648" lon="13.4151265584"><ele>1594.44</ele><time>2026-03-11T16:24:53Z</time><extensions><gpxtpx:TrackPointExtension><gpxtpx:atemp>3.1</gpxtpx:atemp></gpxtpx:TrackPointExtension></extensions></trkpt><trkpt lat="42.2215379868" lon="13.4151263908"><ele>1594.46</ele><time>2026-03-11T16:24:54Z</time><extensions><gpxtpx:TrackPointExtension><gpxtpx:atemp>3.1</gpxtpx:atemp></gpxtpx:TrackPointExtension></extensions></trkpt><trkpt lat="42.2215383220" lon="13.4151262231"><ele>1594.47</ele><time>2026-03-11T16:24:55Z</time><extensions><gpxtpx:TrackPointExtension><gpxtpx:atemp>3.1</gpxtpx:atemp></gpxtpx:TrackPointExtension></extensions></trkpt><trkpt lat="42.2215384897" lon="13.4151257202"><ele>1594.50</ele><time>2026-03-11T16:24:56Z</time><extensions><gpxtpx:TrackPointExtension><gpxtpx:atemp>3.1</gpxtpx:atemp></gpxtpx:TrackPointExtension></extensions></trkpt><trkpt lat="42.2215390764" lon="13.4151257202"><ele>1594.52</ele><time>2026-03-11T16:24:57Z</time><extensions><gpxtpx:TrackPointExtension><gpxtpx:atemp>3.1</gpxtpx:atemp></gpxtpx:TrackPointExtension></extensions></trkpt><trkpt lat="42.2215397470" lon="13.4151255526"><ele>1594.61</ele><time>2026-03-11T16:24:58Z</time><extensions><gpxtpx:TrackPointExtension><gpxtpx:atemp>3.1</gpxtpx:atemp></gpxtpx:TrackPointExtension></extensions></trkpt><trkpt lat="42.2215400822" lon="13.4151256364"><ele>1594.64</ele><time>2026-03-11T16:24:59Z</time><extensions><gpxtpx:TrackPointExtension><gpxtpx:atemp>3.1</gpxtpx:atemp></gpxtpx:TrackPointExtension></extensions></trkpt><trkpt lat="42.2215406690" lon="13.4151256364"><ele>1594.69</ele><time>2026-03-11T16:25:00Z</time><extensions><gpxtpx:TrackPointExtension><gpxtpx:atemp>3.1</gpxtpx:atemp></gpxtpx:TrackPointExtension></extensions></trkpt><trkpt lat="42.2215406690" lon="13.4151255526"><ele>1594.72</ele><time>2026-03-11T16:25:01Z</time><extensions><gpxtpx:TrackPointExtension><gpxtpx:atemp>3.1</gpxtpx:atemp></gpxtpx:TrackPointExtension></extensions></trkpt><trkpt lat="42.2215410881" lon="13.4151254687"><ele>1594.75</ele><time>2026-03-11T16:25:02Z</time><extensions><gpxtpx:TrackPointExtension><gpxtpx:atemp>3.1</gpxtpx:atemp></gpxtpx:TrackPointExtension></extensions></trkpt><trkpt lat="42.2215415910" lon="13.4151254687"><ele>1594.76</ele><time>2026-03-11T16:25:03Z</time><extensions><gpxtpx:TrackPointExtension><gpxtpx:atemp>3.1</gpxtpx:atemp></gpxtpx:TrackPointExtension></extensions></trkpt><trkpt lat="42.2215418424" lon="13.4151252173"><ele>1594.77</ele><time>2026-03-11T16:25:04Z</time><extensions><gpxtpx:TrackPointExtension><gpxtpx:atemp>3.1</gpxtpx:atemp></gpxtpx:TrackPointExtension></extensions></trkpt><trkpt lat="42.2215412557" lon="13.4151252173"><ele>1594.78</ele><time>2026-03-11T16:25:05Z</time><extensions><gpxtpx:TrackPointExtension><gpxtpx:atemp>3.1</gpxtpx:atemp></gpxtpx:TrackPointExtension></extensions></trkpt><trkpt lat="42.2215406690" lon="13.4151253849"><ele>1594.82</ele><time>2026-03-11T16:25:06Z</time><extensions><gpxtpx:TrackPointExtension><gpxtpx:atemp>3.1</gpxtpx:atemp></gpxtpx:TrackPointExtension></extensions></trkpt><trkpt lat="42.2215406690" lon="13.4151253849"><ele>1594.86</ele><time>2026-03-11T16:25:07Z</time><extensions><gpxtpx:TrackPointExtension><gpxtpx:atemp>3.1</gpxtpx:atemp></gpxtpx:TrackPointExtension></extensions></trkpt><trkpt lat="42.2215403337" lon="13.4151252173"><ele>1594.88</ele><time>2026-03-11T16:25:08Z</time><extensions><gpxtpx:TrackPointExtension><gpxtpx:atemp>3.1</gpxtpx:atemp></gpxtpx:TrackPointExtension></extensions></trkpt><trkpt lat="42.2215407528" lon="13.4151251335"><ele>1594.89</ele><time>2026-03-11T16:25:09Z</time><extensions><gpxtpx:TrackPointExtension><gpxtpx:atemp>3.1</gpxtpx:atemp></gpxtpx:TrackPointExtension></extensions></trkpt><trkpt lat="42.2215409204" lon="13.4151249658"><ele>1594.88</ele><time>2026-03-11T16:25:10Z</time><extensions><gpxtpx:TrackPointExtension><gpxtpx:atemp>3.1</gpxtpx:atemp></gpxtpx:TrackPointExtension></extensions></trkpt><trkpt lat="42.2215412557" lon="13.4151248820"><ele>1594.87</ele><time>2026-03-11T16:25:11Z</time><extensions><gpxtpx:TrackPointExtension><gpxtpx:atemp>3.1</gpxtpx:atemp></gpxtpx:TrackPointExtension></extensions></trkpt><trkpt lat="42.2215413395" lon="13.4151247982"><ele>1594.85</ele><time>2026-03-11T16:25:12Z</time><extensions><gpxtpx:TrackPointExtension><gpxtpx:atemp>3.1</gpxtpx:atemp></gpxtpx:TrackPointExtension></extensions></trkpt><trkpt lat="42.2215417586" lon="13.4151246306"><ele>1594.84</ele><time>2026-03-11T16:25:13Z</time><extensions><gpxtpx:TrackPointExtension><gpxtpx:atemp>3.1</gpxtpx:atemp></gpxtpx:TrackPointExtension></extensions></trkpt><trkpt lat="42.2215420939" lon="13.4151243791"><ele>1594.84</ele><time>2026-03-11T16:25:14Z</time><extensions><gpxtpx:TrackPointExtension><gpxtpx:atemp>3.1</gpxtpx:atemp></gpxtpx:TrackPointExtension></extensions></trkpt><trkpt lat="42.2215417586" lon="13.4151244629"><ele>1594.84</ele><time>2026-03-11T16:25:15Z</time><extensions><gpxtpx:TrackPointExtension><gpxtpx:atemp>3.1</gpxtpx:atemp></gpxtpx:TrackPointExtension></extensions></trkpt><trkpt lat="42.2215415910" lon="13.4151242953"><ele>1594.85</ele><time>2026-03-11T16:25:16Z</time><extensions><gpxtpx:TrackPointExtension><gpxtpx:atemp>3.1</gpxtpx:atemp></gpxtpx:TrackPointExtension></extensions></trkpt><trkpt lat="42.2215412557" lon="13.4151242953"><ele>1594.87</ele><time>2026-03-11T16:25:17Z</time><extensions><gpxtpx:TrackPointExtension><gpxtpx:atemp>3.1</gpxtpx:atemp></gpxtpx:TrackPointExtension></extensions></trkpt><trkpt lat="42.2215415910" lon="13.4151240438"><ele>1594.88</ele><time>2026-03-11T16:25:18Z</time><extensions><gpxtpx:TrackPointExtension><gpxtpx:atemp>3.1</gpxtpx:atemp></gpxtpx:TrackPointExtension></extensions></trkpt><trkpt lat="42.2215415910" lon="13.4151240438"><ele>1594.89</ele><time>2026-03-11T16:25:19Z</time><extensions><gpxtpx:TrackPointExtension><gpxtpx:atemp>3.1</gpxtpx:atemp></gpxtpx:TrackPointExtension></extensions></trkpt><trkpt lat="42.2215415910" lon="13.4151238762"><ele>1594.89</ele><time>2026-03-11T16:25:20Z</time><extensions><gpxtpx:TrackPointExtension><gpxtpx:atemp>3.1</gpxtpx:atemp></gpxtpx:TrackPointExtension></extensions></trkpt><trkpt lat="42.2215418424" lon="13.4151238762"><ele>1594.89</ele><time>2026-03-11T16:25:21Z</time><extensions><gpxtpx:TrackPointExtension><gpxtpx:atemp>3.1</gpxtpx:atemp></gpxtpx:TrackPointExtension></extensions></trkpt><trkpt lat="42.2215420939" lon="13.4151238762"><ele>1594.89</ele><time>2026-03-11T16:25:22Z</time><extensions><gpxtpx:TrackPointExtension><gpxtpx:atemp>3.1</gpxtpx:atemp></gpxtpx:TrackPointExtension></extensions></trkpt><trkpt lat="42.2215422615" lon="13.4151237924"><ele>1594.89</ele><time>2026-03-11T16:25:23Z</time><extensions><gpxtpx:TrackPointExtension><gpxtpx:atemp>3.1</gpxtpx:atemp></gpxtpx:TrackPointExtension></extensions></trkpt><trkpt lat="42.2215421777" lon="13.4151235409"><ele>1594.91</ele><time>2026-03-11T16:25:24Z</time><extensions><gpxtpx:TrackPointExtension><gpxtpx:atemp>3.1</gpxtpx:atemp></gpxtpx:TrackPointExtension></extensions></trkpt><trkpt lat="42.2215420939" lon="13.4151233733"><ele>1594.96</ele><time>2026-03-11T16:25:25Z</time><extensions><gpxtpx:TrackPointExtension><gpxtpx:atemp>3.1</gpxtpx:atemp></gpxtpx:TrackPointExtension></extensions></trkpt><trkpt lat="42.2215416748" lon="13.4151233733"><ele>1594.97</ele><time>2026-03-11T16:25:26Z</time><extensions><gpxtpx:TrackPointExtension><gpxtpx:atemp>3.1</gpxtpx:atemp></gpxtpx:TrackPointExtension></extensions></trkpt><trkpt lat="42.2215418424" lon="13.4151232895"><ele>1595.01</ele><time>2026-03-11T16:25:27Z</time><extensions><gpxtpx:TrackPointExtension><gpxtpx:atemp>3.1</gpxtpx:atemp></gpxtpx:TrackPointExtension></extensions></trkpt><trkpt lat="42.2215422615" lon="13.4151230380"><ele>1595.06</ele><time>2026-03-11T16:25:28Z</time><extensions><gpxtpx:TrackPointExtension><gpxtpx:atemp>3.1</gpxtpx:atemp></gpxtpx:TrackPointExtension></extensions></trkpt><trkpt lat="42.2215418424" lon="13.4151229542"><ele>1595.08</ele><time>2026-03-11T16:25:29Z</time><extensions><gpxtpx:TrackPointExtension><gpxtpx:atemp>3.1</gpxtpx:atemp></gpxtpx:TrackPointExtension></extensions></trkpt><trkpt lat="42.2215420939" lon="13.4151229542"><ele>1595.10</ele><time>2026-03-11T16:25:30Z</time><extensions><gpxtpx:TrackPointExtension><gpxtpx:atemp>3.1</gpxtpx:atemp></gpxtpx:TrackPointExtension></extensions></trkpt><trkpt lat="42.2215418424" lon="13.4151231218"><ele>1595.10</ele><time>2026-03-11T16:25:31Z</time><extensions><gpxtpx:TrackPointExtension><gpxtpx:atemp>3.1</gpxtpx:atemp></gpxtpx:TrackPointExtension></extensions></trkpt><trkpt lat="42.2215416748" lon="13.4151229542"><ele>1595.13</ele><time>2026-03-11T16:25:32Z</time><extensions><gpxtpx:TrackPointExtension><gpxtpx:atemp>3.1</gpxtpx:atemp></gpxtpx:TrackPointExtension></extensions></trkpt><trkpt lat="42.2215418424" lon="13.4151227865"><ele>1595.20</ele><time>2026-03-11T16:25:33Z</time><extensions><gpxtpx:TrackPointExtension><gpxtpx:atemp>3.1</gpxtpx:atemp></gpxtpx:TrackPointExtension></extensions></trkpt><trkpt lat="42.2215416748" lon="13.4151226189"><ele>1595.21</ele><time>2026-03-11T16:25:34Z</time><extensions><gpxtpx:TrackPointExtension><gpxtpx:atemp>2.7</gpxtpx:atemp></gpxtpx:TrackPointExtension></extensions></trkpt><trkpt lat="42.2215418424" lon="13.4151224513"><ele>1595.21</ele><time>2026-03-11T16:25:35Z</time><extensions><gpxtpx:TrackPointExtension><gpxtpx:atemp>2.7</gpxtpx:atemp></gpxtpx:TrackPointExtension></extensions></trkpt><trkpt lat="42.2215416748" lon="13.4151224513"><ele>1595.21</ele><time>2026-03-11T16:25:36Z</time><extensions><gpxtpx:TrackPointExtension><gpxtpx:atemp>2.7</gpxtpx:atemp></gpxtpx:TrackPointExtension></extensions></trkpt><trkpt lat="42.2215415910" lon="13.4151223674"><ele>1595.20</ele><time>2026-03-11T16:25:37Z</time><extensions><gpxtpx:TrackPointExtension><gpxtpx:atemp>2.7</gpxtpx:atemp></gpxtpx:TrackPointExtension></extensions></trkpt><trkpt lat="42.2215414234" lon="13.4151224513"><ele>1595.17</ele><time>2026-03-11T16:25:38Z</time><extensions><gpxtpx:TrackPointExtension><gpxtpx:atemp>2.7</gpxtpx:atemp></gpxtpx:TrackPointExtension></extensions></trkpt><trkpt lat="42.2215413395" lon="13.4151223674"><ele>1595.13</ele><time>2026-03-11T16:25:39Z</time><extensions><gpxtpx:TrackPointExtension><gpxtpx:atemp>2.7</gpxtpx:atemp></gpxtpx:TrackPointExtension></extensions></trkpt><trkpt lat="42.2215410881" lon="13.4151222836"><ele>1595.09</ele><time>2026-03-11T16:25:40Z</time><extensions><gpxtpx:TrackPointExtension><gpxtpx:atemp>2.7</gpxtpx:atemp></gpxtpx:TrackPointExtension></extensions></trkpt><trkpt lat="42.2215406690" lon="13.4151224513"><ele>1595.05</ele><time>2026-03-11T16:25:41Z</time><extensions><gpxtpx:TrackPointExtension><gpxtpx:atemp>2.7</gpxtpx:atemp></gpxtpx:TrackPointExtension></extensions></trkpt><trkpt lat="42.2215408366" lon="13.4151223674"><ele>1595.01</ele><time>2026-03-11T16:25:42Z</time><extensions><gpxtpx:TrackPointExtension><gpxtpx:atemp>2.7</gpxtpx:atemp></gpxtpx:TrackPointExtension></extensions></trkpt><trkpt lat="42.2215405852" lon="13.4151224513"><ele>1594.99</ele><time>2026-03-11T16:25:43Z</time><extensions><gpxtpx:TrackPointExtension><gpxtpx:atemp>2.7</gpxtpx:atemp></gpxtpx:TrackPointExtension></extensions></trkpt><trkpt lat="42.2215402499" lon="13.4151224513"><ele>1594.96</ele><time>2026-03-11T16:25:44Z</time><extensions><gpxtpx:TrackPointExtension><gpxtpx:atemp>2.7</gpxtpx:atemp></gpxtpx:TrackPointExtension></extensions></trkpt><trkpt lat="42.2215399984" lon="13.4151224513"><ele>1594.96</ele><time>2026-03-11T16:25:45Z</time><extensions><gpxtpx:TrackPointExtension><gpxtpx:atemp>2.7</gpxtpx:atemp></gpxtpx:TrackPointExtension></extensions></trkpt><trkpt lat="42.2215398308" lon="13.4151224513"><ele>1594.97</ele><time>2026-03-11T16:25:46Z</time><extensions><gpxtpx:TrackPointExtension><gpxtpx:atemp>2.7</gpxtpx:atemp></gpxtpx:TrackPointExtension></extensions></trkpt><trkpt lat="42.2215397470" lon="13.4151223674"><ele>1594.97</ele><time>2026-03-11T16:25:47Z</time><extensions><gpxtpx:TrackPointExtension><gpxtpx:atemp>2.7</gpxtpx:atemp></gpxtpx:TrackPointExtension></extensions></trkpt><trkpt lat="42.2215394955" lon="13.4151223674"><ele>1594.98</ele><time>2026-03-11T16:25:48Z</time><extensions><gpxtpx:TrackPointExtension><gpxtpx:atemp>2.7</gpxtpx:atemp></gpxtpx:TrackPointExtension></extensions></trkpt><trkpt lat="42.2215387411" lon="13.4151227865"><ele>1594.99</ele><time>2026-03-11T16:25:49Z</time><extensions><gpxtpx:TrackPointExtension><gpxtpx:atemp>2.7</gpxtpx:atemp></gpxtpx:TrackPointExtension></extensions></trkpt><trkpt lat="42.2215387411" lon="13.4151226189"><ele>1595.01</ele><time>2026-03-11T16:25:50Z</time><extensions><gpxtpx:TrackPointExtension><gpxtpx:atemp>2.7</gpxtpx:atemp></gpxtpx:TrackPointExtension></extensions></trkpt><trkpt lat="42.2215387411" lon="13.4151225351"><ele>1595.02</ele><time>2026-03-11T16:25:51Z</time><extensions><gpxtpx:TrackPointExtension><gpxtpx:atemp>2.7</gpxtpx:atemp></gpxtpx:TrackPointExtension></extensions></trkpt><trkpt lat="42.2215387411" lon="13.4151225351"><ele>1595.03</ele><time>2026-03-11T16:25:52Z</time><extensions><gpxtpx:TrackPointExtension><gpxtpx:atemp>2.7</gpxtpx:atemp></gpxtpx:TrackPointExtension></extensions></trkpt><trkpt lat="42.2215389926" lon="13.4151224513"><ele>1595.03</ele><time>2026-03-11T16:25:53Z</time><extensions><gpxtpx:TrackPointExtension><gpxtpx:atemp>2.7</gpxtpx:atemp></gpxtpx:TrackPointExtension></extensions></trkpt><trkpt lat="42.2215389926" lon="13.4151224513"><ele>1595.04</ele><time>2026-03-11T16:25:54Z</time><extensions><gpxtpx:TrackPointExtension><gpxtpx:atemp>2.7</gpxtpx:atemp></gpxtpx:TrackPointExtension></extensions></trkpt><trkpt lat="42.2215392441" lon="13.4151222836"><ele>1595.08</ele><time>2026-03-11T16:25:55Z</time><extensions><gpxtpx:TrackPointExtension><gpxtpx:atemp>2.7</gpxtpx:atemp></gpxtpx:TrackPointExtension></extensions></trkpt><trkpt lat="42.2215391602" lon="13.4151224513"><ele>1595.16</ele><time>2026-03-11T16:25:56Z</time><extensions><gpxtpx:TrackPointExtension><gpxtpx:atemp>2.7</gpxtpx:atemp></gpxtpx:TrackPointExtension></extensions></trkpt><trkpt lat="42.2215393279" lon="13.4151221998"><ele>1595.21</ele><time>2026-03-11T16:25:57Z</time><extensions><gpxtpx:TrackPointExtension><gpxtpx:atemp>2.7</gpxtpx:atemp></gpxtpx:TrackPointExtension></extensions></trkpt><trkpt lat="42.2215395793" lon="13.4151221998"><ele>1595.24</ele><time>2026-03-11T16:25:58Z</time><extensions><gpxtpx:TrackPointExtension><gpxtpx:atemp>2.7</gpxtpx:atemp></gpxtpx:TrackPointExtension></extensions></trkpt><trkpt lat="42.2215394955" lon="13.4151221998"><ele>1595.26</ele><time>2026-03-11T16:25:59Z</time><extensions><gpxtpx:TrackPointExtension><gpxtpx:atemp>2.7</gpxtpx:atemp></gpxtpx:TrackPointExtension></extensions></trkpt><trkpt lat="42.2215391602" lon="13.4151221998"><ele>1595.27</ele><time>2026-03-11T16:26:00Z</time><extensions><gpxtpx:TrackPointExtension><gpxtpx:atemp>2.7</gpxtpx:atemp></gpxtpx:TrackPointExtension></extensions></trkpt><trkpt lat="42.2215394955" lon="13.4151220322"><ele>1595.28</ele><time>2026-03-11T16:26:01Z</time><extensions><gpxtpx:TrackPointExtension><gpxtpx:atemp>2.7</gpxtpx:atemp></gpxtpx:TrackPointExtension></extensions></trkpt><trkpt lat="42.2215394955" lon="13.4151221998"><ele>1595.29</ele><time>2026-03-11T16:26:02Z</time><extensions><gpxtpx:TrackPointExtension><gpxtpx:atemp>2.7</gpxtpx:atemp></gpxtpx:TrackPointExtension></extensions></trkpt><trkpt lat="42.2215393279" lon="13.4151220322"><ele>1595.29</ele><time>2026-03-11T16:26:03Z</time><extensions><gpxtpx:TrackPointExtension><gpxtpx:atemp>2.7</gpxtpx:atemp></gpxtpx:TrackPointExtension></extensions></trkpt><trkpt lat="42.2215396632" lon="13.4151218645"><ele>1595.29</ele><time>2026-03-11T16:26:04Z</time><extensions><gpxtpx:TrackPointExtension><gpxtpx:atemp>2.7</gpxtpx:atemp></gpxtpx:TrackPointExtension></extensions></trkpt><trkpt lat="42.2215396632" lon="13.4151218645"><ele>1595.29</ele><time>2026-03-11T16:26:05Z</time><extensions><gpxtpx:TrackPointExtension><gpxtpx:atemp>2.7</gpxtpx:atemp></gpxtpx:TrackPointExtension></extensions></trkpt><trkpt lat="42.2215398308" lon="13.4151219483"><ele>1595.27</ele><time>2026-03-11T16:26:06Z</time><extensions><gpxtpx:TrackPointExtension><gpxtpx:atemp>2.7</gpxtpx:atemp></gpxtpx:TrackPointExtension></extensions></trkpt><trkpt lat="42.2215396632" lon="13.4151219483"><ele>1595.24</ele><time>2026-03-11T16:26:07Z</time><extensions><gpxtpx:TrackPointExtension><gpxtpx:atemp>2.7</gpxtpx:atemp></gpxtpx:TrackPointExtension></extensions></trkpt><trkpt lat="42.2215399984" lon="13.4151219483"><ele>1595.24</ele><time>2026-03-11T16:26:08Z</time><extensions><gpxtpx:TrackPointExtension><gpxtpx:atemp>2.7</gpxtpx:atemp></gpxtpx:TrackPointExtension></extensions></trkpt><trkpt lat="42.2215402499" lon="13.4151217807"><ele>1595.24</ele><time>2026-03-11T16:26:09Z</time><extensions><gpxtpx:TrackPointExtension><gpxtpx:atemp>2.7</gpxtpx:atemp></gpxtpx:TrackPointExtension></extensions></trkpt><trkpt lat="42.2215405852" lon="13.4151216969"><ele>1595.24</ele><time>2026-03-11T16:26:10Z</time><extensions><gpxtpx:TrackPointExtension><gpxtpx:atemp>2.7</gpxtpx:atemp></gpxtpx:TrackPointExtension></extensions></trkpt><trkpt lat="42.2215406690" lon="13.4151216969"><ele>1595.24</ele><time>2026-03-11T16:26:11Z</time><extensions><gpxtpx:TrackPointExtension><gpxtpx:atemp>2.7</gpxtpx:atemp></gpxtpx:TrackPointExtension></extensions></trkpt><trkpt lat="42.2215408366" lon="13.4151216969"><ele>1595.27</ele><time>2026-03-11T16:26:12Z</time><extensions><gpxtpx:TrackPointExtension><gpxtpx:atemp>2.7</gpxtpx:atemp></gpxtpx:TrackPointExtension></extensions></trkpt><trkpt lat="42.2215407528" lon="13.4151216969"><ele>1595.30</ele><time>2026-03-11T16:26:13Z</time><extensions><gpxtpx:TrackPointExtension><gpxtpx:atemp>2.7</gpxtpx:atemp></gpxtpx:TrackPointExtension></extensions></trkpt><trkpt lat="42.2215408366" lon="13.4151215293"><ele>1595.32</ele><time>2026-03-11T16:26:14Z</time><extensions><gpxtpx:TrackPointExtension><gpxtpx:atemp>2.7</gpxtpx:atemp></gpxtpx:TrackPointExtension></extensions></trkpt><trkpt lat="42.2215407528" lon="13.4151214454"><ele>1595.34</ele><time>2026-03-11T16:26:15Z</time><extensions><gpxtpx:TrackPointExtension><gpxtpx:atemp>2.7</gpxtpx:atemp></gpxtpx:TrackPointExtension></extensions></trkpt><trkpt lat="42.2215406690" lon="13.4151214454"><ele>1595.36</ele><time>2026-03-11T16:26:16Z</time><extensions><gpxtpx:TrackPointExtension><gpxtpx:atemp>2.7</gpxtpx:atemp></gpxtpx:TrackPointExtension></extensions></trkpt><trkpt lat="42.2215407528" lon="13.4151212778"><ele>1595.37</ele><time>2026-03-11T16:26:17Z</time><extensions><gpxtpx:TrackPointExtension><gpxtpx:atemp>2.7</gpxtpx:atemp></gpxtpx:TrackPointExtension></extensions></trkpt><trkpt lat="42.2215406690" lon="13.4151213616"><ele>1595.38</ele><time>2026-03-11T16:26:18Z</time><extensions><gpxtpx:TrackPointExtension><gpxtpx:atemp>2.7</gpxtpx:atemp></gpxtpx:TrackPointExtension></extensions></trkpt><trkpt lat="42.2215406690" lon="13.4151212778"><ele>1595.39</ele><time>2026-03-11T16:26:19Z</time><extensions><gpxtpx:TrackPointExtension><gpxtpx:atemp>2.7</gpxtpx:atemp></gpxtpx:TrackPointExtension></extensions></trkpt><trkpt lat="42.2215406690" lon="13.4151212778"><ele>1595.39</ele><time>2026-03-11T16:26:20Z</time><extensions><gpxtpx:TrackPointExtension><gpxtpx:atemp>2.7</gpxtpx:atemp></gpxtpx:TrackPointExtension></extensions></trkpt><trkpt lat="42.2215412557" lon="13.4151221998"><ele>1595.39</ele><time>2026-03-11T16:26:21Z</time><extensions><gpxtpx:TrackPointExtension><gpxtpx:atemp>2.7</gpxtpx:atemp></gpxtpx:TrackPointExtension></extensions></trkpt><trkpt lat="42.2215407528" lon="13.4151223674"><ele>1595.39</ele><time>2026-03-11T16:26:22Z</time><extensions><gpxtpx:TrackPointExtension><gpxtpx:atemp>2.7</gpxtpx:atemp></gpxtpx:TrackPointExtension></extensions></trkpt><trkpt lat="42.2215402499" lon="13.4151226189"><ele>1595.38</ele><time>2026-03-11T16:26:23Z</time><extensions><gpxtpx:TrackPointExtension><gpxtpx:atemp>2.7</gpxtpx:atemp></gpxtpx:TrackPointExtension></extensions></trkpt><trkpt lat="42.2215400822" lon="13.4151228704"><ele>1595.38</ele><time>2026-03-11T16:26:24Z</time><extensions><gpxtpx:TrackPointExtension><gpxtpx:atemp>2.7</gpxtpx:atemp></gpxtpx:TrackPointExtension></extensions></trkpt><trkpt lat="42.2215397470" lon="13.4151230380"><ele>1595.37</ele><time>2026-03-11T16:26:25Z</time><extensions><gpxtpx:TrackPointExtension><gpxtpx:atemp>2.7</gpxtpx:atemp></gpxtpx:TrackPointExtension></extensions></trkpt><trkpt lat="42.2215393279" lon="13.4151231218"><ele>1595.36</ele><time>2026-03-11T16:26:26Z</time><extensions><gpxtpx:TrackPointExtension><gpxtpx:atemp>2.7</gpxtpx:atemp></gpxtpx:TrackPointExtension></extensions></trkpt><trkpt lat="42.2215390764" lon="13.4151233733"><ele>1595.36</ele><time>2026-03-11T16:26:27Z</time><extensions><gpxtpx:TrackPointExtension><gpxtpx:atemp>2.7</gpxtpx:atemp></gpxtpx:TrackPointExtension></extensions></trkpt><trkpt lat="42.2215389926" lon="13.4151235409"><ele>1595.36</ele><time>2026-03-11T16:26:28Z</time><extensions><gpxtpx:TrackPointExtension><gpxtpx:atemp>2.7</gpxtpx:atemp></gpxtpx:TrackPointExtension></extensions></trkpt><trkpt lat="42.2215385735" lon="13.4151235409"><ele>1595.38</ele><time>2026-03-11T16:26:29Z</time><extensions><gpxtpx:TrackPointExtension><gpxtpx:atemp>2.7</gpxtpx:atemp></gpxtpx:TrackPointExtension></extensions></trkpt><trkpt lat="42.2215384897" lon="13.4151236247"><ele>1595.42</ele><time>2026-03-11T16:26:30Z</time><extensions><gpxtpx:TrackPointExtension><gpxtpx:atemp>2.7</gpxtpx:atemp></gpxtpx:TrackPointExtension></extensions></trkpt><trkpt lat="42.2215383220" lon="13.4151236247"><ele>1595.44</ele><time>2026-03-11T16:26:31Z</time><extensions><gpxtpx:TrackPointExtension><gpxtpx:atemp>2.7</gpxtpx:atemp></gpxtpx:TrackPointExtension></extensions></trkpt><trkpt lat="42.2215384897" lon="13.4151237924"><ele>1595.45</ele><time>2026-03-11T16:26:32Z</time><extensions><gpxtpx:TrackPointExtension><gpxtpx:atemp>2.8</gpxtpx:atemp></gpxtpx:TrackPointExtension></extensions></trkpt><trkpt lat="42.2215382382" lon="13.4151237924"><ele>1595.47</ele><time>2026-03-11T16:26:33Z</time><extensions><gpxtpx:TrackPointExtension><gpxtpx:atemp>2.8</gpxtpx:atemp></gpxtpx:TrackPointExtension></extensions></trkpt><trkpt lat="42.2215383220" lon="13.4151237924"><ele>1595.51</ele><time>2026-03-11T16:26:34Z</time><extensions><gpxtpx:TrackPointExtension><gpxtpx:atemp>2.8</gpxtpx:atemp></gpxtpx:TrackPointExtension></extensions></trkpt><trkpt lat="42.2215378191" lon="13.4151211940"><ele>1595.52</ele><time>2026-03-11T16:26:35Z</time><extensions><gpxtpx:TrackPointExtension><gpxtpx:atemp>2.8</gpxtpx:atemp></gpxtpx:TrackPointExtension></extensions></trkpt><trkpt lat="42.2215390764" lon="13.4151240438"><ele>1595.53</ele><time>2026-03-11T16:26:36Z</time><extensions><gpxtpx:TrackPointExtension><gpxtpx:atemp>2.8</gpxtpx:atemp></gpxtpx:TrackPointExtension></extensions></trkpt><trkpt lat="42.2215393279" lon="13.4151247982"><ele>1595.52</ele><time>2026-03-11T16:26:37Z</time><extensions><gpxtpx:TrackPointExtension><gpxtpx:atemp>2.8</gpxtpx:atemp></gpxtpx:TrackPointExtension></extensions></trkpt><trkpt lat="42.2215389926" lon="13.4151232895"><ele>1595.44</ele><time>2026-03-11T16:26:38Z</time><extensions><gpxtpx:TrackPointExtension><gpxtpx:atemp>2.8</gpxtpx:atemp></gpxtpx:TrackPointExtension></extensions></trkpt><trkpt lat="42.2215386573" lon="13.4151260555"><ele>1595.24</ele><time>2026-03-11T16:26:39Z</time><extensions><gpxtpx:TrackPointExtension><gpxtpx:atemp>2.8</gpxtpx:atemp></gpxtpx:TrackPointExtension></extensions></trkpt><trkpt lat="42.2215376515" lon="13.4151257202"><ele>1595.05</ele><time>2026-03-11T16:26:40Z</time><extensions><gpxtpx:TrackPointExtension><gpxtpx:atemp>2.8</gpxtpx:atemp></gpxtpx:TrackPointExtension></extensions></trkpt><trkpt lat="42.2215378191" lon="13.4151254687"><ele>1594.95</ele><time>2026-03-11T16:26:41Z</time><extensions><gpxtpx:TrackPointExtension><gpxtpx:atemp>2.8</gpxtpx:atemp></gpxtpx:TrackPointExtension></extensions></trkpt><trkpt lat="42.2215378191" lon="13.4151247982"><ele>1594.87</ele><time>2026-03-11T16:26:42Z</time><extensions><gpxtpx:TrackPointExtension><gpxtpx:atemp>2.8</gpxtpx:atemp></gpxtpx:TrackPointExtension></extensions></trkpt><trkpt lat="42.2215379868" lon="13.4151241276"><ele>1594.87</ele><time>2026-03-11T16:26:43Z</time><extensions><gpxtpx:TrackPointExtension><gpxtpx:atemp>2.8</gpxtpx:atemp></gpxtpx:TrackPointExtension></extensions></trkpt><trkpt lat="42.2215384897" lon="13.4151232895"><ele>1594.90</ele><time>2026-03-11T16:26:44Z</time><extensions><gpxtpx:TrackPointExtension><gpxtpx:atemp>2.8</gpxtpx:atemp></gpxtpx:TrackPointExtension></extensions></trkpt><trkpt lat="42.2215383220" lon="13.4151231218"><ele>1594.97</ele><time>2026-03-11T16:26:45Z</time><extensions><gpxtpx:TrackPointExtension><gpxtpx:atemp>2.8</gpxtpx:atemp></gpxtpx:TrackPointExtension></extensions></trkpt><trkpt lat="42.2215380706" lon="13.4151231218"><ele>1595.06</ele><time>2026-03-11T16:26:46Z</time><extensions><gpxtpx:TrackPointExtension><gpxtpx:atemp>2.8</gpxtpx:atemp></gpxtpx:TrackPointExtension></extensions></trkpt><trkpt lat="42.2215379868" lon="13.4151224513"><ele>1595.11</ele><time>2026-03-11T16:26:47Z</time><extensions><gpxtpx:TrackPointExtension><gpxtpx:atemp>2.8</gpxtpx:atemp></gpxtpx:TrackPointExtension></extensions></trkpt><trkpt lat="42.2215374839" lon="13.4151222836"><ele>1595.14</ele><time>2026-03-11T16:26:48Z</time><extensions><gpxtpx:TrackPointExtension><gpxtpx:atemp>2.8</gpxtpx:atemp></gpxtpx:TrackPointExtension></extensions></trkpt><trkpt lat="42.2215372324" lon="13.4151224513"><ele>1595.16</ele><time>2026-03-11T16:26:49Z</time><extensions><gpxtpx:TrackPointExtension><gpxtpx:atemp>2.8</gpxtpx:atemp></gpxtpx:TrackPointExtension></extensions></trkpt><trkpt lat="42.2215374839" lon="13.4151219483"><ele>1595.17</ele><time>2026-03-11T16:26:50Z</time><extensions><gpxtpx:TrackPointExtension><gpxtpx:atemp>2.8</gpxtpx:atemp></gpxtpx:TrackPointExtension></extensions></trkpt><trkpt lat="42.2215370648" lon="13.4151220322"><ele>1595.17</ele><time>2026-03-11T16:26:51Z</time><extensions><gpxtpx:TrackPointExtension><gpxtpx:atemp>2.8</gpxtpx:atemp></gpxtpx:TrackPointExtension></extensions></trkpt><trkpt lat="42.2215370648" lon="13.4151216969"><ele>1595.16</ele><time>2026-03-11T16:26:52Z</time><extensions><gpxtpx:TrackPointExtension><gpxtpx:atemp>2.8</gpxtpx:atemp></gpxtpx:TrackPointExtension></extensions></trkpt><trkpt lat="42.2215370648" lon="13.4151215293"><ele>1595.10</ele><time>2026-03-11T16:26:53Z</time><extensions><gpxtpx:TrackPointExtension><gpxtpx:atemp>2.8</gpxtpx:atemp></gpxtpx:TrackPointExtension></extensions></trkpt><trkpt lat="42.2215372324" lon="13.4151211940"><ele>1595.12</ele><time>2026-03-11T16:26:54Z</time><extensions><gpxtpx:TrackPointExtension><gpxtpx:atemp>2.8</gpxtpx:atemp></gpxtpx:TrackPointExtension></extensions></trkpt><trkpt lat="42.2215373162" lon="13.4151211940"><ele>1595.14</ele><time>2026-03-11T16:26:55Z</time><extensions><gpxtpx:TrackPointExtension><gpxtpx:atemp>2.8</gpxtpx:atemp></gpxtpx:TrackPointExtension></extensions></trkpt><trkpt lat="42.2215375677" lon="13.4151215293"><ele>1595.14</ele><time>2026-03-11T16:26:56Z</time><extensions><gpxtpx:TrackPointExtension><gpxtpx:atemp>2.8</gpxtpx:atemp></gpxtpx:TrackPointExtension></extensions></trkpt><trkpt lat="42.2215373162" lon="13.4151217807"><ele>1595.16</ele><time>2026-03-11T16:26:57Z</time><extensions><gpxtpx:TrackPointExtension><gpxtpx:atemp>2.8</gpxtpx:atemp></gpxtpx:TrackPointExtension></extensions></trkpt><trkpt lat="42.2215372324" lon="13.4151219483"><ele>1595.17</ele><time>2026-03-11T16:26:58Z</time><extensions><gpxtpx:TrackPointExtension><gpxtpx:atemp>2.8</gpxtpx:atemp></gpxtpx:TrackPointExtension></extensions></trkpt><trkpt lat="42.2215366457" lon="13.4151221998"><ele>1595.17</ele><time>2026-03-11T16:26:59Z</time><extensions><gpxtpx:TrackPointExtension><gpxtpx:atemp>2.8</gpxtpx:atemp></gpxtpx:TrackPointExtension></extensions></trkpt><trkpt lat="42.2215369809" lon="13.4151222836"><ele>1595.17</ele><time>2026-03-11T16:27:00Z</time><extensions><gpxtpx:TrackPointExtension><gpxtpx:atemp>2.8</gpxtpx:atemp></gpxtpx:TrackPointExtension></extensions></trkpt><trkpt lat="42.2215371486" lon="13.4151225351"><ele>1595.17</ele><time>2026-03-11T16:27:01Z</time><extensions><gpxtpx:TrackPointExtension><gpxtpx:atemp>2.8</gpxtpx:atemp></gpxtpx:TrackPointExtension></extensions></trkpt><trkpt lat="42.2215368971" lon="13.4151225351"><ele>1595.15</ele><time>2026-03-11T16:27:02Z</time><extensions><gpxtpx:TrackPointExtension><gpxtpx:atemp>2.8</gpxtpx:atemp></gpxtpx:TrackPointExtension></extensions></trkpt><trkpt lat="42.2215370648" lon="13.4151222836"><ele>1595.11</ele><time>2026-03-11T16:27:03Z</time><extensions><gpxtpx:TrackPointExtension><gpxtpx:atemp>2.8</gpxtpx:atemp></gpxtpx:TrackPointExtension></extensions></trkpt><trkpt lat="42.2215365618" lon="13.4151225351"><ele>1595.10</ele><time>2026-03-11T16:27:04Z</time><extensions><gpxtpx:TrackPointExtension><gpxtpx:atemp>2.8</gpxtpx:atemp></gpxtpx:TrackPointExtension></extensions></trkpt><trkpt lat="42.2215364780" lon="13.4151228704"><ele>1595.11</ele><time>2026-03-11T16:27:05Z</time><extensions><gpxtpx:TrackPointExtension><gpxtpx:atemp>2.8</gpxtpx:atemp></gpxtpx:TrackPointExtension></extensions></trkpt><trkpt lat="42.2215360589" lon="13.4151228704"><ele>1595.11</ele><time>2026-03-11T16:27:06Z</time><extensions><gpxtpx:TrackPointExtension><gpxtpx:atemp>2.8</gpxtpx:atemp></gpxtpx:TrackPointExtension></extensions></trkpt><trkpt lat="42.2215361428" lon="13.4151228704"><ele>1595.12</ele><time>2026-03-11T16:27:07Z</time><extensions><gpxtpx:TrackPointExtension><gpxtpx:atemp>2.8</gpxtpx:atemp></gpxtpx:TrackPointExtension></extensions></trkpt><trkpt lat="42.2215361428" lon="13.4151226189"><ele>1595.12</ele><time>2026-03-11T16:27:08Z</time><extensions><gpxtpx:TrackPointExtension><gpxtpx:atemp>2.8</gpxtpx:atemp></gpxtpx:TrackPointExtension></extensions></trkpt><trkpt lat="42.2215359751" lon="13.4151227865"><ele>1595.14</ele><time>2026-03-11T16:27:09Z</time><extensions><gpxtpx:TrackPointExtension><gpxtpx:atemp>2.8</gpxtpx:atemp></gpxtpx:TrackPointExtension></extensions></trkpt><trkpt lat="42.2215359751" lon="13.4151228704"><ele>1595.15</ele><time>2026-03-11T16:27:10Z</time><extensions><gpxtpx:TrackPointExtension><gpxtpx:atemp>2.8</gpxtpx:atemp></gpxtpx:TrackPointExtension></extensions></trkpt><trkpt lat="42.2215357237" lon="13.4151229542"><ele>1595.15</ele><time>2026-03-11T16:27:11Z</time><extensions><gpxtpx:TrackPointExtension><gpxtpx:atemp>2.8</gpxtpx:atemp></gpxtpx:TrackPointExtension></extensions></trkpt><trkpt lat="42.2215355560" lon="13.4151233733"><ele>1595.15</ele><time>2026-03-11T16:27:12Z</time><extensions><gpxtpx:TrackPointExtension><gpxtpx:atemp>2.8</gpxtpx:atemp></gpxtpx:TrackPointExtension></extensions></trkpt><trkpt lat="42.2215355560" lon="13.4151232895"><ele>1595.15</ele><time>2026-03-11T16:27:13Z</time><extensions><gpxtpx:TrackPointExtension><gpxtpx:atemp>2.8</gpxtpx:atemp></gpxtpx:TrackPointExtension></extensions></trkpt><trkpt lat="42.2215351369" lon="13.4151235409"><ele>1595.16</ele><time>2026-03-11T16:27:14Z</time><extensions><gpxtpx:TrackPointExtension><gpxtpx:atemp>2.8</gpxtpx:atemp></gpxtpx:TrackPointExtension></extensions></trkpt><trkpt lat="42.2215351369" lon="13.4151231218"><ele>1595.16</ele><time>2026-03-11T16:27:15Z</time><extensions><gpxtpx:TrackPointExtension><gpxtpx:atemp>2.8</gpxtpx:atemp></gpxtpx:TrackPointExtension></extensions></trkpt><trkpt lat="42.2215348855" lon="13.4151231218"><ele>1595.20</ele><time>2026-03-11T16:27:16Z</time><extensions><gpxtpx:TrackPointExtension><gpxtpx:atemp>2.8</gpxtpx:atemp></gpxtpx:TrackPointExtension></extensions></trkpt><trkpt lat="42.2215340473" lon="13.4151232895"><ele>1595.28</ele><time>2026-03-11T16:27:17Z</time><extensions><gpxtpx:TrackPointExtension><gpxtpx:atemp>2.8</gpxtpx:atemp></gpxtpx:TrackPointExtension></extensions></trkpt><trkpt lat="42.2215337958" lon="13.4151231218"><ele>1595.35</ele><time>2026-03-11T16:27:18Z</time><extensions><gpxtpx:TrackPointExtension><gpxtpx:atemp>2.8</gpxtpx:atemp></gpxtpx:TrackPointExtension></extensions></trkpt><trkpt lat="42.2215339635" lon="13.4151226189"><ele>1595.38</ele><time>2026-03-11T16:27:19Z</time><extensions><gpxtpx:TrackPointExtension><gpxtpx:atemp>2.8</gpxtpx:atemp></gpxtpx:TrackPointExtension></extensions></trkpt><trkpt lat="42.2215343826" lon="13.4151223674"><ele>1595.41</ele><time>2026-03-11T16:27:20Z</time><extensions><gpxtpx:TrackPointExtension><gpxtpx:atemp>2.8</gpxtpx:atemp></gpxtpx:TrackPointExtension></extensions></trkpt><trkpt lat="42.2215344664" lon="13.4151222836"><ele>1595.45</ele><time>2026-03-11T16:27:21Z</time><extensions><gpxtpx:TrackPointExtension><gpxtpx:atemp>2.8</gpxtpx:atemp></gpxtpx:TrackPointExtension></extensions></trkpt><trkpt lat="42.2215344664" lon="13.4151222836"><ele>1595.47</ele><time>2026-03-11T16:27:22Z</time><extensions><gpxtpx:TrackPointExtension><gpxtpx:atemp>2.8</gpxtpx:atemp></gpxtpx:TrackPointExtension></extensions></trkpt><trkpt lat="42.2215343826" lon="13.4151221998"><ele>1595.49</ele><time>2026-03-11T16:27:23Z</time><extensions><gpxtpx:TrackPointExtension><gpxtpx:atemp>2.8</gpxtpx:atemp></gpxtpx:TrackPointExtension></extensions></trkpt><trkpt lat="42.2215341311" lon="13.4151219483"><ele>1595.49</ele><time>2026-03-11T16:27:24Z</time><extensions><gpxtpx:TrackPointExtension><gpxtpx:atemp>2.8</gpxtpx:atemp></gpxtpx:TrackPointExtension></extensions></trkpt><trkpt lat="42.2215338796" lon="13.4151220322"><ele>1595.49</ele><time>2026-03-11T16:27:25Z</time><extensions><gpxtpx:TrackPointExtension><gpxtpx:atemp>2.8</gpxtpx:atemp></gpxtpx:TrackPointExtension></extensions></trkpt><trkpt lat="42.2215340473" lon="13.4151220322"><ele>1595.44</ele><time>2026-03-11T16:27:26Z</time><extensions><gpxtpx:TrackPointExtension><gpxtpx:atemp>2.8</gpxtpx:atemp></gpxtpx:TrackPointExtension></extensions></trkpt><trkpt lat="42.2215343826" lon="13.4151223674"><ele>1595.41</ele><time>2026-03-11T16:27:27Z</time><extensions><gpxtpx:TrackPointExtension><gpxtpx:atemp>2.8</gpxtpx:atemp></gpxtpx:TrackPointExtension></extensions></trkpt><trkpt lat="42.2215344664" lon="13.4151215293"><ele>1595.38</ele><time>2026-03-11T16:27:28Z</time><extensions><gpxtpx:TrackPointExtension><gpxtpx:atemp>2.8</gpxtpx:atemp></gpxtpx:TrackPointExtension></extensions></trkpt><trkpt lat="42.2215341311" lon="13.4151214454"><ele>1595.38</ele><time>2026-03-11T16:27:29Z</time><extensions><gpxtpx:TrackPointExtension><gpxtpx:atemp>2.8</gpxtpx:atemp></gpxtpx:TrackPointExtension></extensions></trkpt><trkpt lat="42.2215339635" lon="13.4151218645"><ele>1595.44</ele><time>2026-03-11T16:27:30Z</time><extensions><gpxtpx:TrackPointExtension><gpxtpx:atemp>2.8</gpxtpx:atemp></gpxtpx:TrackPointExtension></extensions></trkpt><trkpt lat="42.2215339635" lon="13.4151213616"><ele>1595.48</ele><time>2026-03-11T16:27:31Z</time><extensions><gpxtpx:TrackPointExtension><gpxtpx:atemp>2.8</gpxtpx:atemp></gpxtpx:TrackPointExtension></extensions></trkpt><trkpt lat="42.2215335444" lon="13.4151207749"><ele>1595.52</ele><time>2026-03-11T16:27:32Z</time><extensions><gpxtpx:TrackPointExtension><gpxtpx:atemp>2.4</gpxtpx:atemp></gpxtpx:TrackPointExtension></extensions></trkpt><trkpt lat="42.2215340473" lon="13.4151205234"><ele>1595.52</ele><time>2026-03-11T16:27:33Z</time><extensions><gpxtpx:TrackPointExtension><gpxtpx:atemp>2.4</gpxtpx:atemp></gpxtpx:TrackPointExtension></extensions></trkpt><trkpt lat="42.2215332929" lon="13.4151198529"><ele>1595.52</ele><time>2026-03-11T16:27:34Z</time><extensions><gpxtpx:TrackPointExtension><gpxtpx:atemp>2.4</gpxtpx:atemp></gpxtpx:TrackPointExtension></extensions></trkpt><trkpt lat="42.2215331253" lon="13.4151194338"><ele>1595.49</ele><time>2026-03-11T16:27:35Z</time><extensions><gpxtpx:TrackPointExtension><gpxtpx:atemp>2.4</gpxtpx:atemp></gpxtpx:TrackPointExtension></extensions></trkpt><trkpt lat="42.2215330414" lon="13.4151195176"><ele>1595.47</ele><time>2026-03-11T16:27:36Z</time><extensions><gpxtpx:TrackPointExtension><gpxtpx:atemp>2.4</gpxtpx:atemp></gpxtpx:TrackPointExtension></extensions></trkpt><trkpt lat="42.2215331253" lon="13.4151187632"><ele>1595.46</ele><time>2026-03-11T16:27:37Z</time><extensions><gpxtpx:TrackPointExtension><gpxtpx:atemp>2.4</gpxtpx:atemp></gpxtpx:TrackPointExtension></extensions></trkpt><trkpt lat="42.2215331253" lon="13.4151191823"><ele>1595.44</ele><time>2026-03-11T16:27:38Z</time><extensions><gpxtpx:TrackPointExtension><gpxtpx:atemp>2.4</gpxtpx:atemp></gpxtpx:TrackPointExtension></extensions></trkpt><trkpt lat="42.2215333767" lon="13.4151191823"><ele>1595.34</ele><time>2026-03-11T16:27:39Z</time><extensions><gpxtpx:TrackPointExtension><gpxtpx:atemp>2.4</gpxtpx:atemp></gpxtpx:TrackPointExtension></extensions></trkpt><trkpt lat="42.2215333767" lon="13.4151190985"><ele>1595.28</ele><time>2026-03-11T16:27:40Z</time><extensions><gpxtpx:TrackPointExtension><gpxtpx:atemp>2.4</gpxtpx:atemp></gpxtpx:TrackPointExtension></extensions></trkpt><trkpt lat="42.2215335444" lon="13.4151190985"><ele>1595.23</ele><time>2026-03-11T16:27:41Z</time><extensions><gpxtpx:TrackPointExtension><gpxtpx:atemp>2.4</gpxtpx:atemp></gpxtpx:TrackPointExtension></extensions></trkpt><trkpt lat="42.2215335444" lon="13.4151187632"><ele>1595.18</ele><time>2026-03-11T16:27:42Z</time><extensions><gpxtpx:TrackPointExtension><gpxtpx:atemp>2.4</gpxtpx:atemp></gpxtpx:TrackPointExtension></extensions></trkpt><trkpt lat="42.2215338796" lon="13.4151188470"><ele>1595.15</ele><time>2026-03-11T16:27:43Z</time><extensions><gpxtpx:TrackPointExtension><gpxtpx:atemp>2.4</gpxtpx:atemp></gpxtpx:TrackPointExtension></extensions></trkpt><trkpt lat="42.2215339635" lon="13.4151187632"><ele>1595.14</ele><time>2026-03-11T16:27:44Z</time><extensions><gpxtpx:TrackPointExtension><gpxtpx:atemp>2.4</gpxtpx:atemp></gpxtpx:TrackPointExtension></extensions></trkpt><trkpt lat="42.2215340473" lon="13.4151189309"><ele>1595.13</ele><time>2026-03-11T16:27:45Z</time><extensions><gpxtpx:TrackPointExtension><gpxtpx:atemp>2.4</gpxtpx:atemp></gpxtpx:TrackPointExtension></extensions></trkpt><trkpt lat="42.2215337958" lon="13.4151194338"><ele>1595.13</ele><time>2026-03-11T16:27:46Z</time><extensions><gpxtpx:TrackPointExtension><gpxtpx:atemp>2.4</gpxtpx:atemp></gpxtpx:TrackPointExtension></extensions></trkpt><trkpt lat="42.2215341311" lon="13.4151195176"><ele>1595.13</ele><time>2026-03-11T16:27:47Z</time><extensions><gpxtpx:TrackPointExtension><gpxtpx:atemp>2.4</gpxtpx:atemp></gpxtpx:TrackPointExtension></extensions></trkpt><trkpt lat="42.2215343826" lon="13.4151193500"><ele>1595.13</ele><time>2026-03-11T16:27:48Z</time><extensions><gpxtpx:TrackPointExtension><gpxtpx:atemp>2.4</gpxtpx:atemp></gpxtpx:TrackPointExtension></extensions></trkpt><trkpt lat="42.2215345502" lon="13.4151193500"><ele>1595.13</ele><time>2026-03-11T16:27:49Z</time><extensions><gpxtpx:TrackPointExtension><gpxtpx:atemp>2.4</gpxtpx:atemp></gpxtpx:TrackPointExtension></extensions></trkpt><trkpt lat="42.2215346340" lon="13.4151191823"><ele>1595.13</ele><time>2026-03-11T16:27:50Z</time><extensions><gpxtpx:TrackPointExtension><gpxtpx:atemp>2.4</gpxtpx:atemp></gpxtpx:TrackPointExtension></extensions></trkpt><trkpt lat="42.2215347178" lon="13.4151190985"><ele>1595.13</ele><time>2026-03-11T16:27:51Z</time><extensions><gpxtpx:TrackPointExtension><gpxtpx:atemp>2.4</gpxtpx:atemp></gpxtpx:TrackPointExtension></extensions></trkpt><trkpt lat="42.2215348855" lon="13.4151187632"><ele>1595.13</ele><time>2026-03-11T16:27:52Z</time><extensions><gpxtpx:TrackPointExtension><gpxtpx:atemp>2.4</gpxtpx:atemp></gpxtpx:TrackPointExtension></extensions></trkpt><trkpt lat="42.2215347178" lon="13.4151186794"><ele>1595.13</ele><time>2026-03-11T16:27:53Z</time><extensions><gpxtpx:TrackPointExtension><gpxtpx:atemp>2.4</gpxtpx:atemp></gpxtpx:TrackPointExtension></extensions></trkpt><trkpt lat="42.2215347178" lon="13.4151189309"><ele>1595.13</ele><time>2026-03-11T16:27:54Z</time><extensions><gpxtpx:TrackPointExtension><gpxtpx:atemp>2.4</gpxtpx:atemp></gpxtpx:TrackPointExtension></extensions></trkpt><trkpt lat="42.2215350531" lon="13.4151189309"><ele>1595.16</ele><time>2026-03-11T16:27:55Z</time><extensions><gpxtpx:TrackPointExtension><gpxtpx:atemp>2.4</gpxtpx:atemp></gpxtpx:TrackPointExtension></extensions></trkpt><trkpt lat="42.2215350531" lon="13.4151192661"><ele>1595.20</ele><time>2026-03-11T16:27:56Z</time><extensions><gpxtpx:TrackPointExtension><gpxtpx:atemp>2.4</gpxtpx:atemp></gpxtpx:TrackPointExtension></extensions></trkpt><trkpt lat="42.2215354722" lon="13.4151190985"><ele>1595.18</ele><time>2026-03-11T16:27:57Z</time><extensions><gpxtpx:TrackPointExtension><gpxtpx:atemp>2.4</gpxtpx:atemp></gpxtpx:TrackPointExtension></extensions></trkpt><trkpt lat="42.2215357237" lon="13.4151191823"><ele>1595.21</ele><time>2026-03-11T16:27:58Z</time><extensions><gpxtpx:TrackPointExtension><gpxtpx:atemp>2.4</gpxtpx:atemp></gpxtpx:TrackPointExtension></extensions></trkpt><trkpt lat="42.2215357237" lon="13.4151190985"><ele>1595.21</ele><time>2026-03-11T16:27:59Z</time><extensions><gpxtpx:TrackPointExtension><gpxtpx:atemp>2.4</gpxtpx:atemp></gpxtpx:TrackPointExtension></extensions></trkpt><trkpt lat="42.2215356398" lon="13.4151187632"><ele>1595.24</ele><time>2026-03-11T16:28:00Z</time><extensions><gpxtpx:TrackPointExtension><gpxtpx:atemp>2.4</gpxtpx:atemp></gpxtpx:TrackPointExtension></extensions></trkpt><trkpt lat="42.2215354722" lon="13.4151185956"><ele>1595.31</ele><time>2026-03-11T16:28:01Z</time><extensions><gpxtpx:TrackPointExtension><gpxtpx:atemp>2.4</gpxtpx:atemp></gpxtpx:TrackPointExtension></extensions></trkpt><trkpt lat="42.2215355560" lon="13.4151183441"><ele>1595.32</ele><time>2026-03-11T16:28:02Z</time><extensions><gpxtpx:TrackPointExtension><gpxtpx:atemp>2.4</gpxtpx:atemp></gpxtpx:TrackPointExtension></extensions></trkpt><trkpt lat="42.2215353884" lon="13.4151183441"><ele>1595.33</ele><time>2026-03-11T16:28:03Z</time><extensions><gpxtpx:TrackPointExtension><gpxtpx:atemp>2.4</gpxtpx:atemp></gpxtpx:TrackPointExtension></extensions></trkpt><trkpt lat="42.2215350531" lon="13.4151179250"><ele>1595.34</ele><time>2026-03-11T16:28:04Z</time><extensions><gpxtpx:TrackPointExtension><gpxtpx:atemp>2.4</gpxtpx:atemp></gpxtpx:TrackPointExtension></extensions></trkpt><trkpt lat="42.2215351369" lon="13.4151180927"><ele>1595.35</ele><time>2026-03-11T16:28:05Z</time><extensions><gpxtpx:TrackPointExtension><gpxtpx:atemp>2.4</gpxtpx:atemp></gpxtpx:TrackPointExtension></extensions></trkpt><trkpt lat="42.2215349693" lon="13.4151180927"><ele>1595.35</ele><time>2026-03-11T16:28:06Z</time><extensions><gpxtpx:TrackPointExtension><gpxtpx:atemp>2.4</gpxtpx:atemp></gpxtpx:TrackPointExtension></extensions></trkpt><trkpt lat="42.2215351369" lon="13.4151180927"><ele>1595.35</ele><time>2026-03-11T16:28:07Z</time><extensions><gpxtpx:TrackPointExtension><gpxtpx:atemp>2.4</gpxtpx:atemp></gpxtpx:TrackPointExtension></extensions></trkpt><trkpt lat="42.2215357237" lon="13.4151182603"><ele>1595.35</ele><time>2026-03-11T16:28:08Z</time><extensions><gpxtpx:TrackPointExtension><gpxtpx:atemp>2.4</gpxtpx:atemp></gpxtpx:TrackPointExtension></extensions></trkpt><trkpt lat="42.2215358913" lon="13.4151181765"><ele>1595.35</ele><time>2026-03-11T16:28:09Z</time><extensions><gpxtpx:TrackPointExtension><gpxtpx:atemp>2.4</gpxtpx:atemp></gpxtpx:TrackPointExtension></extensions></trkpt><trkpt lat="42.2215361428" lon="13.4151181765"><ele>1595.34</ele><time>2026-03-11T16:28:10Z</time><extensions><gpxtpx:TrackPointExtension><gpxtpx:atemp>2.4</gpxtpx:atemp></gpxtpx:TrackPointExtension></extensions></trkpt><trkpt lat="42.2215363942" lon="13.4151181765"><ele>1595.34</ele><time>2026-03-11T16:28:11Z</time><extensions><gpxtpx:TrackPointExtension><gpxtpx:atemp>2.4</gpxtpx:atemp></gpxtpx:TrackPointExtension></extensions></trkpt><trkpt lat="42.2215364780" lon="13.4151180927"><ele>1595.33</ele><time>2026-03-11T16:28:12Z</time><extensions><gpxtpx:TrackPointExtension><gpxtpx:atemp>2.4</gpxtpx:atemp></gpxtpx:TrackPointExtension></extensions></trkpt><trkpt lat="42.2215366457" lon="13.4151180927"><ele>1595.33</ele><time>2026-03-11T16:28:13Z</time><extensions><gpxtpx:TrackPointExtension><gpxtpx:atemp>2.4</gpxtpx:atemp></gpxtpx:TrackPointExtension></extensions></trkpt><trkpt lat="42.2215366457" lon="13.4151182603"><ele>1595.39</ele><time>2026-03-11T16:28:14Z</time><extensions><gpxtpx:TrackPointExtension><gpxtpx:atemp>2.4</gpxtpx:atemp></gpxtpx:TrackPointExtension></extensions></trkpt><trkpt lat="42.2215367295" lon="13.4151181765"><ele>1595.41</ele><time>2026-03-11T16:28:15Z</time><extensions><gpxtpx:TrackPointExtension><gpxtpx:atemp>2.4</gpxtpx:atemp></gpxtpx:TrackPointExtension></extensions></trkpt><trkpt lat="42.2215370648" lon="13.4151181765"><ele>1595.42</ele><time>2026-03-11T16:28:16Z</time><extensions><gpxtpx:TrackPointExtension><gpxtpx:atemp>2.4</gpxtpx:atemp></gpxtpx:TrackPointExtension></extensions></trkpt><trkpt lat="42.2215372324" lon="13.4151181765"><ele>1595.42</ele><time>2026-03-11T16:28:17Z</time><extensions><gpxtpx:TrackPointExtension><gpxtpx:atemp>2.4</gpxtpx:atemp></gpxtpx:TrackPointExtension></extensions></trkpt><trkpt lat="42.2215375677" lon="13.4151181765"><ele>1595.44</ele><time>2026-03-11T16:28:18Z</time><extensions><gpxtpx:TrackPointExtension><gpxtpx:atemp>2.4</gpxtpx:atemp></gpxtpx:TrackPointExtension></extensions></trkpt><trkpt lat="42.2215372324" lon="13.4151179250"><ele>1595.45</ele><time>2026-03-11T16:28:19Z</time><extensions><gpxtpx:TrackPointExtension><gpxtpx:atemp>2.4</gpxtpx:atemp></gpxtpx:TrackPointExtension></extensions></trkpt><trkpt lat="42.2215371486" lon="13.4151178412"><ele>1595.46</ele><time>2026-03-11T16:28:20Z</time><extensions><gpxtpx:TrackPointExtension><gpxtpx:atemp>2.4</gpxtpx:atemp></gpxtpx:TrackPointExtension></extensions></trkpt><trkpt lat="42.2215370648" lon="13.4151174221"><ele>1595.46</ele><time>2026-03-11T16:28:21Z</time><extensions><gpxtpx:TrackPointExtension><gpxtpx:atemp>2.4</gpxtpx:atemp></gpxtpx:TrackPointExtension></extensions></trkpt><trkpt lat="42.2215367295" lon="13.4151174221"><ele>1595.46</ele><time>2026-03-11T16:28:22Z</time><extensions><gpxtpx:TrackPointExtension><gpxtpx:atemp>2.4</gpxtpx:atemp></gpxtpx:TrackPointExtension></extensions></trkpt><trkpt lat="42.2215370648" lon="13.4151172545"><ele>1595.46</ele><time>2026-03-11T16:28:23Z</time><extensions><gpxtpx:TrackPointExtension><gpxtpx:atemp>2.4</gpxtpx:atemp></gpxtpx:TrackPointExtension></extensions></trkpt><trkpt lat="42.2215370648" lon="13.4151173383"><ele>1595.45</ele><time>2026-03-11T16:28:24Z</time><extensions><gpxtpx:TrackPointExtension><gpxtpx:atemp>2.4</gpxtpx:atemp></gpxtpx:TrackPointExtension></extensions></trkpt><trkpt lat="42.2215370648" lon="13.4151171707"><ele>1595.38</ele><time>2026-03-11T16:28:25Z</time><extensions><gpxtpx:TrackPointExtension><gpxtpx:atemp>2.4</gpxtpx:atemp></gpxtpx:TrackPointExtension></extensions></trkpt><trkpt lat="42.2215369809" lon="13.4151169192"><ele>1595.35</ele><time>2026-03-11T16:28:26Z</time><extensions><gpxtpx:TrackPointExtension><gpxtpx:atemp>2.4</gpxtpx:atemp></gpxtpx:TrackPointExtension></extensions></trkpt><trkpt lat="42.2215366457" lon="13.4151170868"><ele>1595.35</ele><time>2026-03-11T16:28:27Z</time><extensions><gpxtpx:TrackPointExtension><gpxtpx:atemp>2.4</gpxtpx:atemp></gpxtpx:TrackPointExtension></extensions></trkpt><trkpt lat="42.2215366457" lon="13.4151170868"><ele>1595.36</ele><time>2026-03-11T16:28:28Z</time><extensions><gpxtpx:TrackPointExtension><gpxtpx:atemp>2.4</gpxtpx:atemp></gpxtpx:TrackPointExtension></extensions></trkpt><trkpt lat="42.2215367295" lon="13.4151168354"><ele>1595.37</ele><time>2026-03-11T16:28:29Z</time><extensions><gpxtpx:TrackPointExtension><gpxtpx:atemp>2.4</gpxtpx:atemp></gpxtpx:TrackPointExtension></extensions></trkpt><trkpt lat="42.2215367295" lon="13.4151168354"><ele>1595.38</ele><time>2026-03-11T16:28:30Z</time><extensions><gpxtpx:TrackPointExtension><gpxtpx:atemp>2.4</gpxtpx:atemp></gpxtpx:TrackPointExtension></extensions></trkpt><trkpt lat="42.2215370648" lon="13.4151168354"><ele>1595.42</ele><time>2026-03-11T16:28:31Z</time><extensions><gpxtpx:TrackPointExtension><gpxtpx:atemp>2.4</gpxtpx:atemp></gpxtpx:TrackPointExtension></extensions></trkpt><trkpt lat="42.2215368971" lon="13.4151168354"><ele>1595.47</ele><time>2026-03-11T16:28:32Z</time><extensions><gpxtpx:TrackPointExtension><gpxtpx:atemp>2.4</gpxtpx:atemp></gpxtpx:TrackPointExtension></extensions></trkpt><trkpt lat="42.2215368971" lon="13.4151169192"><ele>1595.52</ele><time>2026-03-11T16:28:33Z</time><extensions><gpxtpx:TrackPointExtension><gpxtpx:atemp>2.4</gpxtpx:atemp></gpxtpx:TrackPointExtension></extensions></trkpt><trkpt lat="42.2215366457" lon="13.4151170868"><ele>1595.53</ele><time>2026-03-11T16:28:34Z</time><extensions><gpxtpx:TrackPointExtension><gpxtpx:atemp>2.4</gpxtpx:atemp></gpxtpx:TrackPointExtension></extensions></trkpt><trkpt lat="42.2215366457" lon="13.4151171707"><ele>1595.56</ele><time>2026-03-11T16:28:35Z</time><extensions><gpxtpx:TrackPointExtension><gpxtpx:atemp>2.4</gpxtpx:atemp></gpxtpx:TrackPointExtension></extensions></trkpt><trkpt lat="42.2215366457" lon="13.4151171707"><ele>1595.56</ele><time>2026-03-11T16:28:36Z</time><extensions><gpxtpx:TrackPointExtension><gpxtpx:atemp>2.4</gpxtpx:atemp></gpxtpx:TrackPointExtension></extensions></trkpt><trkpt lat="42.2215367295" lon="13.4151172545"><ele>1595.30</ele><time>2026-03-11T16:28:37Z</time><extensions><gpxtpx:TrackPointExtension><gpxtpx:atemp>2.4</gpxtpx:atemp></gpxtpx:TrackPointExtension></extensions></trkpt><trkpt lat="42.2215370648" lon="13.4151175898"><ele>1594.76</ele><time>2026-03-11T16:28:38Z</time><extensions><gpxtpx:TrackPointExtension><gpxtpx:atemp>2.4</gpxtpx:atemp></gpxtpx:TrackPointExtension></extensions></trkpt><trkpt lat="42.2215372324" lon="13.4151179250"><ele>1594.32</ele><time>2026-03-11T16:28:39Z</time><extensions><gpxtpx:TrackPointExtension><gpxtpx:atemp>2.4</gpxtpx:atemp></gpxtpx:TrackPointExtension></extensions></trkpt><trkpt lat="42.2215371486" lon="13.4151189309"><ele>1594.09</ele><time>2026-03-11T16:28:40Z</time><extensions><gpxtpx:TrackPointExtension><gpxtpx:atemp>2.4</gpxtpx:atemp></gpxtpx:TrackPointExtension></extensions></trkpt><trkpt lat="42.2215371486" lon="13.4151193500"><ele>1593.97</ele><time>2026-03-11T16:28:41Z</time><extensions><gpxtpx:TrackPointExtension><gpxtpx:atemp>2.4</gpxtpx:atemp></gpxtpx:TrackPointExtension></extensions></trkpt><trkpt lat="42.2215367295" lon="13.4151200205"><ele>1594.09</ele><time>2026-03-11T16:28:42Z</time><extensions><gpxtpx:TrackPointExtension><gpxtpx:atemp>2.4</gpxtpx:atemp></gpxtpx:TrackPointExtension></extensions></trkpt><trkpt lat="42.2215375677" lon="13.4151199367"><ele>1594.34</ele><time>2026-03-11T16:28:43Z</time><extensions><gpxtpx:TrackPointExtension><gpxtpx:atemp>2.4</gpxtpx:atemp></gpxtpx:TrackPointExtension></extensions></trkpt><trkpt lat="42.2215379868" lon="13.4151195176"><ele>1594.58</ele><time>2026-03-11T16:28:44Z</time><extensions><gpxtpx:TrackPointExtension><gpxtpx:atemp>2.4</gpxtpx:atemp></gpxtpx:TrackPointExtension></extensions></trkpt><trkpt lat="42.2215386573" lon="13.4151191823"><ele>1594.73</ele><time>2026-03-11T16:28:45Z</time><extensions><gpxtpx:TrackPointExtension><gpxtpx:atemp>2.4</gpxtpx:atemp></gpxtpx:TrackPointExtension></extensions></trkpt><trkpt lat="42.2215388250" lon="13.4151191823"><ele>1594.85</ele><time>2026-03-11T16:28:46Z</time><extensions><gpxtpx:TrackPointExtension><gpxtpx:atemp>2.4</gpxtpx:atemp></gpxtpx:TrackPointExtension></extensions></trkpt><trkpt lat="42.2215391602" lon="13.4151196852"><ele>1594.99</ele><time>2026-03-11T16:28:47Z</time><extensions><gpxtpx:TrackPointExtension><gpxtpx:atemp>2.4</gpxtpx:atemp></gpxtpx:TrackPointExtension></extensions></trkpt><trkpt lat="42.2215394955" lon="13.4151195176"><ele>1595.18</ele><time>2026-03-11T16:28:48Z</time><extensions><gpxtpx:TrackPointExtension><gpxtpx:atemp>2.4</gpxtpx:atemp></gpxtpx:TrackPointExtension></extensions></trkpt><trkpt lat="42.2215386573" lon="13.4151195176"><ele>1595.27</ele><time>2026-03-11T16:28:49Z</time><extensions><gpxtpx:TrackPointExtension><gpxtpx:atemp>2.4</gpxtpx:atemp></gpxtpx:TrackPointExtension></extensions></trkpt><trkpt lat="42.2215384897" lon="13.4151188470"><ele>1595.50</ele><time>2026-03-11T16:28:50Z</time><extensions><gpxtpx:TrackPointExtension><gpxtpx:atemp>2.4</gpxtpx:atemp></gpxtpx:TrackPointExtension></extensions></trkpt><trkpt lat="42.2215382382" lon="13.4151184279"><ele>1595.82</ele><time>2026-03-11T16:28:51Z</time><extensions><gpxtpx:TrackPointExtension><gpxtpx:atemp>2.4</gpxtpx:atemp></gpxtpx:TrackPointExtension></extensions></trkpt><trkpt lat="42.2215383220" lon="13.4151185956"><ele>1595.99</ele><time>2026-03-11T16:28:52Z</time><extensions><gpxtpx:TrackPointExtension><gpxtpx:atemp>2.4</gpxtpx:atemp></gpxtpx:TrackPointExtension></extensions></trkpt><trkpt lat="42.2215371486" lon="13.4151183441"><ele>1596.11</ele><time>2026-03-11T16:28:53Z</time><extensions><gpxtpx:TrackPointExtension><gpxtpx:atemp>2.4</gpxtpx:atemp></gpxtpx:TrackPointExtension></extensions></trkpt><trkpt lat="42.2215361428" lon="13.4151174221"><ele>1596.18</ele><time>2026-03-11T16:28:54Z</time><extensions><gpxtpx:TrackPointExtension><gpxtpx:atemp>2.4</gpxtpx:atemp></gpxtpx:TrackPointExtension></extensions></trkpt><trkpt lat="42.2215356398" lon="13.4151177574"><ele>1596.06</ele><time>2026-03-11T16:28:55Z</time><extensions><gpxtpx:TrackPointExtension><gpxtpx:atemp>2.4</gpxtpx:atemp></gpxtpx:TrackPointExtension></extensions></trkpt><trkpt lat="42.2215351369" lon="13.4151179250"><ele>1595.49</ele><time>2026-03-11T16:28:56Z</time><extensions><gpxtpx:TrackPointExtension><gpxtpx:atemp>2.4</gpxtpx:atemp></gpxtpx:TrackPointExtension></extensions></trkpt><trkpt lat="42.2215340473" lon="13.4151176736"><ele>1594.39</ele><time>2026-03-11T16:28:57Z</time><extensions><gpxtpx:TrackPointExtension><gpxtpx:atemp>2.4</gpxtpx:atemp></gpxtpx:TrackPointExtension></extensions></trkpt><trkpt lat="42.2215341311" lon="13.4151171707"><ele>1593.22</ele><time>2026-03-11T16:28:58Z</time><extensions><gpxtpx:TrackPointExtension><gpxtpx:atemp>2.4</gpxtpx:atemp></gpxtpx:TrackPointExtension></extensions></trkpt><trkpt lat="42.2215336282" lon="13.4151170868"><ele>1592.43</ele><time>2026-03-11T16:28:59Z</time><extensions><gpxtpx:TrackPointExtension><gpxtpx:atemp>2.4</gpxtpx:atemp></gpxtpx:TrackPointExtension></extensions></trkpt><trkpt lat="42.2215332929" lon="13.4151167516"><ele>1591.80</ele><time>2026-03-11T16:29:00Z</time><extensions><gpxtpx:TrackPointExtension><gpxtpx:atemp>2.4</gpxtpx:atemp></gpxtpx:TrackPointExtension></extensions></trkpt><trkpt lat="42.2215329576" lon="13.4151169192"><ele>1591.72</ele><time>2026-03-11T16:29:01Z</time><extensions><gpxtpx:TrackPointExtension><gpxtpx:atemp>2.4</gpxtpx:atemp></gpxtpx:TrackPointExtension></extensions></trkpt><trkpt lat="42.2215326224" lon="13.4151154943"><ele>1591.70</ele><time>2026-03-11T16:29:02Z</time><extensions><gpxtpx:TrackPointExtension><gpxtpx:atemp>2.4</gpxtpx:atemp></gpxtpx:TrackPointExtension></extensions></trkpt><trkpt lat="42.2215330414" lon="13.4151150752"><ele>1591.70</ele><time>2026-03-11T16:29:03Z</time><extensions><gpxtpx:TrackPointExtension><gpxtpx:atemp>2.4</gpxtpx:atemp></gpxtpx:TrackPointExtension></extensions></trkpt><trkpt lat="42.2215334605" lon="13.4151154943"><ele>1591.75</ele><time>2026-03-11T16:29:04Z</time><extensions><gpxtpx:TrackPointExtension><gpxtpx:atemp>2.4</gpxtpx:atemp></gpxtpx:TrackPointExtension></extensions></trkpt><trkpt lat="42.2215339635" lon="13.4151150752"><ele>1591.81</ele><time>2026-03-11T16:29:05Z</time><extensions><gpxtpx:TrackPointExtension><gpxtpx:atemp>2.4</gpxtpx:atemp></gpxtpx:TrackPointExtension></extensions></trkpt><trkpt lat="42.2215342987" lon="13.4151149914"><ele>1591.90</ele><time>2026-03-11T16:29:06Z</time><extensions><gpxtpx:TrackPointExtension><gpxtpx:atemp>2.4</gpxtpx:atemp></gpxtpx:TrackPointExtension></extensions></trkpt><trkpt lat="42.2215334605" lon="13.4151147399"><ele>1591.98</ele><time>2026-03-11T16:29:07Z</time><extensions><gpxtpx:TrackPointExtension><gpxtpx:atemp>2.4</gpxtpx:atemp></gpxtpx:TrackPointExtension></extensions></trkpt><trkpt lat="42.2215331253" lon="13.4151145723"><ele>1592.05</ele><time>2026-03-11T16:29:08Z</time><extensions><gpxtpx:TrackPointExtension><gpxtpx:atemp>2.4</gpxtpx:atemp></gpxtpx:TrackPointExtension></extensions></trkpt><trkpt lat="42.2215326224" lon="13.4151147399"><ele>1592.09</ele><time>2026-03-11T16:29:09Z</time><extensions><gpxtpx:TrackPointExtension><gpxtpx:atemp>2.4</gpxtpx:atemp></gpxtpx:TrackPointExtension></extensions></trkpt><trkpt lat="42.2215325385" lon="13.4151150752"><ele>1592.11</ele><time>2026-03-11T16:29:10Z</time><extensions><gpxtpx:TrackPointExtension><gpxtpx:atemp>2.4</gpxtpx:atemp></gpxtpx:TrackPointExtension></extensions></trkpt><trkpt lat="42.2215324547" lon="13.4151150752"><ele>1592.08</ele><time>2026-03-11T16:29:11Z</time><extensions><gpxtpx:TrackPointExtension><gpxtpx:atemp>2.4</gpxtpx:atemp></gpxtpx:TrackPointExtension></extensions></trkpt><trkpt lat="42.2215322871" lon="13.4151154943"><ele>1592.06</ele><time>2026-03-11T16:29:12Z</time><extensions><gpxtpx:TrackPointExtension><gpxtpx:atemp>2.4</gpxtpx:atemp></gpxtpx:TrackPointExtension></extensions></trkpt><trkpt lat="42.2215327900" lon="13.4151154943"><ele>1592.06</ele><time>2026-03-11T16:29:13Z</time><extensions><gpxtpx:TrackPointExtension><gpxtpx:atemp>2.4</gpxtpx:atemp></gpxtpx:TrackPointExtension></extensions></trkpt><trkpt lat="42.2215327900" lon="13.4151159972"><ele>1592.06</ele><time>2026-03-11T16:29:14Z</time><extensions><gpxtpx:TrackPointExtension><gpxtpx:atemp>2.4</gpxtpx:atemp></gpxtpx:TrackPointExtension></extensions></trkpt><trkpt lat="42.2215327900" lon="13.4151160810"><ele>1592.19</ele><time>2026-03-11T16:29:15Z</time><extensions><gpxtpx:TrackPointExtension><gpxtpx:atemp>2.4</gpxtpx:atemp></gpxtpx:TrackPointExtension></extensions></trkpt><trkpt lat="42.2215331253" lon="13.4151161648"><ele>1592.38</ele><time>2026-03-11T16:29:16Z</time><extensions><gpxtpx:TrackPointExtension><gpxtpx:atemp>2.4</gpxtpx:atemp></gpxtpx:TrackPointExtension></extensions></trkpt><trkpt lat="42.2215338796" lon="13.4151158296"><ele>1592.55</ele><time>2026-03-11T16:29:17Z</time><extensions><gpxtpx:TrackPointExtension><gpxtpx:atemp>2.4</gpxtpx:atemp></gpxtpx:TrackPointExtension></extensions></trkpt><trkpt lat="42.2215333767" lon="13.4151158296"><ele>1592.66</ele><time>2026-03-11T16:29:18Z</time><extensions><gpxtpx:TrackPointExtension><gpxtpx:atemp>2.4</gpxtpx:atemp></gpxtpx:TrackPointExtension></extensions></trkpt><trkpt lat="42.2215335444" lon="13.4151160810"><ele>1592.78</ele><time>2026-03-11T16:29:19Z</time><extensions><gpxtpx:TrackPointExtension><gpxtpx:atemp>2.4</gpxtpx:atemp></gpxtpx:TrackPointExtension></extensions></trkpt><trkpt lat="42.2215337958" lon="13.4151159972"><ele>1592.92</ele><time>2026-03-11T16:29:20Z</time><extensions><gpxtpx:TrackPointExtension><gpxtpx:atemp>2.4</gpxtpx:atemp></gpxtpx:TrackPointExtension></extensions></trkpt><trkpt lat="42.2215339635" lon="13.4151161648"><ele>1593.07</ele><time>2026-03-11T16:29:21Z</time><extensions><gpxtpx:TrackPointExtension><gpxtpx:atemp>2.4</gpxtpx:atemp></gpxtpx:TrackPointExtension></extensions></trkpt><trkpt lat="42.2215339635" lon="13.4151157457"><ele>1593.25</ele><time>2026-03-11T16:29:22Z</time><extensions><gpxtpx:TrackPointExtension><gpxtpx:atemp>2.4</gpxtpx:atemp></gpxtpx:TrackPointExtension></extensions></trkpt><trkpt lat="42.2215341311" lon="13.4151150752"><ele>1593.70</ele><time>2026-03-11T16:29:23Z</time><extensions><gpxtpx:TrackPointExtension><gpxtpx:atemp>2.4</gpxtpx:atemp></gpxtpx:TrackPointExtension></extensions></trkpt><trkpt lat="42.2215344664" lon="13.4151147399"><ele>1593.98</ele><time>2026-03-11T16:29:24Z</time><extensions><gpxtpx:TrackPointExtension><gpxtpx:atemp>2.4</gpxtpx:atemp></gpxtpx:TrackPointExtension></extensions></trkpt><trkpt lat="42.2215351369" lon="13.4151141532"><ele>1594.15</ele><time>2026-03-11T16:29:25Z</time><extensions><gpxtpx:TrackPointExtension><gpxtpx:atemp>2.4</gpxtpx:atemp></gpxtpx:TrackPointExtension></extensions></trkpt><trkpt lat="42.2215353884" lon="13.4151140694"><ele>1594.25</ele><time>2026-03-11T16:29:26Z</time><extensions><gpxtpx:TrackPointExtension><gpxtpx:atemp>2.4</gpxtpx:atemp></gpxtpx:TrackPointExtension></extensions></trkpt><trkpt lat="42.2215353884" lon="13.4151140694"><ele>1594.29</ele><time>2026-03-11T16:29:27Z</time><extensions><gpxtpx:TrackPointExtension><gpxtpx:atemp>2.4</gpxtpx:atemp></gpxtpx:TrackPointExtension></extensions></trkpt><trkpt lat="42.2215356398" lon="13.4151137341"><ele>1594.28</ele><time>2026-03-11T16:29:28Z</time><extensions><gpxtpx:TrackPointExtension><gpxtpx:atemp>2.4</gpxtpx:atemp></gpxtpx:TrackPointExtension></extensions></trkpt><trkpt lat="42.2215357237" lon="13.4151131473"><ele>1594.28</ele><time>2026-03-11T16:29:29Z</time><extensions><gpxtpx:TrackPointExtension><gpxtpx:atemp>2.4</gpxtpx:atemp></gpxtpx:TrackPointExtension></extensions></trkpt><trkpt lat="42.2215360589" lon="13.4151128959"><ele>1594.28</ele><time>2026-03-11T16:29:30Z</time><extensions><gpxtpx:TrackPointExtension><gpxtpx:atemp>2.4</gpxtpx:atemp></gpxtpx:TrackPointExtension></extensions></trkpt><trkpt lat="42.2215361428" lon="13.4151128959"><ele>1594.28</ele><time>2026-03-11T16:29:31Z</time><extensions><gpxtpx:TrackPointExtension><gpxtpx:atemp>2.4</gpxtpx:atemp></gpxtpx:TrackPointExtension></extensions></trkpt><trkpt lat="42.2215361428" lon="13.4151127283"><ele>1594.36</ele><time>2026-03-11T16:29:32Z</time><extensions><gpxtpx:TrackPointExtension><gpxtpx:atemp>2.2</gpxtpx:atemp></gpxtpx:TrackPointExtension></extensions></trkpt><trkpt lat="42.2215359751" lon="13.4151127283"><ele>1594.47</ele><time>2026-03-11T16:29:33Z</time><extensions><gpxtpx:TrackPointExtension><gpxtpx:atemp>2.2</gpxtpx:atemp></gpxtpx:TrackPointExtension></extensions></trkpt><trkpt lat="42.2215359751" lon="13.4151127283"><ele>1594.70</ele><time>2026-03-11T16:29:34Z</time><extensions><gpxtpx:TrackPointExtension><gpxtpx:atemp>2.2</gpxtpx:atemp></gpxtpx:TrackPointExtension></extensions></trkpt><trkpt lat="42.2215357237" lon="13.4151126444"><ele>1594.88</ele><time>2026-03-11T16:29:35Z</time><extensions><gpxtpx:TrackPointExtension><gpxtpx:atemp>2.2</gpxtpx:atemp></gpxtpx:TrackPointExtension></extensions></trkpt><trkpt lat="42.2215357237" lon="13.4151126444"><ele>1595.05</ele><time>2026-03-11T16:29:36Z</time><extensions><gpxtpx:TrackPointExtension><gpxtpx:atemp>2.2</gpxtpx:atemp></gpxtpx:TrackPointExtension></extensions></trkpt><trkpt lat="42.2215361428" lon="13.4151121415"><ele>1595.17</ele><time>2026-03-11T16:29:37Z</time><extensions><gpxtpx:TrackPointExtension><gpxtpx:atemp>2.2</gpxtpx:atemp></gpxtpx:TrackPointExtension></extensions></trkpt><trkpt lat="42.2215357237" lon="13.4151119739"><ele>1595.27</ele><time>2026-03-11T16:29:38Z</time><extensions><gpxtpx:TrackPointExtension><gpxtpx:atemp>2.2</gpxtpx:atemp></gpxtpx:TrackPointExtension></extensions></trkpt><trkpt lat="42.2215349693" lon="13.4151111357"><ele>1595.51</ele><time>2026-03-11T16:29:39Z</time><extensions><gpxtpx:TrackPointExtension><gpxtpx:atemp>2.2</gpxtpx:atemp></gpxtpx:TrackPointExtension></extensions></trkpt><trkpt lat="42.2215352207" lon="13.4151107166"><ele>1595.96</ele><time>2026-03-11T16:29:40Z</time><extensions><gpxtpx:TrackPointExtension><gpxtpx:atemp>2.2</gpxtpx:atemp></gpxtpx:TrackPointExtension></extensions></trkpt><trkpt lat="42.2215355560" lon="13.4151103813"><ele>1596.50</ele><time>2026-03-11T16:29:41Z</time><extensions><gpxtpx:TrackPointExtension><gpxtpx:atemp>2.2</gpxtpx:atemp></gpxtpx:TrackPointExtension></extensions></trkpt><trkpt lat="42.2215355560" lon="13.4151126444"><ele>1597.24</ele><time>2026-03-11T16:29:42Z</time><extensions><gpxtpx:TrackPointExtension><gpxtpx:atemp>2.2</gpxtpx:atemp></gpxtpx:TrackPointExtension></extensions></trkpt><trkpt lat="42.2215354722" lon="13.4151136503"><ele>1598.36</ele><time>2026-03-11T16:29:43Z</time><extensions><gpxtpx:TrackPointExtension><gpxtpx:atemp>2.2</gpxtpx:atemp></gpxtpx:TrackPointExtension></extensions></trkpt><trkpt lat="42.2215365618" lon="13.4151134826"><ele>1599.31</ele><time>2026-03-11T16:29:44Z</time><extensions><gpxtpx:TrackPointExtension><gpxtpx:atemp>2.2</gpxtpx:atemp></gpxtpx:TrackPointExtension></extensions></trkpt><trkpt lat="42.2215362266" lon="13.4151124768"><ele>1599.81</ele><time>2026-03-11T16:29:45Z</time><extensions><gpxtpx:TrackPointExtension><gpxtpx:atemp>2.2</gpxtpx:atemp></gpxtpx:TrackPointExtension></extensions></trkpt><trkpt lat="42.2215357237" lon="13.4151127283"><ele>1600.07</ele><time>2026-03-11T16:29:46Z</time><extensions><gpxtpx:TrackPointExtension><gpxtpx:atemp>2.2</gpxtpx:atemp></gpxtpx:TrackPointExtension></extensions></trkpt><trkpt lat="42.2215351369" lon="13.4151122253"><ele>1600.26</ele><time>2026-03-11T16:29:47Z</time><extensions><gpxtpx:TrackPointExtension><gpxtpx:atemp>2.2</gpxtpx:atemp></gpxtpx:TrackPointExtension></extensions></trkpt><trkpt lat="42.2215352207" lon="13.4151117224"><ele>1600.28</ele><time>2026-03-11T16:29:48Z</time><extensions><gpxtpx:TrackPointExtension><gpxtpx:atemp>2.2</gpxtpx:atemp></gpxtpx:TrackPointExtension></extensions></trkpt><trkpt lat="42.2215355560" lon="13.4151120577"><ele>1600.32</ele><time>2026-03-11T16:29:49Z</time><extensions><gpxtpx:TrackPointExtension><gpxtpx:atemp>2.2</gpxtpx:atemp></gpxtpx:TrackPointExtension></extensions></trkpt><trkpt lat="42.2215349693" lon="13.4151122253"><ele>1600.38</ele><time>2026-03-11T16:29:50Z</time><extensions><gpxtpx:TrackPointExtension><gpxtpx:atemp>2.2</gpxtpx:atemp></gpxtpx:TrackPointExtension></extensions></trkpt><trkpt lat="42.2215347178" lon="13.4151121415"><ele>1600.44</ele><time>2026-03-11T16:29:51Z</time><extensions><gpxtpx:TrackPointExtension><gpxtpx:atemp>2.2</gpxtpx:atemp></gpxtpx:TrackPointExtension></extensions></trkpt><trkpt lat="42.2215342987" lon="13.4151121415"><ele>1600.51</ele><time>2026-03-11T16:29:52Z</time><extensions><gpxtpx:TrackPointExtension><gpxtpx:atemp>2.2</gpxtpx:atemp></gpxtpx:TrackPointExtension></extensions></trkpt><trkpt lat="42.2215343826" lon="13.4151121415"><ele>1600.59</ele><time>2026-03-11T16:29:53Z</time><extensions><gpxtpx:TrackPointExtension><gpxtpx:atemp>2.2</gpxtpx:atemp></gpxtpx:TrackPointExtension></extensions></trkpt><trkpt lat="42.2215342987" lon="13.4151121415"><ele>1600.70</ele><time>2026-03-11T16:29:54Z</time><extensions><gpxtpx:TrackPointExtension><gpxtpx:atemp>2.2</gpxtpx:atemp></gpxtpx:TrackPointExtension></extensions></trkpt><trkpt lat="42.2215342987" lon="13.4151120577"><ele>1600.86</ele><time>2026-03-11T16:29:55Z</time><extensions><gpxtpx:TrackPointExtension><gpxtpx:atemp>2.2</gpxtpx:atemp></gpxtpx:TrackPointExtension></extensions></trkpt><trkpt lat="42.2215339635" lon="13.4151114710"><ele>1601.02</ele><time>2026-03-11T16:29:56Z</time><extensions><gpxtpx:TrackPointExtension><gpxtpx:atemp>2.2</gpxtpx:atemp></gpxtpx:TrackPointExtension></extensions></trkpt><trkpt lat="42.2215337958" lon="13.4151118901"><ele>1601.14</ele><time>2026-03-11T16:29:57Z</time><extensions><gpxtpx:TrackPointExtension><gpxtpx:atemp>2.2</gpxtpx:atemp></gpxtpx:TrackPointExtension></extensions></trkpt><trkpt lat="42.2215342987" lon="13.4151120577"><ele>1601.30</ele><time>2026-03-11T16:29:58Z</time><extensions><gpxtpx:TrackPointExtension><gpxtpx:atemp>2.2</gpxtpx:atemp></gpxtpx:TrackPointExtension></extensions></trkpt><trkpt lat="42.2215340473" lon="13.4151123930"><ele>1601.38</ele><time>2026-03-11T16:29:59Z</time><extensions><gpxtpx:TrackPointExtension><gpxtpx:atemp>2.2</gpxtpx:atemp></gpxtpx:TrackPointExtension></extensions></trkpt><trkpt lat="42.2215343826" lon="13.4151117224"><ele>1601.45</ele><time>2026-03-11T16:30:00Z</time><extensions><gpxtpx:TrackPointExtension><gpxtpx:atemp>2.2</gpxtpx:atemp></gpxtpx:TrackPointExtension></extensions></trkpt><trkpt lat="42.2215348855" lon="13.4151114710"><ele>1601.53</ele><time>2026-03-11T16:30:01Z</time><extensions><gpxtpx:TrackPointExtension><gpxtpx:atemp>2.2</gpxtpx:atemp></gpxtpx:TrackPointExtension></extensions></trkpt><trkpt lat="42.2215348855" lon="13.4151112195"><ele>1601.61</ele><time>2026-03-11T16:30:02Z</time><extensions><gpxtpx:TrackPointExtension><gpxtpx:atemp>2.2</gpxtpx:atemp></gpxtpx:TrackPointExtension></extensions></trkpt><trkpt lat="42.2215345502" lon="13.4151112195"><ele>1601.68</ele><time>2026-03-11T16:30:03Z</time><extensions><gpxtpx:TrackPointExtension><gpxtpx:atemp>2.2</gpxtpx:atemp></gpxtpx:TrackPointExtension></extensions></trkpt><trkpt lat="42.2215345502" lon="13.4151105490"><ele>1601.79</ele><time>2026-03-11T16:30:04Z</time><extensions><gpxtpx:TrackPointExtension><gpxtpx:atemp>2.2</gpxtpx:atemp></gpxtpx:TrackPointExtension></extensions></trkpt><trkpt lat="42.2215333767" lon="13.4151102975"><ele>1601.87</ele><time>2026-03-11T16:30:05Z</time><extensions><gpxtpx:TrackPointExtension><gpxtpx:atemp>2.2</gpxtpx:atemp></gpxtpx:TrackPointExtension></extensions></trkpt><trkpt lat="42.2215321194" lon="13.4151106328"><ele>1601.91</ele><time>2026-03-11T16:30:06Z</time><extensions><gpxtpx:TrackPointExtension><gpxtpx:atemp>2.2</gpxtpx:atemp></gpxtpx:TrackPointExtension></extensions></trkpt><trkpt lat="42.2215318680" lon="13.4151106328"><ele>1601.93</ele><time>2026-03-11T16:30:07Z</time><extensions><gpxtpx:TrackPointExtension><gpxtpx:atemp>2.2</gpxtpx:atemp></gpxtpx:TrackPointExtension></extensions></trkpt><trkpt lat="42.2215314489" lon="13.4151096269"><ele>1601.87</ele><time>2026-03-11T16:30:08Z</time><extensions><gpxtpx:TrackPointExtension><gpxtpx:atemp>2.2</gpxtpx:atemp></gpxtpx:TrackPointExtension></extensions></trkpt><trkpt lat="42.2215323709" lon="13.4151107166"><ele>1601.71</ele><time>2026-03-11T16:30:09Z</time><extensions><gpxtpx:TrackPointExtension><gpxtpx:atemp>2.2</gpxtpx:atemp></gpxtpx:TrackPointExtension></extensions></trkpt><trkpt lat="42.2215322871" lon="13.4151112195"><ele>1601.44</ele><time>2026-03-11T16:30:10Z</time><extensions><gpxtpx:TrackPointExtension><gpxtpx:atemp>2.2</gpxtpx:atemp></gpxtpx:TrackPointExtension></extensions></trkpt><trkpt lat="42.2215324547" lon="13.4151119739"><ele>1601.39</ele><time>2026-03-11T16:30:11Z</time><extensions><gpxtpx:TrackPointExtension><gpxtpx:atemp>2.2</gpxtpx:atemp></gpxtpx:TrackPointExtension></extensions></trkpt><trkpt lat="42.2215317842" lon="13.4151121415"><ele>1601.51</ele><time>2026-03-11T16:30:12Z</time><extensions><gpxtpx:TrackPointExtension><gpxtpx:atemp>2.2</gpxtpx:atemp></gpxtpx:TrackPointExtension></extensions></trkpt><trkpt lat="42.2215328738" lon="13.4151131473"><ele>1601.99</ele><time>2026-03-11T16:30:13Z</time><extensions><gpxtpx:TrackPointExtension><gpxtpx:atemp>2.2</gpxtpx:atemp></gpxtpx:TrackPointExtension></extensions></trkpt><trkpt lat="42.2215335444" lon="13.4151132312"><ele>1603.12</ele><time>2026-03-11T16:30:14Z</time><extensions><gpxtpx:TrackPointExtension><gpxtpx:atemp>2.2</gpxtpx:atemp></gpxtpx:TrackPointExtension></extensions></trkpt><trkpt lat="42.2215332929" lon="13.4151128959"><ele>1604.57</ele><time>2026-03-11T16:30:15Z</time><extensions><gpxtpx:TrackPointExtension><gpxtpx:atemp>2.2</gpxtpx:atemp></gpxtpx:TrackPointExtension></extensions></trkpt><trkpt lat="42.2215335444" lon="13.4151131473"><ele>1605.68</ele><time>2026-03-11T16:30:16Z</time><extensions><gpxtpx:TrackPointExtension><gpxtpx:atemp>2.2</gpxtpx:atemp></gpxtpx:TrackPointExtension></extensions></trkpt><trkpt lat="42.2215337958" lon="13.4151126444"><ele>1606.29</ele><time>2026-03-11T16:30:17Z</time><extensions><gpxtpx:TrackPointExtension><gpxtpx:atemp>2.2</gpxtpx:atemp></gpxtpx:TrackPointExtension></extensions></trkpt><trkpt lat="42.2215339635" lon="13.4151128959"><ele>1606.63</ele><time>2026-03-11T16:30:18Z</time><extensions><gpxtpx:TrackPointExtension><gpxtpx:atemp>2.2</gpxtpx:atemp></gpxtpx:TrackPointExtension></extensions></trkpt><trkpt lat="42.2215337958" lon="13.4151128959"><ele>1606.83</ele><time>2026-03-11T16:30:19Z</time><extensions><gpxtpx:TrackPointExtension><gpxtpx:atemp>2.2</gpxtpx:atemp></gpxtpx:TrackPointExtension></extensions></trkpt><trkpt lat="42.2215337958" lon="13.4151128959"><ele>1606.94</ele><time>2026-03-11T16:30:20Z</time><extensions><gpxtpx:TrackPointExtension><gpxtpx:atemp>2.2</gpxtpx:atemp></gpxtpx:TrackPointExtension></extensions></trkpt><trkpt lat="42.2215338796" lon="13.4151128959"><ele>1607.02</ele><time>2026-03-11T16:30:21Z</time><extensions><gpxtpx:TrackPointExtension><gpxtpx:atemp>2.2</gpxtpx:atemp></gpxtpx:TrackPointExtension></extensions></trkpt><trkpt lat="42.2215335444" lon="13.4151131473"><ele>1606.95</ele><time>2026-03-11T16:30:22Z</time><extensions><gpxtpx:TrackPointExtension><gpxtpx:atemp>2.2</gpxtpx:atemp></gpxtpx:TrackPointExtension></extensions></trkpt><trkpt lat="42.2215335444" lon="13.4151132312"><ele>1606.80</ele><time>2026-03-11T16:30:23Z</time><extensions><gpxtpx:TrackPointExtension><gpxtpx:atemp>2.2</gpxtpx:atemp></gpxtpx:TrackPointExtension></extensions></trkpt><trkpt lat="42.2215336282" lon="13.4151140694"><ele>1606.57</ele><time>2026-03-11T16:30:24Z</time><extensions><gpxtpx:TrackPointExtension><gpxtpx:atemp>2.2</gpxtpx:atemp></gpxtpx:TrackPointExtension></extensions></trkpt><trkpt lat="42.2215334605" lon="13.4151139855"><ele>1606.45</ele><time>2026-03-11T16:30:25Z</time><extensions><gpxtpx:TrackPointExtension><gpxtpx:atemp>2.2</gpxtpx:atemp></gpxtpx:TrackPointExtension></extensions></trkpt><trkpt lat="42.2215337958" lon="13.4151139855"><ele>1606.39</ele><time>2026-03-11T16:30:26Z</time><extensions><gpxtpx:TrackPointExtension><gpxtpx:atemp>2.2</gpxtpx:atemp></gpxtpx:TrackPointExtension></extensions></trkpt><trkpt lat="42.2215337958" lon="13.4151140694"><ele>1606.55</ele><time>2026-03-11T16:30:27Z</time><extensions><gpxtpx:TrackPointExtension><gpxtpx:atemp>2.2</gpxtpx:atemp></gpxtpx:TrackPointExtension></extensions></trkpt><trkpt lat="42.2215335444" lon="13.4151142370"><ele>1606.87</ele><time>2026-03-11T16:30:28Z</time><extensions><gpxtpx:TrackPointExtension><gpxtpx:atemp>2.2</gpxtpx:atemp></gpxtpx:TrackPointExtension></extensions></trkpt><trkpt lat="42.2215332929" lon="13.4151138179"><ele>1607.16</ele><time>2026-03-11T16:30:29Z</time><extensions><gpxtpx:TrackPointExtension><gpxtpx:atemp>2.2</gpxtpx:atemp></gpxtpx:TrackPointExtension></extensions></trkpt><trkpt lat="42.2215333767" lon="13.4151134826"><ele>1607.34</ele><time>2026-03-11T16:30:30Z</time><extensions><gpxtpx:TrackPointExtension><gpxtpx:atemp>2.2</gpxtpx:atemp></gpxtpx:TrackPointExtension></extensions></trkpt><trkpt lat="42.2215333767" lon="13.4151133988"><ele>1607.48</ele><time>2026-03-11T16:30:31Z</time><extensions><gpxtpx:TrackPointExtension><gpxtpx:atemp>2.2</gpxtpx:atemp></gpxtpx:TrackPointExtension></extensions></trkpt><trkpt lat="42.2215329576" lon="13.4151130635"><ele>1607.60</ele><time>2026-03-11T16:30:32Z</time><extensions><gpxtpx:TrackPointExtension><gpxtpx:atemp>2.2</gpxtpx:atemp></gpxtpx:TrackPointExtension></extensions></trkpt><trkpt lat="42.2215328738" lon="13.4151136503"><ele>1607.96</ele><time>2026-03-11T16:30:33Z</time><extensions><gpxtpx:TrackPointExtension><gpxtpx:atemp>2.2</gpxtpx:atemp></gpxtpx:TrackPointExtension></extensions></trkpt><trkpt lat="42.2215327900" lon="13.4151136503"><ele>1608.21</ele><time>2026-03-11T16:30:34Z</time><extensions><gpxtpx:TrackPointExtension><gpxtpx:atemp>2.2</gpxtpx:atemp></gpxtpx:TrackPointExtension></extensions></trkpt><trkpt lat="42.2215328738" lon="13.4151136503"><ele>1608.43</ele><time>2026-03-11T16:30:35Z</time><extensions><gpxtpx:TrackPointExtension><gpxtpx:atemp>2.2</gpxtpx:atemp></gpxtpx:TrackPointExtension></extensions></trkpt><trkpt lat="42.2215325385" lon="13.4151136503"><ele>1608.55</ele><time>2026-03-11T16:30:36Z</time><extensions><gpxtpx:TrackPointExtension><gpxtpx:atemp>2.2</gpxtpx:atemp></gpxtpx:TrackPointExtension></extensions></trkpt><trkpt lat="42.2215325385" lon="13.4151138179"><ele>1608.64</ele><time>2026-03-11T16:30:37Z</time><extensions><gpxtpx:TrackPointExtension><gpxtpx:atemp>2.2</gpxtpx:atemp></gpxtpx:TrackPointExtension></extensions></trkpt><trkpt lat="42.2215324547" lon="13.4151138179"><ele>1608.74</ele><time>2026-03-11T16:30:38Z</time><extensions><gpxtpx:TrackPointExtension><gpxtpx:atemp>2.2</gpxtpx:atemp></gpxtpx:TrackPointExtension></extensions></trkpt><trkpt lat="42.2215323709" lon="13.4151139855"><ele>1608.84</ele><time>2026-03-11T16:30:39Z</time><extensions><gpxtpx:TrackPointExtension><gpxtpx:atemp>2.2</gpxtpx:atemp></gpxtpx:TrackPointExtension></extensions></trkpt><trkpt lat="42.2215318680" lon="13.4151140694"><ele>1608.96</ele><time>2026-03-11T16:30:40Z</time><extensions><gpxtpx:TrackPointExtension><gpxtpx:atemp>2.2</gpxtpx:atemp></gpxtpx:TrackPointExtension></extensions></trkpt><trkpt lat="42.2215319518" lon="13.4151137341"><ele>1608.96</ele><time>2026-03-11T16:30:41Z</time><extensions><gpxtpx:TrackPointExtension><gpxtpx:atemp>2.2</gpxtpx:atemp></gpxtpx:TrackPointExtension></extensions></trkpt><trkpt lat="42.2215320356" lon="13.4151160810"><ele>1608.95</ele><time>2026-03-11T16:30:42Z</time><extensions><gpxtpx:TrackPointExtension><gpxtpx:atemp>2.2</gpxtpx:atemp></gpxtpx:TrackPointExtension></extensions></trkpt><trkpt lat="42.2215322871" lon="13.4151166677"><ele>1609.00</ele><time>2026-03-11T16:30:43Z</time><extensions><gpxtpx:TrackPointExtension><gpxtpx:atemp>2.2</gpxtpx:atemp></gpxtpx:TrackPointExtension></extensions></trkpt><trkpt lat="42.2215311974" lon="13.4151162487"><ele>1609.30</ele><time>2026-03-11T16:30:44Z</time><extensions><gpxtpx:TrackPointExtension><gpxtpx:atemp>2.2</gpxtpx:atemp></gpxtpx:TrackPointExtension></extensions></trkpt><trkpt lat="42.2215295210" lon="13.4151173383"><ele>1609.37</ele><time>2026-03-11T16:30:45Z</time><extensions><gpxtpx:TrackPointExtension><gpxtpx:atemp>2.2</gpxtpx:atemp></gpxtpx:TrackPointExtension></extensions></trkpt><trkpt lat="42.2215297725" lon="13.4151190985"><ele>1609.27</ele><time>2026-03-11T16:30:46Z</time><extensions><gpxtpx:TrackPointExtension><gpxtpx:atemp>2.2</gpxtpx:atemp></gpxtpx:TrackPointExtension></extensions></trkpt><trkpt lat="42.2215288505" lon="13.4151218645"><ele>1609.22</ele><time>2026-03-11T16:30:47Z</time><extensions><gpxtpx:TrackPointExtension><gpxtpx:atemp>2.2</gpxtpx:atemp></gpxtpx:TrackPointExtension></extensions></trkpt><trkpt lat="42.2215303592" lon="13.4151254687"><ele>1608.77</ele><time>2026-03-11T16:30:48Z</time><extensions><gpxtpx:TrackPointExtension><gpxtpx:atemp>2.2</gpxtpx:atemp></gpxtpx:TrackPointExtension></extensions></trkpt><trkpt lat="42.2215310298" lon="13.4151267260"><ele>1607.42</ele><time>2026-03-11T16:30:49Z</time><extensions><gpxtpx:TrackPointExtension><gpxtpx:atemp>2.2</gpxtpx:atemp></gpxtpx:TrackPointExtension></extensions></trkpt><trkpt lat="42.2215278447" lon="13.4151249658"><ele>1605.57</ele><time>2026-03-11T16:30:50Z</time><extensions><gpxtpx:TrackPointExtension><gpxtpx:atemp>2.2</gpxtpx:atemp></gpxtpx:TrackPointExtension></extensions></trkpt><trkpt lat="42.2215282638" lon="13.4151278995"><ele>1603.76</ele><time>2026-03-11T16:30:51Z</time><extensions><gpxtpx:TrackPointExtension><gpxtpx:atemp>2.2</gpxtpx:atemp></gpxtpx:TrackPointExtension></extensions></trkpt><trkpt lat="42.2215286829" lon="13.4151240438"><ele>1602.20</ele><time>2026-03-11T16:30:52Z</time><extensions><gpxtpx:TrackPointExtension><gpxtpx:atemp>2.2</gpxtpx:atemp></gpxtpx:TrackPointExtension></extensions></trkpt><trkpt lat="42.2215285990" lon="13.4151235409"><ele>1600.91</ele><time>2026-03-11T16:30:53Z</time><extensions><gpxtpx:TrackPointExtension><gpxtpx:atemp>2.2</gpxtpx:atemp></gpxtpx:TrackPointExtension></extensions></trkpt><trkpt lat="42.2215268388" lon="13.4151234571"><ele>1599.87</ele><time>2026-03-11T16:30:54Z</time><extensions><gpxtpx:TrackPointExtension><gpxtpx:atemp>2.2</gpxtpx:atemp></gpxtpx:TrackPointExtension></extensions></trkpt><trkpt lat="42.2215258330" lon="13.4151230380"><ele>1599.11</ele><time>2026-03-11T16:30:55Z</time><extensions><gpxtpx:TrackPointExtension><gpxtpx:atemp>2.2</gpxtpx:atemp></gpxtpx:TrackPointExtension></extensions></trkpt><trkpt lat="42.2215272579" lon="13.4151202720"><ele>1598.17</ele><time>2026-03-11T16:30:56Z</time><extensions><gpxtpx:TrackPointExtension><gpxtpx:atemp>2.2</gpxtpx:atemp></gpxtpx:TrackPointExtension></extensions></trkpt><trkpt lat="42.2215275932" lon="13.4151190985"><ele>1597.83</ele><time>2026-03-11T16:30:57Z</time><extensions><gpxtpx:TrackPointExtension><gpxtpx:atemp>2.2</gpxtpx:atemp></gpxtpx:TrackPointExtension></extensions></trkpt><trkpt lat="42.2215276770" lon="13.4151189309"><ele>1597.59</ele><time>2026-03-11T16:30:58Z</time><extensions><gpxtpx:TrackPointExtension><gpxtpx:atemp>2.2</gpxtpx:atemp></gpxtpx:TrackPointExtension></extensions></trkpt><trkpt lat="42.2215279285" lon="13.4151174221"><ele>1597.40</ele><time>2026-03-11T16:30:59Z</time><extensions><gpxtpx:TrackPointExtension><gpxtpx:atemp>2.2</gpxtpx:atemp></gpxtpx:TrackPointExtension></extensions></trkpt><trkpt lat="42.2215297725" lon="13.4151162487"><ele>1597.19</ele><time>2026-03-11T16:31:00Z</time><extensions><gpxtpx:TrackPointExtension><gpxtpx:atemp>2.2</gpxtpx:atemp></gpxtpx:TrackPointExtension></extensions></trkpt><trkpt lat="42.2215290181" lon="13.4151149914"><ele>1596.98</ele><time>2026-03-11T16:31:01Z</time><extensions><gpxtpx:TrackPointExtension><gpxtpx:atemp>2.2</gpxtpx:atemp></gpxtpx:TrackPointExtension></extensions></trkpt><trkpt lat="42.2215297725" lon="13.4151136503"><ele>1596.76</ele><time>2026-03-11T16:31:02Z</time><extensions><gpxtpx:TrackPointExtension><gpxtpx:atemp>2.2</gpxtpx:atemp></gpxtpx:TrackPointExtension></extensions></trkpt><trkpt lat="42.2215293534" lon="13.4151130635"><ele>1596.58</ele><time>2026-03-11T16:31:03Z</time><extensions><gpxtpx:TrackPointExtension><gpxtpx:atemp>2.2</gpxtpx:atemp></gpxtpx:TrackPointExtension></extensions></trkpt><trkpt lat="42.2215286829" lon="13.4151119739"><ele>1596.47</ele><time>2026-03-11T16:31:04Z</time><extensions><gpxtpx:TrackPointExtension><gpxtpx:atemp>2.2</gpxtpx:atemp></gpxtpx:TrackPointExtension></extensions></trkpt><trkpt lat="42.2215284314" lon="13.4151116386"><ele>1596.36</ele><time>2026-03-11T16:31:05Z</time><extensions><gpxtpx:TrackPointExtension><gpxtpx:atemp>2.2</gpxtpx:atemp></gpxtpx:TrackPointExtension></extensions></trkpt><trkpt lat="42.2215259168" lon="13.4151104651"><ele>1596.26</ele><time>2026-03-11T16:31:06Z</time><extensions><gpxtpx:TrackPointExtension><gpxtpx:atemp>2.2</gpxtpx:atemp></gpxtpx:TrackPointExtension></extensions></trkpt><trkpt lat="42.2215261683" lon="13.4151121415"><ele>1596.09</ele><time>2026-03-11T16:31:07Z</time><extensions><gpxtpx:TrackPointExtension><gpxtpx:atemp>2.2</gpxtpx:atemp></gpxtpx:TrackPointExtension></extensions></trkpt><trkpt lat="42.2215251625" lon="13.4151114710"><ele>1596.02</ele><time>2026-03-11T16:31:08Z</time><extensions><gpxtpx:TrackPointExtension><gpxtpx:atemp>2.2</gpxtpx:atemp></gpxtpx:TrackPointExtension></extensions></trkpt><trkpt lat="42.2215253301" lon="13.4151126444"><ele>1595.97</ele><time>2026-03-11T16:31:09Z</time><extensions><gpxtpx:TrackPointExtension><gpxtpx:atemp>2.2</gpxtpx:atemp></gpxtpx:TrackPointExtension></extensions></trkpt><trkpt lat="42.2215252463" lon="13.4151122253"><ele>1595.95</ele><time>2026-03-11T16:31:10Z</time><extensions><gpxtpx:TrackPointExtension><gpxtpx:atemp>2.2</gpxtpx:atemp></gpxtpx:TrackPointExtension></extensions></trkpt><trkpt lat="42.2215250786" lon="13.4151125606"><ele>1595.94</ele><time>2026-03-11T16:31:11Z</time><extensions><gpxtpx:TrackPointExtension><gpxtpx:atemp>2.2</gpxtpx:atemp></gpxtpx:TrackPointExtension></extensions></trkpt><trkpt lat="42.2215237375" lon="13.4151098784"><ele>1595.92</ele><time>2026-03-11T16:31:12Z</time><extensions><gpxtpx:TrackPointExtension><gpxtpx:atemp>2.2</gpxtpx:atemp></gpxtpx:TrackPointExtension></extensions></trkpt><trkpt lat="42.2215196304" lon="13.4151069447"><ele>1595.92</ele><time>2026-03-11T16:31:13Z</time><extensions><gpxtpx:TrackPointExtension><gpxtpx:atemp>2.2</gpxtpx:atemp></gpxtpx:TrackPointExtension></extensions></trkpt><trkpt lat="42.2215213906" lon="13.4150975570"><ele>1595.93</ele><time>2026-03-11T16:31:14Z</time><extensions><gpxtpx:TrackPointExtension><gpxtpx:atemp>2.2</gpxtpx:atemp></gpxtpx:TrackPointExtension></extensions></trkpt><trkpt lat="42.2215217259" lon="13.4150953777"><ele>1595.94</ele><time>2026-03-11T16:31:15Z</time><extensions><gpxtpx:TrackPointExtension><gpxtpx:atemp>2.2</gpxtpx:atemp></gpxtpx:TrackPointExtension></extensions></trkpt><trkpt lat="42.2215210553" lon="13.4150952939"><ele>1595.94</ele><time>2026-03-11T16:31:16Z</time><extensions><gpxtpx:TrackPointExtension><gpxtpx:atemp>2.2</gpxtpx:atemp></gpxtpx:TrackPointExtension></extensions></trkpt><trkpt lat="42.2215201333" lon="13.4150940366"><ele>1595.97</ele><time>2026-03-11T16:31:17Z</time><extensions><gpxtpx:TrackPointExtension><gpxtpx:atemp>2.2</gpxtpx:atemp></gpxtpx:TrackPointExtension></extensions></trkpt><trkpt lat="42.2215190437" lon="13.4150956292"><ele>1596.00</ele><time>2026-03-11T16:31:18Z</time><extensions><gpxtpx:TrackPointExtension><gpxtpx:atemp>2.2</gpxtpx:atemp></gpxtpx:TrackPointExtension></extensions></trkpt><trkpt lat="42.2215189599" lon="13.4150971379"><ele>1596.03</ele><time>2026-03-11T16:31:19Z</time><extensions><gpxtpx:TrackPointExtension><gpxtpx:atemp>2.2</gpxtpx:atemp></gpxtpx:TrackPointExtension></extensions></trkpt><trkpt lat="42.2215203848" lon="13.4150940366"><ele>1596.03</ele><time>2026-03-11T16:31:20Z</time><extensions><gpxtpx:TrackPointExtension><gpxtpx:atemp>2.2</gpxtpx:atemp></gpxtpx:TrackPointExtension></extensions></trkpt><trkpt lat="42.2215213906" lon="13.4150967188"><ele>1596.05</ele><time>2026-03-11T16:31:21Z</time><extensions><gpxtpx:TrackPointExtension><gpxtpx:atemp>2.2</gpxtpx:atemp></gpxtpx:TrackPointExtension></extensions></trkpt><trkpt lat="42.2215216421" lon="13.4150976408"><ele>1596.11</ele><time>2026-03-11T16:31:22Z</time><extensions><gpxtpx:TrackPointExtension><gpxtpx:atemp>2.2</gpxtpx:atemp></gpxtpx:TrackPointExtension></extensions></trkpt><trkpt lat="42.2215212230" lon="13.4150956292"><ele>1596.14</ele><time>2026-03-11T16:31:23Z</time><extensions><gpxtpx:TrackPointExtension><gpxtpx:atemp>2.2</gpxtpx:atemp></gpxtpx:TrackPointExtension></extensions></trkpt><trkpt lat="42.2215211391" lon="13.4150955454"><ele>1596.21</ele><time>2026-03-11T16:31:24Z</time><extensions><gpxtpx:TrackPointExtension><gpxtpx:atemp>2.2</gpxtpx:atemp></gpxtpx:TrackPointExtension></extensions></trkpt><trkpt lat="42.2215206362" lon="13.4150973894"><ele>1596.29</ele><time>2026-03-11T16:31:25Z</time><extensions><gpxtpx:TrackPointExtension><gpxtpx:atemp>2.2</gpxtpx:atemp></gpxtpx:TrackPointExtension></extensions></trkpt><trkpt lat="42.2215211391" lon="13.4150966350"><ele>1596.40</ele><time>2026-03-11T16:31:26Z</time><extensions><gpxtpx:TrackPointExtension><gpxtpx:atemp>2.2</gpxtpx:atemp></gpxtpx:TrackPointExtension></extensions></trkpt><trkpt lat="42.2215218935" lon="13.4150968865"><ele>1596.53</ele><time>2026-03-11T16:31:27Z</time><extensions><gpxtpx:TrackPointExtension><gpxtpx:atemp>2.2</gpxtpx:atemp></gpxtpx:TrackPointExtension></extensions></trkpt><trkpt lat="42.2215219773" lon="13.4150969703"><ele>1596.61</ele><time>2026-03-11T16:31:28Z</time><extensions><gpxtpx:TrackPointExtension><gpxtpx:atemp>2.2</gpxtpx:atemp></gpxtpx:TrackPointExtension></extensions></trkpt><trkpt lat="42.2215234861" lon="13.4150978923"><ele>1596.58</ele><time>2026-03-11T16:31:29Z</time><extensions><gpxtpx:TrackPointExtension><gpxtpx:atemp>2.2</gpxtpx:atemp></gpxtpx:TrackPointExtension></extensions></trkpt><trkpt lat="42.2215239890" lon="13.4150964674"><ele>1596.38</ele><time>2026-03-11T16:31:30Z</time><extensions><gpxtpx:TrackPointExtension><gpxtpx:atemp>2.2</gpxtpx:atemp></gpxtpx:TrackPointExtension></extensions></trkpt><trkpt lat="42.2215243243" lon="13.4151031729"><ele>1596.20</ele><time>2026-03-11T16:31:31Z</time><extensions><gpxtpx:TrackPointExtension><gpxtpx:atemp>2.2</gpxtpx:atemp></gpxtpx:TrackPointExtension></extensions></trkpt><trkpt lat="42.2215238214" lon="13.4151010774"><ele>1596.05</ele><time>2026-03-11T16:31:32Z</time><extensions><gpxtpx:TrackPointExtension><gpxtpx:atemp>2.0</gpxtpx:atemp></gpxtpx:TrackPointExtension></extensions></trkpt><trkpt lat="42.2215229832" lon="13.4151003230"><ele>1595.97</ele><time>2026-03-11T16:31:33Z</time><extensions><gpxtpx:TrackPointExtension><gpxtpx:atemp>2.0</gpxtpx:atemp></gpxtpx:TrackPointExtension></extensions></trkpt><trkpt lat="42.2215216421" lon="13.4151010774"><ele>1595.94</ele><time>2026-03-11T16:31:34Z</time><extensions><gpxtpx:TrackPointExtension><gpxtpx:atemp>2.0</gpxtpx:atemp></gpxtpx:TrackPointExtension></extensions></trkpt><trkpt lat="42.2215217259" lon="13.4151037596"><ele>1595.96</ele><time>2026-03-11T16:31:35Z</time><extensions><gpxtpx:TrackPointExtension><gpxtpx:atemp>2.0</gpxtpx:atemp></gpxtpx:TrackPointExtension></extensions></trkpt><trkpt lat="42.2215229832" lon="13.4151014965"><ele>1596.00</ele><time>2026-03-11T16:31:36Z</time><extensions><gpxtpx:TrackPointExtension><gpxtpx:atemp>2.0</gpxtpx:atemp></gpxtpx:TrackPointExtension></extensions></trkpt><trkpt lat="42.2215246595" lon="13.4151006583"><ele>1596.03</ele><time>2026-03-11T16:31:37Z</time><extensions><gpxtpx:TrackPointExtension><gpxtpx:atemp>2.0</gpxtpx:atemp></gpxtpx:TrackPointExtension></extensions></trkpt><trkpt lat="42.2215246595" lon="13.4151023347"><ele>1596.11</ele><time>2026-03-11T16:31:38Z</time><extensions><gpxtpx:TrackPointExtension><gpxtpx:atemp>2.0</gpxtpx:atemp></gpxtpx:TrackPointExtension></extensions></trkpt><trkpt lat="42.2215255816" lon="13.4151078667"><ele>1596.18</ele><time>2026-03-11T16:31:39Z</time><extensions><gpxtpx:TrackPointExtension><gpxtpx:atemp>2.0</gpxtpx:atemp></gpxtpx:TrackPointExtension></extensions></trkpt><trkpt lat="42.2215255816" lon="13.4151148237"><ele>1596.22</ele><time>2026-03-11T16:31:40Z</time><extensions><gpxtpx:TrackPointExtension><gpxtpx:atemp>2.0</gpxtpx:atemp></gpxtpx:TrackPointExtension></extensions></trkpt><trkpt lat="42.2215241566" lon="13.4151156619"><ele>1596.22</ele><time>2026-03-11T16:31:41Z</time><extensions><gpxtpx:TrackPointExtension><gpxtpx:atemp>2.0</gpxtpx:atemp></gpxtpx:TrackPointExtension></extensions></trkpt><trkpt lat="42.2215225641" lon="13.4151175898"><ele>1596.22</ele><time>2026-03-11T16:31:42Z</time><extensions><gpxtpx:TrackPointExtension><gpxtpx:atemp>2.0</gpxtpx:atemp></gpxtpx:TrackPointExtension></extensions></trkpt><trkpt lat="42.2215221450" lon="13.4151235409"><ele>1596.22</ele><time>2026-03-11T16:31:43Z</time><extensions><gpxtpx:TrackPointExtension><gpxtpx:atemp>2.0</gpxtpx:atemp></gpxtpx:TrackPointExtension></extensions></trkpt><trkpt lat="42.2215223964" lon="13.4151232895"><ele>1596.18</ele><time>2026-03-11T16:31:44Z</time><extensions><gpxtpx:TrackPointExtension><gpxtpx:atemp>2.0</gpxtpx:atemp></gpxtpx:TrackPointExtension></extensions></trkpt><trkpt lat="42.2215233184" lon="13.4151229542"><ele>1596.17</ele><time>2026-03-11T16:31:45Z</time><extensions><gpxtpx:TrackPointExtension><gpxtpx:atemp>2.0</gpxtpx:atemp></gpxtpx:TrackPointExtension></extensions></trkpt><trkpt lat="42.2215237375" lon="13.4151233733"><ele>1596.16</ele><time>2026-03-11T16:31:46Z</time><extensions><gpxtpx:TrackPointExtension><gpxtpx:atemp>2.0</gpxtpx:atemp></gpxtpx:TrackPointExtension></extensions></trkpt><trkpt lat="42.2215238214" lon="13.4151218645"><ele>1596.20</ele><time>2026-03-11T16:31:47Z</time><extensions><gpxtpx:TrackPointExtension><gpxtpx:atemp>2.0</gpxtpx:atemp></gpxtpx:TrackPointExtension></extensions></trkpt><trkpt lat="42.2215247434" lon="13.4151227865"><ele>1596.22</ele><time>2026-03-11T16:31:48Z</time><extensions><gpxtpx:TrackPointExtension><gpxtpx:atemp>2.0</gpxtpx:atemp></gpxtpx:TrackPointExtension></extensions></trkpt><trkpt lat="42.2215255816" lon="13.4151265584"><ele>1596.28</ele><time>2026-03-11T16:31:49Z</time><extensions><gpxtpx:TrackPointExtension><gpxtpx:atemp>2.0</gpxtpx:atemp></gpxtpx:TrackPointExtension></extensions></trkpt><trkpt lat="42.2215261683" lon="13.4151267260"><ele>1596.33</ele><time>2026-03-11T16:31:50Z</time><extensions><gpxtpx:TrackPointExtension><gpxtpx:atemp>2.0</gpxtpx:atemp></gpxtpx:TrackPointExtension></extensions></trkpt><trkpt lat="42.2215269227" lon="13.4151266422"><ele>1596.38</ele><time>2026-03-11T16:31:51Z</time><extensions><gpxtpx:TrackPointExtension><gpxtpx:atemp>2.0</gpxtpx:atemp></gpxtpx:TrackPointExtension></extensions></trkpt><trkpt lat="42.2215264197" lon="13.4151269775"><ele>1596.44</ele><time>2026-03-11T16:31:52Z</time><extensions><gpxtpx:TrackPointExtension><gpxtpx:atemp>2.0</gpxtpx:atemp></gpxtpx:TrackPointExtension></extensions></trkpt><trkpt lat="42.2215270903" lon="13.4151267260"><ele>1596.52</ele><time>2026-03-11T16:31:53Z</time><extensions><gpxtpx:TrackPointExtension><gpxtpx:atemp>2.0</gpxtpx:atemp></gpxtpx:TrackPointExtension></extensions></trkpt><trkpt lat="42.2215259168" lon="13.4151272289"><ele>1596.56</ele><time>2026-03-11T16:31:54Z</time><extensions><gpxtpx:TrackPointExtension><gpxtpx:atemp>2.0</gpxtpx:atemp></gpxtpx:TrackPointExtension></extensions></trkpt><trkpt lat="42.2215231508" lon="13.4151383769"><ele>1596.58</ele><time>2026-03-11T16:31:55Z</time><extensions><gpxtpx:TrackPointExtension><gpxtpx:atemp>2.0</gpxtpx:atemp></gpxtpx:TrackPointExtension></extensions></trkpt><trkpt lat="42.2215207200" lon="13.4151474293"><ele>1596.59</ele><time>2026-03-11T16:31:56Z</time><extensions><gpxtpx:TrackPointExtension><gpxtpx:atemp>2.0</gpxtpx:atemp></gpxtpx:TrackPointExtension></extensions></trkpt><trkpt lat="42.2215203848" lon="13.4151478484"><ele>1596.59</ele><time>2026-03-11T16:31:57Z</time><extensions><gpxtpx:TrackPointExtension><gpxtpx:atemp>2.0</gpxtpx:atemp></gpxtpx:TrackPointExtension></extensions></trkpt><trkpt lat="42.2215199657" lon="13.4151473455"><ele>1596.54</ele><time>2026-03-11T16:31:58Z</time><extensions><gpxtpx:TrackPointExtension><gpxtpx:atemp>2.0</gpxtpx:atemp></gpxtpx:TrackPointExtension></extensions></trkpt><trkpt lat="42.2215207200" lon="13.4151463397"><ele>1596.50</ele><time>2026-03-11T16:31:59Z</time><extensions><gpxtpx:TrackPointExtension><gpxtpx:atemp>2.0</gpxtpx:atemp></gpxtpx:TrackPointExtension></extensions></trkpt><trkpt lat="42.2215209715" lon="13.4151441604"><ele>1596.48</ele><time>2026-03-11T16:32:00Z</time><extensions><gpxtpx:TrackPointExtension><gpxtpx:atemp>2.0</gpxtpx:atemp></gpxtpx:TrackPointExtension></extensions></trkpt><trkpt lat="42.2215205524" lon="13.4151414782"><ele>1596.47</ele><time>2026-03-11T16:32:01Z</time><extensions><gpxtpx:TrackPointExtension><gpxtpx:atemp>2.0</gpxtpx:atemp></gpxtpx:TrackPointExtension></extensions></trkpt><trkpt lat="42.2215208877" lon="13.4151400533"><ele>1596.48</ele><time>2026-03-11T16:32:02Z</time><extensions><gpxtpx:TrackPointExtension><gpxtpx:atemp>2.0</gpxtpx:atemp></gpxtpx:TrackPointExtension></extensions></trkpt><trkpt lat="42.2215193789" lon="13.4151392989"><ele>1596.50</ele><time>2026-03-11T16:32:03Z</time><extensions><gpxtpx:TrackPointExtension><gpxtpx:atemp>2.0</gpxtpx:atemp></gpxtpx:TrackPointExtension></extensions></trkpt><trkpt lat="42.2215206362" lon="13.4151366167"><ele>1596.54</ele><time>2026-03-11T16:32:04Z</time><extensions><gpxtpx:TrackPointExtension><gpxtpx:atemp>2.0</gpxtpx:atemp></gpxtpx:TrackPointExtension></extensions></trkpt><trkpt lat="42.2215212230" lon="13.4151348565"><ele>1596.57</ele><time>2026-03-11T16:32:05Z</time><extensions><gpxtpx:TrackPointExtension><gpxtpx:atemp>2.0</gpxtpx:atemp></gpxtpx:TrackPointExtension></extensions></trkpt><trkpt lat="42.2215221450" lon="13.4151332639"><ele>1596.57</ele><time>2026-03-11T16:32:06Z</time><extensions><gpxtpx:TrackPointExtension><gpxtpx:atemp>2.0</gpxtpx:atemp></gpxtpx:TrackPointExtension></extensions></trkpt><trkpt lat="42.2215237375" lon="13.4151306655"><ele>1596.58</ele><time>2026-03-11T16:32:07Z</time><extensions><gpxtpx:TrackPointExtension><gpxtpx:atemp>2.0</gpxtpx:atemp></gpxtpx:TrackPointExtension></extensions></trkpt><trkpt lat="42.2215235699" lon="13.4151279833"><ele>1596.58</ele><time>2026-03-11T16:32:08Z</time><extensions><gpxtpx:TrackPointExtension><gpxtpx:atemp>2.0</gpxtpx:atemp></gpxtpx:TrackPointExtension></extensions></trkpt><trkpt lat="42.2215237375" lon="13.4151276480"><ele>1596.59</ele><time>2026-03-11T16:32:09Z</time><extensions><gpxtpx:TrackPointExtension><gpxtpx:atemp>2.0</gpxtpx:atemp></gpxtpx:TrackPointExtension></extensions></trkpt><trkpt lat="42.2215227317" lon="13.4151245467"><ele>1596.56</ele><time>2026-03-11T16:32:10Z</time><extensions><gpxtpx:TrackPointExtension><gpxtpx:atemp>2.0</gpxtpx:atemp></gpxtpx:TrackPointExtension></extensions></trkpt><trkpt lat="42.2215210553" lon="13.4151243791"><ele>1596.56</ele><time>2026-03-11T16:32:11Z</time><extensions><gpxtpx:TrackPointExtension><gpxtpx:atemp>2.0</gpxtpx:atemp></gpxtpx:TrackPointExtension></extensions></trkpt><trkpt lat="42.2215214744" lon="13.4151254687"><ele>1596.58</ele><time>2026-03-11T16:32:12Z</time><extensions><gpxtpx:TrackPointExtension><gpxtpx:atemp>2.0</gpxtpx:atemp></gpxtpx:TrackPointExtension></extensions></trkpt><trkpt lat="42.2215219773" lon="13.4151368681"><ele>1596.57</ele><time>2026-03-11T16:32:13Z</time><extensions><gpxtpx:TrackPointExtension><gpxtpx:atemp>2.0</gpxtpx:atemp></gpxtpx:TrackPointExtension></extensions></trkpt><trkpt lat="42.2215248272" lon="13.4151390474"><ele>1596.57</ele><time>2026-03-11T16:32:14Z</time><extensions><gpxtpx:TrackPointExtension><gpxtpx:atemp>2.0</gpxtpx:atemp></gpxtpx:TrackPointExtension></extensions></trkpt><trkpt lat="42.2215250786" lon="13.4151328448"><ele>1596.54</ele><time>2026-03-11T16:32:15Z</time><extensions><gpxtpx:TrackPointExtension><gpxtpx:atemp>2.0</gpxtpx:atemp></gpxtpx:TrackPointExtension></extensions></trkpt><trkpt lat="42.2215244919" lon="13.4151366167"><ele>1596.37</ele><time>2026-03-11T16:32:16Z</time><extensions><gpxtpx:TrackPointExtension><gpxtpx:atemp>2.0</gpxtpx:atemp></gpxtpx:TrackPointExtension></extensions></trkpt><trkpt lat="42.2215244919" lon="13.4151375387"><ele>1596.29</ele><time>2026-03-11T16:32:17Z</time><extensions><gpxtpx:TrackPointExtension><gpxtpx:atemp>2.0</gpxtpx:atemp></gpxtpx:TrackPointExtension></extensions></trkpt><trkpt lat="42.2215263359" lon="13.4151369520"><ele>1596.23</ele><time>2026-03-11T16:32:18Z</time><extensions><gpxtpx:TrackPointExtension><gpxtpx:atemp>2.0</gpxtpx:atemp></gpxtpx:TrackPointExtension></extensions></trkpt><trkpt lat="42.2215262521" lon="13.4151395503"><ele>1596.19</ele><time>2026-03-11T16:32:19Z</time><extensions><gpxtpx:TrackPointExtension><gpxtpx:atemp>2.0</gpxtpx:atemp></gpxtpx:TrackPointExtension></extensions></trkpt><trkpt lat="42.2215272579" lon="13.4151419811"><ele>1596.16</ele><time>2026-03-11T16:32:20Z</time><extensions><gpxtpx:TrackPointExtension><gpxtpx:atemp>2.0</gpxtpx:atemp></gpxtpx:TrackPointExtension></extensions></trkpt><trkpt lat="42.2215254977" lon="13.4151418973"><ele>1596.14</ele><time>2026-03-11T16:32:21Z</time><extensions><gpxtpx:TrackPointExtension><gpxtpx:atemp>2.0</gpxtpx:atemp></gpxtpx:TrackPointExtension></extensions></trkpt><trkpt lat="42.2215255816" lon="13.4151446633"><ele>1596.13</ele><time>2026-03-11T16:32:22Z</time><extensions><gpxtpx:TrackPointExtension><gpxtpx:atemp>2.0</gpxtpx:atemp></gpxtpx:TrackPointExtension></extensions></trkpt><trkpt lat="42.2215262521" lon="13.4151396342"><ele>1596.12</ele><time>2026-03-11T16:32:23Z</time><extensions><gpxtpx:TrackPointExtension><gpxtpx:atemp>2.0</gpxtpx:atemp></gpxtpx:TrackPointExtension></extensions></trkpt><trkpt lat="42.2215251625" lon="13.4151385445"><ele>1596.12</ele><time>2026-03-11T16:32:24Z</time><extensions><gpxtpx:TrackPointExtension><gpxtpx:atemp>2.0</gpxtpx:atemp></gpxtpx:TrackPointExtension></extensions></trkpt><trkpt lat="42.2215256654" lon="13.4151407238"><ele>1596.08</ele><time>2026-03-11T16:32:25Z</time><extensions><gpxtpx:TrackPointExtension><gpxtpx:atemp>2.0</gpxtpx:atemp></gpxtpx:TrackPointExtension></extensions></trkpt><trkpt lat="42.2215260845" lon="13.4151418973"><ele>1596.09</ele><time>2026-03-11T16:32:26Z</time><extensions><gpxtpx:TrackPointExtension><gpxtpx:atemp>2.0</gpxtpx:atemp></gpxtpx:TrackPointExtension></extensions></trkpt><trkpt lat="42.2215245757" lon="13.4151405562"><ele>1596.07</ele><time>2026-03-11T16:32:27Z</time><extensions><gpxtpx:TrackPointExtension><gpxtpx:atemp>2.0</gpxtpx:atemp></gpxtpx:TrackPointExtension></extensions></trkpt><trkpt lat="42.2215259168" lon="13.4151394665"><ele>1595.94</ele><time>2026-03-11T16:32:28Z</time><extensions><gpxtpx:TrackPointExtension><gpxtpx:atemp>2.0</gpxtpx:atemp></gpxtpx:TrackPointExtension></extensions></trkpt><trkpt lat="42.2215265874" lon="13.4151353594"><ele>1595.94</ele><time>2026-03-11T16:32:29Z</time><extensions><gpxtpx:TrackPointExtension><gpxtpx:atemp>2.0</gpxtpx:atemp></gpxtpx:TrackPointExtension></extensions></trkpt><trkpt lat="42.2215286829" lon="13.4151343536"><ele>1595.94</ele><time>2026-03-11T16:32:30Z</time><extensions><gpxtpx:TrackPointExtension><gpxtpx:atemp>2.0</gpxtpx:atemp></gpxtpx:TrackPointExtension></extensions></trkpt><trkpt lat="42.2215311974" lon="13.4151333477"><ele>1595.97</ele><time>2026-03-11T16:32:31Z</time><extensions><gpxtpx:TrackPointExtension><gpxtpx:atemp>2.0</gpxtpx:atemp></gpxtpx:TrackPointExtension></extensions></trkpt><trkpt lat="42.2215374839" lon="13.4151355270"><ele>1595.98</ele><time>2026-03-11T16:32:32Z</time><extensions><gpxtpx:TrackPointExtension><gpxtpx:atemp>1.8</gpxtpx:atemp></gpxtpx:TrackPointExtension></extensions></trkpt><trkpt lat="42.2215459496" lon="13.4151369520"><ele>1596.04</ele><time>2026-03-11T16:32:33Z</time><extensions><gpxtpx:TrackPointExtension><gpxtpx:atemp>1.8</gpxtpx:atemp></gpxtpx:TrackPointExtension></extensions></trkpt><trkpt lat="42.2215540800" lon="13.4151419811"><ele>1596.09</ele><time>2026-03-11T16:32:34Z</time><extensions><gpxtpx:TrackPointExtension><gpxtpx:atemp>1.8</gpxtpx:atemp></gpxtpx:TrackPointExtension></extensions></trkpt><trkpt lat="42.2215625457" lon="13.4151398856"><ele>1596.16</ele><time>2026-03-11T16:32:35Z</time><extensions><gpxtpx:TrackPointExtension><gpxtpx:atemp>1.8</gpxtpx:atemp></gpxtpx:TrackPointExtension></extensions></trkpt><trkpt lat="42.2215715982" lon="13.4151372872"><ele>1596.23</ele><time>2026-03-11T16:32:36Z</time><extensions><gpxtpx:TrackPointExtension><gpxtpx:atemp>1.8</gpxtpx:atemp></gpxtpx:TrackPointExtension></extensions></trkpt><trkpt lat="42.2215791419" lon="13.4151351918"><ele>1596.30</ele><time>2026-03-11T16:32:37Z</time><extensions><gpxtpx:TrackPointExtension><gpxtpx:atemp>1.8</gpxtpx:atemp></gpxtpx:TrackPointExtension></extensions></trkpt><trkpt lat="42.2215862665" lon="13.4151317552"><ele>1596.34</ele><time>2026-03-11T16:32:38Z</time><extensions><gpxtpx:TrackPointExtension><gpxtpx:atemp>1.8</gpxtpx:atemp></gpxtpx:TrackPointExtension></extensions></trkpt><trkpt lat="42.2215926368" lon="13.4151296597"><ele>1596.36</ele><time>2026-03-11T16:32:39Z</time><extensions><gpxtpx:TrackPointExtension><gpxtpx:atemp>1.8</gpxtpx:atemp></gpxtpx:TrackPointExtension></extensions></trkpt><trkpt lat="42.2216003481" lon="13.4151282348"><ele>1596.36</ele><time>2026-03-11T16:32:40Z</time><extensions><gpxtpx:TrackPointExtension><gpxtpx:atemp>1.8</gpxtpx:atemp></gpxtpx:TrackPointExtension></extensions></trkpt><trkpt lat="42.2216124181" lon="13.4151193500"><ele>1596.35</ele><time>2026-03-11T16:32:41Z</time><extensions><gpxtpx:TrackPointExtension><gpxtpx:atemp>1.8</gpxtpx:atemp></gpxtpx:TrackPointExtension></extensions></trkpt><trkpt lat="42.2216208838" lon="13.4151127283"><ele>1596.34</ele><time>2026-03-11T16:32:42Z</time><extensions><gpxtpx:TrackPointExtension><gpxtpx:atemp>1.8</gpxtpx:atemp></gpxtpx:TrackPointExtension></extensions></trkpt><trkpt lat="42.2216299362" lon="13.4151064418"><ele>1596.32</ele><time>2026-03-11T16:32:43Z</time><extensions><gpxtpx:TrackPointExtension><gpxtpx:atemp>1.8</gpxtpx:atemp></gpxtpx:TrackPointExtension></extensions></trkpt><trkpt lat="42.2216426767" lon="13.4151078667"><ele>1596.31</ele><time>2026-03-11T16:32:44Z</time><extensions><gpxtpx:TrackPointExtension><gpxtpx:atemp>1.8</gpxtpx:atemp></gpxtpx:TrackPointExtension></extensions></trkpt><trkpt lat="42.2216545790" lon="13.4151056875"><ele>1596.29</ele><time>2026-03-11T16:32:45Z</time><extensions><gpxtpx:TrackPointExtension><gpxtpx:atemp>1.8</gpxtpx:atemp></gpxtpx:TrackPointExtension></extensions></trkpt><trkpt lat="42.2216645535" lon="13.4151048493"><ele>1596.26</ele><time>2026-03-11T16:32:46Z</time><extensions><gpxtpx:TrackPointExtension><gpxtpx:atemp>1.8</gpxtpx:atemp></gpxtpx:TrackPointExtension></extensions></trkpt><trkpt lat="42.2216763720" lon="13.4151044302"><ele>1596.25</ele><time>2026-03-11T16:32:47Z</time><extensions><gpxtpx:TrackPointExtension><gpxtpx:atemp>1.8</gpxtpx:atemp></gpxtpx:TrackPointExtension></extensions></trkpt><trkpt lat="42.2216851730" lon="13.4151077829"><ele>1596.23</ele><time>2026-03-11T16:32:48Z</time><extensions><gpxtpx:TrackPointExtension><gpxtpx:atemp>1.8</gpxtpx:atemp></gpxtpx:TrackPointExtension></extensions></trkpt><trkpt lat="42.2216958180" lon="13.4151114710"><ele>1596.22</ele><time>2026-03-11T16:32:49Z</time><extensions><gpxtpx:TrackPointExtension><gpxtpx:atemp>1.8</gpxtpx:atemp></gpxtpx:TrackPointExtension></extensions></trkpt><trkpt lat="42.2217050381" lon="13.4151092917"><ele>1596.22</ele><time>2026-03-11T16:32:50Z</time><extensions><gpxtpx:TrackPointExtension><gpxtpx:atemp>1.8</gpxtpx:atemp></gpxtpx:TrackPointExtension></extensions></trkpt><trkpt lat="42.2217147611" lon="13.4151085373"><ele>1596.22</ele><time>2026-03-11T16:32:51Z</time><extensions><gpxtpx:TrackPointExtension><gpxtpx:atemp>1.8</gpxtpx:atemp></gpxtpx:TrackPointExtension></extensions></trkpt><trkpt lat="42.2217245679" lon="13.4151084535"><ele>1596.24</ele><time>2026-03-11T16:32:52Z</time><extensions><gpxtpx:TrackPointExtension><gpxtpx:atemp>1.8</gpxtpx:atemp></gpxtpx:TrackPointExtension></extensions></trkpt><trkpt lat="42.2217332851" lon="13.4151078667"><ele>1596.24</ele><time>2026-03-11T16:32:53Z</time><extensions><gpxtpx:TrackPointExtension><gpxtpx:atemp>1.8</gpxtpx:atemp></gpxtpx:TrackPointExtension></extensions></trkpt><trkpt lat="42.2217434272" lon="13.4151097946"><ele>1596.24</ele><time>2026-03-11T16:32:54Z</time><extensions><gpxtpx:TrackPointExtension><gpxtpx:atemp>1.8</gpxtpx:atemp></gpxtpx:TrackPointExtension></extensions></trkpt><trkpt lat="42.2217539884" lon="13.4151070286"><ele>1596.22</ele><time>2026-03-11T16:32:55Z</time><extensions><gpxtpx:TrackPointExtension><gpxtpx:atemp>1.8</gpxtpx:atemp></gpxtpx:TrackPointExtension></extensions></trkpt><trkpt lat="42.2217630409" lon="13.4151116386"><ele>1596.22</ele><time>2026-03-11T16:32:56Z</time><extensions><gpxtpx:TrackPointExtension><gpxtpx:atemp>1.8</gpxtpx:atemp></gpxtpx:TrackPointExtension></extensions></trkpt><trkpt lat="42.2217709199" lon="13.4151104651"><ele>1596.22</ele><time>2026-03-11T16:32:57Z</time><extensions><gpxtpx:TrackPointExtension><gpxtpx:atemp>1.8</gpxtpx:atemp></gpxtpx:TrackPointExtension></extensions></trkpt><trkpt lat="42.2217811458" lon="13.4151113871"><ele>1596.22</ele><time>2026-03-11T16:32:58Z</time><extensions><gpxtpx:TrackPointExtension><gpxtpx:atemp>1.8</gpxtpx:atemp></gpxtpx:TrackPointExtension></extensions></trkpt><trkpt lat="42.2217910364" lon="13.4151103813"><ele>1596.22</ele><time>2026-03-11T16:32:59Z</time><extensions><gpxtpx:TrackPointExtension><gpxtpx:atemp>1.8</gpxtpx:atemp></gpxtpx:TrackPointExtension></extensions></trkpt><trkpt lat="42.2217995860" lon="13.4151159972"><ele>1596.22</ele><time>2026-03-11T16:33:00Z</time><extensions><gpxtpx:TrackPointExtension><gpxtpx:atemp>1.8</gpxtpx:atemp></gpxtpx:TrackPointExtension></extensions></trkpt><trkpt lat="42.2218103986" lon="13.4151172545"><ele>1596.23</ele><time>2026-03-11T16:33:01Z</time><extensions><gpxtpx:TrackPointExtension><gpxtpx:atemp>1.8</gpxtpx:atemp></gpxtpx:TrackPointExtension></extensions></trkpt><trkpt lat="42.2218205407" lon="13.4151174221"><ele>1596.29</ele><time>2026-03-11T16:33:02Z</time><extensions><gpxtpx:TrackPointExtension><gpxtpx:atemp>1.8</gpxtpx:atemp></gpxtpx:TrackPointExtension></extensions></trkpt><trkpt lat="42.2218286712" lon="13.4151199367"><ele>1596.36</ele><time>2026-03-11T16:33:03Z</time><extensions><gpxtpx:TrackPointExtension><gpxtpx:atemp>1.8</gpxtpx:atemp></gpxtpx:TrackPointExtension></extensions></trkpt><trkpt lat="42.2218384780" lon="13.4151206911"><ele>1596.37</ele><time>2026-03-11T16:33:04Z</time><extensions><gpxtpx:TrackPointExtension><gpxtpx:atemp>1.8</gpxtpx:atemp></gpxtpx:TrackPointExtension></extensions></trkpt><trkpt lat="42.2218464408" lon="13.4151211940"><ele>1596.38</ele><time>2026-03-11T16:33:05Z</time><extensions><gpxtpx:TrackPointExtension><gpxtpx:atemp>1.8</gpxtpx:atemp></gpxtpx:TrackPointExtension></extensions></trkpt><trkpt lat="42.2218571696" lon="13.4151247982"><ele>1596.43</ele><time>2026-03-11T16:33:06Z</time><extensions><gpxtpx:TrackPointExtension><gpxtpx:atemp>1.8</gpxtpx:atemp></gpxtpx:TrackPointExtension></extensions></trkpt><trkpt lat="42.2218680661" lon="13.4151275642"><ele>1596.45</ele><time>2026-03-11T16:33:07Z</time><extensions><gpxtpx:TrackPointExtension><gpxtpx:atemp>1.8</gpxtpx:atemp></gpxtpx:TrackPointExtension></extensions></trkpt><trkpt lat="42.2218775377" lon="13.4151314199"><ele>1596.47</ele><time>2026-03-11T16:33:08Z</time><extensions><gpxtpx:TrackPointExtension><gpxtpx:atemp>1.8</gpxtpx:atemp></gpxtpx:TrackPointExtension></extensions></trkpt><trkpt lat="42.2218852490" lon="13.4151342697"><ele>1596.47</ele><time>2026-03-11T16:33:09Z</time><extensions><gpxtpx:TrackPointExtension><gpxtpx:atemp>1.8</gpxtpx:atemp></gpxtpx:TrackPointExtension></extensions></trkpt><trkpt lat="42.2218939662" lon="13.4151383769"><ele>1596.44</ele><time>2026-03-11T16:33:10Z</time><extensions><gpxtpx:TrackPointExtension><gpxtpx:atemp>1.8</gpxtpx:atemp></gpxtpx:TrackPointExtension></extensions></trkpt><trkpt lat="42.2219014261" lon="13.4151447471"><ele>1596.43</ele><time>2026-03-11T16:33:11Z</time><extensions><gpxtpx:TrackPointExtension><gpxtpx:atemp>1.8</gpxtpx:atemp></gpxtpx:TrackPointExtension></extensions></trkpt><trkpt lat="42.2219095565" lon="13.4151524585"><ele>1596.44</ele><time>2026-03-11T16:33:12Z</time><extensions><gpxtpx:TrackPointExtension><gpxtpx:atemp>1.8</gpxtpx:atemp></gpxtpx:TrackPointExtension></extensions></trkpt><trkpt lat="42.2219184414" lon="13.4151596669"><ele>1596.44</ele><time>2026-03-11T16:33:13Z</time><extensions><gpxtpx:TrackPointExtension><gpxtpx:atemp>1.8</gpxtpx:atemp></gpxtpx:TrackPointExtension></extensions></trkpt><trkpt lat="42.2219275776" lon="13.4151656181"><ele>1596.45</ele><time>2026-03-11T16:33:14Z</time><extensions><gpxtpx:TrackPointExtension><gpxtpx:atemp>1.8</gpxtpx:atemp></gpxtpx:TrackPointExtension></extensions></trkpt><trkpt lat="42.2219352890" lon="13.4151715692"><ele>1596.46</ele><time>2026-03-11T16:33:15Z</time><extensions><gpxtpx:TrackPointExtension><gpxtpx:atemp>1.8</gpxtpx:atemp></gpxtpx:TrackPointExtension></extensions></trkpt><trkpt lat="42.2219423298" lon="13.4151825495"><ele>1596.47</ele><time>2026-03-11T16:33:16Z</time><extensions><gpxtpx:TrackPointExtension><gpxtpx:atemp>1.8</gpxtpx:atemp></gpxtpx:TrackPointExtension></extensions></trkpt><trkpt lat="42.2219476942" lon="13.4151915181"><ele>1596.50</ele><time>2026-03-11T16:33:17Z</time><extensions><gpxtpx:TrackPointExtension><gpxtpx:atemp>1.8</gpxtpx:atemp></gpxtpx:TrackPointExtension></extensions></trkpt><trkpt lat="42.2219515499" lon="13.4152044263"><ele>1596.50</ele><time>2026-03-11T16:33:18Z</time><extensions><gpxtpx:TrackPointExtension><gpxtpx:atemp>1.8</gpxtpx:atemp></gpxtpx:TrackPointExtension></extensions></trkpt><trkpt lat="42.2219549865" lon="13.4152161609"><ele>1596.49</ele><time>2026-03-11T16:33:19Z</time><extensions><gpxtpx:TrackPointExtension><gpxtpx:atemp>1.8</gpxtpx:atemp></gpxtpx:TrackPointExtension></extensions></trkpt><trkpt lat="42.2219600994" lon="13.4152283985"><ele>1596.50</ele><time>2026-03-11T16:33:20Z</time><extensions><gpxtpx:TrackPointExtension><gpxtpx:atemp>1.8</gpxtpx:atemp></gpxtpx:TrackPointExtension></extensions></trkpt><trkpt lat="42.2219658829" lon="13.4152375348"><ele>1596.53</ele><time>2026-03-11T16:33:21Z</time><extensions><gpxtpx:TrackPointExtension><gpxtpx:atemp>1.8</gpxtpx:atemp></gpxtpx:TrackPointExtension></extensions></trkpt><trkpt lat="42.2219744325" lon="13.4152444918"><ele>1596.55</ele><time>2026-03-11T16:33:22Z</time><extensions><gpxtpx:TrackPointExtension><gpxtpx:atemp>1.8</gpxtpx:atemp></gpxtpx:TrackPointExtension></extensions></trkpt><trkpt lat="42.2219835687" lon="13.4152484313"><ele>1596.59</ele><time>2026-03-11T16:33:23Z</time><extensions><gpxtpx:TrackPointExtension><gpxtpx:atemp>1.8</gpxtpx:atemp></gpxtpx:TrackPointExtension></extensions></trkpt><trkpt lat="42.2219931241" lon="13.4152499400"><ele>1596.61</ele><time>2026-03-11T16:33:24Z</time><extensions><gpxtpx:TrackPointExtension><gpxtpx:atemp>1.8</gpxtpx:atemp></gpxtpx:TrackPointExtension></extensions></trkpt><trkpt lat="42.2220019251" lon="13.4152532928"><ele>1596.64</ele><time>2026-03-11T16:33:25Z</time><extensions><gpxtpx:TrackPointExtension><gpxtpx:atemp>1.8</gpxtpx:atemp></gpxtpx:TrackPointExtension></extensions></trkpt><trkpt lat="42.2220117319" lon="13.4152539633"><ele>1596.65</ele><time>2026-03-11T16:33:26Z</time><extensions><gpxtpx:TrackPointExtension><gpxtpx:atemp>1.8</gpxtpx:atemp></gpxtpx:TrackPointExtension></extensions></trkpt><trkpt lat="42.2220203653" lon="13.4152552206"><ele>1596.68</ele><time>2026-03-11T16:33:27Z</time><extensions><gpxtpx:TrackPointExtension><gpxtpx:atemp>1.8</gpxtpx:atemp></gpxtpx:TrackPointExtension></extensions></trkpt><trkpt lat="42.2220287472" lon="13.4152612556"><ele>1596.70</ele><time>2026-03-11T16:33:28Z</time><extensions><gpxtpx:TrackPointExtension><gpxtpx:atemp>1.8</gpxtpx:atemp></gpxtpx:TrackPointExtension></extensions></trkpt><trkpt lat="42.2220370453" lon="13.4152668715"><ele>1596.70</ele><time>2026-03-11T16:33:29Z</time><extensions><gpxtpx:TrackPointExtension><gpxtpx:atemp>1.8</gpxtpx:atemp></gpxtpx:TrackPointExtension></extensions></trkpt><trkpt lat="42.2220439184" lon="13.4152739961"><ele>1596.70</ele><time>2026-03-11T16:33:30Z</time><extensions><gpxtpx:TrackPointExtension><gpxtpx:atemp>1.8</gpxtpx:atemp></gpxtpx:TrackPointExtension></extensions></trkpt><trkpt lat="42.2220509592" lon="13.4152820427"><ele>1596.70</ele><time>2026-03-11T16:33:31Z</time><extensions><gpxtpx:TrackPointExtension><gpxtpx:atemp>1.8</gpxtpx:atemp></gpxtpx:TrackPointExtension></extensions></trkpt><trkpt lat="42.2220578324" lon="13.4152905922"><ele>1596.70</ele><time>2026-03-11T16:33:32Z</time><extensions><gpxtpx:TrackPointExtension><gpxtpx:atemp>2.2</gpxtpx:atemp></gpxtpx:TrackPointExtension></extensions></trkpt><trkpt lat="42.2220665496" lon="13.4152948670"><ele>1596.68</ele><time>2026-03-11T16:33:33Z</time><extensions><gpxtpx:TrackPointExtension><gpxtpx:atemp>2.2</gpxtpx:atemp></gpxtpx:TrackPointExtension></extensions></trkpt><trkpt lat="42.2220754344" lon="13.4152960405"><ele>1596.67</ele><time>2026-03-11T16:33:34Z</time><extensions><gpxtpx:TrackPointExtension><gpxtpx:atemp>2.2</gpxtpx:atemp></gpxtpx:TrackPointExtension></extensions></trkpt><trkpt lat="42.2220850736" lon="13.4152924363"><ele>1596.66</ele><time>2026-03-11T16:33:35Z</time><extensions><gpxtpx:TrackPointExtension><gpxtpx:atemp>2.2</gpxtpx:atemp></gpxtpx:TrackPointExtension></extensions></trkpt><trkpt lat="42.2220950481" lon="13.4152923524"><ele>1596.65</ele><time>2026-03-11T16:33:36Z</time><extensions><gpxtpx:TrackPointExtension><gpxtpx:atemp>2.2</gpxtpx:atemp></gpxtpx:TrackPointExtension></extensions></trkpt><trkpt lat="42.2221033461" lon="13.4152906761"><ele>1596.65</ele><time>2026-03-11T16:33:37Z</time><extensions><gpxtpx:TrackPointExtension><gpxtpx:atemp>2.2</gpxtpx:atemp></gpxtpx:TrackPointExtension></extensions></trkpt><trkpt lat="42.2221117280" lon="13.4152909275"><ele>1596.65</ele><time>2026-03-11T16:33:38Z</time><extensions><gpxtpx:TrackPointExtension><gpxtpx:atemp>2.2</gpxtpx:atemp></gpxtpx:TrackPointExtension></extensions></trkpt><trkpt lat="42.2221172601" lon="13.4152968787"><ele>1596.65</ele><time>2026-03-11T16:33:39Z</time><extensions><gpxtpx:TrackPointExtension><gpxtpx:atemp>2.2</gpxtpx:atemp></gpxtpx:TrackPointExtension></extensions></trkpt><trkpt lat="42.2221210320" lon="13.4153078590"><ele>1596.64</ele><time>2026-03-11T16:33:40Z</time><extensions><gpxtpx:TrackPointExtension><gpxtpx:atemp>2.2</gpxtpx:atemp></gpxtpx:TrackPointExtension></extensions></trkpt><trkpt lat="42.2221278213" lon="13.4153228626"><ele>1596.63</ele><time>2026-03-11T16:33:41Z</time><extensions><gpxtpx:TrackPointExtension><gpxtpx:atemp>2.2</gpxtpx:atemp></gpxtpx:TrackPointExtension></extensions></trkpt><trkpt lat="42.2221350297" lon="13.4153299872"><ele>1596.62</ele><time>2026-03-11T16:33:42Z</time><extensions><gpxtpx:TrackPointExtension><gpxtpx:atemp>2.2</gpxtpx:atemp></gpxtpx:TrackPointExtension></extensions></trkpt><trkpt lat="42.2221437469" lon="13.4153376985"><ele>1596.62</ele><time>2026-03-11T16:33:43Z</time><extensions><gpxtpx:TrackPointExtension><gpxtpx:atemp>2.2</gpxtpx:atemp></gpxtpx:TrackPointExtension></extensions></trkpt><trkpt lat="42.2221495304" lon="13.4153498523"><ele>1596.62</ele><time>2026-03-11T16:33:44Z</time><extensions><gpxtpx:TrackPointExtension><gpxtpx:atemp>2.2</gpxtpx:atemp></gpxtpx:TrackPointExtension></extensions></trkpt><trkpt lat="42.2221583314" lon="13.4153596591"><ele>1596.64</ele><time>2026-03-11T16:33:45Z</time><extensions><gpxtpx:TrackPointExtension><gpxtpx:atemp>2.2</gpxtpx:atemp></gpxtpx:TrackPointExtension></extensions></trkpt><trkpt lat="42.2221656237" lon="13.4153685439"><ele>1596.68</ele><time>2026-03-11T16:33:46Z</time><extensions><gpxtpx:TrackPointExtension><gpxtpx:atemp>2.2</gpxtpx:atemp></gpxtpx:TrackPointExtension></extensions></trkpt><trkpt lat="42.2221711557" lon="13.4153769258"><ele>1596.71</ele><time>2026-03-11T16:33:47Z</time><extensions><gpxtpx:TrackPointExtension><gpxtpx:atemp>2.2</gpxtpx:atemp></gpxtpx:TrackPointExtension></extensions></trkpt><trkpt lat="42.2221797891" lon="13.4153822903"><ele>1596.76</ele><time>2026-03-11T16:33:48Z</time><extensions><gpxtpx:TrackPointExtension><gpxtpx:atemp>2.2</gpxtpx:atemp></gpxtpx:TrackPointExtension></extensions></trkpt><trkpt lat="42.2221888416" lon="13.4153912589"><ele>1596.84</ele><time>2026-03-11T16:33:49Z</time><extensions><gpxtpx:TrackPointExtension><gpxtpx:atemp>2.2</gpxtpx:atemp></gpxtpx:TrackPointExtension></extensions></trkpt><trkpt lat="42.2221960500" lon="13.4153971262"><ele>1596.91</ele><time>2026-03-11T16:33:50Z</time><extensions><gpxtpx:TrackPointExtension><gpxtpx:atemp>2.2</gpxtpx:atemp></gpxtpx:TrackPointExtension></extensions></trkpt><trkpt lat="42.2222034261" lon="13.4154049214"><ele>1596.97</ele><time>2026-03-11T16:33:51Z</time><extensions><gpxtpx:TrackPointExtension><gpxtpx:atemp>2.2</gpxtpx:atemp></gpxtpx:TrackPointExtension></extensions></trkpt><trkpt lat="42.2222112212" lon="13.4154114593"><ele>1597.02</ele><time>2026-03-11T16:33:52Z</time><extensions><gpxtpx:TrackPointExtension><gpxtpx:atemp>2.2</gpxtpx:atemp></gpxtpx:TrackPointExtension></extensions></trkpt><trkpt lat="42.2222187649" lon="13.4154180810"><ele>1597.05</ele><time>2026-03-11T16:33:53Z</time><extensions><gpxtpx:TrackPointExtension><gpxtpx:atemp>2.2</gpxtpx:atemp></gpxtpx:TrackPointExtension></extensions></trkpt><trkpt lat="42.2222265601" lon="13.4154241998"><ele>1597.06</ele><time>2026-03-11T16:33:54Z</time><extensions><gpxtpx:TrackPointExtension><gpxtpx:atemp>2.2</gpxtpx:atemp></gpxtpx:TrackPointExtension></extensions></trkpt><trkpt lat="42.2222333495" lon="13.4154312406"><ele>1597.06</ele><time>2026-03-11T16:33:55Z</time><extensions><gpxtpx:TrackPointExtension><gpxtpx:atemp>2.2</gpxtpx:atemp></gpxtpx:TrackPointExtension></extensions></trkpt><trkpt lat="42.2222408932" lon="13.4154385328"><ele>1597.06</ele><time>2026-03-11T16:33:56Z</time><extensions><gpxtpx:TrackPointExtension><gpxtpx:atemp>2.2</gpxtpx:atemp></gpxtpx:TrackPointExtension></extensions></trkpt><trkpt lat="42.2222490236" lon="13.4154440649"><ele>1597.06</ele><time>2026-03-11T16:33:57Z</time><extensions><gpxtpx:TrackPointExtension><gpxtpx:atemp>2.2</gpxtpx:atemp></gpxtpx:TrackPointExtension></extensions></trkpt><trkpt lat="42.2222569864" lon="13.4154494293"><ele>1597.06</ele><time>2026-03-11T16:33:58Z</time><extensions><gpxtpx:TrackPointExtension><gpxtpx:atemp>2.2</gpxtpx:atemp></gpxtpx:TrackPointExtension></extensions></trkpt><trkpt lat="42.2222646978" lon="13.4154592361"><ele>1597.06</ele><time>2026-03-11T16:33:59Z</time><extensions><gpxtpx:TrackPointExtension><gpxtpx:atemp>2.2</gpxtpx:atemp></gpxtpx:TrackPointExtension></extensions></trkpt><trkpt lat="42.2222728282" lon="13.4154654387"><ele>1597.05</ele><time>2026-03-11T16:34:00Z</time><extensions><gpxtpx:TrackPointExtension><gpxtpx:atemp>2.2</gpxtpx:atemp></gpxtpx:TrackPointExtension></extensions></trkpt><trkpt lat="42.2222808748" lon="13.4154720604"><ele>1597.04</ele><time>2026-03-11T16:34:01Z</time><extensions><gpxtpx:TrackPointExtension><gpxtpx:atemp>2.2</gpxtpx:atemp></gpxtpx:TrackPointExtension></extensions></trkpt><trkpt lat="42.2222877480" lon="13.4154791851"><ele>1597.01</ele><time>2026-03-11T16:34:02Z</time><extensions><gpxtpx:TrackPointExtension><gpxtpx:atemp>2.2</gpxtpx:atemp></gpxtpx:TrackPointExtension></extensions></trkpt><trkpt lat="42.2222962976" lon="13.4154863935"><ele>1597.01</ele><time>2026-03-11T16:34:03Z</time><extensions><gpxtpx:TrackPointExtension><gpxtpx:atemp>2.2</gpxtpx:atemp></gpxtpx:TrackPointExtension></extensions></trkpt><trkpt lat="42.2223037574" lon="13.4154920932"><ele>1597.01</ele><time>2026-03-11T16:34:04Z</time><extensions><gpxtpx:TrackPointExtension><gpxtpx:atemp>2.2</gpxtpx:atemp></gpxtpx:TrackPointExtension></extensions></trkpt><trkpt lat="42.2223121393" lon="13.4154974576"><ele>1597.01</ele><time>2026-03-11T16:34:05Z</time><extensions><gpxtpx:TrackPointExtension><gpxtpx:atemp>2.2</gpxtpx:atemp></gpxtpx:TrackPointExtension></extensions></trkpt><trkpt lat="42.2223192640" lon="13.4155025706"><ele>1597.04</ele><time>2026-03-11T16:34:06Z</time><extensions><gpxtpx:TrackPointExtension><gpxtpx:atemp>2.2</gpxtpx:atemp></gpxtpx:TrackPointExtension></extensions></trkpt><trkpt lat="42.2223262209" lon="13.4155077673"><ele>1597.09</ele><time>2026-03-11T16:34:07Z</time><extensions><gpxtpx:TrackPointExtension><gpxtpx:atemp>2.2</gpxtpx:atemp></gpxtpx:TrackPointExtension></extensions></trkpt><trkpt lat="42.2223336808" lon="13.4155142214"><ele>1597.16</ele><time>2026-03-11T16:34:08Z</time><extensions><gpxtpx:TrackPointExtension><gpxtpx:atemp>2.2</gpxtpx:atemp></gpxtpx:TrackPointExtension></extensions></trkpt><trkpt lat="42.2223399673" lon="13.4155207593"><ele>1597.23</ele><time>2026-03-11T16:34:09Z</time><extensions><gpxtpx:TrackPointExtension><gpxtpx:atemp>2.2</gpxtpx:atemp></gpxtpx:TrackPointExtension></extensions></trkpt><trkpt lat="42.2223490197" lon="13.4155254532"><ele>1597.31</ele><time>2026-03-11T16:34:10Z</time><extensions><gpxtpx:TrackPointExtension><gpxtpx:atemp>2.2</gpxtpx:atemp></gpxtpx:TrackPointExtension></extensions></trkpt><trkpt lat="42.2223563958" lon="13.4155301470"><ele>1597.36</ele><time>2026-03-11T16:34:11Z</time><extensions><gpxtpx:TrackPointExtension><gpxtpx:atemp>2.2</gpxtpx:atemp></gpxtpx:TrackPointExtension></extensions></trkpt><trkpt lat="42.2223638557" lon="13.4155383613"><ele>1597.47</ele><time>2026-03-11T16:34:12Z</time><extensions><gpxtpx:TrackPointExtension><gpxtpx:atemp>2.2</gpxtpx:atemp></gpxtpx:TrackPointExtension></extensions></trkpt><trkpt lat="42.2223704774" lon="13.4155466594"><ele>1597.52</ele><time>2026-03-11T16:34:13Z</time><extensions><gpxtpx:TrackPointExtension><gpxtpx:atemp>2.2</gpxtpx:atemp></gpxtpx:TrackPointExtension></extensions></trkpt><trkpt lat="42.2223779373" lon="13.4155523591"><ele>1597.58</ele><time>2026-03-11T16:34:14Z</time><extensions><gpxtpx:TrackPointExtension><gpxtpx:atemp>2.2</gpxtpx:atemp></gpxtpx:TrackPointExtension></extensions></trkpt><trkpt lat="42.2223848943" lon="13.4155600704"><ele>1597.64</ele><time>2026-03-11T16:34:15Z</time><extensions><gpxtpx:TrackPointExtension><gpxtpx:atemp>2.2</gpxtpx:atemp></gpxtpx:TrackPointExtension></extensions></trkpt><trkpt lat="42.2223934438" lon="13.4155668598"><ele>1597.71</ele><time>2026-03-11T16:34:16Z</time><extensions><gpxtpx:TrackPointExtension><gpxtpx:atemp>2.2</gpxtpx:atemp></gpxtpx:TrackPointExtension></extensions></trkpt><trkpt lat="42.2224020772" lon="13.4155730624"><ele>1597.76</ele><time>2026-03-11T16:34:17Z</time><extensions><gpxtpx:TrackPointExtension><gpxtpx:atemp>2.2</gpxtpx:atemp></gpxtpx:TrackPointExtension></extensions></trkpt><trkpt lat="42.2224110458" lon="13.4155788459"><ele>1597.81</ele><time>2026-03-11T16:34:18Z</time><extensions><gpxtpx:TrackPointExtension><gpxtpx:atemp>2.2</gpxtpx:atemp></gpxtpx:TrackPointExtension></extensions></trkpt><trkpt lat="42.2224182542" lon="13.4155873954"><ele>1597.84</ele><time>2026-03-11T16:34:19Z</time><extensions><gpxtpx:TrackPointExtension><gpxtpx:atemp>2.2</gpxtpx:atemp></gpxtpx:TrackPointExtension></extensions></trkpt><trkpt lat="42.2224261332" lon="13.4155939333"><ele>1597.85</ele><time>2026-03-11T16:34:20Z</time><extensions><gpxtpx:TrackPointExtension><gpxtpx:atemp>2.2</gpxtpx:atemp></gpxtpx:TrackPointExtension></extensions></trkpt><trkpt lat="42.2224333417" lon="13.4155976214"><ele>1597.88</ele><time>2026-03-11T16:34:21Z</time><extensions><gpxtpx:TrackPointExtension><gpxtpx:atemp>2.2</gpxtpx:atemp></gpxtpx:TrackPointExtension></extensions></trkpt><trkpt lat="42.2224413883" lon="13.4156031534"><ele>1597.90</ele><time>2026-03-11T16:34:22Z</time><extensions><gpxtpx:TrackPointExtension><gpxtpx:atemp>2.2</gpxtpx:atemp></gpxtpx:TrackPointExtension></extensions></trkpt><trkpt lat="42.2224486805" lon="13.4156091884"><ele>1597.98</ele><time>2026-03-11T16:34:23Z</time><extensions><gpxtpx:TrackPointExtension><gpxtpx:atemp>2.2</gpxtpx:atemp></gpxtpx:TrackPointExtension></extensions></trkpt><trkpt lat="42.2224558890" lon="13.4156126250"><ele>1598.04</ele><time>2026-03-11T16:34:24Z</time><extensions><gpxtpx:TrackPointExtension><gpxtpx:atemp>2.2</gpxtpx:atemp></gpxtpx:TrackPointExtension></extensions></trkpt><trkpt lat="42.2224645223" lon="13.4156162292"><ele>1598.13</ele><time>2026-03-11T16:34:25Z</time><extensions><gpxtpx:TrackPointExtension><gpxtpx:atemp>2.2</gpxtpx:atemp></gpxtpx:TrackPointExtension></extensions></trkpt><trkpt lat="42.2224698868" lon="13.4156236891"><ele>1598.20</ele><time>2026-03-11T16:34:26Z</time><extensions><gpxtpx:TrackPointExtension><gpxtpx:atemp>2.2</gpxtpx:atemp></gpxtpx:TrackPointExtension></extensions></trkpt><trkpt lat="42.2224757541" lon="13.4156314842"><ele>1598.28</ele><time>2026-03-11T16:34:27Z</time><extensions><gpxtpx:TrackPointExtension><gpxtpx:atemp>2.2</gpxtpx:atemp></gpxtpx:TrackPointExtension></extensions></trkpt><trkpt lat="42.2224802803" lon="13.4156409558"><ele>1598.35</ele><time>2026-03-11T16:34:28Z</time><extensions><gpxtpx:TrackPointExtension><gpxtpx:atemp>2.2</gpxtpx:atemp></gpxtpx:TrackPointExtension></extensions></trkpt><trkpt lat="42.2224858962" lon="13.4156491701"><ele>1598.39</ele><time>2026-03-11T16:34:29Z</time><extensions><gpxtpx:TrackPointExtension><gpxtpx:atemp>2.2</gpxtpx:atemp></gpxtpx:TrackPointExtension></extensions></trkpt><trkpt lat="42.2224934399" lon="13.4156560432"><ele>1598.41</ele><time>2026-03-11T16:34:30Z</time><extensions><gpxtpx:TrackPointExtension><gpxtpx:atemp>2.2</gpxtpx:atemp></gpxtpx:TrackPointExtension></extensions></trkpt><trkpt lat="42.2225017380" lon="13.4156611562"><ele>1598.45</ele><time>2026-03-11T16:34:31Z</time><extensions><gpxtpx:TrackPointExtension><gpxtpx:atemp>2.2</gpxtpx:atemp></gpxtpx:TrackPointExtension></extensions></trkpt><trkpt lat="42.2225087788" lon="13.4156651795"><ele>1598.48</ele><time>2026-03-11T16:34:32Z</time><extensions><gpxtpx:TrackPointExtension><gpxtpx:atemp>2.2</gpxtpx:atemp></gpxtpx:TrackPointExtension></extensions></trkpt><trkpt lat="42.2225166578" lon="13.4156694543"><ele>1598.53</ele><time>2026-03-11T16:34:33Z</time><extensions><gpxtpx:TrackPointExtension><gpxtpx:atemp>2.2</gpxtpx:atemp></gpxtpx:TrackPointExtension></extensions></trkpt><trkpt lat="42.2225251235" lon="13.4156724717"><ele>1598.56</ele><time>2026-03-11T16:34:34Z</time><extensions><gpxtpx:TrackPointExtension><gpxtpx:atemp>2.2</gpxtpx:atemp></gpxtpx:TrackPointExtension></extensions></trkpt><trkpt lat="42.2225335892" lon="13.4156755731"><ele>1598.61</ele><time>2026-03-11T16:34:35Z</time><extensions><gpxtpx:TrackPointExtension><gpxtpx:atemp>2.2</gpxtpx:atemp></gpxtpx:TrackPointExtension></extensions></trkpt><trkpt lat="42.2225419711" lon="13.4156801831"><ele>1598.62</ele><time>2026-03-11T16:34:36Z</time><extensions><gpxtpx:TrackPointExtension><gpxtpx:atemp>2.2</gpxtpx:atemp></gpxtpx:TrackPointExtension></extensions></trkpt><trkpt lat="42.2225502692" lon="13.4156808536"><ele>1598.62</ele><time>2026-03-11T16:34:37Z</time><extensions><gpxtpx:TrackPointExtension><gpxtpx:atemp>2.2</gpxtpx:atemp></gpxtpx:TrackPointExtension></extensions></trkpt><trkpt lat="42.2225577291" lon="13.4156820271"><ele>1598.62</ele><time>2026-03-11T16:34:38Z</time><extensions><gpxtpx:TrackPointExtension><gpxtpx:atemp>2.2</gpxtpx:atemp></gpxtpx:TrackPointExtension></extensions></trkpt><trkpt lat="42.2225661948" lon="13.4156791773"><ele>1598.62</ele><time>2026-03-11T16:34:39Z</time><extensions><gpxtpx:TrackPointExtension><gpxtpx:atemp>2.2</gpxtpx:atemp></gpxtpx:TrackPointExtension></extensions></trkpt><trkpt lat="42.2225745767" lon="13.4156772494"><ele>1598.62</ele><time>2026-03-11T16:34:40Z</time><extensions><gpxtpx:TrackPointExtension><gpxtpx:atemp>2.2</gpxtpx:atemp></gpxtpx:TrackPointExtension></extensions></trkpt><trkpt lat="42.2225812823" lon="13.4156736452"><ele>1598.63</ele><time>2026-03-11T16:34:41Z</time><extensions><gpxtpx:TrackPointExtension><gpxtpx:atemp>2.2</gpxtpx:atemp></gpxtpx:TrackPointExtension></extensions></trkpt><trkpt lat="42.2225877363" lon="13.4156750701"><ele>1598.65</ele><time>2026-03-11T16:34:42Z</time><extensions><gpxtpx:TrackPointExtension><gpxtpx:atemp>2.2</gpxtpx:atemp></gpxtpx:TrackPointExtension></extensions></trkpt><trkpt lat="42.2225933522" lon="13.4156821948"><ele>1598.69</ele><time>2026-03-11T16:34:43Z</time><extensions><gpxtpx:TrackPointExtension><gpxtpx:atemp>2.2</gpxtpx:atemp></gpxtpx:TrackPointExtension></extensions></trkpt><trkpt lat="42.2225992195" lon="13.4156869724"><ele>1598.73</ele><time>2026-03-11T16:34:44Z</time><extensions><gpxtpx:TrackPointExtension><gpxtpx:atemp>2.2</gpxtpx:atemp></gpxtpx:TrackPointExtension></extensions></trkpt><trkpt lat="42.2226052545" lon="13.4156917501"><ele>1598.74</ele><time>2026-03-11T16:34:45Z</time><extensions><gpxtpx:TrackPointExtension><gpxtpx:atemp>2.2</gpxtpx:atemp></gpxtpx:TrackPointExtension></extensions></trkpt><trkpt lat="42.2226110380" lon="13.4156966954"><ele>1598.78</ele><time>2026-03-11T16:34:46Z</time><extensions><gpxtpx:TrackPointExtension><gpxtpx:atemp>2.2</gpxtpx:atemp></gpxtpx:TrackPointExtension></extensions></trkpt><trkpt lat="42.2226169892" lon="13.4157023951"><ele>1598.81</ele><time>2026-03-11T16:34:47Z</time><extensions><gpxtpx:TrackPointExtension><gpxtpx:atemp>2.2</gpxtpx:atemp></gpxtpx:TrackPointExtension></extensions></trkpt><trkpt lat="42.2226260416" lon="13.4157070890"><ele>1598.86</ele><time>2026-03-11T16:34:48Z</time><extensions><gpxtpx:TrackPointExtension><gpxtpx:atemp>2.2</gpxtpx:atemp></gpxtpx:TrackPointExtension></extensions></trkpt><trkpt lat="42.2226298973" lon="13.4157144651"><ele>1598.87</ele><time>2026-03-11T16:34:49Z</time><extensions><gpxtpx:TrackPointExtension><gpxtpx:atemp>2.2</gpxtpx:atemp></gpxtpx:TrackPointExtension></extensions></trkpt><trkpt lat="42.2226316575" lon="13.4157277923"><ele>1598.87</ele><time>2026-03-11T16:34:50Z</time><extensions><gpxtpx:TrackPointExtension><gpxtpx:atemp>2.2</gpxtpx:atemp></gpxtpx:TrackPointExtension></extensions></trkpt><trkpt lat="42.2226355970" lon="13.4157394432"><ele>1598.88</ele><time>2026-03-11T16:34:51Z</time><extensions><gpxtpx:TrackPointExtension><gpxtpx:atemp>2.2</gpxtpx:atemp></gpxtpx:TrackPointExtension></extensions></trkpt><trkpt lat="42.2226428892" lon="13.4157464840"><ele>1598.88</ele><time>2026-03-11T16:34:52Z</time><extensions><gpxtpx:TrackPointExtension><gpxtpx:atemp>2.2</gpxtpx:atemp></gpxtpx:TrackPointExtension></extensions></trkpt><trkpt lat="42.2226501815" lon="13.4157542791"><ele>1598.92</ele><time>2026-03-11T16:34:53Z</time><extensions><gpxtpx:TrackPointExtension><gpxtpx:atemp>2.2</gpxtpx:atemp></gpxtpx:TrackPointExtension></extensions></trkpt><trkpt lat="42.2226565517" lon="13.4157633316"><ele>1598.95</ele><time>2026-03-11T16:34:54Z</time><extensions><gpxtpx:TrackPointExtension><gpxtpx:atemp>2.2</gpxtpx:atemp></gpxtpx:TrackPointExtension></extensions></trkpt><trkpt lat="42.2226638440" lon="13.4157715458"><ele>1598.97</ele><time>2026-03-11T16:34:55Z</time><extensions><gpxtpx:TrackPointExtension><gpxtpx:atemp>2.2</gpxtpx:atemp></gpxtpx:TrackPointExtension></extensions></trkpt><trkpt lat="42.2226720583" lon="13.4157755692"><ele>1599.01</ele><time>2026-03-11T16:34:56Z</time><extensions><gpxtpx:TrackPointExtension><gpxtpx:atemp>2.2</gpxtpx:atemp></gpxtpx:TrackPointExtension></extensions></trkpt><trkpt lat="42.2226814460" lon="13.4157835320"><ele>1599.05</ele><time>2026-03-11T16:34:57Z</time><extensions><gpxtpx:TrackPointExtension><gpxtpx:atemp>2.2</gpxtpx:atemp></gpxtpx:TrackPointExtension></extensions></trkpt><trkpt lat="42.2226894926" lon="13.4157896508"><ele>1599.07</ele><time>2026-03-11T16:34:58Z</time><extensions><gpxtpx:TrackPointExtension><gpxtpx:atemp>2.2</gpxtpx:atemp></gpxtpx:TrackPointExtension></extensions></trkpt><trkpt lat="42.2226986289" lon="13.4157951828"><ele>1599.05</ele><time>2026-03-11T16:34:59Z</time><extensions><gpxtpx:TrackPointExtension><gpxtpx:atemp>2.2</gpxtpx:atemp></gpxtpx:TrackPointExtension></extensions></trkpt><trkpt lat="42.2227069270" lon="13.4157987870"><ele>1599.04</ele><time>2026-03-11T16:35:00Z</time><extensions><gpxtpx:TrackPointExtension><gpxtpx:atemp>2.2</gpxtpx:atemp></gpxtpx:TrackPointExtension></extensions></trkpt><trkpt lat="42.2227162309" lon="13.4158039838"><ele>1599.04</ele><time>2026-03-11T16:35:01Z</time><extensions><gpxtpx:TrackPointExtension><gpxtpx:atemp>2.2</gpxtpx:atemp></gpxtpx:TrackPointExtension></extensions></trkpt><trkpt lat="42.2227229364" lon="13.4158096835"><ele>1599.04</ele><time>2026-03-11T16:35:02Z</time><extensions><gpxtpx:TrackPointExtension><gpxtpx:atemp>2.2</gpxtpx:atemp></gpxtpx:TrackPointExtension></extensions></trkpt><trkpt lat="42.2227306478" lon="13.4158128686"><ele>1599.04</ele><time>2026-03-11T16:35:03Z</time><extensions><gpxtpx:TrackPointExtension><gpxtpx:atemp>2.2</gpxtpx:atemp></gpxtpx:TrackPointExtension></extensions></trkpt><trkpt lat="42.2227382753" lon="13.4158184845"><ele>1599.06</ele><time>2026-03-11T16:35:04Z</time><extensions><gpxtpx:TrackPointExtension><gpxtpx:atemp>2.2</gpxtpx:atemp></gpxtpx:TrackPointExtension></extensions></trkpt><trkpt lat="42.2227456514" lon="13.4158234298"><ele>1599.08</ele><time>2026-03-11T16:35:05Z</time><extensions><gpxtpx:TrackPointExtension><gpxtpx:atemp>2.2</gpxtpx:atemp></gpxtpx:TrackPointExtension></extensions></trkpt><trkpt lat="42.2227544524" lon="13.4158301353"><ele>1599.12</ele><time>2026-03-11T16:35:06Z</time><extensions><gpxtpx:TrackPointExtension><gpxtpx:atemp>2.2</gpxtpx:atemp></gpxtpx:TrackPointExtension></extensions></trkpt><trkpt lat="42.2227630857" lon="13.4158329852"><ele>1599.14</ele><time>2026-03-11T16:35:07Z</time><extensions><gpxtpx:TrackPointExtension><gpxtpx:atemp>2.2</gpxtpx:atemp></gpxtpx:TrackPointExtension></extensions></trkpt><trkpt lat="42.2227732278" lon="13.4158358350"><ele>1599.17</ele><time>2026-03-11T16:35:08Z</time><extensions><gpxtpx:TrackPointExtension><gpxtpx:atemp>2.2</gpxtpx:atemp></gpxtpx:TrackPointExtension></extensions></trkpt><trkpt lat="42.2227807716" lon="13.4158409480"><ele>1599.22</ele><time>2026-03-11T16:35:09Z</time><extensions><gpxtpx:TrackPointExtension><gpxtpx:atemp>2.2</gpxtpx:atemp></gpxtpx:TrackPointExtension></extensions></trkpt><trkpt lat="42.2227895726" lon="13.4158458933"><ele>1599.27</ele><time>2026-03-11T16:35:10Z</time><extensions><gpxtpx:TrackPointExtension><gpxtpx:atemp>2.2</gpxtpx:atemp></gpxtpx:TrackPointExtension></extensions></trkpt><trkpt lat="42.2227982897" lon="13.4158464801"><ele>1599.29</ele><time>2026-03-11T16:35:11Z</time><extensions><gpxtpx:TrackPointExtension><gpxtpx:atemp>2.2</gpxtpx:atemp></gpxtpx:TrackPointExtension></extensions></trkpt><trkpt lat="42.2228070907" lon="13.4158493299"><ele>1599.32</ele><time>2026-03-11T16:35:12Z</time><extensions><gpxtpx:TrackPointExtension><gpxtpx:atemp>2.2</gpxtpx:atemp></gpxtpx:TrackPointExtension></extensions></trkpt><trkpt lat="42.2228153888" lon="13.4158524312"><ele>1599.34</ele><time>2026-03-11T16:35:13Z</time><extensions><gpxtpx:TrackPointExtension><gpxtpx:atemp>2.2</gpxtpx:atemp></gpxtpx:TrackPointExtension></extensions></trkpt><trkpt lat="42.2228236869" lon="13.4158546943"><ele>1599.39</ele><time>2026-03-11T16:35:14Z</time><extensions><gpxtpx:TrackPointExtension><gpxtpx:atemp>2.2</gpxtpx:atemp></gpxtpx:TrackPointExtension></extensions></trkpt><trkpt lat="42.2228328232" lon="13.4158568736"><ele>1599.45</ele><time>2026-03-11T16:35:15Z</time><extensions><gpxtpx:TrackPointExtension><gpxtpx:atemp>2.2</gpxtpx:atemp></gpxtpx:TrackPointExtension></extensions></trkpt><trkpt lat="42.2228419594" lon="13.4158615675"><ele>1599.52</ele><time>2026-03-11T16:35:16Z</time><extensions><gpxtpx:TrackPointExtension><gpxtpx:atemp>2.2</gpxtpx:atemp></gpxtpx:TrackPointExtension></extensions></trkpt><trkpt lat="42.2228503413" lon="13.4158631600"><ele>1599.56</ele><time>2026-03-11T16:35:17Z</time><extensions><gpxtpx:TrackPointExtension><gpxtpx:atemp>2.2</gpxtpx:atemp></gpxtpx:TrackPointExtension></extensions></trkpt><trkpt lat="42.2228597291" lon="13.4158653393"><ele>1599.60</ele><time>2026-03-11T16:35:18Z</time><extensions><gpxtpx:TrackPointExtension><gpxtpx:atemp>2.2</gpxtpx:atemp></gpxtpx:TrackPointExtension></extensions></trkpt><trkpt lat="42.2228678595" lon="13.4158670995"><ele>1599.63</ele><time>2026-03-11T16:35:19Z</time><extensions><gpxtpx:TrackPointExtension><gpxtpx:atemp>2.2</gpxtpx:atemp></gpxtpx:TrackPointExtension></extensions></trkpt><trkpt lat="42.2228777502" lon="13.4158652555"><ele>1599.64</ele><time>2026-03-11T16:35:20Z</time><extensions><gpxtpx:TrackPointExtension><gpxtpx:atemp>2.2</gpxtpx:atemp></gpxtpx:TrackPointExtension></extensions></trkpt><trkpt lat="42.2228866350" lon="13.4158639982"><ele>1599.64</ele><time>2026-03-11T16:35:21Z</time><extensions><gpxtpx:TrackPointExtension><gpxtpx:atemp>2.2</gpxtpx:atemp></gpxtpx:TrackPointExtension></extensions></trkpt><trkpt lat="42.2228957713" lon="13.4158664290"><ele>1599.64</ele><time>2026-03-11T16:35:22Z</time><extensions><gpxtpx:TrackPointExtension><gpxtpx:atemp>2.2</gpxtpx:atemp></gpxtpx:TrackPointExtension></extensions></trkpt><trkpt lat="42.2229025606" lon="13.4158725478"><ele>1599.64</ele><time>2026-03-11T16:35:23Z</time><extensions><gpxtpx:TrackPointExtension><gpxtpx:atemp>2.2</gpxtpx:atemp></gpxtpx:TrackPointExtension></extensions></trkpt><trkpt lat="42.2229123674" lon="13.4158775769"><ele>1599.64</ele><time>2026-03-11T16:35:24Z</time><extensions><gpxtpx:TrackPointExtension><gpxtpx:atemp>2.2</gpxtpx:atemp></gpxtpx:TrackPointExtension></extensions></trkpt><trkpt lat="42.2229219228" lon="13.4158799239"><ele>1599.64</ele><time>2026-03-11T16:35:25Z</time><extensions><gpxtpx:TrackPointExtension><gpxtpx:atemp>2.2</gpxtpx:atemp></gpxtpx:TrackPointExtension></extensions></trkpt><trkpt lat="42.2229322325" lon="13.4158811811"><ele>1599.66</ele><time>2026-03-11T16:35:26Z</time><extensions><gpxtpx:TrackPointExtension><gpxtpx:atemp>2.2</gpxtpx:atemp></gpxtpx:TrackPointExtension></extensions></trkpt><trkpt lat="42.2229421232" lon="13.4158821870"><ele>1599.70</ele><time>2026-03-11T16:35:27Z</time><extensions><gpxtpx:TrackPointExtension><gpxtpx:atemp>2.2</gpxtpx:atemp></gpxtpx:TrackPointExtension></extensions></trkpt><trkpt lat="42.2229519300" lon="13.4158835281"><ele>1599.77</ele><time>2026-03-11T16:35:28Z</time><extensions><gpxtpx:TrackPointExtension><gpxtpx:atemp>2.2</gpxtpx:atemp></gpxtpx:TrackPointExtension></extensions></trkpt><trkpt lat="42.2229610663" lon="13.4158830252"><ele>1599.84</ele><time>2026-03-11T16:35:29Z</time><extensions><gpxtpx:TrackPointExtension><gpxtpx:atemp>2.2</gpxtpx:atemp></gpxtpx:TrackPointExtension></extensions></trkpt><trkpt lat="42.2229719628" lon="13.4158841986"><ele>1599.91</ele><time>2026-03-11T16:35:30Z</time><extensions><gpxtpx:TrackPointExtension><gpxtpx:atemp>2.2</gpxtpx:atemp></gpxtpx:TrackPointExtension></extensions></trkpt><trkpt lat="42.2229811829" lon="13.4158875514"><ele>1599.96</ele><time>2026-03-11T16:35:31Z</time><extensions><gpxtpx:TrackPointExtension><gpxtpx:atemp>2.2</gpxtpx:atemp></gpxtpx:TrackPointExtension></extensions></trkpt><trkpt lat="42.2229909897" lon="13.4158896469"><ele>1599.99</ele><time>2026-03-11T16:35:32Z</time><extensions><gpxtpx:TrackPointExtension><gpxtpx:atemp>2.2</gpxtpx:atemp></gpxtpx:TrackPointExtension></extensions></trkpt><trkpt lat="42.2230001260" lon="13.4158902336"><ele>1600.01</ele><time>2026-03-11T16:35:33Z</time><extensions><gpxtpx:TrackPointExtension><gpxtpx:atemp>2.2</gpxtpx:atemp></gpxtpx:TrackPointExtension></extensions></trkpt><trkpt lat="42.2230093461" lon="13.4158905689"><ele>1600.02</ele><time>2026-03-11T16:35:34Z</time><extensions><gpxtpx:TrackPointExtension><gpxtpx:atemp>2.2</gpxtpx:atemp></gpxtpx:TrackPointExtension></extensions></trkpt><trkpt lat="42.2230185661" lon="13.4158913232"><ele>1600.04</ele><time>2026-03-11T16:35:35Z</time><extensions><gpxtpx:TrackPointExtension><gpxtpx:atemp>2.2</gpxtpx:atemp></gpxtpx:TrackPointExtension></extensions></trkpt><trkpt lat="42.2230274510" lon="13.4158914909"><ele>1600.05</ele><time>2026-03-11T16:35:36Z</time><extensions><gpxtpx:TrackPointExtension><gpxtpx:atemp>2.2</gpxtpx:atemp></gpxtpx:TrackPointExtension></extensions></trkpt><trkpt lat="42.2230365872" lon="13.4158913232"><ele>1600.06</ele><time>2026-03-11T16:35:37Z</time><extensions><gpxtpx:TrackPointExtension><gpxtpx:atemp>2.2</gpxtpx:atemp></gpxtpx:TrackPointExtension></extensions></trkpt><trkpt lat="42.2230474837" lon="13.4158915747"><ele>1600.06</ele><time>2026-03-11T16:35:38Z</time><extensions><gpxtpx:TrackPointExtension><gpxtpx:atemp>2.2</gpxtpx:atemp></gpxtpx:TrackPointExtension></extensions></trkpt><trkpt lat="42.2230564523" lon="13.4158866294"><ele>1600.06</ele><time>2026-03-11T16:35:39Z</time><extensions><gpxtpx:TrackPointExtension><gpxtpx:atemp>2.2</gpxtpx:atemp></gpxtpx:TrackPointExtension></extensions></trkpt><trkpt lat="42.2230627388" lon="13.4158854559"><ele>1600.03</ele><time>2026-03-11T16:35:40Z</time><extensions><gpxtpx:TrackPointExtension><gpxtpx:atemp>2.2</gpxtpx:atemp></gpxtpx:TrackPointExtension></extensions></trkpt><trkpt lat="42.2230719589" lon="13.4158815164"><ele>1599.98</ele><time>2026-03-11T16:35:41Z</time><extensions><gpxtpx:TrackPointExtension><gpxtpx:atemp>2.2</gpxtpx:atemp></gpxtpx:TrackPointExtension></extensions></trkpt><trkpt lat="42.2230809275" lon="13.4158794209"><ele>1599.90</ele><time>2026-03-11T16:35:42Z</time><extensions><gpxtpx:TrackPointExtension><gpxtpx:atemp>2.2</gpxtpx:atemp></gpxtpx:TrackPointExtension></extensions></trkpt><trkpt lat="42.2230904829" lon="13.4158766549"><ele>1599.83</ele><time>2026-03-11T16:35:43Z</time><extensions><gpxtpx:TrackPointExtension><gpxtpx:atemp>2.2</gpxtpx:atemp></gpxtpx:TrackPointExtension></extensions></trkpt><trkpt lat="42.2230994515" lon="13.4158718772"><ele>1599.72</ele><time>2026-03-11T16:35:44Z</time><extensions><gpxtpx:TrackPointExtension><gpxtpx:atemp>2.2</gpxtpx:atemp></gpxtpx:TrackPointExtension></extensions></trkpt><trkpt lat="42.2231080849" lon="13.4158680215"><ele>1599.68</ele><time>2026-03-11T16:35:45Z</time><extensions><gpxtpx:TrackPointExtension><gpxtpx:atemp>2.2</gpxtpx:atemp></gpxtpx:TrackPointExtension></extensions></trkpt><trkpt lat="42.2231180593" lon="13.4158636630"><ele>1599.64</ele><time>2026-03-11T16:35:46Z</time><extensions><gpxtpx:TrackPointExtension><gpxtpx:atemp>2.2</gpxtpx:atemp></gpxtpx:TrackPointExtension></extensions></trkpt><trkpt lat="42.2231277823" lon="13.4158625733"><ele>1599.60</ele><time>2026-03-11T16:35:47Z</time><extensions><gpxtpx:TrackPointExtension><gpxtpx:atemp>2.2</gpxtpx:atemp></gpxtpx:TrackPointExtension></extensions></trkpt><trkpt lat="42.2231373377" lon="13.4158582985"><ele>1599.52</ele><time>2026-03-11T16:35:48Z</time><extensions><gpxtpx:TrackPointExtension><gpxtpx:atemp>2.2</gpxtpx:atemp></gpxtpx:TrackPointExtension></extensions></trkpt><trkpt lat="42.2231470607" lon="13.4158534370"><ele>1599.41</ele><time>2026-03-11T16:35:49Z</time><extensions><gpxtpx:TrackPointExtension><gpxtpx:atemp>2.2</gpxtpx:atemp></gpxtpx:TrackPointExtension></extensions></trkpt><trkpt lat="42.2231562808" lon="13.4158524312"><ele>1599.30</ele><time>2026-03-11T16:35:50Z</time><extensions><gpxtpx:TrackPointExtension><gpxtpx:atemp>2.2</gpxtpx:atemp></gpxtpx:TrackPointExtension></extensions></trkpt><trkpt lat="42.2231651656" lon="13.4158528503"><ele>1599.24</ele><time>2026-03-11T16:35:51Z</time><extensions><gpxtpx:TrackPointExtension><gpxtpx:atemp>2.2</gpxtpx:atemp></gpxtpx:TrackPointExtension></extensions></trkpt><trkpt lat="42.2231738828" lon="13.4158544429"><ele>1599.21</ele><time>2026-03-11T16:35:52Z</time><extensions><gpxtpx:TrackPointExtension><gpxtpx:atemp>2.2</gpxtpx:atemp></gpxtpx:TrackPointExtension></extensions></trkpt><trkpt lat="42.2231812589" lon="13.4158569574"><ele>1599.18</ele><time>2026-03-11T16:35:53Z</time><extensions><gpxtpx:TrackPointExtension><gpxtpx:atemp>2.2</gpxtpx:atemp></gpxtpx:TrackPointExtension></extensions></trkpt><trkpt lat="42.2231906466" lon="13.4158579633"><ele>1599.17</ele><time>2026-03-11T16:35:54Z</time><extensions><gpxtpx:TrackPointExtension><gpxtpx:atemp>2.2</gpxtpx:atemp></gpxtpx:TrackPointExtension></extensions></trkpt><trkpt lat="42.2231988609" lon="13.4158654232"><ele>1599.15</ele><time>2026-03-11T16:35:55Z</time><extensions><gpxtpx:TrackPointExtension><gpxtpx:atemp>2.2</gpxtpx:atemp></gpxtpx:TrackPointExtension></extensions></trkpt><trkpt lat="42.2232077457" lon="13.4158720449"><ele>1599.16</ele><time>2026-03-11T16:35:56Z</time><extensions><gpxtpx:TrackPointExtension><gpxtpx:atemp>2.2</gpxtpx:atemp></gpxtpx:TrackPointExtension></extensions></trkpt><trkpt lat="42.2232155409" lon="13.4158791695"><ele>1599.17</ele><time>2026-03-11T16:35:57Z</time><extensions><gpxtpx:TrackPointExtension><gpxtpx:atemp>2.2</gpxtpx:atemp></gpxtpx:TrackPointExtension></extensions></trkpt><trkpt lat="42.2232229169" lon="13.4158889763"><ele>1599.18</ele><time>2026-03-11T16:35:58Z</time><extensions><gpxtpx:TrackPointExtension><gpxtpx:atemp>2.2</gpxtpx:atemp></gpxtpx:TrackPointExtension></extensions></trkpt><trkpt lat="42.2232291196" lon="13.4158960171"><ele>1599.20</ele><time>2026-03-11T16:35:59Z</time><extensions><gpxtpx:TrackPointExtension><gpxtpx:atemp>2.2</gpxtpx:atemp></gpxtpx:TrackPointExtension></extensions></trkpt><trkpt lat="42.2232379206" lon="13.4159006272"><ele>1599.21</ele><time>2026-03-11T16:36:00Z</time><extensions><gpxtpx:TrackPointExtension><gpxtpx:atemp>2.2</gpxtpx:atemp></gpxtpx:TrackPointExtension></extensions></trkpt><trkpt lat="42.2232471406" lon="13.4159037285"><ele>1599.23</ele><time>2026-03-11T16:36:01Z</time><extensions><gpxtpx:TrackPointExtension><gpxtpx:atemp>2.2</gpxtpx:atemp></gpxtpx:TrackPointExtension></extensions></trkpt><trkpt lat="42.2232572827" lon="13.4159069974"><ele>1599.26</ele><time>2026-03-11T16:36:02Z</time><extensions><gpxtpx:TrackPointExtension><gpxtpx:atemp>2.2</gpxtpx:atemp></gpxtpx:TrackPointExtension></extensions></trkpt><trkpt lat="42.2232662514" lon="13.4159111883"><ele>1599.28</ele><time>2026-03-11T16:36:03Z</time><extensions><gpxtpx:TrackPointExtension><gpxtpx:atemp>2.2</gpxtpx:atemp></gpxtpx:TrackPointExtension></extensions></trkpt><trkpt lat="42.2232764773" lon="13.4159155469"><ele>1599.30</ele><time>2026-03-11T16:36:04Z</time><extensions><gpxtpx:TrackPointExtension><gpxtpx:atemp>2.2</gpxtpx:atemp></gpxtpx:TrackPointExtension></extensions></trkpt><trkpt lat="42.2232856974" lon="13.4159174748"><ele>1599.30</ele><time>2026-03-11T16:36:05Z</time><extensions><gpxtpx:TrackPointExtension><gpxtpx:atemp>2.2</gpxtpx:atemp></gpxtpx:TrackPointExtension></extensions></trkpt><trkpt lat="42.2232956719" lon="13.4159185644"><ele>1599.30</ele><time>2026-03-11T16:36:06Z</time><extensions><gpxtpx:TrackPointExtension><gpxtpx:atemp>2.2</gpxtpx:atemp></gpxtpx:TrackPointExtension></extensions></trkpt><trkpt lat="42.2233040538" lon="13.4159213305"><ele>1599.30</ele><time>2026-03-11T16:36:07Z</time><extensions><gpxtpx:TrackPointExtension><gpxtpx:atemp>2.2</gpxtpx:atemp></gpxtpx:TrackPointExtension></extensions></trkpt><trkpt lat="42.2233117651" lon="13.4159253538"><ele>1599.30</ele><time>2026-03-11T16:36:08Z</time><extensions><gpxtpx:TrackPointExtension><gpxtpx:atemp>2.2</gpxtpx:atemp></gpxtpx:TrackPointExtension></extensions></trkpt><trkpt lat="42.2233206499" lon="13.4159273654"><ele>1599.30</ele><time>2026-03-11T16:36:09Z</time><extensions><gpxtpx:TrackPointExtension><gpxtpx:atemp>2.2</gpxtpx:atemp></gpxtpx:TrackPointExtension></extensions></trkpt><trkpt lat="42.2233310435" lon="13.4159280360"><ele>1599.29</ele><time>2026-03-11T16:36:10Z</time><extensions><gpxtpx:TrackPointExtension><gpxtpx:atemp>2.2</gpxtpx:atemp></gpxtpx:TrackPointExtension></extensions></trkpt><trkpt lat="42.2233409341" lon="13.4159283713"><ele>1599.26</ele><time>2026-03-11T16:36:11Z</time><extensions><gpxtpx:TrackPointExtension><gpxtpx:atemp>2.2</gpxtpx:atemp></gpxtpx:TrackPointExtension></extensions></trkpt><trkpt lat="42.2233511601" lon="13.4159307182"><ele>1599.21</ele><time>2026-03-11T16:36:12Z</time><extensions><gpxtpx:TrackPointExtension><gpxtpx:atemp>2.2</gpxtpx:atemp></gpxtpx:TrackPointExtension></extensions></trkpt><trkpt lat="42.2233617213" lon="13.4159269463"><ele>1599.16</ele><time>2026-03-11T16:36:13Z</time><extensions><gpxtpx:TrackPointExtension><gpxtpx:atemp>2.2</gpxtpx:atemp></gpxtpx:TrackPointExtension></extensions></trkpt><trkpt lat="42.2233705223" lon="13.4159268625"><ele>1599.14</ele><time>2026-03-11T16:36:14Z</time><extensions><gpxtpx:TrackPointExtension><gpxtpx:atemp>2.2</gpxtpx:atemp></gpxtpx:TrackPointExtension></extensions></trkpt><trkpt lat="42.2233796585" lon="13.4159267787"><ele>1599.10</ele><time>2026-03-11T16:36:15Z</time><extensions><gpxtpx:TrackPointExtension><gpxtpx:atemp>2.2</gpxtpx:atemp></gpxtpx:TrackPointExtension></extensions></trkpt><trkpt lat="42.2233894654" lon="13.4159279522"><ele>1599.08</ele><time>2026-03-11T16:36:16Z</time><extensions><gpxtpx:TrackPointExtension><gpxtpx:atemp>2.2</gpxtpx:atemp></gpxtpx:TrackPointExtension></extensions></trkpt><trkpt lat="42.2233986855" lon="13.4159276169"><ele>1599.04</ele><time>2026-03-11T16:36:17Z</time><extensions><gpxtpx:TrackPointExtension><gpxtpx:atemp>2.2</gpxtpx:atemp></gpxtpx:TrackPointExtension></extensions></trkpt><trkpt lat="42.2234080732" lon="13.4159284551"><ele>1599.01</ele><time>2026-03-11T16:36:18Z</time><extensions><gpxtpx:TrackPointExtension><gpxtpx:atemp>2.2</gpxtpx:atemp></gpxtpx:TrackPointExtension></extensions></trkpt><trkpt lat="42.2234186344" lon="13.4159318916"><ele>1598.98</ele><time>2026-03-11T16:36:19Z</time><extensions><gpxtpx:TrackPointExtension><gpxtpx:atemp>2.2</gpxtpx:atemp></gpxtpx:TrackPointExtension></extensions></trkpt><trkpt lat="42.2234287765" lon="13.4159334842"><ele>1598.96</ele><time>2026-03-11T16:36:20Z</time><extensions><gpxtpx:TrackPointExtension><gpxtpx:atemp>2.2</gpxtpx:atemp></gpxtpx:TrackPointExtension></extensions></trkpt><trkpt lat="42.2234375775" lon="13.4159322269"><ele>1598.94</ele><time>2026-03-11T16:36:21Z</time><extensions><gpxtpx:TrackPointExtension><gpxtpx:atemp>2.2</gpxtpx:atemp></gpxtpx:TrackPointExtension></extensions></trkpt><trkpt lat="42.2234476358" lon="13.4159336518"><ele>1598.92</ele><time>2026-03-11T16:36:22Z</time><extensions><gpxtpx:TrackPointExtension><gpxtpx:atemp>2.2</gpxtpx:atemp></gpxtpx:TrackPointExtension></extensions></trkpt><trkpt lat="42.2234576941" lon="13.4159352444"><ele>1598.90</ele><time>2026-03-11T16:36:23Z</time><extensions><gpxtpx:TrackPointExtension><gpxtpx:atemp>2.2</gpxtpx:atemp></gpxtpx:TrackPointExtension></extensions></trkpt><trkpt lat="42.2234674171" lon="13.4159362502"><ele>1598.88</ele><time>2026-03-11T16:36:24Z</time><extensions><gpxtpx:TrackPointExtension><gpxtpx:atemp>2.2</gpxtpx:atemp></gpxtpx:TrackPointExtension></extensions></trkpt><trkpt lat="42.2234772239" lon="13.4159343224"><ele>1598.87</ele><time>2026-03-11T16:36:25Z</time><extensions><gpxtpx:TrackPointExtension><gpxtpx:atemp>2.2</gpxtpx:atemp></gpxtpx:TrackPointExtension></extensions></trkpt><trkpt lat="42.2234876174" lon="13.4159319755"><ele>1598.86</ele><time>2026-03-11T16:36:26Z</time><extensions><gpxtpx:TrackPointExtension><gpxtpx:atemp>2.2</gpxtpx:atemp></gpxtpx:TrackPointExtension></extensions></trkpt><trkpt lat="42.2234975919" lon="13.4159278683"><ele>1598.85</ele><time>2026-03-11T16:36:27Z</time><extensions><gpxtpx:TrackPointExtension><gpxtpx:atemp>2.2</gpxtpx:atemp></gpxtpx:TrackPointExtension></extensions></trkpt><trkpt lat="42.2235056385" lon="13.4159215819"><ele>1598.85</ele><time>2026-03-11T16:36:28Z</time><extensions><gpxtpx:TrackPointExtension><gpxtpx:atemp>2.2</gpxtpx:atemp></gpxtpx:TrackPointExtension></extensions></trkpt><trkpt lat="42.2235133499" lon="13.4159179777"><ele>1598.85</ele><time>2026-03-11T16:36:29Z</time><extensions><gpxtpx:TrackPointExtension><gpxtpx:atemp>2.2</gpxtpx:atemp></gpxtpx:TrackPointExtension></extensions></trkpt><trkpt lat="42.2235224862" lon="13.4159159660"><ele>1598.83</ele><time>2026-03-11T16:36:30Z</time><extensions><gpxtpx:TrackPointExtension><gpxtpx:atemp>2.2</gpxtpx:atemp></gpxtpx:TrackPointExtension></extensions></trkpt><trkpt lat="42.2235328797" lon="13.4159150440"><ele>1598.83</ele><time>2026-03-11T16:36:31Z</time><extensions><gpxtpx:TrackPointExtension><gpxtpx:atemp>2.2</gpxtpx:atemp></gpxtpx:TrackPointExtension></extensions></trkpt><trkpt lat="42.2235417645" lon="13.4159104340"><ele>1598.83</ele><time>2026-03-11T16:36:32Z</time><extensions><gpxtpx:TrackPointExtension><gpxtpx:atemp>2.2</gpxtpx:atemp></gpxtpx:TrackPointExtension></extensions></trkpt><trkpt lat="42.2235520743" lon="13.4159071650"><ele>1598.80</ele><time>2026-03-11T16:36:33Z</time><extensions><gpxtpx:TrackPointExtension><gpxtpx:atemp>2.2</gpxtpx:atemp></gpxtpx:TrackPointExtension></extensions></trkpt><trkpt lat="42.2235613782" lon="13.4159056563"><ele>1598.75</ele><time>2026-03-11T16:36:34Z</time><extensions><gpxtpx:TrackPointExtension><gpxtpx:atemp>2.1</gpxtpx:atemp></gpxtpx:TrackPointExtension></extensions></trkpt><trkpt lat="42.2235715203" lon="13.4159077518"><ele>1598.73</ele><time>2026-03-11T16:36:35Z</time><extensions><gpxtpx:TrackPointExtension><gpxtpx:atemp>2.1</gpxtpx:atemp></gpxtpx:TrackPointExtension></extensions></trkpt><trkpt lat="42.2235815786" lon="13.4159042314"><ele>1598.71</ele><time>2026-03-11T16:36:36Z</time><extensions><gpxtpx:TrackPointExtension><gpxtpx:atemp>2.1</gpxtpx:atemp></gpxtpx:TrackPointExtension></extensions></trkpt><trkpt lat="42.2235920560" lon="13.4159008786"><ele>1598.62</ele><time>2026-03-11T16:36:37Z</time><extensions><gpxtpx:TrackPointExtension><gpxtpx:atemp>2.1</gpxtpx:atemp></gpxtpx:TrackPointExtension></extensions></trkpt><trkpt lat="42.2236019466" lon="13.4158983640"><ele>1598.53</ele><time>2026-03-11T16:36:38Z</time><extensions><gpxtpx:TrackPointExtension><gpxtpx:atemp>2.1</gpxtpx:atemp></gpxtpx:TrackPointExtension></extensions></trkpt><trkpt lat="42.2236113343" lon="13.4158978611"><ele>1598.45</ele><time>2026-03-11T16:36:39Z</time><extensions><gpxtpx:TrackPointExtension><gpxtpx:atemp>2.1</gpxtpx:atemp></gpxtpx:TrackPointExtension></extensions></trkpt><trkpt lat="42.2236207221" lon="13.4158933349"><ele>1598.40</ele><time>2026-03-11T16:36:40Z</time><extensions><gpxtpx:TrackPointExtension><gpxtpx:atemp>2.1</gpxtpx:atemp></gpxtpx:TrackPointExtension></extensions></trkpt><trkpt lat="42.2236299422" lon="13.4158924967"><ele>1598.31</ele><time>2026-03-11T16:36:41Z</time><extensions><gpxtpx:TrackPointExtension><gpxtpx:atemp>2.1</gpxtpx:atemp></gpxtpx:TrackPointExtension></extensions></trkpt><trkpt lat="42.2236395814" lon="13.4158891439"><ele>1598.27</ele><time>2026-03-11T16:36:42Z</time><extensions><gpxtpx:TrackPointExtension><gpxtpx:atemp>2.1</gpxtpx:atemp></gpxtpx:TrackPointExtension></extensions></trkpt><trkpt lat="42.2236480471" lon="13.4158876352"><ele>1598.24</ele><time>2026-03-11T16:36:43Z</time><extensions><gpxtpx:TrackPointExtension><gpxtpx:atemp>2.1</gpxtpx:atemp></gpxtpx:TrackPointExtension></extensions></trkpt><trkpt lat="42.2236575186" lon="13.4158855397"><ele>1598.18</ele><time>2026-03-11T16:36:44Z</time><extensions><gpxtpx:TrackPointExtension><gpxtpx:atemp>2.1</gpxtpx:atemp></gpxtpx:TrackPointExtension></extensions></trkpt><trkpt lat="42.2236662358" lon="13.4158837795"><ele>1598.15</ele><time>2026-03-11T16:36:45Z</time><extensions><gpxtpx:TrackPointExtension><gpxtpx:atemp>2.1</gpxtpx:atemp></gpxtpx:TrackPointExtension></extensions></trkpt><trkpt lat="42.2236750368" lon="13.4158820193"><ele>1598.09</ele><time>2026-03-11T16:36:46Z</time><extensions><gpxtpx:TrackPointExtension><gpxtpx:atemp>2.1</gpxtpx:atemp></gpxtpx:TrackPointExtension></extensions></trkpt><trkpt lat="42.2236860171" lon="13.4158786666"><ele>1598.03</ele><time>2026-03-11T16:36:47Z</time><extensions><gpxtpx:TrackPointExtension><gpxtpx:atemp>2.1</gpxtpx:atemp></gpxtpx:TrackPointExtension></extensions></trkpt><trkpt lat="42.2236946505" lon="13.4158782475"><ele>1597.99</ele><time>2026-03-11T16:36:48Z</time><extensions><gpxtpx:TrackPointExtension><gpxtpx:atemp>2.1</gpxtpx:atemp></gpxtpx:TrackPointExtension></extensions></trkpt><trkpt lat="42.2237024456" lon="13.4158791695"><ele>1597.94</ele><time>2026-03-11T16:36:49Z</time><extensions><gpxtpx:TrackPointExtension><gpxtpx:atemp>2.1</gpxtpx:atemp></gpxtpx:TrackPointExtension></extensions></trkpt><trkpt lat="42.2237112466" lon="13.4158747271"><ele>1597.89</ele><time>2026-03-11T16:36:50Z</time><extensions><gpxtpx:TrackPointExtension><gpxtpx:atemp>2.1</gpxtpx:atemp></gpxtpx:TrackPointExtension></extensions></trkpt><trkpt lat="42.2237192933" lon="13.4158734698"><ele>1597.84</ele><time>2026-03-11T16:36:51Z</time><extensions><gpxtpx:TrackPointExtension><gpxtpx:atemp>2.1</gpxtpx:atemp></gpxtpx:TrackPointExtension></extensions></trkpt><trkpt lat="42.2237291839" lon="13.4158705361"><ele>1597.79</ele><time>2026-03-11T16:36:52Z</time><extensions><gpxtpx:TrackPointExtension><gpxtpx:atemp>2.1</gpxtpx:atemp></gpxtpx:TrackPointExtension></extensions></trkpt><trkpt lat="42.2237377334" lon="13.4158681892"><ele>1597.75</ele><time>2026-03-11T16:36:53Z</time><extensions><gpxtpx:TrackPointExtension><gpxtpx:atemp>2.1</gpxtpx:atemp></gpxtpx:TrackPointExtension></extensions></trkpt><trkpt lat="42.2237479594" lon="13.4158676863"><ele>1597.73</ele><time>2026-03-11T16:36:54Z</time><extensions><gpxtpx:TrackPointExtension><gpxtpx:atemp>2.1</gpxtpx:atemp></gpxtpx:TrackPointExtension></extensions></trkpt><trkpt lat="42.2237569280" lon="13.4158679377"><ele>1597.71</ele><time>2026-03-11T16:36:55Z</time><extensions><gpxtpx:TrackPointExtension><gpxtpx:atemp>2.1</gpxtpx:atemp></gpxtpx:TrackPointExtension></extensions></trkpt><trkpt lat="42.2237672377" lon="13.4158652555"><ele>1597.67</ele><time>2026-03-11T16:36:56Z</time><extensions><gpxtpx:TrackPointExtension><gpxtpx:atemp>2.1</gpxtpx:atemp></gpxtpx:TrackPointExtension></extensions></trkpt><trkpt lat="42.2237749491" lon="13.4158632439"><ele>1597.65</ele><time>2026-03-11T16:36:57Z</time><extensions><gpxtpx:TrackPointExtension><gpxtpx:atemp>2.1</gpxtpx:atemp></gpxtpx:TrackPointExtension></extensions></trkpt><trkpt lat="42.2237844206" lon="13.4158633277"><ele>1597.64</ele><time>2026-03-11T16:36:58Z</time><extensions><gpxtpx:TrackPointExtension><gpxtpx:atemp>2.1</gpxtpx:atemp></gpxtpx:TrackPointExtension></extensions></trkpt><trkpt lat="42.2237930540" lon="13.4158629924"><ele>1597.61</ele><time>2026-03-11T16:36:59Z</time><extensions><gpxtpx:TrackPointExtension><gpxtpx:atemp>2.1</gpxtpx:atemp></gpxtpx:TrackPointExtension></extensions></trkpt><trkpt lat="42.2238017712" lon="13.4158613998"><ele>1597.57</ele><time>2026-03-11T16:37:00Z</time><extensions><gpxtpx:TrackPointExtension><gpxtpx:atemp>2.1</gpxtpx:atemp></gpxtpx:TrackPointExtension></extensions></trkpt><trkpt lat="42.2238094825" lon="13.4158584662"><ele>1597.53</ele><time>2026-03-11T16:37:01Z</time><extensions><gpxtpx:TrackPointExtension><gpxtpx:atemp>2.1</gpxtpx:atemp></gpxtpx:TrackPointExtension></extensions></trkpt><trkpt lat="42.2238191217" lon="13.4158597235"><ele>1597.49</ele><time>2026-03-11T16:37:02Z</time><extensions><gpxtpx:TrackPointExtension><gpxtpx:atemp>2.1</gpxtpx:atemp></gpxtpx:TrackPointExtension></extensions></trkpt><trkpt lat="42.2238270845" lon="13.4158585500"><ele>1597.46</ele><time>2026-03-11T16:37:03Z</time><extensions><gpxtpx:TrackPointExtension><gpxtpx:atemp>2.1</gpxtpx:atemp></gpxtpx:TrackPointExtension></extensions></trkpt><trkpt lat="42.2238350473" lon="13.4158562869"><ele>1597.41</ele><time>2026-03-11T16:37:04Z</time><extensions><gpxtpx:TrackPointExtension><gpxtpx:atemp>2.1</gpxtpx:atemp></gpxtpx:TrackPointExtension></extensions></trkpt><trkpt lat="42.2238442674" lon="13.4158535209"><ele>1597.34</ele><time>2026-03-11T16:37:05Z</time><extensions><gpxtpx:TrackPointExtension><gpxtpx:atemp>2.1</gpxtpx:atemp></gpxtpx:TrackPointExtension></extensions></trkpt><trkpt lat="42.2238530684" lon="13.4158512577"><ele>1597.31</ele><time>2026-03-11T16:37:06Z</time><extensions><gpxtpx:TrackPointExtension><gpxtpx:atemp>2.1</gpxtpx:atemp></gpxtpx:TrackPointExtension></extensions></trkpt><trkpt lat="42.2238614503" lon="13.4158496652"><ele>1597.28</ele><time>2026-03-11T16:37:07Z</time><extensions><gpxtpx:TrackPointExtension><gpxtpx:atemp>2.1</gpxtpx:atemp></gpxtpx:TrackPointExtension></extensions></trkpt><trkpt lat="42.2238706704" lon="13.4158467315"><ele>1597.27</ele><time>2026-03-11T16:37:08Z</time><extensions><gpxtpx:TrackPointExtension><gpxtpx:atemp>2.1</gpxtpx:atemp></gpxtpx:TrackPointExtension></extensions></trkpt><trkpt lat="42.2238794714" lon="13.4158467315"><ele>1597.25</ele><time>2026-03-11T16:37:09Z</time><extensions><gpxtpx:TrackPointExtension><gpxtpx:atemp>2.1</gpxtpx:atemp></gpxtpx:TrackPointExtension></extensions></trkpt><trkpt lat="42.2238897812" lon="13.4158486594"><ele>1597.22</ele><time>2026-03-11T16:37:10Z</time><extensions><gpxtpx:TrackPointExtension><gpxtpx:atemp>2.1</gpxtpx:atemp></gpxtpx:TrackPointExtension></extensions></trkpt><trkpt lat="42.2238975763" lon="13.4158484917"><ele>1597.19</ele><time>2026-03-11T16:37:11Z</time><extensions><gpxtpx:TrackPointExtension><gpxtpx:atemp>2.1</gpxtpx:atemp></gpxtpx:TrackPointExtension></extensions></trkpt><trkpt lat="42.2239067964" lon="13.4158501681"><ele>1597.17</ele><time>2026-03-11T16:37:12Z</time><extensions><gpxtpx:TrackPointExtension><gpxtpx:atemp>2.1</gpxtpx:atemp></gpxtpx:TrackPointExtension></extensions></trkpt><trkpt lat="42.2239149269" lon="13.4158469830"><ele>1597.08</ele><time>2026-03-11T16:37:13Z</time><extensions><gpxtpx:TrackPointExtension><gpxtpx:atemp>2.1</gpxtpx:atemp></gpxtpx:TrackPointExtension></extensions></trkpt><trkpt lat="42.2239235602" lon="13.4158434626"><ele>1596.93</ele><time>2026-03-11T16:37:14Z</time><extensions><gpxtpx:TrackPointExtension><gpxtpx:atemp>2.1</gpxtpx:atemp></gpxtpx:TrackPointExtension></extensions></trkpt><trkpt lat="42.2239320260" lon="13.4158450551"><ele>1596.78</ele><time>2026-03-11T16:37:15Z</time><extensions><gpxtpx:TrackPointExtension><gpxtpx:atemp>2.1</gpxtpx:atemp></gpxtpx:TrackPointExtension></extensions></trkpt><trkpt lat="42.2239402402" lon="13.4158458933"><ele>1596.61</ele><time>2026-03-11T16:37:16Z</time><extensions><gpxtpx:TrackPointExtension><gpxtpx:atemp>2.1</gpxtpx:atemp></gpxtpx:TrackPointExtension></extensions></trkpt><trkpt lat="42.2239489574" lon="13.4158460610"><ele>1596.54</ele><time>2026-03-11T16:37:17Z</time><extensions><gpxtpx:TrackPointExtension><gpxtpx:atemp>2.1</gpxtpx:atemp></gpxtpx:TrackPointExtension></extensions></trkpt><trkpt lat="42.2239568364" lon="13.4158439655"><ele>1596.50</ele><time>2026-03-11T16:37:18Z</time><extensions><gpxtpx:TrackPointExtension><gpxtpx:atemp>2.1</gpxtpx:atemp></gpxtpx:TrackPointExtension></extensions></trkpt><trkpt lat="42.2239670623" lon="13.4158428758"><ele>1596.46</ele><time>2026-03-11T16:37:19Z</time><extensions><gpxtpx:TrackPointExtension><gpxtpx:atemp>2.1</gpxtpx:atemp></gpxtpx:TrackPointExtension></extensions></trkpt><trkpt lat="42.2239778750" lon="13.4158407804"><ele>1596.42</ele><time>2026-03-11T16:37:20Z</time><extensions><gpxtpx:TrackPointExtension><gpxtpx:atemp>2.1</gpxtpx:atemp></gpxtpx:TrackPointExtension></extensions></trkpt><trkpt lat="42.2239872627" lon="13.4158382658"><ele>1596.35</ele><time>2026-03-11T16:37:21Z</time><extensions><gpxtpx:TrackPointExtension><gpxtpx:atemp>2.1</gpxtpx:atemp></gpxtpx:TrackPointExtension></extensions></trkpt><trkpt lat="42.2239972372" lon="13.4158337396"><ele>1596.24</ele><time>2026-03-11T16:37:22Z</time><extensions><gpxtpx:TrackPointExtension><gpxtpx:atemp>2.1</gpxtpx:atemp></gpxtpx:TrackPointExtension></extensions></trkpt><trkpt lat="42.2240057867" lon="13.4158340748"><ele>1596.14</ele><time>2026-03-11T16:37:23Z</time><extensions><gpxtpx:TrackPointExtension><gpxtpx:atemp>2.1</gpxtpx:atemp></gpxtpx:TrackPointExtension></extensions></trkpt><trkpt lat="42.2240151744" lon="13.4158359189"><ele>1596.05</ele><time>2026-03-11T16:37:24Z</time><extensions><gpxtpx:TrackPointExtension><gpxtpx:atemp>2.1</gpxtpx:atemp></gpxtpx:TrackPointExtension></extensions></trkpt><trkpt lat="42.2240241431" lon="13.4158346616"><ele>1595.97</ele><time>2026-03-11T16:37:25Z</time><extensions><gpxtpx:TrackPointExtension><gpxtpx:atemp>2.1</gpxtpx:atemp></gpxtpx:TrackPointExtension></extensions></trkpt><trkpt lat="42.2240318544" lon="13.4158319794"><ele>1595.92</ele><time>2026-03-11T16:37:26Z</time><extensions><gpxtpx:TrackPointExtension><gpxtpx:atemp>2.1</gpxtpx:atemp></gpxtpx:TrackPointExtension></extensions></trkpt><trkpt lat="42.2240404878" lon="13.4158268664"><ele>1595.85</ele><time>2026-03-11T16:37:27Z</time><extensions><gpxtpx:TrackPointExtension><gpxtpx:atemp>2.1</gpxtpx:atemp></gpxtpx:TrackPointExtension></extensions></trkpt><trkpt lat="42.2240496241" lon="13.4158225916"><ele>1595.82</ele><time>2026-03-11T16:37:28Z</time><extensions><gpxtpx:TrackPointExtension><gpxtpx:atemp>2.1</gpxtpx:atemp></gpxtpx:TrackPointExtension></extensions></trkpt><trkpt lat="42.2240571678" lon="13.4158167243"><ele>1595.80</ele><time>2026-03-11T16:37:29Z</time><extensions><gpxtpx:TrackPointExtension><gpxtpx:atemp>2.1</gpxtpx:atemp></gpxtpx:TrackPointExtension></extensions></trkpt><trkpt lat="42.2240648791" lon="13.4158119466"><ele>1595.78</ele><time>2026-03-11T16:37:30Z</time><extensions><gpxtpx:TrackPointExtension><gpxtpx:atemp>2.1</gpxtpx:atemp></gpxtpx:TrackPointExtension></extensions></trkpt><trkpt lat="42.2240746859" lon="13.4158130363"><ele>1595.74</ele><time>2026-03-11T16:37:31Z</time><extensions><gpxtpx:TrackPointExtension><gpxtpx:atemp>2.1</gpxtpx:atemp></gpxtpx:TrackPointExtension></extensions></trkpt><trkpt lat="42.2240839899" lon="13.4158118628"><ele>1595.70</ele><time>2026-03-11T16:37:32Z</time><extensions><gpxtpx:TrackPointExtension><gpxtpx:atemp>2.1</gpxtpx:atemp></gpxtpx:TrackPointExtension></extensions></trkpt><trkpt lat="42.2240937967" lon="13.4158091806"><ele>1595.68</ele><time>2026-03-11T16:37:33Z</time><extensions><gpxtpx:TrackPointExtension><gpxtpx:atemp>2.1</gpxtpx:atemp></gpxtpx:TrackPointExtension></extensions></trkpt><trkpt lat="42.2241043579" lon="13.4158063307"><ele>1595.66</ele><time>2026-03-11T16:37:34Z</time><extensions><gpxtpx:TrackPointExtension><gpxtpx:atemp>2.0</gpxtpx:atemp></gpxtpx:TrackPointExtension></extensions></trkpt><trkpt lat="42.2241137456" lon="13.4158093482"><ele>1595.65</ele><time>2026-03-11T16:37:35Z</time><extensions><gpxtpx:TrackPointExtension><gpxtpx:atemp>2.0</gpxtpx:atemp></gpxtpx:TrackPointExtension></extensions></trkpt><trkpt lat="42.2241246421" lon="13.4158075880"><ele>1595.62</ele><time>2026-03-11T16:37:36Z</time><extensions><gpxtpx:TrackPointExtension><gpxtpx:atemp>2.0</gpxtpx:atemp></gpxtpx:TrackPointExtension></extensions></trkpt><trkpt lat="42.2241333593" lon="13.4158101864"><ele>1595.61</ele><time>2026-03-11T16:37:37Z</time><extensions><gpxtpx:TrackPointExtension><gpxtpx:atemp>2.0</gpxtpx:atemp></gpxtpx:TrackPointExtension></extensions></trkpt><trkpt lat="42.2241411544" lon="13.4158180654"><ele>1595.62</ele><time>2026-03-11T16:37:38Z</time><extensions><gpxtpx:TrackPointExtension><gpxtpx:atemp>2.0</gpxtpx:atemp></gpxtpx:TrackPointExtension></extensions></trkpt><trkpt lat="42.2241516318" lon="13.4158253577"><ele>1595.64</ele><time>2026-03-11T16:37:39Z</time><extensions><gpxtpx:TrackPointExtension><gpxtpx:atemp>2.0</gpxtpx:atemp></gpxtpx:TrackPointExtension></extensions></trkpt><trkpt lat="42.2241609357" lon="13.4158320632"><ele>1595.63</ele><time>2026-03-11T16:37:40Z</time><extensions><gpxtpx:TrackPointExtension><gpxtpx:atemp>2.0</gpxtpx:atemp></gpxtpx:TrackPointExtension></extensions></trkpt><trkpt lat="42.2241688985" lon="13.4158340748"><ele>1595.62</ele><time>2026-03-11T16:37:41Z</time><extensions><gpxtpx:TrackPointExtension><gpxtpx:atemp>2.0</gpxtpx:atemp></gpxtpx:TrackPointExtension></extensions></trkpt><trkpt lat="42.2241771966" lon="13.4158388525"><ele>1595.62</ele><time>2026-03-11T16:37:42Z</time><extensions><gpxtpx:TrackPointExtension><gpxtpx:atemp>2.0</gpxtpx:atemp></gpxtpx:TrackPointExtension></extensions></trkpt><trkpt lat="42.2241858300" lon="13.4158432949"><ele>1595.64</ele><time>2026-03-11T16:37:43Z</time><extensions><gpxtpx:TrackPointExtension><gpxtpx:atemp>2.0</gpxtpx:atemp></gpxtpx:TrackPointExtension></extensions></trkpt><trkpt lat="42.2241927870" lon="13.4158418700"><ele>1595.63</ele><time>2026-03-11T16:37:44Z</time><extensions><gpxtpx:TrackPointExtension><gpxtpx:atemp>2.0</gpxtpx:atemp></gpxtpx:TrackPointExtension></extensions></trkpt><trkpt lat="42.2242010850" lon="13.4158453904"><ele>1595.62</ele><time>2026-03-11T16:37:45Z</time><extensions><gpxtpx:TrackPointExtension><gpxtpx:atemp>2.0</gpxtpx:atemp></gpxtpx:TrackPointExtension></extensions></trkpt><trkpt lat="42.2242082935" lon="13.4158506710"><ele>1595.61</ele><time>2026-03-11T16:37:46Z</time><extensions><gpxtpx:TrackPointExtension><gpxtpx:atemp>2.0</gpxtpx:atemp></gpxtpx:TrackPointExtension></extensions></trkpt><trkpt lat="42.2242168430" lon="13.4158553649"><ele>1595.61</ele><time>2026-03-11T16:37:47Z</time><extensions><gpxtpx:TrackPointExtension><gpxtpx:atemp>2.0</gpxtpx:atemp></gpxtpx:TrackPointExtension></extensions></trkpt><trkpt lat="42.2242257278" lon="13.4158611484"><ele>1595.58</ele><time>2026-03-11T16:37:48Z</time><extensions><gpxtpx:TrackPointExtension><gpxtpx:atemp>2.0</gpxtpx:atemp></gpxtpx:TrackPointExtension></extensions></trkpt><trkpt lat="42.2242345288" lon="13.4158674348"><ele>1595.58</ele><time>2026-03-11T16:37:49Z</time><extensions><gpxtpx:TrackPointExtension><gpxtpx:atemp>2.0</gpxtpx:atemp></gpxtpx:TrackPointExtension></extensions></trkpt><trkpt lat="42.2242429946" lon="13.4158741403"><ele>1595.53</ele><time>2026-03-11T16:37:50Z</time><extensions><gpxtpx:TrackPointExtension><gpxtpx:atemp>2.0</gpxtpx:atemp></gpxtpx:TrackPointExtension></extensions></trkpt><trkpt lat="42.2242520470" lon="13.4158776607"><ele>1595.52</ele><time>2026-03-11T16:37:51Z</time><extensions><gpxtpx:TrackPointExtension><gpxtpx:atemp>2.0</gpxtpx:atemp></gpxtpx:TrackPointExtension></extensions></trkpt><trkpt lat="42.2242606804" lon="13.4158843663"><ele>1595.52</ele><time>2026-03-11T16:37:52Z</time><extensions><gpxtpx:TrackPointExtension><gpxtpx:atemp>2.0</gpxtpx:atemp></gpxtpx:TrackPointExtension></extensions></trkpt><trkpt lat="42.2242665477" lon="13.4158912394"><ele>1595.53</ele><time>2026-03-11T16:37:53Z</time><extensions><gpxtpx:TrackPointExtension><gpxtpx:atemp>2.0</gpxtpx:atemp></gpxtpx:TrackPointExtension></extensions></trkpt><trkpt lat="42.2242755163" lon="13.4158946760"><ele>1595.54</ele><time>2026-03-11T16:37:54Z</time><extensions><gpxtpx:TrackPointExtension><gpxtpx:atemp>2.0</gpxtpx:atemp></gpxtpx:TrackPointExtension></extensions></trkpt><trkpt lat="42.2242837306" lon="13.4158985317"><ele>1595.58</ele><time>2026-03-11T16:37:55Z</time><extensions><gpxtpx:TrackPointExtension><gpxtpx:atemp>2.0</gpxtpx:atemp></gpxtpx:TrackPointExtension></extensions></trkpt><trkpt lat="42.2242902685" lon="13.4159033932"><ele>1595.64</ele><time>2026-03-11T16:37:56Z</time><extensions><gpxtpx:TrackPointExtension><gpxtpx:atemp>2.0</gpxtpx:atemp></gpxtpx:TrackPointExtension></extensions></trkpt><trkpt lat="42.2242975608" lon="13.4159099311"><ele>1595.68</ele><time>2026-03-11T16:37:57Z</time><extensions><gpxtpx:TrackPointExtension><gpxtpx:atemp>2.0</gpxtpx:atemp></gpxtpx:TrackPointExtension></extensions></trkpt><trkpt lat="42.2243051883" lon="13.4159142897"><ele>1595.72</ele><time>2026-03-11T16:37:58Z</time><extensions><gpxtpx:TrackPointExtension><gpxtpx:atemp>2.0</gpxtpx:atemp></gpxtpx:TrackPointExtension></extensions></trkpt><trkpt lat="42.2243118938" lon="13.4159179777"><ele>1595.76</ele><time>2026-03-11T16:37:59Z</time><extensions><gpxtpx:TrackPointExtension><gpxtpx:atemp>2.0</gpxtpx:atemp></gpxtpx:TrackPointExtension></extensions></trkpt><trkpt lat="42.2243206948" lon="13.4159219172"><ele>1595.80</ele><time>2026-03-11T16:38:00Z</time><extensions><gpxtpx:TrackPointExtension><gpxtpx:atemp>2.0</gpxtpx:atemp></gpxtpx:TrackPointExtension></extensions></trkpt><trkpt lat="42.2243274841" lon="13.4159267787"><ele>1595.92</ele><time>2026-03-11T16:38:01Z</time><extensions><gpxtpx:TrackPointExtension><gpxtpx:atemp>2.0</gpxtpx:atemp></gpxtpx:TrackPointExtension></extensions></trkpt><trkpt lat="42.2243371233" lon="13.4159301315"><ele>1595.96</ele><time>2026-03-11T16:38:02Z</time><extensions><gpxtpx:TrackPointExtension><gpxtpx:atemp>2.0</gpxtpx:atemp></gpxtpx:TrackPointExtension></extensions></trkpt><trkpt lat="42.2243462596" lon="13.4159338195"><ele>1596.03</ele><time>2026-03-11T16:38:03Z</time><extensions><gpxtpx:TrackPointExtension><gpxtpx:atemp>2.0</gpxtpx:atemp></gpxtpx:TrackPointExtension></extensions></trkpt><trkpt lat="42.2243542224" lon="13.4159355797"><ele>1596.10</ele><time>2026-03-11T16:38:04Z</time><extensions><gpxtpx:TrackPointExtension><gpxtpx:atemp>2.0</gpxtpx:atemp></gpxtpx:TrackPointExtension></extensions></trkpt><trkpt lat="42.2243602574" lon="13.4159365855"><ele>1596.16</ele><time>2026-03-11T16:38:05Z</time><extensions><gpxtpx:TrackPointExtension><gpxtpx:atemp>2.0</gpxtpx:atemp></gpxtpx:TrackPointExtension></extensions></trkpt><trkpt lat="42.2243666276" lon="13.4159446321"><ele>1596.21</ele><time>2026-03-11T16:38:06Z</time><extensions><gpxtpx:TrackPointExtension><gpxtpx:atemp>2.0</gpxtpx:atemp></gpxtpx:TrackPointExtension></extensions></trkpt><trkpt lat="42.2243757639" lon="13.4159494936"><ele>1596.26</ele><time>2026-03-11T16:38:07Z</time><extensions><gpxtpx:TrackPointExtension><gpxtpx:atemp>2.0</gpxtpx:atemp></gpxtpx:TrackPointExtension></extensions></trkpt><trkpt lat="42.2243831400" lon="13.4159531817"><ele>1596.31</ele><time>2026-03-11T16:38:08Z</time><extensions><gpxtpx:TrackPointExtension><gpxtpx:atemp>2.0</gpxtpx:atemp></gpxtpx:TrackPointExtension></extensions></trkpt><trkpt lat="42.2243897617" lon="13.4159571212"><ele>1596.36</ele><time>2026-03-11T16:38:09Z</time><extensions><gpxtpx:TrackPointExtension><gpxtpx:atemp>2.0</gpxtpx:atemp></gpxtpx:TrackPointExtension></extensions></trkpt><trkpt lat="42.2243969701" lon="13.4159620665"><ele>1596.44</ele><time>2026-03-11T16:38:10Z</time><extensions><gpxtpx:TrackPointExtension><gpxtpx:atemp>2.0</gpxtpx:atemp></gpxtpx:TrackPointExtension></extensions></trkpt><trkpt lat="42.2244038433" lon="13.4159644973"><ele>1596.52</ele><time>2026-03-11T16:38:11Z</time><extensions><gpxtpx:TrackPointExtension><gpxtpx:atemp>2.0</gpxtpx:atemp></gpxtpx:TrackPointExtension></extensions></trkpt><trkpt lat="42.2244118899" lon="13.4159666765"><ele>1596.59</ele><time>2026-03-11T16:38:12Z</time><extensions><gpxtpx:TrackPointExtension><gpxtpx:atemp>2.0</gpxtpx:atemp></gpxtpx:TrackPointExtension></extensions></trkpt><trkpt lat="42.2244194336" lon="13.4159703646"><ele>1596.66</ele><time>2026-03-11T16:38:13Z</time><extensions><gpxtpx:TrackPointExtension><gpxtpx:atemp>2.0</gpxtpx:atemp></gpxtpx:TrackPointExtension></extensions></trkpt><trkpt lat="42.2244289890" lon="13.4159738850"><ele>1596.80</ele><time>2026-03-11T16:38:14Z</time><extensions><gpxtpx:TrackPointExtension><gpxtpx:atemp>2.0</gpxtpx:atemp></gpxtpx:TrackPointExtension></extensions></trkpt><trkpt lat="42.2244386282" lon="13.4159796685"><ele>1596.88</ele><time>2026-03-11T16:38:15Z</time><extensions><gpxtpx:TrackPointExtension><gpxtpx:atemp>2.0</gpxtpx:atemp></gpxtpx:TrackPointExtension></extensions></trkpt><trkpt lat="42.2244455852" lon="13.4159860387"><ele>1596.93</ele><time>2026-03-11T16:38:16Z</time><extensions><gpxtpx:TrackPointExtension><gpxtpx:atemp>2.0</gpxtpx:atemp></gpxtpx:TrackPointExtension></extensions></trkpt><trkpt lat="42.2244520392" lon="13.4159908164"><ele>1596.98</ele><time>2026-03-11T16:38:17Z</time><extensions><gpxtpx:TrackPointExtension><gpxtpx:atemp>2.0</gpxtpx:atemp></gpxtpx:TrackPointExtension></extensions></trkpt><trkpt lat="42.2244614270" lon="13.4159958456"><ele>1596.99</ele><time>2026-03-11T16:38:18Z</time><extensions><gpxtpx:TrackPointExtension><gpxtpx:atemp>2.0</gpxtpx:atemp></gpxtpx:TrackPointExtension></extensions></trkpt><trkpt lat="42.2244710661" lon="13.4159989469"><ele>1596.99</ele><time>2026-03-11T16:38:19Z</time><extensions><gpxtpx:TrackPointExtension><gpxtpx:atemp>2.0</gpxtpx:atemp></gpxtpx:TrackPointExtension></extensions></trkpt><trkpt lat="42.2244795319" lon="13.4160044789"><ele>1596.99</ele><time>2026-03-11T16:38:20Z</time><extensions><gpxtpx:TrackPointExtension><gpxtpx:atemp>2.0</gpxtpx:atemp></gpxtpx:TrackPointExtension></extensions></trkpt><trkpt lat="42.2244887520" lon="13.4160096757"><ele>1596.99</ele><time>2026-03-11T16:38:21Z</time><extensions><gpxtpx:TrackPointExtension><gpxtpx:atemp>2.0</gpxtpx:atemp></gpxtpx:TrackPointExtension></extensions></trkpt><trkpt lat="42.2244937811" lon="13.4160178900"><ele>1596.99</ele><time>2026-03-11T16:38:22Z</time><extensions><gpxtpx:TrackPointExtension><gpxtpx:atemp>2.0</gpxtpx:atemp></gpxtpx:TrackPointExtension></extensions></trkpt><trkpt lat="42.2244992293" lon="13.4160262719"><ele>1596.97</ele><time>2026-03-11T16:38:23Z</time><extensions><gpxtpx:TrackPointExtension><gpxtpx:atemp>2.0</gpxtpx:atemp></gpxtpx:TrackPointExtension></extensions></trkpt><trkpt lat="42.2245052643" lon="13.4160362463"><ele>1596.96</ele><time>2026-03-11T16:38:24Z</time><extensions><gpxtpx:TrackPointExtension><gpxtpx:atemp>2.0</gpxtpx:atemp></gpxtpx:TrackPointExtension></extensions></trkpt><trkpt lat="42.2245114669" lon="13.4160466399"><ele>1596.88</ele><time>2026-03-11T16:38:25Z</time><extensions><gpxtpx:TrackPointExtension><gpxtpx:atemp>2.0</gpxtpx:atemp></gpxtpx:TrackPointExtension></extensions></trkpt><trkpt lat="42.2245171666" lon="13.4160561953"><ele>1596.86</ele><time>2026-03-11T16:38:26Z</time><extensions><gpxtpx:TrackPointExtension><gpxtpx:atemp>2.0</gpxtpx:atemp></gpxtpx:TrackPointExtension></extensions></trkpt><trkpt lat="42.2245255485" lon="13.4160629846"><ele>1596.85</ele><time>2026-03-11T16:38:27Z</time><extensions><gpxtpx:TrackPointExtension><gpxtpx:atemp>2.0</gpxtpx:atemp></gpxtpx:TrackPointExtension></extensions></trkpt><trkpt lat="42.2245328408" lon="13.4160685167"><ele>1596.85</ele><time>2026-03-11T16:38:28Z</time><extensions><gpxtpx:TrackPointExtension><gpxtpx:atemp>2.0</gpxtpx:atemp></gpxtpx:TrackPointExtension></extensions></trkpt><trkpt lat="42.2245410550" lon="13.4160723723"><ele>1596.85</ele><time>2026-03-11T16:38:29Z</time><extensions><gpxtpx:TrackPointExtension><gpxtpx:atemp>2.0</gpxtpx:atemp></gpxtpx:TrackPointExtension></extensions></trkpt><trkpt lat="42.2245469224" lon="13.4160789941"><ele>1596.83</ele><time>2026-03-11T16:38:30Z</time><extensions><gpxtpx:TrackPointExtension><gpxtpx:atemp>2.0</gpxtpx:atemp></gpxtpx:TrackPointExtension></extensions></trkpt><trkpt lat="42.2245561425" lon="13.4160822630"><ele>1596.80</ele><time>2026-03-11T16:38:31Z</time><extensions><gpxtpx:TrackPointExtension><gpxtpx:atemp>2.0</gpxtpx:atemp></gpxtpx:TrackPointExtension></extensions></trkpt><trkpt lat="42.2245651949" lon="13.4160879627"><ele>1596.73</ele><time>2026-03-11T16:38:32Z</time><extensions><gpxtpx:TrackPointExtension><gpxtpx:atemp>2.0</gpxtpx:atemp></gpxtpx:TrackPointExtension></extensions></trkpt><trkpt lat="42.2245744988" lon="13.4160951711"><ele>1596.69</ele><time>2026-03-11T16:38:33Z</time><extensions><gpxtpx:TrackPointExtension><gpxtpx:atemp>2.0</gpxtpx:atemp></gpxtpx:TrackPointExtension></extensions></trkpt><trkpt lat="42.2245837189" lon="13.4161012899"><ele>1596.65</ele><time>2026-03-11T16:38:34Z</time><extensions><gpxtpx:TrackPointExtension><gpxtpx:atemp>2.2</gpxtpx:atemp></gpxtpx:TrackPointExtension></extensions></trkpt><trkpt lat="42.2245916817" lon="13.4161054809"><ele>1596.64</ele><time>2026-03-11T16:38:35Z</time><extensions><gpxtpx:TrackPointExtension><gpxtpx:atemp>2.2</gpxtpx:atemp></gpxtpx:TrackPointExtension></extensions></trkpt><trkpt lat="42.2246004827" lon="13.4161079954"><ele>1596.64</ele><time>2026-03-11T16:38:36Z</time><extensions><gpxtpx:TrackPointExtension><gpxtpx:atemp>2.2</gpxtpx:atemp></gpxtpx:TrackPointExtension></extensions></trkpt><trkpt lat="42.2246104572" lon="13.4161117673"><ele>1596.64</ele><time>2026-03-11T16:38:37Z</time><extensions><gpxtpx:TrackPointExtension><gpxtpx:atemp>2.2</gpxtpx:atemp></gpxtpx:TrackPointExtension></extensions></trkpt><trkpt lat="42.2246188391" lon="13.4161133599"><ele>1596.65</ele><time>2026-03-11T16:38:38Z</time><extensions><gpxtpx:TrackPointExtension><gpxtpx:atemp>2.2</gpxtpx:atemp></gpxtpx:TrackPointExtension></extensions></trkpt><trkpt lat="42.2246283945" lon="13.4161146171"><ele>1596.65</ele><time>2026-03-11T16:38:39Z</time><extensions><gpxtpx:TrackPointExtension><gpxtpx:atemp>2.2</gpxtpx:atemp></gpxtpx:TrackPointExtension></extensions></trkpt><trkpt lat="42.2246373631" lon="13.4161161259"><ele>1596.65</ele><time>2026-03-11T16:38:40Z</time><extensions><gpxtpx:TrackPointExtension><gpxtpx:atemp>2.2</gpxtpx:atemp></gpxtpx:TrackPointExtension></extensions></trkpt><trkpt lat="42.2246464994" lon="13.4161171317"><ele>1596.65</ele><time>2026-03-11T16:38:41Z</time><extensions><gpxtpx:TrackPointExtension><gpxtpx:atemp>2.2</gpxtpx:atemp></gpxtpx:TrackPointExtension></extensions></trkpt><trkpt lat="42.2246539593" lon="13.4161200654"><ele>1596.65</ele><time>2026-03-11T16:38:42Z</time><extensions><gpxtpx:TrackPointExtension><gpxtpx:atemp>2.2</gpxtpx:atemp></gpxtpx:TrackPointExtension></extensions></trkpt><trkpt lat="42.2246621735" lon="13.4161222447"><ele>1596.67</ele><time>2026-03-11T16:38:43Z</time><extensions><gpxtpx:TrackPointExtension><gpxtpx:atemp>2.2</gpxtpx:atemp></gpxtpx:TrackPointExtension></extensions></trkpt><trkpt lat="42.2246730700" lon="13.4161185566"><ele>1596.68</ele><time>2026-03-11T16:38:44Z</time><extensions><gpxtpx:TrackPointExtension><gpxtpx:atemp>2.2</gpxtpx:atemp></gpxtpx:TrackPointExtension></extensions></trkpt><trkpt lat="42.2246810328" lon="13.4161206521"><ele>1596.70</ele><time>2026-03-11T16:38:45Z</time><extensions><gpxtpx:TrackPointExtension><gpxtpx:atemp>2.2</gpxtpx:atemp></gpxtpx:TrackPointExtension></extensions></trkpt><trkpt lat="42.2246901691" lon="13.4161243401"><ele>1596.71</ele><time>2026-03-11T16:38:46Z</time><extensions><gpxtpx:TrackPointExtension><gpxtpx:atemp>2.2</gpxtpx:atemp></gpxtpx:TrackPointExtension></extensions></trkpt><trkpt lat="42.2246980481" lon="13.4161269385"><ele>1596.71</ele><time>2026-03-11T16:38:47Z</time><extensions><gpxtpx:TrackPointExtension><gpxtpx:atemp>2.2</gpxtpx:atemp></gpxtpx:TrackPointExtension></extensions></trkpt><trkpt lat="42.2247064300" lon="13.4161293693"><ele>1596.74</ele><time>2026-03-11T16:38:48Z</time><extensions><gpxtpx:TrackPointExtension><gpxtpx:atemp>2.2</gpxtpx:atemp></gpxtpx:TrackPointExtension></extensions></trkpt><trkpt lat="42.2247151472" lon="13.4161312971"><ele>1596.75</ele><time>2026-03-11T16:38:49Z</time><extensions><gpxtpx:TrackPointExtension><gpxtpx:atemp>2.2</gpxtpx:atemp></gpxtpx:TrackPointExtension></extensions></trkpt><trkpt lat="42.2247241996" lon="13.4161314648"><ele>1596.76</ele><time>2026-03-11T16:38:50Z</time><extensions><gpxtpx:TrackPointExtension><gpxtpx:atemp>2.2</gpxtpx:atemp></gpxtpx:TrackPointExtension></extensions></trkpt><trkpt lat="42.2247315757" lon="13.4161342308"><ele>1596.76</ele><time>2026-03-11T16:38:51Z</time><extensions><gpxtpx:TrackPointExtension><gpxtpx:atemp>2.2</gpxtpx:atemp></gpxtpx:TrackPointExtension></extensions></trkpt><trkpt lat="42.2247390356" lon="13.4161380865"><ele>1596.76</ele><time>2026-03-11T16:38:52Z</time><extensions><gpxtpx:TrackPointExtension><gpxtpx:atemp>2.2</gpxtpx:atemp></gpxtpx:TrackPointExtension></extensions></trkpt><trkpt lat="42.2247463278" lon="13.4161379188"><ele>1596.76</ele><time>2026-03-11T16:38:53Z</time><extensions><gpxtpx:TrackPointExtension><gpxtpx:atemp>2.2</gpxtpx:atemp></gpxtpx:TrackPointExtension></extensions></trkpt><trkpt lat="42.2247561347" lon="13.4161385894"><ele>1596.76</ele><time>2026-03-11T16:38:54Z</time><extensions><gpxtpx:TrackPointExtension><gpxtpx:atemp>2.2</gpxtpx:atemp></gpxtpx:TrackPointExtension></extensions></trkpt><trkpt lat="42.2247632593" lon="13.4161391761"><ele>1596.77</ele><time>2026-03-11T16:38:55Z</time><extensions><gpxtpx:TrackPointExtension><gpxtpx:atemp>2.2</gpxtpx:atemp></gpxtpx:TrackPointExtension></extensions></trkpt><trkpt lat="42.2247718927" lon="13.4161427803"><ele>1596.81</ele><time>2026-03-11T16:38:56Z</time><extensions><gpxtpx:TrackPointExtension><gpxtpx:atemp>2.2</gpxtpx:atemp></gpxtpx:TrackPointExtension></extensions></trkpt><trkpt lat="42.2247806937" lon="13.4161461331"><ele>1596.89</ele><time>2026-03-11T16:38:57Z</time><extensions><gpxtpx:TrackPointExtension><gpxtpx:atemp>2.2</gpxtpx:atemp></gpxtpx:TrackPointExtension></extensions></trkpt><trkpt lat="42.2247886565" lon="13.4161494859"><ele>1596.96</ele><time>2026-03-11T16:38:58Z</time><extensions><gpxtpx:TrackPointExtension><gpxtpx:atemp>2.2</gpxtpx:atemp></gpxtpx:TrackPointExtension></extensions></trkpt><trkpt lat="42.2247977927" lon="13.4161499888"><ele>1597.04</ele><time>2026-03-11T16:38:59Z</time><extensions><gpxtpx:TrackPointExtension><gpxtpx:atemp>2.2</gpxtpx:atemp></gpxtpx:TrackPointExtension></extensions></trkpt><trkpt lat="42.2248055879" lon="13.4161523357"><ele>1597.13</ele><time>2026-03-11T16:39:00Z</time><extensions><gpxtpx:TrackPointExtension><gpxtpx:atemp>2.2</gpxtpx:atemp></gpxtpx:TrackPointExtension></extensions></trkpt><trkpt lat="42.2248139698" lon="13.4161521681"><ele>1597.19</ele><time>2026-03-11T16:39:01Z</time><extensions><gpxtpx:TrackPointExtension><gpxtpx:atemp>2.2</gpxtpx:atemp></gpxtpx:TrackPointExtension></extensions></trkpt><trkpt lat="42.2248218488" lon="13.4161546826"><ele>1597.23</ele><time>2026-03-11T16:39:02Z</time><extensions><gpxtpx:TrackPointExtension><gpxtpx:atemp>2.2</gpxtpx:atemp></gpxtpx:TrackPointExtension></extensions></trkpt><trkpt lat="42.2248309851" lon="13.4161557723"><ele>1597.28</ele><time>2026-03-11T16:39:03Z</time><extensions><gpxtpx:TrackPointExtension><gpxtpx:atemp>2.2</gpxtpx:atemp></gpxtpx:TrackPointExtension></extensions></trkpt><trkpt lat="42.2248389479" lon="13.4161576163"><ele>1597.29</ele><time>2026-03-11T16:39:04Z</time><extensions><gpxtpx:TrackPointExtension><gpxtpx:atemp>2.2</gpxtpx:atemp></gpxtpx:TrackPointExtension></extensions></trkpt><trkpt lat="42.2248464916" lon="13.4161580354"><ele>1597.29</ele><time>2026-03-11T16:39:05Z</time><extensions><gpxtpx:TrackPointExtension><gpxtpx:atemp>2.2</gpxtpx:atemp></gpxtpx:TrackPointExtension></extensions></trkpt><trkpt lat="42.2248557955" lon="13.4161584545"><ele>1597.29</ele><time>2026-03-11T16:39:06Z</time><extensions><gpxtpx:TrackPointExtension><gpxtpx:atemp>2.2</gpxtpx:atemp></gpxtpx:TrackPointExtension></extensions></trkpt><trkpt lat="42.2248650994" lon="13.4161588736"><ele>1597.29</ele><time>2026-03-11T16:39:07Z</time><extensions><gpxtpx:TrackPointExtension><gpxtpx:atemp>2.2</gpxtpx:atemp></gpxtpx:TrackPointExtension></extensions></trkpt><trkpt lat="42.2248737328" lon="13.4161634836"><ele>1597.29</ele><time>2026-03-11T16:39:08Z</time><extensions><gpxtpx:TrackPointExtension><gpxtpx:atemp>2.2</gpxtpx:atemp></gpxtpx:TrackPointExtension></extensions></trkpt><trkpt lat="42.2248816956" lon="13.4161655791"><ele>1597.29</ele><time>2026-03-11T16:39:09Z</time><extensions><gpxtpx:TrackPointExtension><gpxtpx:atemp>2.2</gpxtpx:atemp></gpxtpx:TrackPointExtension></extensions></trkpt><trkpt lat="42.2248896584" lon="13.4161639865"><ele>1597.29</ele><time>2026-03-11T16:39:10Z</time><extensions><gpxtpx:TrackPointExtension><gpxtpx:atemp>2.2</gpxtpx:atemp></gpxtpx:TrackPointExtension></extensions></trkpt><trkpt lat="42.2248987947" lon="13.4161640704"><ele>1597.38</ele><time>2026-03-11T16:39:11Z</time><extensions><gpxtpx:TrackPointExtension><gpxtpx:atemp>2.2</gpxtpx:atemp></gpxtpx:TrackPointExtension></extensions></trkpt><trkpt lat="42.2249056678" lon="13.4161676746"><ele>1597.42</ele><time>2026-03-11T16:39:12Z</time><extensions><gpxtpx:TrackPointExtension><gpxtpx:atemp>2.2</gpxtpx:atemp></gpxtpx:TrackPointExtension></extensions></trkpt><trkpt lat="42.2249132954" lon="13.4161676746"><ele>1597.47</ele><time>2026-03-11T16:39:13Z</time><extensions><gpxtpx:TrackPointExtension><gpxtpx:atemp>2.2</gpxtpx:atemp></gpxtpx:TrackPointExtension></extensions></trkpt><trkpt lat="42.2249213420" lon="13.4161674231"><ele>1597.47</ele><time>2026-03-11T16:39:14Z</time><extensions><gpxtpx:TrackPointExtension><gpxtpx:atemp>2.2</gpxtpx:atemp></gpxtpx:TrackPointExtension></extensions></trkpt><trkpt lat="42.2249283828" lon="13.4161710273"><ele>1597.48</ele><time>2026-03-11T16:39:15Z</time><extensions><gpxtpx:TrackPointExtension><gpxtpx:atemp>2.2</gpxtpx:atemp></gpxtpx:TrackPointExtension></extensions></trkpt><trkpt lat="42.2249374352" lon="13.4161728714"><ele>1597.50</ele><time>2026-03-11T16:39:16Z</time><extensions><gpxtpx:TrackPointExtension><gpxtpx:atemp>2.2</gpxtpx:atemp></gpxtpx:TrackPointExtension></extensions></trkpt><trkpt lat="42.2249445599" lon="13.4161717817"><ele>1597.52</ele><time>2026-03-11T16:39:17Z</time><extensions><gpxtpx:TrackPointExtension><gpxtpx:atemp>2.2</gpxtpx:atemp></gpxtpx:TrackPointExtension></extensions></trkpt><trkpt lat="42.2249532770" lon="13.4161727875"><ele>1597.53</ele><time>2026-03-11T16:39:18Z</time><extensions><gpxtpx:TrackPointExtension><gpxtpx:atemp>2.2</gpxtpx:atemp></gpxtpx:TrackPointExtension></extensions></trkpt><trkpt lat="42.2249630839" lon="13.4161724523"><ele>1597.55</ele><time>2026-03-11T16:39:19Z</time><extensions><gpxtpx:TrackPointExtension><gpxtpx:atemp>2.2</gpxtpx:atemp></gpxtpx:TrackPointExtension></extensions></trkpt><trkpt lat="42.2249708790" lon="13.4161712788"><ele>1597.58</ele><time>2026-03-11T16:39:20Z</time><extensions><gpxtpx:TrackPointExtension><gpxtpx:atemp>2.2</gpxtpx:atemp></gpxtpx:TrackPointExtension></extensions></trkpt><trkpt lat="42.2249787580" lon="13.4161705244"><ele>1597.61</ele><time>2026-03-11T16:39:21Z</time><extensions><gpxtpx:TrackPointExtension><gpxtpx:atemp>2.2</gpxtpx:atemp></gpxtpx:TrackPointExtension></extensions></trkpt><trkpt lat="42.2249880619" lon="13.4161716979"><ele>1597.63</ele><time>2026-03-11T16:39:22Z</time><extensions><gpxtpx:TrackPointExtension><gpxtpx:atemp>2.2</gpxtpx:atemp></gpxtpx:TrackPointExtension></extensions></trkpt><trkpt lat="42.2249941807" lon="13.4161729552"><ele>1597.71</ele><time>2026-03-11T16:39:23Z</time><extensions><gpxtpx:TrackPointExtension><gpxtpx:atemp>2.2</gpxtpx:atemp></gpxtpx:TrackPointExtension></extensions></trkpt><trkpt lat="42.2250032332" lon="13.4161746316"><ele>1597.74</ele><time>2026-03-11T16:39:24Z</time><extensions><gpxtpx:TrackPointExtension><gpxtpx:atemp>2.2</gpxtpx:atemp></gpxtpx:TrackPointExtension></extensions></trkpt><trkpt lat="42.2250126209" lon="13.4161746316"><ele>1597.78</ele><time>2026-03-11T16:39:25Z</time><extensions><gpxtpx:TrackPointExtension><gpxtpx:atemp>2.2</gpxtpx:atemp></gpxtpx:TrackPointExtension></extensions></trkpt><trkpt lat="42.2250209190" lon="13.4161737934"><ele>1597.83</ele><time>2026-03-11T16:39:26Z</time><extensions><gpxtpx:TrackPointExtension><gpxtpx:atemp>2.2</gpxtpx:atemp></gpxtpx:TrackPointExtension></extensions></trkpt><trkpt lat="42.2250284627" lon="13.4161729552"><ele>1597.87</ele><time>2026-03-11T16:39:27Z</time><extensions><gpxtpx:TrackPointExtension><gpxtpx:atemp>2.2</gpxtpx:atemp></gpxtpx:TrackPointExtension></extensions></trkpt><trkpt lat="42.2250354197" lon="13.4161751345"><ele>1597.91</ele><time>2026-03-11T16:39:28Z</time><extensions><gpxtpx:TrackPointExtension><gpxtpx:atemp>2.2</gpxtpx:atemp></gpxtpx:TrackPointExtension></extensions></trkpt><trkpt lat="42.2250428796" lon="13.4161754698"><ele>1597.95</ele><time>2026-03-11T16:39:29Z</time><extensions><gpxtpx:TrackPointExtension><gpxtpx:atemp>2.2</gpxtpx:atemp></gpxtpx:TrackPointExtension></extensions></trkpt><trkpt lat="42.2250523511" lon="13.4161732905"><ele>1598.00</ele><time>2026-03-11T16:39:30Z</time><extensions><gpxtpx:TrackPointExtension><gpxtpx:atemp>2.2</gpxtpx:atemp></gpxtpx:TrackPointExtension></extensions></trkpt><trkpt lat="42.2250590567" lon="13.4161757212"><ele>1598.10</ele><time>2026-03-11T16:39:31Z</time><extensions><gpxtpx:TrackPointExtension><gpxtpx:atemp>2.2</gpxtpx:atemp></gpxtpx:TrackPointExtension></extensions></trkpt><trkpt lat="42.2250661813" lon="13.4161731228"><ele>1598.20</ele><time>2026-03-11T16:39:32Z</time><extensions><gpxtpx:TrackPointExtension><gpxtpx:atemp>2.2</gpxtpx:atemp></gpxtpx:TrackPointExtension></extensions></trkpt><trkpt lat="42.2250728868" lon="13.4161744639"><ele>1598.27</ele><time>2026-03-11T16:39:33Z</time><extensions><gpxtpx:TrackPointExtension><gpxtpx:atemp>2.2</gpxtpx:atemp></gpxtpx:TrackPointExtension></extensions></trkpt><trkpt lat="42.2250801791" lon="13.4161772300"><ele>1598.34</ele><time>2026-03-11T16:39:34Z</time><extensions><gpxtpx:TrackPointExtension><gpxtpx:atemp>2.2</gpxtpx:atemp></gpxtpx:TrackPointExtension></extensions></trkpt><trkpt lat="42.2250881419" lon="13.4161767270"><ele>1598.41</ele><time>2026-03-11T16:39:35Z</time><extensions><gpxtpx:TrackPointExtension><gpxtpx:atemp>2.2</gpxtpx:atemp></gpxtpx:TrackPointExtension></extensions></trkpt><trkpt lat="42.2250971943" lon="13.4161779843"><ele>1598.48</ele><time>2026-03-11T16:39:36Z</time><extensions><gpxtpx:TrackPointExtension><gpxtpx:atemp>2.2</gpxtpx:atemp></gpxtpx:TrackPointExtension></extensions></trkpt><trkpt lat="42.2251056600" lon="13.4161778167"><ele>1598.55</ele><time>2026-03-11T16:39:37Z</time><extensions><gpxtpx:TrackPointExtension><gpxtpx:atemp>2.2</gpxtpx:atemp></gpxtpx:TrackPointExtension></extensions></trkpt><trkpt lat="42.2251151316" lon="13.4161756374"><ele>1598.61</ele><time>2026-03-11T16:39:38Z</time><extensions><gpxtpx:TrackPointExtension><gpxtpx:atemp>2.2</gpxtpx:atemp></gpxtpx:TrackPointExtension></extensions></trkpt><trkpt lat="42.2251244355" lon="13.4161731228"><ele>1598.69</ele><time>2026-03-11T16:39:39Z</time><extensions><gpxtpx:TrackPointExtension><gpxtpx:atemp>2.2</gpxtpx:atemp></gpxtpx:TrackPointExtension></extensions></trkpt><trkpt lat="42.2251328174" lon="13.4161743801"><ele>1598.73</ele><time>2026-03-11T16:39:40Z</time><extensions><gpxtpx:TrackPointExtension><gpxtpx:atemp>2.2</gpxtpx:atemp></gpxtpx:TrackPointExtension></extensions></trkpt><trkpt lat="42.2251417860" lon="13.4161737934"><ele>1598.79</ele><time>2026-03-11T16:39:41Z</time><extensions><gpxtpx:TrackPointExtension><gpxtpx:atemp>2.2</gpxtpx:atemp></gpxtpx:TrackPointExtension></extensions></trkpt><trkpt lat="42.2251485754" lon="13.4161699377"><ele>1598.87</ele><time>2026-03-11T16:39:42Z</time><extensions><gpxtpx:TrackPointExtension><gpxtpx:atemp>2.2</gpxtpx:atemp></gpxtpx:TrackPointExtension></extensions></trkpt><trkpt lat="42.2251569573" lon="13.4161701892"><ele>1598.95</ele><time>2026-03-11T16:39:43Z</time><extensions><gpxtpx:TrackPointExtension><gpxtpx:atemp>2.2</gpxtpx:atemp></gpxtpx:TrackPointExtension></extensions></trkpt><trkpt lat="42.2251656745" lon="13.4161707759"><ele>1599.00</ele><time>2026-03-11T16:39:44Z</time><extensions><gpxtpx:TrackPointExtension><gpxtpx:atemp>2.2</gpxtpx:atemp></gpxtpx:TrackPointExtension></extensions></trkpt><trkpt lat="42.2251744755" lon="13.4161679260"><ele>1599.01</ele><time>2026-03-11T16:39:45Z</time><extensions><gpxtpx:TrackPointExtension><gpxtpx:atemp>2.2</gpxtpx:atemp></gpxtpx:TrackPointExtension></extensions></trkpt><trkpt lat="42.2251838632" lon="13.4161663335"><ele>1599.04</ele><time>2026-03-11T16:39:46Z</time><extensions><gpxtpx:TrackPointExtension><gpxtpx:atemp>2.2</gpxtpx:atemp></gpxtpx:TrackPointExtension></extensions></trkpt><trkpt lat="42.2251927480" lon="13.4161659982"><ele>1599.07</ele><time>2026-03-11T16:39:47Z</time><extensions><gpxtpx:TrackPointExtension><gpxtpx:atemp>2.2</gpxtpx:atemp></gpxtpx:TrackPointExtension></extensions></trkpt><trkpt lat="42.2252020519" lon="13.4161650762"><ele>1599.12</ele><time>2026-03-11T16:39:48Z</time><extensions><gpxtpx:TrackPointExtension><gpxtpx:atemp>2.2</gpxtpx:atemp></gpxtpx:TrackPointExtension></extensions></trkpt><trkpt lat="42.2252103500" lon="13.4161639865"><ele>1599.14</ele><time>2026-03-11T16:39:49Z</time><extensions><gpxtpx:TrackPointExtension><gpxtpx:atemp>2.2</gpxtpx:atemp></gpxtpx:TrackPointExtension></extensions></trkpt><trkpt lat="42.2252194863" lon="13.4161608852"><ele>1599.19</ele><time>2026-03-11T16:39:50Z</time><extensions><gpxtpx:TrackPointExtension><gpxtpx:atemp>2.2</gpxtpx:atemp></gpxtpx:TrackPointExtension></extensions></trkpt><trkpt lat="42.2252289578" lon="13.4161606338"><ele>1599.26</ele><time>2026-03-11T16:39:51Z</time><extensions><gpxtpx:TrackPointExtension><gpxtpx:atemp>2.2</gpxtpx:atemp></gpxtpx:TrackPointExtension></extensions></trkpt><trkpt lat="42.2252379265" lon="13.4161603823"><ele>1599.33</ele><time>2026-03-11T16:39:52Z</time><extensions><gpxtpx:TrackPointExtension><gpxtpx:atemp>2.2</gpxtpx:atemp></gpxtpx:TrackPointExtension></extensions></trkpt><trkpt lat="42.2252483200" lon="13.4161611367"><ele>1599.37</ele><time>2026-03-11T16:39:53Z</time><extensions><gpxtpx:TrackPointExtension><gpxtpx:atemp>2.2</gpxtpx:atemp></gpxtpx:TrackPointExtension></extensions></trkpt><trkpt lat="42.2252551932" lon="13.4161588736"><ele>1599.34</ele><time>2026-03-11T16:39:54Z</time><extensions><gpxtpx:TrackPointExtension><gpxtpx:atemp>2.2</gpxtpx:atemp></gpxtpx:TrackPointExtension></extensions></trkpt><trkpt lat="42.2252636589" lon="13.4161599632"><ele>1599.29</ele><time>2026-03-11T16:39:55Z</time><extensions><gpxtpx:TrackPointExtension><gpxtpx:atemp>2.2</gpxtpx:atemp></gpxtpx:TrackPointExtension></extensions></trkpt><trkpt lat="42.2252723761" lon="13.4161626454"><ele>1599.28</ele><time>2026-03-11T16:39:56Z</time><extensions><gpxtpx:TrackPointExtension><gpxtpx:atemp>2.2</gpxtpx:atemp></gpxtpx:TrackPointExtension></extensions></trkpt><trkpt lat="42.2252824344" lon="13.4161645733"><ele>1599.28</ele><time>2026-03-11T16:39:57Z</time><extensions><gpxtpx:TrackPointExtension><gpxtpx:atemp>2.2</gpxtpx:atemp></gpxtpx:TrackPointExtension></extensions></trkpt><trkpt lat="42.2252915706" lon="13.4161678422"><ele>1599.23</ele><time>2026-03-11T16:39:58Z</time><extensions><gpxtpx:TrackPointExtension><gpxtpx:atemp>2.2</gpxtpx:atemp></gpxtpx:TrackPointExtension></extensions></trkpt><trkpt lat="42.2253004555" lon="13.4161703568"><ele>1599.22</ele><time>2026-03-11T16:39:59Z</time><extensions><gpxtpx:TrackPointExtension><gpxtpx:atemp>2.2</gpxtpx:atemp></gpxtpx:TrackPointExtension></extensions></trkpt><trkpt lat="42.2253076639" lon="13.4161737934"><ele>1599.21</ele><time>2026-03-11T16:40:00Z</time><extensions><gpxtpx:TrackPointExtension><gpxtpx:atemp>2.2</gpxtpx:atemp></gpxtpx:TrackPointExtension></extensions></trkpt><trkpt lat="42.2253177222" lon="13.4161762241"><ele>1599.19</ele><time>2026-03-11T16:40:01Z</time><extensions><gpxtpx:TrackPointExtension><gpxtpx:atemp>2.2</gpxtpx:atemp></gpxtpx:TrackPointExtension></extensions></trkpt><trkpt lat="42.2253263555" lon="13.4161761403"><ele>1599.15</ele><time>2026-03-11T16:40:02Z</time><extensions><gpxtpx:TrackPointExtension><gpxtpx:atemp>2.2</gpxtpx:atemp></gpxtpx:TrackPointExtension></extensions></trkpt><trkpt lat="42.2253337316" lon="13.4161755536"><ele>1599.13</ele><time>2026-03-11T16:40:03Z</time><extensions><gpxtpx:TrackPointExtension><gpxtpx:atemp>2.2</gpxtpx:atemp></gpxtpx:TrackPointExtension></extensions></trkpt><trkpt lat="42.2253415268" lon="13.4161782358"><ele>1599.10</ele><time>2026-03-11T16:40:04Z</time><extensions><gpxtpx:TrackPointExtension><gpxtpx:atemp>2.2</gpxtpx:atemp></gpxtpx:TrackPointExtension></extensions></trkpt><trkpt lat="42.2253494896" lon="13.4161811695"><ele>1599.06</ele><time>2026-03-11T16:40:05Z</time><extensions><gpxtpx:TrackPointExtension><gpxtpx:atemp>2.2</gpxtpx:atemp></gpxtpx:TrackPointExtension></extensions></trkpt><trkpt lat="42.2253562789" lon="13.4161818400"><ele>1598.99</ele><time>2026-03-11T16:40:06Z</time><extensions><gpxtpx:TrackPointExtension><gpxtpx:atemp>2.2</gpxtpx:atemp></gpxtpx:TrackPointExtension></extensions></trkpt><trkpt lat="42.2253647447" lon="13.4161836840"><ele>1598.88</ele><time>2026-03-11T16:40:07Z</time><extensions><gpxtpx:TrackPointExtension><gpxtpx:atemp>2.2</gpxtpx:atemp></gpxtpx:TrackPointExtension></extensions></trkpt><trkpt lat="42.2253725398" lon="13.4161868691"><ele>1598.77</ele><time>2026-03-11T16:40:08Z</time><extensions><gpxtpx:TrackPointExtension><gpxtpx:atemp>2.2</gpxtpx:atemp></gpxtpx:TrackPointExtension></extensions></trkpt><trkpt lat="42.2253807541" lon="13.4161899704"><ele>1598.48</ele><time>2026-03-11T16:40:09Z</time><extensions><gpxtpx:TrackPointExtension><gpxtpx:atemp>2.2</gpxtpx:atemp></gpxtpx:TrackPointExtension></extensions></trkpt><trkpt lat="42.2253875434" lon="13.4161934908"><ele>1598.36</ele><time>2026-03-11T16:40:10Z</time><extensions><gpxtpx:TrackPointExtension><gpxtpx:atemp>2.2</gpxtpx:atemp></gpxtpx:TrackPointExtension></extensions></trkpt><trkpt lat="42.2253950872" lon="13.4161988553"><ele>1598.23</ele><time>2026-03-11T16:40:11Z</time><extensions><gpxtpx:TrackPointExtension><gpxtpx:atemp>2.2</gpxtpx:atemp></gpxtpx:TrackPointExtension></extensions></trkpt><trkpt lat="42.2254046425" lon="13.4162045550"><ele>1598.11</ele><time>2026-03-11T16:40:12Z</time><extensions><gpxtpx:TrackPointExtension><gpxtpx:atemp>2.2</gpxtpx:atemp></gpxtpx:TrackPointExtension></extensions></trkpt><trkpt lat="42.2254113480" lon="13.4162096679"><ele>1598.01</ele><time>2026-03-11T16:40:13Z</time><extensions><gpxtpx:TrackPointExtension><gpxtpx:atemp>2.2</gpxtpx:atemp></gpxtpx:TrackPointExtension></extensions></trkpt><trkpt lat="42.2254168801" lon="13.4162135236"><ele>1597.90</ele><time>2026-03-11T16:40:14Z</time><extensions><gpxtpx:TrackPointExtension><gpxtpx:atemp>2.2</gpxtpx:atemp></gpxtpx:TrackPointExtension></extensions></trkpt><trkpt lat="42.2254217416" lon="13.4162212349"><ele>1597.80</ele><time>2026-03-11T16:40:15Z</time><extensions><gpxtpx:TrackPointExtension><gpxtpx:atemp>2.2</gpxtpx:atemp></gpxtpx:TrackPointExtension></extensions></trkpt><trkpt lat="42.2254278604" lon="13.4162304550"><ele>1597.66</ele><time>2026-03-11T16:40:16Z</time><extensions><gpxtpx:TrackPointExtension><gpxtpx:atemp>2.2</gpxtpx:atemp></gpxtpx:TrackPointExtension></extensions></trkpt><trkpt lat="42.2254332248" lon="13.4162385855"><ele>1597.53</ele><time>2026-03-11T16:40:17Z</time><extensions><gpxtpx:TrackPointExtension><gpxtpx:atemp>2.2</gpxtpx:atemp></gpxtpx:TrackPointExtension></extensions></trkpt><trkpt lat="42.2254404332" lon="13.4162435308"><ele>1597.41</ele><time>2026-03-11T16:40:18Z</time><extensions><gpxtpx:TrackPointExtension><gpxtpx:atemp>2.2</gpxtpx:atemp></gpxtpx:TrackPointExtension></extensions></trkpt><trkpt lat="42.2254479770" lon="13.4162513260"><ele>1597.29</ele><time>2026-03-11T16:40:19Z</time><extensions><gpxtpx:TrackPointExtension><gpxtpx:atemp>2.2</gpxtpx:atemp></gpxtpx:TrackPointExtension></extensions></trkpt><trkpt lat="42.2254552692" lon="13.4162561875"><ele>1597.05</ele><time>2026-03-11T16:40:20Z</time><extensions><gpxtpx:TrackPointExtension><gpxtpx:atemp>2.2</gpxtpx:atemp></gpxtpx:TrackPointExtension></extensions></trkpt><trkpt lat="42.2254632320" lon="13.4162625577"><ele>1596.95</ele><time>2026-03-11T16:40:21Z</time><extensions><gpxtpx:TrackPointExtension><gpxtpx:atemp>2.2</gpxtpx:atemp></gpxtpx:TrackPointExtension></extensions></trkpt><trkpt lat="42.2254714463" lon="13.4162661619"><ele>1596.87</ele><time>2026-03-11T16:40:22Z</time><extensions><gpxtpx:TrackPointExtension><gpxtpx:atemp>2.2</gpxtpx:atemp></gpxtpx:TrackPointExtension></extensions></trkpt><trkpt lat="42.2254823428" lon="13.4162684251"><ele>1596.80</ele><time>2026-03-11T16:40:23Z</time><extensions><gpxtpx:TrackPointExtension><gpxtpx:atemp>2.2</gpxtpx:atemp></gpxtpx:TrackPointExtension></extensions></trkpt><trkpt lat="42.2254903894" lon="13.4162698500"><ele>1596.74</ele><time>2026-03-11T16:40:24Z</time><extensions><gpxtpx:TrackPointExtension><gpxtpx:atemp>2.2</gpxtpx:atemp></gpxtpx:TrackPointExtension></extensions></trkpt><trkpt lat="42.2254968435" lon="13.4162726998"><ele>1596.64</ele><time>2026-03-11T16:40:25Z</time><extensions><gpxtpx:TrackPointExtension><gpxtpx:atemp>2.2</gpxtpx:atemp></gpxtpx:TrackPointExtension></extensions></trkpt><trkpt lat="42.2255046386" lon="13.4162763879"><ele>1596.50</ele><time>2026-03-11T16:40:26Z</time><extensions><gpxtpx:TrackPointExtension><gpxtpx:atemp>2.2</gpxtpx:atemp></gpxtpx:TrackPointExtension></extensions></trkpt><trkpt lat="42.2255117632" lon="13.4162847698"><ele>1596.36</ele><time>2026-03-11T16:40:27Z</time><extensions><gpxtpx:TrackPointExtension><gpxtpx:atemp>2.2</gpxtpx:atemp></gpxtpx:TrackPointExtension></extensions></trkpt><trkpt lat="42.2255161218" lon="13.4162903856"><ele>1596.24</ele><time>2026-03-11T16:40:28Z</time><extensions><gpxtpx:TrackPointExtension><gpxtpx:atemp>2.2</gpxtpx:atemp></gpxtpx:TrackPointExtension></extensions></trkpt><trkpt lat="42.2255223244" lon="13.4162973426"><ele>1596.16</ele><time>2026-03-11T16:40:29Z</time><extensions><gpxtpx:TrackPointExtension><gpxtpx:atemp>2.2</gpxtpx:atemp></gpxtpx:TrackPointExtension></extensions></trkpt><trkpt lat="42.2255274374" lon="13.4163008630"><ele>1596.11</ele><time>2026-03-11T16:40:30Z</time><extensions><gpxtpx:TrackPointExtension><gpxtpx:atemp>2.2</gpxtpx:atemp></gpxtpx:TrackPointExtension></extensions></trkpt><trkpt lat="42.2255357355" lon="13.4163075686"><ele>1596.07</ele><time>2026-03-11T16:40:31Z</time><extensions><gpxtpx:TrackPointExtension><gpxtpx:atemp>2.2</gpxtpx:atemp></gpxtpx:TrackPointExtension></extensions></trkpt><trkpt lat="42.2255429439" lon="13.4163153637"><ele>1595.97</ele><time>2026-03-11T16:40:32Z</time><extensions><gpxtpx:TrackPointExtension><gpxtpx:atemp>2.2</gpxtpx:atemp></gpxtpx:TrackPointExtension></extensions></trkpt><trkpt lat="42.2255468834" lon="13.4163211472"><ele>1595.89</ele><time>2026-03-11T16:40:33Z</time><extensions><gpxtpx:TrackPointExtension><gpxtpx:atemp>2.2</gpxtpx:atemp></gpxtpx:TrackPointExtension></extensions></trkpt><trkpt lat="42.2255524993" lon="13.4163288586"><ele>1595.78</ele><time>2026-03-11T16:40:34Z</time><extensions><gpxtpx:TrackPointExtension><gpxtpx:atemp>2.2</gpxtpx:atemp></gpxtpx:TrackPointExtension></extensions></trkpt><trkpt lat="42.2255578637" lon="13.4163355641"><ele>1595.66</ele><time>2026-03-11T16:40:35Z</time><extensions><gpxtpx:TrackPointExtension><gpxtpx:atemp>2.2</gpxtpx:atemp></gpxtpx:TrackPointExtension></extensions></trkpt><trkpt lat="42.2255653236" lon="13.4163409285"><ele>1595.53</ele><time>2026-03-11T16:40:36Z</time><extensions><gpxtpx:TrackPointExtension><gpxtpx:atemp>2.2</gpxtpx:atemp></gpxtpx:TrackPointExtension></extensions></trkpt><trkpt lat="42.2255721968" lon="13.4163466282"><ele>1595.43</ele><time>2026-03-11T16:40:37Z</time><extensions><gpxtpx:TrackPointExtension><gpxtpx:atemp>2.2</gpxtpx:atemp></gpxtpx:TrackPointExtension></extensions></trkpt><trkpt lat="42.2255799919" lon="13.4163547587"><ele>1595.34</ele><time>2026-03-11T16:40:38Z</time><extensions><gpxtpx:TrackPointExtension><gpxtpx:atemp>2.2</gpxtpx:atemp></gpxtpx:TrackPointExtension></extensions></trkpt><trkpt lat="42.2255859431" lon="13.4163619671"><ele>1595.27</ele><time>2026-03-11T16:40:39Z</time><extensions><gpxtpx:TrackPointExtension><gpxtpx:atemp>2.2</gpxtpx:atemp></gpxtpx:TrackPointExtension></extensions></trkpt><trkpt lat="42.2255914751" lon="13.4163669962"><ele>1595.22</ele><time>2026-03-11T16:40:40Z</time><extensions><gpxtpx:TrackPointExtension><gpxtpx:atemp>2.2</gpxtpx:atemp></gpxtpx:TrackPointExtension></extensions></trkpt><trkpt lat="42.2255980968" lon="13.4163708519"><ele>1595.17</ele><time>2026-03-11T16:40:41Z</time><extensions><gpxtpx:TrackPointExtension><gpxtpx:atemp>2.2</gpxtpx:atemp></gpxtpx:TrackPointExtension></extensions></trkpt><trkpt lat="42.2256059758" lon="13.4163748752"><ele>1595.13</ele><time>2026-03-11T16:40:42Z</time><extensions><gpxtpx:TrackPointExtension><gpxtpx:atemp>2.2</gpxtpx:atemp></gpxtpx:TrackPointExtension></extensions></trkpt><trkpt lat="42.2256131843" lon="13.4163795691"><ele>1595.05</ele><time>2026-03-11T16:40:43Z</time><extensions><gpxtpx:TrackPointExtension><gpxtpx:atemp>2.2</gpxtpx:atemp></gpxtpx:TrackPointExtension></extensions></trkpt><trkpt lat="42.2256213985" lon="13.4163827542"><ele>1594.79</ele><time>2026-03-11T16:40:44Z</time><extensions><gpxtpx:TrackPointExtension><gpxtpx:atemp>2.2</gpxtpx:atemp></gpxtpx:TrackPointExtension></extensions></trkpt><trkpt lat="42.2256297804" lon="13.4163854364"><ele>1594.63</ele><time>2026-03-11T16:40:45Z</time><extensions><gpxtpx:TrackPointExtension><gpxtpx:atemp>2.2</gpxtpx:atemp></gpxtpx:TrackPointExtension></extensions></trkpt><trkpt lat="42.2256399225" lon="13.4163881186"><ele>1594.47</ele><time>2026-03-11T16:40:46Z</time><extensions><gpxtpx:TrackPointExtension><gpxtpx:atemp>2.2</gpxtpx:atemp></gpxtpx:TrackPointExtension></extensions></trkpt><trkpt lat="42.2256472986" lon="13.4163923934"><ele>1594.32</ele><time>2026-03-11T16:40:47Z</time><extensions><gpxtpx:TrackPointExtension><gpxtpx:atemp>2.2</gpxtpx:atemp></gpxtpx:TrackPointExtension></extensions></trkpt><trkpt lat="42.2256557643" lon="13.4163908847"><ele>1594.19</ele><time>2026-03-11T16:40:48Z</time><extensions><gpxtpx:TrackPointExtension><gpxtpx:atemp>2.2</gpxtpx:atemp></gpxtpx:TrackPointExtension></extensions></trkpt><trkpt lat="42.2256651521" lon="13.4163938183"><ele>1594.08</ele><time>2026-03-11T16:40:49Z</time><extensions><gpxtpx:TrackPointExtension><gpxtpx:atemp>2.2</gpxtpx:atemp></gpxtpx:TrackPointExtension></extensions></trkpt><trkpt lat="42.2256746236" lon="13.4163975902"><ele>1593.98</ele><time>2026-03-11T16:40:50Z</time><extensions><gpxtpx:TrackPointExtension><gpxtpx:atemp>2.2</gpxtpx:atemp></gpxtpx:TrackPointExtension></extensions></trkpt><trkpt lat="42.2256822512" lon="13.4164031222"><ele>1593.91</ele><time>2026-03-11T16:40:51Z</time><extensions><gpxtpx:TrackPointExtension><gpxtpx:atemp>2.2</gpxtpx:atemp></gpxtpx:TrackPointExtension></extensions></trkpt><trkpt lat="42.2256913874" lon="13.4164084867"><ele>1593.86</ele><time>2026-03-11T16:40:52Z</time><extensions><gpxtpx:TrackPointExtension><gpxtpx:atemp>2.2</gpxtpx:atemp></gpxtpx:TrackPointExtension></extensions></trkpt><trkpt lat="42.2256999370" lon="13.4164139349"><ele>1593.81</ele><time>2026-03-11T16:40:53Z</time><extensions><gpxtpx:TrackPointExtension><gpxtpx:atemp>2.2</gpxtpx:atemp></gpxtpx:TrackPointExtension></extensions></trkpt><trkpt lat="42.2257093247" lon="13.4164188802"><ele>1593.73</ele><time>2026-03-11T16:40:54Z</time><extensions><gpxtpx:TrackPointExtension><gpxtpx:atemp>2.2</gpxtpx:atemp></gpxtpx:TrackPointExtension></extensions></trkpt><trkpt lat="42.2257162817" lon="13.4164265916"><ele>1593.64</ele><time>2026-03-11T16:40:55Z</time><extensions><gpxtpx:TrackPointExtension><gpxtpx:atemp>2.2</gpxtpx:atemp></gpxtpx:TrackPointExtension></extensions></trkpt><trkpt lat="42.2257254180" lon="13.4164303634"><ele>1593.60</ele><time>2026-03-11T16:40:56Z</time><extensions><gpxtpx:TrackPointExtension><gpxtpx:atemp>2.2</gpxtpx:atemp></gpxtpx:TrackPointExtension></extensions></trkpt><trkpt lat="42.2257342190" lon="13.4164341353"><ele>1593.55</ele><time>2026-03-11T16:40:57Z</time><extensions><gpxtpx:TrackPointExtension><gpxtpx:atemp>2.2</gpxtpx:atemp></gpxtpx:TrackPointExtension></extensions></trkpt><trkpt lat="42.2257439420" lon="13.4164368175"><ele>1593.46</ele><time>2026-03-11T16:40:58Z</time><extensions><gpxtpx:TrackPointExtension><gpxtpx:atemp>2.2</gpxtpx:atemp></gpxtpx:TrackPointExtension></extensions></trkpt><trkpt lat="42.2257521562" lon="13.4164419305"><ele>1593.35</ele><time>2026-03-11T16:40:59Z</time><extensions><gpxtpx:TrackPointExtension><gpxtpx:atemp>2.2</gpxtpx:atemp></gpxtpx:TrackPointExtension></extensions></trkpt><trkpt lat="42.2257617954" lon="13.4164445288"><ele>1593.22</ele><time>2026-03-11T16:41:00Z</time><extensions><gpxtpx:TrackPointExtension><gpxtpx:atemp>2.2</gpxtpx:atemp></gpxtpx:TrackPointExtension></extensions></trkpt><trkpt lat="42.2257724404" lon="13.4164456185"><ele>1593.07</ele><time>2026-03-11T16:41:01Z</time><extensions><gpxtpx:TrackPointExtension><gpxtpx:atemp>2.2</gpxtpx:atemp></gpxtpx:TrackPointExtension></extensions></trkpt><trkpt lat="42.2257820796" lon="13.4164455347"><ele>1592.87</ele><time>2026-03-11T16:41:02Z</time><extensions><gpxtpx:TrackPointExtension><gpxtpx:atemp>2.2</gpxtpx:atemp></gpxtpx:TrackPointExtension></extensions></trkpt><trkpt lat="42.2257907968" lon="13.4164498933"><ele>1592.69</ele><time>2026-03-11T16:41:03Z</time><extensions><gpxtpx:TrackPointExtension><gpxtpx:atemp>2.2</gpxtpx:atemp></gpxtpx:TrackPointExtension></extensions></trkpt><trkpt lat="42.2258001845" lon="13.4164510667"><ele>1592.53</ele><time>2026-03-11T16:41:04Z</time><extensions><gpxtpx:TrackPointExtension><gpxtpx:atemp>2.2</gpxtpx:atemp></gpxtpx:TrackPointExtension></extensions></trkpt><trkpt lat="42.2258103266" lon="13.4164526593"><ele>1592.36</ele><time>2026-03-11T16:41:05Z</time><extensions><gpxtpx:TrackPointExtension><gpxtpx:atemp>2.2</gpxtpx:atemp></gpxtpx:TrackPointExtension></extensions></trkpt><trkpt lat="42.2258195467" lon="13.4164539166"><ele>1592.19</ele><time>2026-03-11T16:41:06Z</time><extensions><gpxtpx:TrackPointExtension><gpxtpx:atemp>2.2</gpxtpx:atemp></gpxtpx:TrackPointExtension></extensions></trkpt><trkpt lat="42.2258297727" lon="13.4164535813"><ele>1591.99</ele><time>2026-03-11T16:41:07Z</time><extensions><gpxtpx:TrackPointExtension><gpxtpx:atemp>2.2</gpxtpx:atemp></gpxtpx:TrackPointExtension></extensions></trkpt><trkpt lat="42.2258389927" lon="13.4164573532"><ele>1591.90</ele><time>2026-03-11T16:41:08Z</time><extensions><gpxtpx:TrackPointExtension><gpxtpx:atemp>2.2</gpxtpx:atemp></gpxtpx:TrackPointExtension></extensions></trkpt><trkpt lat="42.2258486319" lon="13.4164572693"><ele>1591.82</ele><time>2026-03-11T16:41:09Z</time><extensions><gpxtpx:TrackPointExtension><gpxtpx:atemp>2.2</gpxtpx:atemp></gpxtpx:TrackPointExtension></extensions></trkpt><trkpt lat="42.2258575168" lon="13.4164548386"><ele>1591.76</ele><time>2026-03-11T16:41:10Z</time><extensions><gpxtpx:TrackPointExtension><gpxtpx:atemp>2.2</gpxtpx:atemp></gpxtpx:TrackPointExtension></extensions></trkpt><trkpt lat="42.2258667368" lon="13.4164521564"><ele>1591.65</ele><time>2026-03-11T16:41:11Z</time><extensions><gpxtpx:TrackPointExtension><gpxtpx:atemp>2.2</gpxtpx:atemp></gpxtpx:TrackPointExtension></extensions></trkpt><trkpt lat="42.2258767951" lon="13.4164528269"><ele>1591.48</ele><time>2026-03-11T16:41:12Z</time><extensions><gpxtpx:TrackPointExtension><gpxtpx:atemp>2.2</gpxtpx:atemp></gpxtpx:TrackPointExtension></extensions></trkpt><trkpt lat="42.2258863505" lon="13.4164506476"><ele>1591.33</ele><time>2026-03-11T16:41:13Z</time><extensions><gpxtpx:TrackPointExtension><gpxtpx:atemp>2.2</gpxtpx:atemp></gpxtpx:TrackPointExtension></extensions></trkpt><trkpt lat="42.2258956544" lon="13.4164490551"><ele>1591.20</ele><time>2026-03-11T16:41:14Z</time><extensions><gpxtpx:TrackPointExtension><gpxtpx:atemp>2.2</gpxtpx:atemp></gpxtpx:TrackPointExtension></extensions></trkpt><trkpt lat="42.2259021923" lon="13.4164462890"><ele>1591.09</ele><time>2026-03-11T16:41:15Z</time><extensions><gpxtpx:TrackPointExtension><gpxtpx:atemp>2.2</gpxtpx:atemp></gpxtpx:TrackPointExtension></extensions></trkpt><trkpt lat="42.2259118315" lon="13.4164474625"><ele>1591.00</ele><time>2026-03-11T16:41:16Z</time><extensions><gpxtpx:TrackPointExtension><gpxtpx:atemp>2.2</gpxtpx:atemp></gpxtpx:TrackPointExtension></extensions></trkpt><trkpt lat="42.2259202972" lon="13.4164503962"><ele>1590.88</ele><time>2026-03-11T16:41:17Z</time><extensions><gpxtpx:TrackPointExtension><gpxtpx:atemp>2.2</gpxtpx:atemp></gpxtpx:TrackPointExtension></extensions></trkpt><trkpt lat="42.2259303555" lon="13.4164491389"><ele>1590.62</ele><time>2026-03-11T16:41:18Z</time><extensions><gpxtpx:TrackPointExtension><gpxtpx:atemp>2.2</gpxtpx:atemp></gpxtpx:TrackPointExtension></extensions></trkpt><trkpt lat="42.2259392403" lon="13.4164461214"><ele>1590.51</ele><time>2026-03-11T16:41:19Z</time><extensions><gpxtpx:TrackPointExtension><gpxtpx:atemp>2.2</gpxtpx:atemp></gpxtpx:TrackPointExtension></extensions></trkpt><trkpt lat="42.2259487957" lon="13.4164426848"><ele>1590.44</ele><time>2026-03-11T16:41:20Z</time><extensions><gpxtpx:TrackPointExtension><gpxtpx:atemp>2.2</gpxtpx:atemp></gpxtpx:TrackPointExtension></extensions></trkpt><trkpt lat="42.2259576805" lon="13.4164395835"><ele>1590.36</ele><time>2026-03-11T16:41:21Z</time><extensions><gpxtpx:TrackPointExtension><gpxtpx:atemp>2.2</gpxtpx:atemp></gpxtpx:TrackPointExtension></extensions></trkpt><trkpt lat="42.2259683255" lon="13.4164356440"><ele>1590.27</ele><time>2026-03-11T16:41:22Z</time><extensions><gpxtpx:TrackPointExtension><gpxtpx:atemp>2.2</gpxtpx:atemp></gpxtpx:TrackPointExtension></extensions></trkpt><trkpt lat="42.2259790543" lon="13.4164310340"><ele>1590.19</ele><time>2026-03-11T16:41:23Z</time><extensions><gpxtpx:TrackPointExtension><gpxtpx:atemp>2.2</gpxtpx:atemp></gpxtpx:TrackPointExtension></extensions></trkpt><trkpt lat="42.2259892803" lon="13.4164296929"><ele>1590.08</ele><time>2026-03-11T16:41:24Z</time><extensions><gpxtpx:TrackPointExtension><gpxtpx:atemp>2.2</gpxtpx:atemp></gpxtpx:TrackPointExtension></extensions></trkpt><trkpt lat="42.2259983327" lon="13.4164274298"><ele>1589.98</ele><time>2026-03-11T16:41:25Z</time><extensions><gpxtpx:TrackPointExtension><gpxtpx:atemp>2.2</gpxtpx:atemp></gpxtpx:TrackPointExtension></extensions></trkpt><trkpt lat="42.2260080557" lon="13.4164264239"><ele>1589.87</ele><time>2026-03-11T16:41:26Z</time><extensions><gpxtpx:TrackPointExtension><gpxtpx:atemp>2.2</gpxtpx:atemp></gpxtpx:TrackPointExtension></extensions></trkpt><trkpt lat="42.2260177787" lon="13.4164235741"><ele>1589.76</ele><time>2026-03-11T16:41:27Z</time><extensions><gpxtpx:TrackPointExtension><gpxtpx:atemp>2.2</gpxtpx:atemp></gpxtpx:TrackPointExtension></extensions></trkpt><trkpt lat="42.2260272503" lon="13.4164207242"><ele>1589.67</ele><time>2026-03-11T16:41:28Z</time><extensions><gpxtpx:TrackPointExtension><gpxtpx:atemp>2.2</gpxtpx:atemp></gpxtpx:TrackPointExtension></extensions></trkpt><trkpt lat="42.2260365542" lon="13.4164231550"><ele>1589.58</ele><time>2026-03-11T16:41:29Z</time><extensions><gpxtpx:TrackPointExtension><gpxtpx:atemp>2.2</gpxtpx:atemp></gpxtpx:TrackPointExtension></extensions></trkpt><trkpt lat="42.2260449361" lon="13.4164271783"><ele>1589.41</ele><time>2026-03-11T16:41:30Z</time><extensions><gpxtpx:TrackPointExtension><gpxtpx:atemp>2.2</gpxtpx:atemp></gpxtpx:TrackPointExtension></extensions></trkpt><trkpt lat="42.2260541562" lon="13.4164347220"><ele>1589.35</ele><time>2026-03-11T16:41:31Z</time><extensions><gpxtpx:TrackPointExtension><gpxtpx:atemp>2.2</gpxtpx:atemp></gpxtpx:TrackPointExtension></extensions></trkpt><trkpt lat="42.2260650527" lon="13.4164395835"><ele>1589.26</ele><time>2026-03-11T16:41:32Z</time><extensions><gpxtpx:TrackPointExtension><gpxtpx:atemp>2.2</gpxtpx:atemp></gpxtpx:TrackPointExtension></extensions></trkpt><trkpt lat="42.2260736860" lon="13.4164447803"><ele>1589.18</ele><time>2026-03-11T16:41:33Z</time><extensions><gpxtpx:TrackPointExtension><gpxtpx:atemp>2.2</gpxtpx:atemp></gpxtpx:TrackPointExtension></extensions></trkpt><trkpt lat="42.2260830738" lon="13.4164426848"><ele>1589.12</ele><time>2026-03-11T16:41:34Z</time><extensions><gpxtpx:TrackPointExtension><gpxtpx:atemp>2.2</gpxtpx:atemp></gpxtpx:TrackPointExtension></extensions></trkpt><trkpt lat="42.2260908689" lon="13.4164375719"><ele>1589.10</ele><time>2026-03-11T16:41:35Z</time><extensions><gpxtpx:TrackPointExtension><gpxtpx:atemp>2.2</gpxtpx:atemp></gpxtpx:TrackPointExtension></extensions></trkpt><trkpt lat="42.2261004243" lon="13.4164344706"><ele>1589.07</ele><time>2026-03-11T16:41:36Z</time><extensions><gpxtpx:TrackPointExtension><gpxtpx:atemp>2.2</gpxtpx:atemp></gpxtpx:TrackPointExtension></extensions></trkpt><trkpt lat="42.2261105664" lon="13.4164296929"><ele>1589.03</ele><time>2026-03-11T16:41:37Z</time><extensions><gpxtpx:TrackPointExtension><gpxtpx:atemp>2.2</gpxtpx:atemp></gpxtpx:TrackPointExtension></extensions></trkpt><trkpt lat="42.2261196189" lon="13.4164262563"><ele>1588.97</ele><time>2026-03-11T16:41:38Z</time><extensions><gpxtpx:TrackPointExtension><gpxtpx:atemp>2.2</gpxtpx:atemp></gpxtpx:TrackPointExtension></extensions></trkpt><trkpt lat="42.2261269949" lon="13.4164222330"><ele>1588.84</ele><time>2026-03-11T16:41:39Z</time><extensions><gpxtpx:TrackPointExtension><gpxtpx:atemp>2.2</gpxtpx:atemp></gpxtpx:TrackPointExtension></extensions></trkpt><trkpt lat="42.2261340357" lon="13.4164186288"><ele>1588.66</ele><time>2026-03-11T16:41:40Z</time><extensions><gpxtpx:TrackPointExtension><gpxtpx:atemp>2.2</gpxtpx:atemp></gpxtpx:TrackPointExtension></extensions></trkpt><trkpt lat="42.2261450998" lon="13.4164150245"><ele>1588.36</ele><time>2026-03-11T16:41:41Z</time><extensions><gpxtpx:TrackPointExtension><gpxtpx:atemp>2.2</gpxtpx:atemp></gpxtpx:TrackPointExtension></extensions></trkpt><trkpt lat="42.2261518892" lon="13.4164122585"><ele>1588.28</ele><time>2026-03-11T16:41:42Z</time><extensions><gpxtpx:TrackPointExtension><gpxtpx:atemp>2.2</gpxtpx:atemp></gpxtpx:TrackPointExtension></extensions></trkpt><trkpt lat="42.2261631209" lon="13.4164083190"><ele>1588.24</ele><time>2026-03-11T16:41:43Z</time><extensions><gpxtpx:TrackPointExtension><gpxtpx:atemp>2.2</gpxtpx:atemp></gpxtpx:TrackPointExtension></extensions></trkpt><trkpt lat="42.2261723410" lon="13.4164036252"><ele>1588.18</ele><time>2026-03-11T16:41:44Z</time><extensions><gpxtpx:TrackPointExtension><gpxtpx:atemp>2.2</gpxtpx:atemp></gpxtpx:TrackPointExtension></extensions></trkpt><trkpt lat="42.2261801362" lon="13.4163964167"><ele>1588.09</ele><time>2026-03-11T16:41:45Z</time><extensions><gpxtpx:TrackPointExtension><gpxtpx:atemp>2.2</gpxtpx:atemp></gpxtpx:TrackPointExtension></extensions></trkpt><trkpt lat="42.2261894401" lon="13.4163898788"><ele>1587.99</ele><time>2026-03-11T16:41:46Z</time><extensions><gpxtpx:TrackPointExtension><gpxtpx:atemp>2.2</gpxtpx:atemp></gpxtpx:TrackPointExtension></extensions></trkpt><trkpt lat="42.2261975706" lon="13.4163877834"><ele>1587.94</ele><time>2026-03-11T16:41:47Z</time><extensions><gpxtpx:TrackPointExtension><gpxtpx:atemp>2.2</gpxtpx:atemp></gpxtpx:TrackPointExtension></extensions></trkpt><trkpt lat="42.2262049466" lon="13.4163858555"><ele>1587.90</ele><time>2026-03-11T16:41:48Z</time><extensions><gpxtpx:TrackPointExtension><gpxtpx:atemp>2.2</gpxtpx:atemp></gpxtpx:TrackPointExtension></extensions></trkpt><trkpt lat="42.2262155917" lon="13.4163774736"><ele>1587.85</ele><time>2026-03-11T16:41:49Z</time><extensions><gpxtpx:TrackPointExtension><gpxtpx:atemp>2.2</gpxtpx:atemp></gpxtpx:TrackPointExtension></extensions></trkpt><trkpt lat="42.2262241412" lon="13.4163699299"><ele>1587.80</ele><time>2026-03-11T16:41:50Z</time><extensions><gpxtpx:TrackPointExtension><gpxtpx:atemp>2.2</gpxtpx:atemp></gpxtpx:TrackPointExtension></extensions></trkpt><trkpt lat="42.2262315173" lon="13.4163628891"><ele>1587.72</ele><time>2026-03-11T16:41:51Z</time><extensions><gpxtpx:TrackPointExtension><gpxtpx:atemp>2.2</gpxtpx:atemp></gpxtpx:TrackPointExtension></extensions></trkpt><trkpt lat="42.2262387257" lon="13.4163543396"><ele>1587.65</ele><time>2026-03-11T16:41:52Z</time><extensions><gpxtpx:TrackPointExtension><gpxtpx:atemp>2.2</gpxtpx:atemp></gpxtpx:TrackPointExtension></extensions></trkpt><trkpt lat="42.2262453474" lon="13.4163482208"><ele>1587.53</ele><time>2026-03-11T16:41:53Z</time><extensions><gpxtpx:TrackPointExtension><gpxtpx:atemp>2.2</gpxtpx:atemp></gpxtpx:TrackPointExtension></extensions></trkpt><trkpt lat="42.2262535617" lon="13.4163465444"><ele>1587.45</ele><time>2026-03-11T16:41:54Z</time><extensions><gpxtpx:TrackPointExtension><gpxtpx:atemp>2.2</gpxtpx:atemp></gpxtpx:TrackPointExtension></extensions></trkpt><trkpt lat="42.2262620274" lon="13.4163437784"><ele>1587.36</ele><time>2026-03-11T16:41:55Z</time><extensions><gpxtpx:TrackPointExtension><gpxtpx:atemp>2.2</gpxtpx:atemp></gpxtpx:TrackPointExtension></extensions></trkpt><trkpt lat="42.2262708284" lon="13.4163392521"><ele>1587.30</ele><time>2026-03-11T16:41:56Z</time><extensions><gpxtpx:TrackPointExtension><gpxtpx:atemp>2.2</gpxtpx:atemp></gpxtpx:TrackPointExtension></extensions></trkpt><trkpt lat="42.2262785397" lon="13.4163355641"><ele>1587.24</ele><time>2026-03-11T16:41:57Z</time><extensions><gpxtpx:TrackPointExtension><gpxtpx:atemp>2.2</gpxtpx:atemp></gpxtpx:TrackPointExtension></extensions></trkpt><trkpt lat="42.2262871731" lon="13.4163323790"><ele>1587.18</ele><time>2026-03-11T16:41:58Z</time><extensions><gpxtpx:TrackPointExtension><gpxtpx:atemp>2.2</gpxtpx:atemp></gpxtpx:TrackPointExtension></extensions></trkpt><trkpt lat="42.2262957226" lon="13.4163271822"><ele>1587.16</ele><time>2026-03-11T16:41:59Z</time><extensions><gpxtpx:TrackPointExtension><gpxtpx:atemp>2.2</gpxtpx:atemp></gpxtpx:TrackPointExtension></extensions></trkpt><trkpt lat="42.2263042722" lon="13.4163206443"><ele>1587.12</ele><time>2026-03-11T16:42:00Z</time><extensions><gpxtpx:TrackPointExtension><gpxtpx:atemp>2.2</gpxtpx:atemp></gpxtpx:TrackPointExtension></extensions></trkpt><trkpt lat="42.2263142467" lon="13.4163233265"><ele>1587.08</ele><time>2026-03-11T16:42:01Z</time><extensions><gpxtpx:TrackPointExtension><gpxtpx:atemp>2.2</gpxtpx:atemp></gpxtpx:TrackPointExtension></extensions></trkpt><trkpt lat="42.2263240535" lon="13.4163241647"><ele>1587.04</ele><time>2026-03-11T16:42:02Z</time><extensions><gpxtpx:TrackPointExtension><gpxtpx:atemp>2.2</gpxtpx:atemp></gpxtpx:TrackPointExtension></extensions></trkpt><trkpt lat="42.2263338603" lon="13.4163218178"><ele>1587.01</ele><time>2026-03-11T16:42:03Z</time><extensions><gpxtpx:TrackPointExtension><gpxtpx:atemp>2.2</gpxtpx:atemp></gpxtpx:TrackPointExtension></extensions></trkpt><trkpt lat="42.2263441700" lon="13.4163215663"><ele>1586.88</ele><time>2026-03-11T16:42:04Z</time><extensions><gpxtpx:TrackPointExtension><gpxtpx:atemp>2.2</gpxtpx:atemp></gpxtpx:TrackPointExtension></extensions></trkpt><trkpt lat="42.2263557371" lon="13.4163173754"><ele>1586.81</ele><time>2026-03-11T16:42:05Z</time><extensions><gpxtpx:TrackPointExtension><gpxtpx:atemp>2.2</gpxtpx:atemp></gpxtpx:TrackPointExtension></extensions></trkpt><trkpt lat="42.2263652924" lon="13.4163153637"><ele>1586.75</ele><time>2026-03-11T16:42:06Z</time><extensions><gpxtpx:TrackPointExtension><gpxtpx:atemp>2.2</gpxtpx:atemp></gpxtpx:TrackPointExtension></extensions></trkpt><trkpt lat="42.2263786197" lon="13.4163081553"><ele>1586.72</ele><time>2026-03-11T16:42:07Z</time><extensions><gpxtpx:TrackPointExtension><gpxtpx:atemp>2.2</gpxtpx:atemp></gpxtpx:TrackPointExtension></extensions></trkpt><trkpt lat="42.2263877559" lon="13.4163024556"><ele>1586.70</ele><time>2026-03-11T16:42:08Z</time><extensions><gpxtpx:TrackPointExtension><gpxtpx:atemp>2.2</gpxtpx:atemp></gpxtpx:TrackPointExtension></extensions></trkpt><trkpt lat="42.2263953835" lon="13.4162995219"><ele>1586.70</ele><time>2026-03-11T16:42:09Z</time><extensions><gpxtpx:TrackPointExtension><gpxtpx:atemp>2.2</gpxtpx:atemp></gpxtpx:TrackPointExtension></extensions></trkpt><trkpt lat="42.2264056932" lon="13.4163019527"><ele>1586.70</ele><time>2026-03-11T16:42:10Z</time><extensions><gpxtpx:TrackPointExtension><gpxtpx:atemp>2.2</gpxtpx:atemp></gpxtpx:TrackPointExtension></extensions></trkpt><trkpt lat="42.2264140751" lon="13.4163078200"><ele>1586.68</ele><time>2026-03-11T16:42:11Z</time><extensions><gpxtpx:TrackPointExtension><gpxtpx:atemp>2.2</gpxtpx:atemp></gpxtpx:TrackPointExtension></extensions></trkpt><trkpt lat="42.2264241334" lon="13.4163118433"><ele>1586.66</ele><time>2026-03-11T16:42:12Z</time><extensions><gpxtpx:TrackPointExtension><gpxtpx:atemp>2.2</gpxtpx:atemp></gpxtpx:TrackPointExtension></extensions></trkpt><trkpt lat="42.2264329344" lon="13.4163146932"><ele>1586.66</ele><time>2026-03-11T16:42:13Z</time><extensions><gpxtpx:TrackPointExtension><gpxtpx:atemp>2.2</gpxtpx:atemp></gpxtpx:TrackPointExtension></extensions></trkpt><trkpt lat="42.2264416516" lon="13.4163196385"><ele>1586.66</ele><time>2026-03-11T16:42:14Z</time><extensions><gpxtpx:TrackPointExtension><gpxtpx:atemp>2.2</gpxtpx:atemp></gpxtpx:TrackPointExtension></extensions></trkpt><trkpt lat="42.2264501173" lon="13.4163242485"><ele>1586.65</ele><time>2026-03-11T16:42:15Z</time><extensions><gpxtpx:TrackPointExtension><gpxtpx:atemp>2.2</gpxtpx:atemp></gpxtpx:TrackPointExtension></extensions></trkpt><trkpt lat="42.2264585830" lon="13.4163298644"><ele>1586.60</ele><time>2026-03-11T16:42:16Z</time><extensions><gpxtpx:TrackPointExtension><gpxtpx:atemp>2.2</gpxtpx:atemp></gpxtpx:TrackPointExtension></extensions></trkpt><trkpt lat="42.2264681384" lon="13.4163387492"><ele>1586.59</ele><time>2026-03-11T16:42:17Z</time><extensions><gpxtpx:TrackPointExtension><gpxtpx:atemp>2.2</gpxtpx:atemp></gpxtpx:TrackPointExtension></extensions></trkpt><trkpt lat="42.2264758497" lon="13.4163470473"><ele>1586.57</ele><time>2026-03-11T16:42:18Z</time><extensions><gpxtpx:TrackPointExtension><gpxtpx:atemp>2.2</gpxtpx:atemp></gpxtpx:TrackPointExtension></extensions></trkpt><trkpt lat="42.2264825553" lon="13.4163558483"><ele>1586.56</ele><time>2026-03-11T16:42:19Z</time><extensions><gpxtpx:TrackPointExtension><gpxtpx:atemp>2.2</gpxtpx:atemp></gpxtpx:TrackPointExtension></extensions></trkpt><trkpt lat="42.2264878359" lon="13.4163614642"><ele>1586.56</ele><time>2026-03-11T16:42:20Z</time><extensions><gpxtpx:TrackPointExtension><gpxtpx:atemp>2.2</gpxtpx:atemp></gpxtpx:TrackPointExtension></extensions></trkpt><trkpt lat="42.2264955472" lon="13.4163700975"><ele>1586.57</ele><time>2026-03-11T16:42:21Z</time><extensions><gpxtpx:TrackPointExtension><gpxtpx:atemp>2.2</gpxtpx:atemp></gpxtpx:TrackPointExtension></extensions></trkpt><trkpt lat="42.2265034262" lon="13.4163757972"><ele>1586.61</ele><time>2026-03-11T16:42:22Z</time><extensions><gpxtpx:TrackPointExtension><gpxtpx:atemp>2.2</gpxtpx:atemp></gpxtpx:TrackPointExtension></extensions></trkpt><trkpt lat="42.2265129816" lon="13.4163826704"><ele>1586.61</ele><time>2026-03-11T16:42:23Z</time><extensions><gpxtpx:TrackPointExtension><gpxtpx:atemp>2.2</gpxtpx:atemp></gpxtpx:TrackPointExtension></extensions></trkpt><trkpt lat="42.2265229560" lon="13.4163854364"><ele>1586.63</ele><time>2026-03-11T16:42:24Z</time><extensions><gpxtpx:TrackPointExtension><gpxtpx:atemp>2.2</gpxtpx:atemp></gpxtpx:TrackPointExtension></extensions></trkpt><trkpt lat="42.2265313379" lon="13.4163915552"><ele>1586.66</ele><time>2026-03-11T16:42:25Z</time><extensions><gpxtpx:TrackPointExtension><gpxtpx:atemp>2.2</gpxtpx:atemp></gpxtpx:TrackPointExtension></extensions></trkpt><trkpt lat="42.2265392169" lon="13.4163965844"><ele>1586.69</ele><time>2026-03-11T16:42:26Z</time><extensions><gpxtpx:TrackPointExtension><gpxtpx:atemp>2.2</gpxtpx:atemp></gpxtpx:TrackPointExtension></extensions></trkpt><trkpt lat="42.2265474312" lon="13.4164000209"><ele>1586.74</ele><time>2026-03-11T16:42:27Z</time><extensions><gpxtpx:TrackPointExtension><gpxtpx:atemp>2.2</gpxtpx:atemp></gpxtpx:TrackPointExtension></extensions></trkpt><trkpt lat="42.2265555616" lon="13.4164064750"><ele>1586.76</ele><time>2026-03-11T16:42:28Z</time><extensions><gpxtpx:TrackPointExtension><gpxtpx:atemp>2.2</gpxtpx:atemp></gpxtpx:TrackPointExtension></extensions></trkpt><trkpt lat="42.2265644465" lon="13.4164117556"><ele>1586.79</ele><time>2026-03-11T16:42:29Z</time><extensions><gpxtpx:TrackPointExtension><gpxtpx:atemp>2.2</gpxtpx:atemp></gpxtpx:TrackPointExtension></extensions></trkpt><trkpt lat="42.2265728284" lon="13.4164174553"><ele>1586.82</ele><time>2026-03-11T16:42:30Z</time><extensions><gpxtpx:TrackPointExtension><gpxtpx:atemp>2.2</gpxtpx:atemp></gpxtpx:TrackPointExtension></extensions></trkpt><trkpt lat="42.2265808750" lon="13.4164253343"><ele>1586.86</ele><time>2026-03-11T16:42:31Z</time><extensions><gpxtpx:TrackPointExtension><gpxtpx:atemp>2.2</gpxtpx:atemp></gpxtpx:TrackPointExtension></extensions></trkpt><trkpt lat="42.2265889216" lon="13.4164313693"><ele>1586.88</ele><time>2026-03-11T16:42:32Z</time><extensions><gpxtpx:TrackPointExtension><gpxtpx:atemp>2.2</gpxtpx:atemp></gpxtpx:TrackPointExtension></extensions></trkpt><trkpt lat="42.2265960462" lon="13.4164380748"><ele>1586.87</ele><time>2026-03-11T16:42:33Z</time><extensions><gpxtpx:TrackPointExtension><gpxtpx:atemp>2.2</gpxtpx:atemp></gpxtpx:TrackPointExtension></extensions></trkpt><trkpt lat="42.2266064398" lon="13.4164411761"><ele>1586.86</ele><time>2026-03-11T16:42:34Z</time><extensions><gpxtpx:TrackPointExtension><gpxtpx:atemp>2.2</gpxtpx:atemp></gpxtpx:TrackPointExtension></extensions></trkpt><trkpt lat="42.2266160790" lon="13.4164411761"><ele>1586.84</ele><time>2026-03-11T16:42:35Z</time><extensions><gpxtpx:TrackPointExtension><gpxtpx:atemp>2.2</gpxtpx:atemp></gpxtpx:TrackPointExtension></extensions></trkpt><trkpt lat="42.2266260535" lon="13.4164428525"><ele>1586.79</ele><time>2026-03-11T16:42:36Z</time><extensions><gpxtpx:TrackPointExtension><gpxtpx:atemp>2.2</gpxtpx:atemp></gpxtpx:TrackPointExtension></extensions></trkpt><trkpt lat="42.2266326752" lon="13.4164570179"><ele>1586.74</ele><time>2026-03-11T16:42:37Z</time><extensions><gpxtpx:TrackPointExtension><gpxtpx:atemp>2.2</gpxtpx:atemp></gpxtpx:TrackPointExtension></extensions></trkpt><trkpt lat="42.2266426496" lon="13.4164607897"><ele>1586.71</ele><time>2026-03-11T16:42:38Z</time><extensions><gpxtpx:TrackPointExtension><gpxtpx:atemp>2.2</gpxtpx:atemp></gpxtpx:TrackPointExtension></extensions></trkpt><trkpt lat="42.2266518697" lon="13.4164658189"><ele>1586.62</ele><time>2026-03-11T16:42:39Z</time><extensions><gpxtpx:TrackPointExtension><gpxtpx:atemp>2.2</gpxtpx:atemp></gpxtpx:TrackPointExtension></extensions></trkpt><trkpt lat="42.2266615927" lon="13.4164709318"><ele>1586.54</ele><time>2026-03-11T16:42:40Z</time><extensions><gpxtpx:TrackPointExtension><gpxtpx:atemp>2.2</gpxtpx:atemp></gpxtpx:TrackPointExtension></extensions></trkpt><trkpt lat="42.2266683821" lon="13.4164785594"><ele>1586.46</ele><time>2026-03-11T16:42:41Z</time><extensions><gpxtpx:TrackPointExtension><gpxtpx:atemp>2.2</gpxtpx:atemp></gpxtpx:TrackPointExtension></extensions></trkpt><trkpt lat="42.2266758420" lon="13.4164769668"><ele>1586.40</ele><time>2026-03-11T16:42:42Z</time><extensions><gpxtpx:TrackPointExtension><gpxtpx:atemp>2.2</gpxtpx:atemp></gpxtpx:TrackPointExtension></extensions></trkpt><trkpt lat="42.2266831342" lon="13.4164733626"><ele>1586.33</ele><time>2026-03-11T16:42:43Z</time><extensions><gpxtpx:TrackPointExtension><gpxtpx:atemp>2.2</gpxtpx:atemp></gpxtpx:TrackPointExtension></extensions></trkpt><trkpt lat="42.2266922705" lon="13.4164735302"><ele>1586.28</ele><time>2026-03-11T16:42:44Z</time><extensions><gpxtpx:TrackPointExtension><gpxtpx:atemp>2.2</gpxtpx:atemp></gpxtpx:TrackPointExtension></extensions></trkpt><trkpt lat="42.2267022450" lon="13.4164731950"><ele>1586.22</ele><time>2026-03-11T16:42:45Z</time><extensions><gpxtpx:TrackPointExtension><gpxtpx:atemp>2.2</gpxtpx:atemp></gpxtpx:TrackPointExtension></extensions></trkpt><trkpt lat="42.2267125547" lon="13.4164769668"><ele>1586.17</ele><time>2026-03-11T16:42:46Z</time><extensions><gpxtpx:TrackPointExtension><gpxtpx:atemp>2.2</gpxtpx:atemp></gpxtpx:TrackPointExtension></extensions></trkpt><trkpt lat="42.2267221939" lon="13.4164795652"><ele>1586.12</ele><time>2026-03-11T16:42:47Z</time><extensions><gpxtpx:TrackPointExtension><gpxtpx:atemp>2.2</gpxtpx:atemp></gpxtpx:TrackPointExtension></extensions></trkpt><trkpt lat="42.2267331742" lon="13.4164795652"><ele>1586.06</ele><time>2026-03-11T16:42:48Z</time><extensions><gpxtpx:TrackPointExtension><gpxtpx:atemp>2.2</gpxtpx:atemp></gpxtpx:TrackPointExtension></extensions></trkpt><trkpt lat="42.2267416399" lon="13.4164806549"><ele>1586.01</ele><time>2026-03-11T16:42:49Z</time><extensions><gpxtpx:TrackPointExtension><gpxtpx:atemp>2.2</gpxtpx:atemp></gpxtpx:TrackPointExtension></extensions></trkpt><trkpt lat="42.2267507762" lon="13.4164829180"><ele>1585.96</ele><time>2026-03-11T16:42:50Z</time><extensions><gpxtpx:TrackPointExtension><gpxtpx:atemp>2.2</gpxtpx:atemp></gpxtpx:TrackPointExtension></extensions></trkpt><trkpt lat="42.2267600801" lon="13.4164848458"><ele>1585.90</ele><time>2026-03-11T16:42:51Z</time><extensions><gpxtpx:TrackPointExtension><gpxtpx:atemp>2.2</gpxtpx:atemp></gpxtpx:TrackPointExtension></extensions></trkpt><trkpt lat="42.2267690487" lon="13.4164821636"><ele>1585.89</ele><time>2026-03-11T16:42:52Z</time><extensions><gpxtpx:TrackPointExtension><gpxtpx:atemp>2.2</gpxtpx:atemp></gpxtpx:TrackPointExtension></extensions></trkpt><trkpt lat="42.2267775983" lon="13.4164816607"><ele>1585.86</ele><time>2026-03-11T16:42:53Z</time><extensions><gpxtpx:TrackPointExtension><gpxtpx:atemp>2.2</gpxtpx:atemp></gpxtpx:TrackPointExtension></extensions></trkpt><trkpt lat="42.2267858963" lon="13.4164840914"><ele>1585.85</ele><time>2026-03-11T16:42:54Z</time><extensions><gpxtpx:TrackPointExtension><gpxtpx:atemp>2.2</gpxtpx:atemp></gpxtpx:TrackPointExtension></extensions></trkpt><trkpt lat="42.2267947812" lon="13.4164859354"><ele>1585.85</ele><time>2026-03-11T16:42:55Z</time><extensions><gpxtpx:TrackPointExtension><gpxtpx:atemp>2.2</gpxtpx:atemp></gpxtpx:TrackPointExtension></extensions></trkpt><trkpt lat="42.2268038336" lon="13.4164849296"><ele>1585.84</ele><time>2026-03-11T16:42:56Z</time><extensions><gpxtpx:TrackPointExtension><gpxtpx:atemp>2.2</gpxtpx:atemp></gpxtpx:TrackPointExtension></extensions></trkpt><trkpt lat="42.2268148977" lon="13.4164853487"><ele>1585.78</ele><time>2026-03-11T16:42:57Z</time><extensions><gpxtpx:TrackPointExtension><gpxtpx:atemp>2.2</gpxtpx:atemp></gpxtpx:TrackPointExtension></extensions></trkpt><trkpt lat="42.2268255427" lon="13.4164846782"><ele>1585.76</ele><time>2026-03-11T16:42:58Z</time><extensions><gpxtpx:TrackPointExtension><gpxtpx:atemp>2.2</gpxtpx:atemp></gpxtpx:TrackPointExtension></extensions></trkpt><trkpt lat="42.2268370260" lon="13.4164862707"><ele>1585.70</ele><time>2026-03-11T16:42:59Z</time><extensions><gpxtpx:TrackPointExtension><gpxtpx:atemp>2.2</gpxtpx:atemp></gpxtpx:TrackPointExtension></extensions></trkpt><trkpt lat="42.2268448211" lon="13.4164852649"><ele>1585.67</ele><time>2026-03-11T16:43:00Z</time><extensions><gpxtpx:TrackPointExtension><gpxtpx:atemp>2.2</gpxtpx:atemp></gpxtpx:TrackPointExtension></extensions></trkpt><trkpt lat="42.2268541250" lon="13.4164841752"><ele>1585.62</ele><time>2026-03-11T16:43:01Z</time><extensions><gpxtpx:TrackPointExtension><gpxtpx:atemp>2.2</gpxtpx:atemp></gpxtpx:TrackPointExtension></extensions></trkpt><trkpt lat="42.2268626746" lon="13.4164835885"><ele>1585.61</ele><time>2026-03-11T16:43:02Z</time><extensions><gpxtpx:TrackPointExtension><gpxtpx:atemp>2.2</gpxtpx:atemp></gpxtpx:TrackPointExtension></extensions></trkpt><trkpt lat="42.2268699668" lon="13.4164838400"><ele>1585.59</ele><time>2026-03-11T16:43:03Z</time><extensions><gpxtpx:TrackPointExtension><gpxtpx:atemp>2.2</gpxtpx:atemp></gpxtpx:TrackPointExtension></extensions></trkpt><trkpt lat="42.2268791869" lon="13.4164836723"><ele>1585.55</ele><time>2026-03-11T16:43:04Z</time><extensions><gpxtpx:TrackPointExtension><gpxtpx:atemp>2.2</gpxtpx:atemp></gpxtpx:TrackPointExtension></extensions></trkpt><trkpt lat="42.2268880717" lon="13.4164840914"><ele>1585.49</ele><time>2026-03-11T16:43:05Z</time><extensions><gpxtpx:TrackPointExtension><gpxtpx:atemp>2.2</gpxtpx:atemp></gpxtpx:TrackPointExtension></extensions></trkpt><trkpt lat="42.2268975433" lon="13.4164826665"><ele>1585.43</ele><time>2026-03-11T16:43:06Z</time><extensions><gpxtpx:TrackPointExtension><gpxtpx:atemp>2.2</gpxtpx:atemp></gpxtpx:TrackPointExtension></extensions></trkpt><trkpt lat="42.2269071825" lon="13.4164773859"><ele>1585.35</ele><time>2026-03-11T16:43:07Z</time><extensions><gpxtpx:TrackPointExtension><gpxtpx:atemp>2.2</gpxtpx:atemp></gpxtpx:TrackPointExtension></extensions></trkpt><trkpt lat="42.2269158997" lon="13.4164754581"><ele>1585.29</ele><time>2026-03-11T16:43:08Z</time><extensions><gpxtpx:TrackPointExtension><gpxtpx:atemp>2.2</gpxtpx:atemp></gpxtpx:TrackPointExtension></extensions></trkpt><trkpt lat="42.2269240301" lon="13.4164729435"><ele>1585.23</ele><time>2026-03-11T16:43:09Z</time><extensions><gpxtpx:TrackPointExtension><gpxtpx:atemp>2.2</gpxtpx:atemp></gpxtpx:TrackPointExtension></extensions></trkpt><trkpt lat="42.2269323282" lon="13.4164678305"><ele>1585.18</ele><time>2026-03-11T16:43:10Z</time><extensions><gpxtpx:TrackPointExtension><gpxtpx:atemp>2.2</gpxtpx:atemp></gpxtpx:TrackPointExtension></extensions></trkpt><trkpt lat="42.2269407939" lon="13.4164620470"><ele>1585.11</ele><time>2026-03-11T16:43:11Z</time><extensions><gpxtpx:TrackPointExtension><gpxtpx:atemp>2.2</gpxtpx:atemp></gpxtpx:TrackPointExtension></extensions></trkpt><trkpt lat="42.2269502655" lon="13.4164577723"><ele>1585.04</ele><time>2026-03-11T16:43:12Z</time><extensions><gpxtpx:TrackPointExtension><gpxtpx:atemp>2.2</gpxtpx:atemp></gpxtpx:TrackPointExtension></extensions></trkpt><trkpt lat="42.2269578930" lon="13.4164569341"><ele>1584.93</ele><time>2026-03-11T16:43:13Z</time><extensions><gpxtpx:TrackPointExtension><gpxtpx:atemp>2.2</gpxtpx:atemp></gpxtpx:TrackPointExtension></extensions></trkpt><trkpt lat="42.2269669455" lon="13.4164562635"><ele>1584.90</ele><time>2026-03-11T16:43:14Z</time><extensions><gpxtpx:TrackPointExtension><gpxtpx:atemp>2.2</gpxtpx:atemp></gpxtpx:TrackPointExtension></extensions></trkpt><trkpt lat="42.2269765846" lon="13.4164584428"><ele>1584.86</ele><time>2026-03-11T16:43:15Z</time><extensions><gpxtpx:TrackPointExtension><gpxtpx:atemp>2.2</gpxtpx:atemp></gpxtpx:TrackPointExtension></extensions></trkpt><trkpt lat="42.2269862238" lon="13.4164620470"><ele>1584.84</ele><time>2026-03-11T16:43:16Z</time><extensions><gpxtpx:TrackPointExtension><gpxtpx:atemp>2.2</gpxtpx:atemp></gpxtpx:TrackPointExtension></extensions></trkpt><trkpt lat="42.2269954439" lon="13.4164648969"><ele>1584.83</ele><time>2026-03-11T16:43:17Z</time><extensions><gpxtpx:TrackPointExtension><gpxtpx:atemp>2.2</gpxtpx:atemp></gpxtpx:TrackPointExtension></extensions></trkpt><trkpt lat="42.2270063404" lon="13.4164664894"><ele>1584.84</ele><time>2026-03-11T16:43:18Z</time><extensions><gpxtpx:TrackPointExtension><gpxtpx:atemp>2.2</gpxtpx:atemp></gpxtpx:TrackPointExtension></extensions></trkpt><trkpt lat="42.2270152252" lon="13.4164686687"><ele>1584.88</ele><time>2026-03-11T16:43:19Z</time><extensions><gpxtpx:TrackPointExtension><gpxtpx:atemp>2.2</gpxtpx:atemp></gpxtpx:TrackPointExtension></extensions></trkpt><trkpt lat="42.2270241939" lon="13.4164715186"><ele>1584.94</ele><time>2026-03-11T16:43:20Z</time><extensions><gpxtpx:TrackPointExtension><gpxtpx:atemp>2.2</gpxtpx:atemp></gpxtpx:TrackPointExtension></extensions></trkpt><trkpt lat="42.2270330787" lon="13.4164747875"><ele>1584.98</ele><time>2026-03-11T16:43:21Z</time><extensions><gpxtpx:TrackPointExtension><gpxtpx:atemp>2.2</gpxtpx:atemp></gpxtpx:TrackPointExtension></extensions></trkpt><trkpt lat="42.2270435560" lon="13.4164768830"><ele>1585.00</ele><time>2026-03-11T16:43:22Z</time><extensions><gpxtpx:TrackPointExtension><gpxtpx:atemp>2.2</gpxtpx:atemp></gpxtpx:TrackPointExtension></extensions></trkpt><trkpt lat="42.2270513512" lon="13.4164794814"><ele>1585.01</ele><time>2026-03-11T16:43:23Z</time><extensions><gpxtpx:TrackPointExtension><gpxtpx:atemp>2.2</gpxtpx:atemp></gpxtpx:TrackPointExtension></extensions></trkpt><trkpt lat="42.2270623315" lon="13.4164798167"><ele>1585.01</ele><time>2026-03-11T16:43:24Z</time><extensions><gpxtpx:TrackPointExtension><gpxtpx:atemp>2.2</gpxtpx:atemp></gpxtpx:TrackPointExtension></extensions></trkpt><trkpt lat="42.2270719707" lon="13.4164786432"><ele>1585.01</ele><time>2026-03-11T16:43:25Z</time><extensions><gpxtpx:TrackPointExtension><gpxtpx:atemp>2.2</gpxtpx:atemp></gpxtpx:TrackPointExtension></extensions></trkpt><trkpt lat="42.2270798497" lon="13.4164769668"><ele>1584.99</ele><time>2026-03-11T16:43:26Z</time><extensions><gpxtpx:TrackPointExtension><gpxtpx:atemp>2.2</gpxtpx:atemp></gpxtpx:TrackPointExtension></extensions></trkpt><trkpt lat="42.2270892374" lon="13.4164808225"><ele>1584.97</ele><time>2026-03-11T16:43:27Z</time><extensions><gpxtpx:TrackPointExtension><gpxtpx:atemp>2.2</gpxtpx:atemp></gpxtpx:TrackPointExtension></extensions></trkpt><trkpt lat="42.2270991281" lon="13.4164828341"><ele>1584.97</ele><time>2026-03-11T16:43:28Z</time><extensions><gpxtpx:TrackPointExtension><gpxtpx:atemp>2.2</gpxtpx:atemp></gpxtpx:TrackPointExtension></extensions></trkpt><trkpt lat="42.2271060850" lon="13.4164861869"><ele>1584.97</ele><time>2026-03-11T16:43:29Z</time><extensions><gpxtpx:TrackPointExtension><gpxtpx:atemp>2.2</gpxtpx:atemp></gpxtpx:TrackPointExtension></extensions></trkpt><trkpt lat="42.2271159757" lon="13.4164906293"><ele>1584.97</ele><time>2026-03-11T16:43:30Z</time><extensions><gpxtpx:TrackPointExtension><gpxtpx:atemp>2.2</gpxtpx:atemp></gpxtpx:TrackPointExtension></extensions></trkpt><trkpt lat="42.2271248605" lon="13.4164944850"><ele>1584.93</ele><time>2026-03-11T16:43:31Z</time><extensions><gpxtpx:TrackPointExtension><gpxtpx:atemp>2.2</gpxtpx:atemp></gpxtpx:TrackPointExtension></extensions></trkpt><trkpt lat="42.2271350864" lon="13.4164946526"><ele>1584.85</ele><time>2026-03-11T16:43:32Z</time><extensions><gpxtpx:TrackPointExtension><gpxtpx:atemp>2.3</gpxtpx:atemp></gpxtpx:TrackPointExtension></extensions></trkpt><trkpt lat="42.2271444742" lon="13.4164951555"><ele>1584.77</ele><time>2026-03-11T16:43:33Z</time><extensions><gpxtpx:TrackPointExtension><gpxtpx:atemp>2.3</gpxtpx:atemp></gpxtpx:TrackPointExtension></extensions></trkpt><trkpt lat="42.2271536943" lon="13.4164947364"><ele>1584.70</ele><time>2026-03-11T16:43:34Z</time><extensions><gpxtpx:TrackPointExtension><gpxtpx:atemp>2.3</gpxtpx:atemp></gpxtpx:TrackPointExtension></extensions></trkpt><trkpt lat="42.2271636687" lon="13.4164991789"><ele>1584.66</ele><time>2026-03-11T16:43:35Z</time><extensions><gpxtpx:TrackPointExtension><gpxtpx:atemp>2.3</gpxtpx:atemp></gpxtpx:TrackPointExtension></extensions></trkpt><trkpt lat="42.2271714639" lon="13.4165000170"><ele>1584.60</ele><time>2026-03-11T16:43:36Z</time><extensions><gpxtpx:TrackPointExtension><gpxtpx:atemp>2.3</gpxtpx:atemp></gpxtpx:TrackPointExtension></extensions></trkpt><trkpt lat="42.2271800973" lon="13.4164998494"><ele>1584.57</ele><time>2026-03-11T16:43:37Z</time><extensions><gpxtpx:TrackPointExtension><gpxtpx:atemp>2.3</gpxtpx:atemp></gpxtpx:TrackPointExtension></extensions></trkpt><trkpt lat="42.2271891497" lon="13.4165023640"><ele>1584.54</ele><time>2026-03-11T16:43:38Z</time><extensions><gpxtpx:TrackPointExtension><gpxtpx:atemp>2.3</gpxtpx:atemp></gpxtpx:TrackPointExtension></extensions></trkpt><trkpt lat="42.2271979507" lon="13.4165053815"><ele>1584.54</ele><time>2026-03-11T16:43:39Z</time><extensions><gpxtpx:TrackPointExtension><gpxtpx:atemp>2.3</gpxtpx:atemp></gpxtpx:TrackPointExtension></extensions></trkpt><trkpt lat="42.2272071708" lon="13.4165071417"><ele>1584.54</ele><time>2026-03-11T16:43:40Z</time><extensions><gpxtpx:TrackPointExtension><gpxtpx:atemp>2.3</gpxtpx:atemp></gpxtpx:TrackPointExtension></extensions></trkpt><trkpt lat="42.2272149660" lon="13.4165082313"><ele>1584.53</ele><time>2026-03-11T16:43:41Z</time><extensions><gpxtpx:TrackPointExtension><gpxtpx:atemp>2.3</gpxtpx:atemp></gpxtpx:TrackPointExtension></extensions></trkpt><trkpt lat="42.2272254433" lon="13.4165117517"><ele>1584.51</ele><time>2026-03-11T16:43:42Z</time><extensions><gpxtpx:TrackPointExtension><gpxtpx:atemp>2.3</gpxtpx:atemp></gpxtpx:TrackPointExtension></extensions></trkpt><trkpt lat="42.2272335738" lon="13.4165149368"><ele>1584.49</ele><time>2026-03-11T16:43:43Z</time><extensions><gpxtpx:TrackPointExtension><gpxtpx:atemp>2.3</gpxtpx:atemp></gpxtpx:TrackPointExtension></extensions></trkpt><trkpt lat="42.2272428777" lon="13.4165220615"><ele>1584.46</ele><time>2026-03-11T16:43:44Z</time><extensions><gpxtpx:TrackPointExtension><gpxtpx:atemp>2.3</gpxtpx:atemp></gpxtpx:TrackPointExtension></extensions></trkpt><trkpt lat="42.2272523493" lon="13.4165236540"><ele>1584.43</ele><time>2026-03-11T16:43:45Z</time><extensions><gpxtpx:TrackPointExtension><gpxtpx:atemp>2.3</gpxtpx:atemp></gpxtpx:TrackPointExtension></extensions></trkpt><trkpt lat="42.2272609826" lon="13.4165306948"><ele>1584.39</ele><time>2026-03-11T16:43:46Z</time><extensions><gpxtpx:TrackPointExtension><gpxtpx:atemp>2.3</gpxtpx:atemp></gpxtpx:TrackPointExtension></extensions></trkpt><trkpt lat="42.2272685263" lon="13.4165352210"><ele>1584.34</ele><time>2026-03-11T16:43:47Z</time><extensions><gpxtpx:TrackPointExtension><gpxtpx:atemp>2.3</gpxtpx:atemp></gpxtpx:TrackPointExtension></extensions></trkpt><trkpt lat="42.2272772435" lon="13.4165388253"><ele>1584.20</ele><time>2026-03-11T16:43:48Z</time><extensions><gpxtpx:TrackPointExtension><gpxtpx:atemp>2.3</gpxtpx:atemp></gpxtpx:TrackPointExtension></extensions></trkpt><trkpt lat="42.2272861283" lon="13.4165421780"><ele>1584.16</ele><time>2026-03-11T16:43:49Z</time><extensions><gpxtpx:TrackPointExtension><gpxtpx:atemp>2.3</gpxtpx:atemp></gpxtpx:TrackPointExtension></extensions></trkpt><trkpt lat="42.2272935882" lon="13.4165476263"><ele>1584.13</ele><time>2026-03-11T16:43:50Z</time><extensions><gpxtpx:TrackPointExtension><gpxtpx:atemp>2.3</gpxtpx:atemp></gpxtpx:TrackPointExtension></extensions></trkpt><trkpt lat="42.2273009643" lon="13.4165497217"><ele>1584.09</ele><time>2026-03-11T16:43:51Z</time><extensions><gpxtpx:TrackPointExtension><gpxtpx:atemp>2.3</gpxtpx:atemp></gpxtpx:TrackPointExtension></extensions></trkpt><trkpt lat="42.2273096815" lon="13.4165532421"><ele>1584.05</ele><time>2026-03-11T16:43:52Z</time><extensions><gpxtpx:TrackPointExtension><gpxtpx:atemp>2.3</gpxtpx:atemp></gpxtpx:TrackPointExtension></extensions></trkpt><trkpt lat="42.2273201589" lon="13.4165554214"><ele>1583.99</ele><time>2026-03-11T16:43:53Z</time><extensions><gpxtpx:TrackPointExtension><gpxtpx:atemp>2.3</gpxtpx:atemp></gpxtpx:TrackPointExtension></extensions></trkpt><trkpt lat="42.2273296304" lon="13.4165590256"><ele>1583.91</ele><time>2026-03-11T16:43:54Z</time><extensions><gpxtpx:TrackPointExtension><gpxtpx:atemp>2.3</gpxtpx:atemp></gpxtpx:TrackPointExtension></extensions></trkpt><trkpt lat="42.2273346595" lon="13.4165606182"><ele>1583.83</ele><time>2026-03-11T16:43:55Z</time><extensions><gpxtpx:TrackPointExtension><gpxtpx:atemp>2.3</gpxtpx:atemp></gpxtpx:TrackPointExtension></extensions></trkpt><trkpt lat="42.2273460589" lon="13.4165616240"><ele>1583.78</ele><time>2026-03-11T16:43:56Z</time><extensions><gpxtpx:TrackPointExtension><gpxtpx:atemp>2.3</gpxtpx:atemp></gpxtpx:TrackPointExtension></extensions></trkpt><trkpt lat="42.2273561172" lon="13.4165665694"><ele>1583.75</ele><time>2026-03-11T16:43:57Z</time><extensions><gpxtpx:TrackPointExtension><gpxtpx:atemp>2.3</gpxtpx:atemp></gpxtpx:TrackPointExtension></extensions></trkpt><trkpt lat="42.2273639962" lon="13.4165699221"><ele>1583.71</ele><time>2026-03-11T16:43:58Z</time><extensions><gpxtpx:TrackPointExtension><gpxtpx:atemp>2.3</gpxtpx:atemp></gpxtpx:TrackPointExtension></extensions></trkpt><trkpt lat="42.2273711208" lon="13.4165745322"><ele>1583.69</ele><time>2026-03-11T16:43:59Z</time><extensions><gpxtpx:TrackPointExtension><gpxtpx:atemp>2.3</gpxtpx:atemp></gpxtpx:TrackPointExtension></extensions></trkpt><trkpt lat="42.2273770720" lon="13.4165810701"><ele>1583.60</ele><time>2026-03-11T16:44:00Z</time><extensions><gpxtpx:TrackPointExtension><gpxtpx:atemp>2.3</gpxtpx:atemp></gpxtpx:TrackPointExtension></extensions></trkpt><trkpt lat="42.2273838613" lon="13.4165861830"><ele>1583.55</ele><time>2026-03-11T16:44:01Z</time><extensions><gpxtpx:TrackPointExtension><gpxtpx:atemp>2.3</gpxtpx:atemp></gpxtpx:TrackPointExtension></extensions></trkpt><trkpt lat="42.2273908183" lon="13.4165890329"><ele>1583.50</ele><time>2026-03-11T16:44:02Z</time><extensions><gpxtpx:TrackPointExtension><gpxtpx:atemp>2.3</gpxtpx:atemp></gpxtpx:TrackPointExtension></extensions></trkpt><trkpt lat="42.2273965180" lon="13.4165998455"><ele>1583.43</ele><time>2026-03-11T16:44:03Z</time><extensions><gpxtpx:TrackPointExtension><gpxtpx:atemp>2.3</gpxtpx:atemp></gpxtpx:TrackPointExtension></extensions></trkpt><trkpt lat="42.2274045646" lon="13.4166060481"><ele>1583.37</ele><time>2026-03-11T16:44:04Z</time><extensions><gpxtpx:TrackPointExtension><gpxtpx:atemp>2.3</gpxtpx:atemp></gpxtpx:TrackPointExtension></extensions></trkpt><trkpt lat="42.2274112701" lon="13.4166134242"><ele>1583.30</ele><time>2026-03-11T16:44:05Z</time><extensions><gpxtpx:TrackPointExtension><gpxtpx:atemp>2.3</gpxtpx:atemp></gpxtpx:TrackPointExtension></extensions></trkpt><trkpt lat="42.2274204902" lon="13.4166222252"><ele>1583.24</ele><time>2026-03-11T16:44:06Z</time><extensions><gpxtpx:TrackPointExtension><gpxtpx:atemp>2.3</gpxtpx:atemp></gpxtpx:TrackPointExtension></extensions></trkpt><trkpt lat="42.2274266928" lon="13.4166281763"><ele>1583.17</ele><time>2026-03-11T16:44:07Z</time><extensions><gpxtpx:TrackPointExtension><gpxtpx:atemp>2.3</gpxtpx:atemp></gpxtpx:TrackPointExtension></extensions></trkpt><trkpt lat="42.2274328955" lon="13.4166369773"><ele>1583.09</ele><time>2026-03-11T16:44:08Z</time><extensions><gpxtpx:TrackPointExtension><gpxtpx:atemp>2.3</gpxtpx:atemp></gpxtpx:TrackPointExtension></extensions></trkpt><trkpt lat="42.2274393495" lon="13.4166446887"><ele>1583.00</ele><time>2026-03-11T16:44:09Z</time><extensions><gpxtpx:TrackPointExtension><gpxtpx:atemp>2.3</gpxtpx:atemp></gpxtpx:TrackPointExtension></extensions></trkpt><trkpt lat="42.2274452168" lon="13.4166490473"><ele>1582.92</ele><time>2026-03-11T16:44:10Z</time><extensions><gpxtpx:TrackPointExtension><gpxtpx:atemp>2.3</gpxtpx:atemp></gpxtpx:TrackPointExtension></extensions></trkpt><trkpt lat="42.2274527606" lon="13.4166566748"><ele>1582.78</ele><time>2026-03-11T16:44:11Z</time><extensions><gpxtpx:TrackPointExtension><gpxtpx:atemp>2.3</gpxtpx:atemp></gpxtpx:TrackPointExtension></extensions></trkpt><trkpt lat="42.2274596337" lon="13.4166645538"><ele>1582.68</ele><time>2026-03-11T16:44:12Z</time><extensions><gpxtpx:TrackPointExtension><gpxtpx:atemp>2.3</gpxtpx:atemp></gpxtpx:TrackPointExtension></extensions></trkpt><trkpt lat="42.2274681833" lon="13.4166709241"><ele>1582.56</ele><time>2026-03-11T16:44:13Z</time><extensions><gpxtpx:TrackPointExtension><gpxtpx:atemp>2.3</gpxtpx:atemp></gpxtpx:TrackPointExtension></extensions></trkpt><trkpt lat="42.2274754755" lon="13.4166773781"><ele>1582.46</ele><time>2026-03-11T16:44:14Z</time><extensions><gpxtpx:TrackPointExtension><gpxtpx:atemp>2.3</gpxtpx:atemp></gpxtpx:TrackPointExtension></extensions></trkpt><trkpt lat="42.2274834383" lon="13.4166855924"><ele>1582.37</ele><time>2026-03-11T16:44:15Z</time><extensions><gpxtpx:TrackPointExtension><gpxtpx:atemp>2.3</gpxtpx:atemp></gpxtpx:TrackPointExtension></extensions></trkpt><trkpt lat="42.2274905629" lon="13.4166929685"><ele>1582.29</ele><time>2026-03-11T16:44:16Z</time><extensions><gpxtpx:TrackPointExtension><gpxtpx:atemp>2.3</gpxtpx:atemp></gpxtpx:TrackPointExtension></extensions></trkpt><trkpt lat="42.2274984419" lon="13.4166994225"><ele>1582.23</ele><time>2026-03-11T16:44:17Z</time><extensions><gpxtpx:TrackPointExtension><gpxtpx:atemp>2.3</gpxtpx:atemp></gpxtpx:TrackPointExtension></extensions></trkpt><trkpt lat="42.2275047284" lon="13.4167082235"><ele>1582.14</ele><time>2026-03-11T16:44:18Z</time><extensions><gpxtpx:TrackPointExtension><gpxtpx:atemp>2.3</gpxtpx:atemp></gpxtpx:TrackPointExtension></extensions></trkpt><trkpt lat="42.2275108472" lon="13.4167141747"><ele>1582.03</ele><time>2026-03-11T16:44:19Z</time><extensions><gpxtpx:TrackPointExtension><gpxtpx:atemp>2.3</gpxtpx:atemp></gpxtpx:TrackPointExtension></extensions></trkpt><trkpt lat="42.2275159601" lon="13.4167236462"><ele>1581.94</ele><time>2026-03-11T16:44:20Z</time><extensions><gpxtpx:TrackPointExtension><gpxtpx:atemp>2.3</gpxtpx:atemp></gpxtpx:TrackPointExtension></extensions></trkpt><trkpt lat="42.2275221627" lon="13.4167336207"><ele>1581.86</ele><time>2026-03-11T16:44:21Z</time><extensions><gpxtpx:TrackPointExtension><gpxtpx:atemp>2.3</gpxtpx:atemp></gpxtpx:TrackPointExtension></extensions></trkpt><trkpt lat="42.2275303770" lon="13.4167392366"><ele>1581.72</ele><time>2026-03-11T16:44:22Z</time><extensions><gpxtpx:TrackPointExtension><gpxtpx:atemp>2.3</gpxtpx:atemp></gpxtpx:TrackPointExtension></extensions></trkpt><trkpt lat="42.2275377531" lon="13.4167468641"><ele>1581.65</ele><time>2026-03-11T16:44:23Z</time><extensions><gpxtpx:TrackPointExtension><gpxtpx:atemp>2.3</gpxtpx:atemp></gpxtpx:TrackPointExtension></extensions></trkpt><trkpt lat="42.2275454644" lon="13.4167566709"><ele>1581.59</ele><time>2026-03-11T16:44:24Z</time><extensions><gpxtpx:TrackPointExtension><gpxtpx:atemp>2.3</gpxtpx:atemp></gpxtpx:TrackPointExtension></extensions></trkpt><trkpt lat="42.2275525890" lon="13.4167659748"><ele>1581.57</ele><time>2026-03-11T16:44:25Z</time><extensions><gpxtpx:TrackPointExtension><gpxtpx:atemp>2.3</gpxtpx:atemp></gpxtpx:TrackPointExtension></extensions></trkpt><trkpt lat="42.2275595460" lon="13.4167742729"><ele>1581.54</ele><time>2026-03-11T16:44:26Z</time><extensions><gpxtpx:TrackPointExtension><gpxtpx:atemp>2.3</gpxtpx:atemp></gpxtpx:TrackPointExtension></extensions></trkpt><trkpt lat="42.2275664192" lon="13.4167823195"><ele>1581.49</ele><time>2026-03-11T16:44:27Z</time><extensions><gpxtpx:TrackPointExtension><gpxtpx:atemp>2.3</gpxtpx:atemp></gpxtpx:TrackPointExtension></extensions></trkpt><trkpt lat="42.2275725380" lon="13.4167915396"><ele>1581.44</ele><time>2026-03-11T16:44:28Z</time><extensions><gpxtpx:TrackPointExtension><gpxtpx:atemp>2.3</gpxtpx:atemp></gpxtpx:TrackPointExtension></extensions></trkpt><trkpt lat="42.2275778186" lon="13.4168015979"><ele>1581.41</ele><time>2026-03-11T16:44:29Z</time><extensions><gpxtpx:TrackPointExtension><gpxtpx:atemp>2.3</gpxtpx:atemp></gpxtpx:TrackPointExtension></extensions></trkpt><trkpt lat="42.2275825962" lon="13.4168128297"><ele>1581.37</ele><time>2026-03-11T16:44:30Z</time><extensions><gpxtpx:TrackPointExtension><gpxtpx:atemp>2.3</gpxtpx:atemp></gpxtpx:TrackPointExtension></extensions></trkpt><trkpt lat="42.2275884636" lon="13.4168242291"><ele>1581.37</ele><time>2026-03-11T16:44:31Z</time><extensions><gpxtpx:TrackPointExtension><gpxtpx:atemp>2.3</gpxtpx:atemp></gpxtpx:TrackPointExtension></extensions></trkpt><trkpt lat="42.2275932413" lon="13.4168353770"><ele>1581.35</ele><time>2026-03-11T16:44:32Z</time><extensions><gpxtpx:TrackPointExtension><gpxtpx:atemp>2.4</gpxtpx:atemp></gpxtpx:TrackPointExtension></extensions></trkpt><trkpt lat="42.2275969293" lon="13.4168470278"><ele>1581.35</ele><time>2026-03-11T16:44:33Z</time><extensions><gpxtpx:TrackPointExtension><gpxtpx:atemp>2.4</gpxtpx:atemp></gpxtpx:TrackPointExtension></extensions></trkpt><trkpt lat="42.2276000306" lon="13.4168572538"><ele>1581.34</ele><time>2026-03-11T16:44:34Z</time><extensions><gpxtpx:TrackPointExtension><gpxtpx:atemp>2.4</gpxtpx:atemp></gpxtpx:TrackPointExtension></extensions></trkpt><trkpt lat="42.2276039701" lon="13.4168665577"><ele>1581.30</ele><time>2026-03-11T16:44:35Z</time><extensions><gpxtpx:TrackPointExtension><gpxtpx:atemp>2.4</gpxtpx:atemp></gpxtpx:TrackPointExtension></extensions></trkpt><trkpt lat="42.2276093345" lon="13.4168751910"><ele>1581.22</ele><time>2026-03-11T16:44:36Z</time><extensions><gpxtpx:TrackPointExtension><gpxtpx:atemp>2.4</gpxtpx:atemp></gpxtpx:TrackPointExtension></extensions></trkpt><trkpt lat="42.2276134416" lon="13.4168866742"><ele>1581.12</ele><time>2026-03-11T16:44:37Z</time><extensions><gpxtpx:TrackPointExtension><gpxtpx:atemp>2.4</gpxtpx:atemp></gpxtpx:TrackPointExtension></extensions></trkpt><trkpt lat="42.2276181355" lon="13.4168991633"><ele>1581.00</ele><time>2026-03-11T16:44:38Z</time><extensions><gpxtpx:TrackPointExtension><gpxtpx:atemp>2.4</gpxtpx:atemp></gpxtpx:TrackPointExtension></extensions></trkpt><trkpt lat="42.2276227456" lon="13.4169112332"><ele>1580.88</ele><time>2026-03-11T16:44:39Z</time><extensions><gpxtpx:TrackPointExtension><gpxtpx:atemp>2.4</gpxtpx:atemp></gpxtpx:TrackPointExtension></extensions></trkpt><trkpt lat="42.2276259307" lon="13.4169209562"><ele>1580.80</ele><time>2026-03-11T16:44:40Z</time><extensions><gpxtpx:TrackPointExtension><gpxtpx:atemp>2.4</gpxtpx:atemp></gpxtpx:TrackPointExtension></extensions></trkpt><trkpt lat="42.2276296187" lon="13.4169308469"><ele>1580.75</ele><time>2026-03-11T16:44:41Z</time><extensions><gpxtpx:TrackPointExtension><gpxtpx:atemp>2.4</gpxtpx:atemp></gpxtpx:TrackPointExtension></extensions></trkpt><trkpt lat="42.2276330553" lon="13.4169408213"><ele>1580.72</ele><time>2026-03-11T16:44:42Z</time><extensions><gpxtpx:TrackPointExtension><gpxtpx:atemp>2.4</gpxtpx:atemp></gpxtpx:TrackPointExtension></extensions></trkpt><trkpt lat="42.2276369948" lon="13.4169505443"><ele>1580.63</ele><time>2026-03-11T16:44:43Z</time><extensions><gpxtpx:TrackPointExtension><gpxtpx:atemp>2.4</gpxtpx:atemp></gpxtpx:TrackPointExtension></extensions></trkpt><trkpt lat="42.2276421916" lon="13.4169605188"><ele>1580.48</ele><time>2026-03-11T16:44:44Z</time><extensions><gpxtpx:TrackPointExtension><gpxtpx:atemp>2.4</gpxtpx:atemp></gpxtpx:TrackPointExtension></extensions></trkpt><trkpt lat="42.2276481427" lon="13.4169663861"><ele>1580.26</ele><time>2026-03-11T16:44:45Z</time><extensions><gpxtpx:TrackPointExtension><gpxtpx:atemp>2.4</gpxtpx:atemp></gpxtpx:TrackPointExtension></extensions></trkpt><trkpt lat="42.2276513278" lon="13.4169756901"><ele>1580.17</ele><time>2026-03-11T16:44:46Z</time><extensions><gpxtpx:TrackPointExtension><gpxtpx:atemp>2.4</gpxtpx:atemp></gpxtpx:TrackPointExtension></extensions></trkpt><trkpt lat="42.2276547644" lon="13.4169846587"><ele>1580.08</ele><time>2026-03-11T16:44:47Z</time><extensions><gpxtpx:TrackPointExtension><gpxtpx:atemp>2.4</gpxtpx:atemp></gpxtpx:TrackPointExtension></extensions></trkpt><trkpt lat="42.2276565246" lon="13.4169918671"><ele>1580.03</ele><time>2026-03-11T16:44:48Z</time><extensions><gpxtpx:TrackPointExtension><gpxtpx:atemp>2.4</gpxtpx:atemp></gpxtpx:TrackPointExtension></extensions></trkpt><trkpt lat="42.2276598774" lon="13.4170010872"><ele>1579.99</ele><time>2026-03-11T16:44:49Z</time><extensions><gpxtpx:TrackPointExtension><gpxtpx:atemp>2.4</gpxtpx:atemp></gpxtpx:TrackPointExtension></extensions></trkpt><trkpt lat="42.2276618890" lon="13.4170110617"><ele>1579.96</ele><time>2026-03-11T16:44:50Z</time><extensions><gpxtpx:TrackPointExtension><gpxtpx:atemp>2.4</gpxtpx:atemp></gpxtpx:TrackPointExtension></extensions></trkpt><trkpt lat="42.2276649904" lon="13.4170171805"><ele>1579.91</ele><time>2026-03-11T16:44:51Z</time><extensions><gpxtpx:TrackPointExtension><gpxtpx:atemp>2.4</gpxtpx:atemp></gpxtpx:TrackPointExtension></extensions></trkpt><trkpt lat="42.2276670858" lon="13.4170170967"><ele>1579.85</ele><time>2026-03-11T16:44:52Z</time><extensions><gpxtpx:TrackPointExtension><gpxtpx:atemp>2.4</gpxtpx:atemp></gpxtpx:TrackPointExtension></extensions></trkpt><trkpt lat="42.2276670858" lon="13.4170167614"><ele>1579.82</ele><time>2026-03-11T16:44:53Z</time><extensions><gpxtpx:TrackPointExtension><gpxtpx:atemp>2.4</gpxtpx:atemp></gpxtpx:TrackPointExtension></extensions></trkpt><trkpt lat="42.2276677564" lon="13.4170166776"><ele>1579.80</ele><time>2026-03-11T16:44:54Z</time><extensions><gpxtpx:TrackPointExtension><gpxtpx:atemp>2.4</gpxtpx:atemp></gpxtpx:TrackPointExtension></extensions></trkpt><trkpt lat="42.2276675887" lon="13.4170175996"><ele>1579.77</ele><time>2026-03-11T16:44:55Z</time><extensions><gpxtpx:TrackPointExtension><gpxtpx:atemp>2.4</gpxtpx:atemp></gpxtpx:TrackPointExtension></extensions></trkpt><trkpt lat="42.2276683431" lon="13.4170168452"><ele>1579.73</ele><time>2026-03-11T16:44:56Z</time><extensions><gpxtpx:TrackPointExtension><gpxtpx:atemp>2.4</gpxtpx:atemp></gpxtpx:TrackPointExtension></extensions></trkpt><trkpt lat="42.2276691813" lon="13.4170198627"><ele>1579.71</ele><time>2026-03-11T16:44:57Z</time><extensions><gpxtpx:TrackPointExtension><gpxtpx:atemp>2.4</gpxtpx:atemp></gpxtpx:TrackPointExtension></extensions></trkpt><trkpt lat="42.2276717797" lon="13.4170236345"><ele>1579.71</ele><time>2026-03-11T16:44:58Z</time><extensions><gpxtpx:TrackPointExtension><gpxtpx:atemp>2.4</gpxtpx:atemp></gpxtpx:TrackPointExtension></extensions></trkpt><trkpt lat="42.2276738752" lon="13.4170285799"><ele>1579.69</ele><time>2026-03-11T16:44:59Z</time><extensions><gpxtpx:TrackPointExtension><gpxtpx:atemp>2.4</gpxtpx:atemp></gpxtpx:TrackPointExtension></extensions></trkpt><trkpt lat="42.2276789881" lon="13.4170346987"><ele>1579.66</ele><time>2026-03-11T16:45:00Z</time><extensions><gpxtpx:TrackPointExtension><gpxtpx:atemp>2.4</gpxtpx:atemp></gpxtpx:TrackPointExtension></extensions></trkpt><trkpt lat="42.2276828438" lon="13.4170414880"><ele>1579.63</ele><time>2026-03-11T16:45:01Z</time><extensions><gpxtpx:TrackPointExtension><gpxtpx:atemp>2.4</gpxtpx:atemp></gpxtpx:TrackPointExtension></extensions></trkpt><trkpt lat="42.2276868671" lon="13.4170486964"><ele>1579.53</ele><time>2026-03-11T16:45:02Z</time><extensions><gpxtpx:TrackPointExtension><gpxtpx:atemp>2.4</gpxtpx:atemp></gpxtpx:TrackPointExtension></extensions></trkpt><trkpt lat="42.2276899684" lon="13.4170560725"><ele>1579.43</ele><time>2026-03-11T16:45:03Z</time><extensions><gpxtpx:TrackPointExtension><gpxtpx:atemp>2.4</gpxtpx:atemp></gpxtpx:TrackPointExtension></extensions></trkpt><trkpt lat="42.2276924830" lon="13.4170629457"><ele>1579.33</ele><time>2026-03-11T16:45:04Z</time><extensions><gpxtpx:TrackPointExtension><gpxtpx:atemp>2.4</gpxtpx:atemp></gpxtpx:TrackPointExtension></extensions></trkpt><trkpt lat="42.2276949976" lon="13.4170700703"><ele>1579.21</ele><time>2026-03-11T16:45:05Z</time><extensions><gpxtpx:TrackPointExtension><gpxtpx:atemp>2.4</gpxtpx:atemp></gpxtpx:TrackPointExtension></extensions></trkpt><trkpt lat="42.2276966739" lon="13.4170744289"><ele>1579.11</ele><time>2026-03-11T16:45:06Z</time><extensions><gpxtpx:TrackPointExtension><gpxtpx:atemp>2.4</gpxtpx:atemp></gpxtpx:TrackPointExtension></extensions></trkpt><trkpt lat="42.2276960872" lon="13.4170751832"><ele>1579.01</ele><time>2026-03-11T16:45:07Z</time><extensions><gpxtpx:TrackPointExtension><gpxtpx:atemp>2.4</gpxtpx:atemp></gpxtpx:TrackPointExtension></extensions></trkpt><trkpt lat="42.2276962548" lon="13.4170744289"><ele>1578.86</ele><time>2026-03-11T16:45:08Z</time><extensions><gpxtpx:TrackPointExtension><gpxtpx:atemp>2.4</gpxtpx:atemp></gpxtpx:TrackPointExtension></extensions></trkpt><trkpt lat="42.2276962548" lon="13.4170751832"><ele>1578.51</ele><time>2026-03-11T16:45:09Z</time><extensions><gpxtpx:TrackPointExtension><gpxtpx:atemp>2.4</gpxtpx:atemp></gpxtpx:TrackPointExtension></extensions></trkpt><trkpt lat="42.2276964225" lon="13.4170762729"><ele>1578.37</ele><time>2026-03-11T16:45:10Z</time><extensions><gpxtpx:TrackPointExtension><gpxtpx:atemp>2.4</gpxtpx:atemp></gpxtpx:TrackPointExtension></extensions></trkpt><trkpt lat="42.2276964225" lon="13.4170762729"><ele>1578.28</ele><time>2026-03-11T16:45:11Z</time><extensions><gpxtpx:TrackPointExtension><gpxtpx:atemp>2.4</gpxtpx:atemp></gpxtpx:TrackPointExtension></extensions></trkpt><trkpt lat="42.2276962548" lon="13.4170763567"><ele>1578.20</ele><time>2026-03-11T16:45:12Z</time><extensions><gpxtpx:TrackPointExtension><gpxtpx:atemp>2.4</gpxtpx:atemp></gpxtpx:TrackPointExtension></extensions></trkpt><trkpt lat="42.2276959196" lon="13.4170763567"><ele>1578.11</ele><time>2026-03-11T16:45:13Z</time><extensions><gpxtpx:TrackPointExtension><gpxtpx:atemp>2.4</gpxtpx:atemp></gpxtpx:TrackPointExtension></extensions></trkpt><trkpt lat="42.2276951652" lon="13.4170773625"><ele>1578.05</ele><time>2026-03-11T16:45:14Z</time><extensions><gpxtpx:TrackPointExtension><gpxtpx:atemp>2.4</gpxtpx:atemp></gpxtpx:TrackPointExtension></extensions></trkpt><trkpt lat="42.2276955843" lon="13.4170763567"><ele>1578.00</ele><time>2026-03-11T16:45:15Z</time><extensions><gpxtpx:TrackPointExtension><gpxtpx:atemp>2.4</gpxtpx:atemp></gpxtpx:TrackPointExtension></extensions></trkpt><trkpt lat="42.2276959196" lon="13.4170762729"><ele>1577.99</ele><time>2026-03-11T16:45:16Z</time><extensions><gpxtpx:TrackPointExtension><gpxtpx:atemp>2.4</gpxtpx:atemp></gpxtpx:TrackPointExtension></extensions></trkpt><trkpt lat="42.2276959196" lon="13.4170756862"><ele>1577.98</ele><time>2026-03-11T16:45:17Z</time><extensions><gpxtpx:TrackPointExtension><gpxtpx:atemp>2.4</gpxtpx:atemp></gpxtpx:TrackPointExtension></extensions></trkpt><trkpt lat="42.2276965901" lon="13.4170755185"><ele>1577.96</ele><time>2026-03-11T16:45:18Z</time><extensions><gpxtpx:TrackPointExtension><gpxtpx:atemp>2.4</gpxtpx:atemp></gpxtpx:TrackPointExtension></extensions></trkpt><trkpt lat="42.2276960872" lon="13.4170747641"><ele>1577.96</ele><time>2026-03-11T16:45:19Z</time><extensions><gpxtpx:TrackPointExtension><gpxtpx:atemp>2.4</gpxtpx:atemp></gpxtpx:TrackPointExtension></extensions></trkpt><trkpt lat="42.2276960872" lon="13.4170749318"><ele>1577.96</ele><time>2026-03-11T16:45:20Z</time><extensions><gpxtpx:TrackPointExtension><gpxtpx:atemp>2.4</gpxtpx:atemp></gpxtpx:TrackPointExtension></extensions></trkpt><trkpt lat="42.2276959196" lon="13.4170751832"><ele>1577.96</ele><time>2026-03-11T16:45:21Z</time><extensions><gpxtpx:TrackPointExtension><gpxtpx:atemp>2.4</gpxtpx:atemp></gpxtpx:TrackPointExtension></extensions></trkpt><trkpt lat="42.2276958358" lon="13.4170762729"><ele>1577.96</ele><time>2026-03-11T16:45:22Z</time><extensions><gpxtpx:TrackPointExtension><gpxtpx:atemp>2.4</gpxtpx:atemp></gpxtpx:TrackPointExtension></extensions></trkpt><trkpt lat="42.2276958358" lon="13.4170767758"><ele>1577.92</ele><time>2026-03-11T16:45:23Z</time><extensions><gpxtpx:TrackPointExtension><gpxtpx:atemp>2.4</gpxtpx:atemp></gpxtpx:TrackPointExtension></extensions></trkpt><trkpt lat="42.2276956681" lon="13.4170774464"><ele>1577.88</ele><time>2026-03-11T16:45:24Z</time><extensions><gpxtpx:TrackPointExtension><gpxtpx:atemp>2.4</gpxtpx:atemp></gpxtpx:TrackPointExtension></extensions></trkpt><trkpt lat="42.2276953328" lon="13.4170782845"><ele>1577.83</ele><time>2026-03-11T16:45:25Z</time><extensions><gpxtpx:TrackPointExtension><gpxtpx:atemp>2.4</gpxtpx:atemp></gpxtpx:TrackPointExtension></extensions></trkpt><trkpt lat="42.2276955843" lon="13.4170784522"><ele>1577.83</ele><time>2026-03-11T16:45:26Z</time><extensions><gpxtpx:TrackPointExtension><gpxtpx:atemp>2.4</gpxtpx:atemp></gpxtpx:TrackPointExtension></extensions></trkpt><trkpt lat="42.2276955843" lon="13.4170789551"><ele>1577.81</ele><time>2026-03-11T16:45:27Z</time><extensions><gpxtpx:TrackPointExtension><gpxtpx:atemp>2.4</gpxtpx:atemp></gpxtpx:TrackPointExtension></extensions></trkpt><trkpt lat="42.2276954167" lon="13.4170791227"><ele>1577.77</ele><time>2026-03-11T16:45:28Z</time><extensions><gpxtpx:TrackPointExtension><gpxtpx:atemp>2.4</gpxtpx:atemp></gpxtpx:TrackPointExtension></extensions></trkpt><trkpt lat="42.2276954167" lon="13.4170794580"><ele>1577.75</ele><time>2026-03-11T16:45:29Z</time><extensions><gpxtpx:TrackPointExtension><gpxtpx:atemp>2.4</gpxtpx:atemp></gpxtpx:TrackPointExtension></extensions></trkpt><trkpt lat="42.2276955843" lon="13.4170796257"><ele>1577.74</ele><time>2026-03-11T16:45:30Z</time><extensions><gpxtpx:TrackPointExtension><gpxtpx:atemp>2.4</gpxtpx:atemp></gpxtpx:TrackPointExtension></extensions></trkpt><trkpt lat="42.2276955843" lon="13.4170801286"><ele>1577.75</ele><time>2026-03-11T16:45:31Z</time><extensions><gpxtpx:TrackPointExtension><gpxtpx:atemp>2.4</gpxtpx:atemp></gpxtpx:TrackPointExtension></extensions></trkpt><trkpt lat="42.2276958358" lon="13.4170800447"><ele>1577.75</ele><time>2026-03-11T16:45:32Z</time><extensions><gpxtpx:TrackPointExtension><gpxtpx:atemp>2.1</gpxtpx:atemp></gpxtpx:TrackPointExtension></extensions></trkpt><trkpt lat="42.2276961710" lon="13.4170800447"><ele>1577.78</ele><time>2026-03-11T16:45:33Z</time><extensions><gpxtpx:TrackPointExtension><gpxtpx:atemp>2.1</gpxtpx:atemp></gpxtpx:TrackPointExtension></extensions></trkpt><trkpt lat="42.2276965901" lon="13.4170798771"><ele>1577.79</ele><time>2026-03-11T16:45:34Z</time><extensions><gpxtpx:TrackPointExtension><gpxtpx:atemp>2.1</gpxtpx:atemp></gpxtpx:TrackPointExtension></extensions></trkpt><trkpt lat="42.2276967578" lon="13.4170797933"><ele>1577.82</ele><time>2026-03-11T16:45:35Z</time><extensions><gpxtpx:TrackPointExtension><gpxtpx:atemp>2.1</gpxtpx:atemp></gpxtpx:TrackPointExtension></extensions></trkpt><trkpt lat="42.2276969254" lon="13.4170795418"><ele>1577.82</ele><time>2026-03-11T16:45:36Z</time><extensions><gpxtpx:TrackPointExtension><gpxtpx:atemp>2.1</gpxtpx:atemp></gpxtpx:TrackPointExtension></extensions></trkpt><trkpt lat="42.2276968416" lon="13.4170788713"><ele>1577.82</ele><time>2026-03-11T16:45:37Z</time><extensions><gpxtpx:TrackPointExtension><gpxtpx:atemp>2.1</gpxtpx:atemp></gpxtpx:TrackPointExtension></extensions></trkpt><trkpt lat="42.2276968416" lon="13.4170786198"><ele>1577.83</ele><time>2026-03-11T16:45:38Z</time><extensions><gpxtpx:TrackPointExtension><gpxtpx:atemp>2.1</gpxtpx:atemp></gpxtpx:TrackPointExtension></extensions></trkpt><trkpt lat="42.2276973445" lon="13.4170783684"><ele>1577.84</ele><time>2026-03-11T16:45:39Z</time><extensions><gpxtpx:TrackPointExtension><gpxtpx:atemp>2.1</gpxtpx:atemp></gpxtpx:TrackPointExtension></extensions></trkpt><trkpt lat="42.2276975960" lon="13.4170779493"><ele>1577.84</ele><time>2026-03-11T16:45:40Z</time><extensions><gpxtpx:TrackPointExtension><gpxtpx:atemp>2.1</gpxtpx:atemp></gpxtpx:TrackPointExtension></extensions></trkpt><trkpt lat="42.2276975960" lon="13.4170784522"><ele>1577.84</ele><time>2026-03-11T16:45:41Z</time><extensions><gpxtpx:TrackPointExtension><gpxtpx:atemp>2.1</gpxtpx:atemp></gpxtpx:TrackPointExtension></extensions></trkpt><trkpt lat="42.2276975960" lon="13.4170788713"><ele>1577.83</ele><time>2026-03-11T16:45:42Z</time><extensions><gpxtpx:TrackPointExtension><gpxtpx:atemp>2.1</gpxtpx:atemp></gpxtpx:TrackPointExtension></extensions></trkpt><trkpt lat="42.2276971769" lon="13.4170792904"><ele>1577.88</ele><time>2026-03-11T16:45:43Z</time><extensions><gpxtpx:TrackPointExtension><gpxtpx:atemp>2.1</gpxtpx:atemp></gpxtpx:TrackPointExtension></extensions></trkpt><trkpt lat="42.2276966739" lon="13.4170792904"><ele>1577.92</ele><time>2026-03-11T16:45:44Z</time><extensions><gpxtpx:TrackPointExtension><gpxtpx:atemp>2.1</gpxtpx:atemp></gpxtpx:TrackPointExtension></extensions></trkpt><trkpt lat="42.2276966739" lon="13.4170792904"><ele>1577.92</ele><time>2026-03-11T16:45:45Z</time><extensions><gpxtpx:TrackPointExtension><gpxtpx:atemp>2.1</gpxtpx:atemp></gpxtpx:TrackPointExtension></extensions></trkpt><trkpt lat="42.2276965901" lon="13.4170789551"><ele>1577.92</ele><time>2026-03-11T16:45:46Z</time><extensions><gpxtpx:TrackPointExtension><gpxtpx:atemp>2.1</gpxtpx:atemp></gpxtpx:TrackPointExtension></extensions></trkpt><trkpt lat="42.2276966739" lon="13.4170791227"><ele>1577.94</ele><time>2026-03-11T16:45:47Z</time><extensions><gpxtpx:TrackPointExtension><gpxtpx:atemp>2.1</gpxtpx:atemp></gpxtpx:TrackPointExtension></extensions></trkpt><trkpt lat="42.2276978474" lon="13.4170798771"><ele>1577.95</ele><time>2026-03-11T16:45:48Z</time><extensions><gpxtpx:TrackPointExtension><gpxtpx:atemp>2.1</gpxtpx:atemp></gpxtpx:TrackPointExtension></extensions></trkpt><trkpt lat="42.2276981827" lon="13.4170787875"><ele>1577.92</ele><time>2026-03-11T16:45:49Z</time><extensions><gpxtpx:TrackPointExtension><gpxtpx:atemp>2.1</gpxtpx:atemp></gpxtpx:TrackPointExtension></extensions></trkpt><trkpt lat="42.2276978474" lon="13.4170779493"><ele>1577.85</ele><time>2026-03-11T16:45:50Z</time><extensions><gpxtpx:TrackPointExtension><gpxtpx:atemp>2.1</gpxtpx:atemp></gpxtpx:TrackPointExtension></extensions></trkpt><trkpt lat="42.2276983503" lon="13.4170773625"><ele>1577.77</ele><time>2026-03-11T16:45:51Z</time><extensions><gpxtpx:TrackPointExtension><gpxtpx:atemp>2.1</gpxtpx:atemp></gpxtpx:TrackPointExtension></extensions></trkpt><trkpt lat="42.2276980989" lon="13.4170769434"><ele>1577.72</ele><time>2026-03-11T16:45:52Z</time><extensions><gpxtpx:TrackPointExtension><gpxtpx:atemp>2.1</gpxtpx:atemp></gpxtpx:TrackPointExtension></extensions></trkpt><trkpt lat="42.2276982665" lon="13.4170756862"><ele>1577.75</ele><time>2026-03-11T16:45:53Z</time><extensions><gpxtpx:TrackPointExtension><gpxtpx:atemp>2.1</gpxtpx:atemp></gpxtpx:TrackPointExtension></extensions></trkpt><trkpt lat="42.2276988532" lon="13.4170750994"><ele>1577.77</ele><time>2026-03-11T16:45:54Z</time><extensions><gpxtpx:TrackPointExtension><gpxtpx:atemp>2.1</gpxtpx:atemp></gpxtpx:TrackPointExtension></extensions></trkpt><trkpt lat="42.2276990209" lon="13.4170755185"><ele>1577.81</ele><time>2026-03-11T16:45:55Z</time><extensions><gpxtpx:TrackPointExtension><gpxtpx:atemp>2.1</gpxtpx:atemp></gpxtpx:TrackPointExtension></extensions></trkpt><trkpt lat="42.2276986856" lon="13.4170774464"><ele>1577.86</ele><time>2026-03-11T16:45:56Z</time><extensions><gpxtpx:TrackPointExtension><gpxtpx:atemp>2.1</gpxtpx:atemp></gpxtpx:TrackPointExtension></extensions></trkpt><trkpt lat="42.2276989371" lon="13.4170792904"><ele>1577.89</ele><time>2026-03-11T16:45:57Z</time><extensions><gpxtpx:TrackPointExtension><gpxtpx:atemp>2.1</gpxtpx:atemp></gpxtpx:TrackPointExtension></extensions></trkpt><trkpt lat="42.2276993562" lon="13.4170783684"><ele>1577.91</ele><time>2026-03-11T16:45:58Z</time><extensions><gpxtpx:TrackPointExtension><gpxtpx:atemp>2.1</gpxtpx:atemp></gpxtpx:TrackPointExtension></extensions></trkpt><trkpt lat="42.2277000267" lon="13.4170773625"><ele>1577.91</ele><time>2026-03-11T16:45:59Z</time><extensions><gpxtpx:TrackPointExtension><gpxtpx:atemp>2.1</gpxtpx:atemp></gpxtpx:TrackPointExtension></extensions></trkpt><trkpt lat="42.2276995238" lon="13.4170773625"><ele>1577.91</ele><time>2026-03-11T16:46:00Z</time><extensions><gpxtpx:TrackPointExtension><gpxtpx:atemp>2.1</gpxtpx:atemp></gpxtpx:TrackPointExtension></extensions></trkpt><trkpt lat="42.2277013678" lon="13.4170769434"><ele>1577.92</ele><time>2026-03-11T16:46:01Z</time><extensions><gpxtpx:TrackPointExtension><gpxtpx:atemp>2.1</gpxtpx:atemp></gpxtpx:TrackPointExtension></extensions></trkpt><trkpt lat="42.2277014516" lon="13.4170763567"><ele>1577.94</ele><time>2026-03-11T16:46:02Z</time><extensions><gpxtpx:TrackPointExtension><gpxtpx:atemp>2.1</gpxtpx:atemp></gpxtpx:TrackPointExtension></extensions></trkpt><trkpt lat="42.2277019545" lon="13.4170773625"><ele>1577.94</ele><time>2026-03-11T16:46:03Z</time><extensions><gpxtpx:TrackPointExtension><gpxtpx:atemp>2.1</gpxtpx:atemp></gpxtpx:TrackPointExtension></extensions></trkpt><trkpt lat="42.2277012840" lon="13.4170781169"><ele>1577.96</ele><time>2026-03-11T16:46:04Z</time><extensions><gpxtpx:TrackPointExtension><gpxtpx:atemp>2.1</gpxtpx:atemp></gpxtpx:TrackPointExtension></extensions></trkpt><trkpt lat="42.2277017869" lon="13.4170784522"><ele>1577.96</ele><time>2026-03-11T16:46:05Z</time><extensions><gpxtpx:TrackPointExtension><gpxtpx:atemp>2.1</gpxtpx:atemp></gpxtpx:TrackPointExtension></extensions></trkpt><trkpt lat="42.2277014516" lon="13.4170788713"><ele>1578.02</ele><time>2026-03-11T16:46:06Z</time><extensions><gpxtpx:TrackPointExtension><gpxtpx:atemp>2.1</gpxtpx:atemp></gpxtpx:TrackPointExtension></extensions></trkpt><trkpt lat="42.2277012840" lon="13.4170782845"><ele>1578.03</ele><time>2026-03-11T16:46:07Z</time><extensions><gpxtpx:TrackPointExtension><gpxtpx:atemp>2.1</gpxtpx:atemp></gpxtpx:TrackPointExtension></extensions></trkpt><trkpt lat="42.2277024575" lon="13.4170787875"><ele>1578.06</ele><time>2026-03-11T16:46:08Z</time><extensions><gpxtpx:TrackPointExtension><gpxtpx:atemp>2.1</gpxtpx:atemp></gpxtpx:TrackPointExtension></extensions></trkpt><trkpt lat="42.2277021222" lon="13.4170783684"><ele>1578.09</ele><time>2026-03-11T16:46:09Z</time><extensions><gpxtpx:TrackPointExtension><gpxtpx:atemp>2.1</gpxtpx:atemp></gpxtpx:TrackPointExtension></extensions></trkpt><trkpt lat="42.2277020384" lon="13.4170791227"><ele>1578.09</ele><time>2026-03-11T16:46:10Z</time><extensions><gpxtpx:TrackPointExtension><gpxtpx:atemp>2.1</gpxtpx:atemp></gpxtpx:TrackPointExtension></extensions></trkpt><trkpt lat="42.2277020384" lon="13.4170795418"><ele>1578.09</ele><time>2026-03-11T16:46:11Z</time><extensions><gpxtpx:TrackPointExtension><gpxtpx:atemp>2.1</gpxtpx:atemp></gpxtpx:TrackPointExtension></extensions></trkpt><trkpt lat="42.2277028766" lon="13.4170799609"><ele>1578.05</ele><time>2026-03-11T16:46:12Z</time><extensions><gpxtpx:TrackPointExtension><gpxtpx:atemp>2.1</gpxtpx:atemp></gpxtpx:TrackPointExtension></extensions></trkpt><trkpt lat="42.2277036309" lon="13.4170791227"><ele>1578.03</ele><time>2026-03-11T16:46:13Z</time><extensions><gpxtpx:TrackPointExtension><gpxtpx:atemp>2.1</gpxtpx:atemp></gpxtpx:TrackPointExtension></extensions></trkpt><trkpt lat="42.2277041338" lon="13.4170785360"><ele>1577.99</ele><time>2026-03-11T16:46:14Z</time><extensions><gpxtpx:TrackPointExtension><gpxtpx:atemp>2.1</gpxtpx:atemp></gpxtpx:TrackPointExtension></extensions></trkpt><trkpt lat="42.2277041338" lon="13.4170788713"><ele>1577.96</ele><time>2026-03-11T16:46:15Z</time><extensions><gpxtpx:TrackPointExtension><gpxtpx:atemp>2.1</gpxtpx:atemp></gpxtpx:TrackPointExtension></extensions></trkpt><trkpt lat="42.2277042177" lon="13.4170791227"><ele>1577.93</ele><time>2026-03-11T16:46:16Z</time><extensions><gpxtpx:TrackPointExtension><gpxtpx:atemp>2.1</gpxtpx:atemp></gpxtpx:TrackPointExtension></extensions></trkpt><trkpt lat="42.2277050558" lon="13.4170796257"><ele>1577.90</ele><time>2026-03-11T16:46:17Z</time><extensions><gpxtpx:TrackPointExtension><gpxtpx:atemp>2.1</gpxtpx:atemp></gpxtpx:TrackPointExtension></extensions></trkpt><trkpt lat="42.2277064808" lon="13.4170838166"><ele>1577.86</ele><time>2026-03-11T16:46:18Z</time><extensions><gpxtpx:TrackPointExtension><gpxtpx:atemp>2.1</gpxtpx:atemp></gpxtpx:TrackPointExtension></extensions></trkpt><trkpt lat="42.2277086601" lon="13.4170888457"><ele>1577.86</ele><time>2026-03-11T16:46:19Z</time><extensions><gpxtpx:TrackPointExtension><gpxtpx:atemp>2.1</gpxtpx:atemp></gpxtpx:TrackPointExtension></extensions></trkpt><trkpt lat="42.2277124319" lon="13.4170950484"><ele>1577.85</ele><time>2026-03-11T16:46:20Z</time><extensions><gpxtpx:TrackPointExtension><gpxtpx:atemp>2.1</gpxtpx:atemp></gpxtpx:TrackPointExtension></extensions></trkpt><trkpt lat="42.2277166229" lon="13.4171008319"><ele>1577.85</ele><time>2026-03-11T16:46:21Z</time><extensions><gpxtpx:TrackPointExtension><gpxtpx:atemp>2.1</gpxtpx:atemp></gpxtpx:TrackPointExtension></extensions></trkpt><trkpt lat="42.2277214844" lon="13.4171077888"><ele>1577.82</ele><time>2026-03-11T16:46:22Z</time><extensions><gpxtpx:TrackPointExtension><gpxtpx:atemp>2.1</gpxtpx:atemp></gpxtpx:TrackPointExtension></extensions></trkpt><trkpt lat="42.2277229931" lon="13.4171138238"><ele>1577.68</ele><time>2026-03-11T16:46:23Z</time><extensions><gpxtpx:TrackPointExtension><gpxtpx:atemp>2.1</gpxtpx:atemp></gpxtpx:TrackPointExtension></extensions></trkpt><trkpt lat="42.2277244180" lon="13.4171179309"><ele>1577.52</ele><time>2026-03-11T16:46:24Z</time><extensions><gpxtpx:TrackPointExtension><gpxtpx:atemp>2.1</gpxtpx:atemp></gpxtpx:TrackPointExtension></extensions></trkpt><trkpt lat="42.2277267650" lon="13.4171207808"><ele>1577.36</ele><time>2026-03-11T16:46:25Z</time><extensions><gpxtpx:TrackPointExtension><gpxtpx:atemp>2.1</gpxtpx:atemp></gpxtpx:TrackPointExtension></extensions></trkpt><trkpt lat="42.2277285252" lon="13.4171232954"><ele>1577.19</ele><time>2026-03-11T16:46:26Z</time><extensions><gpxtpx:TrackPointExtension><gpxtpx:atemp>2.1</gpxtpx:atemp></gpxtpx:TrackPointExtension></extensions></trkpt><trkpt lat="42.2277304530" lon="13.4171287436"><ele>1577.07</ele><time>2026-03-11T16:46:27Z</time><extensions><gpxtpx:TrackPointExtension><gpxtpx:atemp>2.1</gpxtpx:atemp></gpxtpx:TrackPointExtension></extensions></trkpt><trkpt lat="42.2277338896" lon="13.4171350300"><ele>1576.97</ele><time>2026-03-11T16:46:28Z</time><extensions><gpxtpx:TrackPointExtension><gpxtpx:atemp>2.1</gpxtpx:atemp></gpxtpx:TrackPointExtension></extensions></trkpt><trkpt lat="42.2277358174" lon="13.4171432443"><ele>1576.74</ele><time>2026-03-11T16:46:29Z</time><extensions><gpxtpx:TrackPointExtension><gpxtpx:atemp>2.1</gpxtpx:atemp></gpxtpx:TrackPointExtension></extensions></trkpt><trkpt lat="42.2277397569" lon="13.4171486925"><ele>1576.69</ele><time>2026-03-11T16:46:30Z</time><extensions><gpxtpx:TrackPointExtension><gpxtpx:atemp>2.1</gpxtpx:atemp></gpxtpx:TrackPointExtension></extensions></trkpt><trkpt lat="42.2277439479" lon="13.4171552304"><ele>1576.62</ele><time>2026-03-11T16:46:31Z</time><extensions><gpxtpx:TrackPointExtension><gpxtpx:atemp>2.1</gpxtpx:atemp></gpxtpx:TrackPointExtension></extensions></trkpt><trkpt lat="42.2277465463" lon="13.4171639476"><ele>1576.53</ele><time>2026-03-11T16:46:32Z</time><extensions><gpxtpx:TrackPointExtension><gpxtpx:atemp>2.0</gpxtpx:atemp></gpxtpx:TrackPointExtension></extensions></trkpt><trkpt lat="42.2277488932" lon="13.4171712399"><ele>1576.41</ele><time>2026-03-11T16:46:33Z</time><extensions><gpxtpx:TrackPointExtension><gpxtpx:atemp>2.0</gpxtpx:atemp></gpxtpx:TrackPointExtension></extensions></trkpt><trkpt lat="42.2277501505" lon="13.4171784483"><ele>1576.28</ele><time>2026-03-11T16:46:34Z</time><extensions><gpxtpx:TrackPointExtension><gpxtpx:atemp>2.0</gpxtpx:atemp></gpxtpx:TrackPointExtension></extensions></trkpt><trkpt lat="42.2277503181" lon="13.4171850700"><ele>1576.13</ele><time>2026-03-11T16:46:35Z</time><extensions><gpxtpx:TrackPointExtension><gpxtpx:atemp>2.0</gpxtpx:atemp></gpxtpx:TrackPointExtension></extensions></trkpt><trkpt lat="42.2277527489" lon="13.4171867464"><ele>1575.97</ele><time>2026-03-11T16:46:36Z</time><extensions><gpxtpx:TrackPointExtension><gpxtpx:atemp>2.0</gpxtpx:atemp></gpxtpx:TrackPointExtension></extensions></trkpt><trkpt lat="42.2277527489" lon="13.4171936195"><ele>1575.84</ele><time>2026-03-11T16:46:37Z</time><extensions><gpxtpx:TrackPointExtension><gpxtpx:atemp>2.0</gpxtpx:atemp></gpxtpx:TrackPointExtension></extensions></trkpt><trkpt lat="42.2277529165" lon="13.4172032587"><ele>1575.72</ele><time>2026-03-11T16:46:38Z</time><extensions><gpxtpx:TrackPointExtension><gpxtpx:atemp>2.0</gpxtpx:atemp></gpxtpx:TrackPointExtension></extensions></trkpt><trkpt lat="42.2277554311" lon="13.4172114730"><ele>1575.59</ele><time>2026-03-11T16:46:39Z</time><extensions><gpxtpx:TrackPointExtension><gpxtpx:atemp>2.0</gpxtpx:atemp></gpxtpx:TrackPointExtension></extensions></trkpt><trkpt lat="42.2277568560" lon="13.4172146581"><ele>1575.49</ele><time>2026-03-11T16:46:40Z</time><extensions><gpxtpx:TrackPointExtension><gpxtpx:atemp>2.0</gpxtpx:atemp></gpxtpx:TrackPointExtension></extensions></trkpt><trkpt lat="42.2277576942" lon="13.4172209445"><ele>1575.31</ele><time>2026-03-11T16:46:41Z</time><extensions><gpxtpx:TrackPointExtension><gpxtpx:atemp>2.0</gpxtpx:atemp></gpxtpx:TrackPointExtension></extensions></trkpt><trkpt lat="42.2277604602" lon="13.4172287397"><ele>1575.20</ele><time>2026-03-11T16:46:42Z</time><extensions><gpxtpx:TrackPointExtension><gpxtpx:atemp>2.0</gpxtpx:atemp></gpxtpx:TrackPointExtension></extensions></trkpt><trkpt lat="42.2277627233" lon="13.4172359481"><ele>1575.11</ele><time>2026-03-11T16:46:43Z</time><extensions><gpxtpx:TrackPointExtension><gpxtpx:atemp>2.0</gpxtpx:atemp></gpxtpx:TrackPointExtension></extensions></trkpt><trkpt lat="42.2277654894" lon="13.4172416478"><ele>1575.03</ele><time>2026-03-11T16:46:44Z</time><extensions><gpxtpx:TrackPointExtension><gpxtpx:atemp>2.0</gpxtpx:atemp></gpxtpx:TrackPointExtension></extensions></trkpt><trkpt lat="42.2277655732" lon="13.4172490239"><ele>1574.90</ele><time>2026-03-11T16:46:45Z</time><extensions><gpxtpx:TrackPointExtension><gpxtpx:atemp>2.0</gpxtpx:atemp></gpxtpx:TrackPointExtension></extensions></trkpt><trkpt lat="42.2277669981" lon="13.4172585793"><ele>1574.75</ele><time>2026-03-11T16:46:46Z</time><extensions><gpxtpx:TrackPointExtension><gpxtpx:atemp>2.0</gpxtpx:atemp></gpxtpx:TrackPointExtension></extensions></trkpt><trkpt lat="42.2277671658" lon="13.4172674641"><ele>1574.61</ele><time>2026-03-11T16:46:47Z</time><extensions><gpxtpx:TrackPointExtension><gpxtpx:atemp>2.0</gpxtpx:atemp></gpxtpx:TrackPointExtension></extensions></trkpt><trkpt lat="42.2277678363" lon="13.4172717389"><ele>1574.48</ele><time>2026-03-11T16:46:48Z</time><extensions><gpxtpx:TrackPointExtension><gpxtpx:atemp>2.0</gpxtpx:atemp></gpxtpx:TrackPointExtension></extensions></trkpt><trkpt lat="42.2277692612" lon="13.4172710683"><ele>1574.39</ele><time>2026-03-11T16:46:49Z</time><extensions><gpxtpx:TrackPointExtension><gpxtpx:atemp>2.0</gpxtpx:atemp></gpxtpx:TrackPointExtension></extensions></trkpt><trkpt lat="42.2277699318" lon="13.4172699787"><ele>1574.32</ele><time>2026-03-11T16:46:50Z</time><extensions><gpxtpx:TrackPointExtension><gpxtpx:atemp>2.0</gpxtpx:atemp></gpxtpx:TrackPointExtension></extensions></trkpt><trkpt lat="42.2277698480" lon="13.4172713198"><ele>1574.24</ele><time>2026-03-11T16:46:51Z</time><extensions><gpxtpx:TrackPointExtension><gpxtpx:atemp>2.0</gpxtpx:atemp></gpxtpx:TrackPointExtension></extensions></trkpt><trkpt lat="42.2277712729" lon="13.4172760975"><ele>1574.19</ele><time>2026-03-11T16:46:52Z</time><extensions><gpxtpx:TrackPointExtension><gpxtpx:atemp>2.0</gpxtpx:atemp></gpxtpx:TrackPointExtension></extensions></trkpt><trkpt lat="42.2277735360" lon="13.4172811266"><ele>1574.07</ele><time>2026-03-11T16:46:53Z</time><extensions><gpxtpx:TrackPointExtension><gpxtpx:atemp>2.0</gpxtpx:atemp></gpxtpx:TrackPointExtension></extensions></trkpt><trkpt lat="42.2277746256" lon="13.4172863234"><ele>1574.03</ele><time>2026-03-11T16:46:54Z</time><extensions><gpxtpx:TrackPointExtension><gpxtpx:atemp>2.0</gpxtpx:atemp></gpxtpx:TrackPointExtension></extensions></trkpt><trkpt lat="42.2277773917" lon="13.4172927774"><ele>1573.97</ele><time>2026-03-11T16:46:55Z</time><extensions><gpxtpx:TrackPointExtension><gpxtpx:atemp>2.0</gpxtpx:atemp></gpxtpx:TrackPointExtension></extensions></trkpt><trkpt lat="42.2277800739" lon="13.4172960464"><ele>1573.91</ele><time>2026-03-11T16:46:56Z</time><extensions><gpxtpx:TrackPointExtension><gpxtpx:atemp>2.0</gpxtpx:atemp></gpxtpx:TrackPointExtension></extensions></trkpt><trkpt lat="42.2277807444" lon="13.4172997344"><ele>1573.84</ele><time>2026-03-11T16:46:57Z</time><extensions><gpxtpx:TrackPointExtension><gpxtpx:atemp>2.0</gpxtpx:atemp></gpxtpx:TrackPointExtension></extensions></trkpt><trkpt lat="42.2277817503" lon="13.4173032548"><ele>1573.79</ele><time>2026-03-11T16:46:58Z</time><extensions><gpxtpx:TrackPointExtension><gpxtpx:atemp>2.0</gpxtpx:atemp></gpxtpx:TrackPointExtension></extensions></trkpt><trkpt lat="42.2277838457" lon="13.4173060209"><ele>1573.71</ele><time>2026-03-11T16:46:59Z</time><extensions><gpxtpx:TrackPointExtension><gpxtpx:atemp>2.0</gpxtpx:atemp></gpxtpx:TrackPointExtension></extensions></trkpt><trkpt lat="42.2277837619" lon="13.4173094574"><ele>1573.62</ele><time>2026-03-11T16:47:00Z</time><extensions><gpxtpx:TrackPointExtension><gpxtpx:atemp>2.0</gpxtpx:atemp></gpxtpx:TrackPointExtension></extensions></trkpt><trkpt lat="42.2277845163" lon="13.4173110500"><ele>1573.53</ele><time>2026-03-11T16:47:01Z</time><extensions><gpxtpx:TrackPointExtension><gpxtpx:atemp>2.0</gpxtpx:atemp></gpxtpx:TrackPointExtension></extensions></trkpt><trkpt lat="42.2277852707" lon="13.4173138998"><ele>1573.44</ele><time>2026-03-11T16:47:02Z</time><extensions><gpxtpx:TrackPointExtension><gpxtpx:atemp>2.0</gpxtpx:atemp></gpxtpx:TrackPointExtension></extensions></trkpt><trkpt lat="42.2277862765" lon="13.4173161630"><ele>1573.34</ele><time>2026-03-11T16:47:03Z</time><extensions><gpxtpx:TrackPointExtension><gpxtpx:atemp>2.0</gpxtpx:atemp></gpxtpx:TrackPointExtension></extensions></trkpt><trkpt lat="42.2277876176" lon="13.4173192643"><ele>1573.15</ele><time>2026-03-11T16:47:04Z</time><extensions><gpxtpx:TrackPointExtension><gpxtpx:atemp>2.0</gpxtpx:atemp></gpxtpx:TrackPointExtension></extensions></trkpt><trkpt lat="42.2277902998" lon="13.4173214436"><ele>1573.08</ele><time>2026-03-11T16:47:05Z</time><extensions><gpxtpx:TrackPointExtension><gpxtpx:atemp>2.0</gpxtpx:atemp></gpxtpx:TrackPointExtension></extensions></trkpt><trkpt lat="42.2277916409" lon="13.4173242934"><ele>1573.03</ele><time>2026-03-11T16:47:06Z</time><extensions><gpxtpx:TrackPointExtension><gpxtpx:atemp>2.0</gpxtpx:atemp></gpxtpx:TrackPointExtension></extensions></trkpt><trkpt lat="42.2277936526" lon="13.4173257183"><ele>1572.97</ele><time>2026-03-11T16:47:07Z</time><extensions><gpxtpx:TrackPointExtension><gpxtpx:atemp>2.0</gpxtpx:atemp></gpxtpx:TrackPointExtension></extensions></trkpt><trkpt lat="42.2277947422" lon="13.4173288196"><ele>1572.90</ele><time>2026-03-11T16:47:08Z</time><extensions><gpxtpx:TrackPointExtension><gpxtpx:atemp>2.0</gpxtpx:atemp></gpxtpx:TrackPointExtension></extensions></trkpt><trkpt lat="42.2277967539" lon="13.4173350222"><ele>1572.82</ele><time>2026-03-11T16:47:09Z</time><extensions><gpxtpx:TrackPointExtension><gpxtpx:atemp>2.0</gpxtpx:atemp></gpxtpx:TrackPointExtension></extensions></trkpt><trkpt lat="42.2277972568" lon="13.4173437394"><ele>1572.74</ele><time>2026-03-11T16:47:10Z</time><extensions><gpxtpx:TrackPointExtension><gpxtpx:atemp>2.0</gpxtpx:atemp></gpxtpx:TrackPointExtension></extensions></trkpt><trkpt lat="42.2277977597" lon="13.4173475951"><ele>1572.64</ele><time>2026-03-11T16:47:11Z</time><extensions><gpxtpx:TrackPointExtension><gpxtpx:atemp>2.0</gpxtpx:atemp></gpxtpx:TrackPointExtension></extensions></trkpt><trkpt lat="42.2277989332" lon="13.4173539653"><ele>1572.55</ele><time>2026-03-11T16:47:12Z</time><extensions><gpxtpx:TrackPointExtension><gpxtpx:atemp>2.0</gpxtpx:atemp></gpxtpx:TrackPointExtension></extensions></trkpt><trkpt lat="42.2278007772" lon="13.4173590783"><ele>1572.49</ele><time>2026-03-11T16:47:13Z</time><extensions><gpxtpx:TrackPointExtension><gpxtpx:atemp>2.0</gpxtpx:atemp></gpxtpx:TrackPointExtension></extensions></trkpt><trkpt lat="42.2278013639" lon="13.4173659515"><ele>1572.42</ele><time>2026-03-11T16:47:14Z</time><extensions><gpxtpx:TrackPointExtension><gpxtpx:atemp>2.0</gpxtpx:atemp></gpxtpx:TrackPointExtension></extensions></trkpt><trkpt lat="42.2278004419" lon="13.4173733275"><ele>1572.33</ele><time>2026-03-11T16:47:15Z</time><extensions><gpxtpx:TrackPointExtension><gpxtpx:atemp>2.0</gpxtpx:atemp></gpxtpx:TrackPointExtension></extensions></trkpt><trkpt lat="42.2278017830" lon="13.4173777699"><ele>1572.16</ele><time>2026-03-11T16:47:16Z</time><extensions><gpxtpx:TrackPointExtension><gpxtpx:atemp>2.0</gpxtpx:atemp></gpxtpx:TrackPointExtension></extensions></trkpt><trkpt lat="42.2278025374" lon="13.4173834696"><ele>1572.10</ele><time>2026-03-11T16:47:17Z</time><extensions><gpxtpx:TrackPointExtension><gpxtpx:atemp>2.0</gpxtpx:atemp></gpxtpx:TrackPointExtension></extensions></trkpt><trkpt lat="42.2278051358" lon="13.4173896722"><ele>1572.00</ele><time>2026-03-11T16:47:18Z</time><extensions><gpxtpx:TrackPointExtension><gpxtpx:atemp>2.0</gpxtpx:atemp></gpxtpx:TrackPointExtension></extensions></trkpt><trkpt lat="42.2278067283" lon="13.4173931926"><ele>1571.93</ele><time>2026-03-11T16:47:19Z</time><extensions><gpxtpx:TrackPointExtension><gpxtpx:atemp>2.0</gpxtpx:atemp></gpxtpx:TrackPointExtension></extensions></trkpt><trkpt lat="42.2278104164" lon="13.4173990600"><ele>1571.85</ele><time>2026-03-11T16:47:20Z</time><extensions><gpxtpx:TrackPointExtension><gpxtpx:atemp>2.0</gpxtpx:atemp></gpxtpx:TrackPointExtension></extensions></trkpt><trkpt lat="42.2278129309" lon="13.4174051788"><ele>1571.75</ele><time>2026-03-11T16:47:21Z</time><extensions><gpxtpx:TrackPointExtension><gpxtpx:atemp>2.0</gpxtpx:atemp></gpxtpx:TrackPointExtension></extensions></trkpt><trkpt lat="42.2278155293" lon="13.4174106270"><ele>1571.65</ele><time>2026-03-11T16:47:22Z</time><extensions><gpxtpx:TrackPointExtension><gpxtpx:atemp>2.0</gpxtpx:atemp></gpxtpx:TrackPointExtension></extensions></trkpt><trkpt lat="42.2278184630" lon="13.4174160752"><ele>1571.54</ele><time>2026-03-11T16:47:23Z</time><extensions><gpxtpx:TrackPointExtension><gpxtpx:atemp>2.0</gpxtpx:atemp></gpxtpx:TrackPointExtension></extensions></trkpt><trkpt lat="42.2278205585" lon="13.4174216911"><ele>1571.43</ele><time>2026-03-11T16:47:24Z</time><extensions><gpxtpx:TrackPointExtension><gpxtpx:atemp>2.0</gpxtpx:atemp></gpxtpx:TrackPointExtension></extensions></trkpt><trkpt lat="42.2278238274" lon="13.4174284805"><ele>1571.33</ele><time>2026-03-11T16:47:25Z</time><extensions><gpxtpx:TrackPointExtension><gpxtpx:atemp>2.0</gpxtpx:atemp></gpxtpx:TrackPointExtension></extensions></trkpt><trkpt lat="42.2278274316" lon="13.4174343478"><ele>1571.24</ele><time>2026-03-11T16:47:26Z</time><extensions><gpxtpx:TrackPointExtension><gpxtpx:atemp>2.0</gpxtpx:atemp></gpxtpx:TrackPointExtension></extensions></trkpt><trkpt lat="42.2278307844" lon="13.4174400475"><ele>1570.98</ele><time>2026-03-11T16:47:27Z</time><extensions><gpxtpx:TrackPointExtension><gpxtpx:atemp>2.0</gpxtpx:atemp></gpxtpx:TrackPointExtension></extensions></trkpt><trkpt lat="42.2278355621" lon="13.4174434841"><ele>1570.85</ele><time>2026-03-11T16:47:28Z</time><extensions><gpxtpx:TrackPointExtension><gpxtpx:atemp>2.0</gpxtpx:atemp></gpxtpx:TrackPointExtension></extensions></trkpt><trkpt lat="42.2278393339" lon="13.4174489323"><ele>1570.75</ele><time>2026-03-11T16:47:29Z</time><extensions><gpxtpx:TrackPointExtension><gpxtpx:atemp>2.0</gpxtpx:atemp></gpxtpx:TrackPointExtension></extensions></trkpt><trkpt lat="42.2278443631" lon="13.4174519498"><ele>1570.67</ele><time>2026-03-11T16:47:30Z</time><extensions><gpxtpx:TrackPointExtension><gpxtpx:atemp>2.0</gpxtpx:atemp></gpxtpx:TrackPointExtension></extensions></trkpt><trkpt lat="42.2278463747" lon="13.4174581524"><ele>1570.57</ele><time>2026-03-11T16:47:31Z</time><extensions><gpxtpx:TrackPointExtension><gpxtpx:atemp>2.0</gpxtpx:atemp></gpxtpx:TrackPointExtension></extensions></trkpt><trkpt lat="42.2278481349" lon="13.4174654447"><ele>1570.42</ele><time>2026-03-11T16:47:32Z</time><extensions><gpxtpx:TrackPointExtension><gpxtpx:atemp>2.4</gpxtpx:atemp></gpxtpx:TrackPointExtension></extensions></trkpt><trkpt lat="42.2278519906" lon="13.4174716473"><ele>1570.24</ele><time>2026-03-11T16:47:33Z</time><extensions><gpxtpx:TrackPointExtension><gpxtpx:atemp>2.4</gpxtpx:atemp></gpxtpx:TrackPointExtension></extensions></trkpt><trkpt lat="42.2278577741" lon="13.4174786881"><ele>1570.08</ele><time>2026-03-11T16:47:34Z</time><extensions><gpxtpx:TrackPointExtension><gpxtpx:atemp>2.4</gpxtpx:atemp></gpxtpx:TrackPointExtension></extensions></trkpt><trkpt lat="42.2278645635" lon="13.4174825437"><ele>1569.96</ele><time>2026-03-11T16:47:35Z</time><extensions><gpxtpx:TrackPointExtension><gpxtpx:atemp>2.4</gpxtpx:atemp></gpxtpx:TrackPointExtension></extensions></trkpt><trkpt lat="42.2278706823" lon="13.4174870700"><ele>1569.88</ele><time>2026-03-11T16:47:36Z</time><extensions><gpxtpx:TrackPointExtension><gpxtpx:atemp>2.4</gpxtpx:atemp></gpxtpx:TrackPointExtension></extensions></trkpt><trkpt lat="42.2278742865" lon="13.4174964577"><ele>1569.84</ele><time>2026-03-11T16:47:37Z</time><extensions><gpxtpx:TrackPointExtension><gpxtpx:atemp>2.4</gpxtpx:atemp></gpxtpx:TrackPointExtension></extensions></trkpt><trkpt lat="42.2278789803" lon="13.4175043367"><ele>1569.80</ele><time>2026-03-11T16:47:38Z</time><extensions><gpxtpx:TrackPointExtension><gpxtpx:atemp>2.4</gpxtpx:atemp></gpxtpx:TrackPointExtension></extensions></trkpt><trkpt lat="42.2278844286" lon="13.4175135568"><ele>1569.61</ele><time>2026-03-11T16:47:39Z</time><extensions><gpxtpx:TrackPointExtension><gpxtpx:atemp>2.4</gpxtpx:atemp></gpxtpx:TrackPointExtension></extensions></trkpt><trkpt lat="42.2278900445" lon="13.4175190888"><ele>1569.45</ele><time>2026-03-11T16:47:40Z</time><extensions><gpxtpx:TrackPointExtension><gpxtpx:atemp>2.4</gpxtpx:atemp></gpxtpx:TrackPointExtension></extensions></trkpt><trkpt lat="42.2278943192" lon="13.4175263811"><ele>1569.34</ele><time>2026-03-11T16:47:41Z</time><extensions><gpxtpx:TrackPointExtension><gpxtpx:atemp>2.4</gpxtpx:atemp></gpxtpx:TrackPointExtension></extensions></trkpt><trkpt lat="42.2278991807" lon="13.4175313264"><ele>1569.26</ele><time>2026-03-11T16:47:42Z</time><extensions><gpxtpx:TrackPointExtension><gpxtpx:atemp>2.4</gpxtpx:atemp></gpxtpx:TrackPointExtension></extensions></trkpt><trkpt lat="42.2279046290" lon="13.4175339248"><ele>1569.17</ele><time>2026-03-11T16:47:43Z</time><extensions><gpxtpx:TrackPointExtension><gpxtpx:atemp>2.4</gpxtpx:atemp></gpxtpx:TrackPointExtension></extensions></trkpt><trkpt lat="42.2279109992" lon="13.4175398760"><ele>1569.01</ele><time>2026-03-11T16:47:44Z</time><extensions><gpxtpx:TrackPointExtension><gpxtpx:atemp>2.4</gpxtpx:atemp></gpxtpx:TrackPointExtension></extensions></trkpt><trkpt lat="42.2279171180" lon="13.4175446536"><ele>1568.83</ele><time>2026-03-11T16:47:45Z</time><extensions><gpxtpx:TrackPointExtension><gpxtpx:atemp>2.4</gpxtpx:atemp></gpxtpx:TrackPointExtension></extensions></trkpt><trkpt lat="42.2279228177" lon="13.4175497666"><ele>1568.68</ele><time>2026-03-11T16:47:46Z</time><extensions><gpxtpx:TrackPointExtension><gpxtpx:atemp>2.4</gpxtpx:atemp></gpxtpx:TrackPointExtension></extensions></trkpt><trkpt lat="42.2279272601" lon="13.4175560530"><ele>1568.54</ele><time>2026-03-11T16:47:47Z</time><extensions><gpxtpx:TrackPointExtension><gpxtpx:atemp>2.4</gpxtpx:atemp></gpxtpx:TrackPointExtension></extensions></trkpt><trkpt lat="42.2279309481" lon="13.4175614174"><ele>1568.39</ele><time>2026-03-11T16:47:48Z</time><extensions><gpxtpx:TrackPointExtension><gpxtpx:atemp>2.4</gpxtpx:atemp></gpxtpx:TrackPointExtension></extensions></trkpt><trkpt lat="42.2279351391" lon="13.4175674524"><ele>1568.21</ele><time>2026-03-11T16:47:49Z</time><extensions><gpxtpx:TrackPointExtension><gpxtpx:atemp>2.4</gpxtpx:atemp></gpxtpx:TrackPointExtension></extensions></trkpt><trkpt lat="42.2279388271" lon="13.4175743256"><ele>1567.94</ele><time>2026-03-11T16:47:50Z</time><extensions><gpxtpx:TrackPointExtension><gpxtpx:atemp>2.4</gpxtpx:atemp></gpxtpx:TrackPointExtension></extensions></trkpt><trkpt lat="42.2279465385" lon="13.4175807796"><ele>1567.86</ele><time>2026-03-11T16:47:51Z</time><extensions><gpxtpx:TrackPointExtension><gpxtpx:atemp>2.4</gpxtpx:atemp></gpxtpx:TrackPointExtension></extensions></trkpt><trkpt lat="42.2279514838" lon="13.4175873175"><ele>1567.77</ele><time>2026-03-11T16:47:52Z</time><extensions><gpxtpx:TrackPointExtension><gpxtpx:atemp>2.4</gpxtpx:atemp></gpxtpx:TrackPointExtension></extensions></trkpt><trkpt lat="42.2279569320" lon="13.4175976273"><ele>1567.66</ele><time>2026-03-11T16:47:53Z</time><extensions><gpxtpx:TrackPointExtension><gpxtpx:atemp>2.4</gpxtpx:atemp></gpxtpx:TrackPointExtension></extensions></trkpt><trkpt lat="42.2279668227" lon="13.4176087752"><ele>1567.52</ele><time>2026-03-11T16:47:54Z</time><extensions><gpxtpx:TrackPointExtension><gpxtpx:atemp>2.4</gpxtpx:atemp></gpxtpx:TrackPointExtension></extensions></trkpt><trkpt lat="42.2279731929" lon="13.4176185820"><ele>1567.40</ele><time>2026-03-11T16:47:55Z</time><extensions><gpxtpx:TrackPointExtension><gpxtpx:atemp>2.4</gpxtpx:atemp></gpxtpx:TrackPointExtension></extensions></trkpt><trkpt lat="42.2279788926" lon="13.4176275507"><ele>1567.31</ele><time>2026-03-11T16:47:56Z</time><extensions><gpxtpx:TrackPointExtension><gpxtpx:atemp>2.4</gpxtpx:atemp></gpxtpx:TrackPointExtension></extensions></trkpt><trkpt lat="42.2279867716" lon="13.4176325798"><ele>1567.21</ele><time>2026-03-11T16:47:57Z</time><extensions><gpxtpx:TrackPointExtension><gpxtpx:atemp>2.4</gpxtpx:atemp></gpxtpx:TrackPointExtension></extensions></trkpt><trkpt lat="42.2279927228" lon="13.4176334180"><ele>1567.05</ele><time>2026-03-11T16:47:58Z</time><extensions><gpxtpx:TrackPointExtension><gpxtpx:atemp>2.4</gpxtpx:atemp></gpxtpx:TrackPointExtension></extensions></trkpt><trkpt lat="42.2279983386" lon="13.4176359326"><ele>1566.91</ele><time>2026-03-11T16:47:59Z</time><extensions><gpxtpx:TrackPointExtension><gpxtpx:atemp>2.4</gpxtpx:atemp></gpxtpx:TrackPointExtension></extensions></trkpt><trkpt lat="42.2280060500" lon="13.4176408779"><ele>1566.80</ele><time>2026-03-11T16:48:00Z</time><extensions><gpxtpx:TrackPointExtension><gpxtpx:atemp>2.4</gpxtpx:atemp></gpxtpx:TrackPointExtension></extensions></trkpt><trkpt lat="42.2280094866" lon="13.4176507685"><ele>1566.70</ele><time>2026-03-11T16:48:01Z</time><extensions><gpxtpx:TrackPointExtension><gpxtpx:atemp>2.4</gpxtpx:atemp></gpxtpx:TrackPointExtension></extensions></trkpt><trkpt lat="42.2280134261" lon="13.4176590666"><ele>1566.50</ele><time>2026-03-11T16:48:02Z</time><extensions><gpxtpx:TrackPointExtension><gpxtpx:atemp>2.4</gpxtpx:atemp></gpxtpx:TrackPointExtension></extensions></trkpt><trkpt lat="42.2280189581" lon="13.4176678676"><ele>1566.33</ele><time>2026-03-11T16:48:03Z</time><extensions><gpxtpx:TrackPointExtension><gpxtpx:atemp>2.4</gpxtpx:atemp></gpxtpx:TrackPointExtension></extensions></trkpt><trkpt lat="42.2280257475" lon="13.4176744893"><ele>1566.15</ele><time>2026-03-11T16:48:04Z</time><extensions><gpxtpx:TrackPointExtension><gpxtpx:atemp>2.4</gpxtpx:atemp></gpxtpx:TrackPointExtension></extensions></trkpt><trkpt lat="42.2280324530" lon="13.4176794346"><ele>1566.03</ele><time>2026-03-11T16:48:05Z</time><extensions><gpxtpx:TrackPointExtension><gpxtpx:atemp>2.4</gpxtpx:atemp></gpxtpx:TrackPointExtension></extensions></trkpt><trkpt lat="42.2280375659" lon="13.4176881518"><ele>1565.96</ele><time>2026-03-11T16:48:06Z</time><extensions><gpxtpx:TrackPointExtension><gpxtpx:atemp>2.4</gpxtpx:atemp></gpxtpx:TrackPointExtension></extensions></trkpt><trkpt lat="42.2280427627" lon="13.4176982939"><ele>1565.91</ele><time>2026-03-11T16:48:07Z</time><extensions><gpxtpx:TrackPointExtension><gpxtpx:atemp>2.4</gpxtpx:atemp></gpxtpx:TrackPointExtension></extensions></trkpt><trkpt lat="42.2280492168" lon="13.4177045804"><ele>1565.85</ele><time>2026-03-11T16:48:08Z</time><extensions><gpxtpx:TrackPointExtension><gpxtpx:atemp>2.4</gpxtpx:atemp></gpxtpx:TrackPointExtension></extensions></trkpt><trkpt lat="42.2280545812" lon="13.4177135490"><ele>1565.75</ele><time>2026-03-11T16:48:09Z</time><extensions><gpxtpx:TrackPointExtension><gpxtpx:atemp>2.4</gpxtpx:atemp></gpxtpx:TrackPointExtension></extensions></trkpt><trkpt lat="42.2280604485" lon="13.4177218471"><ele>1565.63</ele><time>2026-03-11T16:48:10Z</time><extensions><gpxtpx:TrackPointExtension><gpxtpx:atemp>2.4</gpxtpx:atemp></gpxtpx:TrackPointExtension></extensions></trkpt><trkpt lat="42.2280663997" lon="13.4177239425"><ele>1565.53</ele><time>2026-03-11T16:48:11Z</time><extensions><gpxtpx:TrackPointExtension><gpxtpx:atemp>2.4</gpxtpx:atemp></gpxtpx:TrackPointExtension></extensions></trkpt><trkpt lat="42.2280737758" lon="13.4177308995"><ele>1565.42</ele><time>2026-03-11T16:48:12Z</time><extensions><gpxtpx:TrackPointExtension><gpxtpx:atemp>2.4</gpxtpx:atemp></gpxtpx:TrackPointExtension></extensions></trkpt><trkpt lat="42.2280789725" lon="13.4177383594"><ele>1565.18</ele><time>2026-03-11T16:48:13Z</time><extensions><gpxtpx:TrackPointExtension><gpxtpx:atemp>2.4</gpxtpx:atemp></gpxtpx:TrackPointExtension></extensions></trkpt><trkpt lat="42.2280839179" lon="13.4177466575"><ele>1565.07</ele><time>2026-03-11T16:48:14Z</time><extensions><gpxtpx:TrackPointExtension><gpxtpx:atemp>2.4</gpxtpx:atemp></gpxtpx:TrackPointExtension></extensions></trkpt><trkpt lat="42.2280894499" lon="13.4177550394"><ele>1564.96</ele><time>2026-03-11T16:48:15Z</time><extensions><gpxtpx:TrackPointExtension><gpxtpx:atemp>2.4</gpxtpx:atemp></gpxtpx:TrackPointExtension></extensions></trkpt><trkpt lat="42.2280949820" lon="13.4177598171"><ele>1564.82</ele><time>2026-03-11T16:48:16Z</time><extensions><gpxtpx:TrackPointExtension><gpxtpx:atemp>2.4</gpxtpx:atemp></gpxtpx:TrackPointExtension></extensions></trkpt><trkpt lat="42.2281008493" lon="13.4177656844"><ele>1564.64</ele><time>2026-03-11T16:48:17Z</time><extensions><gpxtpx:TrackPointExtension><gpxtpx:atemp>2.4</gpxtpx:atemp></gpxtpx:TrackPointExtension></extensions></trkpt><trkpt lat="42.2281064652" lon="13.4177722223"><ele>1564.47</ele><time>2026-03-11T16:48:18Z</time><extensions><gpxtpx:TrackPointExtension><gpxtpx:atemp>2.4</gpxtpx:atemp></gpxtpx:TrackPointExtension></extensions></trkpt><trkpt lat="42.2281117458" lon="13.4177790955"><ele>1564.36</ele><time>2026-03-11T16:48:19Z</time><extensions><gpxtpx:TrackPointExtension><gpxtpx:atemp>2.4</gpxtpx:atemp></gpxtpx:TrackPointExtension></extensions></trkpt><trkpt lat="42.2281177808" lon="13.4177839570"><ele>1564.26</ele><time>2026-03-11T16:48:20Z</time><extensions><gpxtpx:TrackPointExtension><gpxtpx:atemp>2.4</gpxtpx:atemp></gpxtpx:TrackPointExtension></extensions></trkpt><trkpt lat="42.2281236481" lon="13.4177905787"><ele>1564.14</ele><time>2026-03-11T16:48:21Z</time><extensions><gpxtpx:TrackPointExtension><gpxtpx:atemp>2.4</gpxtpx:atemp></gpxtpx:TrackPointExtension></extensions></trkpt><trkpt lat="42.2281291801" lon="13.4177939314"><ele>1564.00</ele><time>2026-03-11T16:48:22Z</time><extensions><gpxtpx:TrackPointExtension><gpxtpx:atemp>2.4</gpxtpx:atemp></gpxtpx:TrackPointExtension></extensions></trkpt><trkpt lat="42.2281362209" lon="13.4178012237"><ele>1563.86</ele><time>2026-03-11T16:48:23Z</time><extensions><gpxtpx:TrackPointExtension><gpxtpx:atemp>2.4</gpxtpx:atemp></gpxtpx:TrackPointExtension></extensions></trkpt><trkpt lat="42.2281420883" lon="13.4178115334"><ele>1563.67</ele><time>2026-03-11T16:48:24Z</time><extensions><gpxtpx:TrackPointExtension><gpxtpx:atemp>2.4</gpxtpx:atemp></gpxtpx:TrackPointExtension></extensions></trkpt><trkpt lat="42.2281487938" lon="13.4178231843"><ele>1563.58</ele><time>2026-03-11T16:48:25Z</time><extensions><gpxtpx:TrackPointExtension><gpxtpx:atemp>2.4</gpxtpx:atemp></gpxtpx:TrackPointExtension></extensions></trkpt><trkpt lat="42.2281543259" lon="13.4178326558"><ele>1563.48</ele><time>2026-03-11T16:48:26Z</time><extensions><gpxtpx:TrackPointExtension><gpxtpx:atemp>2.4</gpxtpx:atemp></gpxtpx:TrackPointExtension></extensions></trkpt><trkpt lat="42.2281600256" lon="13.4178357571"><ele>1563.40</ele><time>2026-03-11T16:48:27Z</time><extensions><gpxtpx:TrackPointExtension><gpxtpx:atemp>2.4</gpxtpx:atemp></gpxtpx:TrackPointExtension></extensions></trkpt><trkpt lat="42.2281669825" lon="13.4178418759"><ele>1563.32</ele><time>2026-03-11T16:48:28Z</time><extensions><gpxtpx:TrackPointExtension><gpxtpx:atemp>2.4</gpxtpx:atemp></gpxtpx:TrackPointExtension></extensions></trkpt><trkpt lat="42.2281733528" lon="13.4178484976"><ele>1563.22</ele><time>2026-03-11T16:48:29Z</time><extensions><gpxtpx:TrackPointExtension><gpxtpx:atemp>2.4</gpxtpx:atemp></gpxtpx:TrackPointExtension></extensions></trkpt><trkpt lat="42.2281797230" lon="13.4178565443"><ele>1563.15</ele><time>2026-03-11T16:48:30Z</time><extensions><gpxtpx:TrackPointExtension><gpxtpx:atemp>2.4</gpxtpx:atemp></gpxtpx:TrackPointExtension></extensions></trkpt><trkpt lat="42.2281881887" lon="13.4178584721"><ele>1563.05</ele><time>2026-03-11T16:48:31Z</time><extensions><gpxtpx:TrackPointExtension><gpxtpx:atemp>2.4</gpxtpx:atemp></gpxtpx:TrackPointExtension></extensions></trkpt><trkpt lat="42.2281939723" lon="13.4178670216"><ele>1562.95</ele><time>2026-03-11T16:48:32Z</time><extensions><gpxtpx:TrackPointExtension><gpxtpx:atemp>2.3</gpxtpx:atemp></gpxtpx:TrackPointExtension></extensions></trkpt><trkpt lat="42.2282018512" lon="13.4178763255"><ele>1562.82</ele><time>2026-03-11T16:48:33Z</time><extensions><gpxtpx:TrackPointExtension><gpxtpx:atemp>2.3</gpxtpx:atemp></gpxtpx:TrackPointExtension></extensions></trkpt><trkpt lat="42.2282078862" lon="13.4178843722"><ele>1562.71</ele><time>2026-03-11T16:48:34Z</time><extensions><gpxtpx:TrackPointExtension><gpxtpx:atemp>2.3</gpxtpx:atemp></gpxtpx:TrackPointExtension></extensions></trkpt><trkpt lat="42.2282170225" lon="13.4178854618"><ele>1562.60</ele><time>2026-03-11T16:48:35Z</time><extensions><gpxtpx:TrackPointExtension><gpxtpx:atemp>2.3</gpxtpx:atemp></gpxtpx:TrackPointExtension></extensions></trkpt><trkpt lat="42.2282233927" lon="13.4178938437"><ele>1562.34</ele><time>2026-03-11T16:48:36Z</time><extensions><gpxtpx:TrackPointExtension><gpxtpx:atemp>2.3</gpxtpx:atemp></gpxtpx:TrackPointExtension></extensions></trkpt><trkpt lat="42.2282296792" lon="13.4179035667"><ele>1562.24</ele><time>2026-03-11T16:48:37Z</time><extensions><gpxtpx:TrackPointExtension><gpxtpx:atemp>2.3</gpxtpx:atemp></gpxtpx:TrackPointExtension></extensions></trkpt><trkpt lat="42.2282369714" lon="13.4179111943"><ele>1562.18</ele><time>2026-03-11T16:48:38Z</time><extensions><gpxtpx:TrackPointExtension><gpxtpx:atemp>2.3</gpxtpx:atemp></gpxtpx:TrackPointExtension></extensions></trkpt><trkpt lat="42.2282447666" lon="13.4179180674"><ele>1562.08</ele><time>2026-03-11T16:48:39Z</time><extensions><gpxtpx:TrackPointExtension><gpxtpx:atemp>2.3</gpxtpx:atemp></gpxtpx:TrackPointExtension></extensions></trkpt><trkpt lat="42.2282516398" lon="13.4179249406"><ele>1561.96</ele><time>2026-03-11T16:48:40Z</time><extensions><gpxtpx:TrackPointExtension><gpxtpx:atemp>2.3</gpxtpx:atemp></gpxtpx:TrackPointExtension></extensions></trkpt><trkpt lat="42.2282561660" lon="13.4179281257"><ele>1561.81</ele><time>2026-03-11T16:48:41Z</time><extensions><gpxtpx:TrackPointExtension><gpxtpx:atemp>2.3</gpxtpx:atemp></gpxtpx:TrackPointExtension></extensions></trkpt><trkpt lat="42.2282651346" lon="13.4179310594"><ele>1561.71</ele><time>2026-03-11T16:48:42Z</time><extensions><gpxtpx:TrackPointExtension><gpxtpx:atemp>2.3</gpxtpx:atemp></gpxtpx:TrackPointExtension></extensions></trkpt><trkpt lat="42.2282732651" lon="13.4179359209"><ele>1561.64</ele><time>2026-03-11T16:48:43Z</time><extensions><gpxtpx:TrackPointExtension><gpxtpx:atemp>2.3</gpxtpx:atemp></gpxtpx:TrackPointExtension></extensions></trkpt><trkpt lat="42.2282800544" lon="13.4179430455"><ele>1561.59</ele><time>2026-03-11T16:48:44Z</time><extensions><gpxtpx:TrackPointExtension><gpxtpx:atemp>2.3</gpxtpx:atemp></gpxtpx:TrackPointExtension></extensions></trkpt><trkpt lat="42.2282862570" lon="13.4179503378"><ele>1561.54</ele><time>2026-03-11T16:48:45Z</time><extensions><gpxtpx:TrackPointExtension><gpxtpx:atemp>2.3</gpxtpx:atemp></gpxtpx:TrackPointExtension></extensions></trkpt><trkpt lat="42.2282931302" lon="13.4179568756"><ele>1561.49</ele><time>2026-03-11T16:48:46Z</time><extensions><gpxtpx:TrackPointExtension><gpxtpx:atemp>2.3</gpxtpx:atemp></gpxtpx:TrackPointExtension></extensions></trkpt><trkpt lat="42.2283009253" lon="13.4179612342"><ele>1561.42</ele><time>2026-03-11T16:48:47Z</time><extensions><gpxtpx:TrackPointExtension><gpxtpx:atemp>2.3</gpxtpx:atemp></gpxtpx:TrackPointExtension></extensions></trkpt><trkpt lat="42.2283066250" lon="13.4179691970"><ele>1561.30</ele><time>2026-03-11T16:48:48Z</time><extensions><gpxtpx:TrackPointExtension><gpxtpx:atemp>2.3</gpxtpx:atemp></gpxtpx:TrackPointExtension></extensions></trkpt><trkpt lat="42.2283122409" lon="13.4179771598"><ele>1561.25</ele><time>2026-03-11T16:48:49Z</time><extensions><gpxtpx:TrackPointExtension><gpxtpx:atemp>2.3</gpxtpx:atemp></gpxtpx:TrackPointExtension></extensions></trkpt><trkpt lat="42.2283181921" lon="13.4179834463"><ele>1561.21</ele><time>2026-03-11T16:48:50Z</time><extensions><gpxtpx:TrackPointExtension><gpxtpx:atemp>2.3</gpxtpx:atemp></gpxtpx:TrackPointExtension></extensions></trkpt><trkpt lat="42.2283260711" lon="13.4179891460"><ele>1561.18</ele><time>2026-03-11T16:48:51Z</time><extensions><gpxtpx:TrackPointExtension><gpxtpx:atemp>2.3</gpxtpx:atemp></gpxtpx:TrackPointExtension></extensions></trkpt><trkpt lat="42.2283341177" lon="13.4179901518"><ele>1561.14</ele><time>2026-03-11T16:48:52Z</time><extensions><gpxtpx:TrackPointExtension><gpxtpx:atemp>2.3</gpxtpx:atemp></gpxtpx:TrackPointExtension></extensions></trkpt><trkpt lat="42.2283401527" lon="13.4179971926"><ele>1561.07</ele><time>2026-03-11T16:48:53Z</time><extensions><gpxtpx:TrackPointExtension><gpxtpx:atemp>2.3</gpxtpx:atemp></gpxtpx:TrackPointExtension></extensions></trkpt><trkpt lat="42.2283474449" lon="13.4180042334"><ele>1560.95</ele><time>2026-03-11T16:48:54Z</time><extensions><gpxtpx:TrackPointExtension><gpxtpx:atemp>2.3</gpxtpx:atemp></gpxtpx:TrackPointExtension></extensions></trkpt><trkpt lat="42.2283550724" lon="13.4180107713"><ele>1560.85</ele><time>2026-03-11T16:48:55Z</time><extensions><gpxtpx:TrackPointExtension><gpxtpx:atemp>2.3</gpxtpx:atemp></gpxtpx:TrackPointExtension></extensions></trkpt><trkpt lat="42.2283602692" lon="13.4180195723"><ele>1560.78</ele><time>2026-03-11T16:48:56Z</time><extensions><gpxtpx:TrackPointExtension><gpxtpx:atemp>2.3</gpxtpx:atemp></gpxtpx:TrackPointExtension></extensions></trkpt><trkpt lat="42.2283670586" lon="13.4180281218"><ele>1560.72</ele><time>2026-03-11T16:48:57Z</time><extensions><gpxtpx:TrackPointExtension><gpxtpx:atemp>2.3</gpxtpx:atemp></gpxtpx:TrackPointExtension></extensions></trkpt><trkpt lat="42.2283726744" lon="13.4180359170"><ele>1560.66</ele><time>2026-03-11T16:48:58Z</time><extensions><gpxtpx:TrackPointExtension><gpxtpx:atemp>2.3</gpxtpx:atemp></gpxtpx:TrackPointExtension></extensions></trkpt><trkpt lat="42.2283808887" lon="13.4180400241"><ele>1560.51</ele><time>2026-03-11T16:48:59Z</time><extensions><gpxtpx:TrackPointExtension><gpxtpx:atemp>2.3</gpxtpx:atemp></gpxtpx:TrackPointExtension></extensions></trkpt><trkpt lat="42.2283867560" lon="13.4180454724"><ele>1560.45</ele><time>2026-03-11T16:49:00Z</time><extensions><gpxtpx:TrackPointExtension><gpxtpx:atemp>2.3</gpxtpx:atemp></gpxtpx:TrackPointExtension></extensions></trkpt><trkpt lat="42.2283928748" lon="13.4180570394"><ele>1560.41</ele><time>2026-03-11T16:49:01Z</time><extensions><gpxtpx:TrackPointExtension><gpxtpx:atemp>2.3</gpxtpx:atemp></gpxtpx:TrackPointExtension></extensions></trkpt><trkpt lat="42.2283978201" lon="13.4180654213"><ele>1560.38</ele><time>2026-03-11T16:49:02Z</time><extensions><gpxtpx:TrackPointExtension><gpxtpx:atemp>2.3</gpxtpx:atemp></gpxtpx:TrackPointExtension></extensions></trkpt><trkpt lat="42.2284045257" lon="13.4180723783"><ele>1560.34</ele><time>2026-03-11T16:49:03Z</time><extensions><gpxtpx:TrackPointExtension><gpxtpx:atemp>2.3</gpxtpx:atemp></gpxtpx:TrackPointExtension></extensions></trkpt><trkpt lat="42.2284102254" lon="13.4180836938"><ele>1560.29</ele><time>2026-03-11T16:49:04Z</time><extensions><gpxtpx:TrackPointExtension><gpxtpx:atemp>2.3</gpxtpx:atemp></gpxtpx:TrackPointExtension></extensions></trkpt><trkpt lat="42.2284165956" lon="13.4180905670"><ele>1560.26</ele><time>2026-03-11T16:49:05Z</time><extensions><gpxtpx:TrackPointExtension><gpxtpx:atemp>2.3</gpxtpx:atemp></gpxtpx:TrackPointExtension></extensions></trkpt><trkpt lat="42.2284238879" lon="13.4180950932"><ele>1560.25</ele><time>2026-03-11T16:49:06Z</time><extensions><gpxtpx:TrackPointExtension><gpxtpx:atemp>2.3</gpxtpx:atemp></gpxtpx:TrackPointExtension></extensions></trkpt><trkpt lat="42.2284314316" lon="13.4181001224"><ele>1560.24</ele><time>2026-03-11T16:49:07Z</time><extensions><gpxtpx:TrackPointExtension><gpxtpx:atemp>2.3</gpxtpx:atemp></gpxtpx:TrackPointExtension></extensions></trkpt><trkpt lat="42.2284389753" lon="13.4181053191"><ele>1560.23</ele><time>2026-03-11T16:49:08Z</time><extensions><gpxtpx:TrackPointExtension><gpxtpx:atemp>2.3</gpxtpx:atemp></gpxtpx:TrackPointExtension></extensions></trkpt><trkpt lat="42.2284473572" lon="13.4181103483"><ele>1560.23</ele><time>2026-03-11T16:49:09Z</time><extensions><gpxtpx:TrackPointExtension><gpxtpx:atemp>2.3</gpxtpx:atemp></gpxtpx:TrackPointExtension></extensions></trkpt><trkpt lat="42.2284545656" lon="13.4181169700"><ele>1560.21</ele><time>2026-03-11T16:49:10Z</time><extensions><gpxtpx:TrackPointExtension><gpxtpx:atemp>2.3</gpxtpx:atemp></gpxtpx:TrackPointExtension></extensions></trkpt><trkpt lat="42.2284621932" lon="13.4181207418"><ele>1560.18</ele><time>2026-03-11T16:49:11Z</time><extensions><gpxtpx:TrackPointExtension><gpxtpx:atemp>2.3</gpxtpx:atemp></gpxtpx:TrackPointExtension></extensions></trkpt><trkpt lat="42.2284696531" lon="13.4181285370"><ele>1560.14</ele><time>2026-03-11T16:49:12Z</time><extensions><gpxtpx:TrackPointExtension><gpxtpx:atemp>2.3</gpxtpx:atemp></gpxtpx:TrackPointExtension></extensions></trkpt><trkpt lat="42.2284764424" lon="13.4181318898"><ele>1560.09</ele><time>2026-03-11T16:49:13Z</time><extensions><gpxtpx:TrackPointExtension><gpxtpx:atemp>2.3</gpxtpx:atemp></gpxtpx:TrackPointExtension></extensions></trkpt><trkpt lat="42.2284831479" lon="13.4181393497"><ele>1560.05</ele><time>2026-03-11T16:49:14Z</time><extensions><gpxtpx:TrackPointExtension><gpxtpx:atemp>2.3</gpxtpx:atemp></gpxtpx:TrackPointExtension></extensions></trkpt><trkpt lat="42.2284904402" lon="13.4181452170"><ele>1559.98</ele><time>2026-03-11T16:49:15Z</time><extensions><gpxtpx:TrackPointExtension><gpxtpx:atemp>2.3</gpxtpx:atemp></gpxtpx:TrackPointExtension></extensions></trkpt><trkpt lat="42.2284958884" lon="13.4181549400"><ele>1559.89</ele><time>2026-03-11T16:49:16Z</time><extensions><gpxtpx:TrackPointExtension><gpxtpx:atemp>2.3</gpxtpx:atemp></gpxtpx:TrackPointExtension></extensions></trkpt><trkpt lat="42.2285025939" lon="13.4181625675"><ele>1559.79</ele><time>2026-03-11T16:49:17Z</time><extensions><gpxtpx:TrackPointExtension><gpxtpx:atemp>2.3</gpxtpx:atemp></gpxtpx:TrackPointExtension></extensions></trkpt><trkpt lat="42.2285111435" lon="13.4181694407"><ele>1559.70</ele><time>2026-03-11T16:49:18Z</time><extensions><gpxtpx:TrackPointExtension><gpxtpx:atemp>2.3</gpxtpx:atemp></gpxtpx:TrackPointExtension></extensions></trkpt><trkpt lat="42.2285162564" lon="13.4181760624"><ele>1559.61</ele><time>2026-03-11T16:49:19Z</time><extensions><gpxtpx:TrackPointExtension><gpxtpx:atemp>2.3</gpxtpx:atemp></gpxtpx:TrackPointExtension></extensions></trkpt><trkpt lat="42.2285229620" lon="13.4181821812"><ele>1559.54</ele><time>2026-03-11T16:49:20Z</time><extensions><gpxtpx:TrackPointExtension><gpxtpx:atemp>2.3</gpxtpx:atemp></gpxtpx:TrackPointExtension></extensions></trkpt><trkpt lat="42.2285283264" lon="13.4181873780"><ele>1559.48</ele><time>2026-03-11T16:49:21Z</time><extensions><gpxtpx:TrackPointExtension><gpxtpx:atemp>2.3</gpxtpx:atemp></gpxtpx:TrackPointExtension></extensions></trkpt><trkpt lat="42.2285347804" lon="13.4181941673"><ele>1559.35</ele><time>2026-03-11T16:49:22Z</time><extensions><gpxtpx:TrackPointExtension><gpxtpx:atemp>2.3</gpxtpx:atemp></gpxtpx:TrackPointExtension></extensions></trkpt><trkpt lat="42.2285423242" lon="13.4182000346"><ele>1559.27</ele><time>2026-03-11T16:49:23Z</time><extensions><gpxtpx:TrackPointExtension><gpxtpx:atemp>2.3</gpxtpx:atemp></gpxtpx:TrackPointExtension></extensions></trkpt><trkpt lat="42.2285479400" lon="13.4182062373"><ele>1559.14</ele><time>2026-03-11T16:49:24Z</time><extensions><gpxtpx:TrackPointExtension><gpxtpx:atemp>2.3</gpxtpx:atemp></gpxtpx:TrackPointExtension></extensions></trkpt><trkpt lat="42.2285544779" lon="13.4182132781"><ele>1559.00</ele><time>2026-03-11T16:49:25Z</time><extensions><gpxtpx:TrackPointExtension><gpxtpx:atemp>2.3</gpxtpx:atemp></gpxtpx:TrackPointExtension></extensions></trkpt><trkpt lat="42.2285623569" lon="13.4182193968"><ele>1558.87</ele><time>2026-03-11T16:49:26Z</time><extensions><gpxtpx:TrackPointExtension><gpxtpx:atemp>2.3</gpxtpx:atemp></gpxtpx:TrackPointExtension></extensions></trkpt><trkpt lat="42.2285695653" lon="13.4182239231"><ele>1558.74</ele><time>2026-03-11T16:49:27Z</time><extensions><gpxtpx:TrackPointExtension><gpxtpx:atemp>2.3</gpxtpx:atemp></gpxtpx:TrackPointExtension></extensions></trkpt><trkpt lat="42.2285765223" lon="13.4182302933"><ele>1558.63</ele><time>2026-03-11T16:49:28Z</time><extensions><gpxtpx:TrackPointExtension><gpxtpx:atemp>2.3</gpxtpx:atemp></gpxtpx:TrackPointExtension></extensions></trkpt><trkpt lat="42.2285841499" lon="13.4182353225"><ele>1558.54</ele><time>2026-03-11T16:49:29Z</time><extensions><gpxtpx:TrackPointExtension><gpxtpx:atemp>2.3</gpxtpx:atemp></gpxtpx:TrackPointExtension></extensions></trkpt><trkpt lat="42.2285933699" lon="13.4182359930"><ele>1558.47</ele><time>2026-03-11T16:49:30Z</time><extensions><gpxtpx:TrackPointExtension><gpxtpx:atemp>2.3</gpxtpx:atemp></gpxtpx:TrackPointExtension></extensions></trkpt><trkpt lat="42.2285990696" lon="13.4182454646"><ele>1558.43</ele><time>2026-03-11T16:49:31Z</time><extensions><gpxtpx:TrackPointExtension><gpxtpx:atemp>2.3</gpxtpx:atemp></gpxtpx:TrackPointExtension></extensions></trkpt><trkpt lat="42.2286073677" lon="13.4182523377"><ele>1558.38</ele><time>2026-03-11T16:49:32Z</time><extensions><gpxtpx:TrackPointExtension><gpxtpx:atemp>2.2</gpxtpx:atemp></gpxtpx:TrackPointExtension></extensions></trkpt><trkpt lat="42.2286142409" lon="13.4182590432"><ele>1558.31</ele><time>2026-03-11T16:49:33Z</time><extensions><gpxtpx:TrackPointExtension><gpxtpx:atemp>2.2</gpxtpx:atemp></gpxtpx:TrackPointExtension></extensions></trkpt><trkpt lat="42.2286205273" lon="13.4182681795"><ele>1558.14</ele><time>2026-03-11T16:49:34Z</time><extensions><gpxtpx:TrackPointExtension><gpxtpx:atemp>2.2</gpxtpx:atemp></gpxtpx:TrackPointExtension></extensions></trkpt><trkpt lat="42.2286281548" lon="13.4182740469"><ele>1558.02</ele><time>2026-03-11T16:49:35Z</time><extensions><gpxtpx:TrackPointExtension><gpxtpx:atemp>2.2</gpxtpx:atemp></gpxtpx:TrackPointExtension></extensions></trkpt><trkpt lat="42.2286358662" lon="13.4182795789"><ele>1557.92</ele><time>2026-03-11T16:49:36Z</time><extensions><gpxtpx:TrackPointExtension><gpxtpx:atemp>2.2</gpxtpx:atemp></gpxtpx:TrackPointExtension></extensions></trkpt><trkpt lat="42.2286419850" lon="13.4182881285"><ele>1557.85</ele><time>2026-03-11T16:49:37Z</time><extensions><gpxtpx:TrackPointExtension><gpxtpx:atemp>2.2</gpxtpx:atemp></gpxtpx:TrackPointExtension></extensions></trkpt><trkpt lat="42.2286505345" lon="13.4182927385"><ele>1557.79</ele><time>2026-03-11T16:49:38Z</time><extensions><gpxtpx:TrackPointExtension><gpxtpx:atemp>2.2</gpxtpx:atemp></gpxtpx:TrackPointExtension></extensions></trkpt><trkpt lat="42.2286581621" lon="13.4182989411"><ele>1557.74</ele><time>2026-03-11T16:49:39Z</time><extensions><gpxtpx:TrackPointExtension><gpxtpx:atemp>2.2</gpxtpx:atemp></gpxtpx:TrackPointExtension></extensions></trkpt><trkpt lat="42.2286649514" lon="13.4183056466"><ele>1557.69</ele><time>2026-03-11T16:49:40Z</time><extensions><gpxtpx:TrackPointExtension><gpxtpx:atemp>2.2</gpxtpx:atemp></gpxtpx:TrackPointExtension></extensions></trkpt><trkpt lat="42.2286755964" lon="13.4183124360"><ele>1557.66</ele><time>2026-03-11T16:49:41Z</time><extensions><gpxtpx:TrackPointExtension><gpxtpx:atemp>2.2</gpxtpx:atemp></gpxtpx:TrackPointExtension></extensions></trkpt><trkpt lat="42.2286836430" lon="13.4183174651"><ele>1557.63</ele><time>2026-03-11T16:49:42Z</time><extensions><gpxtpx:TrackPointExtension><gpxtpx:atemp>2.2</gpxtpx:atemp></gpxtpx:TrackPointExtension></extensions></trkpt><trkpt lat="42.2286906838" lon="13.4183243383"><ele>1557.60</ele><time>2026-03-11T16:49:43Z</time><extensions><gpxtpx:TrackPointExtension><gpxtpx:atemp>2.2</gpxtpx:atemp></gpxtpx:TrackPointExtension></extensions></trkpt><trkpt lat="42.2286982276" lon="13.4183318820"><ele>1557.53</ele><time>2026-03-11T16:49:44Z</time><extensions><gpxtpx:TrackPointExtension><gpxtpx:atemp>2.2</gpxtpx:atemp></gpxtpx:TrackPointExtension></extensions></trkpt><trkpt lat="42.2287046816" lon="13.4183368273"><ele>1557.42</ele><time>2026-03-11T16:49:45Z</time><extensions><gpxtpx:TrackPointExtension><gpxtpx:atemp>2.2</gpxtpx:atemp></gpxtpx:TrackPointExtension></extensions></trkpt><trkpt lat="42.2287118901" lon="13.4183439519"><ele>1557.35</ele><time>2026-03-11T16:49:46Z</time><extensions><gpxtpx:TrackPointExtension><gpxtpx:atemp>2.2</gpxtpx:atemp></gpxtpx:TrackPointExtension></extensions></trkpt><trkpt lat="42.2287182603" lon="13.4183485620"><ele>1557.30</ele><time>2026-03-11T16:49:47Z</time><extensions><gpxtpx:TrackPointExtension><gpxtpx:atemp>2.2</gpxtpx:atemp></gpxtpx:TrackPointExtension></extensions></trkpt><trkpt lat="42.2287249658" lon="13.4183522500"><ele>1557.29</ele><time>2026-03-11T16:49:48Z</time><extensions><gpxtpx:TrackPointExtension><gpxtpx:atemp>2.2</gpxtpx:atemp></gpxtpx:TrackPointExtension></extensions></trkpt><trkpt lat="42.2287325934" lon="13.4183583688"><ele>1557.27</ele><time>2026-03-11T16:49:49Z</time><extensions><gpxtpx:TrackPointExtension><gpxtpx:atemp>2.2</gpxtpx:atemp></gpxtpx:TrackPointExtension></extensions></trkpt><trkpt lat="42.2287381254" lon="13.4183645714"><ele>1557.25</ele><time>2026-03-11T16:49:50Z</time><extensions><gpxtpx:TrackPointExtension><gpxtpx:atemp>2.2</gpxtpx:atemp></gpxtpx:TrackPointExtension></extensions></trkpt><trkpt lat="42.2287471779" lon="13.4183659963"><ele>1557.24</ele><time>2026-03-11T16:49:51Z</time><extensions><gpxtpx:TrackPointExtension><gpxtpx:atemp>2.2</gpxtpx:atemp></gpxtpx:TrackPointExtension></extensions></trkpt><trkpt lat="42.2287559789" lon="13.4183691815"><ele>1557.25</ele><time>2026-03-11T16:49:52Z</time><extensions><gpxtpx:TrackPointExtension><gpxtpx:atemp>2.2</gpxtpx:atemp></gpxtpx:TrackPointExtension></extensions></trkpt><trkpt lat="42.2287612595" lon="13.4183772281"><ele>1557.26</ele><time>2026-03-11T16:49:53Z</time><extensions><gpxtpx:TrackPointExtension><gpxtpx:atemp>2.2</gpxtpx:atemp></gpxtpx:TrackPointExtension></extensions></trkpt><trkpt lat="42.2287705634" lon="13.4183831792"><ele>1557.27</ele><time>2026-03-11T16:49:54Z</time><extensions><gpxtpx:TrackPointExtension><gpxtpx:atemp>2.2</gpxtpx:atemp></gpxtpx:TrackPointExtension></extensions></trkpt><trkpt lat="42.2287788615" lon="13.4183885437"><ele>1557.27</ele><time>2026-03-11T16:49:55Z</time><extensions><gpxtpx:TrackPointExtension><gpxtpx:atemp>2.2</gpxtpx:atemp></gpxtpx:TrackPointExtension></extensions></trkpt><trkpt lat="42.2287856508" lon="13.4183980990"><ele>1557.27</ele><time>2026-03-11T16:49:56Z</time><extensions><gpxtpx:TrackPointExtension><gpxtpx:atemp>2.2</gpxtpx:atemp></gpxtpx:TrackPointExtension></extensions></trkpt><trkpt lat="42.2287919372" lon="13.4184048884"><ele>1557.20</ele><time>2026-03-11T16:49:57Z</time><extensions><gpxtpx:TrackPointExtension><gpxtpx:atemp>2.2</gpxtpx:atemp></gpxtpx:TrackPointExtension></extensions></trkpt><trkpt lat="42.2287985589" lon="13.4184102528"><ele>1557.14</ele><time>2026-03-11T16:49:58Z</time><extensions><gpxtpx:TrackPointExtension><gpxtpx:atemp>2.2</gpxtpx:atemp></gpxtpx:TrackPointExtension></extensions></trkpt><trkpt lat="42.2288056836" lon="13.4184156172"><ele>1557.06</ele><time>2026-03-11T16:49:59Z</time><extensions><gpxtpx:TrackPointExtension><gpxtpx:atemp>2.2</gpxtpx:atemp></gpxtpx:TrackPointExtension></extensions></trkpt><trkpt lat="42.2288146522" lon="13.4184226580"><ele>1557.02</ele><time>2026-03-11T16:50:00Z</time><extensions><gpxtpx:TrackPointExtension><gpxtpx:atemp>2.2</gpxtpx:atemp></gpxtpx:TrackPointExtension></extensions></trkpt><trkpt lat="42.2288220283" lon="13.4184313752"><ele>1556.97</ele><time>2026-03-11T16:50:01Z</time><extensions><gpxtpx:TrackPointExtension><gpxtpx:atemp>2.2</gpxtpx:atemp></gpxtpx:TrackPointExtension></extensions></trkpt><trkpt lat="42.2288292367" lon="13.4184375778"><ele>1556.92</ele><time>2026-03-11T16:50:02Z</time><extensions><gpxtpx:TrackPointExtension><gpxtpx:atemp>2.2</gpxtpx:atemp></gpxtpx:TrackPointExtension></extensions></trkpt><trkpt lat="42.2288374510" lon="13.4184429422"><ele>1556.90</ele><time>2026-03-11T16:50:03Z</time><extensions><gpxtpx:TrackPointExtension><gpxtpx:atemp>2.2</gpxtpx:atemp></gpxtpx:TrackPointExtension></extensions></trkpt><trkpt lat="42.2288464196" lon="13.4184468817"><ele>1556.87</ele><time>2026-03-11T16:50:04Z</time><extensions><gpxtpx:TrackPointExtension><gpxtpx:atemp>2.2</gpxtpx:atemp></gpxtpx:TrackPointExtension></extensions></trkpt><trkpt lat="42.2288554721" lon="13.4184543416"><ele>1556.85</ele><time>2026-03-11T16:50:05Z</time><extensions><gpxtpx:TrackPointExtension><gpxtpx:atemp>2.2</gpxtpx:atemp></gpxtpx:TrackPointExtension></extensions></trkpt><trkpt lat="42.2288625967" lon="13.4184596222"><ele>1556.83</ele><time>2026-03-11T16:50:06Z</time><extensions><gpxtpx:TrackPointExtension><gpxtpx:atemp>2.2</gpxtpx:atemp></gpxtpx:TrackPointExtension></extensions></trkpt><trkpt lat="42.2288697213" lon="13.4184619691"><ele>1556.79</ele><time>2026-03-11T16:50:07Z</time><extensions><gpxtpx:TrackPointExtension><gpxtpx:atemp>2.2</gpxtpx:atemp></gpxtpx:TrackPointExtension></extensions></trkpt><trkpt lat="42.2288772650" lon="13.4184661601"><ele>1556.76</ele><time>2026-03-11T16:50:08Z</time><extensions><gpxtpx:TrackPointExtension><gpxtpx:atemp>2.2</gpxtpx:atemp></gpxtpx:TrackPointExtension></extensions></trkpt><trkpt lat="42.2288850602" lon="13.4184718598"><ele>1556.73</ele><time>2026-03-11T16:50:09Z</time><extensions><gpxtpx:TrackPointExtension><gpxtpx:atemp>2.2</gpxtpx:atemp></gpxtpx:TrackPointExtension></extensions></trkpt><trkpt lat="42.2288929392" lon="13.4184753802"><ele>1556.71</ele><time>2026-03-11T16:50:10Z</time><extensions><gpxtpx:TrackPointExtension><gpxtpx:atemp>2.2</gpxtpx:atemp></gpxtpx:TrackPointExtension></extensions></trkpt><trkpt lat="42.2289009858" lon="13.4184791520"><ele>1556.67</ele><time>2026-03-11T16:50:11Z</time><extensions><gpxtpx:TrackPointExtension><gpxtpx:atemp>2.2</gpxtpx:atemp></gpxtpx:TrackPointExtension></extensions></trkpt><trkpt lat="42.2289099544" lon="13.4184816666"><ele>1556.63</ele><time>2026-03-11T16:50:12Z</time><extensions><gpxtpx:TrackPointExtension><gpxtpx:atemp>2.2</gpxtpx:atemp></gpxtpx:TrackPointExtension></extensions></trkpt><trkpt lat="42.2289191745" lon="13.4184820857"><ele>1556.60</ele><time>2026-03-11T16:50:13Z</time><extensions><gpxtpx:TrackPointExtension><gpxtpx:atemp>2.2</gpxtpx:atemp></gpxtpx:TrackPointExtension></extensions></trkpt><trkpt lat="42.2289274726" lon="13.4184854385"><ele>1556.57</ele><time>2026-03-11T16:50:14Z</time><extensions><gpxtpx:TrackPointExtension><gpxtpx:atemp>2.2</gpxtpx:atemp></gpxtpx:TrackPointExtension></extensions></trkpt><trkpt lat="42.2289360221" lon="13.4184887912"><ele>1556.56</ele><time>2026-03-11T16:50:15Z</time><extensions><gpxtpx:TrackPointExtension><gpxtpx:atemp>2.2</gpxtpx:atemp></gpxtpx:TrackPointExtension></extensions></trkpt><trkpt lat="42.2289434820" lon="13.4184898809"><ele>1556.56</ele><time>2026-03-11T16:50:16Z</time><extensions><gpxtpx:TrackPointExtension><gpxtpx:atemp>2.2</gpxtpx:atemp></gpxtpx:TrackPointExtension></extensions></trkpt><trkpt lat="42.2289506905" lon="13.4184937365"><ele>1556.55</ele><time>2026-03-11T16:50:17Z</time><extensions><gpxtpx:TrackPointExtension><gpxtpx:atemp>2.2</gpxtpx:atemp></gpxtpx:TrackPointExtension></extensions></trkpt><trkpt lat="42.2289578989" lon="13.4184964187"><ele>1556.53</ele><time>2026-03-11T16:50:18Z</time><extensions><gpxtpx:TrackPointExtension><gpxtpx:atemp>2.2</gpxtpx:atemp></gpxtpx:TrackPointExtension></extensions></trkpt><trkpt lat="42.2289651912" lon="13.4185002744"><ele>1556.51</ele><time>2026-03-11T16:50:19Z</time><extensions><gpxtpx:TrackPointExtension><gpxtpx:atemp>2.2</gpxtpx:atemp></gpxtpx:TrackPointExtension></extensions></trkpt><trkpt lat="42.2289725672" lon="13.4185049683"><ele>1556.35</ele><time>2026-03-11T16:50:20Z</time><extensions><gpxtpx:TrackPointExtension><gpxtpx:atemp>2.2</gpxtpx:atemp></gpxtpx:TrackPointExtension></extensions></trkpt><trkpt lat="42.2289813682" lon="13.4185074829"><ele>1556.29</ele><time>2026-03-11T16:50:21Z</time><extensions><gpxtpx:TrackPointExtension><gpxtpx:atemp>2.2</gpxtpx:atemp></gpxtpx:TrackPointExtension></extensions></trkpt><trkpt lat="42.2289914265" lon="13.4185097460"><ele>1556.25</ele><time>2026-03-11T16:50:22Z</time><extensions><gpxtpx:TrackPointExtension><gpxtpx:atemp>2.2</gpxtpx:atemp></gpxtpx:TrackPointExtension></extensions></trkpt><trkpt lat="42.2289981321" lon="13.4185130987"><ele>1556.22</ele><time>2026-03-11T16:50:23Z</time><extensions><gpxtpx:TrackPointExtension><gpxtpx:atemp>2.2</gpxtpx:atemp></gpxtpx:TrackPointExtension></extensions></trkpt><trkpt lat="42.2290060949" lon="13.4185165353"><ele>1556.21</ele><time>2026-03-11T16:50:24Z</time><extensions><gpxtpx:TrackPointExtension><gpxtpx:atemp>2.2</gpxtpx:atemp></gpxtpx:TrackPointExtension></extensions></trkpt><trkpt lat="42.2290167399" lon="13.4185184631"><ele>1556.21</ele><time>2026-03-11T16:50:25Z</time><extensions><gpxtpx:TrackPointExtension><gpxtpx:atemp>2.2</gpxtpx:atemp></gpxtpx:TrackPointExtension></extensions></trkpt><trkpt lat="42.2290240321" lon="13.4185226541"><ele>1556.21</ele><time>2026-03-11T16:50:26Z</time><extensions><gpxtpx:TrackPointExtension><gpxtpx:atemp>2.2</gpxtpx:atemp></gpxtpx:TrackPointExtension></extensions></trkpt><trkpt lat="42.2290342581" lon="13.4185258392"><ele>1556.21</ele><time>2026-03-11T16:50:27Z</time><extensions><gpxtpx:TrackPointExtension><gpxtpx:atemp>2.2</gpxtpx:atemp></gpxtpx:TrackPointExtension></extensions></trkpt><trkpt lat="42.2290419694" lon="13.4185258392"><ele>1556.19</ele><time>2026-03-11T16:50:28Z</time><extensions><gpxtpx:TrackPointExtension><gpxtpx:atemp>2.2</gpxtpx:atemp></gpxtpx:TrackPointExtension></extensions></trkpt><trkpt lat="42.2290507704" lon="13.4185311198"><ele>1556.19</ele><time>2026-03-11T16:50:29Z</time><extensions><gpxtpx:TrackPointExtension><gpxtpx:atemp>2.2</gpxtpx:atemp></gpxtpx:TrackPointExtension></extensions></trkpt><trkpt lat="42.2290601581" lon="13.4185327962"><ele>1556.20</ele><time>2026-03-11T16:50:30Z</time><extensions><gpxtpx:TrackPointExtension><gpxtpx:atemp>2.2</gpxtpx:atemp></gpxtpx:TrackPointExtension></extensions></trkpt><trkpt lat="42.2290687915" lon="13.4185334668"><ele>1556.21</ele><time>2026-03-11T16:50:31Z</time><extensions><gpxtpx:TrackPointExtension><gpxtpx:atemp>2.2</gpxtpx:atemp></gpxtpx:TrackPointExtension></extensions></trkpt><trkpt lat="42.2290763352" lon="13.4185373224"><ele>1556.19</ele><time>2026-03-11T16:50:32Z</time><extensions><gpxtpx:TrackPointExtension><gpxtpx:atemp>2.2</gpxtpx:atemp></gpxtpx:TrackPointExtension></extensions></trkpt><trkpt lat="42.2290859744" lon="13.4185404237"><ele>1556.18</ele><time>2026-03-11T16:50:33Z</time><extensions><gpxtpx:TrackPointExtension><gpxtpx:atemp>2.2</gpxtpx:atemp></gpxtpx:TrackPointExtension></extensions></trkpt><trkpt lat="42.2290942725" lon="13.4185428545"><ele>1556.16</ele><time>2026-03-11T16:50:34Z</time><extensions><gpxtpx:TrackPointExtension><gpxtpx:atemp>2.4</gpxtpx:atemp></gpxtpx:TrackPointExtension></extensions></trkpt><trkpt lat="42.2291033249" lon="13.4185440280"><ele>1556.10</ele><time>2026-03-11T16:50:35Z</time><extensions><gpxtpx:TrackPointExtension><gpxtpx:atemp>2.4</gpxtpx:atemp></gpxtpx:TrackPointExtension></extensions></trkpt><trkpt lat="42.2291114554" lon="13.4185466263"><ele>1556.05</ele><time>2026-03-11T16:50:36Z</time><extensions><gpxtpx:TrackPointExtension><gpxtpx:atemp>2.4</gpxtpx:atemp></gpxtpx:TrackPointExtension></extensions></trkpt><trkpt lat="42.2291184962" lon="13.4185461234"><ele>1556.00</ele><time>2026-03-11T16:50:37Z</time><extensions><gpxtpx:TrackPointExtension><gpxtpx:atemp>2.4</gpxtpx:atemp></gpxtpx:TrackPointExtension></extensions></trkpt><trkpt lat="42.2291281354" lon="13.4185474645"><ele>1555.96</ele><time>2026-03-11T16:50:38Z</time><extensions><gpxtpx:TrackPointExtension><gpxtpx:atemp>2.4</gpxtpx:atemp></gpxtpx:TrackPointExtension></extensions></trkpt><trkpt lat="42.2291351762" lon="13.4185514878"><ele>1555.93</ele><time>2026-03-11T16:50:39Z</time><extensions><gpxtpx:TrackPointExtension><gpxtpx:atemp>2.4</gpxtpx:atemp></gpxtpx:TrackPointExtension></extensions></trkpt><trkpt lat="42.2291440610" lon="13.4185550921"><ele>1555.88</ele><time>2026-03-11T16:50:40Z</time><extensions><gpxtpx:TrackPointExtension><gpxtpx:atemp>2.4</gpxtpx:atemp></gpxtpx:TrackPointExtension></extensions></trkpt><trkpt lat="42.2291532811" lon="13.4185590316"><ele>1555.85</ele><time>2026-03-11T16:50:41Z</time><extensions><gpxtpx:TrackPointExtension><gpxtpx:atemp>2.4</gpxtpx:atemp></gpxtpx:TrackPointExtension></extensions></trkpt><trkpt lat="42.2291612439" lon="13.4185628872"><ele>1555.81</ele><time>2026-03-11T16:50:42Z</time><extensions><gpxtpx:TrackPointExtension><gpxtpx:atemp>2.4</gpxtpx:atemp></gpxtpx:TrackPointExtension></extensions></trkpt><trkpt lat="42.2291693743" lon="13.4185654856"><ele>1555.69</ele><time>2026-03-11T16:50:43Z</time><extensions><gpxtpx:TrackPointExtension><gpxtpx:atemp>2.4</gpxtpx:atemp></gpxtpx:TrackPointExtension></extensions></trkpt><trkpt lat="42.2291793488" lon="13.4185654856"><ele>1555.65</ele><time>2026-03-11T16:50:44Z</time><extensions><gpxtpx:TrackPointExtension><gpxtpx:atemp>2.4</gpxtpx:atemp></gpxtpx:TrackPointExtension></extensions></trkpt><trkpt lat="42.2291852999" lon="13.4185702633"><ele>1555.64</ele><time>2026-03-11T16:50:45Z</time><extensions><gpxtpx:TrackPointExtension><gpxtpx:atemp>2.4</gpxtpx:atemp></gpxtpx:TrackPointExtension></extensions></trkpt><trkpt lat="42.2291948553" lon="13.4185779747"><ele>1555.63</ele><time>2026-03-11T16:50:46Z</time><extensions><gpxtpx:TrackPointExtension><gpxtpx:atemp>2.4</gpxtpx:atemp></gpxtpx:TrackPointExtension></extensions></trkpt><trkpt lat="42.2292012256" lon="13.4185820818"><ele>1555.64</ele><time>2026-03-11T16:50:47Z</time><extensions><gpxtpx:TrackPointExtension><gpxtpx:atemp>2.4</gpxtpx:atemp></gpxtpx:TrackPointExtension></extensions></trkpt><trkpt lat="42.2292088531" lon="13.4185858537"><ele>1555.68</ele><time>2026-03-11T16:50:48Z</time><extensions><gpxtpx:TrackPointExtension><gpxtpx:atemp>2.4</gpxtpx:atemp></gpxtpx:TrackPointExtension></extensions></trkpt><trkpt lat="42.2292160615" lon="13.4185929783"><ele>1555.75</ele><time>2026-03-11T16:50:49Z</time><extensions><gpxtpx:TrackPointExtension><gpxtpx:atemp>2.4</gpxtpx:atemp></gpxtpx:TrackPointExtension></extensions></trkpt><trkpt lat="42.2292261198" lon="13.4185984265"><ele>1555.82</ele><time>2026-03-11T16:50:50Z</time><extensions><gpxtpx:TrackPointExtension><gpxtpx:atemp>2.4</gpxtpx:atemp></gpxtpx:TrackPointExtension></extensions></trkpt><trkpt lat="42.2292342503" lon="13.4186021984"><ele>1555.93</ele><time>2026-03-11T16:50:51Z</time><extensions><gpxtpx:TrackPointExtension><gpxtpx:atemp>2.4</gpxtpx:atemp></gpxtpx:TrackPointExtension></extensions></trkpt><trkpt lat="42.2292423807" lon="13.4186053835"><ele>1556.03</ele><time>2026-03-11T16:50:52Z</time><extensions><gpxtpx:TrackPointExtension><gpxtpx:atemp>2.4</gpxtpx:atemp></gpxtpx:TrackPointExtension></extensions></trkpt><trkpt lat="42.2292501759" lon="13.4186103288"><ele>1556.11</ele><time>2026-03-11T16:50:53Z</time><extensions><gpxtpx:TrackPointExtension><gpxtpx:atemp>2.4</gpxtpx:atemp></gpxtpx:TrackPointExtension></extensions></trkpt><trkpt lat="42.2292579710" lon="13.4186144359"><ele>1556.17</ele><time>2026-03-11T16:50:54Z</time><extensions><gpxtpx:TrackPointExtension><gpxtpx:atemp>2.4</gpxtpx:atemp></gpxtpx:TrackPointExtension></extensions></trkpt><trkpt lat="42.2292662691" lon="13.4186192974"><ele>1556.20</ele><time>2026-03-11T16:50:55Z</time><extensions><gpxtpx:TrackPointExtension><gpxtpx:atemp>2.4</gpxtpx:atemp></gpxtpx:TrackPointExtension></extensions></trkpt><trkpt lat="42.2292744834" lon="13.4186204709"><ele>1556.20</ele><time>2026-03-11T16:50:56Z</time><extensions><gpxtpx:TrackPointExtension><gpxtpx:atemp>2.4</gpxtpx:atemp></gpxtpx:TrackPointExtension></extensions></trkpt><trkpt lat="42.2292824462" lon="13.4186252486"><ele>1556.19</ele><time>2026-03-11T16:50:57Z</time><extensions><gpxtpx:TrackPointExtension><gpxtpx:atemp>2.4</gpxtpx:atemp></gpxtpx:TrackPointExtension></extensions></trkpt><trkpt lat="42.2292904928" lon="13.4186285175"><ele>1556.17</ele><time>2026-03-11T16:50:58Z</time><extensions><gpxtpx:TrackPointExtension><gpxtpx:atemp>2.4</gpxtpx:atemp></gpxtpx:TrackPointExtension></extensions></trkpt><trkpt lat="42.2292954382" lon="13.4186305292"><ele>1556.15</ele><time>2026-03-11T16:50:59Z</time><extensions><gpxtpx:TrackPointExtension><gpxtpx:atemp>2.4</gpxtpx:atemp></gpxtpx:TrackPointExtension></extensions></trkpt><trkpt lat="42.2293037362" lon="13.4186314512"><ele>1556.13</ele><time>2026-03-11T16:51:00Z</time><extensions><gpxtpx:TrackPointExtension><gpxtpx:atemp>2.4</gpxtpx:atemp></gpxtpx:TrackPointExtension></extensions></trkpt><trkpt lat="42.2293125372" lon="13.4186339658"><ele>1556.11</ele><time>2026-03-11T16:51:01Z</time><extensions><gpxtpx:TrackPointExtension><gpxtpx:atemp>2.4</gpxtpx:atemp></gpxtpx:TrackPointExtension></extensions></trkpt><trkpt lat="42.2293216735" lon="13.4186369833"><ele>1556.10</ele><time>2026-03-11T16:51:02Z</time><extensions><gpxtpx:TrackPointExtension><gpxtpx:atemp>2.4</gpxtpx:atemp></gpxtpx:TrackPointExtension></extensions></trkpt><trkpt lat="42.2293308936" lon="13.4186348878"><ele>1556.07</ele><time>2026-03-11T16:51:03Z</time><extensions><gpxtpx:TrackPointExtension><gpxtpx:atemp>2.4</gpxtpx:atemp></gpxtpx:TrackPointExtension></extensions></trkpt><trkpt lat="42.2293396946" lon="13.4186316188"><ele>1556.03</ele><time>2026-03-11T16:51:04Z</time><extensions><gpxtpx:TrackPointExtension><gpxtpx:atemp>2.4</gpxtpx:atemp></gpxtpx:TrackPointExtension></extensions></trkpt><trkpt lat="42.2293453943" lon="13.4186311997"><ele>1555.97</ele><time>2026-03-11T16:51:05Z</time><extensions><gpxtpx:TrackPointExtension><gpxtpx:atemp>2.4</gpxtpx:atemp></gpxtpx:TrackPointExtension></extensions></trkpt><trkpt lat="42.2293525189" lon="13.4186269250"><ele>1555.78</ele><time>2026-03-11T16:51:06Z</time><extensions><gpxtpx:TrackPointExtension><gpxtpx:atemp>2.4</gpxtpx:atemp></gpxtpx:TrackPointExtension></extensions></trkpt><trkpt lat="42.2293608170" lon="13.4186233208"><ele>1555.67</ele><time>2026-03-11T16:51:07Z</time><extensions><gpxtpx:TrackPointExtension><gpxtpx:atemp>2.4</gpxtpx:atemp></gpxtpx:TrackPointExtension></extensions></trkpt><trkpt lat="42.2293671872" lon="13.4186229855"><ele>1555.60</ele><time>2026-03-11T16:51:08Z</time><extensions><gpxtpx:TrackPointExtension><gpxtpx:atemp>2.4</gpxtpx:atemp></gpxtpx:TrackPointExtension></extensions></trkpt><trkpt lat="42.2293738928" lon="13.4186191298"><ele>1555.55</ele><time>2026-03-11T16:51:09Z</time><extensions><gpxtpx:TrackPointExtension><gpxtpx:atemp>2.4</gpxtpx:atemp></gpxtpx:TrackPointExtension></extensions></trkpt><trkpt lat="42.2293813527" lon="13.4186199680"><ele>1555.52</ele><time>2026-03-11T16:51:10Z</time><extensions><gpxtpx:TrackPointExtension><gpxtpx:atemp>2.4</gpxtpx:atemp></gpxtpx:TrackPointExtension></extensions></trkpt><trkpt lat="42.2293890640" lon="13.4186208900"><ele>1555.49</ele><time>2026-03-11T16:51:11Z</time><extensions><gpxtpx:TrackPointExtension><gpxtpx:atemp>2.4</gpxtpx:atemp></gpxtpx:TrackPointExtension></extensions></trkpt><trkpt lat="42.2293950990" lon="13.4186210576"><ele>1555.43</ele><time>2026-03-11T16:51:12Z</time><extensions><gpxtpx:TrackPointExtension><gpxtpx:atemp>2.4</gpxtpx:atemp></gpxtpx:TrackPointExtension></extensions></trkpt><trkpt lat="42.2294015530" lon="13.4186255839"><ele>1555.40</ele><time>2026-03-11T16:51:13Z</time><extensions><gpxtpx:TrackPointExtension><gpxtpx:atemp>2.4</gpxtpx:atemp></gpxtpx:TrackPointExtension></extensions></trkpt><trkpt lat="42.2294081748" lon="13.4186296910"><ele>1555.39</ele><time>2026-03-11T16:51:14Z</time><extensions><gpxtpx:TrackPointExtension><gpxtpx:atemp>2.4</gpxtpx:atemp></gpxtpx:TrackPointExtension></extensions></trkpt><trkpt lat="42.2294140421" lon="13.4186351392"><ele>1555.38</ele><time>2026-03-11T16:51:15Z</time><extensions><gpxtpx:TrackPointExtension><gpxtpx:atemp>2.4</gpxtpx:atemp></gpxtpx:TrackPointExtension></extensions></trkpt><trkpt lat="42.2294177301" lon="13.4186398331"><ele>1555.38</ele><time>2026-03-11T16:51:16Z</time><extensions><gpxtpx:TrackPointExtension><gpxtpx:atemp>2.4</gpxtpx:atemp></gpxtpx:TrackPointExtension></extensions></trkpt><trkpt lat="42.2294191550" lon="13.4186409228"><ele>1555.42</ele><time>2026-03-11T16:51:17Z</time><extensions><gpxtpx:TrackPointExtension><gpxtpx:atemp>2.4</gpxtpx:atemp></gpxtpx:TrackPointExtension></extensions></trkpt><trkpt lat="42.2294189874" lon="13.4186402522"><ele>1555.51</ele><time>2026-03-11T16:51:18Z</time><extensions><gpxtpx:TrackPointExtension><gpxtpx:atemp>2.4</gpxtpx:atemp></gpxtpx:TrackPointExtension></extensions></trkpt><trkpt lat="42.2294196580" lon="13.4186393302"><ele>1555.63</ele><time>2026-03-11T16:51:19Z</time><extensions><gpxtpx:TrackPointExtension><gpxtpx:atemp>2.4</gpxtpx:atemp></gpxtpx:TrackPointExtension></extensions></trkpt><trkpt lat="42.2294194903" lon="13.4186378215"><ele>1555.74</ele><time>2026-03-11T16:51:20Z</time><extensions><gpxtpx:TrackPointExtension><gpxtpx:atemp>2.4</gpxtpx:atemp></gpxtpx:TrackPointExtension></extensions></trkpt><trkpt lat="42.2294197418" lon="13.4186381567"><ele>1555.82</ele><time>2026-03-11T16:51:21Z</time><extensions><gpxtpx:TrackPointExtension><gpxtpx:atemp>2.4</gpxtpx:atemp></gpxtpx:TrackPointExtension></extensions></trkpt><trkpt lat="42.2294204962" lon="13.4186390787"><ele>1555.87</ele><time>2026-03-11T16:51:22Z</time><extensions><gpxtpx:TrackPointExtension><gpxtpx:atemp>2.4</gpxtpx:atemp></gpxtpx:TrackPointExtension></extensions></trkpt><trkpt lat="42.2294208314" lon="13.4186390787"><ele>1555.89</ele><time>2026-03-11T16:51:23Z</time><extensions><gpxtpx:TrackPointExtension><gpxtpx:atemp>2.4</gpxtpx:atemp></gpxtpx:TrackPointExtension></extensions></trkpt><trkpt lat="42.2294198256" lon="13.4186384920"><ele>1555.91</ele><time>2026-03-11T16:51:24Z</time><extensions><gpxtpx:TrackPointExtension><gpxtpx:atemp>2.4</gpxtpx:atemp></gpxtpx:TrackPointExtension></extensions></trkpt><trkpt lat="42.2294196580" lon="13.4186392464"><ele>1555.92</ele><time>2026-03-11T16:51:25Z</time><extensions><gpxtpx:TrackPointExtension><gpxtpx:atemp>2.4</gpxtpx:atemp></gpxtpx:TrackPointExtension></extensions></trkpt><trkpt lat="42.2294190712" lon="13.4186391626"><ele>1555.93</ele><time>2026-03-11T16:51:26Z</time><extensions><gpxtpx:TrackPointExtension><gpxtpx:atemp>2.4</gpxtpx:atemp></gpxtpx:TrackPointExtension></extensions></trkpt><trkpt lat="42.2294189874" lon="13.4186386596"><ele>1555.93</ele><time>2026-03-11T16:51:27Z</time><extensions><gpxtpx:TrackPointExtension><gpxtpx:atemp>2.4</gpxtpx:atemp></gpxtpx:TrackPointExtension></extensions></trkpt><trkpt lat="42.2294190712" lon="13.4186384920"><ele>1555.91</ele><time>2026-03-11T16:51:28Z</time><extensions><gpxtpx:TrackPointExtension><gpxtpx:atemp>2.4</gpxtpx:atemp></gpxtpx:TrackPointExtension></extensions></trkpt><trkpt lat="42.2294186521" lon="13.4186365642"><ele>1555.82</ele><time>2026-03-11T16:51:29Z</time><extensions><gpxtpx:TrackPointExtension><gpxtpx:atemp>2.4</gpxtpx:atemp></gpxtpx:TrackPointExtension></extensions></trkpt><trkpt lat="42.2294192389" lon="13.4186358936"><ele>1555.80</ele><time>2026-03-11T16:51:30Z</time><extensions><gpxtpx:TrackPointExtension><gpxtpx:atemp>2.4</gpxtpx:atemp></gpxtpx:TrackPointExtension></extensions></trkpt><trkpt lat="42.2294189874" lon="13.4186351392"><ele>1555.79</ele><time>2026-03-11T16:51:31Z</time><extensions><gpxtpx:TrackPointExtension><gpxtpx:atemp>2.4</gpxtpx:atemp></gpxtpx:TrackPointExtension></extensions></trkpt><trkpt lat="42.2294190712" lon="13.4186359774"><ele>1555.81</ele><time>2026-03-11T16:51:32Z</time><extensions><gpxtpx:TrackPointExtension><gpxtpx:atemp>2.4</gpxtpx:atemp></gpxtpx:TrackPointExtension></extensions></trkpt><trkpt lat="42.2294192389" lon="13.4186370671"><ele>1555.96</ele><time>2026-03-11T16:51:33Z</time><extensions><gpxtpx:TrackPointExtension><gpxtpx:atemp>2.4</gpxtpx:atemp></gpxtpx:TrackPointExtension></extensions></trkpt><trkpt lat="42.2294195741" lon="13.4186370671"><ele>1556.08</ele><time>2026-03-11T16:51:34Z</time><extensions><gpxtpx:TrackPointExtension><gpxtpx:atemp>2.4</gpxtpx:atemp></gpxtpx:TrackPointExtension></extensions></trkpt><trkpt lat="42.2294197418" lon="13.4186377376"><ele>1556.16</ele><time>2026-03-11T16:51:35Z</time><extensions><gpxtpx:TrackPointExtension><gpxtpx:atemp>2.4</gpxtpx:atemp></gpxtpx:TrackPointExtension></extensions></trkpt><trkpt lat="42.2294190712" lon="13.4186380729"><ele>1556.20</ele><time>2026-03-11T16:51:36Z</time><extensions><gpxtpx:TrackPointExtension><gpxtpx:atemp>2.4</gpxtpx:atemp></gpxtpx:TrackPointExtension></extensions></trkpt><trkpt lat="42.2294191550" lon="13.4186385758"><ele>1556.17</ele><time>2026-03-11T16:51:37Z</time><extensions><gpxtpx:TrackPointExtension><gpxtpx:atemp>2.4</gpxtpx:atemp></gpxtpx:TrackPointExtension></extensions></trkpt><trkpt lat="42.2294186521" lon="13.4186387435"><ele>1556.13</ele><time>2026-03-11T16:51:38Z</time><extensions><gpxtpx:TrackPointExtension><gpxtpx:atemp>2.4</gpxtpx:atemp></gpxtpx:TrackPointExtension></extensions></trkpt><trkpt lat="42.2294182330" lon="13.4186384920"><ele>1556.08</ele><time>2026-03-11T16:51:39Z</time><extensions><gpxtpx:TrackPointExtension><gpxtpx:atemp>2.4</gpxtpx:atemp></gpxtpx:TrackPointExtension></extensions></trkpt><trkpt lat="42.2294181492" lon="13.4186382405"><ele>1556.03</ele><time>2026-03-11T16:51:40Z</time><extensions><gpxtpx:TrackPointExtension><gpxtpx:atemp>2.4</gpxtpx:atemp></gpxtpx:TrackPointExtension></extensions></trkpt><trkpt lat="42.2294180654" lon="13.4186380729"><ele>1555.98</ele><time>2026-03-11T16:51:41Z</time><extensions><gpxtpx:TrackPointExtension><gpxtpx:atemp>2.4</gpxtpx:atemp></gpxtpx:TrackPointExtension></extensions></trkpt><trkpt lat="42.2294171434" lon="13.4186360613"><ele>1555.95</ele><time>2026-03-11T16:51:42Z</time><extensions><gpxtpx:TrackPointExtension><gpxtpx:atemp>2.4</gpxtpx:atemp></gpxtpx:TrackPointExtension></extensions></trkpt><trkpt lat="42.2294159699" lon="13.4186343849"><ele>1555.94</ele><time>2026-03-11T16:51:43Z</time><extensions><gpxtpx:TrackPointExtension><gpxtpx:atemp>2.4</gpxtpx:atemp></gpxtpx:TrackPointExtension></extensions></trkpt><trkpt lat="42.2294158861" lon="13.4186332952"><ele>1555.93</ele><time>2026-03-11T16:51:44Z</time><extensions><gpxtpx:TrackPointExtension><gpxtpx:atemp>2.4</gpxtpx:atemp></gpxtpx:TrackPointExtension></extensions></trkpt><trkpt lat="42.2294161376" lon="13.4186333790"><ele>1555.91</ele><time>2026-03-11T16:51:45Z</time><extensions><gpxtpx:TrackPointExtension><gpxtpx:atemp>2.4</gpxtpx:atemp></gpxtpx:TrackPointExtension></extensions></trkpt><trkpt lat="42.2294162214" lon="13.4186316188"><ele>1555.88</ele><time>2026-03-11T16:51:46Z</time><extensions><gpxtpx:TrackPointExtension><gpxtpx:atemp>2.4</gpxtpx:atemp></gpxtpx:TrackPointExtension></extensions></trkpt><trkpt lat="42.2294172272" lon="13.4186311997"><ele>1555.85</ele><time>2026-03-11T16:51:47Z</time><extensions><gpxtpx:TrackPointExtension><gpxtpx:atemp>2.4</gpxtpx:atemp></gpxtpx:TrackPointExtension></extensions></trkpt><trkpt lat="42.2294144612" lon="13.4186319541"><ele>1555.85</ele><time>2026-03-11T16:51:48Z</time><extensions><gpxtpx:TrackPointExtension><gpxtpx:atemp>2.4</gpxtpx:atemp></gpxtpx:TrackPointExtension></extensions></trkpt><trkpt lat="42.2294145450" lon="13.4186313674"><ele>1555.83</ele><time>2026-03-11T16:51:49Z</time><extensions><gpxtpx:TrackPointExtension><gpxtpx:atemp>2.4</gpxtpx:atemp></gpxtpx:TrackPointExtension></extensions></trkpt><trkpt lat="42.2294152994" lon="13.4186305292"><ele>1555.83</ele><time>2026-03-11T16:51:50Z</time><extensions><gpxtpx:TrackPointExtension><gpxtpx:atemp>2.4</gpxtpx:atemp></gpxtpx:TrackPointExtension></extensions></trkpt><trkpt lat="42.2294146288" lon="13.4186313674"><ele>1555.85</ele><time>2026-03-11T16:51:51Z</time><extensions><gpxtpx:TrackPointExtension><gpxtpx:atemp>2.4</gpxtpx:atemp></gpxtpx:TrackPointExtension></extensions></trkpt><trkpt lat="42.2294148803" lon="13.4186310321"><ele>1555.86</ele><time>2026-03-11T16:51:52Z</time><extensions><gpxtpx:TrackPointExtension><gpxtpx:atemp>2.4</gpxtpx:atemp></gpxtpx:TrackPointExtension></extensions></trkpt><trkpt lat="42.2294152994" lon="13.4186311997"><ele>1555.87</ele><time>2026-03-11T16:51:53Z</time><extensions><gpxtpx:TrackPointExtension><gpxtpx:atemp>2.4</gpxtpx:atemp></gpxtpx:TrackPointExtension></extensions></trkpt><trkpt lat="42.2294153832" lon="13.4186310321"><ele>1555.86</ele><time>2026-03-11T16:51:54Z</time><extensions><gpxtpx:TrackPointExtension><gpxtpx:atemp>2.4</gpxtpx:atemp></gpxtpx:TrackPointExtension></extensions></trkpt><trkpt lat="42.2294155508" lon="13.4186307807"><ele>1555.83</ele><time>2026-03-11T16:51:55Z</time><extensions><gpxtpx:TrackPointExtension><gpxtpx:atemp>2.4</gpxtpx:atemp></gpxtpx:TrackPointExtension></extensions></trkpt><trkpt lat="42.2294176463" lon="13.4186307807"><ele>1555.83</ele><time>2026-03-11T16:51:56Z</time><extensions><gpxtpx:TrackPointExtension><gpxtpx:atemp>2.4</gpxtpx:atemp></gpxtpx:TrackPointExtension></extensions></trkpt><trkpt lat="42.2294167243" lon="13.4186306968"><ele>1555.80</ele><time>2026-03-11T16:51:57Z</time><extensions><gpxtpx:TrackPointExtension><gpxtpx:atemp>2.4</gpxtpx:atemp></gpxtpx:TrackPointExtension></extensions></trkpt><trkpt lat="42.2294145450" lon="13.4186316188"><ele>1555.70</ele><time>2026-03-11T16:51:58Z</time><extensions><gpxtpx:TrackPointExtension><gpxtpx:atemp>2.4</gpxtpx:atemp></gpxtpx:TrackPointExtension></extensions></trkpt><trkpt lat="42.2294135392" lon="13.4186312836"><ele>1555.35</ele><time>2026-03-11T16:51:59Z</time><extensions><gpxtpx:TrackPointExtension><gpxtpx:atemp>2.4</gpxtpx:atemp></gpxtpx:TrackPointExtension></extensions></trkpt><trkpt lat="42.2294135392" lon="13.4186290205"><ele>1555.09</ele><time>2026-03-11T16:52:00Z</time><extensions><gpxtpx:TrackPointExtension><gpxtpx:atemp>2.4</gpxtpx:atemp></gpxtpx:TrackPointExtension></extensions></trkpt><trkpt lat="42.2294137906" lon="13.4186299425"><ele>1554.78</ele><time>2026-03-11T16:52:01Z</time><extensions><gpxtpx:TrackPointExtension><gpxtpx:atemp>2.4</gpxtpx:atemp></gpxtpx:TrackPointExtension></extensions></trkpt><trkpt lat="42.2294140421" lon="13.4186305292"><ele>1554.42</ele><time>2026-03-11T16:52:02Z</time><extensions><gpxtpx:TrackPointExtension><gpxtpx:atemp>2.4</gpxtpx:atemp></gpxtpx:TrackPointExtension></extensions></trkpt><trkpt lat="42.2294157185" lon="13.4186311997"><ele>1554.10</ele><time>2026-03-11T16:52:03Z</time><extensions><gpxtpx:TrackPointExtension><gpxtpx:atemp>2.4</gpxtpx:atemp></gpxtpx:TrackPointExtension></extensions></trkpt><trkpt lat="42.2294174787" lon="13.4186303616"><ele>1553.87</ele><time>2026-03-11T16:52:04Z</time><extensions><gpxtpx:TrackPointExtension><gpxtpx:atemp>2.4</gpxtpx:atemp></gpxtpx:TrackPointExtension></extensions></trkpt><trkpt lat="42.2294187360" lon="13.4186301939"><ele>1553.75</ele><time>2026-03-11T16:52:05Z</time><extensions><gpxtpx:TrackPointExtension><gpxtpx:atemp>2.4</gpxtpx:atemp></gpxtpx:TrackPointExtension></extensions></trkpt><trkpt lat="42.2294194903" lon="13.4186295234"><ele>1553.69</ele><time>2026-03-11T16:52:06Z</time><extensions><gpxtpx:TrackPointExtension><gpxtpx:atemp>2.4</gpxtpx:atemp></gpxtpx:TrackPointExtension></extensions></trkpt><trkpt lat="42.2294202447" lon="13.4186300263"><ele>1553.64</ele><time>2026-03-11T16:52:07Z</time><extensions><gpxtpx:TrackPointExtension><gpxtpx:atemp>2.4</gpxtpx:atemp></gpxtpx:TrackPointExtension></extensions></trkpt><trkpt lat="42.2294217534" lon="13.4186295234"><ele>1553.63</ele><time>2026-03-11T16:52:09Z</time><extensions><gpxtpx:TrackPointExtension><gpxtpx:atemp>2.4</gpxtpx:atemp></gpxtpx:TrackPointExtension></extensions></trkpt><trkpt lat="42.2294220887" lon="13.4186287690"><ele>1553.63</ele><time>2026-03-11T16:52:10Z</time><extensions><gpxtpx:TrackPointExtension><gpxtpx:atemp>2.4</gpxtpx:atemp></gpxtpx:TrackPointExtension></extensions></trkpt><trkpt lat="42.2294223402" lon="13.4186286852"><ele>1553.63</ele><time>2026-03-11T16:52:11Z</time><extensions><gpxtpx:TrackPointExtension><gpxtpx:atemp>2.4</gpxtpx:atemp></gpxtpx:TrackPointExtension></extensions></trkpt><trkpt lat="42.2294226754" lon="13.4186288528"><ele>1553.63</ele><time>2026-03-11T16:52:12Z</time><extensions><gpxtpx:TrackPointExtension><gpxtpx:atemp>2.4</gpxtpx:atemp></gpxtpx:TrackPointExtension></extensions></trkpt><trkpt lat="42.2294229269" lon="13.4186280984"><ele>1553.63</ele><time>2026-03-11T16:52:13Z</time><extensions><gpxtpx:TrackPointExtension><gpxtpx:atemp>2.4</gpxtpx:atemp></gpxtpx:TrackPointExtension></extensions></trkpt><trkpt lat="42.2294235975" lon="13.4186274279"><ele>1553.63</ele><time>2026-03-11T16:52:14Z</time><extensions><gpxtpx:TrackPointExtension><gpxtpx:atemp>2.4</gpxtpx:atemp></gpxtpx:TrackPointExtension></extensions></trkpt></trkseg></trk></gpx>